<?xml version="1.0" encoding="UTF-8" standalone="no" ?>
<gpx xmlns="http://www.topografix.com/GPX/1/1" xmlns:xsi="http://www.w3.org/2001/XMLSchema-instance" xsi:schemaLocation="http://www.topografix.com/GPX/1/1 http://www.topografix.com/GPX/1/1/gpx.xsd" version="1.1" creator="VisuGPX - https://www.visugpx.com">
  <metadata>
    <name>LA MOIXERO TRAIL</name>
    <desc><![CDATA[LA MOIXERO TRAIL---------------------]]></desc>
  </metadata>
  <trk>
    <name><![CDATA[La Moixero trail]]></name>
    <trkseg>
      <trkpt lat="42.23374" lon="1.87931">
        <ele>731.269</ele>
        <time>2019-04-18T21:35:42Z</time>
      </trkpt>
      <trkpt lat="42.23372" lon="1.87941">
        <ele>732.604</ele>
        <time>2019-04-18T21:35:49Z</time>
      </trkpt>
      <trkpt lat="42.2337" lon="1.8796">
        <ele>734.524</ele>
        <time>2019-04-18T21:36:01Z</time>
      </trkpt>
      <trkpt lat="42.23358" lon="1.87984">
        <ele>737.408</ele>
        <time>2019-04-18T21:36:19Z</time>
      </trkpt>
      <trkpt lat="42.23342" lon="1.88003">
        <ele>740.949</ele>
        <time>2019-04-18T21:36:36Z</time>
      </trkpt>
      <trkpt lat="42.23326" lon="1.88019">
        <ele>743.771</ele>
        <time>2019-04-18T21:36:52Z</time>
      </trkpt>
      <trkpt lat="42.23312" lon="1.88033">
        <ele>746.62</ele>
        <time>2019-04-18T21:37:08Z</time>
      </trkpt>
      <trkpt lat="42.23296" lon="1.88051">
        <ele>750.068</ele>
        <time>2019-04-18T21:37:27Z</time>
      </trkpt>
      <trkpt lat="42.23284" lon="1.88072">
        <ele>752.374</ele>
        <time>2019-04-18T21:37:44Z</time>
      </trkpt>
      <trkpt lat="42.23271" lon="1.88086">
        <ele>755.337</ele>
        <time>2019-04-18T21:37:59Z</time>
      </trkpt>
      <trkpt lat="42.23259" lon="1.88099">
        <ele>757.74</ele>
        <time>2019-04-18T21:38:13Z</time>
      </trkpt>
      <trkpt lat="42.2326" lon="1.88124">
        <ele>759.563</ele>
        <time>2019-04-18T21:38:26Z</time>
      </trkpt>
      <trkpt lat="42.23265" lon="1.88138">
        <ele>760.522</ele>
        <time>2019-04-18T21:38:35Z</time>
      </trkpt>
      <trkpt lat="42.23269" lon="1.88142">
        <ele>761.062</ele>
        <time>2019-04-18T21:38:39Z</time>
      </trkpt>
      <trkpt lat="42.23283" lon="1.88168">
        <ele>764.008</ele>
        <time>2019-04-18T21:38:59Z</time>
      </trkpt>
      <trkpt lat="42.23294" lon="1.88189">
        <ele>766.408</ele>
        <time>2019-04-18T21:39:14Z</time>
      </trkpt>
      <trkpt lat="42.23308" lon="1.88211">
        <ele>768.855</ele>
        <time>2019-04-18T21:39:31Z</time>
      </trkpt>
      <trkpt lat="42.23322" lon="1.88239">
        <ele>771.187</ele>
        <time>2019-04-18T21:39:50Z</time>
      </trkpt>
      <trkpt lat="42.23332" lon="1.88255">
        <ele>772.636</ele>
        <time>2019-04-18T21:40:02Z</time>
      </trkpt>
      <trkpt lat="42.23345" lon="1.88281">
        <ele>775.084</ele>
        <time>2019-04-18T21:40:21Z</time>
      </trkpt>
      <trkpt lat="42.23352" lon="1.88296">
        <ele>776.46</ele>
        <time>2019-04-18T21:40:31Z</time>
      </trkpt>
      <trkpt lat="42.23368" lon="1.88313">
        <ele>777.913</ele>
        <time>2019-04-18T21:40:47Z</time>
      </trkpt>
      <trkpt lat="42.23388" lon="1.88334">
        <ele>778.316</ele>
        <time>2019-04-18T21:41:04Z</time>
      </trkpt>
      <trkpt lat="42.23397" lon="1.88355">
        <ele>780.869</ele>
        <time>2019-04-18T21:41:18Z</time>
      </trkpt>
      <trkpt lat="42.23413" lon="1.88375">
        <ele>782.634</ele>
        <time>2019-04-18T21:41:34Z</time>
      </trkpt>
      <trkpt lat="42.23424" lon="1.88381">
        <ele>784.055</ele>
        <time>2019-04-18T21:41:44Z</time>
      </trkpt>
      <trkpt lat="42.23433" lon="1.88383">
        <ele>785.01</ele>
        <time>2019-04-18T21:41:51Z</time>
      </trkpt>
      <trkpt lat="42.23442" lon="1.88386">
        <ele>786.108</ele>
        <time>2019-04-18T21:41:58Z</time>
      </trkpt>
      <trkpt lat="42.23445" lon="1.88386">
        <ele>786.196</ele>
        <time>2019-04-18T21:42:00Z</time>
      </trkpt>
      <trkpt lat="42.23459" lon="1.88393">
        <ele>786.588</ele>
        <time>2019-04-18T21:42:10Z</time>
      </trkpt>
      <trkpt lat="42.23476" lon="1.88415">
        <ele>787.597</ele>
        <time>2019-04-18T21:42:26Z</time>
      </trkpt>
      <trkpt lat="42.23483" lon="1.88436">
        <ele>788.985</ele>
        <time>2019-04-18T21:42:39Z</time>
      </trkpt>
      <trkpt lat="42.23494" lon="1.88451">
        <ele>790.881</ele>
        <time>2019-04-18T21:42:52Z</time>
      </trkpt>
      <trkpt lat="42.2351" lon="1.88454">
        <ele>792.764</ele>
        <time>2019-04-18T21:43:06Z</time>
      </trkpt>
      <trkpt lat="42.23526" lon="1.88459">
        <ele>794.187</ele>
        <time>2019-04-18T21:43:22Z</time>
      </trkpt>
      <trkpt lat="42.23548" lon="1.88467">
        <ele>795.65</ele>
        <time>2019-04-18T21:43:40Z</time>
      </trkpt>
      <trkpt lat="42.23568" lon="1.88472">
        <ele>797.516</ele>
        <time>2019-04-18T21:43:55Z</time>
      </trkpt>
      <trkpt lat="42.23571" lon="1.88472">
        <ele>797.576</ele>
        <time>2019-04-18T21:43:58Z</time>
      </trkpt>
      <trkpt lat="42.23588" lon="1.88468">
        <ele>798.913</ele>
        <time>2019-04-18T21:44:12Z</time>
      </trkpt>
      <trkpt lat="42.23611" lon="1.88454">
        <ele>801.508</ele>
        <time>2019-04-18T21:44:29Z</time>
      </trkpt>
      <trkpt lat="42.23615" lon="1.88451">
        <ele>801.854</ele>
        <time>2019-04-18T21:44:32Z</time>
      </trkpt>
      <trkpt lat="42.23629" lon="1.88429">
        <ele>803.336</ele>
        <time>2019-04-18T21:44:49Z</time>
      </trkpt>
      <trkpt lat="42.23636" lon="1.88416">
        <ele>804.765</ele>
        <time>2019-04-18T21:44:59Z</time>
      </trkpt>
      <trkpt lat="42.23644" lon="1.88402">
        <ele>805.713</ele>
        <time>2019-04-18T21:45:09Z</time>
      </trkpt>
      <trkpt lat="42.23671" lon="1.88399">
        <ele>807.229</ele>
        <time>2019-04-18T21:45:30Z</time>
      </trkpt>
      <trkpt lat="42.23677" lon="1.88402">
        <ele>807.152</ele>
        <time>2019-04-18T21:45:33Z</time>
      </trkpt>
      <trkpt lat="42.23702" lon="1.88419">
        <ele>808.715</ele>
        <time>2019-04-18T21:45:53Z</time>
      </trkpt>
      <trkpt lat="42.23725" lon="1.88426">
        <ele>810.558</ele>
        <time>2019-04-18T21:46:09Z</time>
      </trkpt>
      <trkpt lat="42.23736" lon="1.88433">
        <ele>811.971</ele>
        <time>2019-04-18T21:46:20Z</time>
      </trkpt>
      <trkpt lat="42.23744" lon="1.88434">
        <ele>812.941</ele>
        <time>2019-04-18T21:46:26Z</time>
      </trkpt>
      <trkpt lat="42.23766" lon="1.88452">
        <ele>814.915</ele>
        <time>2019-04-18T21:46:45Z</time>
      </trkpt>
      <trkpt lat="42.23777" lon="1.88478">
        <ele>815.908</ele>
        <time>2019-04-18T21:47:02Z</time>
      </trkpt>
      <trkpt lat="42.23798" lon="1.88489">
        <ele>816.46</ele>
        <time>2019-04-18T21:47:18Z</time>
      </trkpt>
      <trkpt lat="42.23827" lon="1.88493">
        <ele>817.262</ele>
        <time>2019-04-18T21:47:37Z</time>
      </trkpt>
      <trkpt lat="42.23839" lon="1.88496">
        <ele>817.341</ele>
        <time>2019-04-18T21:47:51Z</time>
      </trkpt>
      <trkpt lat="42.23859" lon="1.88505">
        <ele>816.459</ele>
        <time>2019-04-18T21:48:06Z</time>
      </trkpt>
      <trkpt lat="42.23869" lon="1.8851">
        <ele>815.455</ele>
        <time>2019-04-18T21:48:12Z</time>
      </trkpt>
      <trkpt lat="42.2388" lon="1.88521">
        <ele>814.368</ele>
        <time>2019-04-18T21:48:17Z</time>
      </trkpt>
      <trkpt lat="42.23905" lon="1.88542">
        <ele>813.581</ele>
        <time>2019-04-18T21:48:28Z</time>
      </trkpt>
      <trkpt lat="42.23929" lon="1.88546">
        <ele>813.474</ele>
        <time>2019-04-18T21:48:38Z</time>
      </trkpt>
      <trkpt lat="42.23951" lon="1.88543">
        <ele>812.497</ele>
        <time>2019-04-18T21:48:48Z</time>
      </trkpt>
      <trkpt lat="42.2396" lon="1.88542">
        <ele>812.923</ele>
        <time>2019-04-18T21:48:52Z</time>
      </trkpt>
      <trkpt lat="42.23961" lon="1.88543">
        <ele>812.925</ele>
        <time>2019-04-18T21:48:53Z</time>
      </trkpt>
      <trkpt lat="42.23963" lon="1.88544">
        <ele>813.008</ele>
        <time>2019-04-18T21:48:54Z</time>
      </trkpt>
      <trkpt lat="42.2398" lon="1.88549">
        <ele>813.912</ele>
        <time>2019-04-18T21:49:04Z</time>
      </trkpt>
      <trkpt lat="42.24004" lon="1.88556">
        <ele>814.494</ele>
        <time>2019-04-18T21:49:17Z</time>
      </trkpt>
      <trkpt lat="42.24025" lon="1.88562">
        <ele>813.543</ele>
        <time>2019-04-18T21:49:29Z</time>
      </trkpt>
      <trkpt lat="42.24057" lon="1.88571">
        <ele>813.041</ele>
        <time>2019-04-18T21:49:41Z</time>
      </trkpt>
      <trkpt lat="42.24072" lon="1.88579">
        <ele>813.417</ele>
        <time>2019-04-18T21:49:47Z</time>
      </trkpt>
      <trkpt lat="42.24073" lon="1.8858">
        <ele>811.49</ele>
        <time>2019-04-18T21:49:48Z</time>
      </trkpt>
      <trkpt lat="42.24075" lon="1.88581">
        <ele>811.583</ele>
        <time>2019-04-18T21:49:49Z</time>
      </trkpt>
      <trkpt lat="42.24097" lon="1.88582">
        <ele>809.636</ele>
        <time>2019-04-18T21:50:00Z</time>
      </trkpt>
      <trkpt lat="42.24122" lon="1.88579">
        <ele>806.224</ele>
        <time>2019-04-18T21:50:09Z</time>
      </trkpt>
      <trkpt lat="42.24147" lon="1.88575">
        <ele>806.604</ele>
        <time>2019-04-18T21:50:21Z</time>
      </trkpt>
      <trkpt lat="42.24152" lon="1.88578">
        <ele>806.714</ele>
        <time>2019-04-18T21:50:26Z</time>
      </trkpt>
      <trkpt lat="42.24154" lon="1.8858">
        <ele>806.708</ele>
        <time>2019-04-18T21:50:28Z</time>
      </trkpt>
      <trkpt lat="42.24172" lon="1.88586">
        <ele>807.615</ele>
        <time>2019-04-18T21:50:40Z</time>
      </trkpt>
      <trkpt lat="42.24185" lon="1.88593">
        <ele>810.057</ele>
        <time>2019-04-18T21:50:53Z</time>
      </trkpt>
      <trkpt lat="42.24205" lon="1.88598">
        <ele>811.966</ele>
        <time>2019-04-18T21:51:09Z</time>
      </trkpt>
      <trkpt lat="42.2422" lon="1.88599">
        <ele>813.544</ele>
        <time>2019-04-18T21:51:24Z</time>
      </trkpt>
      <trkpt lat="42.24229" lon="1.88585">
        <ele>815.96</ele>
        <time>2019-04-18T21:51:38Z</time>
      </trkpt>
      <trkpt lat="42.2424" lon="1.88586">
        <ele>817.393</ele>
        <time>2019-04-18T21:51:52Z</time>
      </trkpt>
      <trkpt lat="42.24244" lon="1.88598">
        <ele>820.676</ele>
        <time>2019-04-18T21:52:04Z</time>
      </trkpt>
      <trkpt lat="42.24246" lon="1.88601">
        <ele>821.129</ele>
        <time>2019-04-18T21:52:07Z</time>
      </trkpt>
      <trkpt lat="42.24246" lon="1.88603">
        <ele>821.139</ele>
        <time>2019-04-18T21:52:08Z</time>
      </trkpt>
      <trkpt lat="42.24246" lon="1.88605">
        <ele>821.101</ele>
        <time>2019-04-18T21:52:09Z</time>
      </trkpt>
      <trkpt lat="42.24252" lon="1.8862">
        <ele>824.521</ele>
        <time>2019-04-18T21:52:23Z</time>
      </trkpt>
      <trkpt lat="42.24255" lon="1.88635">
        <ele>826.008</ele>
        <time>2019-04-18T21:52:33Z</time>
      </trkpt>
      <trkpt lat="42.24257" lon="1.88668">
        <ele>826.966</ele>
        <time>2019-04-18T21:52:50Z</time>
      </trkpt>
      <trkpt lat="42.24265" lon="1.88697">
        <ele>826.058</ele>
        <time>2019-04-18T21:53:04Z</time>
      </trkpt>
      <trkpt lat="42.24271" lon="1.88715">
        <ele>824.467</ele>
        <time>2019-04-18T21:53:14Z</time>
      </trkpt>
      <trkpt lat="42.24271" lon="1.88717">
        <ele>824.525</ele>
        <time>2019-04-18T21:53:15Z</time>
      </trkpt>
      <trkpt lat="42.24271" lon="1.88728">
        <ele>824.041</ele>
        <time>2019-04-18T21:53:22Z</time>
      </trkpt>
      <trkpt lat="42.24271" lon="1.8873">
        <ele>824.054</ele>
        <time>2019-04-18T21:53:23Z</time>
      </trkpt>
      <trkpt lat="42.24265" lon="1.88754">
        <ele>824.087</ele>
        <time>2019-04-18T21:53:37Z</time>
      </trkpt>
      <trkpt lat="42.24265" lon="1.88756">
        <ele>823.95</ele>
        <time>2019-04-18T21:53:38Z</time>
      </trkpt>
      <trkpt lat="42.24262" lon="1.88773">
        <ele>823.956</ele>
        <time>2019-04-18T21:53:47Z</time>
      </trkpt>
      <trkpt lat="42.24261" lon="1.88775">
        <ele>823.959</ele>
        <time>2019-04-18T21:53:48Z</time>
      </trkpt>
      <trkpt lat="42.24253" lon="1.88802">
        <ele>825.014</ele>
        <time>2019-04-18T21:54:03Z</time>
      </trkpt>
      <trkpt lat="42.2425" lon="1.88832">
        <ele>824.908</ele>
        <time>2019-04-18T21:54:17Z</time>
      </trkpt>
      <trkpt lat="42.24258" lon="1.88861">
        <ele>824.078</ele>
        <time>2019-04-18T21:54:31Z</time>
      </trkpt>
      <trkpt lat="42.24269" lon="1.88884">
        <ele>823.63</ele>
        <time>2019-04-18T21:54:45Z</time>
      </trkpt>
      <trkpt lat="42.24284" lon="1.88892">
        <ele>822.569</ele>
        <time>2019-04-18T21:54:58Z</time>
      </trkpt>
      <trkpt lat="42.24293" lon="1.88894">
        <ele>822.627</ele>
        <time>2019-04-18T21:55:04Z</time>
      </trkpt>
      <trkpt lat="42.24317" lon="1.88904">
        <ele>821.243</ele>
        <time>2019-04-18T21:55:17Z</time>
      </trkpt>
      <trkpt lat="42.24326" lon="1.8892">
        <ele>820.746</ele>
        <time>2019-04-18T21:55:30Z</time>
      </trkpt>
      <trkpt lat="42.24331" lon="1.88928">
        <ele>820.679</ele>
        <time>2019-04-18T21:55:37Z</time>
      </trkpt>
      <trkpt lat="42.24332" lon="1.88929">
        <ele>820.622</ele>
        <time>2019-04-18T21:55:38Z</time>
      </trkpt>
      <trkpt lat="42.24345" lon="1.88931">
        <ele>823.027</ele>
        <time>2019-04-18T21:55:52Z</time>
      </trkpt>
      <trkpt lat="42.24357" lon="1.88934">
        <ele>826.368</ele>
        <time>2019-04-18T21:56:06Z</time>
      </trkpt>
      <trkpt lat="42.24369" lon="1.88936">
        <ele>829.714</ele>
        <time>2019-04-18T21:56:20Z</time>
      </trkpt>
      <trkpt lat="42.24382" lon="1.88941">
        <ele>831.208</ele>
        <time>2019-04-18T21:56:33Z</time>
      </trkpt>
      <trkpt lat="42.24384" lon="1.88944">
        <ele>831.765</ele>
        <time>2019-04-18T21:56:35Z</time>
      </trkpt>
      <trkpt lat="42.24384" lon="1.88962">
        <ele>834.697</ele>
        <time>2019-04-18T21:56:49Z</time>
      </trkpt>
      <trkpt lat="42.24385" lon="1.88972">
        <ele>837.496</ele>
        <time>2019-04-18T21:56:59Z</time>
      </trkpt>
      <trkpt lat="42.24389" lon="1.88989">
        <ele>839.984</ele>
        <time>2019-04-18T21:57:12Z</time>
      </trkpt>
      <trkpt lat="42.24393" lon="1.89007">
        <ele>842.71</ele>
        <time>2019-04-18T21:57:26Z</time>
      </trkpt>
      <trkpt lat="42.24395" lon="1.89022">
        <ele>846.573</ele>
        <time>2019-04-18T21:57:40Z</time>
      </trkpt>
      <trkpt lat="42.24401" lon="1.89033">
        <ele>849.446</ele>
        <time>2019-04-18T21:57:53Z</time>
      </trkpt>
      <trkpt lat="42.2441" lon="1.89037">
        <ele>851.929</ele>
        <time>2019-04-18T21:58:05Z</time>
      </trkpt>
      <trkpt lat="42.24423" lon="1.8903">
        <ele>854.256</ele>
        <time>2019-04-18T21:58:18Z</time>
      </trkpt>
      <trkpt lat="42.24434" lon="1.89025">
        <ele>857.159</ele>
        <time>2019-04-18T21:58:31Z</time>
      </trkpt>
      <trkpt lat="42.24449" lon="1.89014">
        <ele>860.014</ele>
        <time>2019-04-18T21:58:47Z</time>
      </trkpt>
      <trkpt lat="42.24459" lon="1.89003">
        <ele>863.008</ele>
        <time>2019-04-18T21:59:01Z</time>
      </trkpt>
      <trkpt lat="42.24468" lon="1.89002">
        <ele>865.998</ele>
        <time>2019-04-18T21:59:13Z</time>
      </trkpt>
      <trkpt lat="42.24478" lon="1.89003">
        <ele>869.29</ele>
        <time>2019-04-18T21:59:25Z</time>
      </trkpt>
      <trkpt lat="42.24488" lon="1.89005">
        <ele>872.049</ele>
        <time>2019-04-18T21:59:37Z</time>
      </trkpt>
      <trkpt lat="42.24499" lon="1.8901">
        <ele>874.457</ele>
        <time>2019-04-18T21:59:50Z</time>
      </trkpt>
      <trkpt lat="42.24508" lon="1.8902">
        <ele>877.493</ele>
        <time>2019-04-18T22:00:04Z</time>
      </trkpt>
      <trkpt lat="42.24516" lon="1.89029">
        <ele>881.196</ele>
        <time>2019-04-18T22:00:17Z</time>
      </trkpt>
      <trkpt lat="42.24519" lon="1.89032">
        <ele>881.649</ele>
        <time>2019-04-18T22:00:20Z</time>
      </trkpt>
      <trkpt lat="42.24523" lon="1.89037">
        <ele>881.772</ele>
        <time>2019-04-18T22:00:24Z</time>
      </trkpt>
      <trkpt lat="42.24526" lon="1.89053">
        <ele>885.064</ele>
        <time>2019-04-18T22:00:37Z</time>
      </trkpt>
      <trkpt lat="42.24523" lon="1.89065">
        <ele>887.906</ele>
        <time>2019-04-18T22:00:48Z</time>
      </trkpt>
      <trkpt lat="42.24521" lon="1.89077">
        <ele>891.316</ele>
        <time>2019-04-18T22:01:01Z</time>
      </trkpt>
      <trkpt lat="42.24519" lon="1.89092">
        <ele>894.708</ele>
        <time>2019-04-18T22:01:15Z</time>
      </trkpt>
      <trkpt lat="42.24517" lon="1.89106">
        <ele>897.579</ele>
        <time>2019-04-18T22:01:27Z</time>
      </trkpt>
      <trkpt lat="42.24522" lon="1.89118">
        <ele>898.461</ele>
        <time>2019-04-18T22:01:36Z</time>
      </trkpt>
      <trkpt lat="42.24528" lon="1.89122">
        <ele>898.48</ele>
        <time>2019-04-18T22:01:40Z</time>
      </trkpt>
      <trkpt lat="42.24546" lon="1.89122">
        <ele>895.248</ele>
        <time>2019-04-18T22:01:51Z</time>
      </trkpt>
      <trkpt lat="42.24557" lon="1.89119">
        <ele>892.854</ele>
        <time>2019-04-18T22:01:59Z</time>
      </trkpt>
      <trkpt lat="42.24575" lon="1.89127">
        <ele>891.277</ele>
        <time>2019-04-18T22:02:13Z</time>
      </trkpt>
      <trkpt lat="42.246" lon="1.89131">
        <ele>892.74</ele>
        <time>2019-04-18T22:02:28Z</time>
      </trkpt>
      <trkpt lat="42.24628" lon="1.8912">
        <ele>894.173</ele>
        <time>2019-04-18T22:02:45Z</time>
      </trkpt>
      <trkpt lat="42.24635" lon="1.89113">
        <ele>892.725</ele>
        <time>2019-04-18T22:02:52Z</time>
      </trkpt>
      <trkpt lat="42.24657" lon="1.89099">
        <ele>891.726</ele>
        <time>2019-04-18T22:03:08Z</time>
      </trkpt>
      <trkpt lat="42.24663" lon="1.89094">
        <ele>891.808</ele>
        <time>2019-04-18T22:03:12Z</time>
      </trkpt>
      <trkpt lat="42.24676" lon="1.89075">
        <ele>889.908</ele>
        <time>2019-04-18T22:03:28Z</time>
      </trkpt>
      <trkpt lat="42.24677" lon="1.89075">
        <ele>889.415</ele>
        <time>2019-04-18T22:03:29Z</time>
      </trkpt>
      <trkpt lat="42.24683" lon="1.89074">
        <ele>888.457</ele>
        <time>2019-04-18T22:03:33Z</time>
      </trkpt>
      <trkpt lat="42.24707" lon="1.89078">
        <ele>888.856</ele>
        <time>2019-04-18T22:03:48Z</time>
      </trkpt>
      <trkpt lat="42.24729" lon="1.89096">
        <ele>889.864</ele>
        <time>2019-04-18T22:04:05Z</time>
      </trkpt>
      <trkpt lat="42.2475" lon="1.89118">
        <ele>891.26</ele>
        <time>2019-04-18T22:04:23Z</time>
      </trkpt>
      <trkpt lat="42.24768" lon="1.89134">
        <ele>893.293</ele>
        <time>2019-04-18T22:04:39Z</time>
      </trkpt>
      <trkpt lat="42.24775" lon="1.89132">
        <ele>894.156</ele>
        <time>2019-04-18T22:04:45Z</time>
      </trkpt>
      <trkpt lat="42.24792" lon="1.89126">
        <ele>897.589</ele>
        <time>2019-04-18T22:05:01Z</time>
      </trkpt>
      <trkpt lat="42.24808" lon="1.89126">
        <ele>900.481</ele>
        <time>2019-04-18T22:05:16Z</time>
      </trkpt>
      <trkpt lat="42.24824" lon="1.89122">
        <ele>902.861</ele>
        <time>2019-04-18T22:05:31Z</time>
      </trkpt>
      <trkpt lat="42.2484" lon="1.89116">
        <ele>905.817</ele>
        <time>2019-04-18T22:05:46Z</time>
      </trkpt>
      <trkpt lat="42.24857" lon="1.89111">
        <ele>908.208</ele>
        <time>2019-04-18T22:06:01Z</time>
      </trkpt>
      <trkpt lat="42.24862" lon="1.8911">
        <ele>909.141</ele>
        <time>2019-04-18T22:06:05Z</time>
      </trkpt>
      <trkpt lat="42.24879" lon="1.89102">
        <ele>910.983</ele>
        <time>2019-04-18T22:06:19Z</time>
      </trkpt>
      <trkpt lat="42.24896" lon="1.89094">
        <ele>913.862</ele>
        <time>2019-04-18T22:06:35Z</time>
      </trkpt>
      <trkpt lat="42.24901" lon="1.89092">
        <ele>914.88</ele>
        <time>2019-04-18T22:06:40Z</time>
      </trkpt>
      <trkpt lat="42.24918" lon="1.89099">
        <ele>915.796</ele>
        <time>2019-04-18T22:06:54Z</time>
      </trkpt>
      <trkpt lat="42.24921" lon="1.89104">
        <ele>915.849</ele>
        <time>2019-04-18T22:06:57Z</time>
      </trkpt>
      <trkpt lat="42.24929" lon="1.89118">
        <ele>915.862</ele>
        <time>2019-04-18T22:07:06Z</time>
      </trkpt>
      <trkpt lat="42.24944" lon="1.89137">
        <ele>916.325</ele>
        <time>2019-04-18T22:07:21Z</time>
      </trkpt>
      <trkpt lat="42.24967" lon="1.89144">
        <ele>919.159</ele>
        <time>2019-04-18T22:07:39Z</time>
      </trkpt>
      <trkpt lat="42.24987" lon="1.89145">
        <ele>922.003</ele>
        <time>2019-04-18T22:07:55Z</time>
      </trkpt>
      <trkpt lat="42.25002" lon="1.89147">
        <ele>925.523</ele>
        <time>2019-04-18T22:08:09Z</time>
      </trkpt>
      <trkpt lat="42.25004" lon="1.89148">
        <ele>925.808</ele>
        <time>2019-04-18T22:08:12Z</time>
      </trkpt>
      <trkpt lat="42.25008" lon="1.89153">
        <ele>926.468</ele>
        <time>2019-04-18T22:08:17Z</time>
      </trkpt>
      <trkpt lat="42.25015" lon="1.89164">
        <ele>929.34</ele>
        <time>2019-04-18T22:08:30Z</time>
      </trkpt>
      <trkpt lat="42.25017" lon="1.89164">
        <ele>929.719</ele>
        <time>2019-04-18T22:08:32Z</time>
      </trkpt>
      <trkpt lat="42.25032" lon="1.89169">
        <ele>932.757</ele>
        <time>2019-04-18T22:08:48Z</time>
      </trkpt>
      <trkpt lat="42.25034" lon="1.8917">
        <ele>932.683</ele>
        <time>2019-04-18T22:08:50Z</time>
      </trkpt>
      <trkpt lat="42.25049" lon="1.89175">
        <ele>935.516</ele>
        <time>2019-04-18T22:09:09Z</time>
      </trkpt>
      <trkpt lat="42.25065" lon="1.89178">
        <ele>938.379</ele>
        <time>2019-04-18T22:09:23Z</time>
      </trkpt>
      <trkpt lat="42.25081" lon="1.89177">
        <ele>940.722</ele>
        <time>2019-04-18T22:09:38Z</time>
      </trkpt>
      <trkpt lat="42.25099" lon="1.89176">
        <ele>943.113</ele>
        <time>2019-04-18T22:09:54Z</time>
      </trkpt>
      <trkpt lat="42.25102" lon="1.89177">
        <ele>943.143</ele>
        <time>2019-04-18T22:09:57Z</time>
      </trkpt>
      <trkpt lat="42.25117" lon="1.89182">
        <ele>945.107</ele>
        <time>2019-04-18T22:10:11Z</time>
      </trkpt>
      <trkpt lat="42.25126" lon="1.89188">
        <ele>947.008</ele>
        <time>2019-04-18T22:10:23Z</time>
      </trkpt>
      <trkpt lat="42.25122" lon="1.8919">
        <ele>948.054</ele>
        <time>2019-04-18T22:10:31Z</time>
      </trkpt>
      <trkpt lat="42.2512" lon="1.89191">
        <ele>949.586</ele>
        <time>2019-04-18T22:10:34Z</time>
      </trkpt>
      <trkpt lat="42.25097" lon="1.89209">
        <ele>950.945</ele>
        <time>2019-04-18T22:10:52Z</time>
      </trkpt>
      <trkpt lat="42.25077" lon="1.89224">
        <ele>953.323</ele>
        <time>2019-04-18T22:11:10Z</time>
      </trkpt>
      <trkpt lat="42.25058" lon="1.89247">
        <ele>954.789</ele>
        <time>2019-04-18T22:11:29Z</time>
      </trkpt>
      <trkpt lat="42.25042" lon="1.89272">
        <ele>957.612</ele>
        <time>2019-04-18T22:11:48Z</time>
      </trkpt>
      <trkpt lat="42.25034" lon="1.89303">
        <ele>958.695</ele>
        <time>2019-04-18T22:12:06Z</time>
      </trkpt>
      <trkpt lat="42.25038" lon="1.89303">
        <ele>960.048</ele>
        <time>2019-04-18T22:12:09Z</time>
      </trkpt>
      <trkpt lat="42.25054" lon="1.89291">
        <ele>961.978</ele>
        <time>2019-04-18T22:12:24Z</time>
      </trkpt>
      <trkpt lat="42.25075" lon="1.89284">
        <ele>965.333</ele>
        <time>2019-04-18T22:12:42Z</time>
      </trkpt>
      <trkpt lat="42.25093" lon="1.89275">
        <ele>967.726</ele>
        <time>2019-04-18T22:12:58Z</time>
      </trkpt>
      <trkpt lat="42.25112" lon="1.89268">
        <ele>971.008</ele>
        <time>2019-04-18T22:13:14Z</time>
      </trkpt>
      <trkpt lat="42.25127" lon="1.89266">
        <ele>973.01</ele>
        <time>2019-04-18T22:13:26Z</time>
      </trkpt>
      <trkpt lat="42.25133" lon="1.89269">
        <ele>974.012</ele>
        <time>2019-04-18T22:13:32Z</time>
      </trkpt>
      <trkpt lat="42.25148" lon="1.89277">
        <ele>974.981</ele>
        <time>2019-04-18T22:13:44Z</time>
      </trkpt>
      <trkpt lat="42.25152" lon="1.89279">
        <ele>974.979</ele>
        <time>2019-04-18T22:13:47Z</time>
      </trkpt>
      <trkpt lat="42.25167" lon="1.89292">
        <ele>975.975</ele>
        <time>2019-04-18T22:14:03Z</time>
      </trkpt>
      <trkpt lat="42.25167" lon="1.89291">
        <ele>975.958</ele>
        <time>2019-04-18T22:14:06Z</time>
      </trkpt>
      <trkpt lat="42.25154" lon="1.89286">
        <ele>975.991</ele>
        <time>2019-04-18T22:14:19Z</time>
      </trkpt>
      <trkpt lat="42.25153" lon="1.89286">
        <ele>975.844</ele>
        <time>2019-04-18T22:14:20Z</time>
      </trkpt>
      <trkpt lat="42.25152" lon="1.8929">
        <ele>975.816</ele>
        <time>2019-04-18T22:14:25Z</time>
      </trkpt>
      <trkpt lat="42.25164" lon="1.89299">
        <ele>979.776</ele>
        <time>2019-04-18T22:14:38Z</time>
      </trkpt>
      <trkpt lat="42.2517" lon="1.89305">
        <ele>979.813</ele>
        <time>2019-04-18T22:14:45Z</time>
      </trkpt>
      <trkpt lat="42.25173" lon="1.89309">
        <ele>979.808</ele>
        <time>2019-04-18T22:14:48Z</time>
      </trkpt>
      <trkpt lat="42.25176" lon="1.89326">
        <ele>980.634</ele>
        <time>2019-04-18T22:14:58Z</time>
      </trkpt>
      <trkpt lat="42.25177" lon="1.89334">
        <ele>983.656</ele>
        <time>2019-04-18T22:15:08Z</time>
      </trkpt>
      <trkpt lat="42.25177" lon="1.89338">
        <ele>983.555</ele>
        <time>2019-04-18T22:15:11Z</time>
      </trkpt>
      <trkpt lat="42.25171" lon="1.89345">
        <ele>984.043</ele>
        <time>2019-04-18T22:15:20Z</time>
      </trkpt>
      <trkpt lat="42.25173" lon="1.89351">
        <ele>985.499</ele>
        <time>2019-04-18T22:15:24Z</time>
      </trkpt>
      <trkpt lat="42.25177" lon="1.89352">
        <ele>985.422</ele>
        <time>2019-04-18T22:15:29Z</time>
      </trkpt>
      <trkpt lat="42.25189" lon="1.89358">
        <ele>985.465</ele>
        <time>2019-04-18T22:15:43Z</time>
      </trkpt>
      <trkpt lat="42.25191" lon="1.8936">
        <ele>985.568</ele>
        <time>2019-04-18T22:15:46Z</time>
      </trkpt>
      <trkpt lat="42.2523" lon="1.89371">
        <ele>985.443</ele>
        <time>2019-04-18T22:16:06Z</time>
      </trkpt>
      <trkpt lat="42.25256" lon="1.8938">
        <ele>985.964</ele>
        <time>2019-04-18T22:16:23Z</time>
      </trkpt>
      <trkpt lat="42.25274" lon="1.89391">
        <ele>987.01</ele>
        <time>2019-04-18T22:16:37Z</time>
      </trkpt>
      <trkpt lat="42.25291" lon="1.89407">
        <ele>988.408</ele>
        <time>2019-04-18T22:16:51Z</time>
      </trkpt>
      <trkpt lat="42.25302" lon="1.89417">
        <ele>987.917</ele>
        <time>2019-04-18T22:17:00Z</time>
      </trkpt>
      <trkpt lat="42.25312" lon="1.89432">
        <ele>988.979</ele>
        <time>2019-04-18T22:17:09Z</time>
      </trkpt>
      <trkpt lat="42.25321" lon="1.89438">
        <ele>990.398</ele>
        <time>2019-04-18T22:17:19Z</time>
      </trkpt>
      <trkpt lat="42.2533" lon="1.8944">
        <ele>990.886</ele>
        <time>2019-04-18T22:17:31Z</time>
      </trkpt>
      <trkpt lat="42.25331" lon="1.89442">
        <ele>990.872</ele>
        <time>2019-04-18T22:17:59Z</time>
      </trkpt>
      <trkpt lat="42.25331" lon="1.8945">
        <ele>991.285</ele>
        <time>2019-04-18T22:18:16Z</time>
      </trkpt>
      <trkpt lat="42.25333" lon="1.89451">
        <ele>991.898</ele>
        <time>2019-04-18T22:18:41Z</time>
      </trkpt>
      <trkpt lat="42.2533" lon="1.89454">
        <ele>991.861</ele>
        <time>2019-04-18T22:19:10Z</time>
      </trkpt>
      <trkpt lat="42.2533" lon="1.8946">
        <ele>991.745</ele>
        <time>2019-04-18T22:19:31Z</time>
      </trkpt>
      <trkpt lat="42.25333" lon="1.89467">
        <ele>995.147</ele>
        <time>2019-04-18T22:19:45Z</time>
      </trkpt>
      <trkpt lat="42.2534" lon="1.89478">
        <ele>998.411</ele>
        <time>2019-04-18T22:19:59Z</time>
      </trkpt>
      <trkpt lat="42.25326" lon="1.89483">
        <ele>1001.808</ele>
        <time>2019-04-18T22:20:14Z</time>
      </trkpt>
      <trkpt lat="42.25318" lon="1.89477">
        <ele>1004.897</ele>
        <time>2019-04-18T22:20:25Z</time>
      </trkpt>
      <trkpt lat="42.2531" lon="1.89471">
        <ele>1008.069</ele>
        <time>2019-04-18T22:20:38Z</time>
      </trkpt>
      <trkpt lat="42.25306" lon="1.89479">
        <ele>1011.018</ele>
        <time>2019-04-18T22:20:51Z</time>
      </trkpt>
      <trkpt lat="42.2531" lon="1.89492">
        <ele>1014.416</ele>
        <time>2019-04-18T22:21:04Z</time>
      </trkpt>
      <trkpt lat="42.25316" lon="1.89507">
        <ele>1016.832</ele>
        <time>2019-04-18T22:21:18Z</time>
      </trkpt>
      <trkpt lat="42.25321" lon="1.89523">
        <ele>1020.165</ele>
        <time>2019-04-18T22:21:32Z</time>
      </trkpt>
      <trkpt lat="42.25323" lon="1.89527">
        <ele>1020.658</ele>
        <time>2019-04-18T22:21:35Z</time>
      </trkpt>
      <trkpt lat="42.25326" lon="1.89543">
        <ele>1023.951</ele>
        <time>2019-04-18T22:21:49Z</time>
      </trkpt>
      <trkpt lat="42.2533" lon="1.89557">
        <ele>1027.353</ele>
        <time>2019-04-18T22:22:02Z</time>
      </trkpt>
      <trkpt lat="42.2533" lon="1.89566">
        <ele>1030.104</ele>
        <time>2019-04-18T22:22:15Z</time>
      </trkpt>
      <trkpt lat="42.25331" lon="1.89575">
        <ele>1033.114</ele>
        <time>2019-04-18T22:22:27Z</time>
      </trkpt>
      <trkpt lat="42.25336" lon="1.89579">
        <ele>1034.508</ele>
        <time>2019-04-18T22:22:42Z</time>
      </trkpt>
      <trkpt lat="42.25332" lon="1.89589">
        <ele>1037.828</ele>
        <time>2019-04-18T22:22:56Z</time>
      </trkpt>
      <trkpt lat="42.25333" lon="1.89593">
        <ele>1037.86</ele>
        <time>2019-04-18T22:22:58Z</time>
      </trkpt>
      <trkpt lat="42.25333" lon="1.89613">
        <ele>1039.479</ele>
        <time>2019-04-18T22:23:13Z</time>
      </trkpt>
      <trkpt lat="42.25333" lon="1.89628">
        <ele>1041.827</ele>
        <time>2019-04-18T22:23:26Z</time>
      </trkpt>
      <trkpt lat="42.2534" lon="1.89629">
        <ele>1044.793</ele>
        <time>2019-04-18T22:23:41Z</time>
      </trkpt>
      <trkpt lat="42.25346" lon="1.89625">
        <ele>1047.036</ele>
        <time>2019-04-18T22:23:53Z</time>
      </trkpt>
      <trkpt lat="42.25354" lon="1.89619">
        <ele>1049.599</ele>
        <time>2019-04-18T22:24:06Z</time>
      </trkpt>
      <trkpt lat="42.25358" lon="1.89626">
        <ele>1052.722</ele>
        <time>2019-04-18T22:24:19Z</time>
      </trkpt>
      <trkpt lat="42.25361" lon="1.89642">
        <ele>1055.684</ele>
        <time>2019-04-18T22:24:34Z</time>
      </trkpt>
      <trkpt lat="42.25356" lon="1.89657">
        <ele>1057.507</ele>
        <time>2019-04-18T22:24:49Z</time>
      </trkpt>
      <trkpt lat="42.25352" lon="1.89675">
        <ele>1060.417</ele>
        <time>2019-04-18T22:25:05Z</time>
      </trkpt>
      <trkpt lat="42.2534" lon="1.8969">
        <ele>1062.308</ele>
        <time>2019-04-18T22:25:22Z</time>
      </trkpt>
      <trkpt lat="42.25331" lon="1.8971">
        <ele>1064.891</ele>
        <time>2019-04-18T22:25:37Z</time>
      </trkpt>
      <trkpt lat="42.25326" lon="1.89728">
        <ele>1067.333</ele>
        <time>2019-04-18T22:25:53Z</time>
      </trkpt>
      <trkpt lat="42.25331" lon="1.89728">
        <ele>1070.012</ele>
        <time>2019-04-18T22:26:07Z</time>
      </trkpt>
      <trkpt lat="42.25342" lon="1.89718">
        <ele>1072.55</ele>
        <time>2019-04-18T22:26:21Z</time>
      </trkpt>
      <trkpt lat="42.25345" lon="1.89727">
        <ele>1075.466</ele>
        <time>2019-04-18T22:26:35Z</time>
      </trkpt>
      <trkpt lat="42.25342" lon="1.89744">
        <ele>1078.229</ele>
        <time>2019-04-18T22:26:50Z</time>
      </trkpt>
      <trkpt lat="42.25342" lon="1.89761">
        <ele>1081.222</ele>
        <time>2019-04-18T22:27:05Z</time>
      </trkpt>
      <trkpt lat="42.25345" lon="1.89774">
        <ele>1083.525</ele>
        <time>2019-04-18T22:27:18Z</time>
      </trkpt>
      <trkpt lat="42.2535" lon="1.89763">
        <ele>1086.474</ele>
        <time>2019-04-18T22:27:30Z</time>
      </trkpt>
      <trkpt lat="42.25358" lon="1.89759">
        <ele>1088.856</ele>
        <time>2019-04-18T22:27:43Z</time>
      </trkpt>
      <trkpt lat="42.25358" lon="1.8976">
        <ele>1088.921</ele>
        <time>2019-04-18T22:27:44Z</time>
      </trkpt>
      <trkpt lat="42.25356" lon="1.89783">
        <ele>1092.308</ele>
        <time>2019-04-18T22:28:02Z</time>
      </trkpt>
      <trkpt lat="42.25362" lon="1.8979">
        <ele>1095.06</ele>
        <time>2019-04-18T22:28:15Z</time>
      </trkpt>
      <trkpt lat="42.25368" lon="1.89786">
        <ele>1098.032</ele>
        <time>2019-04-18T22:28:27Z</time>
      </trkpt>
      <trkpt lat="42.25374" lon="1.89787">
        <ele>1101.491</ele>
        <time>2019-04-18T22:28:44Z</time>
      </trkpt>
      <trkpt lat="42.25384" lon="1.89787">
        <ele>1104.649</ele>
        <time>2019-04-18T22:28:57Z</time>
      </trkpt>
      <trkpt lat="42.25391" lon="1.89793">
        <ele>1107.575</ele>
        <time>2019-04-18T22:29:09Z</time>
      </trkpt>
      <trkpt lat="42.25399" lon="1.89807">
        <ele>1110.488</ele>
        <time>2019-04-18T22:29:25Z</time>
      </trkpt>
      <trkpt lat="42.25404" lon="1.89823">
        <ele>1112.851</ele>
        <time>2019-04-18T22:29:40Z</time>
      </trkpt>
      <trkpt lat="42.25408" lon="1.89843">
        <ele>1115.824</ele>
        <time>2019-04-18T22:29:55Z</time>
      </trkpt>
      <trkpt lat="42.254" lon="1.89865">
        <ele>1117.658</ele>
        <time>2019-04-18T22:30:10Z</time>
      </trkpt>
      <trkpt lat="42.25396" lon="1.89883">
        <ele>1120.052</ele>
        <time>2019-04-18T22:30:25Z</time>
      </trkpt>
      <trkpt lat="42.25399" lon="1.89898">
        <ele>1122.017</ele>
        <time>2019-04-18T22:30:39Z</time>
      </trkpt>
      <trkpt lat="42.25402" lon="1.89883">
        <ele>1124.808</ele>
        <time>2019-04-18T22:30:54Z</time>
      </trkpt>
      <trkpt lat="42.25409" lon="1.89885">
        <ele>1128.298</ele>
        <time>2019-04-18T22:31:05Z</time>
      </trkpt>
      <trkpt lat="42.25416" lon="1.89886">
        <ele>1131.75</ele>
        <time>2019-04-18T22:31:16Z</time>
      </trkpt>
      <trkpt lat="42.25427" lon="1.8988">
        <ele>1133.619</ele>
        <time>2019-04-18T22:31:30Z</time>
      </trkpt>
      <trkpt lat="42.25429" lon="1.89896">
        <ele>1136.457</ele>
        <time>2019-04-18T22:31:44Z</time>
      </trkpt>
      <trkpt lat="42.25438" lon="1.89908">
        <ele>1138.383</ele>
        <time>2019-04-18T22:31:59Z</time>
      </trkpt>
      <trkpt lat="42.25453" lon="1.89911">
        <ele>1140.366</ele>
        <time>2019-04-18T22:32:14Z</time>
      </trkpt>
      <trkpt lat="42.25466" lon="1.89914">
        <ele>1142.719</ele>
        <time>2019-04-18T22:32:28Z</time>
      </trkpt>
      <trkpt lat="42.25473" lon="1.89922">
        <ele>1145.592</ele>
        <time>2019-04-18T22:32:41Z</time>
      </trkpt>
      <trkpt lat="42.25475" lon="1.89922">
        <ele>1146.948</ele>
        <time>2019-04-18T22:32:46Z</time>
      </trkpt>
      <trkpt lat="42.25478" lon="1.89929">
        <ele>1147.961</ele>
        <time>2019-04-18T22:32:51Z</time>
      </trkpt>
      <trkpt lat="42.25484" lon="1.89949">
        <ele>1150.317</ele>
        <time>2019-04-18T22:33:06Z</time>
      </trkpt>
      <trkpt lat="42.25488" lon="1.8997">
        <ele>1152.708</ele>
        <time>2019-04-18T22:33:21Z</time>
      </trkpt>
      <trkpt lat="42.25489" lon="1.89974">
        <ele>1153.237</ele>
        <time>2019-04-18T22:33:24Z</time>
      </trkpt>
      <trkpt lat="42.25487" lon="1.89998">
        <ele>1155.139</ele>
        <time>2019-04-18T22:33:39Z</time>
      </trkpt>
      <trkpt lat="42.25487" lon="1.9002">
        <ele>1157.018</ele>
        <time>2019-04-18T22:33:53Z</time>
      </trkpt>
      <trkpt lat="42.25491" lon="1.90035">
        <ele>1159.466</ele>
        <time>2019-04-18T22:34:05Z</time>
      </trkpt>
      <trkpt lat="42.25493" lon="1.90038">
        <ele>1160.052</ele>
        <time>2019-04-18T22:34:08Z</time>
      </trkpt>
      <trkpt lat="42.25499" lon="1.90055">
        <ele>1161.875</ele>
        <time>2019-04-18T22:34:22Z</time>
      </trkpt>
      <trkpt lat="42.25501" lon="1.90062">
        <ele>1163.478</ele>
        <time>2019-04-18T22:34:29Z</time>
      </trkpt>
      <trkpt lat="42.25499" lon="1.90087">
        <ele>1164.221</ele>
        <time>2019-04-18T22:34:45Z</time>
      </trkpt>
      <trkpt lat="42.25501" lon="1.90102">
        <ele>1166.732</ele>
        <time>2019-04-18T22:35:00Z</time>
      </trkpt>
      <trkpt lat="42.25499" lon="1.90119">
        <ele>1170.592</ele>
        <time>2019-04-18T22:35:13Z</time>
      </trkpt>
      <trkpt lat="42.25502" lon="1.90115">
        <ele>1173.011</ele>
        <time>2019-04-18T22:35:31Z</time>
      </trkpt>
      <trkpt lat="42.25497" lon="1.90116">
        <ele>1171.508</ele>
        <time>2019-04-18T22:36:03Z</time>
      </trkpt>
      <trkpt lat="42.2549" lon="1.90129">
        <ele>1173.946</ele>
        <time>2019-04-18T22:36:19Z</time>
      </trkpt>
      <trkpt lat="42.25487" lon="1.90137">
        <ele>1176.758</ele>
        <time>2019-04-18T22:36:28Z</time>
      </trkpt>
      <trkpt lat="42.25494" lon="1.90145">
        <ele>1180.247</ele>
        <time>2019-04-18T22:36:41Z</time>
      </trkpt>
      <trkpt lat="42.25497" lon="1.90153">
        <ele>1182.635</ele>
        <time>2019-04-18T22:36:48Z</time>
      </trkpt>
      <trkpt lat="42.25509" lon="1.90159">
        <ele>1183.521</ele>
        <time>2019-04-18T22:36:59Z</time>
      </trkpt>
      <trkpt lat="42.25515" lon="1.90164">
        <ele>1184.054</ele>
        <time>2019-04-18T22:37:05Z</time>
      </trkpt>
      <trkpt lat="42.25519" lon="1.90165">
        <ele>1184.477</ele>
        <time>2019-04-18T22:37:09Z</time>
      </trkpt>
      <trkpt lat="42.25524" lon="1.90167">
        <ele>1185.52</ele>
        <time>2019-04-18T22:37:13Z</time>
      </trkpt>
      <trkpt lat="42.25538" lon="1.90175">
        <ele>1187.885</ele>
        <time>2019-04-18T22:37:29Z</time>
      </trkpt>
      <trkpt lat="42.25544" lon="1.90168">
        <ele>1191.289</ele>
        <time>2019-04-18T22:37:43Z</time>
      </trkpt>
      <trkpt lat="42.25548" lon="1.9017">
        <ele>1192.217</ele>
        <time>2019-04-18T22:37:49Z</time>
      </trkpt>
      <trkpt lat="42.25557" lon="1.90162">
        <ele>1195.108</ele>
        <time>2019-04-18T22:38:03Z</time>
      </trkpt>
      <trkpt lat="42.25559" lon="1.90163">
        <ele>1195.661</ele>
        <time>2019-04-18T22:38:05Z</time>
      </trkpt>
      <trkpt lat="42.25569" lon="1.90176">
        <ele>1197.993</ele>
        <time>2019-04-18T22:38:22Z</time>
      </trkpt>
      <trkpt lat="42.2558" lon="1.9017">
        <ele>1200.322</ele>
        <time>2019-04-18T22:38:36Z</time>
      </trkpt>
      <trkpt lat="42.2559" lon="1.90178">
        <ele>1202.29</ele>
        <time>2019-04-18T22:38:49Z</time>
      </trkpt>
      <trkpt lat="42.25591" lon="1.90179">
        <ele>1202.876</ele>
        <time>2019-04-18T22:38:51Z</time>
      </trkpt>
      <trkpt lat="42.25596" lon="1.90186">
        <ele>1203.789</ele>
        <time>2019-04-18T22:38:57Z</time>
      </trkpt>
      <trkpt lat="42.25606" lon="1.90199">
        <ele>1206.642</ele>
        <time>2019-04-18T22:39:13Z</time>
      </trkpt>
      <trkpt lat="42.25617" lon="1.90206">
        <ele>1210.085</ele>
        <time>2019-04-18T22:39:26Z</time>
      </trkpt>
      <trkpt lat="42.25629" lon="1.90207">
        <ele>1213.332</ele>
        <time>2019-04-18T22:39:40Z</time>
      </trkpt>
      <trkpt lat="42.25637" lon="1.90211">
        <ele>1216.692</ele>
        <time>2019-04-18T22:39:54Z</time>
      </trkpt>
      <trkpt lat="42.25642" lon="1.90204">
        <ele>1219.611</ele>
        <time>2019-04-18T22:40:08Z</time>
      </trkpt>
      <trkpt lat="42.25644" lon="1.902">
        <ele>1220.008</ele>
        <time>2019-04-18T22:40:12Z</time>
      </trkpt>
      <trkpt lat="42.25646" lon="1.90188">
        <ele>1223.096</ele>
        <time>2019-04-18T22:40:25Z</time>
      </trkpt>
      <trkpt lat="42.25653" lon="1.90188">
        <ele>1226.398</ele>
        <time>2019-04-18T22:40:40Z</time>
      </trkpt>
      <trkpt lat="42.25663" lon="1.90195">
        <ele>1228.877</ele>
        <time>2019-04-18T22:40:54Z</time>
      </trkpt>
      <trkpt lat="42.2567" lon="1.90205">
        <ele>1231.275</ele>
        <time>2019-04-18T22:41:09Z</time>
      </trkpt>
      <trkpt lat="42.25673" lon="1.90216">
        <ele>1233.661</ele>
        <time>2019-04-18T22:41:20Z</time>
      </trkpt>
      <trkpt lat="42.25676" lon="1.90226">
        <ele>1235.544</ele>
        <time>2019-04-18T22:41:32Z</time>
      </trkpt>
      <trkpt lat="42.2568" lon="1.90238">
        <ele>1237.417</ele>
        <time>2019-04-18T22:41:47Z</time>
      </trkpt>
      <trkpt lat="42.25682" lon="1.9025">
        <ele>1239.35</ele>
        <time>2019-04-18T22:42:03Z</time>
      </trkpt>
      <trkpt lat="42.25685" lon="1.90259">
        <ele>1242.684</ele>
        <time>2019-04-18T22:42:21Z</time>
      </trkpt>
      <trkpt lat="42.25687" lon="1.90269">
        <ele>1245.507</ele>
        <time>2019-04-18T22:42:34Z</time>
      </trkpt>
      <trkpt lat="42.25687" lon="1.90284">
        <ele>1247.417</ele>
        <time>2019-04-18T22:42:47Z</time>
      </trkpt>
      <trkpt lat="42.25689" lon="1.90291">
        <ele>1249.908</ele>
        <time>2019-04-18T22:42:57Z</time>
      </trkpt>
      <trkpt lat="42.257" lon="1.90277">
        <ele>1252.271</ele>
        <time>2019-04-18T22:43:15Z</time>
      </trkpt>
      <trkpt lat="42.25707" lon="1.9027">
        <ele>1255.293</ele>
        <time>2019-04-18T22:43:30Z</time>
      </trkpt>
      <trkpt lat="42.25712" lon="1.90265">
        <ele>1257.552</ele>
        <time>2019-04-18T22:43:41Z</time>
      </trkpt>
      <trkpt lat="42.25716" lon="1.90261">
        <ele>1258.15</ele>
        <time>2019-04-18T22:43:45Z</time>
      </trkpt>
      <trkpt lat="42.25725" lon="1.90253">
        <ele>1260.976</ele>
        <time>2019-04-18T22:44:01Z</time>
      </trkpt>
      <trkpt lat="42.25725" lon="1.90254">
        <ele>1261.449</ele>
        <time>2019-04-18T22:44:02Z</time>
      </trkpt>
      <trkpt lat="42.25734" lon="1.90257">
        <ele>1264.242</ele>
        <time>2019-04-18T22:44:16Z</time>
      </trkpt>
      <trkpt lat="42.25739" lon="1.90252">
        <ele>1267.185</ele>
        <time>2019-04-18T22:44:29Z</time>
      </trkpt>
      <trkpt lat="42.25748" lon="1.90254">
        <ele>1268.634</ele>
        <time>2019-04-18T22:44:41Z</time>
      </trkpt>
      <trkpt lat="42.25763" lon="1.90264">
        <ele>1269.555</ele>
        <time>2019-04-18T22:44:54Z</time>
      </trkpt>
      <trkpt lat="42.25784" lon="1.9026">
        <ele>1271.41</ele>
        <time>2019-04-18T22:45:12Z</time>
      </trkpt>
      <trkpt lat="42.25804" lon="1.90254">
        <ele>1272.408</ele>
        <time>2019-04-18T22:45:28Z</time>
      </trkpt>
      <trkpt lat="42.25813" lon="1.90252">
        <ele>1272.496</ele>
        <time>2019-04-18T22:45:35Z</time>
      </trkpt>
      <trkpt lat="42.25823" lon="1.9025">
        <ele>1274.348</ele>
        <time>2019-04-18T22:45:46Z</time>
      </trkpt>
      <trkpt lat="42.25829" lon="1.90253">
        <ele>1275.367</ele>
        <time>2019-04-18T22:45:51Z</time>
      </trkpt>
      <trkpt lat="42.25853" lon="1.90257">
        <ele>1275.355</ele>
        <time>2019-04-18T22:46:07Z</time>
      </trkpt>
      <trkpt lat="42.25868" lon="1.90242">
        <ele>1277.321</ele>
        <time>2019-04-18T22:46:23Z</time>
      </trkpt>
      <trkpt lat="42.25881" lon="1.9022">
        <ele>1279.714</ele>
        <time>2019-04-18T22:46:40Z</time>
      </trkpt>
      <trkpt lat="42.2589" lon="1.90203">
        <ele>1283.087</ele>
        <time>2019-04-18T22:46:54Z</time>
      </trkpt>
      <trkpt lat="42.25896" lon="1.90186">
        <ele>1285.98</ele>
        <time>2019-04-18T22:47:07Z</time>
      </trkpt>
      <trkpt lat="42.25905" lon="1.90166">
        <ele>1289.255</ele>
        <time>2019-04-18T22:47:25Z</time>
      </trkpt>
      <trkpt lat="42.25909" lon="1.90152">
        <ele>1292.107</ele>
        <time>2019-04-18T22:47:39Z</time>
      </trkpt>
      <trkpt lat="42.25914" lon="1.90137">
        <ele>1295.017</ele>
        <time>2019-04-18T22:47:53Z</time>
      </trkpt>
      <trkpt lat="42.25921" lon="1.90119">
        <ele>1298.508</ele>
        <time>2019-04-18T22:48:08Z</time>
      </trkpt>
      <trkpt lat="42.25927" lon="1.90108">
        <ele>1299.888</ele>
        <time>2019-04-18T22:48:20Z</time>
      </trkpt>
      <trkpt lat="42.2593" lon="1.90113">
        <ele>1301.24</ele>
        <time>2019-04-18T22:48:25Z</time>
      </trkpt>
      <trkpt lat="42.25932" lon="1.9012">
        <ele>1302.329</ele>
        <time>2019-04-18T22:48:31Z</time>
      </trkpt>
      <trkpt lat="42.25934" lon="1.90123">
        <ele>1302.877</ele>
        <time>2019-04-18T22:48:34Z</time>
      </trkpt>
      <trkpt lat="42.25943" lon="1.90137">
        <ele>1306.183</ele>
        <time>2019-04-18T22:48:49Z</time>
      </trkpt>
      <trkpt lat="42.25952" lon="1.90156">
        <ele>1308.926</ele>
        <time>2019-04-18T22:49:05Z</time>
      </trkpt>
      <trkpt lat="42.25955" lon="1.90166">
        <ele>1311.019</ele>
        <time>2019-04-18T22:49:14Z</time>
      </trkpt>
      <trkpt lat="42.2596" lon="1.9019">
        <ele>1313.462</ele>
        <time>2019-04-18T22:49:30Z</time>
      </trkpt>
      <trkpt lat="42.25961" lon="1.90192">
        <ele>1313.343</ele>
        <time>2019-04-18T22:49:31Z</time>
      </trkpt>
      <trkpt lat="42.25972" lon="1.9021">
        <ele>1314.264</ele>
        <time>2019-04-18T22:49:46Z</time>
      </trkpt>
      <trkpt lat="42.25981" lon="1.90223">
        <ele>1314.21</ele>
        <time>2019-04-18T22:49:59Z</time>
      </trkpt>
      <trkpt lat="42.25988" lon="1.9022">
        <ele>1316.708</ele>
        <time>2019-04-18T22:50:11Z</time>
      </trkpt>
      <trkpt lat="42.25991" lon="1.90215">
        <ele>1319.647</ele>
        <time>2019-04-18T22:50:22Z</time>
      </trkpt>
      <trkpt lat="42.25994" lon="1.90205">
        <ele>1322.939</ele>
        <time>2019-04-18T22:50:35Z</time>
      </trkpt>
      <trkpt lat="42.25997" lon="1.90198">
        <ele>1324.428</ele>
        <time>2019-04-18T22:50:43Z</time>
      </trkpt>
      <trkpt lat="42.26" lon="1.9019">
        <ele>1327.876</ele>
        <time>2019-04-18T22:50:56Z</time>
      </trkpt>
      <trkpt lat="42.26003" lon="1.90182">
        <ele>1330.282</ele>
        <time>2019-04-18T22:51:09Z</time>
      </trkpt>
      <trkpt lat="42.26002" lon="1.90171">
        <ele>1333.115</ele>
        <time>2019-04-18T22:51:22Z</time>
      </trkpt>
      <trkpt lat="42.26001" lon="1.90159">
        <ele>1335.878</ele>
        <time>2019-04-18T22:51:37Z</time>
      </trkpt>
      <trkpt lat="42.26005" lon="1.90153">
        <ele>1339.311</ele>
        <time>2019-04-18T22:51:50Z</time>
      </trkpt>
      <trkpt lat="42.26013" lon="1.90148">
        <ele>1342.645</ele>
        <time>2019-04-18T22:52:06Z</time>
      </trkpt>
      <trkpt lat="42.26022" lon="1.90136">
        <ele>1345.047</ele>
        <time>2019-04-18T22:52:20Z</time>
      </trkpt>
      <trkpt lat="42.2603" lon="1.90124">
        <ele>1348.311</ele>
        <time>2019-04-18T22:52:34Z</time>
      </trkpt>
      <trkpt lat="42.26042" lon="1.90109">
        <ele>1351.308</ele>
        <time>2019-04-18T22:52:49Z</time>
      </trkpt>
      <trkpt lat="42.26048" lon="1.90093">
        <ele>1354.737</ele>
        <time>2019-04-18T22:53:03Z</time>
      </trkpt>
      <trkpt lat="42.26051" lon="1.90076">
        <ele>1358.179</ele>
        <time>2019-04-18T22:53:19Z</time>
      </trkpt>
      <trkpt lat="42.26059" lon="1.90063">
        <ele>1361.468</ele>
        <time>2019-04-18T22:53:36Z</time>
      </trkpt>
      <trkpt lat="42.26072" lon="1.90041">
        <ele>1363.256</ele>
        <time>2019-04-18T22:53:51Z</time>
      </trkpt>
      <trkpt lat="42.26077" lon="1.90019">
        <ele>1366.682</ele>
        <time>2019-04-18T22:54:06Z</time>
      </trkpt>
      <trkpt lat="42.26083" lon="1.9">
        <ele>1370.165</ele>
        <time>2019-04-18T22:54:23Z</time>
      </trkpt>
      <trkpt lat="42.26084" lon="1.8998">
        <ele>1372.918</ele>
        <time>2019-04-18T22:54:37Z</time>
      </trkpt>
      <trkpt lat="42.2609" lon="1.89971">
        <ele>1375.731</ele>
        <time>2019-04-18T22:54:50Z</time>
      </trkpt>
      <trkpt lat="42.26096" lon="1.8996">
        <ele>1379.684</ele>
        <time>2019-04-18T22:55:04Z</time>
      </trkpt>
      <trkpt lat="42.26104" lon="1.89948">
        <ele>1382.907</ele>
        <time>2019-04-18T22:55:19Z</time>
      </trkpt>
      <trkpt lat="42.26111" lon="1.89937">
        <ele>1386.317</ele>
        <time>2019-04-18T22:55:33Z</time>
      </trkpt>
      <trkpt lat="42.26116" lon="1.89925">
        <ele>1388.708</ele>
        <time>2019-04-18T22:55:47Z</time>
      </trkpt>
      <trkpt lat="42.26122" lon="1.89918">
        <ele>1392.131</ele>
        <time>2019-04-18T22:55:58Z</time>
      </trkpt>
      <trkpt lat="42.26123" lon="1.89913">
        <ele>1392.733</ele>
        <time>2019-04-18T22:56:02Z</time>
      </trkpt>
      <trkpt lat="42.26134" lon="1.89903">
        <ele>1394.022</ele>
        <time>2019-04-18T22:56:14Z</time>
      </trkpt>
      <trkpt lat="42.26132" lon="1.89906">
        <ele>1397.81</ele>
        <time>2019-04-18T22:56:19Z</time>
      </trkpt>
      <trkpt lat="42.26132" lon="1.89908">
        <ele>1395.956</ele>
        <time>2019-04-18T22:56:21Z</time>
      </trkpt>
      <trkpt lat="42.26133" lon="1.89914">
        <ele>1397.449</ele>
        <time>2019-04-18T22:56:27Z</time>
      </trkpt>
      <trkpt lat="42.26138" lon="1.89916">
        <ele>1400.452</ele>
        <time>2019-04-18T22:56:41Z</time>
      </trkpt>
      <trkpt lat="42.26147" lon="1.89903">
        <ele>1403.115</ele>
        <time>2019-04-18T22:56:55Z</time>
      </trkpt>
      <trkpt lat="42.26156" lon="1.89899">
        <ele>1406.539</ele>
        <time>2019-04-18T22:57:08Z</time>
      </trkpt>
      <trkpt lat="42.2616" lon="1.89895">
        <ele>1407.901</ele>
        <time>2019-04-18T22:57:15Z</time>
      </trkpt>
      <trkpt lat="42.26168" lon="1.89889">
        <ele>1411.421</ele>
        <time>2019-04-18T22:57:29Z</time>
      </trkpt>
      <trkpt lat="42.26177" lon="1.89879">
        <ele>1413.708</ele>
        <time>2019-04-18T22:57:42Z</time>
      </trkpt>
      <trkpt lat="42.26183" lon="1.89868">
        <ele>1417.256</ele>
        <time>2019-04-18T22:57:55Z</time>
      </trkpt>
      <trkpt lat="42.26191" lon="1.89856">
        <ele>1419.188</ele>
        <time>2019-04-18T22:58:11Z</time>
      </trkpt>
      <trkpt lat="42.26198" lon="1.89838">
        <ele>1422.077</ele>
        <time>2019-04-18T22:58:26Z</time>
      </trkpt>
      <trkpt lat="42.26199" lon="1.89835">
        <ele>1422.525</ele>
        <time>2019-04-18T22:58:29Z</time>
      </trkpt>
      <trkpt lat="42.26208" lon="1.89821">
        <ele>1425.311</ele>
        <time>2019-04-18T22:58:43Z</time>
      </trkpt>
      <trkpt lat="42.26222" lon="1.89816">
        <ele>1427.874</ele>
        <time>2019-04-18T22:58:57Z</time>
      </trkpt>
      <trkpt lat="42.26235" lon="1.89805">
        <ele>1431.147</ele>
        <time>2019-04-18T22:59:12Z</time>
      </trkpt>
      <trkpt lat="42.26244" lon="1.89793">
        <ele>1433.56</ele>
        <time>2019-04-18T22:59:26Z</time>
      </trkpt>
      <trkpt lat="42.26253" lon="1.89798">
        <ele>1436.868</ele>
        <time>2019-04-18T22:59:42Z</time>
      </trkpt>
      <trkpt lat="42.26255" lon="1.89816">
        <ele>1439.742</ele>
        <time>2019-04-18T22:59:55Z</time>
      </trkpt>
      <trkpt lat="42.26254" lon="1.89834">
        <ele>1442.626</ele>
        <time>2019-04-18T23:00:09Z</time>
      </trkpt>
      <trkpt lat="42.26253" lon="1.89849">
        <ele>1445.508</ele>
        <time>2019-04-18T23:00:25Z</time>
      </trkpt>
      <trkpt lat="42.26262" lon="1.89846">
        <ele>1448.899</ele>
        <time>2019-04-18T23:00:38Z</time>
      </trkpt>
      <trkpt lat="42.26271" lon="1.89841">
        <ele>1452.291</ele>
        <time>2019-04-18T23:00:52Z</time>
      </trkpt>
      <trkpt lat="42.26282" lon="1.89827">
        <ele>1456.11</ele>
        <time>2019-04-18T23:01:09Z</time>
      </trkpt>
      <trkpt lat="42.2629" lon="1.89812">
        <ele>1458.578</ele>
        <time>2019-04-18T23:01:25Z</time>
      </trkpt>
      <trkpt lat="42.26301" lon="1.89804">
        <ele>1461.914</ele>
        <time>2019-04-18T23:01:40Z</time>
      </trkpt>
      <trkpt lat="42.26314" lon="1.89794">
        <ele>1465.277</ele>
        <time>2019-04-18T23:01:57Z</time>
      </trkpt>
      <trkpt lat="42.26325" lon="1.89789">
        <ele>1468.64</ele>
        <time>2019-04-18T23:02:12Z</time>
      </trkpt>
      <trkpt lat="42.26329" lon="1.89777">
        <ele>1472.033</ele>
        <time>2019-04-18T23:02:27Z</time>
      </trkpt>
      <trkpt lat="42.26336" lon="1.89764">
        <ele>1475.218</ele>
        <time>2019-04-18T23:02:44Z</time>
      </trkpt>
      <trkpt lat="42.2634" lon="1.89756">
        <ele>1478.698</ele>
        <time>2019-04-18T23:02:58Z</time>
      </trkpt>
      <trkpt lat="42.26345" lon="1.89752">
        <ele>1481.517</ele>
        <time>2019-04-18T23:03:12Z</time>
      </trkpt>
      <trkpt lat="42.26352" lon="1.89756">
        <ele>1484.908</ele>
        <time>2019-04-18T23:03:28Z</time>
      </trkpt>
      <trkpt lat="42.26358" lon="1.8976">
        <ele>1488.384</ele>
        <time>2019-04-18T23:03:42Z</time>
      </trkpt>
      <trkpt lat="42.26362" lon="1.89769">
        <ele>1491.726</ele>
        <time>2019-04-18T23:03:56Z</time>
      </trkpt>
      <trkpt lat="42.26361" lon="1.89785">
        <ele>1492.635</ele>
        <time>2019-04-18T23:04:10Z</time>
      </trkpt>
      <trkpt lat="42.26365" lon="1.89794">
        <ele>1495.563</ele>
        <time>2019-04-18T23:04:24Z</time>
      </trkpt>
      <trkpt lat="42.2636" lon="1.89807">
        <ele>1497.099</ele>
        <time>2019-04-18T23:04:38Z</time>
      </trkpt>
      <trkpt lat="42.26358" lon="1.89812">
        <ele>1495.492</ele>
        <time>2019-04-18T23:04:43Z</time>
      </trkpt>
      <trkpt lat="42.26358" lon="1.89829">
        <ele>1497.945</ele>
        <time>2019-04-18T23:04:57Z</time>
      </trkpt>
      <trkpt lat="42.26356" lon="1.89842">
        <ele>1500.788</ele>
        <time>2019-04-18T23:05:09Z</time>
      </trkpt>
      <trkpt lat="42.26352" lon="1.89854">
        <ele>1503.123</ele>
        <time>2019-04-18T23:05:22Z</time>
      </trkpt>
      <trkpt lat="42.26347" lon="1.89864">
        <ele>1506.083</ele>
        <time>2019-04-18T23:05:33Z</time>
      </trkpt>
      <trkpt lat="42.26347" lon="1.89878">
        <ele>1509.511</ele>
        <time>2019-04-18T23:05:48Z</time>
      </trkpt>
      <trkpt lat="42.26343" lon="1.89892">
        <ele>1512.308</ele>
        <time>2019-04-18T23:06:03Z</time>
      </trkpt>
      <trkpt lat="42.2634" lon="1.89903">
        <ele>1514.795</ele>
        <time>2019-04-18T23:06:14Z</time>
      </trkpt>
      <trkpt lat="42.26337" lon="1.89919">
        <ele>1518.027</ele>
        <time>2019-04-18T23:06:29Z</time>
      </trkpt>
      <trkpt lat="42.26336" lon="1.89941">
        <ele>1521.016</ele>
        <time>2019-04-18T23:06:46Z</time>
      </trkpt>
      <trkpt lat="42.26331" lon="1.89952">
        <ele>1522.334</ele>
        <time>2019-04-18T23:06:55Z</time>
      </trkpt>
      <trkpt lat="42.26329" lon="1.89973">
        <ele>1525.86</ele>
        <time>2019-04-18T23:07:12Z</time>
      </trkpt>
      <trkpt lat="42.26333" lon="1.89978">
        <ele>1529.143</ele>
        <time>2019-04-18T23:07:25Z</time>
      </trkpt>
      <trkpt lat="42.2634" lon="1.89961">
        <ele>1531.686</ele>
        <time>2019-04-18T23:07:40Z</time>
      </trkpt>
      <trkpt lat="42.26345" lon="1.89963">
        <ele>1534.559</ele>
        <time>2019-04-18T23:07:54Z</time>
      </trkpt>
      <trkpt lat="42.26353" lon="1.89967">
        <ele>1537.297</ele>
        <time>2019-04-18T23:08:08Z</time>
      </trkpt>
      <trkpt lat="42.26346" lon="1.89987">
        <ele>1539.223</ele>
        <time>2019-04-18T23:08:24Z</time>
      </trkpt>
      <trkpt lat="42.26346" lon="1.89991">
        <ele>1539.625</ele>
        <time>2019-04-18T23:08:26Z</time>
      </trkpt>
      <trkpt lat="42.26344" lon="1.90015">
        <ele>1541.608</ele>
        <time>2019-04-18T23:08:41Z</time>
      </trkpt>
      <trkpt lat="42.26345" lon="1.90032">
        <ele>1543.562</ele>
        <time>2019-04-18T23:08:56Z</time>
      </trkpt>
      <trkpt lat="42.26349" lon="1.90042">
        <ele>1546.454</ele>
        <time>2019-04-18T23:09:08Z</time>
      </trkpt>
      <trkpt lat="42.26356" lon="1.90034">
        <ele>1549.723</ele>
        <time>2019-04-18T23:09:25Z</time>
      </trkpt>
      <trkpt lat="42.26363" lon="1.90032">
        <ele>1553.151</ele>
        <time>2019-04-18T23:09:41Z</time>
      </trkpt>
      <trkpt lat="42.26369" lon="1.90036">
        <ele>1556.677</ele>
        <time>2019-04-18T23:09:53Z</time>
      </trkpt>
      <trkpt lat="42.26376" lon="1.90031">
        <ele>1559.54</ele>
        <time>2019-04-18T23:10:06Z</time>
      </trkpt>
      <trkpt lat="42.26381" lon="1.90024">
        <ele>1562.833</ele>
        <time>2019-04-18T23:10:20Z</time>
      </trkpt>
      <trkpt lat="42.26389" lon="1.90018">
        <ele>1566.276</ele>
        <time>2019-04-18T23:10:35Z</time>
      </trkpt>
      <trkpt lat="42.26397" lon="1.90006">
        <ele>1569.025</ele>
        <time>2019-04-18T23:10:50Z</time>
      </trkpt>
      <trkpt lat="42.26405" lon="1.9">
        <ele>1572.326</ele>
        <time>2019-04-18T23:11:03Z</time>
      </trkpt>
      <trkpt lat="42.26412" lon="1.90005">
        <ele>1575.208</ele>
        <time>2019-04-18T23:11:19Z</time>
      </trkpt>
      <trkpt lat="42.26415" lon="1.90004">
        <ele>1578.708</ele>
        <time>2019-04-18T23:11:32Z</time>
      </trkpt>
      <trkpt lat="42.26424" lon="1.89994">
        <ele>1581.955</ele>
        <time>2019-04-18T23:11:49Z</time>
      </trkpt>
      <trkpt lat="42.26433" lon="1.89983">
        <ele>1585.487</ele>
        <time>2019-04-18T23:12:03Z</time>
      </trkpt>
      <trkpt lat="42.26436" lon="1.89972">
        <ele>1588.776</ele>
        <time>2019-04-18T23:12:16Z</time>
      </trkpt>
      <trkpt lat="42.2644" lon="1.89965">
        <ele>1591.614</ele>
        <time>2019-04-18T23:12:28Z</time>
      </trkpt>
      <trkpt lat="42.26441" lon="1.89957">
        <ele>1592.19</ele>
        <time>2019-04-18T23:12:33Z</time>
      </trkpt>
      <trkpt lat="42.26443" lon="1.89954">
        <ele>1592.673</ele>
        <time>2019-04-18T23:12:35Z</time>
      </trkpt>
      <trkpt lat="42.26457" lon="1.89933">
        <ele>1593.566</ele>
        <time>2019-04-18T23:12:50Z</time>
      </trkpt>
      <trkpt lat="42.26466" lon="1.89912">
        <ele>1596.029</ele>
        <time>2019-04-18T23:13:05Z</time>
      </trkpt>
      <trkpt lat="42.26467" lon="1.89912">
        <ele>1595.945</ele>
        <time>2019-04-18T23:13:27Z</time>
      </trkpt>
      <trkpt lat="42.26467" lon="1.89912">
        <ele>1596.447</ele>
        <time>2019-04-18T23:13:52Z</time>
      </trkpt>
      <trkpt lat="42.26465" lon="1.8991">
        <ele>1596.511</ele>
        <time>2019-04-18T23:14:20Z</time>
      </trkpt>
      <trkpt lat="42.26468" lon="1.89909">
        <ele>1596.508</ele>
        <time>2019-04-18T23:14:36Z</time>
      </trkpt>
      <trkpt lat="42.26468" lon="1.89911">
        <ele>1596.497</ele>
        <time>2019-04-18T23:15:01Z</time>
      </trkpt>
      <trkpt lat="42.26469" lon="1.8991">
        <ele>1596.549</ele>
        <time>2019-04-18T23:15:26Z</time>
      </trkpt>
      <trkpt lat="42.26466" lon="1.89911">
        <ele>1596.938</ele>
        <time>2019-04-18T23:15:47Z</time>
      </trkpt>
      <trkpt lat="42.26468" lon="1.89911">
        <ele>1596.836</ele>
        <time>2019-04-18T23:16:05Z</time>
      </trkpt>
      <trkpt lat="42.26471" lon="1.89907">
        <ele>1596.812</ele>
        <time>2019-04-18T23:16:08Z</time>
      </trkpt>
      <trkpt lat="42.26477" lon="1.89902">
        <ele>1596.935</ele>
        <time>2019-04-18T23:16:13Z</time>
      </trkpt>
      <trkpt lat="42.26481" lon="1.89893">
        <ele>1596.998</ele>
        <time>2019-04-18T23:16:19Z</time>
      </trkpt>
      <trkpt lat="42.26491" lon="1.89883">
        <ele>1596.911</ele>
        <time>2019-04-18T23:16:33Z</time>
      </trkpt>
      <trkpt lat="42.26494" lon="1.89874">
        <ele>1596.834</ele>
        <time>2019-04-18T23:16:38Z</time>
      </trkpt>
      <trkpt lat="42.2651" lon="1.89857">
        <ele>1596.455</ele>
        <time>2019-04-18T23:16:53Z</time>
      </trkpt>
      <trkpt lat="42.26524" lon="1.89836">
        <ele>1594.91</ele>
        <time>2019-04-18T23:17:07Z</time>
      </trkpt>
      <trkpt lat="42.26538" lon="1.89827">
        <ele>1591.708</ele>
        <time>2019-04-18T23:17:18Z</time>
      </trkpt>
      <trkpt lat="42.26552" lon="1.89813">
        <ele>1588.296</ele>
        <time>2019-04-18T23:17:32Z</time>
      </trkpt>
      <trkpt lat="42.26566" lon="1.89807">
        <ele>1585.388</ele>
        <time>2019-04-18T23:17:41Z</time>
      </trkpt>
      <trkpt lat="42.26575" lon="1.89797">
        <ele>1582.567</ele>
        <time>2019-04-18T23:17:52Z</time>
      </trkpt>
      <trkpt lat="42.26593" lon="1.89779">
        <ele>1579.225</ele>
        <time>2019-04-18T23:18:07Z</time>
      </trkpt>
      <trkpt lat="42.26593" lon="1.89772">
        <ele>1578.191</ele>
        <time>2019-04-18T23:18:11Z</time>
      </trkpt>
      <trkpt lat="42.26599" lon="1.89763">
        <ele>1576.764</ele>
        <time>2019-04-18T23:18:16Z</time>
      </trkpt>
      <trkpt lat="42.26603" lon="1.89758">
        <ele>1575.897</ele>
        <time>2019-04-18T23:18:19Z</time>
      </trkpt>
      <trkpt lat="42.26608" lon="1.89739">
        <ele>1573.91</ele>
        <time>2019-04-18T23:18:30Z</time>
      </trkpt>
      <trkpt lat="42.26622" lon="1.89722">
        <ele>1569.951</ele>
        <time>2019-04-18T23:18:42Z</time>
      </trkpt>
      <trkpt lat="42.26631" lon="1.89706">
        <ele>1567.001</ele>
        <time>2019-04-18T23:18:53Z</time>
      </trkpt>
      <trkpt lat="42.26636" lon="1.89698">
        <ele>1564.311</ele>
        <time>2019-04-18T23:18:59Z</time>
      </trkpt>
      <trkpt lat="42.26638" lon="1.89695">
        <ele>1563.808</ele>
        <time>2019-04-18T23:19:01Z</time>
      </trkpt>
      <trkpt lat="42.26641" lon="1.89691">
        <ele>1562.328</ele>
        <time>2019-04-18T23:19:03Z</time>
      </trkpt>
      <trkpt lat="42.26645" lon="1.89686">
        <ele>1561.39</ele>
        <time>2019-04-18T23:19:06Z</time>
      </trkpt>
      <trkpt lat="42.26669" lon="1.89662">
        <ele>1557.589</ele>
        <time>2019-04-18T23:19:18Z</time>
      </trkpt>
      <trkpt lat="42.26678" lon="1.89651">
        <ele>1555.197</ele>
        <time>2019-04-18T23:19:24Z</time>
      </trkpt>
      <trkpt lat="42.26679" lon="1.89648">
        <ele>1555.163</ele>
        <time>2019-04-18T23:19:25Z</time>
      </trkpt>
      <trkpt lat="42.26689" lon="1.89637">
        <ele>1551.716</ele>
        <time>2019-04-18T23:19:32Z</time>
      </trkpt>
      <trkpt lat="42.26703" lon="1.89621">
        <ele>1548.439</ele>
        <time>2019-04-18T23:19:42Z</time>
      </trkpt>
      <trkpt lat="42.26706" lon="1.89618">
        <ele>1546.562</ele>
        <time>2019-04-18T23:19:45Z</time>
      </trkpt>
      <trkpt lat="42.26707" lon="1.89615">
        <ele>1545.924</ele>
        <time>2019-04-18T23:19:47Z</time>
      </trkpt>
      <trkpt lat="42.26709" lon="1.89613">
        <ele>1544.904</ele>
        <time>2019-04-18T23:19:48Z</time>
      </trkpt>
      <trkpt lat="42.2671" lon="1.8961">
        <ele>1544.514</ele>
        <time>2019-04-18T23:19:49Z</time>
      </trkpt>
      <trkpt lat="42.26716" lon="1.89598">
        <ele>1542.008</ele>
        <time>2019-04-18T23:19:56Z</time>
      </trkpt>
      <trkpt lat="42.26721" lon="1.8959">
        <ele>1540.795</ele>
        <time>2019-04-18T23:20:01Z</time>
      </trkpt>
      <trkpt lat="42.26722" lon="1.89589">
        <ele>1540.187</ele>
        <time>2019-04-18T23:20:02Z</time>
      </trkpt>
      <trkpt lat="42.26722" lon="1.89587">
        <ele>1539.776</ele>
        <time>2019-04-18T23:20:03Z</time>
      </trkpt>
      <trkpt lat="42.26722" lon="1.89585">
        <ele>1539.354</ele>
        <time>2019-04-18T23:20:04Z</time>
      </trkpt>
      <trkpt lat="42.26722" lon="1.89583">
        <ele>1538.26</ele>
        <time>2019-04-18T23:20:05Z</time>
      </trkpt>
      <trkpt lat="42.26723" lon="1.89581">
        <ele>1538.223</ele>
        <time>2019-04-18T23:20:06Z</time>
      </trkpt>
      <trkpt lat="42.26727" lon="1.89567">
        <ele>1533.996</ele>
        <time>2019-04-18T23:20:14Z</time>
      </trkpt>
      <trkpt lat="42.26728" lon="1.89565">
        <ele>1534.049</ele>
        <time>2019-04-18T23:20:15Z</time>
      </trkpt>
      <trkpt lat="42.26732" lon="1.89551">
        <ele>1529.187</ele>
        <time>2019-04-18T23:20:23Z</time>
      </trkpt>
      <trkpt lat="42.26733" lon="1.89549">
        <ele>1529.142</ele>
        <time>2019-04-18T23:20:24Z</time>
      </trkpt>
      <trkpt lat="42.26736" lon="1.8953">
        <ele>1525.326</ele>
        <time>2019-04-18T23:20:33Z</time>
      </trkpt>
      <trkpt lat="42.26737" lon="1.89506">
        <ele>1522.308</ele>
        <time>2019-04-18T23:20:45Z</time>
      </trkpt>
      <trkpt lat="42.26753" lon="1.89498">
        <ele>1519.141</ele>
        <time>2019-04-18T23:20:54Z</time>
      </trkpt>
      <trkpt lat="42.26755" lon="1.89496">
        <ele>1519.043</ele>
        <time>2019-04-18T23:20:55Z</time>
      </trkpt>
      <trkpt lat="42.26761" lon="1.89489">
        <ele>1516.692</ele>
        <time>2019-04-18T23:21:01Z</time>
      </trkpt>
      <trkpt lat="42.2677" lon="1.89478">
        <ele>1513.79</ele>
        <time>2019-04-18T23:21:08Z</time>
      </trkpt>
      <trkpt lat="42.26782" lon="1.89461">
        <ele>1509.966</ele>
        <time>2019-04-18T23:21:16Z</time>
      </trkpt>
      <trkpt lat="42.2679" lon="1.8944">
        <ele>1507.419</ele>
        <time>2019-04-18T23:21:24Z</time>
      </trkpt>
      <trkpt lat="42.26796" lon="1.89434">
        <ele>1505.632</ele>
        <time>2019-04-18T23:21:33Z</time>
      </trkpt>
      <trkpt lat="42.26801" lon="1.89442">
        <ele>1504.265</ele>
        <time>2019-04-18T23:21:38Z</time>
      </trkpt>
      <trkpt lat="42.2681" lon="1.89457">
        <ele>1500.773</ele>
        <time>2019-04-18T23:21:47Z</time>
      </trkpt>
      <trkpt lat="42.26812" lon="1.8946">
        <ele>1499.785</ele>
        <time>2019-04-18T23:21:49Z</time>
      </trkpt>
      <trkpt lat="42.26817" lon="1.89465">
        <ele>1497.813</ele>
        <time>2019-04-18T23:21:53Z</time>
      </trkpt>
      <trkpt lat="42.2682" lon="1.89463">
        <ele>1497.008</ele>
        <time>2019-04-18T23:21:55Z</time>
      </trkpt>
      <trkpt lat="42.26831" lon="1.8944">
        <ele>1493.58</ele>
        <time>2019-04-18T23:22:06Z</time>
      </trkpt>
      <trkpt lat="42.26841" lon="1.8943">
        <ele>1492.232</ele>
        <time>2019-04-18T23:22:11Z</time>
      </trkpt>
      <trkpt lat="42.26843" lon="1.89428">
        <ele>1492.141</ele>
        <time>2019-04-18T23:22:12Z</time>
      </trkpt>
      <trkpt lat="42.26845" lon="1.89426">
        <ele>1492.269</ele>
        <time>2019-04-18T23:22:13Z</time>
      </trkpt>
      <trkpt lat="42.26849" lon="1.89424">
        <ele>1492.195</ele>
        <time>2019-04-18T23:22:14Z</time>
      </trkpt>
      <trkpt lat="42.26851" lon="1.89423">
        <ele>1492.178</ele>
        <time>2019-04-18T23:22:15Z</time>
      </trkpt>
      <trkpt lat="42.2687" lon="1.89408">
        <ele>1492.181</ele>
        <time>2019-04-18T23:22:29Z</time>
      </trkpt>
      <trkpt lat="42.26877" lon="1.89404">
        <ele>1491.644</ele>
        <time>2019-04-18T23:22:33Z</time>
      </trkpt>
      <trkpt lat="42.26878" lon="1.89402">
        <ele>1490.663</ele>
        <time>2019-04-18T23:22:34Z</time>
      </trkpt>
      <trkpt lat="42.2688" lon="1.89401">
        <ele>1490.644</ele>
        <time>2019-04-18T23:22:35Z</time>
      </trkpt>
      <trkpt lat="42.26881" lon="1.894">
        <ele>1490.718</ele>
        <time>2019-04-18T23:22:36Z</time>
      </trkpt>
      <trkpt lat="42.26883" lon="1.89398">
        <ele>1490.708</ele>
        <time>2019-04-18T23:22:37Z</time>
      </trkpt>
      <trkpt lat="42.26899" lon="1.89388">
        <ele>1490.219</ele>
        <time>2019-04-18T23:22:48Z</time>
      </trkpt>
      <trkpt lat="42.26912" lon="1.89375">
        <ele>1487.751</ele>
        <time>2019-04-18T23:22:55Z</time>
      </trkpt>
      <trkpt lat="42.26935" lon="1.89356">
        <ele>1485.33</ele>
        <time>2019-04-18T23:23:08Z</time>
      </trkpt>
      <trkpt lat="42.26954" lon="1.89352">
        <ele>1481.568</ele>
        <time>2019-04-18T23:23:19Z</time>
      </trkpt>
      <trkpt lat="42.26956" lon="1.89351">
        <ele>1481.584</ele>
        <time>2019-04-18T23:23:20Z</time>
      </trkpt>
      <trkpt lat="42.26975" lon="1.89338">
        <ele>1480.127</ele>
        <time>2019-04-18T23:23:32Z</time>
      </trkpt>
      <trkpt lat="42.26978" lon="1.89338">
        <ele>1480.07</ele>
        <time>2019-04-18T23:23:34Z</time>
      </trkpt>
      <trkpt lat="42.26979" lon="1.89338">
        <ele>1480.173</ele>
        <time>2019-04-18T23:23:35Z</time>
      </trkpt>
      <trkpt lat="42.26981" lon="1.89338">
        <ele>1480.017</ele>
        <time>2019-04-18T23:23:36Z</time>
      </trkpt>
      <trkpt lat="42.26985" lon="1.89339">
        <ele>1479.687</ele>
        <time>2019-04-18T23:23:38Z</time>
      </trkpt>
      <trkpt lat="42.26988" lon="1.89339">
        <ele>1479.615</ele>
        <time>2019-04-18T23:23:39Z</time>
      </trkpt>
      <trkpt lat="42.26989" lon="1.8934">
        <ele>1480.008</ele>
        <time>2019-04-18T23:23:40Z</time>
      </trkpt>
      <trkpt lat="42.26991" lon="1.89341">
        <ele>1480.194</ele>
        <time>2019-04-18T23:23:41Z</time>
      </trkpt>
      <trkpt lat="42.26993" lon="1.89342">
        <ele>1480.146</ele>
        <time>2019-04-18T23:23:42Z</time>
      </trkpt>
      <trkpt lat="42.26995" lon="1.89343">
        <ele>1480.085</ele>
        <time>2019-04-18T23:23:43Z</time>
      </trkpt>
      <trkpt lat="42.26997" lon="1.89343">
        <ele>1480.143</ele>
        <time>2019-04-18T23:23:44Z</time>
      </trkpt>
      <trkpt lat="42.2701" lon="1.89349">
        <ele>1481.129</ele>
        <time>2019-04-18T23:23:54Z</time>
      </trkpt>
      <trkpt lat="42.27012" lon="1.89351">
        <ele>1481.062</ele>
        <time>2019-04-18T23:23:56Z</time>
      </trkpt>
      <trkpt lat="42.27025" lon="1.8937">
        <ele>1483.545</ele>
        <time>2019-04-18T23:24:10Z</time>
      </trkpt>
      <trkpt lat="42.27033" lon="1.89384">
        <ele>1485.338</ele>
        <time>2019-04-18T23:24:23Z</time>
      </trkpt>
      <trkpt lat="42.27041" lon="1.89405">
        <ele>1487.719</ele>
        <time>2019-04-18T23:24:37Z</time>
      </trkpt>
      <trkpt lat="42.27049" lon="1.89422">
        <ele>1490.609</ele>
        <time>2019-04-18T23:24:50Z</time>
      </trkpt>
      <trkpt lat="42.27053" lon="1.89431">
        <ele>1492.619</ele>
        <time>2019-04-18T23:24:58Z</time>
      </trkpt>
      <trkpt lat="42.27059" lon="1.89445">
        <ele>1494.508</ele>
        <time>2019-04-18T23:25:11Z</time>
      </trkpt>
      <trkpt lat="42.27061" lon="1.89455">
        <ele>1496.534</ele>
        <time>2019-04-18T23:25:18Z</time>
      </trkpt>
      <trkpt lat="42.27068" lon="1.8947">
        <ele>1499.436</ele>
        <time>2019-04-18T23:25:31Z</time>
      </trkpt>
      <trkpt lat="42.27077" lon="1.89473">
        <ele>1502.315</ele>
        <time>2019-04-18T23:25:44Z</time>
      </trkpt>
      <trkpt lat="42.27084" lon="1.89461">
        <ele>1505.033</ele>
        <time>2019-04-18T23:25:57Z</time>
      </trkpt>
      <trkpt lat="42.27085" lon="1.8946">
        <ele>1505.129</ele>
        <time>2019-04-18T23:25:58Z</time>
      </trkpt>
      <trkpt lat="42.27088" lon="1.89454">
        <ele>1506.552</ele>
        <time>2019-04-18T23:26:04Z</time>
      </trkpt>
      <trkpt lat="42.27096" lon="1.89439">
        <ele>1508.515</ele>
        <time>2019-04-18T23:26:18Z</time>
      </trkpt>
      <trkpt lat="42.27109" lon="1.89425">
        <ele>1511.848</ele>
        <time>2019-04-18T23:26:35Z</time>
      </trkpt>
      <trkpt lat="42.2712" lon="1.89412">
        <ele>1514.633</ele>
        <time>2019-04-18T23:26:50Z</time>
      </trkpt>
      <trkpt lat="42.27129" lon="1.89401">
        <ele>1518.023</ele>
        <time>2019-04-18T23:27:06Z</time>
      </trkpt>
      <trkpt lat="42.27145" lon="1.89387">
        <ele>1520.915</ele>
        <time>2019-04-18T23:27:23Z</time>
      </trkpt>
      <trkpt lat="42.27158" lon="1.89371">
        <ele>1523.908</ele>
        <time>2019-04-18T23:27:39Z</time>
      </trkpt>
      <trkpt lat="42.27167" lon="1.89359">
        <ele>1526.726</ele>
        <time>2019-04-18T23:27:52Z</time>
      </trkpt>
      <trkpt lat="42.27178" lon="1.89354">
        <ele>1529.688</ele>
        <time>2019-04-18T23:28:06Z</time>
      </trkpt>
      <trkpt lat="42.27191" lon="1.89342">
        <ele>1530.597</ele>
        <time>2019-04-18T23:28:20Z</time>
      </trkpt>
      <trkpt lat="42.27192" lon="1.8934">
        <ele>1530.565</ele>
        <time>2019-04-18T23:28:21Z</time>
      </trkpt>
      <trkpt lat="42.27193" lon="1.89337">
        <ele>1529.641</ele>
        <time>2019-04-18T23:28:23Z</time>
      </trkpt>
      <trkpt lat="42.27194" lon="1.89335">
        <ele>1529.694</ele>
        <time>2019-04-18T23:28:24Z</time>
      </trkpt>
      <trkpt lat="42.272" lon="1.89325">
        <ele>1529.667</ele>
        <time>2019-04-18T23:28:31Z</time>
      </trkpt>
      <trkpt lat="42.27203" lon="1.89318">
        <ele>1531.11</ele>
        <time>2019-04-18T23:28:36Z</time>
      </trkpt>
      <trkpt lat="42.27204" lon="1.89316">
        <ele>1531.052</ele>
        <time>2019-04-18T23:28:37Z</time>
      </trkpt>
      <trkpt lat="42.27205" lon="1.89311">
        <ele>1531.553</ele>
        <time>2019-04-18T23:28:40Z</time>
      </trkpt>
      <trkpt lat="42.27211" lon="1.89293">
        <ele>1533.908</ele>
        <time>2019-04-18T23:28:53Z</time>
      </trkpt>
      <trkpt lat="42.2722" lon="1.89285">
        <ele>1534.408</ele>
        <time>2019-04-18T23:29:02Z</time>
      </trkpt>
      <trkpt lat="42.27221" lon="1.89283">
        <ele>1534.558</ele>
        <time>2019-04-18T23:29:03Z</time>
      </trkpt>
      <trkpt lat="42.27229" lon="1.8927">
        <ele>1532.18</ele>
        <time>2019-04-18T23:29:10Z</time>
      </trkpt>
      <trkpt lat="42.27231" lon="1.89267">
        <ele>1531.129</ele>
        <time>2019-04-18T23:29:12Z</time>
      </trkpt>
      <trkpt lat="42.27233" lon="1.89266">
        <ele>1531.137</ele>
        <time>2019-04-18T23:29:13Z</time>
      </trkpt>
      <trkpt lat="42.27234" lon="1.89263">
        <ele>1530.553</ele>
        <time>2019-04-18T23:29:14Z</time>
      </trkpt>
      <trkpt lat="42.2724" lon="1.89245">
        <ele>1527.216</ele>
        <time>2019-04-18T23:29:22Z</time>
      </trkpt>
      <trkpt lat="42.27241" lon="1.89237">
        <ele>1525.339</ele>
        <time>2019-04-18T23:29:26Z</time>
      </trkpt>
      <trkpt lat="42.27242" lon="1.89234">
        <ele>1525.352</ele>
        <time>2019-04-18T23:29:27Z</time>
      </trkpt>
      <trkpt lat="42.27245" lon="1.89227">
        <ele>1523.836</ele>
        <time>2019-04-18T23:29:31Z</time>
      </trkpt>
      <trkpt lat="42.27249" lon="1.89213">
        <ele>1520.917</ele>
        <time>2019-04-18T23:29:41Z</time>
      </trkpt>
      <trkpt lat="42.2725" lon="1.89211">
        <ele>1520.018</ele>
        <time>2019-04-18T23:29:43Z</time>
      </trkpt>
      <trkpt lat="42.27251" lon="1.89209">
        <ele>1519.508</ele>
        <time>2019-04-18T23:29:44Z</time>
      </trkpt>
      <trkpt lat="42.27253" lon="1.89207">
        <ele>1519.176</ele>
        <time>2019-04-18T23:29:45Z</time>
      </trkpt>
      <trkpt lat="42.27254" lon="1.89204">
        <ele>1517.598</ele>
        <time>2019-04-18T23:29:47Z</time>
      </trkpt>
      <trkpt lat="42.27262" lon="1.89188">
        <ele>1514.627</ele>
        <time>2019-04-18T23:29:55Z</time>
      </trkpt>
      <trkpt lat="42.27262" lon="1.89185">
        <ele>1514.365</ele>
        <time>2019-04-18T23:29:56Z</time>
      </trkpt>
      <trkpt lat="42.27262" lon="1.89183">
        <ele>1514.311</ele>
        <time>2019-04-18T23:29:57Z</time>
      </trkpt>
      <trkpt lat="42.27262" lon="1.8918">
        <ele>1513.744</ele>
        <time>2019-04-18T23:29:58Z</time>
      </trkpt>
      <trkpt lat="42.27266" lon="1.89174">
        <ele>1512.257</ele>
        <time>2019-04-18T23:30:01Z</time>
      </trkpt>
      <trkpt lat="42.2727" lon="1.89166">
        <ele>1511.33</ele>
        <time>2019-04-18T23:30:05Z</time>
      </trkpt>
      <trkpt lat="42.27272" lon="1.89161">
        <ele>1510.364</ele>
        <time>2019-04-18T23:30:08Z</time>
      </trkpt>
      <trkpt lat="42.27274" lon="1.89159">
        <ele>1509.406</ele>
        <time>2019-04-18T23:30:09Z</time>
      </trkpt>
      <trkpt lat="42.27275" lon="1.89157">
        <ele>1509.016</ele>
        <time>2019-04-18T23:30:10Z</time>
      </trkpt>
      <trkpt lat="42.27287" lon="1.89143">
        <ele>1505.608</ele>
        <time>2019-04-18T23:30:17Z</time>
      </trkpt>
      <trkpt lat="42.27297" lon="1.89133">
        <ele>1501.849</ele>
        <time>2019-04-18T23:30:25Z</time>
      </trkpt>
      <trkpt lat="42.27299" lon="1.89131">
        <ele>1500.851</ele>
        <time>2019-04-18T23:30:27Z</time>
      </trkpt>
      <trkpt lat="42.273" lon="1.89129">
        <ele>1499.79</ele>
        <time>2019-04-18T23:30:28Z</time>
      </trkpt>
      <trkpt lat="42.27302" lon="1.89127">
        <ele>1499.378</ele>
        <time>2019-04-18T23:30:29Z</time>
      </trkpt>
      <trkpt lat="42.27303" lon="1.89125">
        <ele>1498.964</ele>
        <time>2019-04-18T23:30:30Z</time>
      </trkpt>
      <trkpt lat="42.27304" lon="1.89122">
        <ele>1498.467</ele>
        <time>2019-04-18T23:30:31Z</time>
      </trkpt>
      <trkpt lat="42.27305" lon="1.8912">
        <ele>1497.96</ele>
        <time>2019-04-18T23:30:32Z</time>
      </trkpt>
      <trkpt lat="42.27307" lon="1.89118">
        <ele>1497.473</ele>
        <time>2019-04-18T23:30:33Z</time>
      </trkpt>
      <trkpt lat="42.27308" lon="1.89116">
        <ele>1496.494</ele>
        <time>2019-04-18T23:30:34Z</time>
      </trkpt>
      <trkpt lat="42.27315" lon="1.89111">
        <ele>1494.957</ele>
        <time>2019-04-18T23:30:37Z</time>
      </trkpt>
      <trkpt lat="42.27323" lon="1.89102">
        <ele>1491.722</ele>
        <time>2019-04-18T23:30:42Z</time>
      </trkpt>
      <trkpt lat="42.27324" lon="1.891">
        <ele>1491.108</ele>
        <time>2019-04-18T23:30:43Z</time>
      </trkpt>
      <trkpt lat="42.27326" lon="1.89095">
        <ele>1490.712</ele>
        <time>2019-04-18T23:30:45Z</time>
      </trkpt>
      <trkpt lat="42.27327" lon="1.89093">
        <ele>1489.894</ele>
        <time>2019-04-18T23:30:46Z</time>
      </trkpt>
      <trkpt lat="42.27329" lon="1.89091">
        <ele>1489.813</ele>
        <time>2019-04-18T23:30:47Z</time>
      </trkpt>
      <trkpt lat="42.27331" lon="1.89089">
        <ele>1488.891</ele>
        <time>2019-04-18T23:30:48Z</time>
      </trkpt>
      <trkpt lat="42.27332" lon="1.89087">
        <ele>1488.237</ele>
        <time>2019-04-18T23:30:49Z</time>
      </trkpt>
      <trkpt lat="42.27334" lon="1.89084">
        <ele>1487.76</ele>
        <time>2019-04-18T23:30:50Z</time>
      </trkpt>
      <trkpt lat="42.27334" lon="1.89082">
        <ele>1487.483</ele>
        <time>2019-04-18T23:30:51Z</time>
      </trkpt>
      <trkpt lat="42.27335" lon="1.89081">
        <ele>1486.816</ele>
        <time>2019-04-18T23:30:52Z</time>
      </trkpt>
      <trkpt lat="42.27337" lon="1.89079">
        <ele>1486.872</ele>
        <time>2019-04-18T23:30:53Z</time>
      </trkpt>
      <trkpt lat="42.27338" lon="1.89077">
        <ele>1485.813</ele>
        <time>2019-04-18T23:30:54Z</time>
      </trkpt>
      <trkpt lat="42.27341" lon="1.89074">
        <ele>1485.414</ele>
        <time>2019-04-18T23:30:56Z</time>
      </trkpt>
      <trkpt lat="42.27349" lon="1.89068">
        <ele>1483.408</ele>
        <time>2019-04-18T23:31:01Z</time>
      </trkpt>
      <trkpt lat="42.27352" lon="1.89064">
        <ele>1482.12</ele>
        <time>2019-04-18T23:31:04Z</time>
      </trkpt>
      <trkpt lat="42.27362" lon="1.89055">
        <ele>1479.212</ele>
        <time>2019-04-18T23:31:11Z</time>
      </trkpt>
      <trkpt lat="42.27363" lon="1.89053">
        <ele>1478.241</ele>
        <time>2019-04-18T23:31:12Z</time>
      </trkpt>
      <trkpt lat="42.27367" lon="1.89048">
        <ele>1477.349</ele>
        <time>2019-04-18T23:31:15Z</time>
      </trkpt>
      <trkpt lat="42.27369" lon="1.89046">
        <ele>1476.855</ele>
        <time>2019-04-18T23:31:16Z</time>
      </trkpt>
      <trkpt lat="42.2737" lon="1.89044">
        <ele>1476.798</ele>
        <time>2019-04-18T23:31:17Z</time>
      </trkpt>
      <trkpt lat="42.2737" lon="1.89043">
        <ele>1475.831</ele>
        <time>2019-04-18T23:31:18Z</time>
      </trkpt>
      <trkpt lat="42.27372" lon="1.89041">
        <ele>1475.854</ele>
        <time>2019-04-18T23:31:19Z</time>
      </trkpt>
      <trkpt lat="42.27373" lon="1.89037">
        <ele>1474.312</ele>
        <time>2019-04-18T23:31:21Z</time>
      </trkpt>
      <trkpt lat="42.27375" lon="1.89036">
        <ele>1474.332</ele>
        <time>2019-04-18T23:31:22Z</time>
      </trkpt>
      <trkpt lat="42.27377" lon="1.89034">
        <ele>1473.905</ele>
        <time>2019-04-18T23:31:23Z</time>
      </trkpt>
      <trkpt lat="42.27388" lon="1.89023">
        <ele>1471.508</ele>
        <time>2019-04-18T23:31:30Z</time>
      </trkpt>
      <trkpt lat="42.27389" lon="1.89021">
        <ele>1470.944</ele>
        <time>2019-04-18T23:31:31Z</time>
      </trkpt>
      <trkpt lat="42.27391" lon="1.89019">
        <ele>1470.946</ele>
        <time>2019-04-18T23:31:32Z</time>
      </trkpt>
      <trkpt lat="42.27392" lon="1.89018">
        <ele>1470.435</ele>
        <time>2019-04-18T23:31:33Z</time>
      </trkpt>
      <trkpt lat="42.27394" lon="1.89017">
        <ele>1470.033</ele>
        <time>2019-04-18T23:31:34Z</time>
      </trkpt>
      <trkpt lat="42.27395" lon="1.89015">
        <ele>1469.669</ele>
        <time>2019-04-18T23:31:35Z</time>
      </trkpt>
      <trkpt lat="42.27397" lon="1.89013">
        <ele>1469.672</ele>
        <time>2019-04-18T23:31:36Z</time>
      </trkpt>
      <trkpt lat="42.27398" lon="1.89011">
        <ele>1469.185</ele>
        <time>2019-04-18T23:31:37Z</time>
      </trkpt>
      <trkpt lat="42.274" lon="1.89007">
        <ele>1468.648</ele>
        <time>2019-04-18T23:31:39Z</time>
      </trkpt>
      <trkpt lat="42.27401" lon="1.89005">
        <ele>1468.562</ele>
        <time>2019-04-18T23:31:40Z</time>
      </trkpt>
      <trkpt lat="42.27402" lon="1.89002">
        <ele>1468.583</ele>
        <time>2019-04-18T23:31:41Z</time>
      </trkpt>
      <trkpt lat="42.27404" lon="1.88999">
        <ele>1468.111</ele>
        <time>2019-04-18T23:31:42Z</time>
      </trkpt>
      <trkpt lat="42.27406" lon="1.88997">
        <ele>1468.008</ele>
        <time>2019-04-18T23:31:43Z</time>
      </trkpt>
      <trkpt lat="42.27407" lon="1.88995">
        <ele>1467.679</ele>
        <time>2019-04-18T23:31:44Z</time>
      </trkpt>
      <trkpt lat="42.27408" lon="1.88992">
        <ele>1467.281</ele>
        <time>2019-04-18T23:31:45Z</time>
      </trkpt>
      <trkpt lat="42.27409" lon="1.8899">
        <ele>1467.17</ele>
        <time>2019-04-18T23:31:46Z</time>
      </trkpt>
      <trkpt lat="42.27419" lon="1.8897">
        <ele>1466.158</ele>
        <time>2019-04-18T23:31:54Z</time>
      </trkpt>
      <trkpt lat="42.2742" lon="1.88967">
        <ele>1466.264</ele>
        <time>2019-04-18T23:31:55Z</time>
      </trkpt>
      <trkpt lat="42.27422" lon="1.88965">
        <ele>1465.137</ele>
        <time>2019-04-18T23:31:56Z</time>
      </trkpt>
      <trkpt lat="42.27423" lon="1.88962">
        <ele>1465.21</ele>
        <time>2019-04-18T23:31:57Z</time>
      </trkpt>
      <trkpt lat="42.27423" lon="1.8896">
        <ele>1465.163</ele>
        <time>2019-04-18T23:31:58Z</time>
      </trkpt>
      <trkpt lat="42.27425" lon="1.88958">
        <ele>1465.123</ele>
        <time>2019-04-18T23:31:59Z</time>
      </trkpt>
      <trkpt lat="42.27427" lon="1.88955">
        <ele>1465.183</ele>
        <time>2019-04-18T23:32:00Z</time>
      </trkpt>
      <trkpt lat="42.2743" lon="1.88953">
        <ele>1465.111</ele>
        <time>2019-04-18T23:32:01Z</time>
      </trkpt>
      <trkpt lat="42.27431" lon="1.88951">
        <ele>1465.208</ele>
        <time>2019-04-18T23:32:02Z</time>
      </trkpt>
      <trkpt lat="42.27434" lon="1.88949">
        <ele>1465.285</ele>
        <time>2019-04-18T23:32:03Z</time>
      </trkpt>
      <trkpt lat="42.27436" lon="1.88948">
        <ele>1465.197</ele>
        <time>2019-04-18T23:32:04Z</time>
      </trkpt>
      <trkpt lat="42.27437" lon="1.88946">
        <ele>1465.216</ele>
        <time>2019-04-18T23:32:05Z</time>
      </trkpt>
      <trkpt lat="42.27439" lon="1.88945">
        <ele>1465.214</ele>
        <time>2019-04-18T23:32:06Z</time>
      </trkpt>
      <trkpt lat="42.2744" lon="1.88943">
        <ele>1465.26</ele>
        <time>2019-04-18T23:32:07Z</time>
      </trkpt>
      <trkpt lat="42.27442" lon="1.8894">
        <ele>1465.263</ele>
        <time>2019-04-18T23:32:08Z</time>
      </trkpt>
      <trkpt lat="42.27443" lon="1.88938">
        <ele>1465.116</ele>
        <time>2019-04-18T23:32:09Z</time>
      </trkpt>
      <trkpt lat="42.27445" lon="1.88934">
        <ele>1464.779</ele>
        <time>2019-04-18T23:32:11Z</time>
      </trkpt>
      <trkpt lat="42.27446" lon="1.88931">
        <ele>1464.762</ele>
        <time>2019-04-18T23:32:12Z</time>
      </trkpt>
      <trkpt lat="42.27448" lon="1.8893">
        <ele>1464.783</ele>
        <time>2019-04-18T23:32:13Z</time>
      </trkpt>
      <trkpt lat="42.27449" lon="1.88928">
        <ele>1464.811</ele>
        <time>2019-04-18T23:32:14Z</time>
      </trkpt>
      <trkpt lat="42.27451" lon="1.88926">
        <ele>1464.808</ele>
        <time>2019-04-18T23:32:15Z</time>
      </trkpt>
      <trkpt lat="42.27452" lon="1.88923">
        <ele>1464.219</ele>
        <time>2019-04-18T23:32:16Z</time>
      </trkpt>
      <trkpt lat="42.27468" lon="1.88895">
        <ele>1463.321</ele>
        <time>2019-04-18T23:32:28Z</time>
      </trkpt>
      <trkpt lat="42.27484" lon="1.88874">
        <ele>1460.94</ele>
        <time>2019-04-18T23:32:39Z</time>
      </trkpt>
      <trkpt lat="42.27485" lon="1.88872">
        <ele>1460.828</ele>
        <time>2019-04-18T23:32:40Z</time>
      </trkpt>
      <trkpt lat="42.27486" lon="1.8887">
        <ele>1460.864</ele>
        <time>2019-04-18T23:32:41Z</time>
      </trkpt>
      <trkpt lat="42.27487" lon="1.88867">
        <ele>1460.467</ele>
        <time>2019-04-18T23:32:42Z</time>
      </trkpt>
      <trkpt lat="42.27488" lon="1.88865">
        <ele>1460.42</ele>
        <time>2019-04-18T23:32:43Z</time>
      </trkpt>
      <trkpt lat="42.27488" lon="1.88863">
        <ele>1460.353</ele>
        <time>2019-04-18T23:32:44Z</time>
      </trkpt>
      <trkpt lat="42.2749" lon="1.88861">
        <ele>1460.396</ele>
        <time>2019-04-18T23:32:45Z</time>
      </trkpt>
      <trkpt lat="42.27492" lon="1.88859">
        <ele>1459.931</ele>
        <time>2019-04-18T23:32:46Z</time>
      </trkpt>
      <trkpt lat="42.27493" lon="1.88857">
        <ele>1460.024</ele>
        <time>2019-04-18T23:32:47Z</time>
      </trkpt>
      <trkpt lat="42.27504" lon="1.88848">
        <ele>1459.908</ele>
        <time>2019-04-18T23:32:54Z</time>
      </trkpt>
      <trkpt lat="42.27528" lon="1.88833">
        <ele>1459.562</ele>
        <time>2019-04-18T23:33:07Z</time>
      </trkpt>
      <trkpt lat="42.27533" lon="1.88831">
        <ele>1459.564</ele>
        <time>2019-04-18T23:33:08Z</time>
      </trkpt>
      <trkpt lat="42.27535" lon="1.88828">
        <ele>1459.583</ele>
        <time>2019-04-18T23:33:10Z</time>
      </trkpt>
      <trkpt lat="42.27536" lon="1.88826">
        <ele>1459.581</ele>
        <time>2019-04-18T23:33:11Z</time>
      </trkpt>
      <trkpt lat="42.27544" lon="1.8881">
        <ele>1461.317</ele>
        <time>2019-04-18T23:33:21Z</time>
      </trkpt>
      <trkpt lat="42.27548" lon="1.88804">
        <ele>1460.81</ele>
        <time>2019-04-18T23:33:25Z</time>
      </trkpt>
      <trkpt lat="42.27549" lon="1.88802">
        <ele>1460.973</ele>
        <time>2019-04-18T23:33:26Z</time>
      </trkpt>
      <trkpt lat="42.27548" lon="1.888">
        <ele>1460.846</ele>
        <time>2019-04-18T23:33:27Z</time>
      </trkpt>
      <trkpt lat="42.27548" lon="1.88798">
        <ele>1459.998</ele>
        <time>2019-04-18T23:33:28Z</time>
      </trkpt>
      <trkpt lat="42.27548" lon="1.88795">
        <ele>1459.915</ele>
        <time>2019-04-18T23:33:29Z</time>
      </trkpt>
      <trkpt lat="42.27549" lon="1.88793">
        <ele>1459.926</ele>
        <time>2019-04-18T23:33:30Z</time>
      </trkpt>
      <trkpt lat="42.27549" lon="1.8879">
        <ele>1460.008</ele>
        <time>2019-04-18T23:33:31Z</time>
      </trkpt>
      <trkpt lat="42.27555" lon="1.8878">
        <ele>1459.092</ele>
        <time>2019-04-18T23:33:36Z</time>
      </trkpt>
      <trkpt lat="42.27558" lon="1.88775">
        <ele>1459.014</ele>
        <time>2019-04-18T23:33:39Z</time>
      </trkpt>
      <trkpt lat="42.27559" lon="1.88774">
        <ele>1458.533</ele>
        <time>2019-04-18T23:33:40Z</time>
      </trkpt>
      <trkpt lat="42.27569" lon="1.88765">
        <ele>1457.061</ele>
        <time>2019-04-18T23:33:47Z</time>
      </trkpt>
      <trkpt lat="42.27573" lon="1.8876">
        <ele>1456.117</ele>
        <time>2019-04-18T23:33:51Z</time>
      </trkpt>
      <trkpt lat="42.27574" lon="1.88759">
        <ele>1455.53</ele>
        <time>2019-04-18T23:33:52Z</time>
      </trkpt>
      <trkpt lat="42.27576" lon="1.88758">
        <ele>1455.633</ele>
        <time>2019-04-18T23:33:53Z</time>
      </trkpt>
      <trkpt lat="42.27577" lon="1.88757">
        <ele>1455.196</ele>
        <time>2019-04-18T23:33:54Z</time>
      </trkpt>
      <trkpt lat="42.27579" lon="1.88755">
        <ele>1454.627</ele>
        <time>2019-04-18T23:33:55Z</time>
      </trkpt>
      <trkpt lat="42.2759" lon="1.88738">
        <ele>1451.768</ele>
        <time>2019-04-18T23:34:07Z</time>
      </trkpt>
      <trkpt lat="42.27591" lon="1.88735">
        <ele>1451.714</ele>
        <time>2019-04-18T23:34:08Z</time>
      </trkpt>
      <trkpt lat="42.27594" lon="1.8873">
        <ele>1450.808</ele>
        <time>2019-04-18T23:34:11Z</time>
      </trkpt>
      <trkpt lat="42.27595" lon="1.88715">
        <ele>1447.865</ele>
        <time>2019-04-18T23:34:20Z</time>
      </trkpt>
      <trkpt lat="42.27597" lon="1.88706">
        <ele>1444.547</ele>
        <time>2019-04-18T23:34:30Z</time>
      </trkpt>
      <trkpt lat="42.27598" lon="1.88704">
        <ele>1444.166</ele>
        <time>2019-04-18T23:34:32Z</time>
      </trkpt>
      <trkpt lat="42.27596" lon="1.88691">
        <ele>1441.254</ele>
        <time>2019-04-18T23:34:41Z</time>
      </trkpt>
      <trkpt lat="42.27595" lon="1.88684">
        <ele>1439.77</ele>
        <time>2019-04-18T23:34:48Z</time>
      </trkpt>
      <trkpt lat="42.27597" lon="1.88673">
        <ele>1436.433</ele>
        <time>2019-04-18T23:34:58Z</time>
      </trkpt>
      <trkpt lat="42.27596" lon="1.88664">
        <ele>1432.976</ele>
        <time>2019-04-18T23:35:05Z</time>
      </trkpt>
      <trkpt lat="42.27595" lon="1.88662">
        <ele>1432.679</ele>
        <time>2019-04-18T23:35:06Z</time>
      </trkpt>
      <trkpt lat="42.27592" lon="1.88657">
        <ele>1430.557</ele>
        <time>2019-04-18T23:35:11Z</time>
      </trkpt>
      <trkpt lat="42.27578" lon="1.88653">
        <ele>1429.1</ele>
        <time>2019-04-18T23:35:24Z</time>
      </trkpt>
      <trkpt lat="42.27567" lon="1.88646">
        <ele>1427.32</ele>
        <time>2019-04-18T23:35:34Z</time>
      </trkpt>
      <trkpt lat="42.27563" lon="1.88643">
        <ele>1426.708</ele>
        <time>2019-04-18T23:35:37Z</time>
      </trkpt>
      <trkpt lat="42.27558" lon="1.8863">
        <ele>1423.998</ele>
        <time>2019-04-18T23:35:46Z</time>
      </trkpt>
      <trkpt lat="42.27554" lon="1.88612">
        <ele>1420.41</ele>
        <time>2019-04-18T23:35:57Z</time>
      </trkpt>
      <trkpt lat="42.27553" lon="1.88606">
        <ele>1419.139</ele>
        <time>2019-04-18T23:36:02Z</time>
      </trkpt>
      <trkpt lat="42.27553" lon="1.88602">
        <ele>1418.017</ele>
        <time>2019-04-18T23:36:05Z</time>
      </trkpt>
      <trkpt lat="42.27558" lon="1.88602">
        <ele>1414.713</ele>
        <time>2019-04-18T23:36:14Z</time>
      </trkpt>
      <trkpt lat="42.27553" lon="1.88591">
        <ele>1411.476</ele>
        <time>2019-04-18T23:36:24Z</time>
      </trkpt>
      <trkpt lat="42.27552" lon="1.8859">
        <ele>1411.439</ele>
        <time>2019-04-18T23:36:25Z</time>
      </trkpt>
      <trkpt lat="42.27551" lon="1.88589">
        <ele>1410.452</ele>
        <time>2019-04-18T23:36:26Z</time>
      </trkpt>
      <trkpt lat="42.27546" lon="1.88574">
        <ele>1407.092</ele>
        <time>2019-04-18T23:36:37Z</time>
      </trkpt>
      <trkpt lat="42.27546" lon="1.88563">
        <ele>1403.673</ele>
        <time>2019-04-18T23:36:47Z</time>
      </trkpt>
      <trkpt lat="42.27543" lon="1.88556">
        <ele>1400.32</ele>
        <time>2019-04-18T23:36:56Z</time>
      </trkpt>
      <trkpt lat="42.27542" lon="1.8855">
        <ele>1398.308</ele>
        <time>2019-04-18T23:37:01Z</time>
      </trkpt>
      <trkpt lat="42.27541" lon="1.88547">
        <ele>1397.452</ele>
        <time>2019-04-18T23:37:03Z</time>
      </trkpt>
      <trkpt lat="42.27541" lon="1.88545">
        <ele>1397.094</ele>
        <time>2019-04-18T23:37:04Z</time>
      </trkpt>
      <trkpt lat="42.27543" lon="1.88542">
        <ele>1395.023</ele>
        <time>2019-04-18T23:37:09Z</time>
      </trkpt>
      <trkpt lat="42.27547" lon="1.88546">
        <ele>1394.141</ele>
        <time>2019-04-18T23:37:14Z</time>
      </trkpt>
      <trkpt lat="42.27557" lon="1.8855">
        <ele>1390.637</ele>
        <time>2019-04-18T23:37:27Z</time>
      </trkpt>
      <trkpt lat="42.27564" lon="1.88553">
        <ele>1387.41</ele>
        <time>2019-04-18T23:37:38Z</time>
      </trkpt>
      <trkpt lat="42.27573" lon="1.88552">
        <ele>1385.953</ele>
        <time>2019-04-18T23:37:49Z</time>
      </trkpt>
      <trkpt lat="42.27574" lon="1.88543">
        <ele>1382.916</ele>
        <time>2019-04-18T23:38:05Z</time>
      </trkpt>
      <trkpt lat="42.27576" lon="1.88529">
        <ele>1381.518</ele>
        <time>2019-04-18T23:38:19Z</time>
      </trkpt>
      <trkpt lat="42.27575" lon="1.88511">
        <ele>1378.198</ele>
        <time>2019-04-18T23:38:32Z</time>
      </trkpt>
      <trkpt lat="42.27572" lon="1.88504">
        <ele>1375.417</ele>
        <time>2019-04-18T23:38:41Z</time>
      </trkpt>
      <trkpt lat="42.27563" lon="1.88507">
        <ele>1372.508</ele>
        <time>2019-04-18T23:38:52Z</time>
      </trkpt>
      <trkpt lat="42.27553" lon="1.88495">
        <ele>1371.434</ele>
        <time>2019-04-18T23:39:05Z</time>
      </trkpt>
      <trkpt lat="42.27545" lon="1.8848">
        <ele>1368.116</ele>
        <time>2019-04-18T23:39:15Z</time>
      </trkpt>
      <trkpt lat="42.27544" lon="1.88479">
        <ele>1368.015</ele>
        <time>2019-04-18T23:39:16Z</time>
      </trkpt>
      <trkpt lat="42.2754" lon="1.88467">
        <ele>1366.153</ele>
        <time>2019-04-18T23:39:23Z</time>
      </trkpt>
      <trkpt lat="42.27538" lon="1.88454">
        <ele>1362.939</ele>
        <time>2019-04-18T23:39:30Z</time>
      </trkpt>
      <trkpt lat="42.27532" lon="1.88436">
        <ele>1359.952</ele>
        <time>2019-04-18T23:39:39Z</time>
      </trkpt>
      <trkpt lat="42.27531" lon="1.88432">
        <ele>1359.595</ele>
        <time>2019-04-18T23:39:41Z</time>
      </trkpt>
      <trkpt lat="42.27536" lon="1.88427">
        <ele>1356.098</ele>
        <time>2019-04-18T23:39:50Z</time>
      </trkpt>
      <trkpt lat="42.2754" lon="1.88428">
        <ele>1353.647</ele>
        <time>2019-04-18T23:39:57Z</time>
      </trkpt>
      <trkpt lat="42.27543" lon="1.88418">
        <ele>1350.329</ele>
        <time>2019-04-18T23:40:07Z</time>
      </trkpt>
      <trkpt lat="42.27541" lon="1.88408">
        <ele>1347.021</ele>
        <time>2019-04-18T23:40:17Z</time>
      </trkpt>
      <trkpt lat="42.2753" lon="1.8839">
        <ele>1343.608</ele>
        <time>2019-04-18T23:40:29Z</time>
      </trkpt>
      <trkpt lat="42.27539" lon="1.8839">
        <ele>1341.277</ele>
        <time>2019-04-18T23:40:37Z</time>
      </trkpt>
      <trkpt lat="42.27549" lon="1.88386">
        <ele>1339.249</ele>
        <time>2019-04-18T23:40:48Z</time>
      </trkpt>
      <trkpt lat="42.2756" lon="1.88387">
        <ele>1338.368</ele>
        <time>2019-04-18T23:41:00Z</time>
      </trkpt>
      <trkpt lat="42.27567" lon="1.88384">
        <ele>1339.286</ele>
        <time>2019-04-18T23:41:06Z</time>
      </trkpt>
      <trkpt lat="42.27567" lon="1.88376">
        <ele>1336.432</ele>
        <time>2019-04-18T23:41:15Z</time>
      </trkpt>
      <trkpt lat="42.27566" lon="1.88372">
        <ele>1335.045</ele>
        <time>2019-04-18T23:41:20Z</time>
      </trkpt>
      <trkpt lat="42.27564" lon="1.8836">
        <ele>1331.568</ele>
        <time>2019-04-18T23:41:30Z</time>
      </trkpt>
      <trkpt lat="42.27559" lon="1.8835">
        <ele>1328.731</ele>
        <time>2019-04-18T23:41:38Z</time>
      </trkpt>
      <trkpt lat="42.27564" lon="1.8834">
        <ele>1324.357</ele>
        <time>2019-04-18T23:41:49Z</time>
      </trkpt>
      <trkpt lat="42.27565" lon="1.88334">
        <ele>1321.4</ele>
        <time>2019-04-18T23:42:00Z</time>
      </trkpt>
      <trkpt lat="42.2756" lon="1.88327">
        <ele>1318.52</ele>
        <time>2019-04-18T23:42:10Z</time>
      </trkpt>
      <trkpt lat="42.27547" lon="1.88325">
        <ele>1315.208</ele>
        <time>2019-04-18T23:42:22Z</time>
      </trkpt>
      <trkpt lat="42.27545" lon="1.88325">
        <ele>1315.398</ele>
        <time>2019-04-18T23:42:23Z</time>
      </trkpt>
      <trkpt lat="42.27537" lon="1.88321">
        <ele>1314.86</ele>
        <time>2019-04-18T23:42:29Z</time>
      </trkpt>
      <trkpt lat="42.27536" lon="1.88307">
        <ele>1313.859</ele>
        <time>2019-04-18T23:42:38Z</time>
      </trkpt>
      <trkpt lat="42.27543" lon="1.88299">
        <ele>1311.817</ele>
        <time>2019-04-18T23:42:47Z</time>
      </trkpt>
      <trkpt lat="42.27543" lon="1.88297">
        <ele>1311.993</ele>
        <time>2019-04-18T23:42:48Z</time>
      </trkpt>
      <trkpt lat="42.27542" lon="1.88295">
        <ele>1310.966</ele>
        <time>2019-04-18T23:42:49Z</time>
      </trkpt>
      <trkpt lat="42.27541" lon="1.88293">
        <ele>1310.979</ele>
        <time>2019-04-18T23:42:50Z</time>
      </trkpt>
      <trkpt lat="42.27541" lon="1.88291">
        <ele>1310.962</ele>
        <time>2019-04-18T23:42:51Z</time>
      </trkpt>
      <trkpt lat="42.2754" lon="1.88289">
        <ele>1310.453</ele>
        <time>2019-04-18T23:42:52Z</time>
      </trkpt>
      <trkpt lat="42.2754" lon="1.88287">
        <ele>1310.404</ele>
        <time>2019-04-18T23:42:53Z</time>
      </trkpt>
      <trkpt lat="42.2752" lon="1.88275">
        <ele>1308.114</ele>
        <time>2019-04-18T23:43:07Z</time>
      </trkpt>
      <trkpt lat="42.275" lon="1.88265">
        <ele>1305.708</ele>
        <time>2019-04-18T23:43:21Z</time>
      </trkpt>
      <trkpt lat="42.27498" lon="1.8826">
        <ele>1304.728</ele>
        <time>2019-04-18T23:43:24Z</time>
      </trkpt>
      <trkpt lat="42.27492" lon="1.8823">
        <ele>1301.32</ele>
        <time>2019-04-18T23:43:37Z</time>
      </trkpt>
      <trkpt lat="42.27489" lon="1.88196">
        <ele>1299.369</ele>
        <time>2019-04-18T23:43:52Z</time>
      </trkpt>
      <trkpt lat="42.27483" lon="1.88163">
        <ele>1298.587</ele>
        <time>2019-04-18T23:44:06Z</time>
      </trkpt>
      <trkpt lat="42.27481" lon="1.88161">
        <ele>1298.433</ele>
        <time>2019-04-18T23:44:09Z</time>
      </trkpt>
      <trkpt lat="42.27478" lon="1.88163">
        <ele>1298.466</ele>
        <time>2019-04-18T23:44:28Z</time>
      </trkpt>
      <trkpt lat="42.27479" lon="1.88164">
        <ele>1298.549</ele>
        <time>2019-04-18T23:44:36Z</time>
      </trkpt>
      <trkpt lat="42.27481" lon="1.88156">
        <ele>1298.422</ele>
        <time>2019-04-18T23:44:49Z</time>
      </trkpt>
      <trkpt lat="42.27481" lon="1.88154">
        <ele>1298.496</ele>
        <time>2019-04-18T23:44:51Z</time>
      </trkpt>
      <trkpt lat="42.27479" lon="1.88145">
        <ele>1298.431</ele>
        <time>2019-04-18T23:44:57Z</time>
      </trkpt>
      <trkpt lat="42.27476" lon="1.88132">
        <ele>1298.824</ele>
        <time>2019-04-18T23:45:11Z</time>
      </trkpt>
      <trkpt lat="42.27475" lon="1.88132">
        <ele>1298.808</ele>
        <time>2019-04-18T23:45:12Z</time>
      </trkpt>
      <trkpt lat="42.27472" lon="1.88126">
        <ele>1298.842</ele>
        <time>2019-04-18T23:45:18Z</time>
      </trkpt>
      <trkpt lat="42.27467" lon="1.8811">
        <ele>1298.994</ele>
        <time>2019-04-18T23:45:35Z</time>
      </trkpt>
      <trkpt lat="42.27467" lon="1.88108">
        <ele>1298.913</ele>
        <time>2019-04-18T23:45:48Z</time>
      </trkpt>
      <trkpt lat="42.27464" lon="1.88094">
        <ele>1298.871</ele>
        <time>2019-04-18T23:46:00Z</time>
      </trkpt>
      <trkpt lat="42.27461" lon="1.88072">
        <ele>1300.867</ele>
        <time>2019-04-18T23:46:14Z</time>
      </trkpt>
      <trkpt lat="42.27467" lon="1.88044">
        <ele>1302.23</ele>
        <time>2019-04-18T23:46:31Z</time>
      </trkpt>
      <trkpt lat="42.27469" lon="1.88037">
        <ele>1302.873</ele>
        <time>2019-04-18T23:46:35Z</time>
      </trkpt>
      <trkpt lat="42.27478" lon="1.88013">
        <ele>1304.696</ele>
        <time>2019-04-18T23:46:51Z</time>
      </trkpt>
      <trkpt lat="42.27491" lon="1.87992">
        <ele>1307.049</ele>
        <time>2019-04-18T23:47:08Z</time>
      </trkpt>
      <trkpt lat="42.27496" lon="1.87987">
        <ele>1307.502</ele>
        <time>2019-04-18T23:47:13Z</time>
      </trkpt>
      <trkpt lat="42.27512" lon="1.87974">
        <ele>1310.422</ele>
        <time>2019-04-18T23:47:29Z</time>
      </trkpt>
      <trkpt lat="42.27526" lon="1.87964">
        <ele>1312.908</ele>
        <time>2019-04-18T23:47:43Z</time>
      </trkpt>
      <trkpt lat="42.27529" lon="1.87962">
        <ele>1313.777</ele>
        <time>2019-04-18T23:47:46Z</time>
      </trkpt>
      <trkpt lat="42.27547" lon="1.87962">
        <ele>1316.649</ele>
        <time>2019-04-18T23:48:02Z</time>
      </trkpt>
      <trkpt lat="42.2756" lon="1.87971">
        <ele>1318.678</ele>
        <time>2019-04-18T23:48:16Z</time>
      </trkpt>
      <trkpt lat="42.27567" lon="1.87974">
        <ele>1321.056</ele>
        <time>2019-04-18T23:48:30Z</time>
      </trkpt>
      <trkpt lat="42.27575" lon="1.87978">
        <ele>1323.462</ele>
        <time>2019-04-18T23:48:42Z</time>
      </trkpt>
      <trkpt lat="42.2758" lon="1.87966">
        <ele>1326.225</ele>
        <time>2019-04-18T23:48:57Z</time>
      </trkpt>
      <trkpt lat="42.2758" lon="1.87948">
        <ele>1329.698</ele>
        <time>2019-04-18T23:49:12Z</time>
      </trkpt>
      <trkpt lat="42.27583" lon="1.87933">
        <ele>1331.681</ele>
        <time>2019-04-18T23:49:28Z</time>
      </trkpt>
      <trkpt lat="42.27588" lon="1.87923">
        <ele>1334.932</ele>
        <time>2019-04-18T23:49:44Z</time>
      </trkpt>
      <trkpt lat="42.27597" lon="1.87924">
        <ele>1336.892</ele>
        <time>2019-04-18T23:49:54Z</time>
      </trkpt>
      <trkpt lat="42.27591" lon="1.87901">
        <ele>1337.311</ele>
        <time>2019-04-18T23:50:09Z</time>
      </trkpt>
      <trkpt lat="42.27593" lon="1.8789">
        <ele>1339.308</ele>
        <time>2019-04-18T23:50:21Z</time>
      </trkpt>
      <trkpt lat="42.27598" lon="1.87888">
        <ele>1341.636</ele>
        <time>2019-04-18T23:50:34Z</time>
      </trkpt>
      <trkpt lat="42.27603" lon="1.87882">
        <ele>1344.548</ele>
        <time>2019-04-18T23:50:49Z</time>
      </trkpt>
      <trkpt lat="42.2761" lon="1.87886">
        <ele>1347.537</ele>
        <time>2019-04-18T23:51:02Z</time>
      </trkpt>
      <trkpt lat="42.27613" lon="1.87889">
        <ele>1347.955</ele>
        <time>2019-04-18T23:51:05Z</time>
      </trkpt>
      <trkpt lat="42.27623" lon="1.87886">
        <ele>1351.341</ele>
        <time>2019-04-18T23:51:20Z</time>
      </trkpt>
      <trkpt lat="42.27621" lon="1.87883">
        <ele>1351.324</ele>
        <time>2019-04-18T23:51:31Z</time>
      </trkpt>
      <trkpt lat="42.27621" lon="1.87884">
        <ele>1351.297</ele>
        <time>2019-04-18T23:51:44Z</time>
      </trkpt>
      <trkpt lat="42.27621" lon="1.87885">
        <ele>1351.24</ele>
        <time>2019-04-18T23:51:45Z</time>
      </trkpt>
      <trkpt lat="42.27619" lon="1.87902">
        <ele>1350.311</ele>
        <time>2019-04-18T23:51:55Z</time>
      </trkpt>
      <trkpt lat="42.27618" lon="1.87905">
        <ele>1350.321</ele>
        <time>2019-04-18T23:51:57Z</time>
      </trkpt>
      <trkpt lat="42.27621" lon="1.87909">
        <ele>1352.803</ele>
        <time>2019-04-18T23:52:11Z</time>
      </trkpt>
      <trkpt lat="42.27625" lon="1.87909">
        <ele>1355.708</ele>
        <time>2019-04-18T23:52:26Z</time>
      </trkpt>
      <trkpt lat="42.27625" lon="1.87918">
        <ele>1357.134</ele>
        <time>2019-04-18T23:52:42Z</time>
      </trkpt>
      <trkpt lat="42.2763" lon="1.87914">
        <ele>1359.936</ele>
        <time>2019-04-18T23:52:58Z</time>
      </trkpt>
      <trkpt lat="42.27632" lon="1.87902">
        <ele>1362.875</ele>
        <time>2019-04-18T23:53:11Z</time>
      </trkpt>
      <trkpt lat="42.27638" lon="1.87891">
        <ele>1365.613</ele>
        <time>2019-04-18T23:53:24Z</time>
      </trkpt>
      <trkpt lat="42.27647" lon="1.87892">
        <ele>1369.119</ele>
        <time>2019-04-18T23:53:38Z</time>
      </trkpt>
      <trkpt lat="42.27657" lon="1.87896">
        <ele>1371.522</ele>
        <time>2019-04-18T23:53:53Z</time>
      </trkpt>
      <trkpt lat="42.27659" lon="1.87894">
        <ele>1372.565</ele>
        <time>2019-04-18T23:53:55Z</time>
      </trkpt>
      <trkpt lat="42.27667" lon="1.87869">
        <ele>1374.318</ele>
        <time>2019-04-18T23:54:11Z</time>
      </trkpt>
      <trkpt lat="42.27668" lon="1.87866">
        <ele>1374.313</ele>
        <time>2019-04-18T23:54:13Z</time>
      </trkpt>
      <trkpt lat="42.27676" lon="1.87847">
        <ele>1375.343</ele>
        <time>2019-04-18T23:54:25Z</time>
      </trkpt>
      <trkpt lat="42.27681" lon="1.87823">
        <ele>1377.707</ele>
        <time>2019-04-18T23:54:40Z</time>
      </trkpt>
      <trkpt lat="42.27681" lon="1.87801">
        <ele>1379.608</ele>
        <time>2019-04-18T23:54:56Z</time>
      </trkpt>
      <trkpt lat="42.27683" lon="1.87782">
        <ele>1380.624</ele>
        <time>2019-04-18T23:55:09Z</time>
      </trkpt>
      <trkpt lat="42.27684" lon="1.87779">
        <ele>1381.116</ele>
        <time>2019-04-18T23:55:11Z</time>
      </trkpt>
      <trkpt lat="42.27689" lon="1.87758">
        <ele>1383.955</ele>
        <time>2019-04-18T23:55:27Z</time>
      </trkpt>
      <trkpt lat="42.27695" lon="1.87734">
        <ele>1386.933</ele>
        <time>2019-04-18T23:55:44Z</time>
      </trkpt>
      <trkpt lat="42.27701" lon="1.87712">
        <ele>1388.269</ele>
        <time>2019-04-18T23:55:58Z</time>
      </trkpt>
      <trkpt lat="42.27705" lon="1.87704">
        <ele>1388.812</ele>
        <time>2019-04-18T23:56:04Z</time>
      </trkpt>
      <trkpt lat="42.2771" lon="1.87688">
        <ele>1390.365</ele>
        <time>2019-04-18T23:56:15Z</time>
      </trkpt>
      <trkpt lat="42.27713" lon="1.87677">
        <ele>1392.158</ele>
        <time>2019-04-18T23:56:24Z</time>
      </trkpt>
      <trkpt lat="42.2771" lon="1.87656">
        <ele>1395.086</ele>
        <time>2019-04-18T23:56:40Z</time>
      </trkpt>
      <trkpt lat="42.27709" lon="1.87626">
        <ele>1393.56</ele>
        <time>2019-04-18T23:56:55Z</time>
      </trkpt>
      <trkpt lat="42.27706" lon="1.876">
        <ele>1390.226</ele>
        <time>2019-04-18T23:57:07Z</time>
      </trkpt>
      <trkpt lat="42.27696" lon="1.8758">
        <ele>1388.208</ele>
        <time>2019-04-18T23:57:18Z</time>
      </trkpt>
      <trkpt lat="42.27678" lon="1.87552">
        <ele>1385.891</ele>
        <time>2019-04-18T23:57:36Z</time>
      </trkpt>
      <trkpt lat="42.27671" lon="1.87523">
        <ele>1384.513</ele>
        <time>2019-04-18T23:57:50Z</time>
      </trkpt>
      <trkpt lat="42.2767" lon="1.8751">
        <ele>1384.492</ele>
        <time>2019-04-18T23:57:56Z</time>
      </trkpt>
      <trkpt lat="42.27669" lon="1.87494">
        <ele>1383.42</ele>
        <time>2019-04-18T23:58:04Z</time>
      </trkpt>
      <trkpt lat="42.27657" lon="1.87465">
        <ele>1380.556</ele>
        <time>2019-04-18T23:58:19Z</time>
      </trkpt>
      <trkpt lat="42.27641" lon="1.87436">
        <ele>1380.239</ele>
        <time>2019-04-18T23:58:34Z</time>
      </trkpt>
      <trkpt lat="42.27634" lon="1.87409">
        <ele>1380.132</ele>
        <time>2019-04-18T23:58:48Z</time>
      </trkpt>
      <trkpt lat="42.27629" lon="1.8738">
        <ele>1380.275</ele>
        <time>2019-04-18T23:59:02Z</time>
      </trkpt>
      <trkpt lat="42.27629" lon="1.87375">
        <ele>1380.125</ele>
        <time>2019-04-18T23:59:04Z</time>
      </trkpt>
      <trkpt lat="42.27628" lon="1.87365">
        <ele>1380.126</ele>
        <time>2019-04-18T23:59:09Z</time>
      </trkpt>
      <trkpt lat="42.27629" lon="1.87358">
        <ele>1379.608</ele>
        <time>2019-04-18T23:59:13Z</time>
      </trkpt>
      <trkpt lat="42.27631" lon="1.8735">
        <ele>1378.208</ele>
        <time>2019-04-18T23:59:17Z</time>
      </trkpt>
      <trkpt lat="42.27645" lon="1.87324">
        <ele>1375.755</ele>
        <time>2019-04-18T23:59:31Z</time>
      </trkpt>
      <trkpt lat="42.27663" lon="1.87307">
        <ele>1374.457</ele>
        <time>2019-04-18T23:59:43Z</time>
      </trkpt>
      <trkpt lat="42.27676" lon="1.87289">
        <ele>1371.516</ele>
        <time>2019-04-18T23:59:54Z</time>
      </trkpt>
      <trkpt lat="42.27679" lon="1.87284">
        <ele>1371.544</ele>
        <time>2019-04-18T23:59:57Z</time>
      </trkpt>
      <trkpt lat="42.27679" lon="1.87282">
        <ele>1371.08</ele>
        <time>2019-04-18T23:59:58Z</time>
      </trkpt>
      <trkpt lat="42.2768" lon="1.8728">
        <ele>1370.643</ele>
        <time>2019-04-18T23:59:59Z</time>
      </trkpt>
      <trkpt lat="42.27688" lon="1.87268">
        <ele>1370.146</ele>
        <time>2019-04-19T00:00:06Z</time>
      </trkpt>
      <trkpt lat="42.27689" lon="1.87266">
        <ele>1370.199</ele>
        <time>2019-04-19T00:00:07Z</time>
      </trkpt>
      <trkpt lat="42.2769" lon="1.87265">
        <ele>1369.574</ele>
        <time>2019-04-19T00:00:08Z</time>
      </trkpt>
      <trkpt lat="42.2769" lon="1.87263">
        <ele>1369.556</ele>
        <time>2019-04-19T00:00:09Z</time>
      </trkpt>
      <trkpt lat="42.27691" lon="1.87261">
        <ele>1369.021</ele>
        <time>2019-04-19T00:00:10Z</time>
      </trkpt>
      <trkpt lat="42.27692" lon="1.8726">
        <ele>1369.108</ele>
        <time>2019-04-19T00:00:11Z</time>
      </trkpt>
      <trkpt lat="42.27693" lon="1.87259">
        <ele>1368.57</ele>
        <time>2019-04-19T00:00:12Z</time>
      </trkpt>
      <trkpt lat="42.27695" lon="1.87247">
        <ele>1367.182</ele>
        <time>2019-04-19T00:00:18Z</time>
      </trkpt>
      <trkpt lat="42.27694" lon="1.87246">
        <ele>1367.191</ele>
        <time>2019-04-19T00:00:19Z</time>
      </trkpt>
      <trkpt lat="42.27693" lon="1.87244">
        <ele>1366.669</ele>
        <time>2019-04-19T00:00:20Z</time>
      </trkpt>
      <trkpt lat="42.27692" lon="1.87243">
        <ele>1366.665</ele>
        <time>2019-04-19T00:00:21Z</time>
      </trkpt>
      <trkpt lat="42.2769" lon="1.87242">
        <ele>1365.648</ele>
        <time>2019-04-19T00:00:22Z</time>
      </trkpt>
      <trkpt lat="42.27688" lon="1.87242">
        <ele>1365.791</ele>
        <time>2019-04-19T00:00:23Z</time>
      </trkpt>
      <trkpt lat="42.27687" lon="1.87242">
        <ele>1365.234</ele>
        <time>2019-04-19T00:00:24Z</time>
      </trkpt>
      <trkpt lat="42.27684" lon="1.87243">
        <ele>1365.296</ele>
        <time>2019-04-19T00:00:25Z</time>
      </trkpt>
      <trkpt lat="42.27668" lon="1.87249">
        <ele>1363.231</ele>
        <time>2019-04-19T00:00:37Z</time>
      </trkpt>
      <trkpt lat="42.27667" lon="1.8725">
        <ele>1363.324</ele>
        <time>2019-04-19T00:00:38Z</time>
      </trkpt>
      <trkpt lat="42.27666" lon="1.87251">
        <ele>1363.308</ele>
        <time>2019-04-19T00:00:39Z</time>
      </trkpt>
      <trkpt lat="42.27649" lon="1.87252">
        <ele>1362.392</ele>
        <time>2019-04-19T00:00:52Z</time>
      </trkpt>
      <trkpt lat="42.27654" lon="1.87243">
        <ele>1359.494</ele>
        <time>2019-04-19T00:01:06Z</time>
      </trkpt>
      <trkpt lat="42.27655" lon="1.87229">
        <ele>1356.683</ele>
        <time>2019-04-19T00:01:21Z</time>
      </trkpt>
      <trkpt lat="42.27655" lon="1.87227">
        <ele>1356.031</ele>
        <time>2019-04-19T00:01:22Z</time>
      </trkpt>
      <trkpt lat="42.27657" lon="1.87225">
        <ele>1355.717</ele>
        <time>2019-04-19T00:01:24Z</time>
      </trkpt>
      <trkpt lat="42.27661" lon="1.87207">
        <ele>1353.71</ele>
        <time>2019-04-19T00:01:38Z</time>
      </trkpt>
      <trkpt lat="42.27662" lon="1.87201">
        <ele>1353.173</ele>
        <time>2019-04-19T00:01:41Z</time>
      </trkpt>
      <trkpt lat="42.27663" lon="1.87187">
        <ele>1350.346</ele>
        <time>2019-04-19T00:01:51Z</time>
      </trkpt>
      <trkpt lat="42.27669" lon="1.87179">
        <ele>1347.427</ele>
        <time>2019-04-19T00:02:05Z</time>
      </trkpt>
      <trkpt lat="42.27673" lon="1.87181">
        <ele>1345.968</ele>
        <time>2019-04-19T00:02:10Z</time>
      </trkpt>
      <trkpt lat="42.27681" lon="1.87185">
        <ele>1343.214</ele>
        <time>2019-04-19T00:02:19Z</time>
      </trkpt>
      <trkpt lat="42.27691" lon="1.87172">
        <ele>1339.808</ele>
        <time>2019-04-19T00:02:33Z</time>
      </trkpt>
      <trkpt lat="42.27693" lon="1.8716">
        <ele>1336.325</ele>
        <time>2019-04-19T00:02:44Z</time>
      </trkpt>
      <trkpt lat="42.27693" lon="1.87153">
        <ele>1333.187</ele>
        <time>2019-04-19T00:02:53Z</time>
      </trkpt>
      <trkpt lat="42.27691" lon="1.87146">
        <ele>1330.116</ele>
        <time>2019-04-19T00:03:00Z</time>
      </trkpt>
      <trkpt lat="42.27685" lon="1.87144">
        <ele>1327.394</ele>
        <time>2019-04-19T00:03:11Z</time>
      </trkpt>
      <trkpt lat="42.27687" lon="1.87132">
        <ele>1323.91</ele>
        <time>2019-04-19T00:03:20Z</time>
      </trkpt>
      <trkpt lat="42.27685" lon="1.87123">
        <ele>1320.693</ele>
        <time>2019-04-19T00:03:30Z</time>
      </trkpt>
      <trkpt lat="42.27678" lon="1.87124">
        <ele>1317.126</ele>
        <time>2019-04-19T00:03:39Z</time>
      </trkpt>
      <trkpt lat="42.27675" lon="1.87117">
        <ele>1313.869</ele>
        <time>2019-04-19T00:03:48Z</time>
      </trkpt>
      <trkpt lat="42.27673" lon="1.8711">
        <ele>1310.432</ele>
        <time>2019-04-19T00:03:56Z</time>
      </trkpt>
      <trkpt lat="42.27675" lon="1.87101">
        <ele>1307.092</ele>
        <time>2019-04-19T00:04:06Z</time>
      </trkpt>
      <trkpt lat="42.27672" lon="1.87097">
        <ele>1304.711</ele>
        <time>2019-04-19T00:04:13Z</time>
      </trkpt>
      <trkpt lat="42.27665" lon="1.87088">
        <ele>1301.708</ele>
        <time>2019-04-19T00:04:26Z</time>
      </trkpt>
      <trkpt lat="42.27666" lon="1.87077">
        <ele>1297.946</ele>
        <time>2019-04-19T00:04:35Z</time>
      </trkpt>
      <trkpt lat="42.27666" lon="1.87076">
        <ele>1298.028</ele>
        <time>2019-04-19T00:04:36Z</time>
      </trkpt>
      <trkpt lat="42.27673" lon="1.87065">
        <ele>1294.627</ele>
        <time>2019-04-19T00:04:52Z</time>
      </trkpt>
      <trkpt lat="42.27671" lon="1.87061">
        <ele>1294.625</ele>
        <time>2019-04-19T00:05:15Z</time>
      </trkpt>
      <trkpt lat="42.27672" lon="1.8706">
        <ele>1294.141</ele>
        <time>2019-04-19T00:05:32Z</time>
      </trkpt>
      <trkpt lat="42.27671" lon="1.87063">
        <ele>1294.014</ele>
        <time>2019-04-19T00:05:56Z</time>
      </trkpt>
      <trkpt lat="42.27674" lon="1.87065">
        <ele>1294.157</ele>
        <time>2019-04-19T00:06:27Z</time>
      </trkpt>
      <trkpt lat="42.27668" lon="1.87067">
        <ele>1294.06</ele>
        <time>2019-04-19T00:06:59Z</time>
      </trkpt>
      <trkpt lat="42.27671" lon="1.87061">
        <ele>1294.045</ele>
        <time>2019-04-19T00:07:28Z</time>
      </trkpt>
      <trkpt lat="42.2767" lon="1.8706">
        <ele>1294.047</ele>
        <time>2019-04-19T00:07:50Z</time>
      </trkpt>
      <trkpt lat="42.27667" lon="1.8706">
        <ele>1294.611</ele>
        <time>2019-04-19T00:08:19Z</time>
      </trkpt>
      <trkpt lat="42.27661" lon="1.87056">
        <ele>1291.208</ele>
        <time>2019-04-19T00:08:29Z</time>
      </trkpt>
      <trkpt lat="42.27659" lon="1.87046">
        <ele>1288.437</ele>
        <time>2019-04-19T00:08:37Z</time>
      </trkpt>
      <trkpt lat="42.27659" lon="1.87033">
        <ele>1284.539</ele>
        <time>2019-04-19T00:08:47Z</time>
      </trkpt>
      <trkpt lat="42.27661" lon="1.8702">
        <ele>1281.098</ele>
        <time>2019-04-19T00:08:58Z</time>
      </trkpt>
      <trkpt lat="42.27658" lon="1.87011">
        <ele>1277.236</ele>
        <time>2019-04-19T00:09:08Z</time>
      </trkpt>
      <trkpt lat="42.27658" lon="1.8701">
        <ele>1277.322</ele>
        <time>2019-04-19T00:09:09Z</time>
      </trkpt>
      <trkpt lat="42.27656" lon="1.87003">
        <ele>1274.385</ele>
        <time>2019-04-19T00:09:16Z</time>
      </trkpt>
      <trkpt lat="42.27655" lon="1.87">
        <ele>1273.528</ele>
        <time>2019-04-19T00:09:18Z</time>
      </trkpt>
      <trkpt lat="42.27646" lon="1.86984">
        <ele>1270.061</ele>
        <time>2019-04-19T00:09:33Z</time>
      </trkpt>
      <trkpt lat="42.27646" lon="1.86973">
        <ele>1266.628</ele>
        <time>2019-04-19T00:09:41Z</time>
      </trkpt>
      <trkpt lat="42.27644" lon="1.86959">
        <ele>1263.389</ele>
        <time>2019-04-19T00:09:51Z</time>
      </trkpt>
      <trkpt lat="42.27643" lon="1.86956">
        <ele>1262.817</ele>
        <time>2019-04-19T00:09:53Z</time>
      </trkpt>
      <trkpt lat="42.27643" lon="1.86945">
        <ele>1259.408</ele>
        <time>2019-04-19T00:10:04Z</time>
      </trkpt>
      <trkpt lat="42.27643" lon="1.8693">
        <ele>1256.185</ele>
        <time>2019-04-19T00:10:16Z</time>
      </trkpt>
      <trkpt lat="42.27642" lon="1.86921">
        <ele>1253.857</ele>
        <time>2019-04-19T00:10:23Z</time>
      </trkpt>
      <trkpt lat="42.27643" lon="1.86907">
        <ele>1250.396</ele>
        <time>2019-04-19T00:10:35Z</time>
      </trkpt>
      <trkpt lat="42.2764" lon="1.86896">
        <ele>1247.464</ele>
        <time>2019-04-19T00:10:44Z</time>
      </trkpt>
      <trkpt lat="42.27635" lon="1.86887">
        <ele>1243.73</ele>
        <time>2019-04-19T00:10:54Z</time>
      </trkpt>
      <trkpt lat="42.2763" lon="1.86881">
        <ele>1240.363</ele>
        <time>2019-04-19T00:11:03Z</time>
      </trkpt>
      <trkpt lat="42.27629" lon="1.86873">
        <ele>1236.836</ele>
        <time>2019-04-19T00:11:12Z</time>
      </trkpt>
      <trkpt lat="42.27629" lon="1.8687">
        <ele>1236.339</ele>
        <time>2019-04-19T00:11:14Z</time>
      </trkpt>
      <trkpt lat="42.2763" lon="1.86859">
        <ele>1233.013</ele>
        <time>2019-04-19T00:11:23Z</time>
      </trkpt>
      <trkpt lat="42.27628" lon="1.86848">
        <ele>1229.643</ele>
        <time>2019-04-19T00:11:34Z</time>
      </trkpt>
      <trkpt lat="42.27625" lon="1.86838">
        <ele>1226.307</ele>
        <time>2019-04-19T00:11:45Z</time>
      </trkpt>
      <trkpt lat="42.2762" lon="1.8682">
        <ele>1223.008</ele>
        <time>2019-04-19T00:11:59Z</time>
      </trkpt>
      <trkpt lat="42.2762" lon="1.86807">
        <ele>1219.634</ele>
        <time>2019-04-19T00:12:09Z</time>
      </trkpt>
      <trkpt lat="42.27617" lon="1.86792">
        <ele>1215.786</ele>
        <time>2019-04-19T00:12:26Z</time>
      </trkpt>
      <trkpt lat="42.27617" lon="1.86791">
        <ele>1215.835</ele>
        <time>2019-04-19T00:12:27Z</time>
      </trkpt>
      <trkpt lat="42.27624" lon="1.8679">
        <ele>1215.283</ele>
        <time>2019-04-19T00:12:50Z</time>
      </trkpt>
      <trkpt lat="42.27631" lon="1.86797">
        <ele>1214.739</ele>
        <time>2019-04-19T00:13:22Z</time>
      </trkpt>
      <trkpt lat="42.27625" lon="1.86784">
        <ele>1212.962</ele>
        <time>2019-04-19T00:13:41Z</time>
      </trkpt>
      <trkpt lat="42.27623" lon="1.86773">
        <ele>1210.065</ele>
        <time>2019-04-19T00:13:55Z</time>
      </trkpt>
      <trkpt lat="42.27617" lon="1.86763">
        <ele>1207.168</ele>
        <time>2019-04-19T00:14:10Z</time>
      </trkpt>
      <trkpt lat="42.27618" lon="1.86752">
        <ele>1203.798</ele>
        <time>2019-04-19T00:14:22Z</time>
      </trkpt>
      <trkpt lat="42.27622" lon="1.86742">
        <ele>1200.315</ele>
        <time>2019-04-19T00:14:36Z</time>
      </trkpt>
      <trkpt lat="42.27618" lon="1.86729">
        <ele>1197.026</ele>
        <time>2019-04-19T00:14:49Z</time>
      </trkpt>
      <trkpt lat="42.27611" lon="1.86717">
        <ele>1193.608</ele>
        <time>2019-04-19T00:15:04Z</time>
      </trkpt>
      <trkpt lat="42.27611" lon="1.86701">
        <ele>1191.242</ele>
        <time>2019-04-19T00:15:22Z</time>
      </trkpt>
      <trkpt lat="42.2761" lon="1.86696">
        <ele>1189.224</ele>
        <time>2019-04-19T00:15:29Z</time>
      </trkpt>
      <trkpt lat="42.27612" lon="1.8668">
        <ele>1185.953</ele>
        <time>2019-04-19T00:15:42Z</time>
      </trkpt>
      <trkpt lat="42.27607" lon="1.86665">
        <ele>1182.131</ele>
        <time>2019-04-19T00:15:55Z</time>
      </trkpt>
      <trkpt lat="42.27604" lon="1.86651">
        <ele>1178.797</ele>
        <time>2019-04-19T00:16:10Z</time>
      </trkpt>
      <trkpt lat="42.27601" lon="1.86642">
        <ele>1175.92</ele>
        <time>2019-04-19T00:16:27Z</time>
      </trkpt>
      <trkpt lat="42.27598" lon="1.86626">
        <ele>1172.523</ele>
        <time>2019-04-19T00:16:41Z</time>
      </trkpt>
      <trkpt lat="42.27598" lon="1.86614">
        <ele>1168.616</ele>
        <time>2019-04-19T00:16:52Z</time>
      </trkpt>
      <trkpt lat="42.27596" lon="1.86606">
        <ele>1167.142</ele>
        <time>2019-04-19T00:17:08Z</time>
      </trkpt>
      <trkpt lat="42.27596" lon="1.86597">
        <ele>1163.822</ele>
        <time>2019-04-19T00:17:23Z</time>
      </trkpt>
      <trkpt lat="42.27589" lon="1.86594">
        <ele>1163.414</ele>
        <time>2019-04-19T00:17:41Z</time>
      </trkpt>
      <trkpt lat="42.27592" lon="1.86592">
        <ele>1161.908</ele>
        <time>2019-04-19T00:17:56Z</time>
      </trkpt>
      <trkpt lat="42.27595" lon="1.8658">
        <ele>1159.137</ele>
        <time>2019-04-19T00:18:08Z</time>
      </trkpt>
      <trkpt lat="42.27594" lon="1.86566">
        <ele>1155.699</ele>
        <time>2019-04-19T00:18:21Z</time>
      </trkpt>
      <trkpt lat="42.2759" lon="1.86552">
        <ele>1152.368</ele>
        <time>2019-04-19T00:18:35Z</time>
      </trkpt>
      <trkpt lat="42.27589" lon="1.86539">
        <ele>1149.436</ele>
        <time>2019-04-19T00:18:48Z</time>
      </trkpt>
      <trkpt lat="42.27586" lon="1.86528">
        <ele>1146.072</ele>
        <time>2019-04-19T00:19:00Z</time>
      </trkpt>
      <trkpt lat="42.27583" lon="1.8652">
        <ele>1142.625</ele>
        <time>2019-04-19T00:19:14Z</time>
      </trkpt>
      <trkpt lat="42.27582" lon="1.86506">
        <ele>1140.348</ele>
        <time>2019-04-19T00:19:30Z</time>
      </trkpt>
      <trkpt lat="42.2758" lon="1.865">
        <ele>1139.721</ele>
        <time>2019-04-19T00:19:55Z</time>
      </trkpt>
      <trkpt lat="42.27573" lon="1.86483">
        <ele>1136.435</ele>
        <time>2019-04-19T00:20:11Z</time>
      </trkpt>
      <trkpt lat="42.27572" lon="1.8648">
        <ele>1135.986</ele>
        <time>2019-04-19T00:20:13Z</time>
      </trkpt>
      <trkpt lat="42.2757" lon="1.86467">
        <ele>1132.614</ele>
        <time>2019-04-19T00:20:23Z</time>
      </trkpt>
      <trkpt lat="42.27568" lon="1.86459">
        <ele>1128.808</ele>
        <time>2019-04-19T00:20:31Z</time>
      </trkpt>
      <trkpt lat="42.27568" lon="1.86456">
        <ele>1128.856</ele>
        <time>2019-04-19T00:20:32Z</time>
      </trkpt>
      <trkpt lat="42.27568" lon="1.8644">
        <ele>1125.928</ele>
        <time>2019-04-19T00:20:45Z</time>
      </trkpt>
      <trkpt lat="42.27565" lon="1.8643">
        <ele>1122.497</ele>
        <time>2019-04-19T00:20:55Z</time>
      </trkpt>
      <trkpt lat="42.27565" lon="1.86426">
        <ele>1119.615</ele>
        <time>2019-04-19T00:21:03Z</time>
      </trkpt>
      <trkpt lat="42.27568" lon="1.86416">
        <ele>1116.271</ele>
        <time>2019-04-19T00:21:13Z</time>
      </trkpt>
      <trkpt lat="42.27566" lon="1.86402">
        <ele>1113.354</ele>
        <time>2019-04-19T00:21:22Z</time>
      </trkpt>
      <trkpt lat="42.27568" lon="1.86384">
        <ele>1109.997</ele>
        <time>2019-04-19T00:21:34Z</time>
      </trkpt>
      <trkpt lat="42.27564" lon="1.86371">
        <ele>1107.16</ele>
        <time>2019-04-19T00:21:43Z</time>
      </trkpt>
      <trkpt lat="42.2756" lon="1.86351">
        <ele>1103.729</ele>
        <time>2019-04-19T00:21:57Z</time>
      </trkpt>
      <trkpt lat="42.27554" lon="1.86335">
        <ele>1100.3</ele>
        <time>2019-04-19T00:22:08Z</time>
      </trkpt>
      <trkpt lat="42.2755" lon="1.86324">
        <ele>1097.12</ele>
        <time>2019-04-19T00:22:16Z</time>
      </trkpt>
      <trkpt lat="42.27551" lon="1.86312">
        <ele>1094.208</ele>
        <time>2019-04-19T00:22:24Z</time>
      </trkpt>
      <trkpt lat="42.27549" lon="1.86299">
        <ele>1090.345</ele>
        <time>2019-04-19T00:22:33Z</time>
      </trkpt>
      <trkpt lat="42.27546" lon="1.86279">
        <ele>1087.467</ele>
        <time>2019-04-19T00:22:45Z</time>
      </trkpt>
      <trkpt lat="42.27541" lon="1.86267">
        <ele>1084.176</ele>
        <time>2019-04-19T00:22:53Z</time>
      </trkpt>
      <trkpt lat="42.27537" lon="1.86258">
        <ele>1080.724</ele>
        <time>2019-04-19T00:23:02Z</time>
      </trkpt>
      <trkpt lat="42.27536" lon="1.86235">
        <ele>1077.86</ele>
        <time>2019-04-19T00:23:14Z</time>
      </trkpt>
      <trkpt lat="42.27533" lon="1.86221">
        <ele>1074.473</ele>
        <time>2019-04-19T00:23:26Z</time>
      </trkpt>
      <trkpt lat="42.27528" lon="1.86207">
        <ele>1071.186</ele>
        <time>2019-04-19T00:23:36Z</time>
      </trkpt>
      <trkpt lat="42.27528" lon="1.86199">
        <ele>1069.699</ele>
        <time>2019-04-19T00:23:42Z</time>
      </trkpt>
      <trkpt lat="42.27526" lon="1.86186">
        <ele>1065.753</ele>
        <time>2019-04-19T00:23:52Z</time>
      </trkpt>
      <trkpt lat="42.27523" lon="1.86173">
        <ele>1062.804</ele>
        <time>2019-04-19T00:24:01Z</time>
      </trkpt>
      <trkpt lat="42.27518" lon="1.86152">
        <ele>1059.614</ele>
        <time>2019-04-19T00:24:12Z</time>
      </trkpt>
      <trkpt lat="42.27519" lon="1.86141">
        <ele>1056.208</ele>
        <time>2019-04-19T00:24:20Z</time>
      </trkpt>
      <trkpt lat="42.2752" lon="1.8612">
        <ele>1054.228</ele>
        <time>2019-04-19T00:24:31Z</time>
      </trkpt>
      <trkpt lat="42.27515" lon="1.86102">
        <ele>1050.92</ele>
        <time>2019-04-19T00:24:42Z</time>
      </trkpt>
      <trkpt lat="42.27513" lon="1.86086">
        <ele>1047.459</ele>
        <time>2019-04-19T00:24:54Z</time>
      </trkpt>
      <trkpt lat="42.27511" lon="1.86059">
        <ele>1044.227</ele>
        <time>2019-04-19T00:25:07Z</time>
      </trkpt>
      <trkpt lat="42.27507" lon="1.86033">
        <ele>1041.793</ele>
        <time>2019-04-19T00:25:23Z</time>
      </trkpt>
      <trkpt lat="42.27504" lon="1.86017">
        <ele>1038.366</ele>
        <time>2019-04-19T00:25:33Z</time>
      </trkpt>
      <trkpt lat="42.27502" lon="1.86004">
        <ele>1035.059</ele>
        <time>2019-04-19T00:25:43Z</time>
      </trkpt>
      <trkpt lat="42.27502" lon="1.85987">
        <ele>1032.212</ele>
        <time>2019-04-19T00:25:56Z</time>
      </trkpt>
      <trkpt lat="42.27503" lon="1.85982">
        <ele>1032.534</ele>
        <time>2019-04-19T00:25:59Z</time>
      </trkpt>
      <trkpt lat="42.27507" lon="1.85959">
        <ele>1030.155</ele>
        <time>2019-04-19T00:26:11Z</time>
      </trkpt>
      <trkpt lat="42.27511" lon="1.85939">
        <ele>1027.41</ele>
        <time>2019-04-19T00:26:23Z</time>
      </trkpt>
      <trkpt lat="42.27508" lon="1.85927">
        <ele>1025.308</ele>
        <time>2019-04-19T00:26:30Z</time>
      </trkpt>
      <trkpt lat="42.27506" lon="1.85922">
        <ele>1024.546</ele>
        <time>2019-04-19T00:26:34Z</time>
      </trkpt>
      <trkpt lat="42.27502" lon="1.85899">
        <ele>1020.568</ele>
        <time>2019-04-19T00:26:48Z</time>
      </trkpt>
      <trkpt lat="42.27502" lon="1.85885">
        <ele>1018.667</ele>
        <time>2019-04-19T00:26:57Z</time>
      </trkpt>
      <trkpt lat="42.27504" lon="1.8586">
        <ele>1015.895</ele>
        <time>2019-04-19T00:27:10Z</time>
      </trkpt>
      <trkpt lat="42.27504" lon="1.85848">
        <ele>1012.461</ele>
        <time>2019-04-19T00:27:19Z</time>
      </trkpt>
      <trkpt lat="42.27503" lon="1.85846">
        <ele>1012.084</ele>
        <time>2019-04-19T00:27:21Z</time>
      </trkpt>
      <trkpt lat="42.27498" lon="1.85828">
        <ele>1008.137</ele>
        <time>2019-04-19T00:27:32Z</time>
      </trkpt>
      <trkpt lat="42.27498" lon="1.85825">
        <ele>1007.24</ele>
        <time>2019-04-19T00:27:34Z</time>
      </trkpt>
      <trkpt lat="42.27496" lon="1.85807">
        <ele>1003.762</ele>
        <time>2019-04-19T00:27:47Z</time>
      </trkpt>
      <trkpt lat="42.27491" lon="1.85789">
        <ele>1002.383</ele>
        <time>2019-04-19T00:28:01Z</time>
      </trkpt>
      <trkpt lat="42.2749" lon="1.85785">
        <ele>1000.311</ele>
        <time>2019-04-19T00:28:07Z</time>
      </trkpt>
      <trkpt lat="42.27484" lon="1.85772">
        <ele>999.008</ele>
        <time>2019-04-19T00:28:15Z</time>
      </trkpt>
      <trkpt lat="42.27482" lon="1.85761">
        <ele>997.149</ele>
        <time>2019-04-19T00:28:22Z</time>
      </trkpt>
      <trkpt lat="42.27482" lon="1.85753">
        <ele>995.661</ele>
        <time>2019-04-19T00:28:27Z</time>
      </trkpt>
      <trkpt lat="42.27485" lon="1.85737">
        <ele>991.36</ele>
        <time>2019-04-19T00:28:39Z</time>
      </trkpt>
      <trkpt lat="42.27482" lon="1.85723">
        <ele>988.388</ele>
        <time>2019-04-19T00:28:52Z</time>
      </trkpt>
      <trkpt lat="42.27478" lon="1.85709">
        <ele>985.124</ele>
        <time>2019-04-19T00:29:03Z</time>
      </trkpt>
      <trkpt lat="42.2748" lon="1.85698">
        <ele>981.267</ele>
        <time>2019-04-19T00:29:14Z</time>
      </trkpt>
      <trkpt lat="42.27481" lon="1.85689">
        <ele>979.75</ele>
        <time>2019-04-19T00:29:20Z</time>
      </trkpt>
      <trkpt lat="42.27481" lon="1.85669">
        <ele>976.823</ele>
        <time>2019-04-19T00:29:32Z</time>
      </trkpt>
      <trkpt lat="42.27484" lon="1.85652">
        <ele>975.885</ele>
        <time>2019-04-19T00:29:47Z</time>
      </trkpt>
      <trkpt lat="42.27485" lon="1.8566">
        <ele>975.389</ele>
        <time>2019-04-19T00:30:16Z</time>
      </trkpt>
      <trkpt lat="42.27488" lon="1.85658">
        <ele>975.417</ele>
        <time>2019-04-19T00:30:41Z</time>
      </trkpt>
      <trkpt lat="42.27487" lon="1.85653">
        <ele>975.808</ele>
        <time>2019-04-19T00:31:15Z</time>
      </trkpt>
      <trkpt lat="42.27483" lon="1.85652">
        <ele>976.381</ele>
        <time>2019-04-19T00:31:41Z</time>
      </trkpt>
      <trkpt lat="42.27484" lon="1.85648">
        <ele>975.983</ele>
        <time>2019-04-19T00:32:05Z</time>
      </trkpt>
      <trkpt lat="42.27482" lon="1.85634">
        <ele>974.072</ele>
        <time>2019-04-19T00:32:18Z</time>
      </trkpt>
      <trkpt lat="42.27481" lon="1.85615">
        <ele>972.16</ele>
        <time>2019-04-19T00:32:29Z</time>
      </trkpt>
      <trkpt lat="42.27479" lon="1.85607">
        <ele>970.636</ele>
        <time>2019-04-19T00:32:34Z</time>
      </trkpt>
      <trkpt lat="42.27477" lon="1.85593">
        <ele>969.799</ele>
        <time>2019-04-19T00:32:42Z</time>
      </trkpt>
      <trkpt lat="42.2748" lon="1.85573">
        <ele>966.822</ele>
        <time>2019-04-19T00:32:54Z</time>
      </trkpt>
      <trkpt lat="42.27478" lon="1.85552">
        <ele>964.395</ele>
        <time>2019-04-19T00:33:04Z</time>
      </trkpt>
      <trkpt lat="42.27472" lon="1.85532">
        <ele>961.934</ele>
        <time>2019-04-19T00:33:16Z</time>
      </trkpt>
      <trkpt lat="42.2747" lon="1.8552">
        <ele>961.455</ele>
        <time>2019-04-19T00:33:23Z</time>
      </trkpt>
      <trkpt lat="42.27466" lon="1.85502">
        <ele>960.51</ele>
        <time>2019-04-19T00:33:33Z</time>
      </trkpt>
      <trkpt lat="42.2746" lon="1.85475">
        <ele>958.008</ele>
        <time>2019-04-19T00:33:47Z</time>
      </trkpt>
      <trkpt lat="42.27456" lon="1.85456">
        <ele>954.876</ele>
        <time>2019-04-19T00:33:59Z</time>
      </trkpt>
      <trkpt lat="42.27454" lon="1.85432">
        <ele>952.418</ele>
        <time>2019-04-19T00:34:12Z</time>
      </trkpt>
      <trkpt lat="42.27455" lon="1.85422">
        <ele>950.827</ele>
        <time>2019-04-19T00:34:17Z</time>
      </trkpt>
      <trkpt lat="42.27456" lon="1.85412">
        <ele>950.545</ele>
        <time>2019-04-19T00:34:22Z</time>
      </trkpt>
      <trkpt lat="42.27456" lon="1.85406">
        <ele>950.071</ele>
        <time>2019-04-19T00:34:26Z</time>
      </trkpt>
      <trkpt lat="42.27455" lon="1.85391">
        <ele>949.474</ele>
        <time>2019-04-19T00:34:36Z</time>
      </trkpt>
      <trkpt lat="42.27456" lon="1.85383">
        <ele>949.027</ele>
        <time>2019-04-19T00:34:53Z</time>
      </trkpt>
      <trkpt lat="42.27457" lon="1.85381">
        <ele>949.08</ele>
        <time>2019-04-19T00:34:54Z</time>
      </trkpt>
      <trkpt lat="42.2746" lon="1.85372">
        <ele>948.048</ele>
        <time>2019-04-19T00:35:00Z</time>
      </trkpt>
      <trkpt lat="42.2746" lon="1.85359">
        <ele>947.561</ele>
        <time>2019-04-19T00:35:07Z</time>
      </trkpt>
      <trkpt lat="42.27454" lon="1.85332">
        <ele>945.217</ele>
        <time>2019-04-19T00:35:23Z</time>
      </trkpt>
      <trkpt lat="42.27446" lon="1.85322">
        <ele>942.308</ele>
        <time>2019-04-19T00:35:31Z</time>
      </trkpt>
      <trkpt lat="42.2744" lon="1.85312">
        <ele>940.447</ele>
        <time>2019-04-19T00:35:38Z</time>
      </trkpt>
      <trkpt lat="42.27439" lon="1.85309">
        <ele>940.429</ele>
        <time>2019-04-19T00:35:40Z</time>
      </trkpt>
      <trkpt lat="42.27435" lon="1.85297">
        <ele>939.498</ele>
        <time>2019-04-19T00:35:46Z</time>
      </trkpt>
      <trkpt lat="42.27426" lon="1.85273">
        <ele>937.036</ele>
        <time>2019-04-19T00:35:57Z</time>
      </trkpt>
      <trkpt lat="42.27423" lon="1.85246">
        <ele>935.512</ele>
        <time>2019-04-19T00:36:09Z</time>
      </trkpt>
      <trkpt lat="42.27425" lon="1.85214">
        <ele>934.125</ele>
        <time>2019-04-19T00:36:23Z</time>
      </trkpt>
      <trkpt lat="42.27425" lon="1.85192">
        <ele>933.548</ele>
        <time>2019-04-19T00:36:34Z</time>
      </trkpt>
      <trkpt lat="42.27427" lon="1.85179">
        <ele>935.041</ele>
        <time>2019-04-19T00:36:42Z</time>
      </trkpt>
      <trkpt lat="42.27433" lon="1.85157">
        <ele>935.963</ele>
        <time>2019-04-19T00:36:54Z</time>
      </trkpt>
      <trkpt lat="42.2744" lon="1.85147">
        <ele>936.444</ele>
        <time>2019-04-19T00:37:01Z</time>
      </trkpt>
      <trkpt lat="42.27441" lon="1.85146">
        <ele>936.418</ele>
        <time>2019-04-19T00:37:02Z</time>
      </trkpt>
      <trkpt lat="42.27443" lon="1.85144">
        <ele>936.408</ele>
        <time>2019-04-19T00:37:03Z</time>
      </trkpt>
      <trkpt lat="42.27444" lon="1.85143">
        <ele>936.599</ele>
        <time>2019-04-19T00:37:04Z</time>
      </trkpt>
      <trkpt lat="42.27445" lon="1.85142">
        <ele>936.521</ele>
        <time>2019-04-19T00:37:05Z</time>
      </trkpt>
      <trkpt lat="42.27446" lon="1.85141">
        <ele>936.42</ele>
        <time>2019-04-19T00:37:06Z</time>
      </trkpt>
      <trkpt lat="42.27463" lon="1.85133">
        <ele>935.138</ele>
        <time>2019-04-19T00:37:20Z</time>
      </trkpt>
      <trkpt lat="42.27481" lon="1.85131">
        <ele>934.574</ele>
        <time>2019-04-19T00:37:35Z</time>
      </trkpt>
      <trkpt lat="42.27495" lon="1.85118">
        <ele>932.797</ele>
        <time>2019-04-19T00:37:48Z</time>
      </trkpt>
      <trkpt lat="42.27498" lon="1.85115">
        <ele>932.26</ele>
        <time>2019-04-19T00:38:11Z</time>
      </trkpt>
      <trkpt lat="42.27499" lon="1.85108">
        <ele>931.643</ele>
        <time>2019-04-19T00:38:36Z</time>
      </trkpt>
      <trkpt lat="42.27501" lon="1.85104">
        <ele>931.628</ele>
        <time>2019-04-19T00:38:48Z</time>
      </trkpt>
      <trkpt lat="42.275" lon="1.85101">
        <ele>931.689</ele>
        <time>2019-04-19T00:39:12Z</time>
      </trkpt>
      <trkpt lat="42.27498" lon="1.85101">
        <ele>931.717</ele>
        <time>2019-04-19T00:39:32Z</time>
      </trkpt>
      <trkpt lat="42.27497" lon="1.85099">
        <ele>931.608</ele>
        <time>2019-04-19T00:39:52Z</time>
      </trkpt>
      <trkpt lat="42.275" lon="1.85096">
        <ele>931.775</ele>
        <time>2019-04-19T00:40:12Z</time>
      </trkpt>
      <trkpt lat="42.27499" lon="1.8509">
        <ele>931.617</ele>
        <time>2019-04-19T00:40:26Z</time>
      </trkpt>
      <trkpt lat="42.27498" lon="1.85089">
        <ele>931.626</ele>
        <time>2019-04-19T00:40:50Z</time>
      </trkpt>
      <trkpt lat="42.27497" lon="1.85092">
        <ele>931.724</ele>
        <time>2019-04-19T00:41:18Z</time>
      </trkpt>
      <trkpt lat="42.27494" lon="1.85089">
        <ele>931.62</ele>
        <time>2019-04-19T00:41:25Z</time>
      </trkpt>
      <trkpt lat="42.27493" lon="1.85088">
        <ele>931.623</ele>
        <time>2019-04-19T00:41:26Z</time>
      </trkpt>
      <trkpt lat="42.27492" lon="1.85088">
        <ele>931.666</ele>
        <time>2019-04-19T00:41:27Z</time>
      </trkpt>
      <trkpt lat="42.2749" lon="1.85086">
        <ele>931.239</ele>
        <time>2019-04-19T00:41:30Z</time>
      </trkpt>
      <trkpt lat="42.27489" lon="1.85085">
        <ele>931.163</ele>
        <time>2019-04-19T00:41:31Z</time>
      </trkpt>
      <trkpt lat="42.27488" lon="1.85084">
        <ele>931.144</ele>
        <time>2019-04-19T00:41:32Z</time>
      </trkpt>
      <trkpt lat="42.27465" lon="1.85076">
        <ele>930.318</ele>
        <time>2019-04-19T00:41:50Z</time>
      </trkpt>
      <trkpt lat="42.27449" lon="1.85077">
        <ele>930.308</ele>
        <time>2019-04-19T00:42:03Z</time>
      </trkpt>
      <trkpt lat="42.27438" lon="1.85077">
        <ele>931.689</ele>
        <time>2019-04-19T00:42:11Z</time>
      </trkpt>
      <trkpt lat="42.2742" lon="1.85076">
        <ele>933.691</ele>
        <time>2019-04-19T00:42:28Z</time>
      </trkpt>
      <trkpt lat="42.27421" lon="1.85074">
        <ele>934.54</ele>
        <time>2019-04-19T00:42:31Z</time>
      </trkpt>
      <trkpt lat="42.27422" lon="1.85074">
        <ele>934.638</ele>
        <time>2019-04-19T00:42:32Z</time>
      </trkpt>
      <trkpt lat="42.27434" lon="1.85062">
        <ele>936.054</ele>
        <time>2019-04-19T00:42:47Z</time>
      </trkpt>
      <trkpt lat="42.2745" lon="1.85054">
        <ele>937.917</ele>
        <time>2019-04-19T00:43:01Z</time>
      </trkpt>
      <trkpt lat="42.27452" lon="1.85053">
        <ele>938.32</ele>
        <time>2019-04-19T00:43:02Z</time>
      </trkpt>
      <trkpt lat="42.27456" lon="1.85051">
        <ele>938.473</ele>
        <time>2019-04-19T00:43:06Z</time>
      </trkpt>
      <trkpt lat="42.27458" lon="1.85051">
        <ele>938.398</ele>
        <time>2019-04-19T00:43:07Z</time>
      </trkpt>
      <trkpt lat="42.27477" lon="1.85045">
        <ele>940.715</ele>
        <time>2019-04-19T00:43:23Z</time>
      </trkpt>
      <trkpt lat="42.27483" lon="1.85042">
        <ele>941.826</ele>
        <time>2019-04-19T00:43:39Z</time>
      </trkpt>
      <trkpt lat="42.27503" lon="1.85043">
        <ele>942.808</ele>
        <time>2019-04-19T00:43:55Z</time>
      </trkpt>
      <trkpt lat="42.27523" lon="1.85052">
        <ele>945.252</ele>
        <time>2019-04-19T00:44:11Z</time>
      </trkpt>
      <trkpt lat="42.2754" lon="1.85057">
        <ele>946.194</ele>
        <time>2019-04-19T00:44:26Z</time>
      </trkpt>
      <trkpt lat="42.27555" lon="1.85055">
        <ele>948.153</ele>
        <time>2019-04-19T00:44:41Z</time>
      </trkpt>
      <trkpt lat="42.27564" lon="1.85047">
        <ele>949.021</ele>
        <time>2019-04-19T00:44:54Z</time>
      </trkpt>
      <trkpt lat="42.27558" lon="1.85037">
        <ele>951.867</ele>
        <time>2019-04-19T00:45:08Z</time>
      </trkpt>
      <trkpt lat="42.27552" lon="1.85032">
        <ele>954.82</ele>
        <time>2019-04-19T00:45:21Z</time>
      </trkpt>
      <trkpt lat="42.27548" lon="1.85026">
        <ele>958.183</ele>
        <time>2019-04-19T00:45:36Z</time>
      </trkpt>
      <trkpt lat="42.27542" lon="1.85023">
        <ele>960.526</ele>
        <time>2019-04-19T00:45:49Z</time>
      </trkpt>
      <trkpt lat="42.27534" lon="1.85019">
        <ele>963.328</ele>
        <time>2019-04-19T00:46:02Z</time>
      </trkpt>
      <trkpt lat="42.27527" lon="1.85014">
        <ele>965.789</ele>
        <time>2019-04-19T00:46:16Z</time>
      </trkpt>
      <trkpt lat="42.27526" lon="1.85003">
        <ele>969.617</ele>
        <time>2019-04-19T00:46:32Z</time>
      </trkpt>
      <trkpt lat="42.27533" lon="1.85001">
        <ele>972.508</ele>
        <time>2019-04-19T00:46:45Z</time>
      </trkpt>
      <trkpt lat="42.27548" lon="1.84997">
        <ele>975.095</ele>
        <time>2019-04-19T00:47:02Z</time>
      </trkpt>
      <trkpt lat="42.27552" lon="1.84991">
        <ele>976.927</ele>
        <time>2019-04-19T00:47:20Z</time>
      </trkpt>
      <trkpt lat="42.27559" lon="1.84985">
        <ele>980.736</ele>
        <time>2019-04-19T00:47:34Z</time>
      </trkpt>
      <trkpt lat="42.27562" lon="1.84978">
        <ele>984.024</ele>
        <time>2019-04-19T00:47:48Z</time>
      </trkpt>
      <trkpt lat="42.27566" lon="1.84972">
        <ele>987.55</ele>
        <time>2019-04-19T00:48:03Z</time>
      </trkpt>
      <trkpt lat="42.2757" lon="1.84961">
        <ele>990.843</ele>
        <time>2019-04-19T00:48:20Z</time>
      </trkpt>
      <trkpt lat="42.27572" lon="1.84957">
        <ele>993.746</ele>
        <time>2019-04-19T00:48:34Z</time>
      </trkpt>
      <trkpt lat="42.27582" lon="1.84952">
        <ele>996.569</ele>
        <time>2019-04-19T00:48:49Z</time>
      </trkpt>
      <trkpt lat="42.27587" lon="1.84947">
        <ele>999.982</ele>
        <time>2019-04-19T00:49:03Z</time>
      </trkpt>
      <trkpt lat="42.27593" lon="1.84935">
        <ele>1003.243</ele>
        <time>2019-04-19T00:49:20Z</time>
      </trkpt>
      <trkpt lat="42.27594" lon="1.84926">
        <ele>1006.717</ele>
        <time>2019-04-19T00:49:35Z</time>
      </trkpt>
      <trkpt lat="42.27599" lon="1.84916">
        <ele>1010.108</ele>
        <time>2019-04-19T00:49:51Z</time>
      </trkpt>
      <trkpt lat="42.27597" lon="1.84903">
        <ele>1012.951</ele>
        <time>2019-04-19T00:50:06Z</time>
      </trkpt>
      <trkpt lat="42.27597" lon="1.84891">
        <ele>1016.213</ele>
        <time>2019-04-19T00:50:24Z</time>
      </trkpt>
      <trkpt lat="42.27597" lon="1.84877">
        <ele>1019.752</ele>
        <time>2019-04-19T00:50:40Z</time>
      </trkpt>
      <trkpt lat="42.27602" lon="1.84867">
        <ele>1022.97</ele>
        <time>2019-04-19T00:50:55Z</time>
      </trkpt>
      <trkpt lat="42.27606" lon="1.84862">
        <ele>1025.946</ele>
        <time>2019-04-19T00:51:07Z</time>
      </trkpt>
      <trkpt lat="42.27608" lon="1.84857">
        <ele>1028.739</ele>
        <time>2019-04-19T00:51:19Z</time>
      </trkpt>
      <trkpt lat="42.27612" lon="1.84848">
        <ele>1032.292</ele>
        <time>2019-04-19T00:51:33Z</time>
      </trkpt>
      <trkpt lat="42.27617" lon="1.84841">
        <ele>1035.525</ele>
        <time>2019-04-19T00:51:47Z</time>
      </trkpt>
      <trkpt lat="42.27623" lon="1.84834">
        <ele>1038.836</ele>
        <time>2019-04-19T00:52:03Z</time>
      </trkpt>
      <trkpt lat="42.2763" lon="1.8483">
        <ele>1042.217</ele>
        <time>2019-04-19T00:52:18Z</time>
      </trkpt>
      <trkpt lat="42.27634" lon="1.84828">
        <ele>1046.118</ele>
        <time>2019-04-19T00:52:34Z</time>
      </trkpt>
      <trkpt lat="42.27641" lon="1.84822">
        <ele>1049.508</ele>
        <time>2019-04-19T00:52:49Z</time>
      </trkpt>
      <trkpt lat="42.2765" lon="1.84818">
        <ele>1052.446</ele>
        <time>2019-04-19T00:53:03Z</time>
      </trkpt>
      <trkpt lat="42.2766" lon="1.8481">
        <ele>1055.698</ele>
        <time>2019-04-19T00:53:19Z</time>
      </trkpt>
      <trkpt lat="42.27666" lon="1.84807">
        <ele>1059.167</ele>
        <time>2019-04-19T00:53:33Z</time>
      </trkpt>
      <trkpt lat="42.27675" lon="1.84799">
        <ele>1062.085</ele>
        <time>2019-04-19T00:53:48Z</time>
      </trkpt>
      <trkpt lat="42.27685" lon="1.84792">
        <ele>1065.311</ele>
        <time>2019-04-19T00:54:04Z</time>
      </trkpt>
      <trkpt lat="42.27695" lon="1.84775">
        <ele>1067.244</ele>
        <time>2019-04-19T00:54:23Z</time>
      </trkpt>
      <trkpt lat="42.27695" lon="1.84758">
        <ele>1069.167</ele>
        <time>2019-04-19T00:54:37Z</time>
      </trkpt>
      <trkpt lat="42.27697" lon="1.84738">
        <ele>1069.73</ele>
        <time>2019-04-19T00:54:52Z</time>
      </trkpt>
      <trkpt lat="42.27698" lon="1.84724">
        <ele>1071.014</ele>
        <time>2019-04-19T00:55:07Z</time>
      </trkpt>
      <trkpt lat="42.27702" lon="1.84705">
        <ele>1073.454</ele>
        <time>2019-04-19T00:55:23Z</time>
      </trkpt>
      <trkpt lat="42.27709" lon="1.84681">
        <ele>1075.809</ele>
        <time>2019-04-19T00:55:43Z</time>
      </trkpt>
      <trkpt lat="42.27723" lon="1.84655">
        <ele>1077.708</ele>
        <time>2019-04-19T00:56:00Z</time>
      </trkpt>
      <trkpt lat="42.27741" lon="1.84643">
        <ele>1079.294</ele>
        <time>2019-04-19T00:56:16Z</time>
      </trkpt>
      <trkpt lat="42.27748" lon="1.84634">
        <ele>1082.566</ele>
        <time>2019-04-19T00:56:32Z</time>
      </trkpt>
      <trkpt lat="42.27755" lon="1.84621">
        <ele>1085.965</ele>
        <time>2019-04-19T00:56:47Z</time>
      </trkpt>
      <trkpt lat="42.27766" lon="1.84604">
        <ele>1088.393</ele>
        <time>2019-04-19T00:57:05Z</time>
      </trkpt>
      <trkpt lat="42.27774" lon="1.84591">
        <ele>1090.889</ele>
        <time>2019-04-19T00:57:23Z</time>
      </trkpt>
      <trkpt lat="42.27783" lon="1.84581">
        <ele>1094.172</ele>
        <time>2019-04-19T00:57:38Z</time>
      </trkpt>
      <trkpt lat="42.27791" lon="1.84565">
        <ele>1097.055</ele>
        <time>2019-04-19T00:57:56Z</time>
      </trkpt>
      <trkpt lat="42.27794" lon="1.84543">
        <ele>1100.338</ele>
        <time>2019-04-19T00:58:12Z</time>
      </trkpt>
      <trkpt lat="42.27797" lon="1.84527">
        <ele>1103.749</ele>
        <time>2019-04-19T00:58:28Z</time>
      </trkpt>
      <trkpt lat="42.27799" lon="1.84518">
        <ele>1106.602</ele>
        <time>2019-04-19T00:58:41Z</time>
      </trkpt>
      <trkpt lat="42.27802" lon="1.84505">
        <ele>1109.522</ele>
        <time>2019-04-19T00:58:55Z</time>
      </trkpt>
      <trkpt lat="42.27803" lon="1.84492">
        <ele>1111.008</ele>
        <time>2019-04-19T00:59:07Z</time>
      </trkpt>
      <trkpt lat="42.27809" lon="1.84474">
        <ele>1112.997</ele>
        <time>2019-04-19T00:59:21Z</time>
      </trkpt>
      <trkpt lat="42.27812" lon="1.84462">
        <ele>1116.239</ele>
        <time>2019-04-19T00:59:34Z</time>
      </trkpt>
      <trkpt lat="42.27815" lon="1.84451">
        <ele>1119.218</ele>
        <time>2019-04-19T00:59:48Z</time>
      </trkpt>
      <trkpt lat="42.27818" lon="1.84438">
        <ele>1122.466</ele>
        <time>2019-04-19T01:00:03Z</time>
      </trkpt>
      <trkpt lat="42.27826" lon="1.84428">
        <ele>1125.942</ele>
        <time>2019-04-19T01:00:17Z</time>
      </trkpt>
      <trkpt lat="42.27828" lon="1.84419">
        <ele>1128.745</ele>
        <time>2019-04-19T01:00:30Z</time>
      </trkpt>
      <trkpt lat="42.2783" lon="1.84411">
        <ele>1132.168</ele>
        <time>2019-04-19T01:00:44Z</time>
      </trkpt>
      <trkpt lat="42.2783" lon="1.84393">
        <ele>1134.931</ele>
        <time>2019-04-19T01:01:01Z</time>
      </trkpt>
      <trkpt lat="42.27831" lon="1.84382">
        <ele>1137.319</ele>
        <time>2019-04-19T01:01:19Z</time>
      </trkpt>
      <trkpt lat="42.2783" lon="1.84363">
        <ele>1139.309</ele>
        <time>2019-04-19T01:01:34Z</time>
      </trkpt>
      <trkpt lat="42.27835" lon="1.84345">
        <ele>1141.219</ele>
        <time>2019-04-19T01:01:48Z</time>
      </trkpt>
      <trkpt lat="42.27838" lon="1.84333">
        <ele>1144.608</ele>
        <time>2019-04-19T01:02:04Z</time>
      </trkpt>
      <trkpt lat="42.27842" lon="1.84321">
        <ele>1146.654</ele>
        <time>2019-04-19T01:02:19Z</time>
      </trkpt>
      <trkpt lat="42.27846" lon="1.84311">
        <ele>1149.836</ele>
        <time>2019-04-19T01:02:33Z</time>
      </trkpt>
      <trkpt lat="42.27852" lon="1.84294">
        <ele>1152.275</ele>
        <time>2019-04-19T01:02:47Z</time>
      </trkpt>
      <trkpt lat="42.2786" lon="1.84277">
        <ele>1155.253</ele>
        <time>2019-04-19T01:03:03Z</time>
      </trkpt>
      <trkpt lat="42.27862" lon="1.84262">
        <ele>1157.679</ele>
        <time>2019-04-19T01:03:16Z</time>
      </trkpt>
      <trkpt lat="42.2787" lon="1.84248">
        <ele>1160.052</ele>
        <time>2019-04-19T01:03:30Z</time>
      </trkpt>
      <trkpt lat="42.2788" lon="1.8423">
        <ele>1162.865</ele>
        <time>2019-04-19T01:03:47Z</time>
      </trkpt>
      <trkpt lat="42.27883" lon="1.84216">
        <ele>1165.258</ele>
        <time>2019-04-19T01:04:02Z</time>
      </trkpt>
      <trkpt lat="42.27888" lon="1.84204">
        <ele>1167.615</ele>
        <time>2019-04-19T01:04:16Z</time>
      </trkpt>
      <trkpt lat="42.27892" lon="1.84187">
        <ele>1170.065</ele>
        <time>2019-04-19T01:04:30Z</time>
      </trkpt>
      <trkpt lat="42.27894" lon="1.84169">
        <ele>1173.511</ele>
        <time>2019-04-19T01:04:45Z</time>
      </trkpt>
      <trkpt lat="42.27898" lon="1.84155">
        <ele>1176.708</ele>
        <time>2019-04-19T01:04:59Z</time>
      </trkpt>
      <trkpt lat="42.27899" lon="1.84137">
        <ele>1178.764</ele>
        <time>2019-04-19T01:05:13Z</time>
      </trkpt>
      <trkpt lat="42.27902" lon="1.84124">
        <ele>1181.256</ele>
        <time>2019-04-19T01:05:26Z</time>
      </trkpt>
      <trkpt lat="42.27906" lon="1.84109">
        <ele>1184.555</ele>
        <time>2019-04-19T01:05:43Z</time>
      </trkpt>
      <trkpt lat="42.2791" lon="1.841">
        <ele>1187.983</ele>
        <time>2019-04-19T01:05:54Z</time>
      </trkpt>
      <trkpt lat="42.27914" lon="1.84087">
        <ele>1191.289</ele>
        <time>2019-04-19T01:06:10Z</time>
      </trkpt>
      <trkpt lat="42.27917" lon="1.84073">
        <ele>1193.132</ele>
        <time>2019-04-19T01:06:24Z</time>
      </trkpt>
      <trkpt lat="42.27921" lon="1.84055">
        <ele>1194.655</ele>
        <time>2019-04-19T01:06:39Z</time>
      </trkpt>
      <trkpt lat="42.27926" lon="1.8404">
        <ele>1197.918</ele>
        <time>2019-04-19T01:06:53Z</time>
      </trkpt>
      <trkpt lat="42.27933" lon="1.84024">
        <ele>1200.892</ele>
        <time>2019-04-19T01:07:09Z</time>
      </trkpt>
      <trkpt lat="42.2794" lon="1.84011">
        <ele>1204.173</ele>
        <time>2019-04-19T01:07:26Z</time>
      </trkpt>
      <trkpt lat="42.27946" lon="1.84005">
        <ele>1207.62</ele>
        <time>2019-04-19T01:07:42Z</time>
      </trkpt>
      <trkpt lat="42.27954" lon="1.83994">
        <ele>1210.908</ele>
        <time>2019-04-19T01:07:58Z</time>
      </trkpt>
      <trkpt lat="42.27963" lon="1.83982">
        <ele>1214.282</ele>
        <time>2019-04-19T01:08:14Z</time>
      </trkpt>
      <trkpt lat="42.27964" lon="1.83967">
        <ele>1217.634</ele>
        <time>2019-04-19T01:08:28Z</time>
      </trkpt>
      <trkpt lat="42.27966" lon="1.83957">
        <ele>1220.533</ele>
        <time>2019-04-19T01:08:43Z</time>
      </trkpt>
      <trkpt lat="42.27969" lon="1.83943">
        <ele>1224.081</ele>
        <time>2019-04-19T01:09:02Z</time>
      </trkpt>
      <trkpt lat="42.27977" lon="1.83931">
        <ele>1227.227</ele>
        <time>2019-04-19T01:09:20Z</time>
      </trkpt>
      <trkpt lat="42.27981" lon="1.83919">
        <ele>1230.76</ele>
        <time>2019-04-19T01:09:34Z</time>
      </trkpt>
      <trkpt lat="42.27986" lon="1.83912">
        <ele>1233.613</ele>
        <time>2019-04-19T01:09:47Z</time>
      </trkpt>
      <trkpt lat="42.27989" lon="1.83895">
        <ele>1236.336</ele>
        <time>2019-04-19T01:10:03Z</time>
      </trkpt>
      <trkpt lat="42.27991" lon="1.83888">
        <ele>1239.765</ele>
        <time>2019-04-19T01:10:17Z</time>
      </trkpt>
      <trkpt lat="42.27996" lon="1.83876">
        <ele>1242.668</ele>
        <time>2019-04-19T01:10:29Z</time>
      </trkpt>
      <trkpt lat="42.28001" lon="1.83861">
        <ele>1245.114</ele>
        <time>2019-04-19T01:10:45Z</time>
      </trkpt>
      <trkpt lat="42.28001" lon="1.83853">
        <ele>1248.508</ele>
        <time>2019-04-19T01:10:57Z</time>
      </trkpt>
      <trkpt lat="42.28003" lon="1.83845">
        <ele>1251.849</ele>
        <time>2019-04-19T01:11:11Z</time>
      </trkpt>
      <trkpt lat="42.28007" lon="1.83836">
        <ele>1254.721</ele>
        <time>2019-04-19T01:11:26Z</time>
      </trkpt>
      <trkpt lat="42.28012" lon="1.83824">
        <ele>1258.07</ele>
        <time>2019-04-19T01:11:43Z</time>
      </trkpt>
      <trkpt lat="42.28016" lon="1.83813">
        <ele>1261.388</ele>
        <time>2019-04-19T01:11:59Z</time>
      </trkpt>
      <trkpt lat="42.28022" lon="1.83803">
        <ele>1264.784</ele>
        <time>2019-04-19T01:12:14Z</time>
      </trkpt>
      <trkpt lat="42.28026" lon="1.83793">
        <ele>1268.277</ele>
        <time>2019-04-19T01:12:27Z</time>
      </trkpt>
      <trkpt lat="42.2803" lon="1.83784">
        <ele>1271.55</ele>
        <time>2019-04-19T01:12:42Z</time>
      </trkpt>
      <trkpt lat="42.28037" lon="1.83771">
        <ele>1274.883</ele>
        <time>2019-04-19T01:13:00Z</time>
      </trkpt>
      <trkpt lat="42.28043" lon="1.83756">
        <ele>1277.744</ele>
        <time>2019-04-19T01:13:17Z</time>
      </trkpt>
      <trkpt lat="42.28046" lon="1.83742">
        <ele>1280.605</ele>
        <time>2019-04-19T01:13:34Z</time>
      </trkpt>
      <trkpt lat="42.2805" lon="1.83737">
        <ele>1283.915</ele>
        <time>2019-04-19T01:13:47Z</time>
      </trkpt>
      <trkpt lat="42.28053" lon="1.83725">
        <ele>1287.308</ele>
        <time>2019-04-19T01:14:01Z</time>
      </trkpt>
      <trkpt lat="42.28055" lon="1.83715">
        <ele>1290.247</ele>
        <time>2019-04-19T01:14:20Z</time>
      </trkpt>
      <trkpt lat="42.28059" lon="1.83708">
        <ele>1293.599</ele>
        <time>2019-04-19T01:14:32Z</time>
      </trkpt>
      <trkpt lat="42.28061" lon="1.83697">
        <ele>1297.068</ele>
        <time>2019-04-19T01:14:47Z</time>
      </trkpt>
      <trkpt lat="42.28065" lon="1.8369">
        <ele>1299.336</ele>
        <time>2019-04-19T01:14:59Z</time>
      </trkpt>
      <trkpt lat="42.28065" lon="1.83678">
        <ele>1302.822</ele>
        <time>2019-04-19T01:15:13Z</time>
      </trkpt>
      <trkpt lat="42.28066" lon="1.8367">
        <ele>1305.775</ele>
        <time>2019-04-19T01:15:24Z</time>
      </trkpt>
      <trkpt lat="42.2807" lon="1.83662">
        <ele>1308.458</ele>
        <time>2019-04-19T01:15:40Z</time>
      </trkpt>
      <trkpt lat="42.28076" lon="1.83657">
        <ele>1311.871</ele>
        <time>2019-04-19T01:15:52Z</time>
      </trkpt>
      <trkpt lat="42.28077" lon="1.83653">
        <ele>1312.863</ele>
        <time>2019-04-19T01:16:10Z</time>
      </trkpt>
      <trkpt lat="42.28083" lon="1.83646">
        <ele>1315.244</ele>
        <time>2019-04-19T01:16:26Z</time>
      </trkpt>
      <trkpt lat="42.28083" lon="1.83632">
        <ele>1318.618</ele>
        <time>2019-04-19T01:16:41Z</time>
      </trkpt>
      <trkpt lat="42.28089" lon="1.83619">
        <ele>1322.008</ele>
        <time>2019-04-19T01:16:55Z</time>
      </trkpt>
      <trkpt lat="42.28088" lon="1.83607">
        <ele>1324.869</ele>
        <time>2019-04-19T01:17:10Z</time>
      </trkpt>
      <trkpt lat="42.28089" lon="1.83591">
        <ele>1327.271</ele>
        <time>2019-04-19T01:17:26Z</time>
      </trkpt>
      <trkpt lat="42.28088" lon="1.83577">
        <ele>1330.65</ele>
        <time>2019-04-19T01:17:42Z</time>
      </trkpt>
      <trkpt lat="42.28087" lon="1.83569">
        <ele>1333.438</ele>
        <time>2019-04-19T01:17:57Z</time>
      </trkpt>
      <trkpt lat="42.28083" lon="1.83561">
        <ele>1336.824</ele>
        <time>2019-04-19T01:18:12Z</time>
      </trkpt>
      <trkpt lat="42.2808" lon="1.8355">
        <ele>1340.257</ele>
        <time>2019-04-19T01:18:27Z</time>
      </trkpt>
      <trkpt lat="42.2808" lon="1.83541">
        <ele>1343.59</ele>
        <time>2019-04-19T01:18:42Z</time>
      </trkpt>
      <trkpt lat="42.28085" lon="1.83549">
        <ele>1344.643</ele>
        <time>2019-04-19T01:19:10Z</time>
      </trkpt>
      <trkpt lat="42.2808" lon="1.83536">
        <ele>1346.499</ele>
        <time>2019-04-19T01:19:27Z</time>
      </trkpt>
      <trkpt lat="42.2809" lon="1.83528">
        <ele>1349.807</ele>
        <time>2019-04-19T01:19:41Z</time>
      </trkpt>
      <trkpt lat="42.28096" lon="1.83523">
        <ele>1352.727</ele>
        <time>2019-04-19T01:19:53Z</time>
      </trkpt>
      <trkpt lat="42.28102" lon="1.83517">
        <ele>1355.608</ele>
        <time>2019-04-19T01:20:15Z</time>
      </trkpt>
      <trkpt lat="42.28114" lon="1.83516">
        <ele>1359.092</ele>
        <time>2019-04-19T01:20:32Z</time>
      </trkpt>
      <trkpt lat="42.28124" lon="1.83507">
        <ele>1362.464</ele>
        <time>2019-04-19T01:20:48Z</time>
      </trkpt>
      <trkpt lat="42.28138" lon="1.83499">
        <ele>1365.653</ele>
        <time>2019-04-19T01:21:05Z</time>
      </trkpt>
      <trkpt lat="42.28145" lon="1.83486">
        <ele>1368.661</ele>
        <time>2019-04-19T01:21:22Z</time>
      </trkpt>
      <trkpt lat="42.2815" lon="1.83475">
        <ele>1372.037</ele>
        <time>2019-04-19T01:21:39Z</time>
      </trkpt>
      <trkpt lat="42.28157" lon="1.83466">
        <ele>1375.71</ele>
        <time>2019-04-19T01:21:54Z</time>
      </trkpt>
      <trkpt lat="42.28162" lon="1.83459">
        <ele>1379.243</ele>
        <time>2019-04-19T01:22:09Z</time>
      </trkpt>
      <trkpt lat="42.2817" lon="1.83457">
        <ele>1382.656</ele>
        <time>2019-04-19T01:22:26Z</time>
      </trkpt>
      <trkpt lat="42.28181" lon="1.83457">
        <ele>1385.488</ele>
        <time>2019-04-19T01:22:43Z</time>
      </trkpt>
      <trkpt lat="42.28184" lon="1.83458">
        <ele>1386.824</ele>
        <time>2019-04-19T01:23:04Z</time>
      </trkpt>
      <trkpt lat="42.28196" lon="1.83459">
        <ele>1389.326</ele>
        <time>2019-04-19T01:23:20Z</time>
      </trkpt>
      <trkpt lat="42.28206" lon="1.83467">
        <ele>1392.608</ele>
        <time>2019-04-19T01:23:37Z</time>
      </trkpt>
      <trkpt lat="42.28207" lon="1.83484">
        <ele>1393.621</ele>
        <time>2019-04-19T01:23:54Z</time>
      </trkpt>
      <trkpt lat="42.28209" lon="1.83483">
        <ele>1394.533</ele>
        <time>2019-04-19T01:24:15Z</time>
      </trkpt>
      <trkpt lat="42.28208" lon="1.83487">
        <ele>1394.682</ele>
        <time>2019-04-19T01:24:50Z</time>
      </trkpt>
      <trkpt lat="42.28218" lon="1.83485">
        <ele>1396.94</ele>
        <time>2019-04-19T01:25:13Z</time>
      </trkpt>
      <trkpt lat="42.28226" lon="1.83483">
        <ele>1400.476</ele>
        <time>2019-04-19T01:25:29Z</time>
      </trkpt>
      <trkpt lat="42.28235" lon="1.83478">
        <ele>1403.789</ele>
        <time>2019-04-19T01:25:48Z</time>
      </trkpt>
      <trkpt lat="42.28244" lon="1.83477">
        <ele>1407.162</ele>
        <time>2019-04-19T01:26:04Z</time>
      </trkpt>
      <trkpt lat="42.28255" lon="1.8346">
        <ele>1409.045</ele>
        <time>2019-04-19T01:26:20Z</time>
      </trkpt>
      <trkpt lat="42.28265" lon="1.83456">
        <ele>1411.899</ele>
        <time>2019-04-19T01:26:36Z</time>
      </trkpt>
      <trkpt lat="42.28271" lon="1.83449">
        <ele>1413.707</ele>
        <time>2019-04-19T01:26:55Z</time>
      </trkpt>
      <trkpt lat="42.28276" lon="1.83443">
        <ele>1417.727</ele>
        <time>2019-04-19T01:27:10Z</time>
      </trkpt>
      <trkpt lat="42.28281" lon="1.83431">
        <ele>1419.608</ele>
        <time>2019-04-19T01:27:26Z</time>
      </trkpt>
      <trkpt lat="42.28284" lon="1.8342">
        <ele>1422.032</ele>
        <time>2019-04-19T01:27:40Z</time>
      </trkpt>
      <trkpt lat="42.28286" lon="1.83411">
        <ele>1423.414</ele>
        <time>2019-04-19T01:27:54Z</time>
      </trkpt>
      <trkpt lat="42.28288" lon="1.83401">
        <ele>1426.213</ele>
        <time>2019-04-19T01:28:11Z</time>
      </trkpt>
      <trkpt lat="42.28292" lon="1.8339">
        <ele>1428.291</ele>
        <time>2019-04-19T01:28:27Z</time>
      </trkpt>
      <trkpt lat="42.28297" lon="1.83378">
        <ele>1431.087</ele>
        <time>2019-04-19T01:28:44Z</time>
      </trkpt>
      <trkpt lat="42.28297" lon="1.83381">
        <ele>1431.63</ele>
        <time>2019-04-19T01:29:04Z</time>
      </trkpt>
      <trkpt lat="42.28302" lon="1.83375">
        <ele>1435.813</ele>
        <time>2019-04-19T01:29:24Z</time>
      </trkpt>
      <trkpt lat="42.28304" lon="1.83374">
        <ele>1434.536</ele>
        <time>2019-04-19T01:29:26Z</time>
      </trkpt>
      <trkpt lat="42.28307" lon="1.8337">
        <ele>1435.857</ele>
        <time>2019-04-19T01:29:36Z</time>
      </trkpt>
      <trkpt lat="42.28308" lon="1.83368">
        <ele>1437.3</ele>
        <time>2019-04-19T01:29:39Z</time>
      </trkpt>
      <trkpt lat="42.28306" lon="1.83358">
        <ele>1440.62</ele>
        <time>2019-04-19T01:29:53Z</time>
      </trkpt>
      <trkpt lat="42.28309" lon="1.83352">
        <ele>1443.608</ele>
        <time>2019-04-19T01:30:06Z</time>
      </trkpt>
      <trkpt lat="42.28312" lon="1.83344">
        <ele>1447.018</ele>
        <time>2019-04-19T01:30:20Z</time>
      </trkpt>
      <trkpt lat="42.28311" lon="1.83335">
        <ele>1450.29</ele>
        <time>2019-04-19T01:30:33Z</time>
      </trkpt>
      <trkpt lat="42.28312" lon="1.83325">
        <ele>1452.249</ele>
        <time>2019-04-19T01:30:49Z</time>
      </trkpt>
      <trkpt lat="42.28309" lon="1.83336">
        <ele>1452.267</ele>
        <time>2019-04-19T01:31:11Z</time>
      </trkpt>
      <trkpt lat="42.28314" lon="1.83335">
        <ele>1452.243</ele>
        <time>2019-04-19T01:31:31Z</time>
      </trkpt>
      <trkpt lat="42.28317" lon="1.83331">
        <ele>1452.256</ele>
        <time>2019-04-19T01:31:56Z</time>
      </trkpt>
      <trkpt lat="42.28326" lon="1.83337">
        <ele>1452.799</ele>
        <time>2019-04-19T01:32:14Z</time>
      </trkpt>
      <trkpt lat="42.28327" lon="1.83354">
        <ele>1453.782</ele>
        <time>2019-04-19T01:32:30Z</time>
      </trkpt>
      <trkpt lat="42.28333" lon="1.83366">
        <ele>1455.533</ele>
        <time>2019-04-19T01:32:44Z</time>
      </trkpt>
      <trkpt lat="42.28339" lon="1.83385">
        <ele>1457.923</ele>
        <time>2019-04-19T01:33:00Z</time>
      </trkpt>
      <trkpt lat="42.28343" lon="1.834">
        <ele>1459.415</ele>
        <time>2019-04-19T01:33:14Z</time>
      </trkpt>
      <trkpt lat="42.28347" lon="1.83421">
        <ele>1460.908</ele>
        <time>2019-04-19T01:33:29Z</time>
      </trkpt>
      <trkpt lat="42.28351" lon="1.83449">
        <ele>1462.776</ele>
        <time>2019-04-19T01:33:47Z</time>
      </trkpt>
      <trkpt lat="42.28352" lon="1.83476">
        <ele>1465.768</ele>
        <time>2019-04-19T01:34:04Z</time>
      </trkpt>
      <trkpt lat="42.28357" lon="1.83494">
        <ele>1468.677</ele>
        <time>2019-04-19T01:34:21Z</time>
      </trkpt>
      <trkpt lat="42.28356" lon="1.83517">
        <ele>1471.075</ele>
        <time>2019-04-19T01:34:37Z</time>
      </trkpt>
      <trkpt lat="42.2835" lon="1.83532">
        <ele>1471.461</ele>
        <time>2019-04-19T01:34:52Z</time>
      </trkpt>
      <trkpt lat="42.28344" lon="1.83541">
        <ele>1470.054</ele>
        <time>2019-04-19T01:35:01Z</time>
      </trkpt>
      <trkpt lat="42.28335" lon="1.8355">
        <ele>1469.547</ele>
        <time>2019-04-19T01:35:15Z</time>
      </trkpt>
      <trkpt lat="42.28333" lon="1.83555">
        <ele>1469.59</ele>
        <time>2019-04-19T01:35:30Z</time>
      </trkpt>
      <trkpt lat="42.28335" lon="1.83562">
        <ele>1467.583</ele>
        <time>2019-04-19T01:35:54Z</time>
      </trkpt>
      <trkpt lat="42.28337" lon="1.83568">
        <ele>1466.625</ele>
        <time>2019-04-19T01:36:07Z</time>
      </trkpt>
      <trkpt lat="42.28339" lon="1.83567">
        <ele>1466.717</ele>
        <time>2019-04-19T01:36:29Z</time>
      </trkpt>
      <trkpt lat="42.28338" lon="1.8356">
        <ele>1465.208</ele>
        <time>2019-04-19T01:36:44Z</time>
      </trkpt>
      <trkpt lat="42.28343" lon="1.8356">
        <ele>1462.331</ele>
        <time>2019-04-19T01:36:57Z</time>
      </trkpt>
      <trkpt lat="42.28346" lon="1.83561">
        <ele>1459.453</ele>
        <time>2019-04-19T01:37:06Z</time>
      </trkpt>
      <trkpt lat="42.28351" lon="1.83562">
        <ele>1456.192</ele>
        <time>2019-04-19T01:37:17Z</time>
      </trkpt>
      <trkpt lat="42.28355" lon="1.83561">
        <ele>1452.74</ele>
        <time>2019-04-19T01:37:30Z</time>
      </trkpt>
      <trkpt lat="42.28358" lon="1.83561">
        <ele>1450.776</ele>
        <time>2019-04-19T01:37:38Z</time>
      </trkpt>
      <trkpt lat="42.28379" lon="1.83568">
        <ele>1448.959</ele>
        <time>2019-04-19T01:37:53Z</time>
      </trkpt>
      <trkpt lat="42.28374" lon="1.83577">
        <ele>1446.552</ele>
        <time>2019-04-19T01:38:12Z</time>
      </trkpt>
      <trkpt lat="42.28368" lon="1.8358">
        <ele>1445.075</ele>
        <time>2019-04-19T01:38:17Z</time>
      </trkpt>
      <trkpt lat="42.28366" lon="1.83585">
        <ele>1442.195</ele>
        <time>2019-04-19T01:38:26Z</time>
      </trkpt>
      <trkpt lat="42.28375" lon="1.83583">
        <ele>1438.749</ele>
        <time>2019-04-19T01:38:35Z</time>
      </trkpt>
      <trkpt lat="42.28387" lon="1.8358">
        <ele>1435.923</ele>
        <time>2019-04-19T01:38:46Z</time>
      </trkpt>
      <trkpt lat="42.28393" lon="1.83583">
        <ele>1432.108</ele>
        <time>2019-04-19T01:39:01Z</time>
      </trkpt>
      <trkpt lat="42.28403" lon="1.83585">
        <ele>1428.152</ele>
        <time>2019-04-19T01:39:14Z</time>
      </trkpt>
      <trkpt lat="42.28409" lon="1.83582">
        <ele>1426.354</ele>
        <time>2019-04-19T01:39:28Z</time>
      </trkpt>
      <trkpt lat="42.28411" lon="1.83582">
        <ele>1422.963</ele>
        <time>2019-04-19T01:39:37Z</time>
      </trkpt>
      <trkpt lat="42.28416" lon="1.83585">
        <ele>1421.571</ele>
        <time>2019-04-19T01:39:42Z</time>
      </trkpt>
      <trkpt lat="42.28425" lon="1.83589">
        <ele>1419.077</ele>
        <time>2019-04-19T01:39:53Z</time>
      </trkpt>
      <trkpt lat="42.2843" lon="1.83587">
        <ele>1416.24</ele>
        <time>2019-04-19T01:40:03Z</time>
      </trkpt>
      <trkpt lat="42.2844" lon="1.83585">
        <ele>1412.873</ele>
        <time>2019-04-19T01:40:14Z</time>
      </trkpt>
      <trkpt lat="42.28442" lon="1.83578">
        <ele>1409.556</ele>
        <time>2019-04-19T01:40:27Z</time>
      </trkpt>
      <trkpt lat="42.28447" lon="1.83578">
        <ele>1406.077</ele>
        <time>2019-04-19T01:40:37Z</time>
      </trkpt>
      <trkpt lat="42.28454" lon="1.83574">
        <ele>1403.161</ele>
        <time>2019-04-19T01:40:46Z</time>
      </trkpt>
      <trkpt lat="42.28458" lon="1.83573">
        <ele>1399.827</ele>
        <time>2019-04-19T01:40:57Z</time>
      </trkpt>
      <trkpt lat="42.28457" lon="1.83579">
        <ele>1396.508</ele>
        <time>2019-04-19T01:41:07Z</time>
      </trkpt>
      <trkpt lat="42.28453" lon="1.83592">
        <ele>1393.18</ele>
        <time>2019-04-19T01:41:17Z</time>
      </trkpt>
      <trkpt lat="42.28455" lon="1.83611">
        <ele>1390.362</ele>
        <time>2019-04-19T01:41:25Z</time>
      </trkpt>
      <trkpt lat="42.28455" lon="1.83622">
        <ele>1386.961</ele>
        <time>2019-04-19T01:41:33Z</time>
      </trkpt>
      <trkpt lat="42.28464" lon="1.8362">
        <ele>1385.049</ele>
        <time>2019-04-19T01:41:47Z</time>
      </trkpt>
      <trkpt lat="42.28474" lon="1.83613">
        <ele>1382.095</ele>
        <time>2019-04-19T01:41:59Z</time>
      </trkpt>
      <trkpt lat="42.28482" lon="1.83608">
        <ele>1377.758</ele>
        <time>2019-04-19T01:42:11Z</time>
      </trkpt>
      <trkpt lat="42.28484" lon="1.8361">
        <ele>1376.781</ele>
        <time>2019-04-19T01:42:15Z</time>
      </trkpt>
      <trkpt lat="42.28482" lon="1.83617">
        <ele>1373.844</ele>
        <time>2019-04-19T01:42:24Z</time>
      </trkpt>
      <trkpt lat="42.28479" lon="1.83625">
        <ele>1370.962</ele>
        <time>2019-04-19T01:42:34Z</time>
      </trkpt>
      <trkpt lat="42.28483" lon="1.83638">
        <ele>1367.683</ele>
        <time>2019-04-19T01:42:44Z</time>
      </trkpt>
      <trkpt lat="42.28485" lon="1.83644">
        <ele>1365.211</ele>
        <time>2019-04-19T01:42:49Z</time>
      </trkpt>
      <trkpt lat="42.28494" lon="1.83657">
        <ele>1361.908</ele>
        <time>2019-04-19T01:43:04Z</time>
      </trkpt>
      <trkpt lat="42.28499" lon="1.83656">
        <ele>1359.089</ele>
        <time>2019-04-19T01:43:18Z</time>
      </trkpt>
      <trkpt lat="42.28508" lon="1.83653">
        <ele>1356.511</ele>
        <time>2019-04-19T01:43:29Z</time>
      </trkpt>
      <trkpt lat="42.28509" lon="1.83651">
        <ele>1355.74</ele>
        <time>2019-04-19T01:43:32Z</time>
      </trkpt>
      <trkpt lat="42.28511" lon="1.83651">
        <ele>1354.748</ele>
        <time>2019-04-19T01:43:33Z</time>
      </trkpt>
      <trkpt lat="42.28515" lon="1.8365">
        <ele>1350.734</ele>
        <time>2019-04-19T01:43:42Z</time>
      </trkpt>
      <trkpt lat="42.28524" lon="1.83654">
        <ele>1350.877</ele>
        <time>2019-04-19T01:43:56Z</time>
      </trkpt>
      <trkpt lat="42.28524" lon="1.83659">
        <ele>1352.23</ele>
        <time>2019-04-19T01:44:01Z</time>
      </trkpt>
      <trkpt lat="42.28522" lon="1.83661">
        <ele>1352.383</ele>
        <time>2019-04-19T01:44:04Z</time>
      </trkpt>
      <trkpt lat="42.28524" lon="1.83666">
        <ele>1352.277</ele>
        <time>2019-04-19T01:44:16Z</time>
      </trkpt>
      <trkpt lat="42.28529" lon="1.83666">
        <ele>1352.261</ele>
        <time>2019-04-19T01:44:27Z</time>
      </trkpt>
      <trkpt lat="42.28535" lon="1.83663">
        <ele>1351.227</ele>
        <time>2019-04-19T01:44:36Z</time>
      </trkpt>
      <trkpt lat="42.28534" lon="1.83668">
        <ele>1350.408</ele>
        <time>2019-04-19T01:44:41Z</time>
      </trkpt>
      <trkpt lat="42.28529" lon="1.83671">
        <ele>1348.88</ele>
        <time>2019-04-19T01:44:46Z</time>
      </trkpt>
      <trkpt lat="42.28522" lon="1.83681">
        <ele>1346.422</ele>
        <time>2019-04-19T01:45:00Z</time>
      </trkpt>
      <trkpt lat="42.28516" lon="1.83682">
        <ele>1345.931</ele>
        <time>2019-04-19T01:45:14Z</time>
      </trkpt>
      <trkpt lat="42.28522" lon="1.83681">
        <ele>1346.099</ele>
        <time>2019-04-19T01:45:24Z</time>
      </trkpt>
      <trkpt lat="42.28524" lon="1.83683">
        <ele>1345.915</ele>
        <time>2019-04-19T01:45:27Z</time>
      </trkpt>
      <trkpt lat="42.2852" lon="1.83693">
        <ele>1342.668</ele>
        <time>2019-04-19T01:45:40Z</time>
      </trkpt>
      <trkpt lat="42.2852" lon="1.83694">
        <ele>1342.781</ele>
        <time>2019-04-19T01:45:41Z</time>
      </trkpt>
      <trkpt lat="42.28518" lon="1.83704">
        <ele>1340.794</ele>
        <time>2019-04-19T01:45:48Z</time>
      </trkpt>
      <trkpt lat="42.28515" lon="1.83712">
        <ele>1339.217</ele>
        <time>2019-04-19T01:45:54Z</time>
      </trkpt>
      <trkpt lat="42.28511" lon="1.83719">
        <ele>1335.887</ele>
        <time>2019-04-19T01:46:01Z</time>
      </trkpt>
      <trkpt lat="42.28509" lon="1.83726">
        <ele>1334.415</ele>
        <time>2019-04-19T01:46:05Z</time>
      </trkpt>
      <trkpt lat="42.28504" lon="1.83738">
        <ele>1331.008</ele>
        <time>2019-04-19T01:46:13Z</time>
      </trkpt>
      <trkpt lat="42.28502" lon="1.83751">
        <ele>1327.854</ele>
        <time>2019-04-19T01:46:21Z</time>
      </trkpt>
      <trkpt lat="42.285" lon="1.83759">
        <ele>1326.386</ele>
        <time>2019-04-19T01:46:25Z</time>
      </trkpt>
      <trkpt lat="42.28499" lon="1.8376">
        <ele>1326.235</ele>
        <time>2019-04-19T01:46:26Z</time>
      </trkpt>
      <trkpt lat="42.28496" lon="1.83768">
        <ele>1323.343</ele>
        <time>2019-04-19T01:46:34Z</time>
      </trkpt>
      <trkpt lat="42.28491" lon="1.83778">
        <ele>1320.099</ele>
        <time>2019-04-19T01:46:46Z</time>
      </trkpt>
      <trkpt lat="42.28484" lon="1.83783">
        <ele>1317.222</ele>
        <time>2019-04-19T01:46:53Z</time>
      </trkpt>
      <trkpt lat="42.28482" lon="1.83786">
        <ele>1315.255</ele>
        <time>2019-04-19T01:46:56Z</time>
      </trkpt>
      <trkpt lat="42.28478" lon="1.83792">
        <ele>1312.448</ele>
        <time>2019-04-19T01:47:05Z</time>
      </trkpt>
      <trkpt lat="42.28475" lon="1.83798">
        <ele>1308.964</ele>
        <time>2019-04-19T01:47:13Z</time>
      </trkpt>
      <trkpt lat="42.28474" lon="1.83805">
        <ele>1305.106</ele>
        <time>2019-04-19T01:47:22Z</time>
      </trkpt>
      <trkpt lat="42.2847" lon="1.83808">
        <ele>1302.216</ele>
        <time>2019-04-19T01:47:34Z</time>
      </trkpt>
      <trkpt lat="42.28466" lon="1.83813">
        <ele>1299.808</ele>
        <time>2019-04-19T01:47:48Z</time>
      </trkpt>
      <trkpt lat="42.28459" lon="1.83818">
        <ele>1296.599</ele>
        <time>2019-04-19T01:47:57Z</time>
      </trkpt>
      <trkpt lat="42.28453" lon="1.83824">
        <ele>1293.551</ele>
        <time>2019-04-19T01:48:07Z</time>
      </trkpt>
      <trkpt lat="42.28449" lon="1.83833">
        <ele>1290.32</ele>
        <time>2019-04-19T01:48:14Z</time>
      </trkpt>
      <trkpt lat="42.28441" lon="1.83845">
        <ele>1287.428</ele>
        <time>2019-04-19T01:48:28Z</time>
      </trkpt>
      <trkpt lat="42.28432" lon="1.83845">
        <ele>1284.984</ele>
        <time>2019-04-19T01:48:45Z</time>
      </trkpt>
      <trkpt lat="42.28432" lon="1.83859">
        <ele>1281.667</ele>
        <time>2019-04-19T01:48:59Z</time>
      </trkpt>
      <trkpt lat="42.28431" lon="1.83868">
        <ele>1278.79</ele>
        <time>2019-04-19T01:49:06Z</time>
      </trkpt>
      <trkpt lat="42.28431" lon="1.8388">
        <ele>1275.373</ele>
        <time>2019-04-19T01:49:17Z</time>
      </trkpt>
      <trkpt lat="42.28434" lon="1.83886">
        <ele>1272.996</ele>
        <time>2019-04-19T01:49:33Z</time>
      </trkpt>
      <trkpt lat="42.28435" lon="1.83898">
        <ele>1269.031</ele>
        <time>2019-04-19T01:49:43Z</time>
      </trkpt>
      <trkpt lat="42.28435" lon="1.83899">
        <ele>1269.024</ele>
        <time>2019-04-19T01:49:44Z</time>
      </trkpt>
      <trkpt lat="42.28434" lon="1.83903">
        <ele>1267.608</ele>
        <time>2019-04-19T01:49:47Z</time>
      </trkpt>
      <trkpt lat="42.28431" lon="1.83909">
        <ele>1264.262</ele>
        <time>2019-04-19T01:49:53Z</time>
      </trkpt>
      <trkpt lat="42.28443" lon="1.83911">
        <ele>1262.394</ele>
        <time>2019-04-19T01:50:09Z</time>
      </trkpt>
      <trkpt lat="42.28444" lon="1.83921">
        <ele>1259.083</ele>
        <time>2019-04-19T01:50:23Z</time>
      </trkpt>
      <trkpt lat="42.2844" lon="1.83931">
        <ele>1255.751</ele>
        <time>2019-04-19T01:50:34Z</time>
      </trkpt>
      <trkpt lat="42.28439" lon="1.83937">
        <ele>1252.357</ele>
        <time>2019-04-19T01:50:40Z</time>
      </trkpt>
      <trkpt lat="42.28439" lon="1.83938">
        <ele>1252.35</ele>
        <time>2019-04-19T01:50:41Z</time>
      </trkpt>
      <trkpt lat="42.28437" lon="1.83941">
        <ele>1250.993</ele>
        <time>2019-04-19T01:50:44Z</time>
      </trkpt>
      <trkpt lat="42.28437" lon="1.83952">
        <ele>1246.986</ele>
        <time>2019-04-19T01:50:53Z</time>
      </trkpt>
      <trkpt lat="42.28434" lon="1.83959">
        <ele>1244.066</ele>
        <time>2019-04-19T01:51:02Z</time>
      </trkpt>
      <trkpt lat="42.28429" lon="1.83967">
        <ele>1240.729</ele>
        <time>2019-04-19T01:51:11Z</time>
      </trkpt>
      <trkpt lat="42.2842" lon="1.83981">
        <ele>1237.421</ele>
        <time>2019-04-19T01:51:24Z</time>
      </trkpt>
      <trkpt lat="42.28419" lon="1.83991">
        <ele>1234.008</ele>
        <time>2019-04-19T01:51:35Z</time>
      </trkpt>
      <trkpt lat="42.28418" lon="1.83993">
        <ele>1232.689</ele>
        <time>2019-04-19T01:51:54Z</time>
      </trkpt>
      <trkpt lat="42.2842" lon="1.83985">
        <ele>1232.191</ele>
        <time>2019-04-19T01:52:20Z</time>
      </trkpt>
      <trkpt lat="42.28419" lon="1.83992">
        <ele>1231.67</ele>
        <time>2019-04-19T01:52:47Z</time>
      </trkpt>
      <trkpt lat="42.28414" lon="1.84004">
        <ele>1228.318</ele>
        <time>2019-04-19T01:53:00Z</time>
      </trkpt>
      <trkpt lat="42.28409" lon="1.84016">
        <ele>1224.974</ele>
        <time>2019-04-19T01:53:08Z</time>
      </trkpt>
      <trkpt lat="42.28403" lon="1.84029">
        <ele>1221.417</ele>
        <time>2019-04-19T01:53:18Z</time>
      </trkpt>
      <trkpt lat="42.28396" lon="1.84042">
        <ele>1217.67</ele>
        <time>2019-04-19T01:53:29Z</time>
      </trkpt>
      <trkpt lat="42.28388" lon="1.84049">
        <ele>1214.333</ele>
        <time>2019-04-19T01:53:40Z</time>
      </trkpt>
      <trkpt lat="42.28383" lon="1.84054">
        <ele>1210.992</ele>
        <time>2019-04-19T01:53:51Z</time>
      </trkpt>
      <trkpt lat="42.28381" lon="1.84053">
        <ele>1208.573</ele>
        <time>2019-04-19T01:53:57Z</time>
      </trkpt>
      <trkpt lat="42.28376" lon="1.84056">
        <ele>1204.62</ele>
        <time>2019-04-19T01:54:05Z</time>
      </trkpt>
      <trkpt lat="42.28368" lon="1.84062">
        <ele>1201.808</ele>
        <time>2019-04-19T01:54:14Z</time>
      </trkpt>
      <trkpt lat="42.28366" lon="1.84064">
        <ele>1200.972</ele>
        <time>2019-04-19T01:54:16Z</time>
      </trkpt>
      <trkpt lat="42.28365" lon="1.84065">
        <ele>1200.314</ele>
        <time>2019-04-19T01:54:17Z</time>
      </trkpt>
      <trkpt lat="42.28356" lon="1.84078">
        <ele>1197.093</ele>
        <time>2019-04-19T01:54:27Z</time>
      </trkpt>
      <trkpt lat="42.28354" lon="1.84082">
        <ele>1195.621</ele>
        <time>2019-04-19T01:54:30Z</time>
      </trkpt>
      <trkpt lat="42.28352" lon="1.84088">
        <ele>1194.117</ele>
        <time>2019-04-19T01:54:36Z</time>
      </trkpt>
      <trkpt lat="42.28352" lon="1.84089">
        <ele>1193.62</ele>
        <time>2019-04-19T01:54:37Z</time>
      </trkpt>
      <trkpt lat="42.28349" lon="1.84094">
        <ele>1192.193</ele>
        <time>2019-04-19T01:54:42Z</time>
      </trkpt>
      <trkpt lat="42.28349" lon="1.84095">
        <ele>1191.386</ele>
        <time>2019-04-19T01:54:43Z</time>
      </trkpt>
      <trkpt lat="42.28348" lon="1.84101">
        <ele>1188.846</ele>
        <time>2019-04-19T01:54:49Z</time>
      </trkpt>
      <trkpt lat="42.28344" lon="1.84109">
        <ele>1187.388</ele>
        <time>2019-04-19T01:54:56Z</time>
      </trkpt>
      <trkpt lat="42.28342" lon="1.84118">
        <ele>1184.416</ele>
        <time>2019-04-19T01:55:05Z</time>
      </trkpt>
      <trkpt lat="42.2834" lon="1.84123">
        <ele>1182.508</ele>
        <time>2019-04-19T01:55:10Z</time>
      </trkpt>
      <trkpt lat="42.28338" lon="1.84124">
        <ele>1181.657</ele>
        <time>2019-04-19T01:55:11Z</time>
      </trkpt>
      <trkpt lat="42.28337" lon="1.84138">
        <ele>1178.399</ele>
        <time>2019-04-19T01:55:21Z</time>
      </trkpt>
      <trkpt lat="42.28337" lon="1.84142">
        <ele>1177.778</ele>
        <time>2019-04-19T01:55:23Z</time>
      </trkpt>
      <trkpt lat="42.28337" lon="1.84146">
        <ele>1177.356</ele>
        <time>2019-04-19T01:55:25Z</time>
      </trkpt>
      <trkpt lat="42.28337" lon="1.84147">
        <ele>1176.812</ele>
        <time>2019-04-19T01:55:26Z</time>
      </trkpt>
      <trkpt lat="42.28336" lon="1.8415">
        <ele>1176.865</ele>
        <time>2019-04-19T01:55:28Z</time>
      </trkpt>
      <trkpt lat="42.28334" lon="1.84157">
        <ele>1175.438</ele>
        <time>2019-04-19T01:55:34Z</time>
      </trkpt>
      <trkpt lat="42.28333" lon="1.84158">
        <ele>1175.381</ele>
        <time>2019-04-19T01:55:35Z</time>
      </trkpt>
      <trkpt lat="42.28326" lon="1.84166">
        <ele>1171.534</ele>
        <time>2019-04-19T01:55:43Z</time>
      </trkpt>
      <trkpt lat="42.28325" lon="1.84171">
        <ele>1171.055</ele>
        <time>2019-04-19T01:55:46Z</time>
      </trkpt>
      <trkpt lat="42.28323" lon="1.84178">
        <ele>1170.11</ele>
        <time>2019-04-19T01:55:50Z</time>
      </trkpt>
      <trkpt lat="42.28322" lon="1.8418">
        <ele>1169.208</ele>
        <time>2019-04-19T01:55:51Z</time>
      </trkpt>
      <trkpt lat="42.28321" lon="1.84182">
        <ele>1168.766</ele>
        <time>2019-04-19T01:55:52Z</time>
      </trkpt>
      <trkpt lat="42.28321" lon="1.84184">
        <ele>1167.758</ele>
        <time>2019-04-19T01:55:53Z</time>
      </trkpt>
      <trkpt lat="42.28319" lon="1.84187">
        <ele>1168.147</ele>
        <time>2019-04-19T01:55:55Z</time>
      </trkpt>
      <trkpt lat="42.28317" lon="1.84193">
        <ele>1165.825</ele>
        <time>2019-04-19T01:55:59Z</time>
      </trkpt>
      <trkpt lat="42.28316" lon="1.84194">
        <ele>1165.791</ele>
        <time>2019-04-19T01:56:00Z</time>
      </trkpt>
      <trkpt lat="42.28309" lon="1.84206">
        <ele>1162.364</ele>
        <time>2019-04-19T01:56:09Z</time>
      </trkpt>
      <trkpt lat="42.28307" lon="1.84211">
        <ele>1161.917</ele>
        <time>2019-04-19T01:56:12Z</time>
      </trkpt>
      <trkpt lat="42.28306" lon="1.84212">
        <ele>1161.58</ele>
        <time>2019-04-19T01:56:13Z</time>
      </trkpt>
      <trkpt lat="42.28304" lon="1.84212">
        <ele>1161.469</ele>
        <time>2019-04-19T01:56:14Z</time>
      </trkpt>
      <trkpt lat="42.28302" lon="1.84229">
        <ele>1157.504</ele>
        <time>2019-04-19T01:56:24Z</time>
      </trkpt>
      <trkpt lat="42.28302" lon="1.8423">
        <ele>1157.624</ele>
        <time>2019-04-19T01:56:25Z</time>
      </trkpt>
      <trkpt lat="42.28292" lon="1.84247">
        <ele>1154.708</ele>
        <time>2019-04-19T01:56:35Z</time>
      </trkpt>
      <trkpt lat="42.2829" lon="1.84263">
        <ele>1151.429</ele>
        <time>2019-04-19T01:56:46Z</time>
      </trkpt>
      <trkpt lat="42.2829" lon="1.84271">
        <ele>1150.331</ele>
        <time>2019-04-19T01:56:50Z</time>
      </trkpt>
      <trkpt lat="42.28287" lon="1.84285">
        <ele>1147.07</ele>
        <time>2019-04-19T01:56:58Z</time>
      </trkpt>
      <trkpt lat="42.2828" lon="1.84293">
        <ele>1145.018</ele>
        <time>2019-04-19T01:57:04Z</time>
      </trkpt>
      <trkpt lat="42.28279" lon="1.84296">
        <ele>1144.264</ele>
        <time>2019-04-19T01:57:06Z</time>
      </trkpt>
      <trkpt lat="42.28279" lon="1.84299">
        <ele>1143.747</ele>
        <time>2019-04-19T01:57:07Z</time>
      </trkpt>
      <trkpt lat="42.28279" lon="1.84301">
        <ele>1143.21</ele>
        <time>2019-04-19T01:57:08Z</time>
      </trkpt>
      <trkpt lat="42.28278" lon="1.84303">
        <ele>1143.123</ele>
        <time>2019-04-19T01:57:09Z</time>
      </trkpt>
      <trkpt lat="42.28278" lon="1.84305">
        <ele>1142.672</ele>
        <time>2019-04-19T01:57:10Z</time>
      </trkpt>
      <trkpt lat="42.28277" lon="1.84327">
        <ele>1139.313</ele>
        <time>2019-04-19T01:57:21Z</time>
      </trkpt>
      <trkpt lat="42.28274" lon="1.84343">
        <ele>1136.514</ele>
        <time>2019-04-19T01:57:29Z</time>
      </trkpt>
      <trkpt lat="42.28271" lon="1.84352">
        <ele>1133.508</ele>
        <time>2019-04-19T01:57:35Z</time>
      </trkpt>
      <trkpt lat="42.28271" lon="1.84353">
        <ele>1133.03</ele>
        <time>2019-04-19T01:57:36Z</time>
      </trkpt>
      <trkpt lat="42.2827" lon="1.84363">
        <ele>1130.632</ele>
        <time>2019-04-19T01:57:41Z</time>
      </trkpt>
      <trkpt lat="42.28266" lon="1.84368">
        <ele>1130.181</ele>
        <time>2019-04-19T01:57:44Z</time>
      </trkpt>
      <trkpt lat="42.28266" lon="1.84369">
        <ele>1129.319</ele>
        <time>2019-04-19T01:57:45Z</time>
      </trkpt>
      <trkpt lat="42.28264" lon="1.84377">
        <ele>1127.375</ele>
        <time>2019-04-19T01:57:51Z</time>
      </trkpt>
      <trkpt lat="42.28263" lon="1.84378">
        <ele>1127.238</ele>
        <time>2019-04-19T01:57:52Z</time>
      </trkpt>
      <trkpt lat="42.28254" lon="1.84386">
        <ele>1124.051</ele>
        <time>2019-04-19T01:58:01Z</time>
      </trkpt>
      <trkpt lat="42.28253" lon="1.84388">
        <ele>1122.174</ele>
        <time>2019-04-19T01:58:04Z</time>
      </trkpt>
      <trkpt lat="42.28251" lon="1.84389">
        <ele>1122.051</ele>
        <time>2019-04-19T01:58:05Z</time>
      </trkpt>
      <trkpt lat="42.28243" lon="1.84401">
        <ele>1118.601</ele>
        <time>2019-04-19T01:58:16Z</time>
      </trkpt>
      <trkpt lat="42.28235" lon="1.84415">
        <ele>1115.711</ele>
        <time>2019-04-19T01:58:26Z</time>
      </trkpt>
      <trkpt lat="42.28218" lon="1.84428">
        <ele>1112.408</ele>
        <time>2019-04-19T01:58:37Z</time>
      </trkpt>
      <trkpt lat="42.28206" lon="1.84441">
        <ele>1110.028</ele>
        <time>2019-04-19T01:58:48Z</time>
      </trkpt>
      <trkpt lat="42.28206" lon="1.84442">
        <ele>1109.92</ele>
        <time>2019-04-19T01:58:49Z</time>
      </trkpt>
      <trkpt lat="42.28205" lon="1.84445">
        <ele>1109.559</ele>
        <time>2019-04-19T01:58:50Z</time>
      </trkpt>
      <trkpt lat="42.28204" lon="1.84446">
        <ele>1109.167</ele>
        <time>2019-04-19T01:58:51Z</time>
      </trkpt>
      <trkpt lat="42.28203" lon="1.84447">
        <ele>1109.043</ele>
        <time>2019-04-19T01:58:52Z</time>
      </trkpt>
      <trkpt lat="42.28202" lon="1.84448">
        <ele>1109.026</ele>
        <time>2019-04-19T01:58:53Z</time>
      </trkpt>
      <trkpt lat="42.282" lon="1.84448">
        <ele>1108.629</ele>
        <time>2019-04-19T01:58:54Z</time>
      </trkpt>
      <trkpt lat="42.28196" lon="1.84462">
        <ele>1105.772</ele>
        <time>2019-04-19T01:59:04Z</time>
      </trkpt>
      <trkpt lat="42.28197" lon="1.84473">
        <ele>1104.289</ele>
        <time>2019-04-19T01:59:15Z</time>
      </trkpt>
      <trkpt lat="42.28194" lon="1.84481">
        <ele>1101.806</ele>
        <time>2019-04-19T01:59:26Z</time>
      </trkpt>
      <trkpt lat="42.28193" lon="1.84488">
        <ele>1100.426</ele>
        <time>2019-04-19T01:59:31Z</time>
      </trkpt>
      <trkpt lat="42.28192" lon="1.84489">
        <ele>1099.808</ele>
        <time>2019-04-19T01:59:32Z</time>
      </trkpt>
      <trkpt lat="42.2819" lon="1.8449">
        <ele>1099.841</ele>
        <time>2019-04-19T01:59:33Z</time>
      </trkpt>
      <trkpt lat="42.28189" lon="1.84492">
        <ele>1099.443</ele>
        <time>2019-04-19T01:59:34Z</time>
      </trkpt>
      <trkpt lat="42.28183" lon="1.84503">
        <ele>1096.012</ele>
        <time>2019-04-19T01:59:42Z</time>
      </trkpt>
      <trkpt lat="42.2818" lon="1.84516">
        <ele>1093.22</ele>
        <time>2019-04-19T01:59:51Z</time>
      </trkpt>
      <trkpt lat="42.28173" lon="1.84529">
        <ele>1090.396</ele>
        <time>2019-04-19T02:00:01Z</time>
      </trkpt>
      <trkpt lat="42.28172" lon="1.8453">
        <ele>1089.729</ele>
        <time>2019-04-19T02:00:02Z</time>
      </trkpt>
      <trkpt lat="42.28173" lon="1.84544">
        <ele>1087.462</ele>
        <time>2019-04-19T02:00:11Z</time>
      </trkpt>
      <trkpt lat="42.28172" lon="1.8455">
        <ele>1084.625</ele>
        <time>2019-04-19T02:00:16Z</time>
      </trkpt>
      <trkpt lat="42.28176" lon="1.84566">
        <ele>1081.171</ele>
        <time>2019-04-19T02:00:25Z</time>
      </trkpt>
      <trkpt lat="42.28177" lon="1.84578">
        <ele>1079.741</ele>
        <time>2019-04-19T02:00:33Z</time>
      </trkpt>
      <trkpt lat="42.28173" lon="1.8459">
        <ele>1075.915</ele>
        <time>2019-04-19T02:00:41Z</time>
      </trkpt>
      <trkpt lat="42.28169" lon="1.84596">
        <ele>1073.908</ele>
        <time>2019-04-19T02:00:46Z</time>
      </trkpt>
      <trkpt lat="42.28169" lon="1.84599">
        <ele>1073.45</ele>
        <time>2019-04-19T02:00:48Z</time>
      </trkpt>
      <trkpt lat="42.28169" lon="1.84607">
        <ele>1071.582</ele>
        <time>2019-04-19T02:00:52Z</time>
      </trkpt>
      <trkpt lat="42.28167" lon="1.84622">
        <ele>1068.661</ele>
        <time>2019-04-19T02:01:02Z</time>
      </trkpt>
      <trkpt lat="42.28166" lon="1.84632">
        <ele>1066.359</ele>
        <time>2019-04-19T02:01:09Z</time>
      </trkpt>
      <trkpt lat="42.28164" lon="1.8464">
        <ele>1064.385</ele>
        <time>2019-04-19T02:01:14Z</time>
      </trkpt>
      <trkpt lat="42.28164" lon="1.84642">
        <ele>1063.968</ele>
        <time>2019-04-19T02:01:16Z</time>
      </trkpt>
      <trkpt lat="42.28162" lon="1.84651">
        <ele>1061.531</ele>
        <time>2019-04-19T02:01:22Z</time>
      </trkpt>
      <trkpt lat="42.28162" lon="1.84658">
        <ele>1059.594</ele>
        <time>2019-04-19T02:01:26Z</time>
      </trkpt>
      <trkpt lat="42.28163" lon="1.8466">
        <ele>1059.082</ele>
        <time>2019-04-19T02:01:27Z</time>
      </trkpt>
      <trkpt lat="42.28161" lon="1.84671">
        <ele>1057.143</ele>
        <time>2019-04-19T02:01:32Z</time>
      </trkpt>
      <trkpt lat="42.2816" lon="1.84686">
        <ele>1055.617</ele>
        <time>2019-04-19T02:01:39Z</time>
      </trkpt>
      <trkpt lat="42.28159" lon="1.84704">
        <ele>1054.808</ele>
        <time>2019-04-19T02:01:49Z</time>
      </trkpt>
      <trkpt lat="42.28159" lon="1.8471">
        <ele>1053.831</ele>
        <time>2019-04-19T02:01:52Z</time>
      </trkpt>
      <trkpt lat="42.28158" lon="1.84713">
        <ele>1052.793</ele>
        <time>2019-04-19T02:01:53Z</time>
      </trkpt>
      <trkpt lat="42.28159" lon="1.84716">
        <ele>1052.752</ele>
        <time>2019-04-19T02:01:55Z</time>
      </trkpt>
      <trkpt lat="42.28159" lon="1.84721">
        <ele>1051.96</ele>
        <time>2019-04-19T02:01:58Z</time>
      </trkpt>
      <trkpt lat="42.28149" lon="1.84743">
        <ele>1049.016</ele>
        <time>2019-04-19T02:02:11Z</time>
      </trkpt>
      <trkpt lat="42.28147" lon="1.84748">
        <ele>1047.939</ele>
        <time>2019-04-19T02:02:14Z</time>
      </trkpt>
      <trkpt lat="42.28142" lon="1.84752">
        <ele>1046.522</ele>
        <time>2019-04-19T02:02:18Z</time>
      </trkpt>
      <trkpt lat="42.28133" lon="1.84771">
        <ele>1042.645</ele>
        <time>2019-04-19T02:02:29Z</time>
      </trkpt>
      <trkpt lat="42.28132" lon="1.84779">
        <ele>1040.295</ele>
        <time>2019-04-19T02:02:36Z</time>
      </trkpt>
      <trkpt lat="42.28129" lon="1.84786">
        <ele>1038.849</ele>
        <time>2019-04-19T02:02:40Z</time>
      </trkpt>
      <trkpt lat="42.28128" lon="1.84788">
        <ele>1037.923</ele>
        <time>2019-04-19T02:02:41Z</time>
      </trkpt>
      <trkpt lat="42.28123" lon="1.84798">
        <ele>1036.408</ele>
        <time>2019-04-19T02:02:49Z</time>
      </trkpt>
      <trkpt lat="42.28115" lon="1.84809">
        <ele>1032.642</ele>
        <time>2019-04-19T02:03:01Z</time>
      </trkpt>
      <trkpt lat="42.28115" lon="1.84812">
        <ele>1031.644</ele>
        <time>2019-04-19T02:03:06Z</time>
      </trkpt>
      <trkpt lat="42.28115" lon="1.84813">
        <ele>1031.243</ele>
        <time>2019-04-19T02:03:09Z</time>
      </trkpt>
      <trkpt lat="42.28116" lon="1.84817">
        <ele>1029.761</ele>
        <time>2019-04-19T02:03:12Z</time>
      </trkpt>
      <trkpt lat="42.2811" lon="1.84824">
        <ele>1025.437</ele>
        <time>2019-04-19T02:03:22Z</time>
      </trkpt>
      <trkpt lat="42.2811" lon="1.84824">
        <ele>1025.31</ele>
        <time>2019-04-19T02:03:23Z</time>
      </trkpt>
      <trkpt lat="42.28111" lon="1.84825">
        <ele>1024.533</ele>
        <time>2019-04-19T02:03:25Z</time>
      </trkpt>
      <trkpt lat="42.28108" lon="1.8483">
        <ele>1022.016</ele>
        <time>2019-04-19T02:03:33Z</time>
      </trkpt>
      <trkpt lat="42.28106" lon="1.84847">
        <ele>1018.665</ele>
        <time>2019-04-19T02:03:42Z</time>
      </trkpt>
      <trkpt lat="42.2811" lon="1.84854">
        <ele>1015.768</ele>
        <time>2019-04-19T02:03:49Z</time>
      </trkpt>
      <trkpt lat="42.2811" lon="1.84863">
        <ele>1012.414</ele>
        <time>2019-04-19T02:03:57Z</time>
      </trkpt>
      <trkpt lat="42.28123" lon="1.84868">
        <ele>1012.008</ele>
        <time>2019-04-19T02:04:09Z</time>
      </trkpt>
      <trkpt lat="42.28124" lon="1.84868">
        <ele>1011.589</ele>
        <time>2019-04-19T02:04:10Z</time>
      </trkpt>
      <trkpt lat="42.28129" lon="1.84866">
        <ele>1013.361</ele>
        <time>2019-04-19T02:04:14Z</time>
      </trkpt>
      <trkpt lat="42.28131" lon="1.84865">
        <ele>1013.43</ele>
        <time>2019-04-19T02:04:15Z</time>
      </trkpt>
      <trkpt lat="42.2815" lon="1.84862">
        <ele>1013.448</ele>
        <time>2019-04-19T02:04:25Z</time>
      </trkpt>
      <trkpt lat="42.28153" lon="1.84862">
        <ele>1012.044</ele>
        <time>2019-04-19T02:04:26Z</time>
      </trkpt>
      <trkpt lat="42.28167" lon="1.84864">
        <ele>1010.557</ele>
        <time>2019-04-19T02:04:36Z</time>
      </trkpt>
      <trkpt lat="42.28184" lon="1.84862">
        <ele>1010.04</ele>
        <time>2019-04-19T02:04:51Z</time>
      </trkpt>
      <trkpt lat="42.28185" lon="1.84857">
        <ele>1010.543</ele>
        <time>2019-04-19T02:05:17Z</time>
      </trkpt>
      <trkpt lat="42.28185" lon="1.84851">
        <ele>1010.429</ele>
        <time>2019-04-19T02:05:35Z</time>
      </trkpt>
      <trkpt lat="42.28193" lon="1.84843">
        <ele>1012.4</ele>
        <time>2019-04-19T02:05:49Z</time>
      </trkpt>
      <trkpt lat="42.28194" lon="1.84842">
        <ele>1012.42</ele>
        <time>2019-04-19T02:05:50Z</time>
      </trkpt>
      <trkpt lat="42.282" lon="1.84838">
        <ele>1013.808</ele>
        <time>2019-04-19T02:05:57Z</time>
      </trkpt>
      <trkpt lat="42.28201" lon="1.84837">
        <ele>1013.835</ele>
        <time>2019-04-19T02:05:58Z</time>
      </trkpt>
      <trkpt lat="42.28212" lon="1.84825">
        <ele>1016.777</ele>
        <time>2019-04-19T02:06:13Z</time>
      </trkpt>
      <trkpt lat="42.28213" lon="1.84824">
        <ele>1017.226</ele>
        <time>2019-04-19T02:06:14Z</time>
      </trkpt>
      <trkpt lat="42.2822" lon="1.84808">
        <ele>1019.764</ele>
        <time>2019-04-19T02:06:28Z</time>
      </trkpt>
      <trkpt lat="42.28221" lon="1.84807">
        <ele>1019.73</ele>
        <time>2019-04-19T02:06:29Z</time>
      </trkpt>
      <trkpt lat="42.28222" lon="1.84804">
        <ele>1020.293</ele>
        <time>2019-04-19T02:06:32Z</time>
      </trkpt>
      <trkpt lat="42.28224" lon="1.84802">
        <ele>1020.646</ele>
        <time>2019-04-19T02:06:35Z</time>
      </trkpt>
      <trkpt lat="42.28225" lon="1.84797">
        <ele>1021.639</ele>
        <time>2019-04-19T02:06:39Z</time>
      </trkpt>
      <trkpt lat="42.28226" lon="1.84795">
        <ele>1022.033</ele>
        <time>2019-04-19T02:06:40Z</time>
      </trkpt>
      <trkpt lat="42.28226" lon="1.84793">
        <ele>1022.023</ele>
        <time>2019-04-19T02:06:41Z</time>
      </trkpt>
      <trkpt lat="42.28227" lon="1.84792">
        <ele>1022.015</ele>
        <time>2019-04-19T02:06:42Z</time>
      </trkpt>
      <trkpt lat="42.28228" lon="1.84791">
        <ele>1022.108</ele>
        <time>2019-04-19T02:06:43Z</time>
      </trkpt>
      <trkpt lat="42.28235" lon="1.84775">
        <ele>1024.546</ele>
        <time>2019-04-19T02:06:55Z</time>
      </trkpt>
      <trkpt lat="42.28244" lon="1.84757">
        <ele>1026.478</ele>
        <time>2019-04-19T02:07:10Z</time>
      </trkpt>
      <trkpt lat="42.28245" lon="1.84756">
        <ele>1026.387</ele>
        <time>2019-04-19T02:07:11Z</time>
      </trkpt>
      <trkpt lat="42.28244" lon="1.84754">
        <ele>1027.345</ele>
        <time>2019-04-19T02:07:13Z</time>
      </trkpt>
      <trkpt lat="42.28247" lon="1.84738">
        <ele>1029.381</ele>
        <time>2019-04-19T02:07:26Z</time>
      </trkpt>
      <trkpt lat="42.28252" lon="1.84723">
        <ele>1031.154</ele>
        <time>2019-04-19T02:07:41Z</time>
      </trkpt>
      <trkpt lat="42.28259" lon="1.84714">
        <ele>1032.627</ele>
        <time>2019-04-19T02:07:50Z</time>
      </trkpt>
      <trkpt lat="42.2826" lon="1.84712">
        <ele>1033.09</ele>
        <time>2019-04-19T02:07:52Z</time>
      </trkpt>
      <trkpt lat="42.28269" lon="1.847">
        <ele>1035.968</ele>
        <time>2019-04-19T02:08:06Z</time>
      </trkpt>
      <trkpt lat="42.28277" lon="1.8469">
        <ele>1037.842</ele>
        <time>2019-04-19T02:08:19Z</time>
      </trkpt>
      <trkpt lat="42.28286" lon="1.84685">
        <ele>1039.826</ele>
        <time>2019-04-19T02:08:29Z</time>
      </trkpt>
      <trkpt lat="42.28296" lon="1.84682">
        <ele>1041.808</ele>
        <time>2019-04-19T02:08:42Z</time>
      </trkpt>
      <trkpt lat="42.28298" lon="1.84681">
        <ele>1042.379</ele>
        <time>2019-04-19T02:08:44Z</time>
      </trkpt>
      <trkpt lat="42.28306" lon="1.84681">
        <ele>1043.671</ele>
        <time>2019-04-19T02:08:53Z</time>
      </trkpt>
      <trkpt lat="42.28306" lon="1.8468">
        <ele>1044.17</ele>
        <time>2019-04-19T02:08:54Z</time>
      </trkpt>
      <trkpt lat="42.28317" lon="1.84679">
        <ele>1046.088</ele>
        <time>2019-04-19T02:09:05Z</time>
      </trkpt>
      <trkpt lat="42.28324" lon="1.84684">
        <ele>1048.014</ele>
        <time>2019-04-19T02:09:14Z</time>
      </trkpt>
      <trkpt lat="42.28325" lon="1.84685">
        <ele>1048.027</ele>
        <time>2019-04-19T02:09:15Z</time>
      </trkpt>
      <trkpt lat="42.28328" lon="1.84697">
        <ele>1050.48</ele>
        <time>2019-04-19T02:09:28Z</time>
      </trkpt>
      <trkpt lat="42.28332" lon="1.84714">
        <ele>1052.863</ele>
        <time>2019-04-19T02:09:42Z</time>
      </trkpt>
      <trkpt lat="42.28332" lon="1.84722">
        <ele>1053.724</ele>
        <time>2019-04-19T02:09:47Z</time>
      </trkpt>
      <trkpt lat="42.28333" lon="1.84738">
        <ele>1056.104</ele>
        <time>2019-04-19T02:10:00Z</time>
      </trkpt>
      <trkpt lat="42.28333" lon="1.84745">
        <ele>1057.214</ele>
        <time>2019-04-19T02:10:08Z</time>
      </trkpt>
      <trkpt lat="42.28334" lon="1.84747">
        <ele>1057.208</ele>
        <time>2019-04-19T02:10:09Z</time>
      </trkpt>
      <trkpt lat="42.28332" lon="1.84765">
        <ele>1059.695</ele>
        <time>2019-04-19T02:10:21Z</time>
      </trkpt>
      <trkpt lat="42.28332" lon="1.84774">
        <ele>1060.577</ele>
        <time>2019-04-19T02:10:27Z</time>
      </trkpt>
      <trkpt lat="42.28333" lon="1.84775">
        <ele>1060.586</ele>
        <time>2019-04-19T02:10:28Z</time>
      </trkpt>
      <trkpt lat="42.28334" lon="1.84784">
        <ele>1061.074</ele>
        <time>2019-04-19T02:10:34Z</time>
      </trkpt>
      <trkpt lat="42.28335" lon="1.84785">
        <ele>1061.52</ele>
        <time>2019-04-19T02:10:35Z</time>
      </trkpt>
      <trkpt lat="42.28344" lon="1.84794">
        <ele>1063.833</ele>
        <time>2019-04-19T02:10:49Z</time>
      </trkpt>
      <trkpt lat="42.28346" lon="1.84795">
        <ele>1063.946</ele>
        <time>2019-04-19T02:10:51Z</time>
      </trkpt>
      <trkpt lat="42.28347" lon="1.84795">
        <ele>1064.369</ele>
        <time>2019-04-19T02:10:52Z</time>
      </trkpt>
      <trkpt lat="42.28359" lon="1.84803">
        <ele>1065.716</ele>
        <time>2019-04-19T02:11:07Z</time>
      </trkpt>
      <trkpt lat="42.28362" lon="1.84805">
        <ele>1066.776</ele>
        <time>2019-04-19T02:11:10Z</time>
      </trkpt>
      <trkpt lat="42.28376" lon="1.8481">
        <ele>1068.713</ele>
        <time>2019-04-19T02:11:24Z</time>
      </trkpt>
      <trkpt lat="42.28381" lon="1.8481">
        <ele>1069.708</ele>
        <time>2019-04-19T02:11:30Z</time>
      </trkpt>
      <trkpt lat="42.28383" lon="1.8481">
        <ele>1069.654</ele>
        <time>2019-04-19T02:11:31Z</time>
      </trkpt>
      <trkpt lat="42.28417" lon="1.8481">
        <ele>1072.126</ele>
        <time>2019-04-19T02:11:46Z</time>
      </trkpt>
      <trkpt lat="42.28431" lon="1.84813">
        <ele>1074.075</ele>
        <time>2019-04-19T02:12:00Z</time>
      </trkpt>
      <trkpt lat="42.28447" lon="1.84813">
        <ele>1075.453</ele>
        <time>2019-04-19T02:12:14Z</time>
      </trkpt>
      <trkpt lat="42.28462" lon="1.84802">
        <ele>1077.299</ele>
        <time>2019-04-19T02:12:29Z</time>
      </trkpt>
      <trkpt lat="42.28476" lon="1.84778">
        <ele>1078.392</ele>
        <time>2019-04-19T02:12:45Z</time>
      </trkpt>
      <trkpt lat="42.28484" lon="1.84768">
        <ele>1080.235</ele>
        <time>2019-04-19T02:12:56Z</time>
      </trkpt>
      <trkpt lat="42.28485" lon="1.84767">
        <ele>1080.218</ele>
        <time>2019-04-19T02:12:57Z</time>
      </trkpt>
      <trkpt lat="42.28498" lon="1.84753">
        <ele>1083.095</ele>
        <time>2019-04-19T02:13:12Z</time>
      </trkpt>
      <trkpt lat="42.28514" lon="1.84741">
        <ele>1085.449</ele>
        <time>2019-04-19T02:13:28Z</time>
      </trkpt>
      <trkpt lat="42.28523" lon="1.84727">
        <ele>1087.323</ele>
        <time>2019-04-19T02:13:42Z</time>
      </trkpt>
      <trkpt lat="42.28533" lon="1.84713">
        <ele>1089.708</ele>
        <time>2019-04-19T02:13:56Z</time>
      </trkpt>
      <trkpt lat="42.28544" lon="1.84697">
        <ele>1092.212</ele>
        <time>2019-04-19T02:14:11Z</time>
      </trkpt>
      <trkpt lat="42.28554" lon="1.84677">
        <ele>1094.784</ele>
        <time>2019-04-19T02:14:27Z</time>
      </trkpt>
      <trkpt lat="42.28555" lon="1.84676">
        <ele>1094.613</ele>
        <time>2019-04-19T02:14:28Z</time>
      </trkpt>
      <trkpt lat="42.2856" lon="1.84667">
        <ele>1096.131</ele>
        <time>2019-04-19T02:14:35Z</time>
      </trkpt>
      <trkpt lat="42.28562" lon="1.84663">
        <ele>1096.697</ele>
        <time>2019-04-19T02:14:38Z</time>
      </trkpt>
      <trkpt lat="42.28563" lon="1.84662">
        <ele>1096.14</ele>
        <time>2019-04-19T02:14:39Z</time>
      </trkpt>
      <trkpt lat="42.28572" lon="1.84654">
        <ele>1097.423</ele>
        <time>2019-04-19T02:14:50Z</time>
      </trkpt>
      <trkpt lat="42.28575" lon="1.84649">
        <ele>1097.516</ele>
        <time>2019-04-19T02:14:57Z</time>
      </trkpt>
      <trkpt lat="42.28577" lon="1.84645">
        <ele>1097.445</ele>
        <time>2019-04-19T02:15:00Z</time>
      </trkpt>
      <trkpt lat="42.28578" lon="1.84644">
        <ele>1097.447</ele>
        <time>2019-04-19T02:15:01Z</time>
      </trkpt>
      <trkpt lat="42.28578" lon="1.84643">
        <ele>1097.411</ele>
        <time>2019-04-19T02:15:02Z</time>
      </trkpt>
      <trkpt lat="42.28579" lon="1.84641">
        <ele>1097.908</ele>
        <time>2019-04-19T02:15:03Z</time>
      </trkpt>
      <trkpt lat="42.28586" lon="1.84628">
        <ele>1099.067</ele>
        <time>2019-04-19T02:15:14Z</time>
      </trkpt>
      <trkpt lat="42.28585" lon="1.84626">
        <ele>1099.059</ele>
        <time>2019-04-19T02:15:15Z</time>
      </trkpt>
      <trkpt lat="42.28586" lon="1.84621">
        <ele>1099.448</ele>
        <time>2019-04-19T02:15:18Z</time>
      </trkpt>
      <trkpt lat="42.28587" lon="1.8462">
        <ele>1099.516</ele>
        <time>2019-04-19T02:15:19Z</time>
      </trkpt>
      <trkpt lat="42.28589" lon="1.84614">
        <ele>1099.952</ele>
        <time>2019-04-19T02:15:32Z</time>
      </trkpt>
      <trkpt lat="42.28596" lon="1.84594">
        <ele>1100.485</ele>
        <time>2019-04-19T02:15:45Z</time>
      </trkpt>
      <trkpt lat="42.28597" lon="1.84591">
        <ele>1100.448</ele>
        <time>2019-04-19T02:15:47Z</time>
      </trkpt>
      <trkpt lat="42.28597" lon="1.84589">
        <ele>1100.321</ele>
        <time>2019-04-19T02:15:48Z</time>
      </trkpt>
      <trkpt lat="42.28598" lon="1.84587">
        <ele>1100.811</ele>
        <time>2019-04-19T02:15:49Z</time>
      </trkpt>
      <trkpt lat="42.28598" lon="1.84586">
        <ele>1100.821</ele>
        <time>2019-04-19T02:15:50Z</time>
      </trkpt>
      <trkpt lat="42.28598" lon="1.84584">
        <ele>1100.903</ele>
        <time>2019-04-19T02:15:51Z</time>
      </trkpt>
      <trkpt lat="42.28599" lon="1.84582">
        <ele>1100.908</ele>
        <time>2019-04-19T02:15:52Z</time>
      </trkpt>
      <trkpt lat="42.28599" lon="1.84581">
        <ele>1100.944</ele>
        <time>2019-04-19T02:15:53Z</time>
      </trkpt>
      <trkpt lat="42.28602" lon="1.84563">
        <ele>1101.326</ele>
        <time>2019-04-19T02:16:05Z</time>
      </trkpt>
      <trkpt lat="42.28608" lon="1.84549">
        <ele>1102.755</ele>
        <time>2019-04-19T02:16:19Z</time>
      </trkpt>
      <trkpt lat="42.28609" lon="1.84548">
        <ele>1102.743</ele>
        <time>2019-04-19T02:16:20Z</time>
      </trkpt>
      <trkpt lat="42.2861" lon="1.84547">
        <ele>1102.859</ele>
        <time>2019-04-19T02:16:21Z</time>
      </trkpt>
      <trkpt lat="42.28622" lon="1.84538">
        <ele>1104.382</ele>
        <time>2019-04-19T02:16:34Z</time>
      </trkpt>
      <trkpt lat="42.28623" lon="1.84538">
        <ele>1104.335</ele>
        <time>2019-04-19T02:16:35Z</time>
      </trkpt>
      <trkpt lat="42.28625" lon="1.84537">
        <ele>1104.238</ele>
        <time>2019-04-19T02:16:36Z</time>
      </trkpt>
      <trkpt lat="42.28634" lon="1.8454">
        <ele>1107.195</ele>
        <time>2019-04-19T02:16:49Z</time>
      </trkpt>
      <trkpt lat="42.28632" lon="1.84545">
        <ele>1108.049</ele>
        <time>2019-04-19T02:16:54Z</time>
      </trkpt>
      <trkpt lat="42.28632" lon="1.84564">
        <ele>1109.023</ele>
        <time>2019-04-19T02:17:08Z</time>
      </trkpt>
      <trkpt lat="42.28632" lon="1.84577">
        <ele>1110.508</ele>
        <time>2019-04-19T02:17:17Z</time>
      </trkpt>
      <trkpt lat="42.28632" lon="1.84581">
        <ele>1110.592</ele>
        <time>2019-04-19T02:17:19Z</time>
      </trkpt>
      <trkpt lat="42.28631" lon="1.84583">
        <ele>1110.984</ele>
        <time>2019-04-19T02:17:20Z</time>
      </trkpt>
      <trkpt lat="42.28631" lon="1.84585">
        <ele>1110.923</ele>
        <time>2019-04-19T02:17:21Z</time>
      </trkpt>
      <trkpt lat="42.28625" lon="1.84612">
        <ele>1111.471</ele>
        <time>2019-04-19T02:17:37Z</time>
      </trkpt>
      <trkpt lat="42.28623" lon="1.84635">
        <ele>1111.457</ele>
        <time>2019-04-19T02:17:51Z</time>
      </trkpt>
      <trkpt lat="42.28619" lon="1.84661">
        <ele>1112.48</ele>
        <time>2019-04-19T02:18:06Z</time>
      </trkpt>
      <trkpt lat="42.28614" lon="1.84677">
        <ele>1112.913</ele>
        <time>2019-04-19T02:18:17Z</time>
      </trkpt>
      <trkpt lat="42.28613" lon="1.84679">
        <ele>1112.836</ele>
        <time>2019-04-19T02:18:18Z</time>
      </trkpt>
      <trkpt lat="42.286" lon="1.84706">
        <ele>1113.835</ele>
        <time>2019-04-19T02:18:35Z</time>
      </trkpt>
      <trkpt lat="42.28593" lon="1.84734">
        <ele>1114.386</ele>
        <time>2019-04-19T02:18:51Z</time>
      </trkpt>
      <trkpt lat="42.28589" lon="1.84756">
        <ele>1116.214</ele>
        <time>2019-04-19T02:19:06Z</time>
      </trkpt>
      <trkpt lat="42.28588" lon="1.8476">
        <ele>1117.108</ele>
        <time>2019-04-19T02:19:09Z</time>
      </trkpt>
      <trkpt lat="42.28587" lon="1.84781">
        <ele>1119.236</ele>
        <time>2019-04-19T02:19:24Z</time>
      </trkpt>
      <trkpt lat="42.28587" lon="1.84806">
        <ele>1121.678</ele>
        <time>2019-04-19T02:19:41Z</time>
      </trkpt>
      <trkpt lat="42.28585" lon="1.84827">
        <ele>1120.067</ele>
        <time>2019-04-19T02:19:58Z</time>
      </trkpt>
      <trkpt lat="42.28583" lon="1.84856">
        <ele>1117.755</ele>
        <time>2019-04-19T02:20:12Z</time>
      </trkpt>
      <trkpt lat="42.28582" lon="1.84865">
        <ele>1117.741</ele>
        <time>2019-04-19T02:20:17Z</time>
      </trkpt>
      <trkpt lat="42.28582" lon="1.84867">
        <ele>1117.694</ele>
        <time>2019-04-19T02:20:18Z</time>
      </trkpt>
      <trkpt lat="42.28582" lon="1.84869">
        <ele>1117.727</ele>
        <time>2019-04-19T02:20:19Z</time>
      </trkpt>
      <trkpt lat="42.28582" lon="1.84871">
        <ele>1117.79</ele>
        <time>2019-04-19T02:20:20Z</time>
      </trkpt>
      <trkpt lat="42.28582" lon="1.84873">
        <ele>1117.693</ele>
        <time>2019-04-19T02:20:21Z</time>
      </trkpt>
      <trkpt lat="42.28584" lon="1.84878">
        <ele>1118.665</ele>
        <time>2019-04-19T02:20:25Z</time>
      </trkpt>
      <trkpt lat="42.28588" lon="1.84884">
        <ele>1120.621</ele>
        <time>2019-04-19T02:20:32Z</time>
      </trkpt>
      <trkpt lat="42.28592" lon="1.84889">
        <ele>1121.608</ele>
        <time>2019-04-19T02:20:44Z</time>
      </trkpt>
      <trkpt lat="42.28593" lon="1.8489">
        <ele>1122.112</ele>
        <time>2019-04-19T02:21:02Z</time>
      </trkpt>
      <trkpt lat="42.28592" lon="1.84888">
        <ele>1122.194</ele>
        <time>2019-04-19T02:21:37Z</time>
      </trkpt>
      <trkpt lat="42.28595" lon="1.84888">
        <ele>1122.043</ele>
        <time>2019-04-19T02:21:58Z</time>
      </trkpt>
      <trkpt lat="42.28592" lon="1.84884">
        <ele>1120.641</ele>
        <time>2019-04-19T02:22:13Z</time>
      </trkpt>
      <trkpt lat="42.28591" lon="1.84883">
        <ele>1120.197</ele>
        <time>2019-04-19T02:22:52Z</time>
      </trkpt>
      <trkpt lat="42.28591" lon="1.84883">
        <ele>1120.03</ele>
        <time>2019-04-19T02:23:37Z</time>
      </trkpt>
      <trkpt lat="42.2859" lon="1.84883">
        <ele>1120.063</ele>
        <time>2019-04-19T02:24:15Z</time>
      </trkpt>
      <trkpt lat="42.28589" lon="1.84879">
        <ele>1120.046</ele>
        <time>2019-04-19T02:24:55Z</time>
      </trkpt>
      <trkpt lat="42.28589" lon="1.84886">
        <ele>1120.083</ele>
        <time>2019-04-19T02:25:32Z</time>
      </trkpt>
      <trkpt lat="42.28592" lon="1.8489">
        <ele>1120.025</ele>
        <time>2019-04-19T02:25:45Z</time>
      </trkpt>
      <trkpt lat="42.28592" lon="1.8489">
        <ele>1120.017</ele>
        <time>2019-04-19T02:26:07Z</time>
      </trkpt>
      <trkpt lat="42.28592" lon="1.8489">
        <ele>1120.108</ele>
        <time>2019-04-19T02:26:28Z</time>
      </trkpt>
      <trkpt lat="42.28592" lon="1.84888">
        <ele>1120.161</ele>
        <time>2019-04-19T02:26:59Z</time>
      </trkpt>
      <trkpt lat="42.28595" lon="1.84888">
        <ele>1120.053</ele>
        <time>2019-04-19T02:27:21Z</time>
      </trkpt>
      <trkpt lat="42.28593" lon="1.8489">
        <ele>1120.182</ele>
        <time>2019-04-19T02:27:48Z</time>
      </trkpt>
      <trkpt lat="42.28593" lon="1.84888">
        <ele>1120.04</ele>
        <time>2019-04-19T02:28:15Z</time>
      </trkpt>
      <trkpt lat="42.28593" lon="1.84889">
        <ele>1120.176</ele>
        <time>2019-04-19T02:28:41Z</time>
      </trkpt>
      <trkpt lat="42.28592" lon="1.8489">
        <ele>1120.149</ele>
        <time>2019-04-19T02:29:07Z</time>
      </trkpt>
      <trkpt lat="42.28592" lon="1.8489">
        <ele>1120.172</ele>
        <time>2019-04-19T02:29:22Z</time>
      </trkpt>
      <trkpt lat="42.2859" lon="1.8489">
        <ele>1120.115</ele>
        <time>2019-04-19T02:29:56Z</time>
      </trkpt>
      <trkpt lat="42.28589" lon="1.84891">
        <ele>1119.553</ele>
        <time>2019-04-19T02:30:27Z</time>
      </trkpt>
      <trkpt lat="42.28593" lon="1.84891">
        <ele>1119.504</ele>
        <time>2019-04-19T02:31:03Z</time>
      </trkpt>
      <trkpt lat="42.28589" lon="1.84889">
        <ele>1119.614</ele>
        <time>2019-04-19T02:31:29Z</time>
      </trkpt>
      <trkpt lat="42.28591" lon="1.84889">
        <ele>1119.608</ele>
        <time>2019-04-19T02:31:50Z</time>
      </trkpt>
      <trkpt lat="42.28594" lon="1.84889">
        <ele>1119.678</ele>
        <time>2019-04-19T02:32:16Z</time>
      </trkpt>
      <trkpt lat="42.28593" lon="1.84888">
        <ele>1119.69</ele>
        <time>2019-04-19T02:32:33Z</time>
      </trkpt>
      <trkpt lat="42.28593" lon="1.84889">
        <ele>1119.539</ele>
        <time>2019-04-19T02:33:03Z</time>
      </trkpt>
      <trkpt lat="42.28596" lon="1.84891">
        <ele>1121.047</ele>
        <time>2019-04-19T02:33:10Z</time>
      </trkpt>
      <trkpt lat="42.28602" lon="1.84894">
        <ele>1123.443</ele>
        <time>2019-04-19T02:33:23Z</time>
      </trkpt>
      <trkpt lat="42.28606" lon="1.84891">
        <ele>1126.916</ele>
        <time>2019-04-19T02:33:36Z</time>
      </trkpt>
      <trkpt lat="42.28609" lon="1.84878">
        <ele>1128.839</ele>
        <time>2019-04-19T02:33:52Z</time>
      </trkpt>
      <trkpt lat="42.28612" lon="1.84867">
        <ele>1131.622</ele>
        <time>2019-04-19T02:34:07Z</time>
      </trkpt>
      <trkpt lat="42.28619" lon="1.84858">
        <ele>1134.987</ele>
        <time>2019-04-19T02:34:24Z</time>
      </trkpt>
      <trkpt lat="42.28623" lon="1.84854">
        <ele>1136.942</ele>
        <time>2019-04-19T02:34:38Z</time>
      </trkpt>
      <trkpt lat="42.28631" lon="1.84852">
        <ele>1139.826</ele>
        <time>2019-04-19T02:34:53Z</time>
      </trkpt>
      <trkpt lat="42.28635" lon="1.84852">
        <ele>1142.208</ele>
        <time>2019-04-19T02:35:08Z</time>
      </trkpt>
      <trkpt lat="42.28642" lon="1.84851">
        <ele>1145.611</ele>
        <time>2019-04-19T02:35:26Z</time>
      </trkpt>
      <trkpt lat="42.28648" lon="1.84841">
        <ele>1148.093</ele>
        <time>2019-04-19T02:35:43Z</time>
      </trkpt>
      <trkpt lat="42.28653" lon="1.84843">
        <ele>1150.912</ele>
        <time>2019-04-19T02:35:58Z</time>
      </trkpt>
      <trkpt lat="42.2866" lon="1.84833">
        <ele>1153.72</ele>
        <time>2019-04-19T02:36:13Z</time>
      </trkpt>
      <trkpt lat="42.28664" lon="1.8483">
        <ele>1157.136</ele>
        <time>2019-04-19T02:36:29Z</time>
      </trkpt>
      <trkpt lat="42.28668" lon="1.84822">
        <ele>1160.539</ele>
        <time>2019-04-19T02:36:46Z</time>
      </trkpt>
      <trkpt lat="42.28675" lon="1.84812">
        <ele>1162.962</ele>
        <time>2019-04-19T02:37:02Z</time>
      </trkpt>
      <trkpt lat="42.28684" lon="1.84811">
        <ele>1166.235</ele>
        <time>2019-04-19T02:37:23Z</time>
      </trkpt>
      <trkpt lat="42.28688" lon="1.84801">
        <ele>1169.181</ele>
        <time>2019-04-19T02:37:40Z</time>
      </trkpt>
      <trkpt lat="42.28698" lon="1.84798">
        <ele>1172.461</ele>
        <time>2019-04-19T02:37:59Z</time>
      </trkpt>
      <trkpt lat="42.28707" lon="1.84795">
        <ele>1175.317</ele>
        <time>2019-04-19T02:38:19Z</time>
      </trkpt>
      <trkpt lat="42.28715" lon="1.84785">
        <ele>1178.308</ele>
        <time>2019-04-19T02:38:37Z</time>
      </trkpt>
      <trkpt lat="42.28723" lon="1.84774">
        <ele>1181.661</ele>
        <time>2019-04-19T02:38:57Z</time>
      </trkpt>
      <trkpt lat="42.28729" lon="1.84764">
        <ele>1184.053</ele>
        <time>2019-04-19T02:39:14Z</time>
      </trkpt>
      <trkpt lat="42.28738" lon="1.84761">
        <ele>1187.452</ele>
        <time>2019-04-19T02:39:30Z</time>
      </trkpt>
      <trkpt lat="42.28745" lon="1.84757">
        <ele>1190.33</ele>
        <time>2019-04-19T02:39:46Z</time>
      </trkpt>
      <trkpt lat="42.28756" lon="1.8475">
        <ele>1193.156</ele>
        <time>2019-04-19T02:40:04Z</time>
      </trkpt>
      <trkpt lat="42.28764" lon="1.84745">
        <ele>1195.639</ele>
        <time>2019-04-19T02:40:19Z</time>
      </trkpt>
      <trkpt lat="42.28776" lon="1.84743">
        <ele>1198.552</ele>
        <time>2019-04-19T02:40:36Z</time>
      </trkpt>
      <trkpt lat="42.28783" lon="1.84745">
        <ele>1201.395</ele>
        <time>2019-04-19T02:40:51Z</time>
      </trkpt>
      <trkpt lat="42.28794" lon="1.84744">
        <ele>1204.683</ele>
        <time>2019-04-19T02:41:09Z</time>
      </trkpt>
      <trkpt lat="42.28804" lon="1.84742">
        <ele>1208.025</ele>
        <time>2019-04-19T02:41:27Z</time>
      </trkpt>
      <trkpt lat="42.28812" lon="1.84736">
        <ele>1209.917</ele>
        <time>2019-04-19T02:41:42Z</time>
      </trkpt>
      <trkpt lat="42.2882" lon="1.8473">
        <ele>1213.408</ele>
        <time>2019-04-19T02:41:58Z</time>
      </trkpt>
      <trkpt lat="42.28825" lon="1.84718">
        <ele>1215.251</ele>
        <time>2019-04-19T02:42:13Z</time>
      </trkpt>
      <trkpt lat="42.28837" lon="1.84713">
        <ele>1217.753</ele>
        <time>2019-04-19T02:42:31Z</time>
      </trkpt>
      <trkpt lat="42.28848" lon="1.8471">
        <ele>1219.512</ele>
        <time>2019-04-19T02:42:47Z</time>
      </trkpt>
      <trkpt lat="42.28862" lon="1.84708">
        <ele>1221.43</ele>
        <time>2019-04-19T02:43:02Z</time>
      </trkpt>
      <trkpt lat="42.28872" lon="1.8471">
        <ele>1224.036</ele>
        <time>2019-04-19T02:43:18Z</time>
      </trkpt>
      <trkpt lat="42.28878" lon="1.84717">
        <ele>1226.859</ele>
        <time>2019-04-19T02:43:33Z</time>
      </trkpt>
      <trkpt lat="42.28886" lon="1.84724">
        <ele>1230.292</ele>
        <time>2019-04-19T02:43:50Z</time>
      </trkpt>
      <trkpt lat="42.28895" lon="1.84735">
        <ele>1233.685</ele>
        <time>2019-04-19T02:44:08Z</time>
      </trkpt>
      <trkpt lat="42.28899" lon="1.84745">
        <ele>1236.871</ele>
        <time>2019-04-19T02:44:28Z</time>
      </trkpt>
      <trkpt lat="42.28905" lon="1.84752">
        <ele>1239.741</ele>
        <time>2019-04-19T02:44:47Z</time>
      </trkpt>
      <trkpt lat="42.28909" lon="1.84758">
        <ele>1243.115</ele>
        <time>2019-04-19T02:45:07Z</time>
      </trkpt>
      <trkpt lat="42.28914" lon="1.84759">
        <ele>1246.408</ele>
        <time>2019-04-19T02:45:24Z</time>
      </trkpt>
      <trkpt lat="42.28919" lon="1.84753">
        <ele>1249.32</ele>
        <time>2019-04-19T02:45:43Z</time>
      </trkpt>
      <trkpt lat="42.28922" lon="1.84742">
        <ele>1252.292</ele>
        <time>2019-04-19T02:46:00Z</time>
      </trkpt>
      <trkpt lat="42.28924" lon="1.84737">
        <ele>1253.281</ele>
        <time>2019-04-19T02:46:07Z</time>
      </trkpt>
      <trkpt lat="42.2893" lon="1.8473">
        <ele>1254.249</ele>
        <time>2019-04-19T02:46:23Z</time>
      </trkpt>
      <trkpt lat="42.28933" lon="1.84733">
        <ele>1254.695</ele>
        <time>2019-04-19T02:46:49Z</time>
      </trkpt>
      <trkpt lat="42.28932" lon="1.84731">
        <ele>1254.738</ele>
        <time>2019-04-19T02:47:20Z</time>
      </trkpt>
      <trkpt lat="42.28928" lon="1.84731">
        <ele>1254.131</ele>
        <time>2019-04-19T02:47:50Z</time>
      </trkpt>
      <trkpt lat="42.28926" lon="1.84726">
        <ele>1254.194</ele>
        <time>2019-04-19T02:48:26Z</time>
      </trkpt>
      <trkpt lat="42.28936" lon="1.84725">
        <ele>1255.168</ele>
        <time>2019-04-19T02:48:45Z</time>
      </trkpt>
      <trkpt lat="42.28944" lon="1.84723">
        <ele>1257.542</ele>
        <time>2019-04-19T02:49:02Z</time>
      </trkpt>
      <trkpt lat="42.2895" lon="1.84718">
        <ele>1260.026</ele>
        <time>2019-04-19T02:49:18Z</time>
      </trkpt>
      <trkpt lat="42.28953" lon="1.84722">
        <ele>1262.908</ele>
        <time>2019-04-19T02:49:31Z</time>
      </trkpt>
      <trkpt lat="42.28954" lon="1.84727">
        <ele>1264.879</ele>
        <time>2019-04-19T02:49:45Z</time>
      </trkpt>
      <trkpt lat="42.2896" lon="1.84739">
        <ele>1267.731</ele>
        <time>2019-04-19T02:50:06Z</time>
      </trkpt>
      <trkpt lat="42.28959" lon="1.84753">
        <ele>1270.67</ele>
        <time>2019-04-19T02:50:26Z</time>
      </trkpt>
      <trkpt lat="42.28959" lon="1.84759">
        <ele>1272.058</ele>
        <time>2019-04-19T02:50:38Z</time>
      </trkpt>
      <trkpt lat="42.28965" lon="1.8476">
        <ele>1274.494</ele>
        <time>2019-04-19T02:50:52Z</time>
      </trkpt>
      <trkpt lat="42.28968" lon="1.84766">
        <ele>1277.347</ele>
        <time>2019-04-19T02:51:08Z</time>
      </trkpt>
      <trkpt lat="42.28975" lon="1.84766">
        <ele>1279.27</ele>
        <time>2019-04-19T02:51:22Z</time>
      </trkpt>
      <trkpt lat="42.2898" lon="1.84762">
        <ele>1282.593</ele>
        <time>2019-04-19T02:51:34Z</time>
      </trkpt>
      <trkpt lat="42.2899" lon="1.84765">
        <ele>1285.444</ele>
        <time>2019-04-19T02:51:49Z</time>
      </trkpt>
      <trkpt lat="42.28996" lon="1.84762">
        <ele>1287.305</ele>
        <time>2019-04-19T02:52:02Z</time>
      </trkpt>
      <trkpt lat="42.29007" lon="1.84764">
        <ele>1290.715</ele>
        <time>2019-04-19T02:52:18Z</time>
      </trkpt>
      <trkpt lat="42.2901" lon="1.84775">
        <ele>1293.508</ele>
        <time>2019-04-19T02:52:38Z</time>
      </trkpt>
      <trkpt lat="42.29011" lon="1.84782">
        <ele>1296.487</ele>
        <time>2019-04-19T02:52:52Z</time>
      </trkpt>
      <trkpt lat="42.29019" lon="1.84787">
        <ele>1298.969</ele>
        <time>2019-04-19T02:53:08Z</time>
      </trkpt>
      <trkpt lat="42.29022" lon="1.84798">
        <ele>1302.248</ele>
        <time>2019-04-19T02:53:24Z</time>
      </trkpt>
      <trkpt lat="42.29018" lon="1.84812">
        <ele>1304.656</ele>
        <time>2019-04-19T02:53:41Z</time>
      </trkpt>
      <trkpt lat="42.29025" lon="1.84814">
        <ele>1307.612</ele>
        <time>2019-04-19T02:53:56Z</time>
      </trkpt>
      <trkpt lat="42.29034" lon="1.8481">
        <ele>1309.485</ele>
        <time>2019-04-19T02:54:10Z</time>
      </trkpt>
      <trkpt lat="42.29039" lon="1.84801">
        <ele>1311.928</ele>
        <time>2019-04-19T02:54:22Z</time>
      </trkpt>
      <trkpt lat="42.29047" lon="1.84789">
        <ele>1313.771</ele>
        <time>2019-04-19T02:54:39Z</time>
      </trkpt>
      <trkpt lat="42.29056" lon="1.84794">
        <ele>1316.611</ele>
        <time>2019-04-19T02:54:58Z</time>
      </trkpt>
      <trkpt lat="42.29073" lon="1.84799">
        <ele>1319.021</ele>
        <time>2019-04-19T02:55:15Z</time>
      </trkpt>
      <trkpt lat="42.29086" lon="1.8481">
        <ele>1321.003</ele>
        <time>2019-04-19T02:55:31Z</time>
      </trkpt>
      <trkpt lat="42.29097" lon="1.84815">
        <ele>1322.908</ele>
        <time>2019-04-19T02:55:44Z</time>
      </trkpt>
      <trkpt lat="42.2911" lon="1.84814">
        <ele>1325.844</ele>
        <time>2019-04-19T02:55:59Z</time>
      </trkpt>
      <trkpt lat="42.29125" lon="1.84812">
        <ele>1328.356</ele>
        <time>2019-04-19T02:56:16Z</time>
      </trkpt>
      <trkpt lat="42.29135" lon="1.84818">
        <ele>1329.635</ele>
        <time>2019-04-19T02:56:31Z</time>
      </trkpt>
      <trkpt lat="42.29153" lon="1.84817">
        <ele>1332.693</ele>
        <time>2019-04-19T02:56:51Z</time>
      </trkpt>
      <trkpt lat="42.29169" lon="1.84825">
        <ele>1335.029</ele>
        <time>2019-04-19T02:57:09Z</time>
      </trkpt>
      <trkpt lat="42.2919" lon="1.84826">
        <ele>1336.362</ele>
        <time>2019-04-19T02:57:23Z</time>
      </trkpt>
      <trkpt lat="42.29203" lon="1.84824">
        <ele>1339.225</ele>
        <time>2019-04-19T02:57:38Z</time>
      </trkpt>
      <trkpt lat="42.29216" lon="1.84829">
        <ele>1342.228</ele>
        <time>2019-04-19T02:57:55Z</time>
      </trkpt>
      <trkpt lat="42.29229" lon="1.8483">
        <ele>1345.061</ele>
        <time>2019-04-19T02:58:09Z</time>
      </trkpt>
      <trkpt lat="42.29243" lon="1.8482">
        <ele>1347.921</ele>
        <time>2019-04-19T02:58:26Z</time>
      </trkpt>
      <trkpt lat="42.29254" lon="1.84814">
        <ele>1351.213</ele>
        <time>2019-04-19T02:58:42Z</time>
      </trkpt>
      <trkpt lat="42.29266" lon="1.84812">
        <ele>1354.708</ele>
        <time>2019-04-19T02:58:57Z</time>
      </trkpt>
      <trkpt lat="42.2927" lon="1.84806">
        <ele>1357.569</ele>
        <time>2019-04-19T02:59:13Z</time>
      </trkpt>
      <trkpt lat="42.29271" lon="1.84796">
        <ele>1360.051</ele>
        <time>2019-04-19T02:59:31Z</time>
      </trkpt>
      <trkpt lat="42.29275" lon="1.84788">
        <ele>1361.97</ele>
        <time>2019-04-19T02:59:49Z</time>
      </trkpt>
      <trkpt lat="42.29281" lon="1.84787">
        <ele>1365.358</ele>
        <time>2019-04-19T03:00:03Z</time>
      </trkpt>
      <trkpt lat="42.29287" lon="1.84784">
        <ele>1367.714</ele>
        <time>2019-04-19T03:00:12Z</time>
      </trkpt>
      <trkpt lat="42.29295" lon="1.84777">
        <ele>1368.517</ele>
        <time>2019-04-19T03:00:25Z</time>
      </trkpt>
      <trkpt lat="42.29303" lon="1.84778">
        <ele>1371.53</ele>
        <time>2019-04-19T03:00:44Z</time>
      </trkpt>
      <trkpt lat="42.29307" lon="1.84779">
        <ele>1373.053</ele>
        <time>2019-04-19T03:01:01Z</time>
      </trkpt>
      <trkpt lat="42.29313" lon="1.84777">
        <ele>1372.929</ele>
        <time>2019-04-19T03:01:29Z</time>
      </trkpt>
      <trkpt lat="42.29317" lon="1.84776">
        <ele>1372.9</ele>
        <time>2019-04-19T03:02:01Z</time>
      </trkpt>
      <trkpt lat="42.29319" lon="1.84774">
        <ele>1373.32</ele>
        <time>2019-04-19T03:02:31Z</time>
      </trkpt>
      <trkpt lat="42.29329" lon="1.84778">
        <ele>1377.208</ele>
        <time>2019-04-19T03:02:46Z</time>
      </trkpt>
      <trkpt lat="42.29333" lon="1.84779">
        <ele>1378.715</ele>
        <time>2019-04-19T03:03:05Z</time>
      </trkpt>
      <trkpt lat="42.29338" lon="1.8478">
        <ele>1380.637</ele>
        <time>2019-04-19T03:03:21Z</time>
      </trkpt>
      <trkpt lat="42.29336" lon="1.84788">
        <ele>1383.066</ele>
        <time>2019-04-19T03:03:38Z</time>
      </trkpt>
      <trkpt lat="42.29338" lon="1.84797">
        <ele>1386.314</ele>
        <time>2019-04-19T03:03:54Z</time>
      </trkpt>
      <trkpt lat="42.29334" lon="1.84806">
        <ele>1387.81</ele>
        <time>2019-04-19T03:04:09Z</time>
      </trkpt>
      <trkpt lat="42.29334" lon="1.84819">
        <ele>1390.263</ele>
        <time>2019-04-19T03:04:25Z</time>
      </trkpt>
      <trkpt lat="42.29342" lon="1.8483">
        <ele>1392.746</ele>
        <time>2019-04-19T03:04:42Z</time>
      </trkpt>
      <trkpt lat="42.29346" lon="1.84835">
        <ele>1394.679</ele>
        <time>2019-04-19T03:04:57Z</time>
      </trkpt>
      <trkpt lat="42.29354" lon="1.84833">
        <ele>1396.957</ele>
        <time>2019-04-19T03:05:11Z</time>
      </trkpt>
      <trkpt lat="42.2936" lon="1.84825">
        <ele>1399.3</ele>
        <time>2019-04-19T03:05:27Z</time>
      </trkpt>
      <trkpt lat="42.29365" lon="1.8482">
        <ele>1400.82</ele>
        <time>2019-04-19T03:05:36Z</time>
      </trkpt>
      <trkpt lat="42.2937" lon="1.8482">
        <ele>1401.308</ele>
        <time>2019-04-19T03:05:40Z</time>
      </trkpt>
      <trkpt lat="42.29377" lon="1.84816">
        <ele>1403.618</ele>
        <time>2019-04-19T03:05:54Z</time>
      </trkpt>
      <trkpt lat="42.29386" lon="1.84816">
        <ele>1406.61</ele>
        <time>2019-04-19T03:06:09Z</time>
      </trkpt>
      <trkpt lat="42.29392" lon="1.84813">
        <ele>1408.589</ele>
        <time>2019-04-19T03:06:22Z</time>
      </trkpt>
      <trkpt lat="42.29398" lon="1.84813">
        <ele>1411.367</ele>
        <time>2019-04-19T03:06:38Z</time>
      </trkpt>
      <trkpt lat="42.29405" lon="1.84812">
        <ele>1413.863</ele>
        <time>2019-04-19T03:06:51Z</time>
      </trkpt>
      <trkpt lat="42.29413" lon="1.84807">
        <ele>1416.776</ele>
        <time>2019-04-19T03:07:05Z</time>
      </trkpt>
      <trkpt lat="42.29423" lon="1.84803">
        <ele>1419.629</ele>
        <time>2019-04-19T03:07:20Z</time>
      </trkpt>
      <trkpt lat="42.29429" lon="1.84804">
        <ele>1421.992</ele>
        <time>2019-04-19T03:07:36Z</time>
      </trkpt>
      <trkpt lat="42.2943" lon="1.84805">
        <ele>1422.839</ele>
        <time>2019-04-19T03:07:39Z</time>
      </trkpt>
      <trkpt lat="42.29437" lon="1.84806">
        <ele>1424.801</ele>
        <time>2019-04-19T03:07:51Z</time>
      </trkpt>
      <trkpt lat="42.29446" lon="1.84804">
        <ele>1427.821</ele>
        <time>2019-04-19T03:08:09Z</time>
      </trkpt>
      <trkpt lat="42.29454" lon="1.84803">
        <ele>1429.608</ele>
        <time>2019-04-19T03:08:23Z</time>
      </trkpt>
      <trkpt lat="42.29464" lon="1.84803">
        <ele>1433.046</ele>
        <time>2019-04-19T03:08:39Z</time>
      </trkpt>
      <trkpt lat="42.2947" lon="1.84803">
        <ele>1435.868</ele>
        <time>2019-04-19T03:08:54Z</time>
      </trkpt>
      <trkpt lat="42.29474" lon="1.84797">
        <ele>1438.867</ele>
        <time>2019-04-19T03:09:07Z</time>
      </trkpt>
      <trkpt lat="42.2948" lon="1.84798">
        <ele>1441.625</ele>
        <time>2019-04-19T03:09:21Z</time>
      </trkpt>
      <trkpt lat="42.2949" lon="1.84793">
        <ele>1443.131</ele>
        <time>2019-04-19T03:09:34Z</time>
      </trkpt>
      <trkpt lat="42.29499" lon="1.84787">
        <ele>1446.594</ele>
        <time>2019-04-19T03:09:48Z</time>
      </trkpt>
      <trkpt lat="42.29505" lon="1.84781">
        <ele>1449.447</ele>
        <time>2019-04-19T03:10:05Z</time>
      </trkpt>
      <trkpt lat="42.29508" lon="1.84775">
        <ele>1452.25</ele>
        <time>2019-04-19T03:10:17Z</time>
      </trkpt>
      <trkpt lat="42.29515" lon="1.84768">
        <ele>1454.667</ele>
        <time>2019-04-19T03:10:36Z</time>
      </trkpt>
      <trkpt lat="42.29522" lon="1.84763">
        <ele>1457.981</ele>
        <time>2019-04-19T03:10:51Z</time>
      </trkpt>
      <trkpt lat="42.29527" lon="1.84753">
        <ele>1460.019</ele>
        <time>2019-04-19T03:11:04Z</time>
      </trkpt>
      <trkpt lat="42.29534" lon="1.84748">
        <ele>1462.408</ele>
        <time>2019-04-19T03:11:18Z</time>
      </trkpt>
      <trkpt lat="42.29542" lon="1.84742">
        <ele>1464.789</ele>
        <time>2019-04-19T03:11:33Z</time>
      </trkpt>
      <trkpt lat="42.2955" lon="1.84737">
        <ele>1468.071</ele>
        <time>2019-04-19T03:11:49Z</time>
      </trkpt>
      <trkpt lat="42.29559" lon="1.84733">
        <ele>1470.94</ele>
        <time>2019-04-19T03:12:05Z</time>
      </trkpt>
      <trkpt lat="42.29565" lon="1.84725">
        <ele>1472.488</ele>
        <time>2019-04-19T03:12:19Z</time>
      </trkpt>
      <trkpt lat="42.29573" lon="1.84717">
        <ele>1474.954</ele>
        <time>2019-04-19T03:12:34Z</time>
      </trkpt>
      <trkpt lat="42.29578" lon="1.84709">
        <ele>1477.257</ele>
        <time>2019-04-19T03:12:45Z</time>
      </trkpt>
      <trkpt lat="42.29589" lon="1.84702">
        <ele>1479.26</ele>
        <time>2019-04-19T03:13:00Z</time>
      </trkpt>
      <trkpt lat="42.29596" lon="1.84698">
        <ele>1480.643</ele>
        <time>2019-04-19T03:13:12Z</time>
      </trkpt>
      <trkpt lat="42.29607" lon="1.84699">
        <ele>1481.083</ele>
        <time>2019-04-19T03:13:24Z</time>
      </trkpt>
      <trkpt lat="42.29617" lon="1.84702">
        <ele>1481.025</ele>
        <time>2019-04-19T03:13:34Z</time>
      </trkpt>
      <trkpt lat="42.29626" lon="1.84703">
        <ele>1479.717</ele>
        <time>2019-04-19T03:13:42Z</time>
      </trkpt>
      <trkpt lat="42.2964" lon="1.84703">
        <ele>1480.508</ele>
        <time>2019-04-19T03:13:56Z</time>
      </trkpt>
      <trkpt lat="42.29649" lon="1.84701">
        <ele>1480.621</ele>
        <time>2019-04-19T03:14:03Z</time>
      </trkpt>
      <trkpt lat="42.29666" lon="1.84693">
        <ele>1481.523</ele>
        <time>2019-04-19T03:14:19Z</time>
      </trkpt>
      <trkpt lat="42.29684" lon="1.84684">
        <ele>1482.442</ele>
        <time>2019-04-19T03:14:35Z</time>
      </trkpt>
      <trkpt lat="42.29687" lon="1.84683">
        <ele>1482.42</ele>
        <time>2019-04-19T03:14:37Z</time>
      </trkpt>
      <trkpt lat="42.297" lon="1.84676">
        <ele>1484.036</ele>
        <time>2019-04-19T03:14:51Z</time>
      </trkpt>
      <trkpt lat="42.29712" lon="1.84668">
        <ele>1485.969</ele>
        <time>2019-04-19T03:15:06Z</time>
      </trkpt>
      <trkpt lat="42.2972" lon="1.84658">
        <ele>1488.382</ele>
        <time>2019-04-19T03:15:17Z</time>
      </trkpt>
      <trkpt lat="42.29728" lon="1.84651">
        <ele>1491.635</ele>
        <time>2019-04-19T03:15:33Z</time>
      </trkpt>
      <trkpt lat="42.29739" lon="1.84643">
        <ele>1494.012</ele>
        <time>2019-04-19T03:15:50Z</time>
      </trkpt>
      <trkpt lat="42.2975" lon="1.84633">
        <ele>1495.932</ele>
        <time>2019-04-19T03:16:06Z</time>
      </trkpt>
      <trkpt lat="42.29758" lon="1.84615">
        <ele>1497.405</ele>
        <time>2019-04-19T03:16:20Z</time>
      </trkpt>
      <trkpt lat="42.2977" lon="1.84602">
        <ele>1499.408</ele>
        <time>2019-04-19T03:16:35Z</time>
      </trkpt>
      <trkpt lat="42.2977" lon="1.84602">
        <ele>1499.454</ele>
        <time>2019-04-19T03:16:36Z</time>
      </trkpt>
      <trkpt lat="42.29779" lon="1.84595">
        <ele>1501.296</ele>
        <time>2019-04-19T03:16:49Z</time>
      </trkpt>
      <trkpt lat="42.29785" lon="1.84583">
        <ele>1503.285</ele>
        <time>2019-04-19T03:17:03Z</time>
      </trkpt>
      <trkpt lat="42.29794" lon="1.84581">
        <ele>1506.013</ele>
        <time>2019-04-19T03:17:18Z</time>
      </trkpt>
      <trkpt lat="42.29797" lon="1.84584">
        <ele>1509.539</ele>
        <time>2019-04-19T03:17:30Z</time>
      </trkpt>
      <trkpt lat="42.29799" lon="1.84585">
        <ele>1512.722</ele>
        <time>2019-04-19T03:17:47Z</time>
      </trkpt>
      <trkpt lat="42.30145" lon="1.84264">
        <ele>1645.925</ele>
        <time>2019-04-19T03:33:36Z</time>
      </trkpt>
      <trkpt lat="42.30107" lon="1.84257">
        <ele>1645.978</ele>
        <time>2019-04-19T03:34:05Z</time>
      </trkpt>
      <trkpt lat="42.30094" lon="1.84246">
        <ele>1645.916</ele>
        <time>2019-04-19T03:34:34Z</time>
      </trkpt>
      <trkpt lat="42.30084" lon="1.84244">
        <ele>1645.976</ele>
        <time>2019-04-19T03:35:06Z</time>
      </trkpt>
      <trkpt lat="42.30084" lon="1.84242">
        <ele>1646.013</ele>
        <time>2019-04-19T03:35:26Z</time>
      </trkpt>
      <trkpt lat="42.30079" lon="1.84235">
        <ele>1646.908</ele>
        <time>2019-04-19T03:35:49Z</time>
      </trkpt>
      <trkpt lat="42.30074" lon="1.84227">
        <ele>1648.344</ele>
        <time>2019-04-19T03:36:03Z</time>
      </trkpt>
      <trkpt lat="42.30074" lon="1.84224">
        <ele>1650.736</ele>
        <time>2019-04-19T03:36:18Z</time>
      </trkpt>
      <trkpt lat="42.30078" lon="1.84231">
        <ele>1654.125</ele>
        <time>2019-04-19T03:36:35Z</time>
      </trkpt>
      <trkpt lat="42.30084" lon="1.84236">
        <ele>1656.553</ele>
        <time>2019-04-19T03:36:52Z</time>
      </trkpt>
      <trkpt lat="42.30086" lon="1.84225">
        <ele>1659.499</ele>
        <time>2019-04-19T03:37:08Z</time>
      </trkpt>
      <trkpt lat="42.30086" lon="1.84223">
        <ele>1661.872</ele>
        <time>2019-04-19T03:37:22Z</time>
      </trkpt>
      <trkpt lat="42.30086" lon="1.84222">
        <ele>1664.765</ele>
        <time>2019-04-19T03:37:35Z</time>
      </trkpt>
      <trkpt lat="42.3009" lon="1.84205">
        <ele>1667.048</ele>
        <time>2019-04-19T03:37:49Z</time>
      </trkpt>
      <trkpt lat="42.30089" lon="1.84198">
        <ele>1669.428</ele>
        <time>2019-04-19T03:38:04Z</time>
      </trkpt>
      <trkpt lat="42.30093" lon="1.84206">
        <ele>1673.389</ele>
        <time>2019-04-19T03:38:22Z</time>
      </trkpt>
      <trkpt lat="42.30095" lon="1.84215">
        <ele>1675.817</ele>
        <time>2019-04-19T03:38:37Z</time>
      </trkpt>
      <trkpt lat="42.301" lon="1.84219">
        <ele>1679.008</ele>
        <time>2019-04-19T03:38:52Z</time>
      </trkpt>
      <trkpt lat="42.30103" lon="1.84224">
        <ele>1681.535</ele>
        <time>2019-04-19T03:39:06Z</time>
      </trkpt>
      <trkpt lat="42.3011" lon="1.84227">
        <ele>1684.897</ele>
        <time>2019-04-19T03:39:21Z</time>
      </trkpt>
      <trkpt lat="42.30116" lon="1.84223">
        <ele>1688.746</ele>
        <time>2019-04-19T03:39:37Z</time>
      </trkpt>
      <trkpt lat="42.30125" lon="1.84209">
        <ele>1691.114</ele>
        <time>2019-04-19T03:39:53Z</time>
      </trkpt>
      <trkpt lat="42.3013" lon="1.84209">
        <ele>1694.43</ele>
        <time>2019-04-19T03:40:13Z</time>
      </trkpt>
      <trkpt lat="42.30136" lon="1.84206">
        <ele>1697.973</ele>
        <time>2019-04-19T03:40:29Z</time>
      </trkpt>
      <trkpt lat="42.30138" lon="1.84196">
        <ele>1700.886</ele>
        <time>2019-04-19T03:40:44Z</time>
      </trkpt>
      <trkpt lat="42.30141" lon="1.84193">
        <ele>1704.559</ele>
        <time>2019-04-19T03:41:00Z</time>
      </trkpt>
      <trkpt lat="42.30141" lon="1.84188">
        <ele>1706.467</ele>
        <time>2019-04-19T03:41:13Z</time>
      </trkpt>
      <trkpt lat="42.30149" lon="1.84185">
        <ele>1709.881</ele>
        <time>2019-04-19T03:41:29Z</time>
      </trkpt>
      <trkpt lat="42.30155" lon="1.84181">
        <ele>1712.819</ele>
        <time>2019-04-19T03:41:44Z</time>
      </trkpt>
      <trkpt lat="42.30155" lon="1.84168">
        <ele>1715.708</ele>
        <time>2019-04-19T03:41:58Z</time>
      </trkpt>
      <trkpt lat="42.30149" lon="1.84159">
        <ele>1718.179</ele>
        <time>2019-04-19T03:42:15Z</time>
      </trkpt>
      <trkpt lat="42.30142" lon="1.84154">
        <ele>1720.441</ele>
        <time>2019-04-19T03:42:31Z</time>
      </trkpt>
      <trkpt lat="42.30145" lon="1.84155">
        <ele>1722.88</ele>
        <time>2019-04-19T03:42:43Z</time>
      </trkpt>
      <trkpt lat="42.30153" lon="1.84156">
        <ele>1725.238</ele>
        <time>2019-04-19T03:42:58Z</time>
      </trkpt>
      <trkpt lat="42.30164" lon="1.84158">
        <ele>1727.764</ele>
        <time>2019-04-19T03:43:13Z</time>
      </trkpt>
      <trkpt lat="42.30174" lon="1.84159">
        <ele>1730.957</ele>
        <time>2019-04-19T03:43:28Z</time>
      </trkpt>
      <trkpt lat="42.30183" lon="1.84161">
        <ele>1733.06</ele>
        <time>2019-04-19T03:43:43Z</time>
      </trkpt>
      <trkpt lat="42.3019" lon="1.84169">
        <ele>1735.363</ele>
        <time>2019-04-19T03:43:58Z</time>
      </trkpt>
      <trkpt lat="42.302" lon="1.84175">
        <ele>1736.763</ele>
        <time>2019-04-19T03:44:14Z</time>
      </trkpt>
      <trkpt lat="42.30203" lon="1.84192">
        <ele>1738.244</ele>
        <time>2019-04-19T03:44:29Z</time>
      </trkpt>
      <trkpt lat="42.30208" lon="1.84201">
        <ele>1741.018</ele>
        <time>2019-04-19T03:44:43Z</time>
      </trkpt>
      <trkpt lat="42.3021" lon="1.84213">
        <ele>1743.508</ele>
        <time>2019-04-19T03:44:59Z</time>
      </trkpt>
      <trkpt lat="42.30213" lon="1.84219">
        <ele>1742.559</ele>
        <time>2019-04-19T03:45:15Z</time>
      </trkpt>
      <trkpt lat="42.30213" lon="1.84221">
        <ele>1742.551</ele>
        <time>2019-04-19T03:45:39Z</time>
      </trkpt>
      <trkpt lat="42.30222" lon="1.84225">
        <ele>1745.04</ele>
        <time>2019-04-19T03:45:54Z</time>
      </trkpt>
      <trkpt lat="42.3023" lon="1.84233">
        <ele>1747.318</ele>
        <time>2019-04-19T03:46:09Z</time>
      </trkpt>
      <trkpt lat="42.30237" lon="1.84239">
        <ele>1750.314</ele>
        <time>2019-04-19T03:46:22Z</time>
      </trkpt>
      <trkpt lat="42.30245" lon="1.84248">
        <ele>1752.287</ele>
        <time>2019-04-19T03:46:36Z</time>
      </trkpt>
      <trkpt lat="42.30247" lon="1.84245">
        <ele>1755.14</ele>
        <time>2019-04-19T03:46:52Z</time>
      </trkpt>
      <trkpt lat="42.3025" lon="1.8424">
        <ele>1758.023</ele>
        <time>2019-04-19T03:47:07Z</time>
      </trkpt>
      <trkpt lat="42.30254" lon="1.84248">
        <ele>1759.874</ele>
        <time>2019-04-19T03:47:24Z</time>
      </trkpt>
      <trkpt lat="42.3026" lon="1.8426">
        <ele>1762.756</ele>
        <time>2019-04-19T03:47:41Z</time>
      </trkpt>
      <trkpt lat="42.30262" lon="1.84273">
        <ele>1765.121</ele>
        <time>2019-04-19T03:47:57Z</time>
      </trkpt>
      <trkpt lat="42.30268" lon="1.84276">
        <ele>1768.508</ele>
        <time>2019-04-19T03:48:09Z</time>
      </trkpt>
      <trkpt lat="42.30274" lon="1.84283">
        <ele>1771.39</ele>
        <time>2019-04-19T03:48:25Z</time>
      </trkpt>
      <trkpt lat="42.30276" lon="1.84294">
        <ele>1774.892</ele>
        <time>2019-04-19T03:48:41Z</time>
      </trkpt>
      <trkpt lat="42.30276" lon="1.84308">
        <ele>1777.741</ele>
        <time>2019-04-19T03:48:59Z</time>
      </trkpt>
      <trkpt lat="42.30288" lon="1.84303">
        <ele>1780.989</ele>
        <time>2019-04-19T03:49:15Z</time>
      </trkpt>
      <trkpt lat="42.30293" lon="1.84307">
        <ele>1784.365</ele>
        <time>2019-04-19T03:49:29Z</time>
      </trkpt>
      <trkpt lat="42.30295" lon="1.84317">
        <ele>1786.728</ele>
        <time>2019-04-19T03:49:42Z</time>
      </trkpt>
      <trkpt lat="42.30301" lon="1.84316">
        <ele>1789.111</ele>
        <time>2019-04-19T03:49:57Z</time>
      </trkpt>
      <trkpt lat="42.30304" lon="1.84317">
        <ele>1792.574</ele>
        <time>2019-04-19T03:50:11Z</time>
      </trkpt>
      <trkpt lat="42.30309" lon="1.8432">
        <ele>1795.893</ele>
        <time>2019-04-19T03:50:30Z</time>
      </trkpt>
      <trkpt lat="42.30315" lon="1.84314">
        <ele>1798.265</ele>
        <time>2019-04-19T03:50:45Z</time>
      </trkpt>
      <trkpt lat="42.30323" lon="1.84309">
        <ele>1801.121</ele>
        <time>2019-04-19T03:51:02Z</time>
      </trkpt>
      <trkpt lat="42.3033" lon="1.84304">
        <ele>1804.008</ele>
        <time>2019-04-19T03:51:18Z</time>
      </trkpt>
      <trkpt lat="42.30333" lon="1.84295">
        <ele>1805.052</ele>
        <time>2019-04-19T03:51:31Z</time>
      </trkpt>
      <trkpt lat="42.30332" lon="1.84293">
        <ele>1805.164</ele>
        <time>2019-04-19T03:51:46Z</time>
      </trkpt>
      <trkpt lat="42.30332" lon="1.84291">
        <ele>1805.123</ele>
        <time>2019-04-19T03:52:03Z</time>
      </trkpt>
      <trkpt lat="42.30326" lon="1.8429">
        <ele>1805.061</ele>
        <time>2019-04-19T03:52:23Z</time>
      </trkpt>
      <trkpt lat="42.30327" lon="1.84291">
        <ele>1803.677</ele>
        <time>2019-04-19T03:52:42Z</time>
      </trkpt>
      <trkpt lat="42.30328" lon="1.84291">
        <ele>1804.58</ele>
        <time>2019-04-19T03:52:43Z</time>
      </trkpt>
      <trkpt lat="42.30329" lon="1.84292">
        <ele>1804.623</ele>
        <time>2019-04-19T03:53:05Z</time>
      </trkpt>
      <trkpt lat="42.30332" lon="1.84292">
        <ele>1804.526</ele>
        <time>2019-04-19T03:53:27Z</time>
      </trkpt>
      <trkpt lat="42.30329" lon="1.84292">
        <ele>1804.575</ele>
        <time>2019-04-19T03:53:44Z</time>
      </trkpt>
      <trkpt lat="42.3033" lon="1.84291">
        <ele>1804.528</ele>
        <time>2019-04-19T03:54:09Z</time>
      </trkpt>
      <trkpt lat="42.30332" lon="1.84291">
        <ele>1803.52</ele>
        <time>2019-04-19T03:54:34Z</time>
      </trkpt>
      <trkpt lat="42.30331" lon="1.84291">
        <ele>1803.508</ele>
        <time>2019-04-19T03:54:53Z</time>
      </trkpt>
      <trkpt lat="42.30332" lon="1.84292">
        <ele>1803.54</ele>
        <time>2019-04-19T03:55:16Z</time>
      </trkpt>
      <trkpt lat="42.30332" lon="1.84287">
        <ele>1803.572</ele>
        <time>2019-04-19T03:55:33Z</time>
      </trkpt>
      <trkpt lat="42.30327" lon="1.84269">
        <ele>1803.681</ele>
        <time>2019-04-19T03:55:52Z</time>
      </trkpt>
      <trkpt lat="42.30325" lon="1.84254">
        <ele>1806.419</ele>
        <time>2019-04-19T03:56:08Z</time>
      </trkpt>
      <trkpt lat="42.30327" lon="1.84244">
        <ele>1808.845</ele>
        <time>2019-04-19T03:56:21Z</time>
      </trkpt>
      <trkpt lat="42.30327" lon="1.84234">
        <ele>1810.868</ele>
        <time>2019-04-19T03:56:35Z</time>
      </trkpt>
      <trkpt lat="42.30327" lon="1.84219">
        <ele>1811.711</ele>
        <time>2019-04-19T03:56:49Z</time>
      </trkpt>
      <trkpt lat="42.30326" lon="1.84216">
        <ele>1810.354</ele>
        <time>2019-04-19T03:56:52Z</time>
      </trkpt>
      <trkpt lat="42.30326" lon="1.84203">
        <ele>1812.283</ele>
        <time>2019-04-19T03:57:06Z</time>
      </trkpt>
      <trkpt lat="42.30323" lon="1.84189">
        <ele>1813.125</ele>
        <time>2019-04-19T03:57:19Z</time>
      </trkpt>
      <trkpt lat="42.30322" lon="1.84176">
        <ele>1814.217</ele>
        <time>2019-04-19T03:57:31Z</time>
      </trkpt>
      <trkpt lat="42.30318" lon="1.84167">
        <ele>1815.508</ele>
        <time>2019-04-19T03:57:43Z</time>
      </trkpt>
      <trkpt lat="42.3032" lon="1.84157">
        <ele>1818.051</ele>
        <time>2019-04-19T03:57:57Z</time>
      </trkpt>
      <trkpt lat="42.30318" lon="1.84144">
        <ele>1820.493</ele>
        <time>2019-04-19T03:58:10Z</time>
      </trkpt>
      <trkpt lat="42.30312" lon="1.84135">
        <ele>1821.922</ele>
        <time>2019-04-19T03:58:23Z</time>
      </trkpt>
      <trkpt lat="42.30304" lon="1.84127">
        <ele>1823.84</ele>
        <time>2019-04-19T03:58:36Z</time>
      </trkpt>
      <trkpt lat="42.30302" lon="1.84125">
        <ele>1823.896</ele>
        <time>2019-04-19T03:58:38Z</time>
      </trkpt>
      <trkpt lat="42.30297" lon="1.84115">
        <ele>1824.789</ele>
        <time>2019-04-19T03:58:50Z</time>
      </trkpt>
      <trkpt lat="42.30297" lon="1.84113">
        <ele>1824.742</ele>
        <time>2019-04-19T03:58:51Z</time>
      </trkpt>
      <trkpt lat="42.30292" lon="1.84097">
        <ele>1824.895</ele>
        <time>2019-04-19T03:59:04Z</time>
      </trkpt>
      <trkpt lat="42.30287" lon="1.84081">
        <ele>1827.137</ele>
        <time>2019-04-19T03:59:20Z</time>
      </trkpt>
      <trkpt lat="42.30275" lon="1.84074">
        <ele>1829.049</ele>
        <time>2019-04-19T03:59:34Z</time>
      </trkpt>
      <trkpt lat="42.30269" lon="1.84062">
        <ele>1831.413</ele>
        <time>2019-04-19T03:59:48Z</time>
      </trkpt>
      <trkpt lat="42.30266" lon="1.8405">
        <ele>1833.808</ele>
        <time>2019-04-19T04:00:02Z</time>
      </trkpt>
      <trkpt lat="42.30265" lon="1.84037">
        <ele>1836.246</ele>
        <time>2019-04-19T04:00:16Z</time>
      </trkpt>
      <trkpt lat="42.30264" lon="1.84023">
        <ele>1839.148</ele>
        <time>2019-04-19T04:00:30Z</time>
      </trkpt>
      <trkpt lat="42.30263" lon="1.84008">
        <ele>1842.527</ele>
        <time>2019-04-19T04:00:48Z</time>
      </trkpt>
      <trkpt lat="42.3026" lon="1.84">
        <ele>1844.535</ele>
        <time>2019-04-19T04:01:01Z</time>
      </trkpt>
      <trkpt lat="42.30256" lon="1.83992">
        <ele>1846.871</ele>
        <time>2019-04-19T04:01:15Z</time>
      </trkpt>
      <trkpt lat="42.30251" lon="1.83983">
        <ele>1847.884</ele>
        <time>2019-04-19T04:01:27Z</time>
      </trkpt>
      <trkpt lat="42.30246" lon="1.8397">
        <ele>1850.797</ele>
        <time>2019-04-19T04:01:43Z</time>
      </trkpt>
      <trkpt lat="42.30238" lon="1.83964">
        <ele>1852.19</ele>
        <time>2019-04-19T04:01:57Z</time>
      </trkpt>
      <trkpt lat="42.30232" lon="1.83958">
        <ele>1855.018</ele>
        <time>2019-04-19T04:02:11Z</time>
      </trkpt>
      <trkpt lat="42.30222" lon="1.83957">
        <ele>1856.498</ele>
        <time>2019-04-19T04:02:25Z</time>
      </trkpt>
      <trkpt lat="42.30211" lon="1.83942">
        <ele>1858.817</ele>
        <time>2019-04-19T04:02:39Z</time>
      </trkpt>
      <trkpt lat="42.30207" lon="1.83933">
        <ele>1862.308</ele>
        <time>2019-04-19T04:02:53Z</time>
      </trkpt>
      <trkpt lat="42.302" lon="1.83927">
        <ele>1865.184</ele>
        <time>2019-04-19T04:03:09Z</time>
      </trkpt>
      <trkpt lat="42.30193" lon="1.83924">
        <ele>1867.946</ele>
        <time>2019-04-19T04:03:23Z</time>
      </trkpt>
      <trkpt lat="42.30189" lon="1.83918">
        <ele>1869.965</ele>
        <time>2019-04-19T04:03:36Z</time>
      </trkpt>
      <trkpt lat="42.30188" lon="1.83908">
        <ele>1873.313</ele>
        <time>2019-04-19T04:03:50Z</time>
      </trkpt>
      <trkpt lat="42.30188" lon="1.83898">
        <ele>1875.219</ele>
        <time>2019-04-19T04:04:03Z</time>
      </trkpt>
      <trkpt lat="42.30193" lon="1.83889">
        <ele>1878.642</ele>
        <time>2019-04-19T04:04:18Z</time>
      </trkpt>
      <trkpt lat="42.302" lon="1.83877">
        <ele>1879.535</ele>
        <time>2019-04-19T04:04:33Z</time>
      </trkpt>
      <trkpt lat="42.30206" lon="1.83868">
        <ele>1882.038</ele>
        <time>2019-04-19T04:04:46Z</time>
      </trkpt>
      <trkpt lat="42.30209" lon="1.83858">
        <ele>1881.992</ele>
        <time>2019-04-19T04:04:54Z</time>
      </trkpt>
      <trkpt lat="42.30209" lon="1.83839">
        <ele>1881.973</ele>
        <time>2019-04-19T04:05:07Z</time>
      </trkpt>
      <trkpt lat="42.30212" lon="1.83825">
        <ele>1883.82</ele>
        <time>2019-04-19T04:05:20Z</time>
      </trkpt>
      <trkpt lat="42.30212" lon="1.83809">
        <ele>1884.308</ele>
        <time>2019-04-19T04:05:34Z</time>
      </trkpt>
      <trkpt lat="42.30213" lon="1.83805">
        <ele>1884.892</ele>
        <time>2019-04-19T04:05:40Z</time>
      </trkpt>
      <trkpt lat="42.30216" lon="1.83789">
        <ele>1886.784</ele>
        <time>2019-04-19T04:05:55Z</time>
      </trkpt>
      <trkpt lat="42.30221" lon="1.83774">
        <ele>1886.753</ele>
        <time>2019-04-19T04:06:09Z</time>
      </trkpt>
      <trkpt lat="42.30222" lon="1.83771">
        <ele>1887.341</ele>
        <time>2019-04-19T04:06:12Z</time>
      </trkpt>
      <trkpt lat="42.30227" lon="1.83757">
        <ele>1887.767</ele>
        <time>2019-04-19T04:06:27Z</time>
      </trkpt>
      <trkpt lat="42.3023" lon="1.83744">
        <ele>1888.67</ele>
        <time>2019-04-19T04:06:40Z</time>
      </trkpt>
      <trkpt lat="42.30231" lon="1.8373">
        <ele>1891.023</ele>
        <time>2019-04-19T04:06:53Z</time>
      </trkpt>
      <trkpt lat="42.3023" lon="1.83725">
        <ele>1892.096</ele>
        <time>2019-04-19T04:07:09Z</time>
      </trkpt>
      <trkpt lat="42.30226" lon="1.83727">
        <ele>1892.487</ele>
        <time>2019-04-19T04:07:45Z</time>
      </trkpt>
      <trkpt lat="42.30231" lon="1.83722">
        <ele>1892.942</ele>
        <time>2019-04-19T04:08:14Z</time>
      </trkpt>
      <trkpt lat="42.3023" lon="1.83725">
        <ele>1893.526</ele>
        <time>2019-04-19T04:08:47Z</time>
      </trkpt>
      <trkpt lat="42.30232" lon="1.83724">
        <ele>1892.508</ele>
        <time>2019-04-19T04:09:18Z</time>
      </trkpt>
      <trkpt lat="42.30231" lon="1.83721">
        <ele>1892.591</ele>
        <time>2019-04-19T04:09:46Z</time>
      </trkpt>
      <trkpt lat="42.30233" lon="1.83717">
        <ele>1894.013</ele>
        <time>2019-04-19T04:09:51Z</time>
      </trkpt>
      <trkpt lat="42.30231" lon="1.83706">
        <ele>1897.462</ele>
        <time>2019-04-19T04:10:06Z</time>
      </trkpt>
      <trkpt lat="42.3023" lon="1.83693">
        <ele>1900.65</ele>
        <time>2019-04-19T04:10:19Z</time>
      </trkpt>
      <trkpt lat="42.30228" lon="1.83686">
        <ele>1903.686</ele>
        <time>2019-04-19T04:10:32Z</time>
      </trkpt>
      <trkpt lat="42.30224" lon="1.83673">
        <ele>1906.469</ele>
        <time>2019-04-19T04:10:48Z</time>
      </trkpt>
      <trkpt lat="42.30219" lon="1.83662">
        <ele>1909.392</ele>
        <time>2019-04-19T04:11:05Z</time>
      </trkpt>
      <trkpt lat="42.30215" lon="1.83651">
        <ele>1912.635</ele>
        <time>2019-04-19T04:11:19Z</time>
      </trkpt>
      <trkpt lat="42.30209" lon="1.83642">
        <ele>1915.052</ele>
        <time>2019-04-19T04:11:36Z</time>
      </trkpt>
      <trkpt lat="42.30207" lon="1.83633">
        <ele>1918.453</ele>
        <time>2019-04-19T04:11:48Z</time>
      </trkpt>
      <trkpt lat="42.30209" lon="1.83628">
        <ele>1921.408</ele>
        <time>2019-04-19T04:12:04Z</time>
      </trkpt>
      <trkpt lat="42.30218" lon="1.8363">
        <ele>1924.208</ele>
        <time>2019-04-19T04:12:18Z</time>
      </trkpt>
      <trkpt lat="42.30222" lon="1.83624">
        <ele>1925.618</ele>
        <time>2019-04-19T04:12:35Z</time>
      </trkpt>
      <trkpt lat="42.30227" lon="1.83623">
        <ele>1929.16</ele>
        <time>2019-04-19T04:12:49Z</time>
      </trkpt>
      <trkpt lat="42.30228" lon="1.83623">
        <ele>1929.139</ele>
        <time>2019-04-19T04:12:50Z</time>
      </trkpt>
      <trkpt lat="42.30235" lon="1.83618">
        <ele>1931.977</ele>
        <time>2019-04-19T04:13:07Z</time>
      </trkpt>
      <trkpt lat="42.3024" lon="1.83617">
        <ele>1935.363</ele>
        <time>2019-04-19T04:13:19Z</time>
      </trkpt>
      <trkpt lat="42.30235" lon="1.83607">
        <ele>1937.786</ele>
        <time>2019-04-19T04:13:34Z</time>
      </trkpt>
      <trkpt lat="42.30232" lon="1.83599">
        <ele>1941.119</ele>
        <time>2019-04-19T04:13:48Z</time>
      </trkpt>
      <trkpt lat="42.30232" lon="1.83592">
        <ele>1944.012</ele>
        <time>2019-04-19T04:14:03Z</time>
      </trkpt>
      <trkpt lat="42.30238" lon="1.83592">
        <ele>1946.813</ele>
        <time>2019-04-19T04:14:17Z</time>
      </trkpt>
      <trkpt lat="42.30233" lon="1.8358">
        <ele>1949.643</ele>
        <time>2019-04-19T04:14:34Z</time>
      </trkpt>
      <trkpt lat="42.3023" lon="1.8357">
        <ele>1952.607</ele>
        <time>2019-04-19T04:14:49Z</time>
      </trkpt>
      <trkpt lat="42.30222" lon="1.8356">
        <ele>1955.408</ele>
        <time>2019-04-19T04:15:05Z</time>
      </trkpt>
      <trkpt lat="42.30219" lon="1.83549">
        <ele>1958.994</ele>
        <time>2019-04-19T04:15:21Z</time>
      </trkpt>
      <trkpt lat="42.30224" lon="1.83547">
        <ele>1962.286</ele>
        <time>2019-04-19T04:15:37Z</time>
      </trkpt>
      <trkpt lat="42.30221" lon="1.83537">
        <ele>1965.155</ele>
        <time>2019-04-19T04:15:51Z</time>
      </trkpt>
      <trkpt lat="42.30219" lon="1.83527">
        <ele>1968.083</ele>
        <time>2019-04-19T04:16:05Z</time>
      </trkpt>
      <trkpt lat="42.3022" lon="1.83521">
        <ele>1971.359</ele>
        <time>2019-04-19T04:16:17Z</time>
      </trkpt>
      <trkpt lat="42.30227" lon="1.83521">
        <ele>1973.372</ele>
        <time>2019-04-19T04:16:31Z</time>
      </trkpt>
      <trkpt lat="42.30227" lon="1.83513">
        <ele>1975.675</ele>
        <time>2019-04-19T04:16:45Z</time>
      </trkpt>
      <trkpt lat="42.30226" lon="1.83504">
        <ele>1978.518</ele>
        <time>2019-04-19T04:17:00Z</time>
      </trkpt>
      <trkpt lat="42.30227" lon="1.83498">
        <ele>1981.952</ele>
        <time>2019-04-19T04:17:11Z</time>
      </trkpt>
      <trkpt lat="42.3022" lon="1.83488">
        <ele>1984.353</ele>
        <time>2019-04-19T04:17:26Z</time>
      </trkpt>
      <trkpt lat="42.30219" lon="1.83487">
        <ele>1984.708</ele>
        <time>2019-04-19T04:17:28Z</time>
      </trkpt>
      <trkpt lat="42.30217" lon="1.8348">
        <ele>1985.308</ele>
        <time>2019-04-19T04:17:41Z</time>
      </trkpt>
      <trkpt lat="42.3022" lon="1.83479">
        <ele>1987.758</ele>
        <time>2019-04-19T04:17:46Z</time>
      </trkpt>
      <trkpt lat="42.30219" lon="1.8347">
        <ele>1990.12</ele>
        <time>2019-04-19T04:18:01Z</time>
      </trkpt>
      <trkpt lat="42.30214" lon="1.83459">
        <ele>1993.489</ele>
        <time>2019-04-19T04:18:15Z</time>
      </trkpt>
      <trkpt lat="42.30208" lon="1.83451">
        <ele>1996.387</ele>
        <time>2019-04-19T04:18:29Z</time>
      </trkpt>
      <trkpt lat="42.30213" lon="1.83449">
        <ele>1997.793</ele>
        <time>2019-04-19T04:18:44Z</time>
      </trkpt>
      <trkpt lat="42.30215" lon="1.83446">
        <ele>1999.796</ele>
        <time>2019-04-19T04:18:58Z</time>
      </trkpt>
      <trkpt lat="42.30214" lon="1.83437">
        <ele>2002.639</ele>
        <time>2019-04-19T04:19:13Z</time>
      </trkpt>
      <trkpt lat="42.30214" lon="1.83428">
        <ele>2004.462</ele>
        <time>2019-04-19T04:19:27Z</time>
      </trkpt>
      <trkpt lat="42.30216" lon="1.83419">
        <ele>2007.385</ele>
        <time>2019-04-19T04:19:40Z</time>
      </trkpt>
      <trkpt lat="42.30216" lon="1.83418">
        <ele>2008.389</ele>
        <time>2019-04-19T04:19:42Z</time>
      </trkpt>
      <trkpt lat="42.30215" lon="1.8341">
        <ele>2012.217</ele>
        <time>2019-04-19T04:19:55Z</time>
      </trkpt>
      <trkpt lat="42.30216" lon="1.83402">
        <ele>2013.708</ele>
        <time>2019-04-19T04:20:08Z</time>
      </trkpt>
      <trkpt lat="42.30222" lon="1.83396">
        <ele>2016.961</ele>
        <time>2019-04-19T04:20:20Z</time>
      </trkpt>
      <trkpt lat="42.30228" lon="1.83389">
        <ele>2019.933</ele>
        <time>2019-04-19T04:20:39Z</time>
      </trkpt>
      <trkpt lat="42.30233" lon="1.83386">
        <ele>2023.782</ele>
        <time>2019-04-19T04:20:50Z</time>
      </trkpt>
      <trkpt lat="42.30234" lon="1.83386">
        <ele>2023.84</ele>
        <time>2019-04-19T04:20:51Z</time>
      </trkpt>
      <trkpt lat="42.3024" lon="1.83385">
        <ele>2024.716</ele>
        <time>2019-04-19T04:21:07Z</time>
      </trkpt>
      <trkpt lat="42.30243" lon="1.83383">
        <ele>2026.759</ele>
        <time>2019-04-19T04:21:13Z</time>
      </trkpt>
      <trkpt lat="42.3025" lon="1.83376">
        <ele>2029.062</ele>
        <time>2019-04-19T04:21:30Z</time>
      </trkpt>
      <trkpt lat="42.30251" lon="1.83373">
        <ele>2031.585</ele>
        <time>2019-04-19T04:21:36Z</time>
      </trkpt>
      <trkpt lat="42.30257" lon="1.83375">
        <ele>2033.858</ele>
        <time>2019-04-19T04:21:51Z</time>
      </trkpt>
      <trkpt lat="42.30259" lon="1.83374">
        <ele>2035.752</ele>
        <time>2019-04-19T04:21:55Z</time>
      </trkpt>
      <trkpt lat="42.30259" lon="1.83372">
        <ele>2038.717</ele>
        <time>2019-04-19T04:22:13Z</time>
      </trkpt>
      <trkpt lat="42.3026" lon="1.83372">
        <ele>2036.708</ele>
        <time>2019-04-19T04:22:15Z</time>
      </trkpt>
      <trkpt lat="42.30262" lon="1.83371">
        <ele>2038.248</ele>
        <time>2019-04-19T04:22:19Z</time>
      </trkpt>
      <trkpt lat="42.30266" lon="1.83364">
        <ele>2041.93</ele>
        <time>2019-04-19T04:22:32Z</time>
      </trkpt>
      <trkpt lat="42.30266" lon="1.83363">
        <ele>2042.039</ele>
        <time>2019-04-19T04:22:33Z</time>
      </trkpt>
      <trkpt lat="42.30266" lon="1.83355">
        <ele>2045.837</ele>
        <time>2019-04-19T04:22:45Z</time>
      </trkpt>
      <trkpt lat="42.30267" lon="1.83352">
        <ele>2047.723</ele>
        <time>2019-04-19T04:22:48Z</time>
      </trkpt>
      <trkpt lat="42.30267" lon="1.83349">
        <ele>2049.216</ele>
        <time>2019-04-19T04:22:52Z</time>
      </trkpt>
      <trkpt lat="42.30268" lon="1.83343">
        <ele>2049.219</ele>
        <time>2019-04-19T04:22:58Z</time>
      </trkpt>
      <trkpt lat="42.30268" lon="1.83339">
        <ele>2051.122</ele>
        <time>2019-04-19T04:23:01Z</time>
      </trkpt>
      <trkpt lat="42.30268" lon="1.83337">
        <ele>2047.738</ele>
        <time>2019-04-19T04:23:03Z</time>
      </trkpt>
      <trkpt lat="42.30268" lon="1.83337">
        <ele>2047.77</ele>
        <time>2019-04-19T04:23:04Z</time>
      </trkpt>
      <trkpt lat="42.30267" lon="1.83336">
        <ele>2043.917</ele>
        <time>2019-04-19T04:23:11Z</time>
      </trkpt>
      <trkpt lat="42.30267" lon="1.83336">
        <ele>2046.408</ele>
        <time>2019-04-19T04:23:12Z</time>
      </trkpt>
      <trkpt lat="42.30265" lon="1.83336">
        <ele>2044.026</ele>
        <time>2019-04-19T04:23:16Z</time>
      </trkpt>
      <trkpt lat="42.30264" lon="1.83335">
        <ele>2049.118</ele>
        <time>2019-04-19T04:23:20Z</time>
      </trkpt>
      <trkpt lat="42.30264" lon="1.83335">
        <ele>2048.727</ele>
        <time>2019-04-19T04:23:21Z</time>
      </trkpt>
      <trkpt lat="42.30264" lon="1.83336">
        <ele>2042.415</ele>
        <time>2019-04-19T04:23:23Z</time>
      </trkpt>
      <trkpt lat="42.30264" lon="1.83336">
        <ele>2042.511</ele>
        <time>2019-04-19T04:23:24Z</time>
      </trkpt>
      <trkpt lat="42.30264" lon="1.83335">
        <ele>2048.254</ele>
        <time>2019-04-19T04:23:25Z</time>
      </trkpt>
      <trkpt lat="42.30264" lon="1.83333">
        <ele>2048.727</ele>
        <time>2019-04-19T04:23:27Z</time>
      </trkpt>
      <trkpt lat="42.30263" lon="1.83329">
        <ele>2046.88</ele>
        <time>2019-04-19T04:23:32Z</time>
      </trkpt>
      <trkpt lat="42.30259" lon="1.83323">
        <ele>2049.174</ele>
        <time>2019-04-19T04:23:38Z</time>
      </trkpt>
      <trkpt lat="42.30254" lon="1.83318">
        <ele>2050.156</ele>
        <time>2019-04-19T04:23:45Z</time>
      </trkpt>
      <trkpt lat="42.30251" lon="1.83316">
        <ele>2048.221</ele>
        <time>2019-04-19T04:23:48Z</time>
      </trkpt>
      <trkpt lat="42.30247" lon="1.83311">
        <ele>2047.708</ele>
        <time>2019-04-19T04:23:56Z</time>
      </trkpt>
      <trkpt lat="42.30242" lon="1.83308">
        <ele>2051.52</ele>
        <time>2019-04-19T04:24:01Z</time>
      </trkpt>
      <trkpt lat="42.30238" lon="1.83306">
        <ele>2051.122</ele>
        <time>2019-04-19T04:24:05Z</time>
      </trkpt>
      <trkpt lat="42.3023" lon="1.83299">
        <ele>2050.681</ele>
        <time>2019-04-19T04:24:15Z</time>
      </trkpt>
      <trkpt lat="42.30229" lon="1.83297">
        <ele>2053.049</ele>
        <time>2019-04-19T04:24:17Z</time>
      </trkpt>
      <trkpt lat="42.30223" lon="1.8329">
        <ele>2053.555</ele>
        <time>2019-04-19T04:24:25Z</time>
      </trkpt>
      <trkpt lat="42.30221" lon="1.83289">
        <ele>2055.498</ele>
        <time>2019-04-19T04:24:27Z</time>
      </trkpt>
      <trkpt lat="42.3022" lon="1.83288">
        <ele>2053.651</ele>
        <time>2019-04-19T04:24:29Z</time>
      </trkpt>
      <trkpt lat="42.30216" lon="1.83282">
        <ele>2056.864</ele>
        <time>2019-04-19T04:24:35Z</time>
      </trkpt>
      <trkpt lat="42.30215" lon="1.83282">
        <ele>2056.872</ele>
        <time>2019-04-19T04:24:36Z</time>
      </trkpt>
      <trkpt lat="42.30215" lon="1.83281">
        <ele>2056.813</ele>
        <time>2019-04-19T04:24:37Z</time>
      </trkpt>
      <trkpt lat="42.30213" lon="1.8328">
        <ele>2053.914</ele>
        <time>2019-04-19T04:24:39Z</time>
      </trkpt>
      <trkpt lat="42.30208" lon="1.83276">
        <ele>2057.408</ele>
        <time>2019-04-19T04:24:45Z</time>
      </trkpt>
      <trkpt lat="42.30207" lon="1.83275">
        <ele>2057.42</ele>
        <time>2019-04-19T04:24:46Z</time>
      </trkpt>
      <trkpt lat="42.30199" lon="1.83264">
        <ele>2058.452</ele>
        <time>2019-04-19T04:24:59Z</time>
      </trkpt>
      <trkpt lat="42.30187" lon="1.83252">
        <ele>2056.921</ele>
        <time>2019-04-19T04:25:15Z</time>
      </trkpt>
      <trkpt lat="42.30187" lon="1.83253">
        <ele>2056.989</ele>
        <time>2019-04-19T04:25:16Z</time>
      </trkpt>
      <trkpt lat="42.30184" lon="1.83251">
        <ele>2060.865</ele>
        <time>2019-04-19T04:25:19Z</time>
      </trkpt>
      <trkpt lat="42.30175" lon="1.83235">
        <ele>2061.648</ele>
        <time>2019-04-19T04:25:32Z</time>
      </trkpt>
      <trkpt lat="42.30171" lon="1.83205">
        <ele>2059.281</ele>
        <time>2019-04-19T04:25:50Z</time>
      </trkpt>
      <trkpt lat="42.30163" lon="1.83187">
        <ele>2055.484</ele>
        <time>2019-04-19T04:26:03Z</time>
      </trkpt>
      <trkpt lat="42.30157" lon="1.83165">
        <ele>2052.015</ele>
        <time>2019-04-19T04:26:18Z</time>
      </trkpt>
      <trkpt lat="42.30158" lon="1.83148">
        <ele>2048.765</ele>
        <time>2019-04-19T04:26:28Z</time>
      </trkpt>
      <trkpt lat="42.30152" lon="1.83137">
        <ele>2045.811</ele>
        <time>2019-04-19T04:26:40Z</time>
      </trkpt>
      <trkpt lat="42.30143" lon="1.83134">
        <ele>2044.908</ele>
        <time>2019-04-19T04:26:50Z</time>
      </trkpt>
      <trkpt lat="42.3013" lon="1.83126">
        <ele>2041.534</ele>
        <time>2019-04-19T04:27:01Z</time>
      </trkpt>
      <trkpt lat="42.30121" lon="1.83123">
        <ele>2039.676</ele>
        <time>2019-04-19T04:27:10Z</time>
      </trkpt>
      <trkpt lat="42.30113" lon="1.83116">
        <ele>2037.695</ele>
        <time>2019-04-19T04:27:18Z</time>
      </trkpt>
      <trkpt lat="42.30108" lon="1.83111">
        <ele>2036.253</ele>
        <time>2019-04-19T04:27:24Z</time>
      </trkpt>
      <trkpt lat="42.30106" lon="1.83101">
        <ele>2032.429</ele>
        <time>2019-04-19T04:27:31Z</time>
      </trkpt>
      <trkpt lat="42.30105" lon="1.83097">
        <ele>2030.922</ele>
        <time>2019-04-19T04:27:34Z</time>
      </trkpt>
      <trkpt lat="42.30099" lon="1.83089">
        <ele>2027.175</ele>
        <time>2019-04-19T04:27:47Z</time>
      </trkpt>
      <trkpt lat="42.30098" lon="1.83088">
        <ele>2027.048</ele>
        <time>2019-04-19T04:27:48Z</time>
      </trkpt>
      <trkpt lat="42.30093" lon="1.83078">
        <ele>2024.634</ele>
        <time>2019-04-19T04:27:56Z</time>
      </trkpt>
      <trkpt lat="42.30092" lon="1.83077">
        <ele>2023.755</ele>
        <time>2019-04-19T04:27:58Z</time>
      </trkpt>
      <trkpt lat="42.30086" lon="1.83064">
        <ele>2020.31</ele>
        <time>2019-04-19T04:28:08Z</time>
      </trkpt>
      <trkpt lat="42.30083" lon="1.83058">
        <ele>2017.408</ele>
        <time>2019-04-19T04:28:12Z</time>
      </trkpt>
      <trkpt lat="42.30081" lon="1.83047">
        <ele>2013.686</ele>
        <time>2019-04-19T04:28:18Z</time>
      </trkpt>
      <trkpt lat="42.30079" lon="1.83039">
        <ele>2011.748</ele>
        <time>2019-04-19T04:28:23Z</time>
      </trkpt>
      <trkpt lat="42.30079" lon="1.83024">
        <ele>2008.437</ele>
        <time>2019-04-19T04:28:31Z</time>
      </trkpt>
      <trkpt lat="42.30078" lon="1.83018">
        <ele>2006.925</ele>
        <time>2019-04-19T04:28:34Z</time>
      </trkpt>
      <trkpt lat="42.30078" lon="1.83009">
        <ele>2004.151</ele>
        <time>2019-04-19T04:28:38Z</time>
      </trkpt>
      <trkpt lat="42.3008" lon="1.83">
        <ele>2003.184</ele>
        <time>2019-04-19T04:28:44Z</time>
      </trkpt>
      <trkpt lat="42.30081" lon="1.82999">
        <ele>2003.047</ele>
        <time>2019-04-19T04:28:45Z</time>
      </trkpt>
      <trkpt lat="42.30083" lon="1.82989">
        <ele>2001.67</ele>
        <time>2019-04-19T04:28:51Z</time>
      </trkpt>
      <trkpt lat="42.30082" lon="1.82983">
        <ele>2001.198</ele>
        <time>2019-04-19T04:28:55Z</time>
      </trkpt>
      <trkpt lat="42.30082" lon="1.82973">
        <ele>1998.715</ele>
        <time>2019-04-19T04:29:01Z</time>
      </trkpt>
      <trkpt lat="42.30079" lon="1.82963">
        <ele>1996.326</ele>
        <time>2019-04-19T04:29:07Z</time>
      </trkpt>
      <trkpt lat="42.3008" lon="1.82956">
        <ele>1994.408</ele>
        <time>2019-04-19T04:29:11Z</time>
      </trkpt>
      <trkpt lat="42.30081" lon="1.82945">
        <ele>1990.162</ele>
        <time>2019-04-19T04:29:18Z</time>
      </trkpt>
      <trkpt lat="42.30082" lon="1.82943">
        <ele>1990.134</ele>
        <time>2019-04-19T04:29:19Z</time>
      </trkpt>
      <trkpt lat="42.30082" lon="1.82939">
        <ele>1989.693</ele>
        <time>2019-04-19T04:29:21Z</time>
      </trkpt>
      <trkpt lat="42.30081" lon="1.82911">
        <ele>1986.341</ele>
        <time>2019-04-19T04:29:36Z</time>
      </trkpt>
      <trkpt lat="42.30078" lon="1.82891">
        <ele>1986.767</ele>
        <time>2019-04-19T04:29:48Z</time>
      </trkpt>
      <trkpt lat="42.30079" lon="1.82882">
        <ele>1986.33</ele>
        <time>2019-04-19T04:29:53Z</time>
      </trkpt>
      <trkpt lat="42.30078" lon="1.82866">
        <ele>1986.323</ele>
        <time>2019-04-19T04:30:03Z</time>
      </trkpt>
      <trkpt lat="42.30076" lon="1.82859">
        <ele>1987.696</ele>
        <time>2019-04-19T04:30:08Z</time>
      </trkpt>
      <trkpt lat="42.30076" lon="1.82857">
        <ele>1988.121</ele>
        <time>2019-04-19T04:30:09Z</time>
      </trkpt>
      <trkpt lat="42.30075" lon="1.8285">
        <ele>1990.541</ele>
        <time>2019-04-19T04:30:14Z</time>
      </trkpt>
      <trkpt lat="42.30071" lon="1.82829">
        <ele>1990.505</ele>
        <time>2019-04-19T04:30:28Z</time>
      </trkpt>
      <trkpt lat="42.30068" lon="1.82825">
        <ele>1990.508</ele>
        <time>2019-04-19T04:30:33Z</time>
      </trkpt>
      <trkpt lat="42.30064" lon="1.82823">
        <ele>1992.055</ele>
        <time>2019-04-19T04:30:38Z</time>
      </trkpt>
      <trkpt lat="42.30062" lon="1.8282">
        <ele>1991.967</ele>
        <time>2019-04-19T04:30:41Z</time>
      </trkpt>
      <trkpt lat="42.30058" lon="1.82801">
        <ele>1992.596</ele>
        <time>2019-04-19T04:30:55Z</time>
      </trkpt>
      <trkpt lat="42.30057" lon="1.82796">
        <ele>1991.634</ele>
        <time>2019-04-19T04:30:58Z</time>
      </trkpt>
      <trkpt lat="42.30052" lon="1.82784">
        <ele>1992.02</ele>
        <time>2019-04-19T04:31:06Z</time>
      </trkpt>
      <trkpt lat="42.30046" lon="1.82764">
        <ele>1991.573</ele>
        <time>2019-04-19T04:31:20Z</time>
      </trkpt>
      <trkpt lat="42.30045" lon="1.82761">
        <ele>1992.996</ele>
        <time>2019-04-19T04:31:22Z</time>
      </trkpt>
      <trkpt lat="42.30035" lon="1.82737">
        <ele>1994.049</ele>
        <time>2019-04-19T04:31:40Z</time>
      </trkpt>
      <trkpt lat="42.30032" lon="1.8273">
        <ele>1994.357</ele>
        <time>2019-04-19T04:31:46Z</time>
      </trkpt>
      <trkpt lat="42.30025" lon="1.82703">
        <ele>1994.8</ele>
        <time>2019-04-19T04:32:02Z</time>
      </trkpt>
      <trkpt lat="42.30021" lon="1.82676">
        <ele>1994.02</ele>
        <time>2019-04-19T04:32:17Z</time>
      </trkpt>
      <trkpt lat="42.30018" lon="1.82658">
        <ele>1993.008</ele>
        <time>2019-04-19T04:32:28Z</time>
      </trkpt>
      <trkpt lat="42.3002" lon="1.82635">
        <ele>1991.668</ele>
        <time>2019-04-19T04:32:40Z</time>
      </trkpt>
      <trkpt lat="42.30021" lon="1.82607">
        <ele>1989.21</ele>
        <time>2019-04-19T04:32:55Z</time>
      </trkpt>
      <trkpt lat="42.30024" lon="1.82577">
        <ele>1987.279</ele>
        <time>2019-04-19T04:33:09Z</time>
      </trkpt>
      <trkpt lat="42.30021" lon="1.82551">
        <ele>1988.747</ele>
        <time>2019-04-19T04:33:23Z</time>
      </trkpt>
      <trkpt lat="42.30017" lon="1.82532">
        <ele>1992.053</ele>
        <time>2019-04-19T04:33:38Z</time>
      </trkpt>
      <trkpt lat="42.30012" lon="1.82518">
        <ele>1995.316</ele>
        <time>2019-04-19T04:33:51Z</time>
      </trkpt>
      <trkpt lat="42.30009" lon="1.82505">
        <ele>1998.779</ele>
        <time>2019-04-19T04:34:04Z</time>
      </trkpt>
      <trkpt lat="42.30005" lon="1.82489">
        <ele>2001.232</ele>
        <time>2019-04-19T04:34:23Z</time>
      </trkpt>
      <trkpt lat="42.30001" lon="1.82479">
        <ele>2004.077</ele>
        <time>2019-04-19T04:34:40Z</time>
      </trkpt>
      <trkpt lat="42.29999" lon="1.82481">
        <ele>2005.961</ele>
        <time>2019-04-19T04:34:59Z</time>
      </trkpt>
      <trkpt lat="42.29997" lon="1.82477">
        <ele>2006.527</ele>
        <time>2019-04-19T04:35:14Z</time>
      </trkpt>
      <trkpt lat="42.29998" lon="1.82467">
        <ele>2009.808</ele>
        <time>2019-04-19T04:35:29Z</time>
      </trkpt>
      <trkpt lat="42.29999" lon="1.82457">
        <ele>2012.67</ele>
        <time>2019-04-19T04:35:45Z</time>
      </trkpt>
      <trkpt lat="42.3" lon="1.82451">
        <ele>2016.112</ele>
        <time>2019-04-19T04:35:56Z</time>
      </trkpt>
      <trkpt lat="42.3" lon="1.82443">
        <ele>2019.311</ele>
        <time>2019-04-19T04:36:10Z</time>
      </trkpt>
      <trkpt lat="42.30001" lon="1.82431">
        <ele>2021.479</ele>
        <time>2019-04-19T04:36:25Z</time>
      </trkpt>
      <trkpt lat="42.30001" lon="1.82426">
        <ele>2022.725</ele>
        <time>2019-04-19T04:36:29Z</time>
      </trkpt>
      <trkpt lat="42.30002" lon="1.8242">
        <ele>2023.878</ele>
        <time>2019-04-19T04:36:34Z</time>
      </trkpt>
      <trkpt lat="42.30003" lon="1.82417">
        <ele>2023.751</ele>
        <time>2019-04-19T04:36:36Z</time>
      </trkpt>
      <trkpt lat="42.30004" lon="1.82412">
        <ele>2023.374</ele>
        <time>2019-04-19T04:36:41Z</time>
      </trkpt>
      <trkpt lat="42.30009" lon="1.82391">
        <ele>2026.653</ele>
        <time>2019-04-19T04:37:00Z</time>
      </trkpt>
      <trkpt lat="42.30009" lon="1.82387">
        <ele>2028.004</ele>
        <time>2019-04-19T04:37:04Z</time>
      </trkpt>
      <trkpt lat="42.30006" lon="1.82372">
        <ele>2029.114</ele>
        <time>2019-04-19T04:37:22Z</time>
      </trkpt>
      <trkpt lat="42.30004" lon="1.8236">
        <ele>2031.808</ele>
        <time>2019-04-19T04:37:39Z</time>
      </trkpt>
      <trkpt lat="42.30004" lon="1.8235">
        <ele>2034.838</ele>
        <time>2019-04-19T04:37:51Z</time>
      </trkpt>
      <trkpt lat="42.30001" lon="1.82339">
        <ele>2038.12</ele>
        <time>2019-04-19T04:38:08Z</time>
      </trkpt>
      <trkpt lat="42.29998" lon="1.82332">
        <ele>2041.139</ele>
        <time>2019-04-19T04:38:23Z</time>
      </trkpt>
      <trkpt lat="42.3" lon="1.82319">
        <ele>2042.997</ele>
        <time>2019-04-19T04:38:38Z</time>
      </trkpt>
      <trkpt lat="42.30001" lon="1.82306">
        <ele>2045.353</ele>
        <time>2019-04-19T04:38:55Z</time>
      </trkpt>
      <trkpt lat="42.30002" lon="1.82296">
        <ele>2046.876</ele>
        <time>2019-04-19T04:39:09Z</time>
      </trkpt>
      <trkpt lat="42.30003" lon="1.82286">
        <ele>2049.779</ele>
        <time>2019-04-19T04:39:25Z</time>
      </trkpt>
      <trkpt lat="42.3" lon="1.82281">
        <ele>2052.532</ele>
        <time>2019-04-19T04:39:40Z</time>
      </trkpt>
      <trkpt lat="42.3" lon="1.82278">
        <ele>2053.931</ele>
        <time>2019-04-19T04:39:54Z</time>
      </trkpt>
      <trkpt lat="42.3" lon="1.82275">
        <ele>2056.461</ele>
        <time>2019-04-19T04:40:12Z</time>
      </trkpt>
      <trkpt lat="42.29998" lon="1.82268">
        <ele>2058.307</ele>
        <time>2019-04-19T04:40:29Z</time>
      </trkpt>
      <trkpt lat="42.29998" lon="1.82264">
        <ele>2061.308</ele>
        <time>2019-04-19T04:40:44Z</time>
      </trkpt>
      <trkpt lat="42.29994" lon="1.82257">
        <ele>2064.066</ele>
        <time>2019-04-19T04:40:58Z</time>
      </trkpt>
      <trkpt lat="42.29992" lon="1.8225">
        <ele>2065.078</ele>
        <time>2019-04-19T04:41:07Z</time>
      </trkpt>
      <trkpt lat="42.29986" lon="1.8224">
        <ele>2067.017</ele>
        <time>2019-04-19T04:41:22Z</time>
      </trkpt>
      <trkpt lat="42.29984" lon="1.82236">
        <ele>2068.535</ele>
        <time>2019-04-19T04:41:34Z</time>
      </trkpt>
      <trkpt lat="42.29987" lon="1.82232">
        <ele>2071.421</ele>
        <time>2019-04-19T04:41:49Z</time>
      </trkpt>
      <trkpt lat="42.29984" lon="1.82227">
        <ele>2074.244</ele>
        <time>2019-04-19T04:42:03Z</time>
      </trkpt>
      <trkpt lat="42.29982" lon="1.82222">
        <ele>2072.727</ele>
        <time>2019-04-19T04:42:12Z</time>
      </trkpt>
      <trkpt lat="42.29974" lon="1.82219">
        <ele>2073.29</ele>
        <time>2019-04-19T04:42:24Z</time>
      </trkpt>
      <trkpt lat="42.2997" lon="1.82214">
        <ele>2074.148</ele>
        <time>2019-04-19T04:42:30Z</time>
      </trkpt>
      <trkpt lat="42.29965" lon="1.82202">
        <ele>2076.161</ele>
        <time>2019-04-19T04:42:44Z</time>
      </trkpt>
      <trkpt lat="42.29959" lon="1.8219">
        <ele>2078.617</ele>
        <time>2019-04-19T04:42:59Z</time>
      </trkpt>
      <trkpt lat="42.29958" lon="1.82184">
        <ele>2078.508</ele>
        <time>2019-04-19T04:43:14Z</time>
      </trkpt>
      <trkpt lat="42.29958" lon="1.82182">
        <ele>2078.667</ele>
        <time>2019-04-19T04:43:28Z</time>
      </trkpt>
      <trkpt lat="42.29957" lon="1.82178">
        <ele>2077.559</ele>
        <time>2019-04-19T04:43:44Z</time>
      </trkpt>
      <trkpt lat="42.29956" lon="1.82178">
        <ele>2077.548</ele>
        <time>2019-04-19T04:44:10Z</time>
      </trkpt>
      <trkpt lat="42.29956" lon="1.82178">
        <ele>2078.926</ele>
        <time>2019-04-19T04:44:25Z</time>
      </trkpt>
      <trkpt lat="42.29957" lon="1.82174">
        <ele>2078.642</ele>
        <time>2019-04-19T04:44:52Z</time>
      </trkpt>
      <trkpt lat="42.29961" lon="1.82163">
        <ele>2074.755</ele>
        <time>2019-04-19T04:45:05Z</time>
      </trkpt>
      <trkpt lat="42.29967" lon="1.82161">
        <ele>2071.358</ele>
        <time>2019-04-19T04:45:19Z</time>
      </trkpt>
      <trkpt lat="42.2997" lon="1.82155">
        <ele>2068.031</ele>
        <time>2019-04-19T04:45:29Z</time>
      </trkpt>
      <trkpt lat="42.29971" lon="1.82144">
        <ele>2065.041</ele>
        <time>2019-04-19T04:45:42Z</time>
      </trkpt>
      <trkpt lat="42.29971" lon="1.82137">
        <ele>2062.181</ele>
        <time>2019-04-19T04:45:55Z</time>
      </trkpt>
      <trkpt lat="42.29973" lon="1.82136">
        <ele>2060.309</ele>
        <time>2019-04-19T04:46:09Z</time>
      </trkpt>
      <trkpt lat="42.29972" lon="1.82128">
        <ele>2057.308</ele>
        <time>2019-04-19T04:46:23Z</time>
      </trkpt>
      <trkpt lat="42.29973" lon="1.82124">
        <ele>2056.597</ele>
        <time>2019-04-19T04:46:35Z</time>
      </trkpt>
      <trkpt lat="42.29977" lon="1.82122">
        <ele>2052.619</ele>
        <time>2019-04-19T04:46:45Z</time>
      </trkpt>
      <trkpt lat="42.29978" lon="1.82115">
        <ele>2050.768</ele>
        <time>2019-04-19T04:46:53Z</time>
      </trkpt>
      <trkpt lat="42.29979" lon="1.82108">
        <ele>2048.736</ele>
        <time>2019-04-19T04:47:08Z</time>
      </trkpt>
      <trkpt lat="42.2998" lon="1.82108">
        <ele>2048.292</ele>
        <time>2019-04-19T04:47:16Z</time>
      </trkpt>
      <trkpt lat="42.29985" lon="1.82099">
        <ele>2044.495</ele>
        <time>2019-04-19T04:47:26Z</time>
      </trkpt>
      <trkpt lat="42.29986" lon="1.82094">
        <ele>2043.068</ele>
        <time>2019-04-19T04:47:30Z</time>
      </trkpt>
      <trkpt lat="42.29991" lon="1.8209">
        <ele>2040.681</ele>
        <time>2019-04-19T04:47:35Z</time>
      </trkpt>
      <trkpt lat="42.29993" lon="1.82069">
        <ele>2037.124</ele>
        <time>2019-04-19T04:47:48Z</time>
      </trkpt>
      <trkpt lat="42.29995" lon="1.82064">
        <ele>2036.204</ele>
        <time>2019-04-19T04:47:51Z</time>
      </trkpt>
      <trkpt lat="42.3" lon="1.82061">
        <ele>2034.714</ele>
        <time>2019-04-19T04:47:56Z</time>
      </trkpt>
      <trkpt lat="42.3" lon="1.82047">
        <ele>2032.308</ele>
        <time>2019-04-19T04:48:10Z</time>
      </trkpt>
      <trkpt lat="42.29996" lon="1.82035">
        <ele>2031.835</ele>
        <time>2019-04-19T04:48:21Z</time>
      </trkpt>
      <trkpt lat="42.29995" lon="1.82033">
        <ele>2031.427</ele>
        <time>2019-04-19T04:48:23Z</time>
      </trkpt>
      <trkpt lat="42.29992" lon="1.82013">
        <ele>2028.646</ele>
        <time>2019-04-19T04:48:38Z</time>
      </trkpt>
      <trkpt lat="42.29995" lon="1.82003">
        <ele>2025.174</ele>
        <time>2019-04-19T04:48:50Z</time>
      </trkpt>
      <trkpt lat="42.29995" lon="1.82002">
        <ele>2025.19</ele>
        <time>2019-04-19T04:48:51Z</time>
      </trkpt>
      <trkpt lat="42.29993" lon="1.81994">
        <ele>2023.323</ele>
        <time>2019-04-19T04:48:58Z</time>
      </trkpt>
      <trkpt lat="42.29994" lon="1.81981">
        <ele>2019.896</ele>
        <time>2019-04-19T04:49:06Z</time>
      </trkpt>
      <trkpt lat="42.29996" lon="1.81978">
        <ele>2018.549</ele>
        <time>2019-04-19T04:49:09Z</time>
      </trkpt>
      <trkpt lat="42.29995" lon="1.8196">
        <ele>2015.567</ele>
        <time>2019-04-19T04:49:22Z</time>
      </trkpt>
      <trkpt lat="42.29995" lon="1.81955">
        <ele>2015.081</ele>
        <time>2019-04-19T04:49:26Z</time>
      </trkpt>
      <trkpt lat="42.29996" lon="1.81949">
        <ele>2014.119</ele>
        <time>2019-04-19T04:49:31Z</time>
      </trkpt>
      <trkpt lat="42.29999" lon="1.81945">
        <ele>2012.208</ele>
        <time>2019-04-19T04:49:35Z</time>
      </trkpt>
      <trkpt lat="42.30004" lon="1.81933">
        <ele>2009.329</ele>
        <time>2019-04-19T04:49:43Z</time>
      </trkpt>
      <trkpt lat="42.30005" lon="1.8193">
        <ele>2008.411</ele>
        <time>2019-04-19T04:49:45Z</time>
      </trkpt>
      <trkpt lat="42.30007" lon="1.81912">
        <ele>2004.97</ele>
        <time>2019-04-19T04:49:55Z</time>
      </trkpt>
      <trkpt lat="42.30009" lon="1.81892">
        <ele>2001.688</ele>
        <time>2019-04-19T04:50:06Z</time>
      </trkpt>
      <trkpt lat="42.30009" lon="1.81881">
        <ele>1999.664</ele>
        <time>2019-04-19T04:50:12Z</time>
      </trkpt>
      <trkpt lat="42.30013" lon="1.8187">
        <ele>1997.327</ele>
        <time>2019-04-19T04:50:19Z</time>
      </trkpt>
      <trkpt lat="42.30014" lon="1.81866">
        <ele>1995.98</ele>
        <time>2019-04-19T04:50:21Z</time>
      </trkpt>
      <trkpt lat="42.30014" lon="1.81857">
        <ele>1995.343</ele>
        <time>2019-04-19T04:50:26Z</time>
      </trkpt>
      <trkpt lat="42.30017" lon="1.81836">
        <ele>1991.977</ele>
        <time>2019-04-19T04:50:37Z</time>
      </trkpt>
      <trkpt lat="42.30017" lon="1.81834">
        <ele>1991.561</ele>
        <time>2019-04-19T04:50:38Z</time>
      </trkpt>
      <trkpt lat="42.30019" lon="1.81823">
        <ele>1990.127</ele>
        <time>2019-04-19T04:50:44Z</time>
      </trkpt>
      <trkpt lat="42.30022" lon="1.81805">
        <ele>1987.208</ele>
        <time>2019-04-19T04:50:54Z</time>
      </trkpt>
      <trkpt lat="42.30024" lon="1.81791">
        <ele>1983.92</ele>
        <time>2019-04-19T04:51:05Z</time>
      </trkpt>
      <trkpt lat="42.30026" lon="1.81789">
        <ele>1983.452</ele>
        <time>2019-04-19T04:51:07Z</time>
      </trkpt>
      <trkpt lat="42.30031" lon="1.81778">
        <ele>1979.471</ele>
        <time>2019-04-19T04:51:16Z</time>
      </trkpt>
      <trkpt lat="42.30034" lon="1.8177">
        <ele>1976.219</ele>
        <time>2019-04-19T04:51:22Z</time>
      </trkpt>
      <trkpt lat="42.30037" lon="1.81758">
        <ele>1974.275</ele>
        <time>2019-04-19T04:51:29Z</time>
      </trkpt>
      <trkpt lat="42.3004" lon="1.81748">
        <ele>1971.338</ele>
        <time>2019-04-19T04:51:36Z</time>
      </trkpt>
      <trkpt lat="42.3004" lon="1.81735">
        <ele>1969.441</ele>
        <time>2019-04-19T04:51:43Z</time>
      </trkpt>
      <trkpt lat="42.30044" lon="1.8171">
        <ele>1965.634</ele>
        <time>2019-04-19T04:51:56Z</time>
      </trkpt>
      <trkpt lat="42.30041" lon="1.81693">
        <ele>1964.574</ele>
        <time>2019-04-19T04:52:06Z</time>
      </trkpt>
      <trkpt lat="42.30037" lon="1.81665">
        <ele>1961.756</ele>
        <time>2019-04-19T04:52:20Z</time>
      </trkpt>
      <trkpt lat="42.30037" lon="1.81659">
        <ele>1961.321</ele>
        <time>2019-04-19T04:52:24Z</time>
      </trkpt>
      <trkpt lat="42.30045" lon="1.8164">
        <ele>1960.808</ele>
        <time>2019-04-19T04:52:38Z</time>
      </trkpt>
      <trkpt lat="42.30046" lon="1.81637">
        <ele>1960.89</ele>
        <time>2019-04-19T04:52:53Z</time>
      </trkpt>
      <trkpt lat="42.30045" lon="1.81638">
        <ele>1961.352</ele>
        <time>2019-04-19T04:53:09Z</time>
      </trkpt>
      <trkpt lat="42.30046" lon="1.81636">
        <ele>1961.311</ele>
        <time>2019-04-19T04:53:29Z</time>
      </trkpt>
      <trkpt lat="42.3006" lon="1.81629">
        <ele>1961.369</ele>
        <time>2019-04-19T04:53:43Z</time>
      </trkpt>
      <trkpt lat="42.30066" lon="1.81626">
        <ele>1962.775</ele>
        <time>2019-04-19T04:53:49Z</time>
      </trkpt>
      <trkpt lat="42.30078" lon="1.81618">
        <ele>1965.198</ele>
        <time>2019-04-19T04:54:02Z</time>
      </trkpt>
      <trkpt lat="42.30095" lon="1.8161">
        <ele>1968.011</ele>
        <time>2019-04-19T04:54:18Z</time>
      </trkpt>
      <trkpt lat="42.30108" lon="1.81602">
        <ele>1970.384</ele>
        <time>2019-04-19T04:54:34Z</time>
      </trkpt>
      <trkpt lat="42.30116" lon="1.81592">
        <ele>1973.282</ele>
        <time>2019-04-19T04:54:47Z</time>
      </trkpt>
      <trkpt lat="42.30122" lon="1.81582">
        <ele>1975.643</ele>
        <time>2019-04-19T04:55:01Z</time>
      </trkpt>
      <trkpt lat="42.30135" lon="1.81575">
        <ele>1978.017</ele>
        <time>2019-04-19T04:55:16Z</time>
      </trkpt>
      <trkpt lat="42.30143" lon="1.81564">
        <ele>1981.008</ele>
        <time>2019-04-19T04:55:31Z</time>
      </trkpt>
      <trkpt lat="42.3015" lon="1.81555">
        <ele>1983.471</ele>
        <time>2019-04-19T04:55:45Z</time>
      </trkpt>
      <trkpt lat="42.30157" lon="1.81546">
        <ele>1985.723</ele>
        <time>2019-04-19T04:55:59Z</time>
      </trkpt>
      <trkpt lat="42.30157" lon="1.81531">
        <ele>1988.692</ele>
        <time>2019-04-19T04:56:13Z</time>
      </trkpt>
      <trkpt lat="42.30161" lon="1.8152">
        <ele>1991.98</ele>
        <time>2019-04-19T04:56:29Z</time>
      </trkpt>
      <trkpt lat="42.30166" lon="1.81511">
        <ele>1994.066</ele>
        <time>2019-04-19T04:56:42Z</time>
      </trkpt>
      <trkpt lat="42.30165" lon="1.81503">
        <ele>1996.389</ele>
        <time>2019-04-19T04:56:53Z</time>
      </trkpt>
      <trkpt lat="42.30165" lon="1.81493">
        <ele>1999.692</ele>
        <time>2019-04-19T04:57:07Z</time>
      </trkpt>
      <trkpt lat="42.30165" lon="1.81482">
        <ele>2003.115</ele>
        <time>2019-04-19T04:57:24Z</time>
      </trkpt>
      <trkpt lat="42.30166" lon="1.81474">
        <ele>2005.964</ele>
        <time>2019-04-19T04:57:39Z</time>
      </trkpt>
      <trkpt lat="42.30171" lon="1.81465">
        <ele>2008.306</ele>
        <time>2019-04-19T04:57:56Z</time>
      </trkpt>
      <trkpt lat="42.30175" lon="1.8146">
        <ele>2011.816</ele>
        <time>2019-04-19T04:58:11Z</time>
      </trkpt>
      <trkpt lat="42.30177" lon="1.81454">
        <ele>2012.608</ele>
        <time>2019-04-19T04:58:28Z</time>
      </trkpt>
      <trkpt lat="42.30173" lon="1.8146">
        <ele>2013.759</ele>
        <time>2019-04-19T04:58:53Z</time>
      </trkpt>
      <trkpt lat="42.30174" lon="1.8146">
        <ele>2011.711</ele>
        <time>2019-04-19T04:58:56Z</time>
      </trkpt>
      <trkpt lat="42.3017" lon="1.81468">
        <ele>2009.75</ele>
        <time>2019-04-19T04:59:10Z</time>
      </trkpt>
      <trkpt lat="42.3017" lon="1.81469">
        <ele>2009.848</ele>
        <time>2019-04-19T04:59:11Z</time>
      </trkpt>
      <trkpt lat="42.30169" lon="1.8147">
        <ele>2008.814</ele>
        <time>2019-04-19T04:59:13Z</time>
      </trkpt>
      <trkpt lat="42.30165" lon="1.81477">
        <ele>2005.057</ele>
        <time>2019-04-19T04:59:26Z</time>
      </trkpt>
      <trkpt lat="42.30161" lon="1.81474">
        <ele>2002.07</ele>
        <time>2019-04-19T04:59:39Z</time>
      </trkpt>
      <trkpt lat="42.30157" lon="1.81465">
        <ele>2000.793</ele>
        <time>2019-04-19T04:59:53Z</time>
      </trkpt>
      <trkpt lat="42.30154" lon="1.81466">
        <ele>2000.172</ele>
        <time>2019-04-19T05:00:05Z</time>
      </trkpt>
      <trkpt lat="42.30154" lon="1.81467">
        <ele>1999.613</ele>
        <time>2019-04-19T05:00:21Z</time>
      </trkpt>
      <trkpt lat="42.30153" lon="1.81465">
        <ele>2000.614</ele>
        <time>2019-04-19T05:00:36Z</time>
      </trkpt>
      <trkpt lat="42.30154" lon="1.81467">
        <ele>1999.608</ele>
        <time>2019-04-19T05:00:51Z</time>
      </trkpt>
      <trkpt lat="42.30154" lon="1.81465">
        <ele>1999.76</ele>
        <time>2019-04-19T05:01:04Z</time>
      </trkpt>
      <trkpt lat="42.30156" lon="1.81468">
        <ele>1999.782</ele>
        <time>2019-04-19T05:01:16Z</time>
      </trkpt>
      <trkpt lat="42.30154" lon="1.81466">
        <ele>1999.751</ele>
        <time>2019-04-19T05:01:32Z</time>
      </trkpt>
      <trkpt lat="42.30153" lon="1.81467">
        <ele>1999.629</ele>
        <time>2019-04-19T05:01:46Z</time>
      </trkpt>
      <trkpt lat="42.30153" lon="1.81466">
        <ele>1999.755</ele>
        <time>2019-04-19T05:01:59Z</time>
      </trkpt>
      <trkpt lat="42.30152" lon="1.81466">
        <ele>1999.318</ele>
        <time>2019-04-19T05:02:06Z</time>
      </trkpt>
      <trkpt lat="42.30153" lon="1.81467">
        <ele>1999.771</ele>
        <time>2019-04-19T05:02:25Z</time>
      </trkpt>
      <trkpt lat="42.30151" lon="1.81465">
        <ele>1999.654</ele>
        <time>2019-04-19T05:02:53Z</time>
      </trkpt>
      <trkpt lat="42.30157" lon="1.81464">
        <ele>1999.669</ele>
        <time>2019-04-19T05:03:15Z</time>
      </trkpt>
      <trkpt lat="42.30159" lon="1.81464">
        <ele>1999.604</ele>
        <time>2019-04-19T05:03:33Z</time>
      </trkpt>
      <trkpt lat="42.30158" lon="1.81462">
        <ele>1999.724</ele>
        <time>2019-04-19T05:03:54Z</time>
      </trkpt>
      <trkpt lat="42.30153" lon="1.81452">
        <ele>1998.208</ele>
        <time>2019-04-19T05:04:11Z</time>
      </trkpt>
      <trkpt lat="42.30152" lon="1.81428">
        <ele>1996.939</ele>
        <time>2019-04-19T05:04:26Z</time>
      </trkpt>
      <trkpt lat="42.30152" lon="1.81423">
        <ele>1995.931</ele>
        <time>2019-04-19T05:04:29Z</time>
      </trkpt>
      <trkpt lat="42.3015" lon="1.81417">
        <ele>1993.04</ele>
        <time>2019-04-19T05:04:33Z</time>
      </trkpt>
      <trkpt lat="42.30146" lon="1.81411">
        <ele>1991.088</ele>
        <time>2019-04-19T05:04:37Z</time>
      </trkpt>
      <trkpt lat="42.30129" lon="1.81389">
        <ele>1987.754</ele>
        <time>2019-04-19T05:04:54Z</time>
      </trkpt>
      <trkpt lat="42.30131" lon="1.81392">
        <ele>1987.637</ele>
        <time>2019-04-19T05:05:18Z</time>
      </trkpt>
      <trkpt lat="42.30113" lon="1.81366">
        <ele>1985.35</ele>
        <time>2019-04-19T05:05:35Z</time>
      </trkpt>
      <trkpt lat="42.3011" lon="1.81347">
        <ele>1985.363</ele>
        <time>2019-04-19T05:05:46Z</time>
      </trkpt>
      <trkpt lat="42.30105" lon="1.81326">
        <ele>1985.297</ele>
        <time>2019-04-19T05:05:59Z</time>
      </trkpt>
      <trkpt lat="42.30097" lon="1.81309">
        <ele>1986.723</ele>
        <time>2019-04-19T05:06:12Z</time>
      </trkpt>
      <trkpt lat="42.30095" lon="1.813">
        <ele>1990.125</ele>
        <time>2019-04-19T05:06:26Z</time>
      </trkpt>
      <trkpt lat="42.30092" lon="1.81286">
        <ele>1992.508</ele>
        <time>2019-04-19T05:06:43Z</time>
      </trkpt>
      <trkpt lat="42.30094" lon="1.81267">
        <ele>1992.982</ele>
        <time>2019-04-19T05:06:57Z</time>
      </trkpt>
      <trkpt lat="42.30095" lon="1.81252">
        <ele>1994.454</ele>
        <time>2019-04-19T05:07:11Z</time>
      </trkpt>
      <trkpt lat="42.30094" lon="1.81241">
        <ele>1996.483</ele>
        <time>2019-04-19T05:07:24Z</time>
      </trkpt>
      <trkpt lat="42.30089" lon="1.81227">
        <ele>1998.311</ele>
        <time>2019-04-19T05:07:39Z</time>
      </trkpt>
      <trkpt lat="42.30083" lon="1.81214">
        <ele>1999.297</ele>
        <time>2019-04-19T05:07:52Z</time>
      </trkpt>
      <trkpt lat="42.30076" lon="1.81205">
        <ele>2000.75</ele>
        <time>2019-04-19T05:08:06Z</time>
      </trkpt>
      <trkpt lat="42.30079" lon="1.81193">
        <ele>2001.133</ele>
        <time>2019-04-19T05:08:21Z</time>
      </trkpt>
      <trkpt lat="42.30081" lon="1.81189">
        <ele>2001.176</ele>
        <time>2019-04-19T05:08:24Z</time>
      </trkpt>
      <trkpt lat="42.30092" lon="1.81162">
        <ele>2001.164</ele>
        <time>2019-04-19T05:08:41Z</time>
      </trkpt>
      <trkpt lat="42.30092" lon="1.81159">
        <ele>1999.206</ele>
        <time>2019-04-19T05:08:43Z</time>
      </trkpt>
      <trkpt lat="42.30092" lon="1.81133">
        <ele>1997.316</ele>
        <time>2019-04-19T05:08:57Z</time>
      </trkpt>
      <trkpt lat="42.30097" lon="1.81106">
        <ele>1994.808</ele>
        <time>2019-04-19T05:09:15Z</time>
      </trkpt>
      <trkpt lat="42.30099" lon="1.81075">
        <ele>1993.029</ele>
        <time>2019-04-19T05:09:33Z</time>
      </trkpt>
      <trkpt lat="42.30102" lon="1.81051">
        <ele>1989.661</ele>
        <time>2019-04-19T05:09:52Z</time>
      </trkpt>
      <trkpt lat="42.30104" lon="1.8102">
        <ele>1986.82</ele>
        <time>2019-04-19T05:10:11Z</time>
      </trkpt>
      <trkpt lat="42.30105" lon="1.80998">
        <ele>1985.368</ele>
        <time>2019-04-19T05:10:26Z</time>
      </trkpt>
      <trkpt lat="42.30109" lon="1.80973">
        <ele>1982.914</ele>
        <time>2019-04-19T05:10:41Z</time>
      </trkpt>
      <trkpt lat="42.30111" lon="1.80954">
        <ele>1979.997</ele>
        <time>2019-04-19T05:10:53Z</time>
      </trkpt>
      <trkpt lat="42.3011" lon="1.80942">
        <ele>1977.09</ele>
        <time>2019-04-19T05:11:01Z</time>
      </trkpt>
      <trkpt lat="42.30106" lon="1.80913">
        <ele>1973.313</ele>
        <time>2019-04-19T05:11:13Z</time>
      </trkpt>
      <trkpt lat="42.30104" lon="1.80897">
        <ele>1970.849</ele>
        <time>2019-04-19T05:11:22Z</time>
      </trkpt>
      <trkpt lat="42.30107" lon="1.80876">
        <ele>1969.802</ele>
        <time>2019-04-19T05:11:36Z</time>
      </trkpt>
      <trkpt lat="42.30107" lon="1.80849">
        <ele>1966.622</ele>
        <time>2019-04-19T05:11:51Z</time>
      </trkpt>
      <trkpt lat="42.30105" lon="1.80827">
        <ele>1963.108</ele>
        <time>2019-04-19T05:12:02Z</time>
      </trkpt>
      <trkpt lat="42.30097" lon="1.80798">
        <ele>1960.317</ele>
        <time>2019-04-19T05:12:18Z</time>
      </trkpt>
      <trkpt lat="42.30097" lon="1.80776">
        <ele>1957.459</ele>
        <time>2019-04-19T05:12:35Z</time>
      </trkpt>
      <trkpt lat="42.30097" lon="1.80758">
        <ele>1955.488</ele>
        <time>2019-04-19T05:12:46Z</time>
      </trkpt>
      <trkpt lat="42.30092" lon="1.80737">
        <ele>1952.046</ele>
        <time>2019-04-19T05:12:59Z</time>
      </trkpt>
      <trkpt lat="42.3009" lon="1.80706">
        <ele>1952.552</ele>
        <time>2019-04-19T05:13:18Z</time>
      </trkpt>
      <trkpt lat="42.30093" lon="1.80671">
        <ele>1952.125</ele>
        <time>2019-04-19T05:13:37Z</time>
      </trkpt>
      <trkpt lat="42.3009" lon="1.80661">
        <ele>1951.738</ele>
        <time>2019-04-19T05:13:53Z</time>
      </trkpt>
      <trkpt lat="42.30088" lon="1.80623">
        <ele>1950.181</ele>
        <time>2019-04-19T05:14:13Z</time>
      </trkpt>
      <trkpt lat="42.3009" lon="1.80611">
        <ele>1950.128</ele>
        <time>2019-04-19T05:14:31Z</time>
      </trkpt>
      <trkpt lat="42.30086" lon="1.80588">
        <ele>1946.889</ele>
        <time>2019-04-19T05:14:44Z</time>
      </trkpt>
      <trkpt lat="42.30085" lon="1.80581">
        <ele>1946.417</ele>
        <time>2019-04-19T05:14:48Z</time>
      </trkpt>
      <trkpt lat="42.30083" lon="1.80549">
        <ele>1942.908</ele>
        <time>2019-04-19T05:15:06Z</time>
      </trkpt>
      <trkpt lat="42.30078" lon="1.80521">
        <ele>1940.145</ele>
        <time>2019-04-19T05:15:22Z</time>
      </trkpt>
      <trkpt lat="42.30073" lon="1.80505">
        <ele>1936.817</ele>
        <time>2019-04-19T05:15:36Z</time>
      </trkpt>
      <trkpt lat="42.30067" lon="1.80488">
        <ele>1933.436</ele>
        <time>2019-04-19T05:15:45Z</time>
      </trkpt>
      <trkpt lat="42.30062" lon="1.80468">
        <ele>1929.954</ele>
        <time>2019-04-19T05:15:56Z</time>
      </trkpt>
      <trkpt lat="42.30054" lon="1.80458">
        <ele>1926.75</ele>
        <time>2019-04-19T05:16:05Z</time>
      </trkpt>
      <trkpt lat="42.3005" lon="1.80436">
        <ele>1924.313</ele>
        <time>2019-04-19T05:16:21Z</time>
      </trkpt>
      <trkpt lat="42.30048" lon="1.80406">
        <ele>1922.816</ele>
        <time>2019-04-19T05:16:39Z</time>
      </trkpt>
      <trkpt lat="42.30051" lon="1.80389">
        <ele>1924.329</ele>
        <time>2019-04-19T05:16:52Z</time>
      </trkpt>
      <trkpt lat="42.30059" lon="1.80357">
        <ele>1927.167</ele>
        <time>2019-04-19T05:17:12Z</time>
      </trkpt>
      <trkpt lat="42.30055" lon="1.80341">
        <ele>1926.181</ele>
        <time>2019-04-19T05:17:28Z</time>
      </trkpt>
      <trkpt lat="42.3005" lon="1.80324">
        <ele>1923.319</ele>
        <time>2019-04-19T05:17:46Z</time>
      </trkpt>
      <trkpt lat="42.30042" lon="1.80307">
        <ele>1920.908</ele>
        <time>2019-04-19T05:17:58Z</time>
      </trkpt>
      <trkpt lat="42.30037" lon="1.80276">
        <ele>1917.439</ele>
        <time>2019-04-19T05:18:18Z</time>
      </trkpt>
      <trkpt lat="42.3003" lon="1.80267">
        <ele>1914.131</ele>
        <time>2019-04-19T05:18:30Z</time>
      </trkpt>
      <trkpt lat="42.30022" lon="1.80249">
        <ele>1911.39</ele>
        <time>2019-04-19T05:18:42Z</time>
      </trkpt>
      <trkpt lat="42.30019" lon="1.80216">
        <ele>1907.898</ele>
        <time>2019-04-19T05:19:03Z</time>
      </trkpt>
      <trkpt lat="42.30017" lon="1.80181">
        <ele>1904.654</ele>
        <time>2019-04-19T05:19:24Z</time>
      </trkpt>
      <trkpt lat="42.30015" lon="1.80176">
        <ele>1904.077</ele>
        <time>2019-04-19T05:19:26Z</time>
      </trkpt>
      <trkpt lat="42.30014" lon="1.80154">
        <ele>1903.69</ele>
        <time>2019-04-19T05:19:45Z</time>
      </trkpt>
      <trkpt lat="42.30015" lon="1.80153">
        <ele>1904.913</ele>
        <time>2019-04-19T05:20:01Z</time>
      </trkpt>
      <trkpt lat="42.30011" lon="1.80148">
        <ele>1904.953</ele>
        <time>2019-04-19T05:20:25Z</time>
      </trkpt>
      <trkpt lat="42.30009" lon="1.80149">
        <ele>1903.004</ele>
        <time>2019-04-19T05:20:42Z</time>
      </trkpt>
      <trkpt lat="42.3001" lon="1.8015">
        <ele>1903.614</ele>
        <time>2019-04-19T05:21:07Z</time>
      </trkpt>
      <trkpt lat="42.30009" lon="1.8015">
        <ele>1904.608</ele>
        <time>2019-04-19T05:21:29Z</time>
      </trkpt>
      <trkpt lat="42.30007" lon="1.8015">
        <ele>1904.028</ele>
        <time>2019-04-19T05:21:53Z</time>
      </trkpt>
      <trkpt lat="42.30008" lon="1.80136">
        <ele>1903.58</ele>
        <time>2019-04-19T05:22:13Z</time>
      </trkpt>
      <trkpt lat="42.30005" lon="1.80117">
        <ele>1902.249</ele>
        <time>2019-04-19T05:22:30Z</time>
      </trkpt>
      <trkpt lat="42.29996" lon="1.80092">
        <ele>1899.727</ele>
        <time>2019-04-19T05:22:46Z</time>
      </trkpt>
      <trkpt lat="42.29989" lon="1.80062">
        <ele>1899.863</ele>
        <time>2019-04-19T05:23:06Z</time>
      </trkpt>
      <trkpt lat="42.29977" lon="1.80028">
        <ele>1897.796</ele>
        <time>2019-04-19T05:23:27Z</time>
      </trkpt>
      <trkpt lat="42.29969" lon="1.80001">
        <ele>1896.929</ele>
        <time>2019-04-19T05:23:46Z</time>
      </trkpt>
      <trkpt lat="42.29952" lon="1.79979">
        <ele>1895.372</ele>
        <time>2019-04-19T05:24:09Z</time>
      </trkpt>
      <trkpt lat="42.29937" lon="1.79958">
        <ele>1892.037</ele>
        <time>2019-04-19T05:24:28Z</time>
      </trkpt>
      <trkpt lat="42.29924" lon="1.79945">
        <ele>1888.649</ele>
        <time>2019-04-19T05:24:46Z</time>
      </trkpt>
      <trkpt lat="42.29921" lon="1.79943">
        <ele>1887.213</ele>
        <time>2019-04-19T05:25:05Z</time>
      </trkpt>
      <trkpt lat="42.2991" lon="1.79929">
        <ele>1882.808</ele>
        <time>2019-04-19T05:25:23Z</time>
      </trkpt>
      <trkpt lat="42.29902" lon="1.79921">
        <ele>1879.666</ele>
        <time>2019-04-19T05:25:45Z</time>
      </trkpt>
      <trkpt lat="42.29902" lon="1.79919">
        <ele>1879.158</ele>
        <time>2019-04-19T05:25:47Z</time>
      </trkpt>
      <trkpt lat="42.29901" lon="1.79906">
        <ele>1876.217</ele>
        <time>2019-04-19T05:25:59Z</time>
      </trkpt>
      <trkpt lat="42.299" lon="1.79891">
        <ele>1872.735</ele>
        <time>2019-04-19T05:26:12Z</time>
      </trkpt>
      <trkpt lat="42.299" lon="1.79881">
        <ele>1870.061</ele>
        <time>2019-04-19T05:26:20Z</time>
      </trkpt>
      <trkpt lat="42.29897" lon="1.79866">
        <ele>1866.134</ele>
        <time>2019-04-19T05:26:31Z</time>
      </trkpt>
      <trkpt lat="42.29897" lon="1.79864">
        <ele>1866.197</ele>
        <time>2019-04-19T05:26:32Z</time>
      </trkpt>
      <trkpt lat="42.29895" lon="1.79851">
        <ele>1863.11</ele>
        <time>2019-04-19T05:26:42Z</time>
      </trkpt>
      <trkpt lat="42.2989" lon="1.7984">
        <ele>1859.889</ele>
        <time>2019-04-19T05:26:51Z</time>
      </trkpt>
      <trkpt lat="42.29885" lon="1.79826">
        <ele>1855.906</ele>
        <time>2019-04-19T05:27:02Z</time>
      </trkpt>
      <trkpt lat="42.29875" lon="1.79827">
        <ele>1852.726</ele>
        <time>2019-04-19T05:27:11Z</time>
      </trkpt>
      <trkpt lat="42.2987" lon="1.79826">
        <ele>1849.708</ele>
        <time>2019-04-19T05:27:20Z</time>
      </trkpt>
      <trkpt lat="42.29864" lon="1.79813">
        <ele>1846.831</ele>
        <time>2019-04-19T05:27:29Z</time>
      </trkpt>
      <trkpt lat="42.29861" lon="1.79806">
        <ele>1842.923</ele>
        <time>2019-04-19T05:27:38Z</time>
      </trkpt>
      <trkpt lat="42.29863" lon="1.798">
        <ele>1840.512</ele>
        <time>2019-04-19T05:27:46Z</time>
      </trkpt>
      <trkpt lat="42.29868" lon="1.79794">
        <ele>1837.39</ele>
        <time>2019-04-19T05:27:57Z</time>
      </trkpt>
      <trkpt lat="42.29866" lon="1.7978">
        <ele>1833.996</ele>
        <time>2019-04-19T05:28:09Z</time>
      </trkpt>
      <trkpt lat="42.2986" lon="1.79766">
        <ele>1830.939</ele>
        <time>2019-04-19T05:28:19Z</time>
      </trkpt>
      <trkpt lat="42.29857" lon="1.79762">
        <ele>1827.612</ele>
        <time>2019-04-19T05:28:29Z</time>
      </trkpt>
      <trkpt lat="42.29857" lon="1.79762">
        <ele>1827.715</ele>
        <time>2019-04-19T05:28:30Z</time>
      </trkpt>
      <trkpt lat="42.29852" lon="1.79757">
        <ele>1823.779</ele>
        <time>2019-04-19T05:28:40Z</time>
      </trkpt>
      <trkpt lat="42.29848" lon="1.7974">
        <ele>1820.305</ele>
        <time>2019-04-19T05:28:49Z</time>
      </trkpt>
      <trkpt lat="42.29846" lon="1.79737">
        <ele>1819.925</ele>
        <time>2019-04-19T05:28:51Z</time>
      </trkpt>
      <trkpt lat="42.29845" lon="1.79733">
        <ele>1816.008</ele>
        <time>2019-04-19T05:29:03Z</time>
      </trkpt>
      <trkpt lat="42.2984" lon="1.79721">
        <ele>1812.87</ele>
        <time>2019-04-19T05:29:13Z</time>
      </trkpt>
      <trkpt lat="42.29839" lon="1.7972">
        <ele>1812.742</ele>
        <time>2019-04-19T05:29:14Z</time>
      </trkpt>
      <trkpt lat="42.29831" lon="1.79714">
        <ele>1808.441</ele>
        <time>2019-04-19T05:29:23Z</time>
      </trkpt>
      <trkpt lat="42.29831" lon="1.79712">
        <ele>1808.369</ele>
        <time>2019-04-19T05:29:24Z</time>
      </trkpt>
      <trkpt lat="42.29829" lon="1.79707">
        <ele>1806.985</ele>
        <time>2019-04-19T05:29:28Z</time>
      </trkpt>
      <trkpt lat="42.29816" lon="1.79717">
        <ele>1803.638</ele>
        <time>2019-04-19T05:29:46Z</time>
      </trkpt>
      <trkpt lat="42.2981" lon="1.79717">
        <ele>1800.341</ele>
        <time>2019-04-19T05:29:54Z</time>
      </trkpt>
      <trkpt lat="42.29802" lon="1.79712">
        <ele>1796.844</ele>
        <time>2019-04-19T05:30:02Z</time>
      </trkpt>
      <trkpt lat="42.29793" lon="1.79717">
        <ele>1793.496</ele>
        <time>2019-04-19T05:30:15Z</time>
      </trkpt>
      <trkpt lat="42.29789" lon="1.79718">
        <ele>1792.031</ele>
        <time>2019-04-19T05:30:19Z</time>
      </trkpt>
      <trkpt lat="42.29782" lon="1.79716">
        <ele>1790.124</ele>
        <time>2019-04-19T05:30:25Z</time>
      </trkpt>
      <trkpt lat="42.29772" lon="1.79715">
        <ele>1786.708</ele>
        <time>2019-04-19T05:30:33Z</time>
      </trkpt>
      <trkpt lat="42.29761" lon="1.79717">
        <ele>1783.332</ele>
        <time>2019-04-19T05:30:41Z</time>
      </trkpt>
      <trkpt lat="42.2976" lon="1.79719">
        <ele>1783.344</ele>
        <time>2019-04-19T05:30:42Z</time>
      </trkpt>
      <trkpt lat="42.29753" lon="1.79723">
        <ele>1780.093</ele>
        <time>2019-04-19T05:30:51Z</time>
      </trkpt>
      <trkpt lat="42.29752" lon="1.79723">
        <ele>1779.141</ele>
        <time>2019-04-19T05:30:53Z</time>
      </trkpt>
      <trkpt lat="42.29749" lon="1.79731">
        <ele>1774.837</ele>
        <time>2019-04-19T05:31:04Z</time>
      </trkpt>
      <trkpt lat="42.29748" lon="1.79733">
        <ele>1774.85</ele>
        <time>2019-04-19T05:31:05Z</time>
      </trkpt>
      <trkpt lat="42.29737" lon="1.79735">
        <ele>1771.983</ele>
        <time>2019-04-19T05:31:11Z</time>
      </trkpt>
      <trkpt lat="42.29732" lon="1.79738">
        <ele>1769.456</ele>
        <time>2019-04-19T05:31:16Z</time>
      </trkpt>
      <trkpt lat="42.29732" lon="1.79741">
        <ele>1768.971</ele>
        <time>2019-04-19T05:31:29Z</time>
      </trkpt>
      <trkpt lat="42.29729" lon="1.79742">
        <ele>1766.541</ele>
        <time>2019-04-19T05:31:32Z</time>
      </trkpt>
      <trkpt lat="42.29725" lon="1.7974">
        <ele>1765.215</ele>
        <time>2019-04-19T05:31:50Z</time>
      </trkpt>
      <trkpt lat="42.29706" lon="1.79726">
        <ele>1765.708</ele>
        <time>2019-04-19T05:32:13Z</time>
      </trkpt>
      <trkpt lat="42.29712" lon="1.79734">
        <ele>1765.69</ele>
        <time>2019-04-19T05:32:39Z</time>
      </trkpt>
      <trkpt lat="42.29717" lon="1.79738">
        <ele>1764.612</ele>
        <time>2019-04-19T05:33:01Z</time>
      </trkpt>
      <trkpt lat="42.29717" lon="1.79752">
        <ele>1763.261</ele>
        <time>2019-04-19T05:33:19Z</time>
      </trkpt>
      <trkpt lat="42.29718" lon="1.79754">
        <ele>1762.269</ele>
        <time>2019-04-19T05:33:20Z</time>
      </trkpt>
      <trkpt lat="42.29726" lon="1.79781">
        <ele>1758.995</ele>
        <time>2019-04-19T05:33:35Z</time>
      </trkpt>
      <trkpt lat="42.2972" lon="1.798">
        <ele>1755.048</ele>
        <time>2019-04-19T05:33:50Z</time>
      </trkpt>
      <trkpt lat="42.29719" lon="1.79801">
        <ele>1755.141</ele>
        <time>2019-04-19T05:33:51Z</time>
      </trkpt>
      <trkpt lat="42.2972" lon="1.79815">
        <ele>1752.624</ele>
        <time>2019-04-19T05:34:02Z</time>
      </trkpt>
      <trkpt lat="42.29719" lon="1.79823">
        <ele>1751.687</ele>
        <time>2019-04-19T05:34:08Z</time>
      </trkpt>
      <trkpt lat="42.29718" lon="1.79828">
        <ele>1750.242</ele>
        <time>2019-04-19T05:34:11Z</time>
      </trkpt>
      <trkpt lat="42.29718" lon="1.79848">
        <ele>1746.326</ele>
        <time>2019-04-19T05:34:22Z</time>
      </trkpt>
      <trkpt lat="42.29719" lon="1.79854">
        <ele>1745.908</ele>
        <time>2019-04-19T05:34:37Z</time>
      </trkpt>
      <trkpt lat="42.29715" lon="1.79862">
        <ele>1743.581</ele>
        <time>2019-04-19T05:34:53Z</time>
      </trkpt>
      <trkpt lat="42.29712" lon="1.79857">
        <ele>1741.613</ele>
        <time>2019-04-19T05:34:59Z</time>
      </trkpt>
      <trkpt lat="42.29708" lon="1.79864">
        <ele>1739.722</ele>
        <time>2019-04-19T05:35:05Z</time>
      </trkpt>
      <trkpt lat="42.2971" lon="1.79873">
        <ele>1739.25</ele>
        <time>2019-04-19T05:35:08Z</time>
      </trkpt>
      <trkpt lat="42.2971" lon="1.79878">
        <ele>1738.386</ele>
        <time>2019-04-19T05:35:10Z</time>
      </trkpt>
      <trkpt lat="42.29706" lon="1.79884">
        <ele>1735.849</ele>
        <time>2019-04-19T05:35:17Z</time>
      </trkpt>
      <trkpt lat="42.29708" lon="1.7989">
        <ele>1733.372</ele>
        <time>2019-04-19T05:35:21Z</time>
      </trkpt>
      <trkpt lat="42.29707" lon="1.79904">
        <ele>1730.055</ele>
        <time>2019-04-19T05:35:30Z</time>
      </trkpt>
      <trkpt lat="42.29699" lon="1.79919">
        <ele>1726.652</ele>
        <time>2019-04-19T05:35:43Z</time>
      </trkpt>
      <trkpt lat="42.29692" lon="1.79908">
        <ele>1723.353</ele>
        <time>2019-04-19T05:35:56Z</time>
      </trkpt>
      <trkpt lat="42.29685" lon="1.79916">
        <ele>1720.508</ele>
        <time>2019-04-19T05:36:06Z</time>
      </trkpt>
      <trkpt lat="42.29689" lon="1.79931">
        <ele>1716.508</ele>
        <time>2019-04-19T05:36:17Z</time>
      </trkpt>
      <trkpt lat="42.29683" lon="1.79941">
        <ele>1712.228</ele>
        <time>2019-04-19T05:36:31Z</time>
      </trkpt>
      <trkpt lat="42.29683" lon="1.79942">
        <ele>1712.35</ele>
        <time>2019-04-19T05:36:32Z</time>
      </trkpt>
      <trkpt lat="42.29678" lon="1.7995">
        <ele>1709.489</ele>
        <time>2019-04-19T05:36:44Z</time>
      </trkpt>
      <trkpt lat="42.29678" lon="1.79961">
        <ele>1706.137</ele>
        <time>2019-04-19T05:36:56Z</time>
      </trkpt>
      <trkpt lat="42.29667" lon="1.7996">
        <ele>1703.263</ele>
        <time>2019-04-19T05:37:08Z</time>
      </trkpt>
      <trkpt lat="42.29661" lon="1.79971">
        <ele>1700.376</ele>
        <time>2019-04-19T05:37:17Z</time>
      </trkpt>
      <trkpt lat="42.2966" lon="1.79975">
        <ele>1699.389</ele>
        <time>2019-04-19T05:37:19Z</time>
      </trkpt>
      <trkpt lat="42.2966" lon="1.7999">
        <ele>1695.912</ele>
        <time>2019-04-19T05:37:30Z</time>
      </trkpt>
      <trkpt lat="42.29658" lon="1.79999">
        <ele>1692.552</ele>
        <time>2019-04-19T05:37:44Z</time>
      </trkpt>
      <trkpt lat="42.2966" lon="1.80008">
        <ele>1690.653</ele>
        <time>2019-04-19T05:37:51Z</time>
      </trkpt>
      <trkpt lat="42.29654" lon="1.80019">
        <ele>1687.208</ele>
        <time>2019-04-19T05:38:03Z</time>
      </trkpt>
      <trkpt lat="42.29649" lon="1.80036">
        <ele>1683.408</ele>
        <time>2019-04-19T05:38:15Z</time>
      </trkpt>
      <trkpt lat="42.29649" lon="1.8004">
        <ele>1682.968</ele>
        <time>2019-04-19T05:38:17Z</time>
      </trkpt>
      <trkpt lat="42.29645" lon="1.80053">
        <ele>1679.67</ele>
        <time>2019-04-19T05:38:28Z</time>
      </trkpt>
      <trkpt lat="42.29648" lon="1.8007">
        <ele>1676.369</ele>
        <time>2019-04-19T05:38:42Z</time>
      </trkpt>
      <trkpt lat="42.29647" lon="1.80081">
        <ele>1672.867</ele>
        <time>2019-04-19T05:38:54Z</time>
      </trkpt>
      <trkpt lat="42.29638" lon="1.80083">
        <ele>1669.553</ele>
        <time>2019-04-19T05:39:05Z</time>
      </trkpt>
      <trkpt lat="42.29635" lon="1.80098">
        <ele>1666.266</ele>
        <time>2019-04-19T05:39:18Z</time>
      </trkpt>
      <trkpt lat="42.29618" lon="1.80095">
        <ele>1664.239</ele>
        <time>2019-04-19T05:39:34Z</time>
      </trkpt>
      <trkpt lat="42.29618" lon="1.80106">
        <ele>1660.982</ele>
        <time>2019-04-19T05:39:44Z</time>
      </trkpt>
      <trkpt lat="42.2962" lon="1.80112">
        <ele>1659.322</ele>
        <time>2019-04-19T05:39:48Z</time>
      </trkpt>
      <trkpt lat="42.29622" lon="1.80125">
        <ele>1656.462</ele>
        <time>2019-04-19T05:40:01Z</time>
      </trkpt>
      <trkpt lat="42.2962" lon="1.80142">
        <ele>1653.108</ele>
        <time>2019-04-19T05:40:11Z</time>
      </trkpt>
      <trkpt lat="42.2962" lon="1.80143">
        <ele>1653.208</ele>
        <time>2019-04-19T05:40:12Z</time>
      </trkpt>
      <trkpt lat="42.29616" lon="1.80146">
        <ele>1649.815</ele>
        <time>2019-04-19T05:40:28Z</time>
      </trkpt>
      <trkpt lat="42.29613" lon="1.80153">
        <ele>1646.827</ele>
        <time>2019-04-19T05:40:35Z</time>
      </trkpt>
      <trkpt lat="42.29613" lon="1.80154">
        <ele>1646.916</ele>
        <time>2019-04-19T05:40:36Z</time>
      </trkpt>
      <trkpt lat="42.29606" lon="1.80164">
        <ele>1643.934</ele>
        <time>2019-04-19T05:40:52Z</time>
      </trkpt>
      <trkpt lat="42.29611" lon="1.80185">
        <ele>1640.63</ele>
        <time>2019-04-19T05:41:08Z</time>
      </trkpt>
      <trkpt lat="42.29602" lon="1.80189">
        <ele>1637.773</ele>
        <time>2019-04-19T05:41:24Z</time>
      </trkpt>
      <trkpt lat="42.29602" lon="1.80206">
        <ele>1634.476</ele>
        <time>2019-04-19T05:41:42Z</time>
      </trkpt>
      <trkpt lat="42.29591" lon="1.80214">
        <ele>1631.159</ele>
        <time>2019-04-19T05:41:57Z</time>
      </trkpt>
      <trkpt lat="42.29583" lon="1.80217">
        <ele>1627.676</ele>
        <time>2019-04-19T05:42:14Z</time>
      </trkpt>
      <trkpt lat="42.29572" lon="1.80229">
        <ele>1624.79</ele>
        <time>2019-04-19T05:42:33Z</time>
      </trkpt>
      <trkpt lat="42.29566" lon="1.80231">
        <ele>1621.519</ele>
        <time>2019-04-19T05:42:46Z</time>
      </trkpt>
      <trkpt lat="42.29577" lon="1.80249">
        <ele>1619.908</ele>
        <time>2019-04-19T05:43:04Z</time>
      </trkpt>
      <trkpt lat="42.29568" lon="1.80261">
        <ele>1616.69</ele>
        <time>2019-04-19T05:43:17Z</time>
      </trkpt>
      <trkpt lat="42.29559" lon="1.80269">
        <ele>1613.262</ele>
        <time>2019-04-19T05:43:27Z</time>
      </trkpt>
      <trkpt lat="42.29563" lon="1.8029">
        <ele>1611.311</ele>
        <time>2019-04-19T05:43:45Z</time>
      </trkpt>
      <trkpt lat="42.29573" lon="1.80301">
        <ele>1608.959</ele>
        <time>2019-04-19T05:44:01Z</time>
      </trkpt>
      <trkpt lat="42.29566" lon="1.80329">
        <ele>1606.695</ele>
        <time>2019-04-19T05:44:17Z</time>
      </trkpt>
      <trkpt lat="42.29551" lon="1.8034">
        <ele>1603.138</ele>
        <time>2019-04-19T05:44:39Z</time>
      </trkpt>
      <trkpt lat="42.29546" lon="1.80334">
        <ele>1599.821</ele>
        <time>2019-04-19T05:44:52Z</time>
      </trkpt>
      <trkpt lat="42.29536" lon="1.80338">
        <ele>1596.894</ele>
        <time>2019-04-19T05:45:04Z</time>
      </trkpt>
      <trkpt lat="42.29527" lon="1.80341">
        <ele>1594.484</ele>
        <time>2019-04-19T05:45:22Z</time>
      </trkpt>
      <trkpt lat="42.29521" lon="1.80339">
        <ele>1592.007</ele>
        <time>2019-04-19T05:45:31Z</time>
      </trkpt>
      <trkpt lat="42.29517" lon="1.80348">
        <ele>1588.817</ele>
        <time>2019-04-19T05:45:45Z</time>
      </trkpt>
      <trkpt lat="42.29517" lon="1.80349">
        <ele>1588.708</ele>
        <time>2019-04-19T05:45:46Z</time>
      </trkpt>
      <trkpt lat="42.29519" lon="1.80369">
        <ele>1585.311</ele>
        <time>2019-04-19T05:46:03Z</time>
      </trkpt>
      <trkpt lat="42.29503" lon="1.80373">
        <ele>1583.093</ele>
        <time>2019-04-19T05:46:23Z</time>
      </trkpt>
      <trkpt lat="42.2949" lon="1.8038">
        <ele>1579.662</ele>
        <time>2019-04-19T05:46:34Z</time>
      </trkpt>
      <trkpt lat="42.29481" lon="1.80391">
        <ele>1576.37</ele>
        <time>2019-04-19T05:46:52Z</time>
      </trkpt>
      <trkpt lat="42.29476" lon="1.80398">
        <ele>1574.896</ele>
        <time>2019-04-19T05:46:58Z</time>
      </trkpt>
      <trkpt lat="42.29469" lon="1.8041">
        <ele>1571.529</ele>
        <time>2019-04-19T05:47:12Z</time>
      </trkpt>
      <trkpt lat="42.29453" lon="1.80414">
        <ele>1568.032</ele>
        <time>2019-04-19T05:47:29Z</time>
      </trkpt>
      <trkpt lat="42.29447" lon="1.8043">
        <ele>1564.625</ele>
        <time>2019-04-19T05:47:43Z</time>
      </trkpt>
      <trkpt lat="42.29443" lon="1.80444">
        <ele>1561.381</ele>
        <time>2019-04-19T05:47:56Z</time>
      </trkpt>
      <trkpt lat="42.29438" lon="1.80453">
        <ele>1557.961</ele>
        <time>2019-04-19T05:48:10Z</time>
      </trkpt>
      <trkpt lat="42.29441" lon="1.80461">
        <ele>1556.917</ele>
        <time>2019-04-19T05:48:16Z</time>
      </trkpt>
      <trkpt lat="42.29441" lon="1.80464">
        <ele>1555.508</ele>
        <time>2019-04-19T05:48:18Z</time>
      </trkpt>
      <trkpt lat="42.29434" lon="1.80487">
        <ele>1553.611</ele>
        <time>2019-04-19T05:48:34Z</time>
      </trkpt>
      <trkpt lat="42.2942" lon="1.80499">
        <ele>1552.193</ele>
        <time>2019-04-19T05:48:52Z</time>
      </trkpt>
      <trkpt lat="42.29419" lon="1.805">
        <ele>1549.442</ele>
        <time>2019-04-19T05:48:58Z</time>
      </trkpt>
      <trkpt lat="42.29406" lon="1.80497">
        <ele>1547.83</ele>
        <time>2019-04-19T05:49:18Z</time>
      </trkpt>
      <trkpt lat="42.29413" lon="1.80478">
        <ele>1547.336</ele>
        <time>2019-04-19T05:49:43Z</time>
      </trkpt>
      <trkpt lat="42.29402" lon="1.80484">
        <ele>1545.499</ele>
        <time>2019-04-19T06:13:48Z</time>
      </trkpt>
      <trkpt lat="42.29398" lon="1.80491">
        <ele>1545.592</ele>
        <time>2019-04-19T06:14:10Z</time>
      </trkpt>
      <trkpt lat="42.29385" lon="1.80492">
        <ele>1545.435</ele>
        <time>2019-04-19T06:14:37Z</time>
      </trkpt>
      <trkpt lat="42.29398" lon="1.80496">
        <ele>1544.975</ele>
        <time>2019-04-19T06:15:03Z</time>
      </trkpt>
      <trkpt lat="42.29408" lon="1.80489">
        <ele>1544.928</ele>
        <time>2019-04-19T06:15:23Z</time>
      </trkpt>
      <trkpt lat="42.29407" lon="1.80492">
        <ele>1545.02</ele>
        <time>2019-04-19T06:15:47Z</time>
      </trkpt>
      <trkpt lat="42.29408" lon="1.80489">
        <ele>1544.908</ele>
        <time>2019-04-19T06:16:11Z</time>
      </trkpt>
      <trkpt lat="42.29406" lon="1.80492">
        <ele>1544.94</ele>
        <time>2019-04-19T06:16:22Z</time>
      </trkpt>
      <trkpt lat="42.29401" lon="1.80495">
        <ele>1545.022</ele>
        <time>2019-04-19T06:16:38Z</time>
      </trkpt>
      <trkpt lat="42.29406" lon="1.80493">
        <ele>1546.521</ele>
        <time>2019-04-19T06:16:52Z</time>
      </trkpt>
      <trkpt lat="42.29401" lon="1.80493">
        <ele>1544.519</ele>
        <time>2019-04-19T06:17:10Z</time>
      </trkpt>
      <trkpt lat="42.29397" lon="1.80496">
        <ele>1544.675</ele>
        <time>2019-04-19T06:17:34Z</time>
      </trkpt>
      <trkpt lat="42.29395" lon="1.80499">
        <ele>1544.648</ele>
        <time>2019-04-19T06:17:58Z</time>
      </trkpt>
      <trkpt lat="42.294" lon="1.80499">
        <ele>1544.591</ele>
        <time>2019-04-19T06:18:27Z</time>
      </trkpt>
      <trkpt lat="42.29403" lon="1.80502">
        <ele>1545.074</ele>
        <time>2019-04-19T06:18:56Z</time>
      </trkpt>
      <trkpt lat="42.29402" lon="1.80501">
        <ele>1544.977</ele>
        <time>2019-04-19T06:19:32Z</time>
      </trkpt>
      <trkpt lat="42.29399" lon="1.80499">
        <ele>1545.461</ele>
        <time>2019-04-19T06:20:05Z</time>
      </trkpt>
      <trkpt lat="42.29397" lon="1.80499">
        <ele>1545.527</ele>
        <time>2019-04-19T06:20:38Z</time>
      </trkpt>
      <trkpt lat="42.29402" lon="1.80499">
        <ele>1546.508</ele>
        <time>2019-04-19T06:21:04Z</time>
      </trkpt>
      <trkpt lat="42.29402" lon="1.80503">
        <ele>1543.67</ele>
        <time>2019-04-19T06:21:21Z</time>
      </trkpt>
      <trkpt lat="42.29402" lon="1.80504">
        <ele>1547.492</ele>
        <time>2019-04-19T06:21:22Z</time>
      </trkpt>
      <trkpt lat="42.29393" lon="1.80518">
        <ele>1544.081</ele>
        <time>2019-04-19T06:21:34Z</time>
      </trkpt>
      <trkpt lat="42.29384" lon="1.80527">
        <ele>1542.539</ele>
        <time>2019-04-19T06:21:43Z</time>
      </trkpt>
      <trkpt lat="42.2937" lon="1.80524">
        <ele>1539.755</ele>
        <time>2019-04-19T06:21:59Z</time>
      </trkpt>
      <trkpt lat="42.2937" lon="1.80511">
        <ele>1537.238</ele>
        <time>2019-04-19T06:22:13Z</time>
      </trkpt>
      <trkpt lat="42.2937" lon="1.80496">
        <ele>1533.581</ele>
        <time>2019-04-19T06:22:25Z</time>
      </trkpt>
      <trkpt lat="42.29367" lon="1.80492">
        <ele>1533.044</ele>
        <time>2019-04-19T06:22:28Z</time>
      </trkpt>
      <trkpt lat="42.2935" lon="1.80472">
        <ele>1532.059</ele>
        <time>2019-04-19T06:22:47Z</time>
      </trkpt>
      <trkpt lat="42.29335" lon="1.80467">
        <ele>1529.503</ele>
        <time>2019-04-19T06:23:04Z</time>
      </trkpt>
      <trkpt lat="42.29328" lon="1.80472">
        <ele>1528.723</ele>
        <time>2019-04-19T06:23:10Z</time>
      </trkpt>
      <trkpt lat="42.29323" lon="1.80481">
        <ele>1527.608</ele>
        <time>2019-04-19T06:23:15Z</time>
      </trkpt>
      <trkpt lat="42.29311" lon="1.80489">
        <ele>1523.888</ele>
        <time>2019-04-19T06:23:26Z</time>
      </trkpt>
      <trkpt lat="42.2931" lon="1.80489">
        <ele>1523.85</ele>
        <time>2019-04-19T06:23:27Z</time>
      </trkpt>
      <trkpt lat="42.29301" lon="1.80491">
        <ele>1520.469</ele>
        <time>2019-04-19T06:23:34Z</time>
      </trkpt>
      <trkpt lat="42.29291" lon="1.80497">
        <ele>1517.567</ele>
        <time>2019-04-19T06:23:43Z</time>
      </trkpt>
      <trkpt lat="42.29283" lon="1.80503">
        <ele>1514.693</ele>
        <time>2019-04-19T06:23:50Z</time>
      </trkpt>
      <trkpt lat="42.29273" lon="1.80507">
        <ele>1511.876</ele>
        <time>2019-04-19T06:23:57Z</time>
      </trkpt>
      <trkpt lat="42.29269" lon="1.80507">
        <ele>1510.429</ele>
        <time>2019-04-19T06:24:00Z</time>
      </trkpt>
      <trkpt lat="42.29266" lon="1.80509">
        <ele>1509.062</ele>
        <time>2019-04-19T06:24:03Z</time>
      </trkpt>
      <trkpt lat="42.29258" lon="1.80509">
        <ele>1507.068</ele>
        <time>2019-04-19T06:24:10Z</time>
      </trkpt>
      <trkpt lat="42.29251" lon="1.80515">
        <ele>1505.042</ele>
        <time>2019-04-19T06:24:17Z</time>
      </trkpt>
      <trkpt lat="42.29246" lon="1.80527">
        <ele>1501.326</ele>
        <time>2019-04-19T06:24:26Z</time>
      </trkpt>
      <trkpt lat="42.29241" lon="1.80532">
        <ele>1497.408</ele>
        <time>2019-04-19T06:24:35Z</time>
      </trkpt>
      <trkpt lat="42.29232" lon="1.80538">
        <ele>1494.969</ele>
        <time>2019-04-19T06:24:43Z</time>
      </trkpt>
      <trkpt lat="42.29221" lon="1.80546">
        <ele>1491.281</ele>
        <time>2019-04-19T06:24:53Z</time>
      </trkpt>
      <trkpt lat="42.29211" lon="1.80552">
        <ele>1487.71</ele>
        <time>2019-04-19T06:25:02Z</time>
      </trkpt>
      <trkpt lat="42.29202" lon="1.80558">
        <ele>1484.598</ele>
        <time>2019-04-19T06:25:12Z</time>
      </trkpt>
      <trkpt lat="42.29192" lon="1.80554">
        <ele>1481.134</ele>
        <time>2019-04-19T06:25:26Z</time>
      </trkpt>
      <trkpt lat="42.29178" lon="1.80559">
        <ele>1477.757</ele>
        <time>2019-04-19T06:25:41Z</time>
      </trkpt>
      <trkpt lat="42.29161" lon="1.80568">
        <ele>1475.38</ele>
        <time>2019-04-19T06:25:57Z</time>
      </trkpt>
      <trkpt lat="42.29155" lon="1.80566">
        <ele>1471.923</ele>
        <time>2019-04-19T06:26:09Z</time>
      </trkpt>
      <trkpt lat="42.29141" lon="1.80579">
        <ele>1468.531</ele>
        <time>2019-04-19T06:26:25Z</time>
      </trkpt>
      <trkpt lat="42.29128" lon="1.80587">
        <ele>1465.161</ele>
        <time>2019-04-19T06:26:34Z</time>
      </trkpt>
      <trkpt lat="42.29117" lon="1.80598">
        <ele>1462.407</ele>
        <time>2019-04-19T06:26:45Z</time>
      </trkpt>
      <trkpt lat="42.29108" lon="1.80598">
        <ele>1459.008</ele>
        <time>2019-04-19T06:26:55Z</time>
      </trkpt>
      <trkpt lat="42.29102" lon="1.80605">
        <ele>1455.596</ele>
        <time>2019-04-19T06:27:04Z</time>
      </trkpt>
      <trkpt lat="42.29101" lon="1.80606">
        <ele>1455.598</ele>
        <time>2019-04-19T06:27:05Z</time>
      </trkpt>
      <trkpt lat="42.29098" lon="1.80612">
        <ele>1452.317</ele>
        <time>2019-04-19T06:27:15Z</time>
      </trkpt>
      <trkpt lat="42.29093" lon="1.80613">
        <ele>1451.225</ele>
        <time>2019-04-19T06:27:21Z</time>
      </trkpt>
      <trkpt lat="42.29088" lon="1.80623">
        <ele>1447.521</ele>
        <time>2019-04-19T06:27:30Z</time>
      </trkpt>
      <trkpt lat="42.29079" lon="1.80636">
        <ele>1444.644</ele>
        <time>2019-04-19T06:27:42Z</time>
      </trkpt>
      <trkpt lat="42.29067" lon="1.80672">
        <ele>1444.057</ele>
        <time>2019-04-19T06:27:58Z</time>
      </trkpt>
      <trkpt lat="42.29052" lon="1.80688">
        <ele>1441.26</ele>
        <time>2019-04-19T06:28:12Z</time>
      </trkpt>
      <trkpt lat="42.29045" lon="1.80697">
        <ele>1438.221</ele>
        <time>2019-04-19T06:28:22Z</time>
      </trkpt>
      <trkpt lat="42.29041" lon="1.80706">
        <ele>1435.341</ele>
        <time>2019-04-19T06:28:31Z</time>
      </trkpt>
      <trkpt lat="42.2904" lon="1.80707">
        <ele>1435.305</ele>
        <time>2019-04-19T06:28:32Z</time>
      </trkpt>
      <trkpt lat="42.29034" lon="1.8072">
        <ele>1431.608</ele>
        <time>2019-04-19T06:28:41Z</time>
      </trkpt>
      <trkpt lat="42.29034" lon="1.80721">
        <ele>1431.545</ele>
        <time>2019-04-19T06:28:42Z</time>
      </trkpt>
      <trkpt lat="42.2903" lon="1.80724">
        <ele>1428.767</ele>
        <time>2019-04-19T06:28:54Z</time>
      </trkpt>
      <trkpt lat="42.29024" lon="1.8073">
        <ele>1424.826</ele>
        <time>2019-04-19T06:29:05Z</time>
      </trkpt>
      <trkpt lat="42.2902" lon="1.8074">
        <ele>1421.474</ele>
        <time>2019-04-19T06:29:19Z</time>
      </trkpt>
      <trkpt lat="42.29012" lon="1.8075">
        <ele>1417.63</ele>
        <time>2019-04-19T06:29:32Z</time>
      </trkpt>
      <trkpt lat="42.29004" lon="1.8076">
        <ele>1414.793</ele>
        <time>2019-04-19T06:29:46Z</time>
      </trkpt>
      <trkpt lat="42.28998" lon="1.80766">
        <ele>1411.336</ele>
        <time>2019-04-19T06:29:53Z</time>
      </trkpt>
      <trkpt lat="42.28997" lon="1.80782">
        <ele>1408.599</ele>
        <time>2019-04-19T06:30:00Z</time>
      </trkpt>
      <trkpt lat="42.28993" lon="1.80821">
        <ele>1405.531</ele>
        <time>2019-04-19T06:30:18Z</time>
      </trkpt>
      <trkpt lat="42.28985" lon="1.80838">
        <ele>1402.761</ele>
        <time>2019-04-19T06:30:29Z</time>
      </trkpt>
      <trkpt lat="42.28984" lon="1.80844">
        <ele>1400.807</ele>
        <time>2019-04-19T06:30:36Z</time>
      </trkpt>
      <trkpt lat="42.28978" lon="1.8085">
        <ele>1396.908</ele>
        <time>2019-04-19T06:30:45Z</time>
      </trkpt>
      <trkpt lat="42.28977" lon="1.80851">
        <ele>1396.966</ele>
        <time>2019-04-19T06:30:46Z</time>
      </trkpt>
      <trkpt lat="42.28976" lon="1.80869">
        <ele>1393.028</ele>
        <time>2019-04-19T06:31:00Z</time>
      </trkpt>
      <trkpt lat="42.2897" lon="1.80881">
        <ele>1390.397</ele>
        <time>2019-04-19T06:31:09Z</time>
      </trkpt>
      <trkpt lat="42.28962" lon="1.80908">
        <ele>1386.855</ele>
        <time>2019-04-19T06:31:24Z</time>
      </trkpt>
      <trkpt lat="42.28958" lon="1.80913">
        <ele>1385.041</ele>
        <time>2019-04-19T06:31:30Z</time>
      </trkpt>
      <trkpt lat="42.2895" lon="1.80926">
        <ele>1381.564</ele>
        <time>2019-04-19T06:31:44Z</time>
      </trkpt>
      <trkpt lat="42.28944" lon="1.80941">
        <ele>1378.217</ele>
        <time>2019-04-19T06:31:54Z</time>
      </trkpt>
      <trkpt lat="42.28929" lon="1.80953">
        <ele>1374.95</ele>
        <time>2019-04-19T06:32:06Z</time>
      </trkpt>
      <trkpt lat="42.28927" lon="1.80954">
        <ele>1373.886</ele>
        <time>2019-04-19T06:32:08Z</time>
      </trkpt>
      <trkpt lat="42.28923" lon="1.80951">
        <ele>1370.56</ele>
        <time>2019-04-19T06:32:19Z</time>
      </trkpt>
      <trkpt lat="42.28917" lon="1.80946">
        <ele>1367.626</ele>
        <time>2019-04-19T06:32:29Z</time>
      </trkpt>
      <trkpt lat="42.28913" lon="1.8095">
        <ele>1364.308</ele>
        <time>2019-04-19T06:32:40Z</time>
      </trkpt>
      <trkpt lat="42.28908" lon="1.80958">
        <ele>1362.351</ele>
        <time>2019-04-19T06:32:45Z</time>
      </trkpt>
      <trkpt lat="42.28904" lon="1.80966">
        <ele>1359.033</ele>
        <time>2019-04-19T06:32:54Z</time>
      </trkpt>
      <trkpt lat="42.28903" lon="1.8097">
        <ele>1358.072</ele>
        <time>2019-04-19T06:32:56Z</time>
      </trkpt>
      <trkpt lat="42.28904" lon="1.80979">
        <ele>1355.13</ele>
        <time>2019-04-19T06:33:06Z</time>
      </trkpt>
      <trkpt lat="42.28901" lon="1.80988">
        <ele>1351.226</ele>
        <time>2019-04-19T06:33:21Z</time>
      </trkpt>
      <trkpt lat="42.2889" lon="1.80999">
        <ele>1348.379</ele>
        <time>2019-04-19T06:33:32Z</time>
      </trkpt>
      <trkpt lat="42.28877" lon="1.81026">
        <ele>1345.162</ele>
        <time>2019-04-19T06:33:42Z</time>
      </trkpt>
      <trkpt lat="42.2887" lon="1.81041">
        <ele>1341.715</ele>
        <time>2019-04-19T06:33:54Z</time>
      </trkpt>
      <trkpt lat="42.28868" lon="1.81047">
        <ele>1339.716</ele>
        <time>2019-04-19T06:33:59Z</time>
      </trkpt>
      <trkpt lat="42.28862" lon="1.8106">
        <ele>1336.376</ele>
        <time>2019-04-19T06:34:10Z</time>
      </trkpt>
      <trkpt lat="42.28861" lon="1.81061">
        <ele>1336.413</ele>
        <time>2019-04-19T06:34:11Z</time>
      </trkpt>
      <trkpt lat="42.28854" lon="1.8108">
        <ele>1333.108</ele>
        <time>2019-04-19T06:34:25Z</time>
      </trkpt>
      <trkpt lat="42.28851" lon="1.81082">
        <ele>1331.664</ele>
        <time>2019-04-19T06:34:29Z</time>
      </trkpt>
      <trkpt lat="42.28842" lon="1.81099">
        <ele>1328.376</ele>
        <time>2019-04-19T06:34:42Z</time>
      </trkpt>
      <trkpt lat="42.28838" lon="1.81106">
        <ele>1326.225</ele>
        <time>2019-04-19T06:34:48Z</time>
      </trkpt>
      <trkpt lat="42.28834" lon="1.81121">
        <ele>1322.993</ele>
        <time>2019-04-19T06:34:56Z</time>
      </trkpt>
      <trkpt lat="42.28836" lon="1.81127">
        <ele>1322.049</ele>
        <time>2019-04-19T06:35:01Z</time>
      </trkpt>
      <trkpt lat="42.28846" lon="1.81126">
        <ele>1318.692</ele>
        <time>2019-04-19T06:35:11Z</time>
      </trkpt>
      <trkpt lat="42.28852" lon="1.81122">
        <ele>1314.815</ele>
        <time>2019-04-19T06:35:23Z</time>
      </trkpt>
      <trkpt lat="42.28853" lon="1.81122">
        <ele>1314.878</ele>
        <time>2019-04-19T06:35:24Z</time>
      </trkpt>
      <trkpt lat="42.28856" lon="1.81124">
        <ele>1313.378</ele>
        <time>2019-04-19T06:35:28Z</time>
      </trkpt>
      <trkpt lat="42.28855" lon="1.8113">
        <ele>1311.833</ele>
        <time>2019-04-19T06:35:33Z</time>
      </trkpt>
      <trkpt lat="42.28856" lon="1.8114">
        <ele>1308.526</ele>
        <time>2019-04-19T06:35:42Z</time>
      </trkpt>
      <trkpt lat="42.28855" lon="1.81148">
        <ele>1305.108</ele>
        <time>2019-04-19T06:35:56Z</time>
      </trkpt>
      <trkpt lat="42.28852" lon="1.8115">
        <ele>1303.27</ele>
        <time>2019-04-19T06:36:00Z</time>
      </trkpt>
      <trkpt lat="42.28847" lon="1.81171">
        <ele>1299.922</ele>
        <time>2019-04-19T06:36:11Z</time>
      </trkpt>
      <trkpt lat="42.28845" lon="1.81187">
        <ele>1296.541</ele>
        <time>2019-04-19T06:36:20Z</time>
      </trkpt>
      <trkpt lat="42.28833" lon="1.81206">
        <ele>1294.179</ele>
        <time>2019-04-19T06:36:37Z</time>
      </trkpt>
      <trkpt lat="42.28834" lon="1.81219">
        <ele>1294.055</ele>
        <time>2019-04-19T06:36:54Z</time>
      </trkpt>
      <trkpt lat="42.28834" lon="1.81219">
        <ele>1295.058</ele>
        <time>2019-04-19T06:36:56Z</time>
      </trkpt>
      <trkpt lat="42.2883" lon="1.81213">
        <ele>1295.111</ele>
        <time>2019-04-19T06:37:16Z</time>
      </trkpt>
      <trkpt lat="42.28831" lon="1.81211">
        <ele>1294.654</ele>
        <time>2019-04-19T06:37:33Z</time>
      </trkpt>
      <trkpt lat="42.28837" lon="1.81216">
        <ele>1294.523</ele>
        <time>2019-04-19T06:37:47Z</time>
      </trkpt>
      <trkpt lat="42.28833" lon="1.81222">
        <ele>1295.083</ele>
        <time>2019-04-19T06:38:07Z</time>
      </trkpt>
      <trkpt lat="42.28834" lon="1.81232">
        <ele>1295.111</ele>
        <time>2019-04-19T06:38:33Z</time>
      </trkpt>
      <trkpt lat="42.28832" lon="1.81231">
        <ele>1295.108</ele>
        <time>2019-04-19T06:38:45Z</time>
      </trkpt>
      <trkpt lat="42.28826" lon="1.81227">
        <ele>1295.185</ele>
        <time>2019-04-19T06:38:59Z</time>
      </trkpt>
      <trkpt lat="42.28823" lon="1.81232">
        <ele>1295.557</ele>
        <time>2019-04-19T06:39:18Z</time>
      </trkpt>
      <trkpt lat="42.28825" lon="1.81231">
        <ele>1294.156</ele>
        <time>2019-04-19T06:39:28Z</time>
      </trkpt>
      <trkpt lat="42.28822" lon="1.81239">
        <ele>1292.244</ele>
        <time>2019-04-19T06:39:36Z</time>
      </trkpt>
      <trkpt lat="42.28819" lon="1.81242">
        <ele>1291.11</ele>
        <time>2019-04-19T06:39:40Z</time>
      </trkpt>
      <trkpt lat="42.28816" lon="1.8125">
        <ele>1289.853</ele>
        <time>2019-04-19T06:39:48Z</time>
      </trkpt>
      <trkpt lat="42.28812" lon="1.81257">
        <ele>1289.336</ele>
        <time>2019-04-19T06:39:53Z</time>
      </trkpt>
      <trkpt lat="42.28809" lon="1.81264">
        <ele>1287.869</ele>
        <time>2019-04-19T06:39:58Z</time>
      </trkpt>
      <trkpt lat="42.28806" lon="1.81268">
        <ele>1287.338</ele>
        <time>2019-04-19T06:40:01Z</time>
      </trkpt>
      <trkpt lat="42.28795" lon="1.81271">
        <ele>1285.97</ele>
        <time>2019-04-19T06:40:11Z</time>
      </trkpt>
      <trkpt lat="42.2879" lon="1.81277">
        <ele>1284.417</ele>
        <time>2019-04-19T06:40:18Z</time>
      </trkpt>
      <trkpt lat="42.28781" lon="1.8129">
        <ele>1282.108</ele>
        <time>2019-04-19T06:40:29Z</time>
      </trkpt>
      <trkpt lat="42.28776" lon="1.81294">
        <ele>1279.236</ele>
        <time>2019-04-19T06:40:41Z</time>
      </trkpt>
      <trkpt lat="42.28767" lon="1.81305">
        <ele>1276.818</ele>
        <time>2019-04-19T06:40:49Z</time>
      </trkpt>
      <trkpt lat="42.28761" lon="1.81321">
        <ele>1273.887</ele>
        <time>2019-04-19T06:40:59Z</time>
      </trkpt>
      <trkpt lat="42.2875" lon="1.81338">
        <ele>1271.565</ele>
        <time>2019-04-19T06:41:09Z</time>
      </trkpt>
      <trkpt lat="42.28747" lon="1.81353">
        <ele>1271.121</ele>
        <time>2019-04-19T06:41:17Z</time>
      </trkpt>
      <trkpt lat="42.28746" lon="1.81367">
        <ele>1268.254</ele>
        <time>2019-04-19T06:41:27Z</time>
      </trkpt>
      <trkpt lat="42.28738" lon="1.81374">
        <ele>1265.777</ele>
        <time>2019-04-19T06:41:38Z</time>
      </trkpt>
      <trkpt lat="42.28731" lon="1.81378">
        <ele>1262.85</ele>
        <time>2019-04-19T06:41:45Z</time>
      </trkpt>
      <trkpt lat="42.28724" lon="1.81386">
        <ele>1261.396</ele>
        <time>2019-04-19T06:41:53Z</time>
      </trkpt>
      <trkpt lat="42.28722" lon="1.81396">
        <ele>1259.931</ele>
        <time>2019-04-19T06:42:03Z</time>
      </trkpt>
      <trkpt lat="42.28711" lon="1.81412">
        <ele>1258.624</ele>
        <time>2019-04-19T06:42:16Z</time>
      </trkpt>
      <trkpt lat="42.28703" lon="1.81409">
        <ele>1255.708</ele>
        <time>2019-04-19T06:42:26Z</time>
      </trkpt>
      <trkpt lat="42.28686" lon="1.81421">
        <ele>1254.742</ele>
        <time>2019-04-19T06:42:37Z</time>
      </trkpt>
      <trkpt lat="42.28683" lon="1.8142">
        <ele>1255.784</ele>
        <time>2019-04-19T06:42:44Z</time>
      </trkpt>
      <trkpt lat="42.2868" lon="1.81411">
        <ele>1256.253</ele>
        <time>2019-04-19T06:42:56Z</time>
      </trkpt>
      <trkpt lat="42.28666" lon="1.81421">
        <ele>1259.011</ele>
        <time>2019-04-19T06:43:12Z</time>
      </trkpt>
      <trkpt lat="42.28654" lon="1.81427">
        <ele>1259.447</ele>
        <time>2019-04-19T06:43:23Z</time>
      </trkpt>
      <trkpt lat="42.28651" lon="1.81431">
        <ele>1259.58</ele>
        <time>2019-04-19T06:43:27Z</time>
      </trkpt>
      <trkpt lat="42.2865" lon="1.8144">
        <ele>1258.033</ele>
        <time>2019-04-19T06:43:34Z</time>
      </trkpt>
      <trkpt lat="42.28637" lon="1.81457">
        <ele>1256.176</ele>
        <time>2019-04-19T06:43:45Z</time>
      </trkpt>
      <trkpt lat="42.28634" lon="1.81465">
        <ele>1253.779</ele>
        <time>2019-04-19T06:43:51Z</time>
      </trkpt>
      <trkpt lat="42.28632" lon="1.81473">
        <ele>1251.205</ele>
        <time>2019-04-19T06:44:01Z</time>
      </trkpt>
      <trkpt lat="42.28627" lon="1.81479">
        <ele>1249.825</ele>
        <time>2019-04-19T06:44:10Z</time>
      </trkpt>
      <trkpt lat="42.28625" lon="1.81483">
        <ele>1248.908</ele>
        <time>2019-04-19T06:44:12Z</time>
      </trkpt>
      <trkpt lat="42.28618" lon="1.81489">
        <ele>1246.04</ele>
        <time>2019-04-19T06:44:24Z</time>
      </trkpt>
      <trkpt lat="42.28607" lon="1.81496">
        <ele>1244.672</ele>
        <time>2019-04-19T06:44:36Z</time>
      </trkpt>
      <trkpt lat="42.28599" lon="1.81506">
        <ele>1244.081</ele>
        <time>2019-04-19T06:44:41Z</time>
      </trkpt>
      <trkpt lat="42.28593" lon="1.81512">
        <ele>1243.149</ele>
        <time>2019-04-19T06:44:45Z</time>
      </trkpt>
      <trkpt lat="42.28578" lon="1.81531">
        <ele>1243.115</ele>
        <time>2019-04-19T06:44:57Z</time>
      </trkpt>
      <trkpt lat="42.28571" lon="1.81538">
        <ele>1243.158</ele>
        <time>2019-04-19T06:45:04Z</time>
      </trkpt>
      <trkpt lat="42.28564" lon="1.81542">
        <ele>1241.621</ele>
        <time>2019-04-19T06:45:12Z</time>
      </trkpt>
      <trkpt lat="42.28553" lon="1.81546">
        <ele>1238.884</ele>
        <time>2019-04-19T06:45:24Z</time>
      </trkpt>
      <trkpt lat="42.28551" lon="1.81547">
        <ele>1237.341</ele>
        <time>2019-04-19T06:45:27Z</time>
      </trkpt>
      <trkpt lat="42.28547" lon="1.8155">
        <ele>1235.981</ele>
        <time>2019-04-19T06:45:34Z</time>
      </trkpt>
      <trkpt lat="42.28539" lon="1.81558">
        <ele>1234.909</ele>
        <time>2019-04-19T06:45:38Z</time>
      </trkpt>
      <trkpt lat="42.28525" lon="1.81566">
        <ele>1233.608</ele>
        <time>2019-04-19T06:45:48Z</time>
      </trkpt>
      <trkpt lat="42.2852" lon="1.81565">
        <ele>1231.197</ele>
        <time>2019-04-19T06:45:57Z</time>
      </trkpt>
      <trkpt lat="42.28513" lon="1.81565">
        <ele>1230.129</ele>
        <time>2019-04-19T06:46:07Z</time>
      </trkpt>
      <trkpt lat="42.2851" lon="1.81567">
        <ele>1229.298</ele>
        <time>2019-04-19T06:46:10Z</time>
      </trkpt>
      <trkpt lat="42.28509" lon="1.81566">
        <ele>1228.286</ele>
        <time>2019-04-19T06:46:12Z</time>
      </trkpt>
      <trkpt lat="42.28503" lon="1.81565">
        <ele>1225.842</ele>
        <time>2019-04-19T06:46:22Z</time>
      </trkpt>
      <trkpt lat="42.28478" lon="1.81587">
        <ele>1221.995</ele>
        <time>2019-04-19T06:46:33Z</time>
      </trkpt>
      <trkpt lat="42.28466" lon="1.81599">
        <ele>1221.078</ele>
        <time>2019-04-19T06:46:37Z</time>
      </trkpt>
      <trkpt lat="42.28396" lon="1.81627">
        <ele>1218.111</ele>
        <time>2019-04-19T06:46:48Z</time>
      </trkpt>
      <trkpt lat="42.28375" lon="1.81633">
        <ele>1214.752</ele>
        <time>2019-04-19T06:46:58Z</time>
      </trkpt>
      <trkpt lat="42.2836" lon="1.81623">
        <ele>1213.853</ele>
        <time>2019-04-19T06:47:12Z</time>
      </trkpt>
      <trkpt lat="42.28359" lon="1.81617">
        <ele>1210.408</ele>
        <time>2019-04-19T06:47:18Z</time>
      </trkpt>
      <trkpt lat="42.28352" lon="1.81617">
        <ele>1207.108</ele>
        <time>2019-04-19T06:47:27Z</time>
      </trkpt>
      <trkpt lat="42.28344" lon="1.81616">
        <ele>1203.828</ele>
        <time>2019-04-19T06:47:36Z</time>
      </trkpt>
      <trkpt lat="42.28342" lon="1.81616">
        <ele>1203.36</ele>
        <time>2019-04-19T06:47:38Z</time>
      </trkpt>
      <trkpt lat="42.28342" lon="1.81614">
        <ele>1202.379</ele>
        <time>2019-04-19T06:47:40Z</time>
      </trkpt>
      <trkpt lat="42.28341" lon="1.81618">
        <ele>1199.037</ele>
        <time>2019-04-19T06:47:48Z</time>
      </trkpt>
      <trkpt lat="42.28341" lon="1.81623">
        <ele>1196.063</ele>
        <time>2019-04-19T06:47:55Z</time>
      </trkpt>
      <trkpt lat="42.28338" lon="1.81627">
        <ele>1192.726</ele>
        <time>2019-04-19T06:48:05Z</time>
      </trkpt>
      <trkpt lat="42.28333" lon="1.81626">
        <ele>1188.829</ele>
        <time>2019-04-19T06:48:14Z</time>
      </trkpt>
      <trkpt lat="42.28325" lon="1.81625">
        <ele>1186.012</ele>
        <time>2019-04-19T06:48:22Z</time>
      </trkpt>
      <trkpt lat="42.28318" lon="1.81633">
        <ele>1182.542</ele>
        <time>2019-04-19T06:48:33Z</time>
      </trkpt>
      <trkpt lat="42.28312" lon="1.81641">
        <ele>1180.122</ele>
        <time>2019-04-19T06:48:43Z</time>
      </trkpt>
      <trkpt lat="42.28303" lon="1.81645">
        <ele>1176.714</ele>
        <time>2019-04-19T06:48:51Z</time>
      </trkpt>
      <trkpt lat="42.28292" lon="1.81656">
        <ele>1174.408</ele>
        <time>2019-04-19T06:49:01Z</time>
      </trkpt>
      <trkpt lat="42.28277" lon="1.81666">
        <ele>1171.657</ele>
        <time>2019-04-19T06:49:10Z</time>
      </trkpt>
      <trkpt lat="42.28272" lon="1.81664">
        <ele>1168.299</ele>
        <time>2019-04-19T06:49:20Z</time>
      </trkpt>
      <trkpt lat="42.2826" lon="1.81664">
        <ele>1164.718</ele>
        <time>2019-04-19T06:49:31Z</time>
      </trkpt>
      <trkpt lat="42.28244" lon="1.81665">
        <ele>1161.566</ele>
        <time>2019-04-19T06:49:42Z</time>
      </trkpt>
      <trkpt lat="42.28219" lon="1.81666">
        <ele>1161.042</ele>
        <time>2019-04-19T06:49:57Z</time>
      </trkpt>
      <trkpt lat="42.28208" lon="1.81664">
        <ele>1164.285</ele>
        <time>2019-04-19T06:50:06Z</time>
      </trkpt>
      <trkpt lat="42.28195" lon="1.81667">
        <ele>1163.368</ele>
        <time>2019-04-19T06:50:15Z</time>
      </trkpt>
      <trkpt lat="42.28185" lon="1.81664">
        <ele>1160.921</ele>
        <time>2019-04-19T06:50:27Z</time>
      </trkpt>
      <trkpt lat="42.28174" lon="1.81647">
        <ele>1159.973</ele>
        <time>2019-04-19T06:50:39Z</time>
      </trkpt>
      <trkpt lat="42.2817" lon="1.81638">
        <ele>1157.085</ele>
        <time>2019-04-19T06:50:49Z</time>
      </trkpt>
      <trkpt lat="42.28168" lon="1.81635">
        <ele>1153.713</ele>
        <time>2019-04-19T06:50:57Z</time>
      </trkpt>
      <trkpt lat="42.28165" lon="1.81636">
        <ele>1150.408</ele>
        <time>2019-04-19T06:51:04Z</time>
      </trkpt>
      <trkpt lat="42.28135" lon="1.81707">
        <ele>1146.94</ele>
        <time>2019-04-19T06:51:13Z</time>
      </trkpt>
      <trkpt lat="42.28136" lon="1.81708">
        <ele>1146.162</ele>
        <time>2019-04-19T06:51:15Z</time>
      </trkpt>
      <trkpt lat="42.28137" lon="1.8171">
        <ele>1145.071</ele>
        <time>2019-04-19T06:51:17Z</time>
      </trkpt>
      <trkpt lat="42.28136" lon="1.81719">
        <ele>1142.279</ele>
        <time>2019-04-19T06:51:28Z</time>
      </trkpt>
      <trkpt lat="42.28134" lon="1.81729">
        <ele>1140.745</ele>
        <time>2019-04-19T06:51:37Z</time>
      </trkpt>
      <trkpt lat="42.28135" lon="1.81748">
        <ele>1138.848</ele>
        <time>2019-04-19T06:51:50Z</time>
      </trkpt>
      <trkpt lat="42.28127" lon="1.8177">
        <ele>1137.071</ele>
        <time>2019-04-19T06:52:00Z</time>
      </trkpt>
      <trkpt lat="42.28121" lon="1.81797">
        <ele>1135.424</ele>
        <time>2019-04-19T06:52:12Z</time>
      </trkpt>
      <trkpt lat="42.28116" lon="1.81822">
        <ele>1132.593</ele>
        <time>2019-04-19T06:52:23Z</time>
      </trkpt>
      <trkpt lat="42.28108" lon="1.81851">
        <ele>1131.165</ele>
        <time>2019-04-19T06:52:33Z</time>
      </trkpt>
      <trkpt lat="42.28106" lon="1.81858">
        <ele>1130.221</ele>
        <time>2019-04-19T06:52:40Z</time>
      </trkpt>
      <trkpt lat="42.28107" lon="1.81854">
        <ele>1130.208</ele>
        <time>2019-04-19T06:52:43Z</time>
      </trkpt>
      <trkpt lat="42.28107" lon="1.81851">
        <ele>1129.742</ele>
        <time>2019-04-19T06:52:46Z</time>
      </trkpt>
      <trkpt lat="42.28111" lon="1.81843">
        <ele>1127.894</ele>
        <time>2019-04-19T06:52:53Z</time>
      </trkpt>
      <trkpt lat="42.28109" lon="1.81846">
        <ele>1127.323</ele>
        <time>2019-04-19T06:52:55Z</time>
      </trkpt>
      <trkpt lat="42.28109" lon="1.81844">
        <ele>1125.391</ele>
        <time>2019-04-19T06:53:02Z</time>
      </trkpt>
      <trkpt lat="42.28104" lon="1.81854">
        <ele>1121.657</ele>
        <time>2019-04-19T06:53:11Z</time>
      </trkpt>
      <trkpt lat="42.28021" lon="1.81958">
        <ele>1120.15</ele>
        <time>2019-04-19T06:53:20Z</time>
      </trkpt>
      <trkpt lat="42.28001" lon="1.8196">
        <ele>1119.213</ele>
        <time>2019-04-19T06:53:33Z</time>
      </trkpt>
      <trkpt lat="42.27985" lon="1.81962">
        <ele>1119.246</ele>
        <time>2019-04-19T06:53:44Z</time>
      </trkpt>
      <trkpt lat="42.27979" lon="1.81961">
        <ele>1118.612</ele>
        <time>2019-04-19T06:53:48Z</time>
      </trkpt>
      <trkpt lat="42.2796" lon="1.81955">
        <ele>1115.232</ele>
        <time>2019-04-19T06:54:01Z</time>
      </trkpt>
      <trkpt lat="42.27946" lon="1.81962">
        <ele>1112.405</ele>
        <time>2019-04-19T06:54:09Z</time>
      </trkpt>
      <trkpt lat="42.27932" lon="1.81967">
        <ele>1109.008</ele>
        <time>2019-04-19T06:54:17Z</time>
      </trkpt>
      <trkpt lat="42.27917" lon="1.81968">
        <ele>1105.634</ele>
        <time>2019-04-19T06:54:25Z</time>
      </trkpt>
      <trkpt lat="42.27898" lon="1.81974">
        <ele>1102.786</ele>
        <time>2019-04-19T06:54:36Z</time>
      </trkpt>
      <trkpt lat="42.27884" lon="1.81984">
        <ele>1098.925</ele>
        <time>2019-04-19T06:54:46Z</time>
      </trkpt>
      <trkpt lat="42.27874" lon="1.81963">
        <ele>1096.033</ele>
        <time>2019-04-19T06:54:56Z</time>
      </trkpt>
      <trkpt lat="42.2786" lon="1.81922">
        <ele>1093.229</ele>
        <time>2019-04-19T06:55:05Z</time>
      </trkpt>
      <trkpt lat="42.27852" lon="1.81911">
        <ele>1089.722</ele>
        <time>2019-04-19T06:55:15Z</time>
      </trkpt>
      <trkpt lat="42.27843" lon="1.81893">
        <ele>1086.475</ele>
        <time>2019-04-19T06:55:27Z</time>
      </trkpt>
      <trkpt lat="42.27839" lon="1.81908">
        <ele>1083.018</ele>
        <time>2019-04-19T06:55:41Z</time>
      </trkpt>
      <trkpt lat="42.27837" lon="1.81924">
        <ele>1082.175</ele>
        <time>2019-04-19T06:55:55Z</time>
      </trkpt>
      <trkpt lat="42.27833" lon="1.81916">
        <ele>1079.228</ele>
        <time>2019-04-19T06:56:06Z</time>
      </trkpt>
      <trkpt lat="42.27832" lon="1.81916">
        <ele>1077.72</ele>
        <time>2019-04-19T06:56:10Z</time>
      </trkpt>
      <trkpt lat="42.27829" lon="1.81924">
        <ele>1074.508</ele>
        <time>2019-04-19T06:56:20Z</time>
      </trkpt>
      <trkpt lat="42.27827" lon="1.8194">
        <ele>1073.09</ele>
        <time>2019-04-19T06:56:32Z</time>
      </trkpt>
      <trkpt lat="42.2782" lon="1.81939">
        <ele>1069.742</ele>
        <time>2019-04-19T06:56:43Z</time>
      </trkpt>
      <trkpt lat="42.27817" lon="1.81926">
        <ele>1066.241</ele>
        <time>2019-04-19T06:56:58Z</time>
      </trkpt>
      <trkpt lat="42.27813" lon="1.81913">
        <ele>1062.889</ele>
        <time>2019-04-19T06:57:08Z</time>
      </trkpt>
      <trkpt lat="42.27809" lon="1.81916">
        <ele>1059.985</ele>
        <time>2019-04-19T06:57:20Z</time>
      </trkpt>
      <trkpt lat="42.27805" lon="1.81922">
        <ele>1057.118</ele>
        <time>2019-04-19T06:57:33Z</time>
      </trkpt>
      <trkpt lat="42.278" lon="1.81917">
        <ele>1053.821</ele>
        <time>2019-04-19T06:57:45Z</time>
      </trkpt>
      <trkpt lat="42.27767" lon="1.81913">
        <ele>1050.894</ele>
        <time>2019-04-19T06:57:56Z</time>
      </trkpt>
      <trkpt lat="42.27741" lon="1.81938">
        <ele>1047.452</ele>
        <time>2019-04-19T06:58:08Z</time>
      </trkpt>
      <trkpt lat="42.27735" lon="1.81944">
        <ele>1045.553</ele>
        <time>2019-04-19T06:58:14Z</time>
      </trkpt>
      <trkpt lat="42.27732" lon="1.81943">
        <ele>1045.008</ele>
        <time>2019-04-19T06:58:29Z</time>
      </trkpt>
      <trkpt lat="42.27728" lon="1.81942">
        <ele>1043.208</ele>
        <time>2019-04-19T06:58:45Z</time>
      </trkpt>
      <trkpt lat="42.27729" lon="1.81931">
        <ele>1041.878</ele>
        <time>2019-04-19T06:59:00Z</time>
      </trkpt>
      <trkpt lat="42.27727" lon="1.81902">
        <ele>1039.94</ele>
        <time>2019-04-19T06:59:16Z</time>
      </trkpt>
      <trkpt lat="42.27722" lon="1.81891">
        <ele>1037.549</ele>
        <time>2019-04-19T06:59:33Z</time>
      </trkpt>
      <trkpt lat="42.27724" lon="1.8187">
        <ele>1034.197</ele>
        <time>2019-04-19T06:59:47Z</time>
      </trkpt>
      <trkpt lat="42.2772" lon="1.81878">
        <ele>1031.243</ele>
        <time>2019-04-19T07:00:03Z</time>
      </trkpt>
      <trkpt lat="42.27713" lon="1.8188">
        <ele>1028.396</ele>
        <time>2019-04-19T07:00:16Z</time>
      </trkpt>
      <trkpt lat="42.27707" lon="1.81877">
        <ele>1025.859</ele>
        <time>2019-04-19T07:00:35Z</time>
      </trkpt>
      <trkpt lat="42.27701" lon="1.81889">
        <ele>1025.092</ele>
        <time>2019-04-19T07:00:54Z</time>
      </trkpt>
      <trkpt lat="42.27696" lon="1.81884">
        <ele>1022.976</ele>
        <time>2019-04-19T07:01:10Z</time>
      </trkpt>
      <trkpt lat="42.2769" lon="1.81894">
        <ele>1022.09</ele>
        <time>2019-04-19T07:01:25Z</time>
      </trkpt>
      <trkpt lat="42.27683" lon="1.81896">
        <ele>1022.019</ele>
        <time>2019-04-19T07:01:40Z</time>
      </trkpt>
      <trkpt lat="42.27684" lon="1.81888">
        <ele>1022.108</ele>
        <time>2019-04-19T07:02:01Z</time>
      </trkpt>
      <trkpt lat="42.27679" lon="1.81883">
        <ele>1021.67</ele>
        <time>2019-04-19T07:02:17Z</time>
      </trkpt>
      <trkpt lat="42.27669" lon="1.81874">
        <ele>1019.252</ele>
        <time>2019-04-19T07:02:31Z</time>
      </trkpt>
      <trkpt lat="42.2765" lon="1.81874">
        <ele>1016.761</ele>
        <time>2019-04-19T07:02:43Z</time>
      </trkpt>
      <trkpt lat="42.27642" lon="1.81877">
        <ele>1015.329</ele>
        <time>2019-04-19T07:02:59Z</time>
      </trkpt>
      <trkpt lat="42.27629" lon="1.81869">
        <ele>1014.835</ele>
        <time>2019-04-19T07:03:12Z</time>
      </trkpt>
      <trkpt lat="42.2762" lon="1.81867">
        <ele>1014.448</ele>
        <time>2019-04-19T07:03:28Z</time>
      </trkpt>
      <trkpt lat="42.27616" lon="1.81861">
        <ele>1012.871</ele>
        <time>2019-04-19T07:03:45Z</time>
      </trkpt>
      <trkpt lat="42.27612" lon="1.81849">
        <ele>1012.444</ele>
        <time>2019-04-19T07:04:07Z</time>
      </trkpt>
      <trkpt lat="42.2761" lon="1.8185">
        <ele>1012.429</ele>
        <time>2019-04-19T07:04:21Z</time>
      </trkpt>
      <trkpt lat="42.2761" lon="1.81854">
        <ele>1011.4</ele>
        <time>2019-04-19T07:04:40Z</time>
      </trkpt>
      <trkpt lat="42.27609" lon="1.81857">
        <ele>1010.92</ele>
        <time>2019-04-19T07:04:57Z</time>
      </trkpt>
      <trkpt lat="42.27611" lon="1.81855">
        <ele>1011.008</ele>
        <time>2019-04-19T07:05:16Z</time>
      </trkpt>
      <trkpt lat="42.27613" lon="1.81851">
        <ele>1012.515</ele>
        <time>2019-04-19T07:05:36Z</time>
      </trkpt>
      <trkpt lat="42.27609" lon="1.81857">
        <ele>1012.417</ele>
        <time>2019-04-19T07:06:00Z</time>
      </trkpt>
      <trkpt lat="42.27611" lon="1.81863">
        <ele>1008.676</ele>
        <time>2019-04-19T07:06:17Z</time>
      </trkpt>
      <trkpt lat="42.27612" lon="1.8186">
        <ele>1006.674</ele>
        <time>2019-04-19T07:06:32Z</time>
      </trkpt>
      <trkpt lat="42.27613" lon="1.81847">
        <ele>1006.28</ele>
        <time>2019-04-19T07:06:50Z</time>
      </trkpt>
      <trkpt lat="42.27605" lon="1.8184">
        <ele>1009.673</ele>
        <time>2019-04-19T07:07:07Z</time>
      </trkpt>
      <trkpt lat="42.27596" lon="1.8183">
        <ele>1011.586</ele>
        <time>2019-04-19T07:07:21Z</time>
      </trkpt>
      <trkpt lat="42.27587" lon="1.81824">
        <ele>1008.579</ele>
        <time>2019-04-19T07:07:30Z</time>
      </trkpt>
      <trkpt lat="42.27578" lon="1.81824">
        <ele>1006.184</ele>
        <time>2019-04-19T07:07:43Z</time>
      </trkpt>
      <trkpt lat="42.27571" lon="1.81824">
        <ele>1004.707</ele>
        <time>2019-04-19T07:07:55Z</time>
      </trkpt>
      <trkpt lat="42.27561" lon="1.81821">
        <ele>1003.317</ele>
        <time>2019-04-19T07:08:08Z</time>
      </trkpt>
      <trkpt lat="42.27553" lon="1.81822">
        <ele>1000.908</ele>
        <time>2019-04-19T07:08:19Z</time>
      </trkpt>
      <trkpt lat="42.27546" lon="1.81829">
        <ele>999.531</ele>
        <time>2019-04-19T07:08:31Z</time>
      </trkpt>
      <trkpt lat="42.27538" lon="1.81829">
        <ele>995.513</ele>
        <time>2019-04-19T07:08:44Z</time>
      </trkpt>
      <trkpt lat="42.27533" lon="1.81822">
        <ele>992.852</ele>
        <time>2019-04-19T07:08:55Z</time>
      </trkpt>
      <trkpt lat="42.27526" lon="1.81812">
        <ele>991.37</ele>
        <time>2019-04-19T07:09:05Z</time>
      </trkpt>
      <trkpt lat="42.2751" lon="1.81793">
        <ele>989.876</ele>
        <time>2019-04-19T07:09:18Z</time>
      </trkpt>
      <trkpt lat="42.27504" lon="1.81786">
        <ele>988.469</ele>
        <time>2019-04-19T07:09:26Z</time>
      </trkpt>
      <trkpt lat="42.27489" lon="1.81797">
        <ele>985.182</ele>
        <time>2019-04-19T07:09:38Z</time>
      </trkpt>
      <trkpt lat="42.2748" lon="1.81788">
        <ele>984.525</ele>
        <time>2019-04-19T07:09:54Z</time>
      </trkpt>
      <trkpt lat="42.27477" lon="1.81791">
        <ele>985.475</ele>
        <time>2019-04-19T07:09:59Z</time>
      </trkpt>
      <trkpt lat="42.27479" lon="1.81789">
        <ele>984.528</ele>
        <time>2019-04-19T07:10:07Z</time>
      </trkpt>
      <trkpt lat="42.2746" lon="1.81814">
        <ele>983.62</ele>
        <time>2019-04-19T07:10:21Z</time>
      </trkpt>
      <trkpt lat="42.27443" lon="1.81818">
        <ele>982.608</ele>
        <time>2019-04-19T07:10:33Z</time>
      </trkpt>
      <trkpt lat="42.2742" lon="1.81837">
        <ele>979.81</ele>
        <time>2019-04-19T07:10:47Z</time>
      </trkpt>
      <trkpt lat="42.27403" lon="1.81846">
        <ele>976.332</ele>
        <time>2019-04-19T07:10:58Z</time>
      </trkpt>
      <trkpt lat="42.27388" lon="1.81832">
        <ele>973.921</ele>
        <time>2019-04-19T07:11:09Z</time>
      </trkpt>
      <trkpt lat="42.27371" lon="1.81821">
        <ele>970.549</ele>
        <time>2019-04-19T07:11:22Z</time>
      </trkpt>
      <trkpt lat="42.27355" lon="1.81832">
        <ele>967.855</ele>
        <time>2019-04-19T07:11:39Z</time>
      </trkpt>
      <trkpt lat="42.27334" lon="1.81843">
        <ele>966.388</ele>
        <time>2019-04-19T07:11:52Z</time>
      </trkpt>
      <trkpt lat="42.27316" lon="1.81852">
        <ele>964.821</ele>
        <time>2019-04-19T07:12:04Z</time>
      </trkpt>
      <trkpt lat="42.27305" lon="1.8186">
        <ele>961.424</ele>
        <time>2019-04-19T07:12:12Z</time>
      </trkpt>
      <trkpt lat="42.27304" lon="1.81859">
        <ele>961.429</ele>
        <time>2019-04-19T07:12:13Z</time>
      </trkpt>
      <trkpt lat="42.27298" lon="1.81826">
        <ele>960.9</ele>
        <time>2019-04-19T07:12:24Z</time>
      </trkpt>
      <trkpt lat="42.27296" lon="1.81813">
        <ele>961.02</ele>
        <time>2019-04-19T07:12:29Z</time>
      </trkpt>
      <trkpt lat="42.27295" lon="1.81793">
        <ele>958.108</ele>
        <time>2019-04-19T07:12:40Z</time>
      </trkpt>
      <trkpt lat="42.27285" lon="1.81765">
        <ele>954.775</ele>
        <time>2019-04-19T07:12:54Z</time>
      </trkpt>
      <trkpt lat="42.27271" lon="1.81746">
        <ele>953.297</ele>
        <time>2019-04-19T07:13:08Z</time>
      </trkpt>
      <trkpt lat="42.27255" lon="1.81737">
        <ele>950.526</ele>
        <time>2019-04-19T07:13:22Z</time>
      </trkpt>
      <trkpt lat="42.2724" lon="1.8172">
        <ele>950.454</ele>
        <time>2019-04-19T07:13:34Z</time>
      </trkpt>
      <trkpt lat="42.27221" lon="1.81714">
        <ele>950.52</ele>
        <time>2019-04-19T07:13:47Z</time>
      </trkpt>
      <trkpt lat="42.27213" lon="1.81714">
        <ele>951.473</ele>
        <time>2019-04-19T07:13:52Z</time>
      </trkpt>
      <trkpt lat="42.27194" lon="1.81711">
        <ele>951.366</ele>
        <time>2019-04-19T07:14:05Z</time>
      </trkpt>
      <trkpt lat="42.27188" lon="1.81698">
        <ele>952.319</ele>
        <time>2019-04-19T07:14:14Z</time>
      </trkpt>
      <trkpt lat="42.27177" lon="1.81684">
        <ele>953.244</ele>
        <time>2019-04-19T07:14:25Z</time>
      </trkpt>
      <trkpt lat="42.27155" lon="1.81659">
        <ele>953.205</ele>
        <time>2019-04-19T07:14:40Z</time>
      </trkpt>
      <trkpt lat="42.27137" lon="1.81623">
        <ele>952.415</ele>
        <time>2019-04-19T07:14:51Z</time>
      </trkpt>
      <trkpt lat="42.27099" lon="1.81614">
        <ele>951.308</ele>
        <time>2019-04-19T07:14:57Z</time>
      </trkpt>
      <trkpt lat="42.27084" lon="1.81623">
        <ele>949.487</ele>
        <time>2019-04-19T07:15:07Z</time>
      </trkpt>
      <trkpt lat="42.27074" lon="1.81625">
        <ele>945.519</ele>
        <time>2019-04-19T07:15:18Z</time>
      </trkpt>
      <trkpt lat="42.27064" lon="1.81622">
        <ele>942.258</ele>
        <time>2019-04-19T07:15:28Z</time>
      </trkpt>
      <trkpt lat="42.27051" lon="1.81617">
        <ele>939.476</ele>
        <time>2019-04-19T07:15:39Z</time>
      </trkpt>
      <trkpt lat="42.27038" lon="1.81616">
        <ele>936.022</ele>
        <time>2019-04-19T07:15:49Z</time>
      </trkpt>
      <trkpt lat="42.27014" lon="1.81622">
        <ele>932.765</ele>
        <time>2019-04-19T07:16:00Z</time>
      </trkpt>
      <trkpt lat="42.27009" lon="1.81621">
        <ele>930.718</ele>
        <time>2019-04-19T07:16:05Z</time>
      </trkpt>
      <trkpt lat="42.27002" lon="1.81623">
        <ele>929.831</ele>
        <time>2019-04-19T07:16:10Z</time>
      </trkpt>
      <trkpt lat="42.26998" lon="1.81625">
        <ele>929.272</ele>
        <time>2019-04-19T07:16:12Z</time>
      </trkpt>
      <trkpt lat="42.26984" lon="1.81613">
        <ele>927.313</ele>
        <time>2019-04-19T07:16:24Z</time>
      </trkpt>
      <trkpt lat="42.2697" lon="1.81604">
        <ele>925.814</ele>
        <time>2019-04-19T07:16:36Z</time>
      </trkpt>
      <trkpt lat="42.26952" lon="1.81576">
        <ele>923.108</ele>
        <time>2019-04-19T07:16:51Z</time>
      </trkpt>
      <trkpt lat="42.26933" lon="1.81561">
        <ele>921.14</ele>
        <time>2019-04-19T07:17:05Z</time>
      </trkpt>
      <trkpt lat="42.26915" lon="1.81531">
        <ele>918.282</ele>
        <time>2019-04-19T07:17:17Z</time>
      </trkpt>
      <trkpt lat="42.26911" lon="1.81523">
        <ele>917.861</ele>
        <time>2019-04-19T07:17:19Z</time>
      </trkpt>
      <trkpt lat="42.26903" lon="1.81513">
        <ele>916.879</ele>
        <time>2019-04-19T07:17:22Z</time>
      </trkpt>
      <trkpt lat="42.26887" lon="1.81509">
        <ele>913.445</ele>
        <time>2019-04-19T07:17:30Z</time>
      </trkpt>
      <trkpt lat="42.26875" lon="1.81509">
        <ele>912.558</ele>
        <time>2019-04-19T07:17:35Z</time>
      </trkpt>
      <trkpt lat="42.26873" lon="1.81508">
        <ele>912.451</ele>
        <time>2019-04-19T07:17:36Z</time>
      </trkpt>
      <trkpt lat="42.26864" lon="1.81504">
        <ele>910.924</ele>
        <time>2019-04-19T07:17:40Z</time>
      </trkpt>
      <trkpt lat="42.26859" lon="1.81498">
        <ele>910.543</ele>
        <time>2019-04-19T07:17:43Z</time>
      </trkpt>
      <trkpt lat="42.26841" lon="1.81483">
        <ele>909.064</ele>
        <time>2019-04-19T07:17:55Z</time>
      </trkpt>
      <trkpt lat="42.26828" lon="1.81462">
        <ele>908.51</ele>
        <time>2019-04-19T07:18:05Z</time>
      </trkpt>
      <trkpt lat="42.26828" lon="1.81473">
        <ele>908.608</ele>
        <time>2019-04-19T07:18:16Z</time>
      </trkpt>
      <trkpt lat="42.26827" lon="1.81494">
        <ele>910.537</ele>
        <time>2019-04-19T07:18:31Z</time>
      </trkpt>
      <trkpt lat="42.26834" lon="1.81498">
        <ele>911.059</ele>
        <time>2019-04-19T07:18:57Z</time>
      </trkpt>
      <trkpt lat="42.26831" lon="1.81497">
        <ele>910.998</ele>
        <time>2019-04-19T07:19:22Z</time>
      </trkpt>
      <trkpt lat="42.26826" lon="1.81496">
        <ele>910.996</ele>
        <time>2019-04-19T07:19:54Z</time>
      </trkpt>
      <trkpt lat="42.26831" lon="1.81487">
        <ele>911.462</ele>
        <time>2019-04-19T07:20:08Z</time>
      </trkpt>
      <trkpt lat="42.26832" lon="1.81486">
        <ele>910.185</ele>
        <time>2019-04-19T07:20:10Z</time>
      </trkpt>
      <trkpt lat="42.26836" lon="1.8149">
        <ele>910.098</ele>
        <time>2019-04-19T07:20:32Z</time>
      </trkpt>
      <trkpt lat="42.26838" lon="1.81492">
        <ele>910.111</ele>
        <time>2019-04-19T07:20:57Z</time>
      </trkpt>
      <trkpt lat="42.26834" lon="1.81495">
        <ele>910.566</ele>
        <time>2019-04-19T07:21:24Z</time>
      </trkpt>
      <trkpt lat="42.26843" lon="1.81498">
        <ele>910.529</ele>
        <time>2019-04-19T07:21:52Z</time>
      </trkpt>
      <trkpt lat="42.26836" lon="1.81496">
        <ele>911.021</ele>
        <time>2019-04-19T07:22:18Z</time>
      </trkpt>
      <trkpt lat="42.26841" lon="1.81496">
        <ele>910.908</ele>
        <time>2019-04-19T07:22:42Z</time>
      </trkpt>
      <trkpt lat="42.26837" lon="1.81497">
        <ele>911.439</ele>
        <time>2019-04-19T07:23:07Z</time>
      </trkpt>
      <trkpt lat="42.26835" lon="1.81494">
        <ele>911.531</ele>
        <time>2019-04-19T07:23:31Z</time>
      </trkpt>
      <trkpt lat="42.26833" lon="1.81496">
        <ele>911.54</ele>
        <time>2019-04-19T07:23:51Z</time>
      </trkpt>
      <trkpt lat="42.26836" lon="1.81496">
        <ele>911.928</ele>
        <time>2019-04-19T07:24:16Z</time>
      </trkpt>
      <trkpt lat="42.26842" lon="1.81493">
        <ele>911.914</ele>
        <time>2019-04-19T07:24:42Z</time>
      </trkpt>
      <trkpt lat="42.26831" lon="1.81501">
        <ele>912.037</ele>
        <time>2019-04-19T07:25:03Z</time>
      </trkpt>
      <trkpt lat="42.26834" lon="1.81497">
        <ele>912.55</ele>
        <time>2019-04-19T07:25:32Z</time>
      </trkpt>
      <trkpt lat="42.26834" lon="1.81502">
        <ele>912.473</ele>
        <time>2019-04-19T07:25:55Z</time>
      </trkpt>
      <trkpt lat="42.26834" lon="1.815">
        <ele>912.466</ele>
        <time>2019-04-19T07:26:24Z</time>
      </trkpt>
      <trkpt lat="42.26831" lon="1.81505">
        <ele>912.429</ele>
        <time>2019-04-19T07:26:54Z</time>
      </trkpt>
      <trkpt lat="42.26827" lon="1.81502">
        <ele>913.021</ele>
        <time>2019-04-19T07:27:24Z</time>
      </trkpt>
      <trkpt lat="42.2684" lon="1.81499">
        <ele>912.908</ele>
        <time>2019-04-19T07:27:51Z</time>
      </trkpt>
      <trkpt lat="42.26834" lon="1.81495">
        <ele>913.459</ele>
        <time>2019-04-19T07:28:14Z</time>
      </trkpt>
      <trkpt lat="42.26836" lon="1.81504">
        <ele>913.311</ele>
        <time>2019-04-19T07:28:39Z</time>
      </trkpt>
      <trkpt lat="42.26838" lon="1.81495">
        <ele>913.43</ele>
        <time>2019-04-19T07:29:04Z</time>
      </trkpt>
      <trkpt lat="42.26845" lon="1.81495">
        <ele>913.988</ele>
        <time>2019-04-19T07:29:30Z</time>
      </trkpt>
      <trkpt lat="42.26837" lon="1.81496">
        <ele>913.834</ele>
        <time>2019-04-19T07:29:56Z</time>
      </trkpt>
      <trkpt lat="42.26842" lon="1.81498">
        <ele>913.977</ele>
        <time>2019-04-19T07:30:20Z</time>
      </trkpt>
      <trkpt lat="42.26839" lon="1.81496">
        <ele>914.41</ele>
        <time>2019-04-19T07:30:45Z</time>
      </trkpt>
      <trkpt lat="42.26839" lon="1.81499">
        <ele>914.443</ele>
        <time>2019-04-19T07:31:08Z</time>
      </trkpt>
      <trkpt lat="42.26843" lon="1.81495">
        <ele>914.317</ele>
        <time>2019-04-19T07:31:32Z</time>
      </trkpt>
      <trkpt lat="42.26838" lon="1.81498">
        <ele>914.387</ele>
        <time>2019-04-19T07:31:58Z</time>
      </trkpt>
      <trkpt lat="42.26835" lon="1.81495">
        <ele>914.415</ele>
        <time>2019-04-19T07:32:23Z</time>
      </trkpt>
      <trkpt lat="42.26832" lon="1.81493">
        <ele>914.308</ele>
        <time>2019-04-19T07:32:47Z</time>
      </trkpt>
      <trkpt lat="42.26833" lon="1.81499">
        <ele>913.984</ele>
        <time>2019-04-19T07:33:06Z</time>
      </trkpt>
      <trkpt lat="42.26832" lon="1.81502">
        <ele>913.826</ele>
        <time>2019-04-19T07:33:24Z</time>
      </trkpt>
      <trkpt lat="42.26833" lon="1.815">
        <ele>913.835</ele>
        <time>2019-04-19T07:33:46Z</time>
      </trkpt>
      <trkpt lat="42.26834" lon="1.81497">
        <ele>913.963</ele>
        <time>2019-04-19T07:34:09Z</time>
      </trkpt>
      <trkpt lat="42.2683" lon="1.81496">
        <ele>913.869</ele>
        <time>2019-04-19T07:34:20Z</time>
      </trkpt>
      <trkpt lat="42.26836" lon="1.81494">
        <ele>913.992</ele>
        <time>2019-04-19T07:34:33Z</time>
      </trkpt>
      <trkpt lat="42.26836" lon="1.81495">
        <ele>913.895</ele>
        <time>2019-04-19T07:34:54Z</time>
      </trkpt>
      <trkpt lat="42.26833" lon="1.81495">
        <ele>913.918</ele>
        <time>2019-04-19T07:35:11Z</time>
      </trkpt>
      <trkpt lat="42.2683" lon="1.81491">
        <ele>913.848</ele>
        <time>2019-04-19T07:35:28Z</time>
      </trkpt>
      <trkpt lat="42.26832" lon="1.81486">
        <ele>912.961</ele>
        <time>2019-04-19T07:35:44Z</time>
      </trkpt>
      <trkpt lat="42.26831" lon="1.81485">
        <ele>913.017</ele>
        <time>2019-04-19T07:36:05Z</time>
      </trkpt>
      <trkpt lat="42.26833" lon="1.81486">
        <ele>912.908</ele>
        <time>2019-04-19T07:36:26Z</time>
      </trkpt>
      <trkpt lat="42.26836" lon="1.81484">
        <ele>912.927</ele>
        <time>2019-04-19T07:36:53Z</time>
      </trkpt>
      <trkpt lat="42.26835" lon="1.81489">
        <ele>912.999</ele>
        <time>2019-04-19T07:37:18Z</time>
      </trkpt>
      <trkpt lat="42.26842" lon="1.81488">
        <ele>912.948</ele>
        <time>2019-04-19T07:37:36Z</time>
      </trkpt>
      <trkpt lat="42.26838" lon="1.81492">
        <ele>912.946</ele>
        <time>2019-04-19T07:37:57Z</time>
      </trkpt>
      <trkpt lat="42.2683" lon="1.81492">
        <ele>913.012</ele>
        <time>2019-04-19T07:38:15Z</time>
      </trkpt>
      <trkpt lat="42.26829" lon="1.81479">
        <ele>912.435</ele>
        <time>2019-04-19T07:38:34Z</time>
      </trkpt>
      <trkpt lat="42.26829" lon="1.81462">
        <ele>912.048</ele>
        <time>2019-04-19T07:38:43Z</time>
      </trkpt>
      <trkpt lat="42.2682" lon="1.8145">
        <ele>913.321</ele>
        <time>2019-04-19T07:38:57Z</time>
      </trkpt>
      <trkpt lat="42.26819" lon="1.81449">
        <ele>913.368</ele>
        <time>2019-04-19T07:38:58Z</time>
      </trkpt>
      <trkpt lat="42.26813" lon="1.81447">
        <ele>914.842</ele>
        <time>2019-04-19T07:39:04Z</time>
      </trkpt>
      <trkpt lat="42.26811" lon="1.81446">
        <ele>914.826</ele>
        <time>2019-04-19T07:39:06Z</time>
      </trkpt>
      <trkpt lat="42.26806" lon="1.81439">
        <ele>916.308</ele>
        <time>2019-04-19T07:39:12Z</time>
      </trkpt>
      <trkpt lat="42.26802" lon="1.81426">
        <ele>918.319</ele>
        <time>2019-04-19T07:39:25Z</time>
      </trkpt>
      <trkpt lat="42.26801" lon="1.81423">
        <ele>918.341</ele>
        <time>2019-04-19T07:39:28Z</time>
      </trkpt>
      <trkpt lat="42.26793" lon="1.81421">
        <ele>916.86</ele>
        <time>2019-04-19T07:39:33Z</time>
      </trkpt>
      <trkpt lat="42.26795" lon="1.81412">
        <ele>916.348</ele>
        <time>2019-04-19T07:39:44Z</time>
      </trkpt>
      <trkpt lat="42.26801" lon="1.81404">
        <ele>914.464</ele>
        <time>2019-04-19T07:39:51Z</time>
      </trkpt>
      <trkpt lat="42.26804" lon="1.81392">
        <ele>912.967</ele>
        <time>2019-04-19T07:39:59Z</time>
      </trkpt>
      <trkpt lat="42.26805" lon="1.81391">
        <ele>912.94</ele>
        <time>2019-04-19T07:40:00Z</time>
      </trkpt>
      <trkpt lat="42.26809" lon="1.8139">
        <ele>912.423</ele>
        <time>2019-04-19T07:40:03Z</time>
      </trkpt>
      <trkpt lat="42.26811" lon="1.81387">
        <ele>912.463</ele>
        <time>2019-04-19T07:40:06Z</time>
      </trkpt>
      <trkpt lat="42.26813" lon="1.81385">
        <ele>912.444</ele>
        <time>2019-04-19T07:40:07Z</time>
      </trkpt>
      <trkpt lat="42.26817" lon="1.81374">
        <ele>913.918</ele>
        <time>2019-04-19T07:40:14Z</time>
      </trkpt>
      <trkpt lat="42.26822" lon="1.81366">
        <ele>913.808</ele>
        <time>2019-04-19T07:40:30Z</time>
      </trkpt>
      <trkpt lat="42.26825" lon="1.8136">
        <ele>914.419</ele>
        <time>2019-04-19T07:40:38Z</time>
      </trkpt>
      <trkpt lat="42.26835" lon="1.8135">
        <ele>915.821</ele>
        <time>2019-04-19T07:40:49Z</time>
      </trkpt>
      <trkpt lat="42.26845" lon="1.8134">
        <ele>917.84</ele>
        <time>2019-04-19T07:40:59Z</time>
      </trkpt>
      <trkpt lat="42.26856" lon="1.81332">
        <ele>919.638</ele>
        <time>2019-04-19T07:41:11Z</time>
      </trkpt>
      <trkpt lat="42.26869" lon="1.81321">
        <ele>921.154</ele>
        <time>2019-04-19T07:41:28Z</time>
      </trkpt>
      <trkpt lat="42.26887" lon="1.81312">
        <ele>923.587</ele>
        <time>2019-04-19T07:41:44Z</time>
      </trkpt>
      <trkpt lat="42.26899" lon="1.81308">
        <ele>925.83</ele>
        <time>2019-04-19T07:41:57Z</time>
      </trkpt>
      <trkpt lat="42.26906" lon="1.81304">
        <ele>927.923</ele>
        <time>2019-04-19T07:42:10Z</time>
      </trkpt>
      <trkpt lat="42.26928" lon="1.81298">
        <ele>929.746</ele>
        <time>2019-04-19T07:42:24Z</time>
      </trkpt>
      <trkpt lat="42.26943" lon="1.81292">
        <ele>932.188</ele>
        <time>2019-04-19T07:42:37Z</time>
      </trkpt>
      <trkpt lat="42.26954" lon="1.81287">
        <ele>935.116</ele>
        <time>2019-04-19T07:42:52Z</time>
      </trkpt>
      <trkpt lat="42.26979" lon="1.81278">
        <ele>937.008</ele>
        <time>2019-04-19T07:43:07Z</time>
      </trkpt>
      <trkpt lat="42.26991" lon="1.8127">
        <ele>938.987</ele>
        <time>2019-04-19T07:43:20Z</time>
      </trkpt>
      <trkpt lat="42.26998" lon="1.8126">
        <ele>941.319</ele>
        <time>2019-04-19T07:43:32Z</time>
      </trkpt>
      <trkpt lat="42.2701" lon="1.81258">
        <ele>942.868</ele>
        <time>2019-04-19T07:43:45Z</time>
      </trkpt>
      <trkpt lat="42.27024" lon="1.81245">
        <ele>945.256</ele>
        <time>2019-04-19T07:43:58Z</time>
      </trkpt>
      <trkpt lat="42.27032" lon="1.81241">
        <ele>948.572</ele>
        <time>2019-04-19T07:44:12Z</time>
      </trkpt>
      <trkpt lat="42.27042" lon="1.8123">
        <ele>950.495</ele>
        <time>2019-04-19T07:44:27Z</time>
      </trkpt>
      <trkpt lat="42.27049" lon="1.81226">
        <ele>953.348</ele>
        <time>2019-04-19T07:44:41Z</time>
      </trkpt>
      <trkpt lat="42.27063" lon="1.81215">
        <ele>955.641</ele>
        <time>2019-04-19T07:44:56Z</time>
      </trkpt>
      <trkpt lat="42.2707" lon="1.81205">
        <ele>956.651</ele>
        <time>2019-04-19T07:45:06Z</time>
      </trkpt>
      <trkpt lat="42.27076" lon="1.81194">
        <ele>957.601</ele>
        <time>2019-04-19T07:45:19Z</time>
      </trkpt>
      <trkpt lat="42.27083" lon="1.81176">
        <ele>960.411</ele>
        <time>2019-04-19T07:45:31Z</time>
      </trkpt>
      <trkpt lat="42.2709" lon="1.81152">
        <ele>962.908</ele>
        <time>2019-04-19T07:45:47Z</time>
      </trkpt>
      <trkpt lat="42.27096" lon="1.81141">
        <ele>966.388</ele>
        <time>2019-04-19T07:46:02Z</time>
      </trkpt>
      <trkpt lat="42.27094" lon="1.81129">
        <ele>969.13</ele>
        <time>2019-04-19T07:46:17Z</time>
      </trkpt>
      <trkpt lat="42.27096" lon="1.81117">
        <ele>971.059</ele>
        <time>2019-04-19T07:46:28Z</time>
      </trkpt>
      <trkpt lat="42.27098" lon="1.81105">
        <ele>973.967</ele>
        <time>2019-04-19T07:46:43Z</time>
      </trkpt>
      <trkpt lat="42.271" lon="1.81093">
        <ele>975.953</ele>
        <time>2019-04-19T07:46:56Z</time>
      </trkpt>
      <trkpt lat="42.27107" lon="1.81086">
        <ele>978.766</ele>
        <time>2019-04-19T07:47:09Z</time>
      </trkpt>
      <trkpt lat="42.27114" lon="1.81074">
        <ele>981.289</ele>
        <time>2019-04-19T07:47:24Z</time>
      </trkpt>
      <trkpt lat="42.27113" lon="1.81056">
        <ele>984.132</ele>
        <time>2019-04-19T07:47:38Z</time>
      </trkpt>
      <trkpt lat="42.27114" lon="1.81051">
        <ele>984.532</ele>
        <time>2019-04-19T07:47:56Z</time>
      </trkpt>
      <trkpt lat="42.2711" lon="1.8105">
        <ele>984.592</ele>
        <time>2019-04-19T07:48:21Z</time>
      </trkpt>
      <trkpt lat="42.2711" lon="1.81037">
        <ele>984.111</ele>
        <time>2019-04-19T07:48:34Z</time>
      </trkpt>
      <trkpt lat="42.27114" lon="1.81022">
        <ele>987.508</ele>
        <time>2019-04-19T07:48:50Z</time>
      </trkpt>
      <trkpt lat="42.27121" lon="1.81006">
        <ele>990.486</ele>
        <time>2019-04-19T07:49:06Z</time>
      </trkpt>
      <trkpt lat="42.27125" lon="1.80991">
        <ele>993.298</ele>
        <time>2019-04-19T07:49:21Z</time>
      </trkpt>
      <trkpt lat="42.27126" lon="1.8098">
        <ele>996.117</ele>
        <time>2019-04-19T07:49:35Z</time>
      </trkpt>
      <trkpt lat="42.27132" lon="1.80978">
        <ele>999.015</ele>
        <time>2019-04-19T07:49:50Z</time>
      </trkpt>
      <trkpt lat="42.27134" lon="1.8097">
        <ele>1001.911</ele>
        <time>2019-04-19T07:50:03Z</time>
      </trkpt>
      <trkpt lat="42.27142" lon="1.80962">
        <ele>1004.714</ele>
        <time>2019-04-19T07:50:17Z</time>
      </trkpt>
      <trkpt lat="42.27144" lon="1.80952">
        <ele>1008.067</ele>
        <time>2019-04-19T07:50:31Z</time>
      </trkpt>
      <trkpt lat="42.27149" lon="1.80938">
        <ele>1010.49</ele>
        <time>2019-04-19T07:50:45Z</time>
      </trkpt>
      <trkpt lat="42.27151" lon="1.80932">
        <ele>1010.478</ele>
        <time>2019-04-19T07:50:50Z</time>
      </trkpt>
      <trkpt lat="42.27158" lon="1.8092">
        <ele>1010.433</ele>
        <time>2019-04-19T07:51:02Z</time>
      </trkpt>
      <trkpt lat="42.27161" lon="1.80916">
        <ele>1009.126</ele>
        <time>2019-04-19T07:51:09Z</time>
      </trkpt>
      <trkpt lat="42.27175" lon="1.80903">
        <ele>1009.008</ele>
        <time>2019-04-19T07:51:22Z</time>
      </trkpt>
      <trkpt lat="42.27187" lon="1.80891">
        <ele>1009.16</ele>
        <time>2019-04-19T07:51:34Z</time>
      </trkpt>
      <trkpt lat="42.27199" lon="1.80872">
        <ele>1010.482</ele>
        <time>2019-04-19T07:51:44Z</time>
      </trkpt>
      <trkpt lat="42.27206" lon="1.80863">
        <ele>1011.421</ele>
        <time>2019-04-19T07:51:58Z</time>
      </trkpt>
      <trkpt lat="42.27222" lon="1.80859">
        <ele>1013.999</ele>
        <time>2019-04-19T07:52:14Z</time>
      </trkpt>
      <trkpt lat="42.2723" lon="1.80861">
        <ele>1016.315</ele>
        <time>2019-04-19T07:52:28Z</time>
      </trkpt>
      <trkpt lat="42.27239" lon="1.80862">
        <ele>1019.188</ele>
        <time>2019-04-19T07:52:42Z</time>
      </trkpt>
      <trkpt lat="42.27251" lon="1.80864">
        <ele>1020.651</ele>
        <time>2019-04-19T07:52:56Z</time>
      </trkpt>
      <trkpt lat="42.27252" lon="1.80864">
        <ele>1021.024</ele>
        <time>2019-04-19T07:53:01Z</time>
      </trkpt>
      <trkpt lat="42.27274" lon="1.80864">
        <ele>1023.496</ele>
        <time>2019-04-19T07:53:16Z</time>
      </trkpt>
      <trkpt lat="42.27286" lon="1.80867">
        <ele>1024.931</ele>
        <time>2019-04-19T07:53:31Z</time>
      </trkpt>
      <trkpt lat="42.27288" lon="1.80868">
        <ele>1025.024</ele>
        <time>2019-04-19T07:53:34Z</time>
      </trkpt>
      <trkpt lat="42.27296" lon="1.80877">
        <ele>1025.908</ele>
        <time>2019-04-19T07:53:48Z</time>
      </trkpt>
      <trkpt lat="42.27314" lon="1.8089">
        <ele>1028.352</ele>
        <time>2019-04-19T07:54:06Z</time>
      </trkpt>
      <trkpt lat="42.27343" lon="1.80889">
        <ele>1030.144</ele>
        <time>2019-04-19T07:54:22Z</time>
      </trkpt>
      <trkpt lat="42.27357" lon="1.8089">
        <ele>1033.153</ele>
        <time>2019-04-19T07:54:37Z</time>
      </trkpt>
      <trkpt lat="42.27363" lon="1.80904">
        <ele>1036.421</ele>
        <time>2019-04-19T07:54:54Z</time>
      </trkpt>
      <trkpt lat="42.27374" lon="1.80906">
        <ele>1039.437</ele>
        <time>2019-04-19T07:55:10Z</time>
      </trkpt>
      <trkpt lat="42.27391" lon="1.80907">
        <ele>1042.31</ele>
        <time>2019-04-19T07:55:29Z</time>
      </trkpt>
      <trkpt lat="42.27404" lon="1.80914">
        <ele>1044.653</ele>
        <time>2019-04-19T07:55:45Z</time>
      </trkpt>
      <trkpt lat="42.2741" lon="1.80911">
        <ele>1047.116</ele>
        <time>2019-04-19T07:56:01Z</time>
      </trkpt>
      <trkpt lat="42.27417" lon="1.80902">
        <ele>1049.486</ele>
        <time>2019-04-19T07:56:14Z</time>
      </trkpt>
      <trkpt lat="42.27427" lon="1.80895">
        <ele>1052.36</ele>
        <time>2019-04-19T07:56:33Z</time>
      </trkpt>
      <trkpt lat="42.27439" lon="1.80896">
        <ele>1055.226</ele>
        <time>2019-04-19T07:56:47Z</time>
      </trkpt>
      <trkpt lat="42.2745" lon="1.80892">
        <ele>1057.508</ele>
        <time>2019-04-19T07:57:02Z</time>
      </trkpt>
      <trkpt lat="42.27458" lon="1.80886">
        <ele>1060.481</ele>
        <time>2019-04-19T07:57:16Z</time>
      </trkpt>
      <trkpt lat="42.27465" lon="1.80878">
        <ele>1063.943</ele>
        <time>2019-04-19T07:57:31Z</time>
      </trkpt>
      <trkpt lat="42.27479" lon="1.80875">
        <ele>1066.822</ele>
        <time>2019-04-19T07:57:46Z</time>
      </trkpt>
      <trkpt lat="42.27488" lon="1.80868">
        <ele>1070.52</ele>
        <time>2019-04-19T07:58:01Z</time>
      </trkpt>
      <trkpt lat="42.27493" lon="1.8086">
        <ele>1072.596</ele>
        <time>2019-04-19T07:58:16Z</time>
      </trkpt>
      <trkpt lat="42.27505" lon="1.80852">
        <ele>1074.939</ele>
        <time>2019-04-19T07:58:32Z</time>
      </trkpt>
      <trkpt lat="42.2752" lon="1.80841">
        <ele>1077.372</ele>
        <time>2019-04-19T07:58:48Z</time>
      </trkpt>
      <trkpt lat="42.27528" lon="1.80834">
        <ele>1080.745</ele>
        <time>2019-04-19T07:59:03Z</time>
      </trkpt>
      <trkpt lat="42.27546" lon="1.80829">
        <ele>1083.032</ele>
        <time>2019-04-19T07:59:18Z</time>
      </trkpt>
      <trkpt lat="42.2756" lon="1.80821">
        <ele>1086.492</ele>
        <time>2019-04-19T07:59:31Z</time>
      </trkpt>
      <trkpt lat="42.27576" lon="1.80817">
        <ele>1089.811</ele>
        <time>2019-04-19T07:59:48Z</time>
      </trkpt>
      <trkpt lat="42.27589" lon="1.8082">
        <ele>1092.708</ele>
        <time>2019-04-19T08:00:02Z</time>
      </trkpt>
      <trkpt lat="42.27596" lon="1.80825">
        <ele>1096.176</ele>
        <time>2019-04-19T08:00:16Z</time>
      </trkpt>
      <trkpt lat="42.27602" lon="1.80831">
        <ele>1099.068</ele>
        <time>2019-04-19T08:00:29Z</time>
      </trkpt>
      <trkpt lat="42.2761" lon="1.80834">
        <ele>1101.817</ele>
        <time>2019-04-19T08:00:43Z</time>
      </trkpt>
      <trkpt lat="42.27612" lon="1.80835">
        <ele>1101.955</ele>
        <time>2019-04-19T08:00:46Z</time>
      </trkpt>
      <trkpt lat="42.27623" lon="1.80838">
        <ele>1103.391</ele>
        <time>2019-04-19T08:00:58Z</time>
      </trkpt>
      <trkpt lat="42.27645" lon="1.80842">
        <ele>1106.144</ele>
        <time>2019-04-19T08:01:12Z</time>
      </trkpt>
      <trkpt lat="42.27651" lon="1.80844">
        <ele>1107.677</ele>
        <time>2019-04-19T08:01:24Z</time>
      </trkpt>
      <trkpt lat="42.27652" lon="1.80849">
        <ele>1109.51</ele>
        <time>2019-04-19T08:01:34Z</time>
      </trkpt>
      <trkpt lat="42.27654" lon="1.80857">
        <ele>1112.367</ele>
        <time>2019-04-19T08:01:49Z</time>
      </trkpt>
      <trkpt lat="42.27666" lon="1.80864">
        <ele>1115.781</ele>
        <time>2019-04-19T08:02:04Z</time>
      </trkpt>
      <trkpt lat="42.27683" lon="1.80862">
        <ele>1118.719</ele>
        <time>2019-04-19T08:02:21Z</time>
      </trkpt>
      <trkpt lat="42.27695" lon="1.80847">
        <ele>1121.108</ele>
        <time>2019-04-19T08:02:35Z</time>
      </trkpt>
      <trkpt lat="42.27703" lon="1.80828">
        <ele>1123.959</ele>
        <time>2019-04-19T08:02:50Z</time>
      </trkpt>
      <trkpt lat="42.27706" lon="1.80813">
        <ele>1126.411</ele>
        <time>2019-04-19T08:03:03Z</time>
      </trkpt>
      <trkpt lat="42.27711" lon="1.80804">
        <ele>1129.71</ele>
        <time>2019-04-19T08:03:18Z</time>
      </trkpt>
      <trkpt lat="42.27717" lon="1.8081">
        <ele>1132.648</ele>
        <time>2019-04-19T08:03:35Z</time>
      </trkpt>
      <trkpt lat="42.27722" lon="1.80816">
        <ele>1135.534</ele>
        <time>2019-04-19T08:03:49Z</time>
      </trkpt>
      <trkpt lat="42.27731" lon="1.80813">
        <ele>1138.847</ele>
        <time>2019-04-19T08:04:02Z</time>
      </trkpt>
      <trkpt lat="42.2774" lon="1.80804">
        <ele>1141.24</ele>
        <time>2019-04-19T08:04:18Z</time>
      </trkpt>
      <trkpt lat="42.27736" lon="1.80794">
        <ele>1144.113</ele>
        <time>2019-04-19T08:04:34Z</time>
      </trkpt>
      <trkpt lat="42.27738" lon="1.80784">
        <ele>1147.495</ele>
        <time>2019-04-19T08:04:49Z</time>
      </trkpt>
      <trkpt lat="42.27742" lon="1.8077">
        <ele>1149.349</ele>
        <time>2019-04-19T08:05:03Z</time>
      </trkpt>
      <trkpt lat="42.27744" lon="1.80756">
        <ele>1151.823</ele>
        <time>2019-04-19T08:05:16Z</time>
      </trkpt>
      <trkpt lat="42.27752" lon="1.80747">
        <ele>1155.208</ele>
        <time>2019-04-19T08:05:31Z</time>
      </trkpt>
      <trkpt lat="42.27756" lon="1.80753">
        <ele>1157.672</ele>
        <time>2019-04-19T08:05:45Z</time>
      </trkpt>
      <trkpt lat="42.27761" lon="1.8075">
        <ele>1160.414</ele>
        <time>2019-04-19T08:05:59Z</time>
      </trkpt>
      <trkpt lat="42.27771" lon="1.80739">
        <ele>1163.333</ele>
        <time>2019-04-19T08:06:15Z</time>
      </trkpt>
      <trkpt lat="42.27778" lon="1.80725">
        <ele>1166.311</ele>
        <time>2019-04-19T08:06:30Z</time>
      </trkpt>
      <trkpt lat="42.27782" lon="1.80715">
        <ele>1169.687</ele>
        <time>2019-04-19T08:06:44Z</time>
      </trkpt>
      <trkpt lat="42.27787" lon="1.80707">
        <ele>1173.01</ele>
        <time>2019-04-19T08:07:00Z</time>
      </trkpt>
      <trkpt lat="42.27792" lon="1.80698">
        <ele>1175.473</ele>
        <time>2019-04-19T08:07:13Z</time>
      </trkpt>
      <trkpt lat="42.27795" lon="1.80684">
        <ele>1178.776</ele>
        <time>2019-04-19T08:07:29Z</time>
      </trkpt>
      <trkpt lat="42.27795" lon="1.80675">
        <ele>1182.061</ele>
        <time>2019-04-19T08:07:45Z</time>
      </trkpt>
      <trkpt lat="42.2779" lon="1.80666">
        <ele>1184.921</ele>
        <time>2019-04-19T08:08:00Z</time>
      </trkpt>
      <trkpt lat="42.27788" lon="1.80655">
        <ele>1187.813</ele>
        <time>2019-04-19T08:08:14Z</time>
      </trkpt>
      <trkpt lat="42.2779" lon="1.80649">
        <ele>1190.308</ele>
        <time>2019-04-19T08:08:27Z</time>
      </trkpt>
      <trkpt lat="42.27798" lon="1.80653">
        <ele>1193.729</ele>
        <time>2019-04-19T08:08:42Z</time>
      </trkpt>
      <trkpt lat="42.27804" lon="1.80642">
        <ele>1197.091</ele>
        <time>2019-04-19T08:08:58Z</time>
      </trkpt>
      <trkpt lat="42.27803" lon="1.80635">
        <ele>1199.45</ele>
        <time>2019-04-19T08:09:12Z</time>
      </trkpt>
      <trkpt lat="42.27807" lon="1.80627">
        <ele>1202.258</ele>
        <time>2019-04-19T08:09:26Z</time>
      </trkpt>
      <trkpt lat="42.27808" lon="1.80619">
        <ele>1204.784</ele>
        <time>2019-04-19T08:09:40Z</time>
      </trkpt>
      <trkpt lat="42.27811" lon="1.80614">
        <ele>1208.147</ele>
        <time>2019-04-19T08:09:55Z</time>
      </trkpt>
      <trkpt lat="42.27814" lon="1.80602">
        <ele>1211.45</ele>
        <time>2019-04-19T08:10:10Z</time>
      </trkpt>
      <trkpt lat="42.27813" lon="1.80596">
        <ele>1212.393</ele>
        <time>2019-04-19T08:10:17Z</time>
      </trkpt>
      <trkpt lat="42.27813" lon="1.80585">
        <ele>1215.255</ele>
        <time>2019-04-19T08:10:30Z</time>
      </trkpt>
      <trkpt lat="42.27813" lon="1.80573">
        <ele>1218.107</ele>
        <time>2019-04-19T08:10:44Z</time>
      </trkpt>
      <trkpt lat="42.27816" lon="1.80578">
        <ele>1221.117</ele>
        <time>2019-04-19T08:10:57Z</time>
      </trkpt>
      <trkpt lat="42.27828" lon="1.80586">
        <ele>1224.408</ele>
        <time>2019-04-19T08:11:13Z</time>
      </trkpt>
      <trkpt lat="42.27838" lon="1.80594">
        <ele>1227.838</ele>
        <time>2019-04-19T08:11:29Z</time>
      </trkpt>
      <trkpt lat="42.27842" lon="1.80589">
        <ele>1231.23</ele>
        <time>2019-04-19T08:11:46Z</time>
      </trkpt>
      <trkpt lat="42.27842" lon="1.80581">
        <ele>1232.699</ele>
        <time>2019-04-19T08:11:59Z</time>
      </trkpt>
      <trkpt lat="42.27844" lon="1.80571">
        <ele>1235.997</ele>
        <time>2019-04-19T08:12:13Z</time>
      </trkpt>
      <trkpt lat="42.27846" lon="1.80558">
        <ele>1238.843</ele>
        <time>2019-04-19T08:12:26Z</time>
      </trkpt>
      <trkpt lat="42.2785" lon="1.8055">
        <ele>1241.216</ele>
        <time>2019-04-19T08:12:37Z</time>
      </trkpt>
      <trkpt lat="42.27852" lon="1.8054">
        <ele>1243.799</ele>
        <time>2019-04-19T08:12:49Z</time>
      </trkpt>
      <trkpt lat="42.27853" lon="1.80533">
        <ele>1244.512</ele>
        <time>2019-04-19T08:12:58Z</time>
      </trkpt>
      <trkpt lat="42.27852" lon="1.80518">
        <ele>1246.417</ele>
        <time>2019-04-19T08:13:12Z</time>
      </trkpt>
      <trkpt lat="42.27837" lon="1.80496">
        <ele>1249.887</ele>
        <time>2019-04-19T08:13:27Z</time>
      </trkpt>
      <trkpt lat="42.27842" lon="1.80494">
        <ele>1251.215</ele>
        <time>2019-04-19T08:13:36Z</time>
      </trkpt>
      <trkpt lat="42.27846" lon="1.805">
        <ele>1252.708</ele>
        <time>2019-04-19T08:13:49Z</time>
      </trkpt>
      <trkpt lat="42.27854" lon="1.8051">
        <ele>1255.774</ele>
        <time>2019-04-19T08:14:03Z</time>
      </trkpt>
      <trkpt lat="42.2787" lon="1.80516">
        <ele>1258.996</ele>
        <time>2019-04-19T08:14:18Z</time>
      </trkpt>
      <trkpt lat="42.27877" lon="1.80521">
        <ele>1261.995</ele>
        <time>2019-04-19T08:14:30Z</time>
      </trkpt>
      <trkpt lat="42.27881" lon="1.80517">
        <ele>1264.863</ele>
        <time>2019-04-19T08:14:46Z</time>
      </trkpt>
      <trkpt lat="42.27879" lon="1.80509">
        <ele>1267.249</ele>
        <time>2019-04-19T08:15:01Z</time>
      </trkpt>
      <trkpt lat="42.27885" lon="1.80503">
        <ele>1270.692</ele>
        <time>2019-04-19T08:15:15Z</time>
      </trkpt>
      <trkpt lat="42.27892" lon="1.80497">
        <ele>1273.585</ele>
        <time>2019-04-19T08:15:30Z</time>
      </trkpt>
      <trkpt lat="42.27894" lon="1.80489">
        <ele>1275.838</ele>
        <time>2019-04-19T08:15:38Z</time>
      </trkpt>
      <trkpt lat="42.27895" lon="1.80477">
        <ele>1278.297</ele>
        <time>2019-04-19T08:15:50Z</time>
      </trkpt>
      <trkpt lat="42.27893" lon="1.80472">
        <ele>1280.623</ele>
        <time>2019-04-19T08:16:05Z</time>
      </trkpt>
      <trkpt lat="42.279" lon="1.80468">
        <ele>1284.025</ele>
        <time>2019-04-19T08:16:19Z</time>
      </trkpt>
      <trkpt lat="42.27905" lon="1.80464">
        <ele>1285.508</ele>
        <time>2019-04-19T08:16:30Z</time>
      </trkpt>
      <trkpt lat="42.2791" lon="1.80453">
        <ele>1287.972</ele>
        <time>2019-04-19T08:16:43Z</time>
      </trkpt>
      <trkpt lat="42.27913" lon="1.80444">
        <ele>1291.114</ele>
        <time>2019-04-19T08:16:56Z</time>
      </trkpt>
      <trkpt lat="42.27922" lon="1.80441">
        <ele>1294.023</ele>
        <time>2019-04-19T08:17:08Z</time>
      </trkpt>
      <trkpt lat="42.27931" lon="1.80442">
        <ele>1296.581</ele>
        <time>2019-04-19T08:17:23Z</time>
      </trkpt>
      <trkpt lat="42.27935" lon="1.80439">
        <ele>1299.987</ele>
        <time>2019-04-19T08:17:33Z</time>
      </trkpt>
      <trkpt lat="42.27942" lon="1.80437">
        <ele>1302.21</ele>
        <time>2019-04-19T08:17:47Z</time>
      </trkpt>
      <trkpt lat="42.27948" lon="1.8043">
        <ele>1305.113</ele>
        <time>2019-04-19T08:18:02Z</time>
      </trkpt>
      <trkpt lat="42.27957" lon="1.80427">
        <ele>1308.516</ele>
        <time>2019-04-19T08:18:15Z</time>
      </trkpt>
      <trkpt lat="42.27959" lon="1.80418">
        <ele>1311.394</ele>
        <time>2019-04-19T08:18:28Z</time>
      </trkpt>
      <trkpt lat="42.27946" lon="1.80391">
        <ele>1314.757</ele>
        <time>2019-04-19T08:18:45Z</time>
      </trkpt>
      <trkpt lat="42.27943" lon="1.8038">
        <ele>1317.122</ele>
        <time>2019-04-19T08:19:00Z</time>
      </trkpt>
      <trkpt lat="42.27949" lon="1.80375">
        <ele>1319.508</ele>
        <time>2019-04-19T08:19:13Z</time>
      </trkpt>
      <trkpt lat="42.27965" lon="1.80371">
        <ele>1321.932</ele>
        <time>2019-04-19T08:19:28Z</time>
      </trkpt>
      <trkpt lat="42.27976" lon="1.80372">
        <ele>1323.854</ele>
        <time>2019-04-19T08:19:43Z</time>
      </trkpt>
      <trkpt lat="42.27982" lon="1.8037">
        <ele>1326.373</ele>
        <time>2019-04-19T08:19:55Z</time>
      </trkpt>
      <trkpt lat="42.27982" lon="1.80363">
        <ele>1329.241</ele>
        <time>2019-04-19T08:20:06Z</time>
      </trkpt>
      <trkpt lat="42.27986" lon="1.80354">
        <ele>1331.587</ele>
        <time>2019-04-19T08:20:20Z</time>
      </trkpt>
      <trkpt lat="42.27989" lon="1.80347">
        <ele>1333.92</ele>
        <time>2019-04-19T08:20:33Z</time>
      </trkpt>
      <trkpt lat="42.27997" lon="1.8034">
        <ele>1335.063</ele>
        <time>2019-04-19T08:20:46Z</time>
      </trkpt>
      <trkpt lat="42.27998" lon="1.80338">
        <ele>1333.436</ele>
        <time>2019-04-19T08:20:48Z</time>
      </trkpt>
      <trkpt lat="42.27999" lon="1.80337">
        <ele>1333.442</ele>
        <time>2019-04-19T08:20:49Z</time>
      </trkpt>
      <trkpt lat="42.28" lon="1.80334">
        <ele>1333.422</ele>
        <time>2019-04-19T08:20:52Z</time>
      </trkpt>
      <trkpt lat="42.28008" lon="1.80324">
        <ele>1333.414</ele>
        <time>2019-04-19T08:21:05Z</time>
      </trkpt>
      <trkpt lat="42.28009" lon="1.80323">
        <ele>1334.908</ele>
        <time>2019-04-19T08:21:07Z</time>
      </trkpt>
      <trkpt lat="42.28016" lon="1.80316">
        <ele>1335.577</ele>
        <time>2019-04-19T08:21:19Z</time>
      </trkpt>
      <trkpt lat="42.28025" lon="1.80303">
        <ele>1337.419</ele>
        <time>2019-04-19T08:21:33Z</time>
      </trkpt>
      <trkpt lat="42.28033" lon="1.80291">
        <ele>1338.718</ele>
        <time>2019-04-19T08:21:45Z</time>
      </trkpt>
      <trkpt lat="42.2804" lon="1.80274">
        <ele>1341.126</ele>
        <time>2019-04-19T08:22:02Z</time>
      </trkpt>
      <trkpt lat="42.28042" lon="1.80266">
        <ele>1342.172</ele>
        <time>2019-04-19T08:22:07Z</time>
      </trkpt>
      <trkpt lat="42.28049" lon="1.80253">
        <ele>1342.645</ele>
        <time>2019-04-19T08:22:20Z</time>
      </trkpt>
      <trkpt lat="42.28056" lon="1.80251">
        <ele>1342.788</ele>
        <time>2019-04-19T08:22:23Z</time>
      </trkpt>
      <trkpt lat="42.28077" lon="1.80241">
        <ele>1342.611</ele>
        <time>2019-04-19T08:22:34Z</time>
      </trkpt>
      <trkpt lat="42.28084" lon="1.80224">
        <ele>1344.026</ele>
        <time>2019-04-19T08:22:47Z</time>
      </trkpt>
      <trkpt lat="42.28086" lon="1.80212">
        <ele>1345.047</ele>
        <time>2019-04-19T08:22:55Z</time>
      </trkpt>
      <trkpt lat="42.28085" lon="1.80191">
        <ele>1345.911</ele>
        <time>2019-04-19T08:23:08Z</time>
      </trkpt>
      <trkpt lat="42.28082" lon="1.80173">
        <ele>1346.408</ele>
        <time>2019-04-19T08:23:19Z</time>
      </trkpt>
      <trkpt lat="42.28083" lon="1.80153">
        <ele>1344.185</ele>
        <time>2019-04-19T08:23:30Z</time>
      </trkpt>
      <trkpt lat="42.28087" lon="1.80141">
        <ele>1347.067</ele>
        <time>2019-04-19T08:23:43Z</time>
      </trkpt>
      <trkpt lat="42.28093" lon="1.80123">
        <ele>1348.346</ele>
        <time>2019-04-19T08:23:56Z</time>
      </trkpt>
      <trkpt lat="42.28094" lon="1.80101">
        <ele>1349.364</ele>
        <time>2019-04-19T08:24:10Z</time>
      </trkpt>
      <trkpt lat="42.28091" lon="1.80095">
        <ele>1349.45</ele>
        <time>2019-04-19T08:24:14Z</time>
      </trkpt>
      <trkpt lat="42.28085" lon="1.8008">
        <ele>1349.323</ele>
        <time>2019-04-19T08:24:22Z</time>
      </trkpt>
      <trkpt lat="42.28083" lon="1.80073">
        <ele>1348.426</ele>
        <time>2019-04-19T08:24:26Z</time>
      </trkpt>
      <trkpt lat="42.2808" lon="1.80062">
        <ele>1347.939</ele>
        <time>2019-04-19T08:24:32Z</time>
      </trkpt>
      <trkpt lat="42.28078" lon="1.80051">
        <ele>1347.492</ele>
        <time>2019-04-19T08:24:39Z</time>
      </trkpt>
      <trkpt lat="42.28077" lon="1.80048">
        <ele>1347.473</ele>
        <time>2019-04-19T08:24:41Z</time>
      </trkpt>
      <trkpt lat="42.28078" lon="1.8003">
        <ele>1348.92</ele>
        <time>2019-04-19T08:24:53Z</time>
      </trkpt>
      <trkpt lat="42.28081" lon="1.80019">
        <ele>1350.408</ele>
        <time>2019-04-19T08:25:04Z</time>
      </trkpt>
      <trkpt lat="42.28081" lon="1.79999">
        <ele>1350.752</ele>
        <time>2019-04-19T08:25:16Z</time>
      </trkpt>
      <trkpt lat="42.28087" lon="1.79987">
        <ele>1349.384</ele>
        <time>2019-04-19T08:25:28Z</time>
      </trkpt>
      <trkpt lat="42.28086" lon="1.79966">
        <ele>1349.313</ele>
        <time>2019-04-19T08:25:41Z</time>
      </trkpt>
      <trkpt lat="42.28086" lon="1.7996">
        <ele>1350.771</ele>
        <time>2019-04-19T08:25:45Z</time>
      </trkpt>
      <trkpt lat="42.28085" lon="1.79955">
        <ele>1350.757</ele>
        <time>2019-04-19T08:25:47Z</time>
      </trkpt>
      <trkpt lat="42.28086" lon="1.79952">
        <ele>1350.86</ele>
        <time>2019-04-19T08:25:49Z</time>
      </trkpt>
      <trkpt lat="42.28092" lon="1.79939">
        <ele>1351.373</ele>
        <time>2019-04-19T08:26:01Z</time>
      </trkpt>
      <trkpt lat="42.28094" lon="1.79928">
        <ele>1351.756</ele>
        <time>2019-04-19T08:26:08Z</time>
      </trkpt>
      <trkpt lat="42.28092" lon="1.79921">
        <ele>1351.763</ele>
        <time>2019-04-19T08:26:12Z</time>
      </trkpt>
      <trkpt lat="42.28092" lon="1.79915">
        <ele>1351.744</ele>
        <time>2019-04-19T08:26:15Z</time>
      </trkpt>
      <trkpt lat="42.28093" lon="1.799">
        <ele>1351.718</ele>
        <time>2019-04-19T08:26:25Z</time>
      </trkpt>
      <trkpt lat="42.28089" lon="1.79887">
        <ele>1350.408</ele>
        <time>2019-04-19T08:26:32Z</time>
      </trkpt>
      <trkpt lat="42.28087" lon="1.7988">
        <ele>1349.929</ele>
        <time>2019-04-19T08:26:36Z</time>
      </trkpt>
      <trkpt lat="42.28085" lon="1.79875">
        <ele>1349.381</ele>
        <time>2019-04-19T08:26:38Z</time>
      </trkpt>
      <trkpt lat="42.28085" lon="1.79861">
        <ele>1349.45</ele>
        <time>2019-04-19T08:26:45Z</time>
      </trkpt>
      <trkpt lat="42.28083" lon="1.79835">
        <ele>1349.318</ele>
        <time>2019-04-19T08:26:58Z</time>
      </trkpt>
      <trkpt lat="42.28084" lon="1.79826">
        <ele>1349.464</ele>
        <time>2019-04-19T08:27:04Z</time>
      </trkpt>
      <trkpt lat="42.28084" lon="1.79812">
        <ele>1348.917</ele>
        <time>2019-04-19T08:27:15Z</time>
      </trkpt>
      <trkpt lat="42.28084" lon="1.79794">
        <ele>1348.92</ele>
        <time>2019-04-19T08:27:26Z</time>
      </trkpt>
      <trkpt lat="42.28083" lon="1.79772">
        <ele>1348.833</ele>
        <time>2019-04-19T08:27:38Z</time>
      </trkpt>
      <trkpt lat="42.28083" lon="1.79768">
        <ele>1348.834</ele>
        <time>2019-04-19T08:27:41Z</time>
      </trkpt>
      <trkpt lat="42.28083" lon="1.79764">
        <ele>1348.355</ele>
        <time>2019-04-19T08:27:43Z</time>
      </trkpt>
      <trkpt lat="42.28062" lon="1.79728">
        <ele>1349.41</ele>
        <time>2019-04-19T08:27:58Z</time>
      </trkpt>
      <trkpt lat="42.28057" lon="1.7972">
        <ele>1351.808</ele>
        <time>2019-04-19T08:28:12Z</time>
      </trkpt>
      <trkpt lat="42.28048" lon="1.79714">
        <ele>1354.776</ele>
        <time>2019-04-19T08:28:25Z</time>
      </trkpt>
      <trkpt lat="42.28048" lon="1.79703">
        <ele>1358.098</ele>
        <time>2019-04-19T08:28:41Z</time>
      </trkpt>
      <trkpt lat="42.28037" lon="1.79694">
        <ele>1360.527</ele>
        <time>2019-04-19T08:28:57Z</time>
      </trkpt>
      <trkpt lat="42.28033" lon="1.7969">
        <ele>1362.925</ele>
        <time>2019-04-19T08:29:09Z</time>
      </trkpt>
      <trkpt lat="42.28029" lon="1.79689">
        <ele>1364.341</ele>
        <time>2019-04-19T08:29:14Z</time>
      </trkpt>
      <trkpt lat="42.28022" lon="1.79684">
        <ele>1365.214</ele>
        <time>2019-04-19T08:29:26Z</time>
      </trkpt>
      <trkpt lat="42.28018" lon="1.79679">
        <ele>1368.117</ele>
        <time>2019-04-19T08:29:41Z</time>
      </trkpt>
      <trkpt lat="42.28029" lon="1.79676">
        <ele>1370.02</ele>
        <time>2019-04-19T08:29:53Z</time>
      </trkpt>
      <trkpt lat="42.28034" lon="1.79673">
        <ele>1370.524</ele>
        <time>2019-04-19T08:30:07Z</time>
      </trkpt>
      <trkpt lat="42.28041" lon="1.79672">
        <ele>1371.904</ele>
        <time>2019-04-19T08:30:16Z</time>
      </trkpt>
      <trkpt lat="42.28052" lon="1.79666">
        <ele>1373.814</ele>
        <time>2019-04-19T08:30:29Z</time>
      </trkpt>
      <trkpt lat="42.28061" lon="1.79664">
        <ele>1375.708</ele>
        <time>2019-04-19T08:30:42Z</time>
      </trkpt>
      <trkpt lat="42.28067" lon="1.79661">
        <ele>1378.195</ele>
        <time>2019-04-19T08:30:53Z</time>
      </trkpt>
      <trkpt lat="42.28063" lon="1.79652">
        <ele>1378.287</ele>
        <time>2019-04-19T08:31:11Z</time>
      </trkpt>
      <trkpt lat="42.28071" lon="1.79651">
        <ele>1378.246</ele>
        <time>2019-04-19T08:31:34Z</time>
      </trkpt>
      <trkpt lat="42.28076" lon="1.79667">
        <ele>1378.234</ele>
        <time>2019-04-19T08:31:53Z</time>
      </trkpt>
      <trkpt lat="42.28078" lon="1.79673">
        <ele>1378.64</ele>
        <time>2019-04-19T08:32:13Z</time>
      </trkpt>
      <trkpt lat="42.28077" lon="1.79672">
        <ele>1378.633</ele>
        <time>2019-04-19T08:32:38Z</time>
      </trkpt>
      <trkpt lat="42.28076" lon="1.79676">
        <ele>1379.266</ele>
        <time>2019-04-19T08:32:57Z</time>
      </trkpt>
      <trkpt lat="42.28077" lon="1.79681">
        <ele>1379.279</ele>
        <time>2019-04-19T08:33:22Z</time>
      </trkpt>
      <trkpt lat="42.28076" lon="1.79678">
        <ele>1379.666</ele>
        <time>2019-04-19T08:33:39Z</time>
      </trkpt>
      <trkpt lat="42.28076" lon="1.79678">
        <ele>1380.129</ele>
        <time>2019-04-19T08:34:01Z</time>
      </trkpt>
      <trkpt lat="42.28077" lon="1.79681">
        <ele>1380.221</ele>
        <time>2019-04-19T08:34:22Z</time>
      </trkpt>
      <trkpt lat="42.28076" lon="1.79679">
        <ele>1380.608</ele>
        <time>2019-04-19T08:34:40Z</time>
      </trkpt>
      <trkpt lat="42.28072" lon="1.79678">
        <ele>1381.099</ele>
        <time>2019-04-19T08:35:02Z</time>
      </trkpt>
      <trkpt lat="42.28075" lon="1.79678">
        <ele>1381.591</ele>
        <time>2019-04-19T08:35:26Z</time>
      </trkpt>
      <trkpt lat="42.28075" lon="1.79673">
        <ele>1381.53</ele>
        <time>2019-04-19T08:35:49Z</time>
      </trkpt>
      <trkpt lat="42.28077" lon="1.79682">
        <ele>1382.158</ele>
        <time>2019-04-19T08:36:13Z</time>
      </trkpt>
      <trkpt lat="42.28081" lon="1.7968">
        <ele>1382.664</ele>
        <time>2019-04-19T08:36:29Z</time>
      </trkpt>
      <trkpt lat="42.28084" lon="1.79666">
        <ele>1384.427</ele>
        <time>2019-04-19T08:36:43Z</time>
      </trkpt>
      <trkpt lat="42.28093" lon="1.79658">
        <ele>1387.85</ele>
        <time>2019-04-19T08:36:56Z</time>
      </trkpt>
      <trkpt lat="42.281" lon="1.79648">
        <ele>1390.733</ele>
        <time>2019-04-19T08:37:11Z</time>
      </trkpt>
      <trkpt lat="42.28107" lon="1.79654">
        <ele>1393.528</ele>
        <time>2019-04-19T08:37:24Z</time>
      </trkpt>
      <trkpt lat="42.28114" lon="1.79656">
        <ele>1395.089</ele>
        <time>2019-04-19T08:37:37Z</time>
      </trkpt>
      <trkpt lat="42.28121" lon="1.79655">
        <ele>1398.417</ele>
        <time>2019-04-19T08:37:50Z</time>
      </trkpt>
      <trkpt lat="42.28131" lon="1.79656">
        <ele>1400.808</ele>
        <time>2019-04-19T08:38:03Z</time>
      </trkpt>
      <trkpt lat="42.28138" lon="1.79651">
        <ele>1402.865</ele>
        <time>2019-04-19T08:38:17Z</time>
      </trkpt>
      <trkpt lat="42.28143" lon="1.79646">
        <ele>1403.747</ele>
        <time>2019-04-19T08:38:29Z</time>
      </trkpt>
      <trkpt lat="42.28151" lon="1.79652">
        <ele>1406.676</ele>
        <time>2019-04-19T08:38:43Z</time>
      </trkpt>
      <trkpt lat="42.28158" lon="1.79661">
        <ele>1409.554</ele>
        <time>2019-04-19T08:38:56Z</time>
      </trkpt>
      <trkpt lat="42.28161" lon="1.79671">
        <ele>1411.45</ele>
        <time>2019-04-19T08:39:07Z</time>
      </trkpt>
      <trkpt lat="42.28164" lon="1.7967">
        <ele>1412.363</ele>
        <time>2019-04-19T08:39:27Z</time>
      </trkpt>
      <trkpt lat="42.2817" lon="1.79685">
        <ele>1415.236</ele>
        <time>2019-04-19T08:39:42Z</time>
      </trkpt>
      <trkpt lat="42.28175" lon="1.79696">
        <ele>1418.559</ele>
        <time>2019-04-19T08:39:55Z</time>
      </trkpt>
      <trkpt lat="42.2818" lon="1.79708">
        <ele>1421.944</ele>
        <time>2019-04-19T08:40:09Z</time>
      </trkpt>
      <trkpt lat="42.2818" lon="1.79722">
        <ele>1424.305</ele>
        <time>2019-04-19T08:40:23Z</time>
      </trkpt>
      <trkpt lat="42.28183" lon="1.79733">
        <ele>1427.715</ele>
        <time>2019-04-19T08:40:37Z</time>
      </trkpt>
      <trkpt lat="42.28185" lon="1.79741">
        <ele>1430.508</ele>
        <time>2019-04-19T08:40:50Z</time>
      </trkpt>
      <trkpt lat="42.28188" lon="1.7975">
        <ele>1432.937</ele>
        <time>2019-04-19T08:41:05Z</time>
      </trkpt>
      <trkpt lat="42.28195" lon="1.79747">
        <ele>1436.489</ele>
        <time>2019-04-19T08:41:21Z</time>
      </trkpt>
      <trkpt lat="42.282" lon="1.79744">
        <ele>1438.398</ele>
        <time>2019-04-19T08:41:33Z</time>
      </trkpt>
      <trkpt lat="42.28203" lon="1.79754">
        <ele>1441.686</ele>
        <time>2019-04-19T08:41:48Z</time>
      </trkpt>
      <trkpt lat="42.28208" lon="1.79762">
        <ele>1445.172</ele>
        <time>2019-04-19T08:42:03Z</time>
      </trkpt>
      <trkpt lat="42.2821" lon="1.79772">
        <ele>1447.515</ele>
        <time>2019-04-19T08:42:17Z</time>
      </trkpt>
      <trkpt lat="42.28212" lon="1.79783">
        <ele>1450.248</ele>
        <time>2019-04-19T08:42:31Z</time>
      </trkpt>
      <trkpt lat="42.28218" lon="1.7979">
        <ele>1453.681</ele>
        <time>2019-04-19T08:42:47Z</time>
      </trkpt>
      <trkpt lat="42.28217" lon="1.79801">
        <ele>1455.586</ele>
        <time>2019-04-19T08:43:00Z</time>
      </trkpt>
      <trkpt lat="42.28222" lon="1.79806">
        <ele>1458.96</ele>
        <time>2019-04-19T08:43:14Z</time>
      </trkpt>
      <trkpt lat="42.28226" lon="1.79813">
        <ele>1461.926</ele>
        <time>2019-04-19T08:43:29Z</time>
      </trkpt>
      <trkpt lat="42.28233" lon="1.79818">
        <ele>1465.208</ele>
        <time>2019-04-19T08:43:44Z</time>
      </trkpt>
      <trkpt lat="42.28238" lon="1.79819">
        <ele>1467.261</ele>
        <time>2019-04-19T08:43:58Z</time>
      </trkpt>
      <trkpt lat="42.28241" lon="1.79829">
        <ele>1469.953</ele>
        <time>2019-04-19T08:44:12Z</time>
      </trkpt>
      <trkpt lat="42.28248" lon="1.79826">
        <ele>1472.952</ele>
        <time>2019-04-19T08:44:27Z</time>
      </trkpt>
      <trkpt lat="42.28254" lon="1.7982">
        <ele>1474.93</ele>
        <time>2019-04-19T08:44:43Z</time>
      </trkpt>
      <trkpt lat="42.28258" lon="1.79816">
        <ele>1478.216</ele>
        <time>2019-04-19T08:44:55Z</time>
      </trkpt>
      <trkpt lat="42.28265" lon="1.79819">
        <ele>1480.699</ele>
        <time>2019-04-19T08:45:09Z</time>
      </trkpt>
      <trkpt lat="42.2827" lon="1.79812">
        <ele>1482.472</ele>
        <time>2019-04-19T08:45:22Z</time>
      </trkpt>
      <trkpt lat="42.28275" lon="1.79807">
        <ele>1484.925</ele>
        <time>2019-04-19T08:45:34Z</time>
      </trkpt>
      <trkpt lat="42.28282" lon="1.79806">
        <ele>1488.211</ele>
        <time>2019-04-19T08:45:47Z</time>
      </trkpt>
      <trkpt lat="42.28288" lon="1.7981">
        <ele>1491.121</ele>
        <time>2019-04-19T08:46:02Z</time>
      </trkpt>
      <trkpt lat="42.28297" lon="1.79814">
        <ele>1494.103</ele>
        <time>2019-04-19T08:46:16Z</time>
      </trkpt>
      <trkpt lat="42.28304" lon="1.7982">
        <ele>1496.908</ele>
        <time>2019-04-19T08:46:31Z</time>
      </trkpt>
      <trkpt lat="42.28312" lon="1.79825">
        <ele>1498.854</ele>
        <time>2019-04-19T08:46:43Z</time>
      </trkpt>
      <trkpt lat="42.28321" lon="1.79833">
        <ele>1501.316</ele>
        <time>2019-04-19T08:46:58Z</time>
      </trkpt>
      <trkpt lat="42.2833" lon="1.79844">
        <ele>1503.125</ele>
        <time>2019-04-19T08:47:14Z</time>
      </trkpt>
      <trkpt lat="42.28335" lon="1.79849">
        <ele>1504.783</ele>
        <time>2019-04-19T08:47:25Z</time>
      </trkpt>
      <trkpt lat="42.28343" lon="1.79853">
        <ele>1507.479</ele>
        <time>2019-04-19T08:47:40Z</time>
      </trkpt>
      <trkpt lat="42.28346" lon="1.79868">
        <ele>1509.492</ele>
        <time>2019-04-19T08:47:53Z</time>
      </trkpt>
      <trkpt lat="42.2835" lon="1.79882">
        <ele>1512.715</ele>
        <time>2019-04-19T08:48:10Z</time>
      </trkpt>
      <trkpt lat="42.28352" lon="1.79895">
        <ele>1515.198</ele>
        <time>2019-04-19T08:48:25Z</time>
      </trkpt>
      <trkpt lat="42.28357" lon="1.79906">
        <ele>1518.575</ele>
        <time>2019-04-19T08:48:39Z</time>
      </trkpt>
      <trkpt lat="42.28361" lon="1.7992">
        <ele>1521.428</ele>
        <time>2019-04-19T08:48:55Z</time>
      </trkpt>
      <trkpt lat="42.28363" lon="1.79936">
        <ele>1524.42</ele>
        <time>2019-04-19T08:49:10Z</time>
      </trkpt>
      <trkpt lat="42.28364" lon="1.7995">
        <ele>1527.108</ele>
        <time>2019-04-19T08:49:24Z</time>
      </trkpt>
      <trkpt lat="42.28365" lon="1.79964">
        <ele>1530.18</ele>
        <time>2019-04-19T08:49:38Z</time>
      </trkpt>
      <trkpt lat="42.28369" lon="1.79971">
        <ele>1533.042</ele>
        <time>2019-04-19T08:49:49Z</time>
      </trkpt>
      <trkpt lat="42.28375" lon="1.79965">
        <ele>1534.841</ele>
        <time>2019-04-19T08:50:02Z</time>
      </trkpt>
      <trkpt lat="42.2838" lon="1.7996">
        <ele>1537.749</ele>
        <time>2019-04-19T08:50:16Z</time>
      </trkpt>
      <trkpt lat="42.2838" lon="1.79971">
        <ele>1539.685</ele>
        <time>2019-04-19T08:50:30Z</time>
      </trkpt>
      <trkpt lat="42.28383" lon="1.79979">
        <ele>1542.058</ele>
        <time>2019-04-19T08:50:42Z</time>
      </trkpt>
      <trkpt lat="42.2839" lon="1.79974">
        <ele>1544.941</ele>
        <time>2019-04-19T08:50:56Z</time>
      </trkpt>
      <trkpt lat="42.28397" lon="1.79966">
        <ele>1547.024</ele>
        <time>2019-04-19T08:51:08Z</time>
      </trkpt>
      <trkpt lat="42.28404" lon="1.79966">
        <ele>1550.249</ele>
        <time>2019-04-19T08:51:22Z</time>
      </trkpt>
      <trkpt lat="42.28407" lon="1.79977">
        <ele>1553.102</ele>
        <time>2019-04-19T08:51:37Z</time>
      </trkpt>
      <trkpt lat="42.28408" lon="1.79987">
        <ele>1556.622</ele>
        <time>2019-04-19T08:51:52Z</time>
      </trkpt>
      <trkpt lat="42.28414" lon="1.79987">
        <ele>1559.008</ele>
        <time>2019-04-19T08:52:05Z</time>
      </trkpt>
      <trkpt lat="42.28418" lon="1.79991">
        <ele>1561.937</ele>
        <time>2019-04-19T08:52:17Z</time>
      </trkpt>
      <trkpt lat="42.28419" lon="1.80001">
        <ele>1564.289</ele>
        <time>2019-04-19T08:52:31Z</time>
      </trkpt>
      <trkpt lat="42.28423" lon="1.80007">
        <ele>1566.268</ele>
        <time>2019-04-19T08:52:43Z</time>
      </trkpt>
      <trkpt lat="42.28431" lon="1.80003">
        <ele>1569.186</ele>
        <time>2019-04-19T08:52:58Z</time>
      </trkpt>
      <trkpt lat="42.28442" lon="1.79992">
        <ele>1572.342</ele>
        <time>2019-04-19T08:53:12Z</time>
      </trkpt>
      <trkpt lat="42.2845" lon="1.79982">
        <ele>1574.355</ele>
        <time>2019-04-19T08:53:27Z</time>
      </trkpt>
      <trkpt lat="42.28454" lon="1.79968">
        <ele>1576.298</ele>
        <time>2019-04-19T08:53:40Z</time>
      </trkpt>
      <trkpt lat="42.28458" lon="1.79958">
        <ele>1579.181</ele>
        <time>2019-04-19T08:53:53Z</time>
      </trkpt>
      <trkpt lat="42.28464" lon="1.79945">
        <ele>1581.917</ele>
        <time>2019-04-19T08:54:07Z</time>
      </trkpt>
      <trkpt lat="42.2847" lon="1.79948">
        <ele>1584.887</ele>
        <time>2019-04-19T08:54:20Z</time>
      </trkpt>
      <trkpt lat="42.28472" lon="1.79959">
        <ele>1587.315</ele>
        <time>2019-04-19T08:54:32Z</time>
      </trkpt>
      <trkpt lat="42.28475" lon="1.79974">
        <ele>1590.208</ele>
        <time>2019-04-19T08:54:46Z</time>
      </trkpt>
      <trkpt lat="42.2848" lon="1.79971">
        <ele>1592.644</ele>
        <time>2019-04-19T08:54:59Z</time>
      </trkpt>
      <trkpt lat="42.28486" lon="1.79958">
        <ele>1595.986</ele>
        <time>2019-04-19T08:55:13Z</time>
      </trkpt>
      <trkpt lat="42.28491" lon="1.79959">
        <ele>1598.425</ele>
        <time>2019-04-19T08:55:24Z</time>
      </trkpt>
      <trkpt lat="42.28492" lon="1.79973">
        <ele>1601.263</ele>
        <time>2019-04-19T08:55:38Z</time>
      </trkpt>
      <trkpt lat="42.28495" lon="1.79987">
        <ele>1603.779</ele>
        <time>2019-04-19T08:55:51Z</time>
      </trkpt>
      <trkpt lat="42.28498" lon="1.80002">
        <ele>1606.522</ele>
        <time>2019-04-19T08:56:06Z</time>
      </trkpt>
      <trkpt lat="42.28502" lon="1.80017">
        <ele>1609.435</ele>
        <time>2019-04-19T08:56:22Z</time>
      </trkpt>
      <trkpt lat="42.28505" lon="1.80029">
        <ele>1612.868</ele>
        <time>2019-04-19T08:56:37Z</time>
      </trkpt>
      <trkpt lat="42.28508" lon="1.80041">
        <ele>1615.149</ele>
        <time>2019-04-19T08:56:52Z</time>
      </trkpt>
      <trkpt lat="42.28507" lon="1.80054">
        <ele>1618.502</ele>
        <time>2019-04-19T08:57:06Z</time>
      </trkpt>
      <trkpt lat="42.28508" lon="1.80066">
        <ele>1621.022</ele>
        <time>2019-04-19T08:57:19Z</time>
      </trkpt>
      <trkpt lat="42.28506" lon="1.80077">
        <ele>1623.908</ele>
        <time>2019-04-19T08:57:33Z</time>
      </trkpt>
      <trkpt lat="42.2851" lon="1.80083">
        <ele>1626.717</ele>
        <time>2019-04-19T08:57:46Z</time>
      </trkpt>
      <trkpt lat="42.28512" lon="1.80085">
        <ele>1628.649</ele>
        <time>2019-04-19T08:57:54Z</time>
      </trkpt>
      <trkpt lat="42.28512" lon="1.80093">
        <ele>1631.088</ele>
        <time>2019-04-19T08:58:07Z</time>
      </trkpt>
      <trkpt lat="42.28512" lon="1.80094">
        <ele>1631.536</ele>
        <time>2019-04-19T08:58:08Z</time>
      </trkpt>
      <trkpt lat="42.28511" lon="1.80106">
        <ele>1633.922</ele>
        <time>2019-04-19T08:58:21Z</time>
      </trkpt>
      <trkpt lat="42.28512" lon="1.80117">
        <ele>1635.365</ele>
        <time>2019-04-19T08:58:38Z</time>
      </trkpt>
      <trkpt lat="42.28511" lon="1.80128">
        <ele>1638.358</ele>
        <time>2019-04-19T08:58:51Z</time>
      </trkpt>
      <trkpt lat="42.28512" lon="1.80137">
        <ele>1639.251</ele>
        <time>2019-04-19T08:59:05Z</time>
      </trkpt>
      <trkpt lat="42.28511" lon="1.8014">
        <ele>1639.613</ele>
        <time>2019-04-19T08:59:32Z</time>
      </trkpt>
      <trkpt lat="42.28509" lon="1.80141">
        <ele>1639.643</ele>
        <time>2019-04-19T08:59:59Z</time>
      </trkpt>
      <trkpt lat="42.2851" lon="1.80141">
        <ele>1640.107</ele>
        <time>2019-04-19T09:00:23Z</time>
      </trkpt>
      <trkpt lat="42.28511" lon="1.80152">
        <ele>1641.608</ele>
        <time>2019-04-19T09:00:40Z</time>
      </trkpt>
      <trkpt lat="42.28512" lon="1.80165">
        <ele>1644.064</ele>
        <time>2019-04-19T09:00:54Z</time>
      </trkpt>
      <trkpt lat="42.28512" lon="1.80176">
        <ele>1646.086</ele>
        <time>2019-04-19T09:01:05Z</time>
      </trkpt>
      <trkpt lat="42.28512" lon="1.80188">
        <ele>1648.995</ele>
        <time>2019-04-19T09:01:18Z</time>
      </trkpt>
      <trkpt lat="42.28513" lon="1.80198">
        <ele>1652.133</ele>
        <time>2019-04-19T09:01:32Z</time>
      </trkpt>
      <trkpt lat="42.28514" lon="1.8021">
        <ele>1654.639</ele>
        <time>2019-04-19T09:01:45Z</time>
      </trkpt>
      <trkpt lat="42.28516" lon="1.8022">
        <ele>1657.572</ele>
        <time>2019-04-19T09:01:58Z</time>
      </trkpt>
      <trkpt lat="42.28518" lon="1.80228">
        <ele>1659.875</ele>
        <time>2019-04-19T09:02:10Z</time>
      </trkpt>
      <trkpt lat="42.2852" lon="1.80237">
        <ele>1662.248</ele>
        <time>2019-04-19T09:02:23Z</time>
      </trkpt>
      <trkpt lat="42.28527" lon="1.80234">
        <ele>1665.646</ele>
        <time>2019-04-19T09:02:38Z</time>
      </trkpt>
      <trkpt lat="42.28538" lon="1.80227">
        <ele>1668.988</ele>
        <time>2019-04-19T09:02:53Z</time>
      </trkpt>
      <trkpt lat="42.28545" lon="1.80222">
        <ele>1671.416</ele>
        <time>2019-04-19T09:03:06Z</time>
      </trkpt>
      <trkpt lat="42.2855" lon="1.80216">
        <ele>1673.308</ele>
        <time>2019-04-19T09:03:17Z</time>
      </trkpt>
      <trkpt lat="42.28557" lon="1.80208">
        <ele>1675.227</ele>
        <time>2019-04-19T09:03:30Z</time>
      </trkpt>
      <trkpt lat="42.28567" lon="1.80203">
        <ele>1678.789</ele>
        <time>2019-04-19T09:03:43Z</time>
      </trkpt>
      <trkpt lat="42.2857" lon="1.80201">
        <ele>1679.138</ele>
        <time>2019-04-19T09:03:47Z</time>
      </trkpt>
      <trkpt lat="42.28583" lon="1.8019">
        <ele>1681.466</ele>
        <time>2019-04-19T09:04:03Z</time>
      </trkpt>
      <trkpt lat="42.28589" lon="1.8018">
        <ele>1683.892</ele>
        <time>2019-04-19T09:04:15Z</time>
      </trkpt>
      <trkpt lat="42.28593" lon="1.80168">
        <ele>1686.895</ele>
        <time>2019-04-19T09:04:28Z</time>
      </trkpt>
      <trkpt lat="42.28597" lon="1.80162">
        <ele>1686.728</ele>
        <time>2019-04-19T09:04:47Z</time>
      </trkpt>
      <trkpt lat="42.28602" lon="1.80153">
        <ele>1688.351</ele>
        <time>2019-04-19T09:05:01Z</time>
      </trkpt>
      <trkpt lat="42.28609" lon="1.8014">
        <ele>1690.664</ele>
        <time>2019-04-19T09:05:14Z</time>
      </trkpt>
      <trkpt lat="42.28619" lon="1.80123">
        <ele>1692.506</ele>
        <time>2019-04-19T09:05:29Z</time>
      </trkpt>
      <trkpt lat="42.28626" lon="1.80112">
        <ele>1695.016</ele>
        <time>2019-04-19T09:05:42Z</time>
      </trkpt>
      <trkpt lat="42.28632" lon="1.80102">
        <ele>1696.908</ele>
        <time>2019-04-19T09:05:57Z</time>
      </trkpt>
      <trkpt lat="42.2864" lon="1.80092">
        <ele>1700.349</ele>
        <time>2019-04-19T09:06:13Z</time>
      </trkpt>
      <trkpt lat="42.28647" lon="1.80084">
        <ele>1703.141</ele>
        <time>2019-04-19T09:06:26Z</time>
      </trkpt>
      <trkpt lat="42.28655" lon="1.80077">
        <ele>1705.51</ele>
        <time>2019-04-19T09:06:41Z</time>
      </trkpt>
      <trkpt lat="42.28663" lon="1.80071">
        <ele>1708.968</ele>
        <time>2019-04-19T09:06:56Z</time>
      </trkpt>
      <trkpt lat="42.2867" lon="1.80065">
        <ele>1712.354</ele>
        <time>2019-04-19T09:07:11Z</time>
      </trkpt>
      <trkpt lat="42.28678" lon="1.80057">
        <ele>1714.787</ele>
        <time>2019-04-19T09:07:27Z</time>
      </trkpt>
      <trkpt lat="42.28684" lon="1.80044">
        <ele>1718.19</ele>
        <time>2019-04-19T09:07:43Z</time>
      </trkpt>
      <trkpt lat="42.28687" lon="1.80034">
        <ele>1719.473</ele>
        <time>2019-04-19T09:07:55Z</time>
      </trkpt>
      <trkpt lat="42.2869" lon="1.80023">
        <ele>1720.927</ele>
        <time>2019-04-19T09:08:06Z</time>
      </trkpt>
      <trkpt lat="42.28697" lon="1.80007">
        <ele>1723.368</ele>
        <time>2019-04-19T09:08:22Z</time>
      </trkpt>
      <trkpt lat="42.28704" lon="1.79993">
        <ele>1725.714</ele>
        <time>2019-04-19T09:08:37Z</time>
      </trkpt>
      <trkpt lat="42.28709" lon="1.79983">
        <ele>1728.608</ele>
        <time>2019-04-19T09:08:48Z</time>
      </trkpt>
      <trkpt lat="42.28715" lon="1.79976">
        <ele>1731.925</ele>
        <time>2019-04-19T09:09:02Z</time>
      </trkpt>
      <trkpt lat="42.28722" lon="1.79969">
        <ele>1734.897</ele>
        <time>2019-04-19T09:09:16Z</time>
      </trkpt>
      <trkpt lat="42.28728" lon="1.79962">
        <ele>1737.246</ele>
        <time>2019-04-19T09:09:30Z</time>
      </trkpt>
      <trkpt lat="42.28733" lon="1.79953">
        <ele>1740.694</ele>
        <time>2019-04-19T09:09:42Z</time>
      </trkpt>
      <trkpt lat="42.28739" lon="1.79951">
        <ele>1743.45</ele>
        <time>2019-04-19T09:09:57Z</time>
      </trkpt>
      <trkpt lat="42.28744" lon="1.79951">
        <ele>1745.863</ele>
        <time>2019-04-19T09:10:09Z</time>
      </trkpt>
      <trkpt lat="42.28747" lon="1.79948">
        <ele>1746.476</ele>
        <time>2019-04-19T09:10:29Z</time>
      </trkpt>
      <trkpt lat="42.28753" lon="1.79939">
        <ele>1749.329</ele>
        <time>2019-04-19T09:10:44Z</time>
      </trkpt>
      <trkpt lat="42.28761" lon="1.79935">
        <ele>1752.638</ele>
        <time>2019-04-19T09:10:59Z</time>
      </trkpt>
      <trkpt lat="42.28767" lon="1.79928">
        <ele>1755.57</ele>
        <time>2019-04-19T09:11:14Z</time>
      </trkpt>
      <trkpt lat="42.28772" lon="1.79918">
        <ele>1758.917</ele>
        <time>2019-04-19T09:11:27Z</time>
      </trkpt>
      <trkpt lat="42.28779" lon="1.79911">
        <ele>1761.808</ele>
        <time>2019-04-19T09:11:42Z</time>
      </trkpt>
      <trkpt lat="42.28784" lon="1.79903">
        <ele>1764.726</ele>
        <time>2019-04-19T09:11:54Z</time>
      </trkpt>
      <trkpt lat="42.28791" lon="1.79897">
        <ele>1767.698</ele>
        <time>2019-04-19T09:12:10Z</time>
      </trkpt>
      <trkpt lat="42.28796" lon="1.79907">
        <ele>1770.447</ele>
        <time>2019-04-19T09:12:26Z</time>
      </trkpt>
      <trkpt lat="42.28802" lon="1.79915">
        <ele>1773.265</ele>
        <time>2019-04-19T09:12:41Z</time>
      </trkpt>
      <trkpt lat="42.28807" lon="1.7991">
        <ele>1775.651</ele>
        <time>2019-04-19T09:12:56Z</time>
      </trkpt>
      <trkpt lat="42.28813" lon="1.79901">
        <ele>1778.654</ele>
        <time>2019-04-19T09:13:11Z</time>
      </trkpt>
      <trkpt lat="42.28818" lon="1.79892">
        <ele>1781.917</ele>
        <time>2019-04-19T09:13:25Z</time>
      </trkpt>
      <trkpt lat="42.28824" lon="1.79883">
        <ele>1784.86</ele>
        <time>2019-04-19T09:13:41Z</time>
      </trkpt>
      <trkpt lat="42.28828" lon="1.79878">
        <ele>1788.128</ele>
        <time>2019-04-19T09:13:54Z</time>
      </trkpt>
      <trkpt lat="42.28833" lon="1.79877">
        <ele>1791.089</ele>
        <time>2019-04-19T09:14:09Z</time>
      </trkpt>
      <trkpt lat="42.28837" lon="1.79878">
        <ele>1793.417</ele>
        <time>2019-04-19T09:14:23Z</time>
      </trkpt>
      <trkpt lat="42.28843" lon="1.79869">
        <ele>1796.308</ele>
        <time>2019-04-19T09:14:39Z</time>
      </trkpt>
      <trkpt lat="42.28848" lon="1.79867">
        <ele>1798.865</ele>
        <time>2019-04-19T09:14:54Z</time>
      </trkpt>
      <trkpt lat="42.28852" lon="1.79866">
        <ele>1801.747</ele>
        <time>2019-04-19T09:15:07Z</time>
      </trkpt>
      <trkpt lat="42.28857" lon="1.79863">
        <ele>1804.696</ele>
        <time>2019-04-19T09:15:21Z</time>
      </trkpt>
      <trkpt lat="42.28857" lon="1.79858">
        <ele>1804.664</ele>
        <time>2019-04-19T09:15:35Z</time>
      </trkpt>
      <trkpt lat="42.28857" lon="1.79858">
        <ele>1805.05</ele>
        <time>2019-04-19T09:15:54Z</time>
      </trkpt>
      <trkpt lat="42.28856" lon="1.79858">
        <ele>1804.173</ele>
        <time>2019-04-19T09:16:16Z</time>
      </trkpt>
      <trkpt lat="42.28855" lon="1.79856">
        <ele>1803.676</ele>
        <time>2019-04-19T09:16:33Z</time>
      </trkpt>
      <trkpt lat="42.28856" lon="1.79861">
        <ele>1803.649</ele>
        <time>2019-04-19T09:16:54Z</time>
      </trkpt>
      <trkpt lat="42.28859" lon="1.79864">
        <ele>1805.037</ele>
        <time>2019-04-19T09:17:02Z</time>
      </trkpt>
      <trkpt lat="42.28859" lon="1.79865">
        <ele>1805.049</ele>
        <time>2019-04-19T09:17:19Z</time>
      </trkpt>
      <trkpt lat="42.28859" lon="1.79864">
        <ele>1805.113</ele>
        <time>2019-04-19T09:17:44Z</time>
      </trkpt>
      <trkpt lat="42.28858" lon="1.79862">
        <ele>1805.008</ele>
        <time>2019-04-19T09:18:09Z</time>
      </trkpt>
      <trkpt lat="42.28855" lon="1.79862">
        <ele>1805.546</ele>
        <time>2019-04-19T09:18:30Z</time>
      </trkpt>
      <trkpt lat="42.28853" lon="1.79862">
        <ele>1805.548</ele>
        <time>2019-04-19T09:18:49Z</time>
      </trkpt>
      <trkpt lat="42.28852" lon="1.79862">
        <ele>1804.077</ele>
        <time>2019-04-19T09:19:07Z</time>
      </trkpt>
      <trkpt lat="42.28853" lon="1.79862">
        <ele>1804.165</ele>
        <time>2019-04-19T09:19:28Z</time>
      </trkpt>
      <trkpt lat="42.28855" lon="1.7986">
        <ele>1804.581</ele>
        <time>2019-04-19T09:19:50Z</time>
      </trkpt>
      <trkpt lat="42.28856" lon="1.79861">
        <ele>1804.574</ele>
        <time>2019-04-19T09:20:11Z</time>
      </trkpt>
      <trkpt lat="42.28854" lon="1.79861">
        <ele>1804.017</ele>
        <time>2019-04-19T09:20:33Z</time>
      </trkpt>
      <trkpt lat="42.2885" lon="1.79862">
        <ele>1802.16</ele>
        <time>2019-04-19T09:20:46Z</time>
      </trkpt>
      <trkpt lat="42.28845" lon="1.79865">
        <ele>1798.755</ele>
        <time>2019-04-19T09:20:58Z</time>
      </trkpt>
      <trkpt lat="42.2884" lon="1.79871">
        <ele>1795.407</ele>
        <time>2019-04-19T09:21:11Z</time>
      </trkpt>
      <trkpt lat="42.28834" lon="1.79874">
        <ele>1792.617</ele>
        <time>2019-04-19T09:21:23Z</time>
      </trkpt>
      <trkpt lat="42.2883" lon="1.79879">
        <ele>1789.208</ele>
        <time>2019-04-19T09:21:33Z</time>
      </trkpt>
      <trkpt lat="42.28824" lon="1.7988">
        <ele>1786.218</ele>
        <time>2019-04-19T09:21:45Z</time>
      </trkpt>
      <trkpt lat="42.2882" lon="1.79884">
        <ele>1783.82</ele>
        <time>2019-04-19T09:21:52Z</time>
      </trkpt>
      <trkpt lat="42.28814" lon="1.79894">
        <ele>1781.069</ele>
        <time>2019-04-19T09:22:04Z</time>
      </trkpt>
      <trkpt lat="42.28808" lon="1.79906">
        <ele>1777.147</ele>
        <time>2019-04-19T09:22:18Z</time>
      </trkpt>
      <trkpt lat="42.28802" lon="1.79913">
        <ele>1774.883</ele>
        <time>2019-04-19T09:22:32Z</time>
      </trkpt>
      <trkpt lat="42.28801" lon="1.79913">
        <ele>1774.386</ele>
        <time>2019-04-19T09:22:33Z</time>
      </trkpt>
      <trkpt lat="42.28793" lon="1.79907">
        <ele>1770.529</ele>
        <time>2019-04-19T09:22:47Z</time>
      </trkpt>
      <trkpt lat="42.28787" lon="1.79899">
        <ele>1766.652</ele>
        <time>2019-04-19T09:22:59Z</time>
      </trkpt>
      <trkpt lat="42.28782" lon="1.79903">
        <ele>1764.696</ele>
        <time>2019-04-19T09:23:07Z</time>
      </trkpt>
      <trkpt lat="42.28774" lon="1.79912">
        <ele>1760.331</ele>
        <time>2019-04-19T09:23:18Z</time>
      </trkpt>
      <trkpt lat="42.28768" lon="1.79922">
        <ele>1757.524</ele>
        <time>2019-04-19T09:23:29Z</time>
      </trkpt>
      <trkpt lat="42.28763" lon="1.79931">
        <ele>1754.008</ele>
        <time>2019-04-19T09:23:39Z</time>
      </trkpt>
      <trkpt lat="42.28756" lon="1.79937">
        <ele>1751.272</ele>
        <time>2019-04-19T09:23:50Z</time>
      </trkpt>
      <trkpt lat="42.28749" lon="1.79944">
        <ele>1747.984</ele>
        <time>2019-04-19T09:23:59Z</time>
      </trkpt>
      <trkpt lat="42.28741" lon="1.79949">
        <ele>1744.913</ele>
        <time>2019-04-19T09:24:12Z</time>
      </trkpt>
      <trkpt lat="42.28735" lon="1.79949">
        <ele>1741.571</ele>
        <time>2019-04-19T09:24:20Z</time>
      </trkpt>
      <trkpt lat="42.28728" lon="1.79958">
        <ele>1738.377</ele>
        <time>2019-04-19T09:24:30Z</time>
      </trkpt>
      <trkpt lat="42.2872" lon="1.79966">
        <ele>1734.99</ele>
        <time>2019-04-19T09:24:39Z</time>
      </trkpt>
      <trkpt lat="42.28718" lon="1.79968">
        <ele>1733.893</ele>
        <time>2019-04-19T09:24:42Z</time>
      </trkpt>
      <trkpt lat="42.28713" lon="1.79974">
        <ele>1731.996</ele>
        <time>2019-04-19T09:24:49Z</time>
      </trkpt>
      <trkpt lat="42.28706" lon="1.79982">
        <ele>1728.155</ele>
        <time>2019-04-19T09:25:00Z</time>
      </trkpt>
      <trkpt lat="42.28704" lon="1.79985">
        <ele>1727.107</ele>
        <time>2019-04-19T09:25:02Z</time>
      </trkpt>
      <trkpt lat="42.28696" lon="1.80004">
        <ele>1724.317</ele>
        <time>2019-04-19T09:25:15Z</time>
      </trkpt>
      <trkpt lat="42.28695" lon="1.80005">
        <ele>1724.308</ele>
        <time>2019-04-19T09:25:16Z</time>
      </trkpt>
      <trkpt lat="42.28687" lon="1.8003">
        <ele>1721.368</ele>
        <time>2019-04-19T09:25:32Z</time>
      </trkpt>
      <trkpt lat="42.28686" lon="1.80034">
        <ele>1721.41</ele>
        <time>2019-04-19T09:25:34Z</time>
      </trkpt>
      <trkpt lat="42.28679" lon="1.80053">
        <ele>1717.069</ele>
        <time>2019-04-19T09:25:47Z</time>
      </trkpt>
      <trkpt lat="42.28671" lon="1.80063">
        <ele>1713.737</ele>
        <time>2019-04-19T09:25:57Z</time>
      </trkpt>
      <trkpt lat="42.28664" lon="1.80069">
        <ele>1710.493</ele>
        <time>2019-04-19T09:26:05Z</time>
      </trkpt>
      <trkpt lat="42.28657" lon="1.80075">
        <ele>1707.916</ele>
        <time>2019-04-19T09:26:12Z</time>
      </trkpt>
      <trkpt lat="42.28652" lon="1.80079">
        <ele>1706.129</ele>
        <time>2019-04-19T09:26:16Z</time>
      </trkpt>
      <trkpt lat="42.28651" lon="1.80081">
        <ele>1705.642</ele>
        <time>2019-04-19T09:26:18Z</time>
      </trkpt>
      <trkpt lat="42.28641" lon="1.80091">
        <ele>1701.624</ele>
        <time>2019-04-19T09:26:29Z</time>
      </trkpt>
      <trkpt lat="42.28632" lon="1.801">
        <ele>1698.304</ele>
        <time>2019-04-19T09:26:40Z</time>
      </trkpt>
      <trkpt lat="42.28624" lon="1.80112">
        <ele>1696.014</ele>
        <time>2019-04-19T09:26:52Z</time>
      </trkpt>
      <trkpt lat="42.28623" lon="1.80114">
        <ele>1696.308</ele>
        <time>2019-04-19T09:26:54Z</time>
      </trkpt>
      <trkpt lat="42.28622" lon="1.80117">
        <ele>1695.585</ele>
        <time>2019-04-19T09:26:56Z</time>
      </trkpt>
      <trkpt lat="42.28616" lon="1.8013">
        <ele>1694.427</ele>
        <time>2019-04-19T09:27:04Z</time>
      </trkpt>
      <trkpt lat="42.28612" lon="1.80138">
        <ele>1693.676</ele>
        <time>2019-04-19T09:27:09Z</time>
      </trkpt>
      <trkpt lat="42.28606" lon="1.80145">
        <ele>1692.194</ele>
        <time>2019-04-19T09:27:15Z</time>
      </trkpt>
      <trkpt lat="42.286" lon="1.80154">
        <ele>1689.75</ele>
        <time>2019-04-19T09:27:22Z</time>
      </trkpt>
      <trkpt lat="42.28605" lon="1.80166">
        <ele>1687.253</ele>
        <time>2019-04-19T09:27:35Z</time>
      </trkpt>
      <trkpt lat="42.28613" lon="1.80162">
        <ele>1687.366</ele>
        <time>2019-04-19T09:27:45Z</time>
      </trkpt>
      <trkpt lat="42.28622" lon="1.80155">
        <ele>1685.979</ele>
        <time>2019-04-19T09:27:58Z</time>
      </trkpt>
      <trkpt lat="42.28629" lon="1.80153">
        <ele>1682.447</ele>
        <time>2019-04-19T09:28:08Z</time>
      </trkpt>
      <trkpt lat="42.28632" lon="1.80156">
        <ele>1680.529</ele>
        <time>2019-04-19T09:28:15Z</time>
      </trkpt>
      <trkpt lat="42.28633" lon="1.80158">
        <ele>1677.121</ele>
        <time>2019-04-19T09:28:24Z</time>
      </trkpt>
      <trkpt lat="42.28646" lon="1.8014">
        <ele>1674.308</ele>
        <time>2019-04-19T09:28:37Z</time>
      </trkpt>
      <trkpt lat="42.28662" lon="1.80135">
        <ele>1673.397</ele>
        <time>2019-04-19T09:28:48Z</time>
      </trkpt>
      <trkpt lat="42.28672" lon="1.80127">
        <ele>1672.499</ele>
        <time>2019-04-19T09:28:59Z</time>
      </trkpt>
      <trkpt lat="42.28677" lon="1.80118">
        <ele>1674.858</ele>
        <time>2019-04-19T09:29:13Z</time>
      </trkpt>
      <trkpt lat="42.28684" lon="1.80105">
        <ele>1676.696</ele>
        <time>2019-04-19T09:29:26Z</time>
      </trkpt>
      <trkpt lat="42.28688" lon="1.80091">
        <ele>1678.792</ele>
        <time>2019-04-19T09:29:38Z</time>
      </trkpt>
      <trkpt lat="42.28711" lon="1.80084">
        <ele>1679.515</ele>
        <time>2019-04-19T09:29:51Z</time>
      </trkpt>
      <trkpt lat="42.28736" lon="1.80076">
        <ele>1679.598</ele>
        <time>2019-04-19T09:30:01Z</time>
      </trkpt>
      <trkpt lat="42.28746" lon="1.80067">
        <ele>1680.151</ele>
        <time>2019-04-19T09:30:14Z</time>
      </trkpt>
      <trkpt lat="42.28759" lon="1.80061">
        <ele>1681.059</ele>
        <time>2019-04-19T09:30:28Z</time>
      </trkpt>
      <trkpt lat="42.28766" lon="1.80056">
        <ele>1681.403</ele>
        <time>2019-04-19T09:30:39Z</time>
      </trkpt>
      <trkpt lat="42.28784" lon="1.80044">
        <ele>1682.023</ele>
        <time>2019-04-19T09:30:50Z</time>
      </trkpt>
      <trkpt lat="42.288" lon="1.8004">
        <ele>1682.008</ele>
        <time>2019-04-19T09:31:02Z</time>
      </trkpt>
      <trkpt lat="42.28812" lon="1.80035">
        <ele>1681.938</ele>
        <time>2019-04-19T09:31:13Z</time>
      </trkpt>
      <trkpt lat="42.28831" lon="1.80036">
        <ele>1681.46</ele>
        <time>2019-04-19T09:31:25Z</time>
      </trkpt>
      <trkpt lat="42.28847" lon="1.80034">
        <ele>1681.979</ele>
        <time>2019-04-19T09:31:37Z</time>
      </trkpt>
      <trkpt lat="42.28859" lon="1.80029">
        <ele>1682.547</ele>
        <time>2019-04-19T09:31:49Z</time>
      </trkpt>
      <trkpt lat="42.28873" lon="1.80024">
        <ele>1683.493</ele>
        <time>2019-04-19T09:32:01Z</time>
      </trkpt>
      <trkpt lat="42.28888" lon="1.80024">
        <ele>1683.926</ele>
        <time>2019-04-19T09:32:13Z</time>
      </trkpt>
      <trkpt lat="42.28895" lon="1.80024">
        <ele>1683.039</ele>
        <time>2019-04-19T09:32:18Z</time>
      </trkpt>
      <trkpt lat="42.28908" lon="1.80021">
        <ele>1682.512</ele>
        <time>2019-04-19T09:32:34Z</time>
      </trkpt>
      <trkpt lat="42.28907" lon="1.80019">
        <ele>1682.419</ele>
        <time>2019-04-19T09:33:09Z</time>
      </trkpt>
      <trkpt lat="42.28911" lon="1.80015">
        <ele>1682.409</ele>
        <time>2019-04-19T09:33:39Z</time>
      </trkpt>
      <trkpt lat="42.28925" lon="1.80012">
        <ele>1683.919</ele>
        <time>2019-04-19T09:33:54Z</time>
      </trkpt>
      <trkpt lat="42.28938" lon="1.80008">
        <ele>1684.908</ele>
        <time>2019-04-19T09:34:06Z</time>
      </trkpt>
      <trkpt lat="42.28952" lon="1.80001">
        <ele>1685.874</ele>
        <time>2019-04-19T09:34:18Z</time>
      </trkpt>
      <trkpt lat="42.28965" lon="1.79995">
        <ele>1687.376</ele>
        <time>2019-04-19T09:34:31Z</time>
      </trkpt>
      <trkpt lat="42.28983" lon="1.79987">
        <ele>1689.255</ele>
        <time>2019-04-19T09:34:46Z</time>
      </trkpt>
      <trkpt lat="42.2899" lon="1.79983">
        <ele>1692.523</ele>
        <time>2019-04-19T09:34:56Z</time>
      </trkpt>
      <trkpt lat="42.28998" lon="1.79981">
        <ele>1695.099</ele>
        <time>2019-04-19T09:35:09Z</time>
      </trkpt>
      <trkpt lat="42.29006" lon="1.79978">
        <ele>1697.882</ele>
        <time>2019-04-19T09:35:22Z</time>
      </trkpt>
      <trkpt lat="42.29013" lon="1.79971">
        <ele>1701.685</ele>
        <time>2019-04-19T09:35:37Z</time>
      </trkpt>
      <trkpt lat="42.2902" lon="1.79966">
        <ele>1703.648</ele>
        <time>2019-04-19T09:35:48Z</time>
      </trkpt>
      <trkpt lat="42.29027" lon="1.79959">
        <ele>1706.461</ele>
        <time>2019-04-19T09:36:02Z</time>
      </trkpt>
      <trkpt lat="42.29035" lon="1.79943">
        <ele>1709.321</ele>
        <time>2019-04-19T09:36:17Z</time>
      </trkpt>
      <trkpt lat="42.29039" lon="1.79933">
        <ele>1709.413</ele>
        <time>2019-04-19T09:36:26Z</time>
      </trkpt>
      <trkpt lat="42.29045" lon="1.79912">
        <ele>1707.008</ele>
        <time>2019-04-19T09:36:40Z</time>
      </trkpt>
      <trkpt lat="42.29047" lon="1.79899">
        <ele>1706.539</ele>
        <time>2019-04-19T09:36:46Z</time>
      </trkpt>
      <trkpt lat="42.29059" lon="1.79869">
        <ele>1705.641</ele>
        <time>2019-04-19T09:37:02Z</time>
      </trkpt>
      <trkpt lat="42.29069" lon="1.79854">
        <ele>1705.68</ele>
        <time>2019-04-19T09:37:14Z</time>
      </trkpt>
      <trkpt lat="42.29072" lon="1.79852">
        <ele>1705.688</ele>
        <time>2019-04-19T09:37:17Z</time>
      </trkpt>
      <trkpt lat="42.29084" lon="1.79838">
        <ele>1704.534</ele>
        <time>2019-04-19T09:37:30Z</time>
      </trkpt>
      <trkpt lat="42.29093" lon="1.79826">
        <ele>1704.577</ele>
        <time>2019-04-19T09:37:42Z</time>
      </trkpt>
      <trkpt lat="42.29099" lon="1.79809">
        <ele>1704.64</ele>
        <time>2019-04-19T09:37:55Z</time>
      </trkpt>
      <trkpt lat="42.29103" lon="1.79792">
        <ele>1705.013</ele>
        <time>2019-04-19T09:38:10Z</time>
      </trkpt>
      <trkpt lat="42.29103" lon="1.79787">
        <ele>1705.064</ele>
        <time>2019-04-19T09:38:31Z</time>
      </trkpt>
      <trkpt lat="42.29109" lon="1.79791">
        <ele>1705.506</ele>
        <time>2019-04-19T09:38:42Z</time>
      </trkpt>
      <trkpt lat="42.29119" lon="1.79798">
        <ele>1706.516</ele>
        <time>2019-04-19T09:38:57Z</time>
      </trkpt>
      <trkpt lat="42.29136" lon="1.79806">
        <ele>1706.908</ele>
        <time>2019-04-19T09:39:13Z</time>
      </trkpt>
      <trkpt lat="42.29144" lon="1.79807">
        <ele>1703.249</ele>
        <time>2019-04-19T09:39:25Z</time>
      </trkpt>
      <trkpt lat="42.29153" lon="1.79807">
        <ele>1700.291</ele>
        <time>2019-04-19T09:39:33Z</time>
      </trkpt>
      <trkpt lat="42.29166" lon="1.79801">
        <ele>1699.25</ele>
        <time>2019-04-19T09:39:49Z</time>
      </trkpt>
      <trkpt lat="42.29168" lon="1.79799">
        <ele>1698.798</ele>
        <time>2019-04-19T09:40:15Z</time>
      </trkpt>
      <trkpt lat="42.29161" lon="1.79797">
        <ele>1698.774</ele>
        <time>2019-04-19T09:40:39Z</time>
      </trkpt>
      <trkpt lat="42.29158" lon="1.798">
        <ele>1698.767</ele>
        <time>2019-04-19T09:41:07Z</time>
      </trkpt>
      <trkpt lat="42.29161" lon="1.79801">
        <ele>1698.48</ele>
        <time>2019-04-19T09:41:36Z</time>
      </trkpt>
      <trkpt lat="42.29161" lon="1.79796">
        <ele>1697.393</ele>
        <time>2019-04-19T09:41:40Z</time>
      </trkpt>
      <trkpt lat="42.29161" lon="1.79791">
        <ele>1694.991</ele>
        <time>2019-04-19T09:41:45Z</time>
      </trkpt>
      <trkpt lat="42.29165" lon="1.79785">
        <ele>1691.181</ele>
        <time>2019-04-19T09:41:55Z</time>
      </trkpt>
      <trkpt lat="42.29166" lon="1.79785">
        <ele>1691.219</ele>
        <time>2019-04-19T09:41:56Z</time>
      </trkpt>
      <trkpt lat="42.29166" lon="1.7978">
        <ele>1688.208</ele>
        <time>2019-04-19T09:42:07Z</time>
      </trkpt>
      <trkpt lat="42.29162" lon="1.79776">
        <ele>1684.972</ele>
        <time>2019-04-19T09:42:16Z</time>
      </trkpt>
      <trkpt lat="42.29161" lon="1.79766">
        <ele>1681.554</ele>
        <time>2019-04-19T09:42:25Z</time>
      </trkpt>
      <trkpt lat="42.29159" lon="1.79763">
        <ele>1678.273</ele>
        <time>2019-04-19T09:42:33Z</time>
      </trkpt>
      <trkpt lat="42.29155" lon="1.79758">
        <ele>1676.331</ele>
        <time>2019-04-19T09:42:39Z</time>
      </trkpt>
      <trkpt lat="42.29153" lon="1.79751">
        <ele>1672.367</ele>
        <time>2019-04-19T09:42:47Z</time>
      </trkpt>
      <trkpt lat="42.29151" lon="1.79747">
        <ele>1669.09</ele>
        <time>2019-04-19T09:42:56Z</time>
      </trkpt>
      <trkpt lat="42.2915" lon="1.79741">
        <ele>1665.743</ele>
        <time>2019-04-19T09:43:04Z</time>
      </trkpt>
      <trkpt lat="42.29145" lon="1.79729">
        <ele>1662.886</ele>
        <time>2019-04-19T09:43:12Z</time>
      </trkpt>
      <trkpt lat="42.29136" lon="1.79718">
        <ele>1658.877</ele>
        <time>2019-04-19T09:43:22Z</time>
      </trkpt>
      <trkpt lat="42.29129" lon="1.79706">
        <ele>1655.561</ele>
        <time>2019-04-19T09:43:30Z</time>
      </trkpt>
      <trkpt lat="42.29128" lon="1.79703">
        <ele>1653.627</ele>
        <time>2019-04-19T09:43:35Z</time>
      </trkpt>
      <trkpt lat="42.29125" lon="1.79701">
        <ele>1651.608</ele>
        <time>2019-04-19T09:43:40Z</time>
      </trkpt>
      <trkpt lat="42.29118" lon="1.79697">
        <ele>1649.32</ele>
        <time>2019-04-19T09:43:46Z</time>
      </trkpt>
      <trkpt lat="42.29119" lon="1.79689">
        <ele>1646.082</ele>
        <time>2019-04-19T09:43:56Z</time>
      </trkpt>
      <trkpt lat="42.2912" lon="1.7968">
        <ele>1642.541</ele>
        <time>2019-04-19T09:44:03Z</time>
      </trkpt>
      <trkpt lat="42.29119" lon="1.79677">
        <ele>1642.069</ele>
        <time>2019-04-19T09:44:06Z</time>
      </trkpt>
      <trkpt lat="42.29118" lon="1.79671">
        <ele>1638.775</ele>
        <time>2019-04-19T09:44:16Z</time>
      </trkpt>
      <trkpt lat="42.29111" lon="1.79658">
        <ele>1635.868</ele>
        <time>2019-04-19T09:44:24Z</time>
      </trkpt>
      <trkpt lat="42.29111" lon="1.79655">
        <ele>1632.461</ele>
        <time>2019-04-19T09:44:35Z</time>
      </trkpt>
      <trkpt lat="42.29114" lon="1.79645">
        <ele>1628.254</ele>
        <time>2019-04-19T09:44:48Z</time>
      </trkpt>
      <trkpt lat="42.29111" lon="1.79633">
        <ele>1624.759</ele>
        <time>2019-04-19T09:44:59Z</time>
      </trkpt>
      <trkpt lat="42.291" lon="1.79619">
        <ele>1622.303</ele>
        <time>2019-04-19T09:45:11Z</time>
      </trkpt>
      <trkpt lat="42.29085" lon="1.79604">
        <ele>1620.923</ele>
        <time>2019-04-19T09:45:28Z</time>
      </trkpt>
      <trkpt lat="42.29079" lon="1.79602">
        <ele>1618.608</ele>
        <time>2019-04-19T09:45:51Z</time>
      </trkpt>
      <trkpt lat="42.29071" lon="1.79593">
        <ele>1615.138</ele>
        <time>2019-04-19T09:46:03Z</time>
      </trkpt>
      <trkpt lat="42.29061" lon="1.79582">
        <ele>1611.38</ele>
        <time>2019-04-19T09:46:12Z</time>
      </trkpt>
      <trkpt lat="42.29056" lon="1.79578">
        <ele>1608.079</ele>
        <time>2019-04-19T09:46:22Z</time>
      </trkpt>
      <trkpt lat="42.29053" lon="1.79575">
        <ele>1604.567</ele>
        <time>2019-04-19T09:46:34Z</time>
      </trkpt>
      <trkpt lat="42.29053" lon="1.79575">
        <ele>1604.573</ele>
        <time>2019-04-19T09:46:35Z</time>
      </trkpt>
      <trkpt lat="42.29054" lon="1.79576">
        <ele>1603.716</ele>
        <time>2019-04-19T09:46:38Z</time>
      </trkpt>
      <trkpt lat="42.29052" lon="1.79581">
        <ele>1602.659</ele>
        <time>2019-04-19T09:46:41Z</time>
      </trkpt>
      <trkpt lat="42.29043" lon="1.79593">
        <ele>1600.222</ele>
        <time>2019-04-19T09:46:50Z</time>
      </trkpt>
      <trkpt lat="42.2903" lon="1.796">
        <ele>1596.832</ele>
        <time>2019-04-19T09:47:00Z</time>
      </trkpt>
      <trkpt lat="42.29016" lon="1.79597">
        <ele>1594.092</ele>
        <time>2019-04-19T09:47:10Z</time>
      </trkpt>
      <trkpt lat="42.2901" lon="1.79597">
        <ele>1590.611</ele>
        <time>2019-04-19T09:47:18Z</time>
      </trkpt>
      <trkpt lat="42.2901" lon="1.79596">
        <ele>1590.608</ele>
        <time>2019-04-19T09:47:19Z</time>
      </trkpt>
      <trkpt lat="42.29008" lon="1.79587">
        <ele>1587.796</ele>
        <time>2019-04-19T09:47:29Z</time>
      </trkpt>
      <trkpt lat="42.29004" lon="1.79579">
        <ele>1584.378</ele>
        <time>2019-04-19T09:47:38Z</time>
      </trkpt>
      <trkpt lat="42.29001" lon="1.79574">
        <ele>1581.117</ele>
        <time>2019-04-19T09:47:45Z</time>
      </trkpt>
      <trkpt lat="42.29001" lon="1.79565">
        <ele>1578.255</ele>
        <time>2019-04-19T09:47:56Z</time>
      </trkpt>
      <trkpt lat="42.29003" lon="1.79556">
        <ele>1574.891</ele>
        <time>2019-04-19T09:48:06Z</time>
      </trkpt>
      <trkpt lat="42.29001" lon="1.79547">
        <ele>1571.894</ele>
        <time>2019-04-19T09:48:14Z</time>
      </trkpt>
      <trkpt lat="42.29002" lon="1.79533">
        <ele>1568.597</ele>
        <time>2019-04-19T09:48:26Z</time>
      </trkpt>
      <trkpt lat="42.28991" lon="1.79522">
        <ele>1566.13</ele>
        <time>2019-04-19T09:48:38Z</time>
      </trkpt>
      <trkpt lat="42.28984" lon="1.79524">
        <ele>1565.112</ele>
        <time>2019-04-19T09:48:49Z</time>
      </trkpt>
      <trkpt lat="42.28977" lon="1.79516">
        <ele>1562.232</ele>
        <time>2019-04-19T09:48:56Z</time>
      </trkpt>
      <trkpt lat="42.28974" lon="1.79511">
        <ele>1559.005</ele>
        <time>2019-04-19T09:49:04Z</time>
      </trkpt>
      <trkpt lat="42.28974" lon="1.79506">
        <ele>1555.508</ele>
        <time>2019-04-19T09:49:16Z</time>
      </trkpt>
      <trkpt lat="42.28977" lon="1.79501">
        <ele>1552.234</ele>
        <time>2019-04-19T09:49:24Z</time>
      </trkpt>
      <trkpt lat="42.2897" lon="1.7949">
        <ele>1548.896</ele>
        <time>2019-04-19T09:49:33Z</time>
      </trkpt>
      <trkpt lat="42.28964" lon="1.79489">
        <ele>1545.585</ele>
        <time>2019-04-19T09:49:42Z</time>
      </trkpt>
      <trkpt lat="42.28958" lon="1.79485">
        <ele>1544.073</ele>
        <time>2019-04-19T09:49:46Z</time>
      </trkpt>
      <trkpt lat="42.28958" lon="1.79483">
        <ele>1543.569</ele>
        <time>2019-04-19T09:49:48Z</time>
      </trkpt>
      <trkpt lat="42.28959" lon="1.79475">
        <ele>1540.262</ele>
        <time>2019-04-19T09:49:56Z</time>
      </trkpt>
      <trkpt lat="42.28961" lon="1.79466">
        <ele>1536.855</ele>
        <time>2019-04-19T09:50:05Z</time>
      </trkpt>
      <trkpt lat="42.28965" lon="1.79461">
        <ele>1534.028</ele>
        <time>2019-04-19T09:50:12Z</time>
      </trkpt>
      <trkpt lat="42.2897" lon="1.79449">
        <ele>1532.436</ele>
        <time>2019-04-19T09:50:23Z</time>
      </trkpt>
      <trkpt lat="42.2897" lon="1.79439">
        <ele>1529.517</ele>
        <time>2019-04-19T09:50:29Z</time>
      </trkpt>
      <trkpt lat="42.2897" lon="1.79437">
        <ele>1529.518</ele>
        <time>2019-04-19T09:50:30Z</time>
      </trkpt>
      <trkpt lat="42.2897" lon="1.79428">
        <ele>1526.208</ele>
        <time>2019-04-19T09:50:36Z</time>
      </trkpt>
      <trkpt lat="42.28971" lon="1.79422">
        <ele>1522.866</ele>
        <time>2019-04-19T09:50:45Z</time>
      </trkpt>
      <trkpt lat="42.2897" lon="1.79412">
        <ele>1520.998</ele>
        <time>2019-04-19T09:50:50Z</time>
      </trkpt>
      <trkpt lat="42.28964" lon="1.79396">
        <ele>1517.547</ele>
        <time>2019-04-19T09:50:59Z</time>
      </trkpt>
      <trkpt lat="42.28964" lon="1.7939">
        <ele>1516.735</ele>
        <time>2019-04-19T09:51:04Z</time>
      </trkpt>
      <trkpt lat="42.28961" lon="1.79376">
        <ele>1516.291</ele>
        <time>2019-04-19T09:51:12Z</time>
      </trkpt>
      <trkpt lat="42.28954" lon="1.79356">
        <ele>1515.724</ele>
        <time>2019-04-19T09:51:23Z</time>
      </trkpt>
      <trkpt lat="42.28942" lon="1.79343">
        <ele>1513.837</ele>
        <time>2019-04-19T09:51:33Z</time>
      </trkpt>
      <trkpt lat="42.28932" lon="1.79324">
        <ele>1510.98</ele>
        <time>2019-04-19T09:51:45Z</time>
      </trkpt>
      <trkpt lat="42.28927" lon="1.79301">
        <ele>1507.939</ele>
        <time>2019-04-19T09:51:57Z</time>
      </trkpt>
      <trkpt lat="42.28924" lon="1.79289">
        <ele>1504.601</ele>
        <time>2019-04-19T09:52:06Z</time>
      </trkpt>
      <trkpt lat="42.28921" lon="1.79276">
        <ele>1501.321</ele>
        <time>2019-04-19T09:52:14Z</time>
      </trkpt>
      <trkpt lat="42.28919" lon="1.79261">
        <ele>1497.908</ele>
        <time>2019-04-19T09:52:30Z</time>
      </trkpt>
      <trkpt lat="42.28917" lon="1.79253">
        <ele>1495.536</ele>
        <time>2019-04-19T09:52:48Z</time>
      </trkpt>
      <trkpt lat="42.28916" lon="1.79243">
        <ele>1492.638</ele>
        <time>2019-04-19T09:52:58Z</time>
      </trkpt>
      <trkpt lat="42.28911" lon="1.79237">
        <ele>1488.787</ele>
        <time>2019-04-19T09:53:06Z</time>
      </trkpt>
      <trkpt lat="42.2891" lon="1.79237">
        <ele>1488.885</ele>
        <time>2019-04-19T09:53:07Z</time>
      </trkpt>
      <trkpt lat="42.28895" lon="1.7923">
        <ele>1484.921</ele>
        <time>2019-04-19T09:53:15Z</time>
      </trkpt>
      <trkpt lat="42.28882" lon="1.79231">
        <ele>1481.594</ele>
        <time>2019-04-19T09:53:24Z</time>
      </trkpt>
      <trkpt lat="42.28873" lon="1.79233">
        <ele>1480.537</ele>
        <time>2019-04-19T09:53:36Z</time>
      </trkpt>
      <trkpt lat="42.28863" lon="1.79225">
        <ele>1480.09</ele>
        <time>2019-04-19T09:53:44Z</time>
      </trkpt>
      <trkpt lat="42.28851" lon="1.79223">
        <ele>1479.129</ele>
        <time>2019-04-19T09:53:55Z</time>
      </trkpt>
      <trkpt lat="42.28843" lon="1.79212">
        <ele>1477.2</ele>
        <time>2019-04-19T09:54:02Z</time>
      </trkpt>
      <trkpt lat="42.28831" lon="1.79202">
        <ele>1473.92</ele>
        <time>2019-04-19T09:54:11Z</time>
      </trkpt>
      <trkpt lat="42.28825" lon="1.79196">
        <ele>1470.508</ele>
        <time>2019-04-19T09:54:20Z</time>
      </trkpt>
      <trkpt lat="42.28817" lon="1.7919">
        <ele>1467.245</ele>
        <time>2019-04-19T09:54:29Z</time>
      </trkpt>
      <trkpt lat="42.28811" lon="1.7919">
        <ele>1464.337</ele>
        <time>2019-04-19T09:54:40Z</time>
      </trkpt>
      <trkpt lat="42.28812" lon="1.792">
        <ele>1464.386</ele>
        <time>2019-04-19T09:55:01Z</time>
      </trkpt>
      <trkpt lat="42.28813" lon="1.79207">
        <ele>1460.814</ele>
        <time>2019-04-19T09:55:13Z</time>
      </trkpt>
      <trkpt lat="42.28814" lon="1.79218">
        <ele>1457.99</ele>
        <time>2019-04-19T09:55:26Z</time>
      </trkpt>
      <trkpt lat="42.28808" lon="1.79218">
        <ele>1455.013</ele>
        <time>2019-04-19T09:55:33Z</time>
      </trkpt>
      <trkpt lat="42.28803" lon="1.79216">
        <ele>1451.796</ele>
        <time>2019-04-19T09:55:41Z</time>
      </trkpt>
      <trkpt lat="42.28799" lon="1.79211">
        <ele>1448.489</ele>
        <time>2019-04-19T09:55:48Z</time>
      </trkpt>
      <trkpt lat="42.28791" lon="1.792">
        <ele>1445.449</ele>
        <time>2019-04-19T09:55:56Z</time>
      </trkpt>
      <trkpt lat="42.28791" lon="1.79198">
        <ele>1444.502</ele>
        <time>2019-04-19T09:55:58Z</time>
      </trkpt>
      <trkpt lat="42.28786" lon="1.79191">
        <ele>1441.122</ele>
        <time>2019-04-19T09:56:06Z</time>
      </trkpt>
      <trkpt lat="42.28783" lon="1.79185">
        <ele>1438.208</ele>
        <time>2019-04-19T09:56:13Z</time>
      </trkpt>
      <trkpt lat="42.28779" lon="1.79172">
        <ele>1435.077</ele>
        <time>2019-04-19T09:56:22Z</time>
      </trkpt>
      <trkpt lat="42.2878" lon="1.79171">
        <ele>1434.959</ele>
        <time>2019-04-19T09:56:23Z</time>
      </trkpt>
      <trkpt lat="42.28768" lon="1.79166">
        <ele>1431.638</ele>
        <time>2019-04-19T09:56:30Z</time>
      </trkpt>
      <trkpt lat="42.28755" lon="1.79167">
        <ele>1428.246</ele>
        <time>2019-04-19T09:56:40Z</time>
      </trkpt>
      <trkpt lat="42.28757" lon="1.79169">
        <ele>1424.322</ele>
        <time>2019-04-19T09:56:47Z</time>
      </trkpt>
      <trkpt lat="42.28758" lon="1.79178">
        <ele>1421.595</ele>
        <time>2019-04-19T09:56:55Z</time>
      </trkpt>
      <trkpt lat="42.28757" lon="1.79184">
        <ele>1420.958</ele>
        <time>2019-04-19T09:56:59Z</time>
      </trkpt>
      <trkpt lat="42.2875" lon="1.79198">
        <ele>1418.061</ele>
        <time>2019-04-19T09:57:10Z</time>
      </trkpt>
      <trkpt lat="42.28749" lon="1.79195">
        <ele>1416.613</ele>
        <time>2019-04-19T09:57:13Z</time>
      </trkpt>
      <trkpt lat="42.28748" lon="1.79183">
        <ele>1412.743</ele>
        <time>2019-04-19T09:57:21Z</time>
      </trkpt>
      <trkpt lat="42.28748" lon="1.79181">
        <ele>1412.407</ele>
        <time>2019-04-19T09:57:23Z</time>
      </trkpt>
      <trkpt lat="42.28743" lon="1.79173">
        <ele>1409.408</ele>
        <time>2019-04-19T09:57:32Z</time>
      </trkpt>
      <trkpt lat="42.2874" lon="1.79166">
        <ele>1407.974</ele>
        <time>2019-04-19T09:57:36Z</time>
      </trkpt>
      <trkpt lat="42.28736" lon="1.7916">
        <ele>1404.686</ele>
        <time>2019-04-19T09:57:42Z</time>
      </trkpt>
      <trkpt lat="42.28731" lon="1.79156">
        <ele>1401.835</ele>
        <time>2019-04-19T09:57:51Z</time>
      </trkpt>
      <trkpt lat="42.2873" lon="1.79156">
        <ele>1400.723</ele>
        <time>2019-04-19T09:57:52Z</time>
      </trkpt>
      <trkpt lat="42.28721" lon="1.79149">
        <ele>1397.839</ele>
        <time>2019-04-19T09:58:01Z</time>
      </trkpt>
      <trkpt lat="42.28707" lon="1.79142">
        <ele>1395.972</ele>
        <time>2019-04-19T09:58:11Z</time>
      </trkpt>
      <trkpt lat="42.28697" lon="1.79136">
        <ele>1392.635</ele>
        <time>2019-04-19T09:58:20Z</time>
      </trkpt>
      <trkpt lat="42.28689" lon="1.79136">
        <ele>1390.258</ele>
        <time>2019-04-19T09:58:29Z</time>
      </trkpt>
      <trkpt lat="42.28673" lon="1.79129">
        <ele>1388.227</ele>
        <time>2019-04-19T09:58:41Z</time>
      </trkpt>
      <trkpt lat="42.28666" lon="1.79128">
        <ele>1385.468</ele>
        <time>2019-04-19T09:58:49Z</time>
      </trkpt>
      <trkpt lat="42.28662" lon="1.79124">
        <ele>1381.614</ele>
        <time>2019-04-19T09:58:58Z</time>
      </trkpt>
      <trkpt lat="42.28658" lon="1.79118">
        <ele>1378.708</ele>
        <time>2019-04-19T09:59:11Z</time>
      </trkpt>
      <trkpt lat="42.28657" lon="1.79115">
        <ele>1376.855</ele>
        <time>2019-04-19T09:59:16Z</time>
      </trkpt>
      <trkpt lat="42.28653" lon="1.79104">
        <ele>1375.757</ele>
        <time>2019-04-19T09:59:34Z</time>
      </trkpt>
      <trkpt lat="42.28654" lon="1.79114">
        <ele>1375.466</ele>
        <time>2019-04-19T09:59:58Z</time>
      </trkpt>
      <trkpt lat="42.28648" lon="1.79105">
        <ele>1375.314</ele>
        <time>2019-04-19T10:00:20Z</time>
      </trkpt>
      <trkpt lat="42.28652" lon="1.79102">
        <ele>1374.98</ele>
        <time>2019-04-19T10:00:49Z</time>
      </trkpt>
      <trkpt lat="42.28647" lon="1.79099">
        <ele>1372.473</ele>
        <time>2019-04-19T10:00:59Z</time>
      </trkpt>
      <trkpt lat="42.28643" lon="1.79099">
        <ele>1370.176</ele>
        <time>2019-04-19T10:01:09Z</time>
      </trkpt>
      <trkpt lat="42.28639" lon="1.79098">
        <ele>1366.619</ele>
        <time>2019-04-19T10:01:20Z</time>
      </trkpt>
      <trkpt lat="42.28632" lon="1.79099">
        <ele>1364.772</ele>
        <time>2019-04-19T10:01:31Z</time>
      </trkpt>
      <trkpt lat="42.28625" lon="1.79101">
        <ele>1361.313</ele>
        <time>2019-04-19T10:01:41Z</time>
      </trkpt>
      <trkpt lat="42.28624" lon="1.79103">
        <ele>1360.814</ele>
        <time>2019-04-19T10:01:43Z</time>
      </trkpt>
      <trkpt lat="42.28617" lon="1.79102">
        <ele>1357.608</ele>
        <time>2019-04-19T10:01:52Z</time>
      </trkpt>
      <trkpt lat="42.28613" lon="1.79104">
        <ele>1355.64</ele>
        <time>2019-04-19T10:01:59Z</time>
      </trkpt>
      <trkpt lat="42.28608" lon="1.79102">
        <ele>1352.342</ele>
        <time>2019-04-19T10:02:06Z</time>
      </trkpt>
      <trkpt lat="42.28602" lon="1.79103">
        <ele>1348.991</ele>
        <time>2019-04-19T10:02:14Z</time>
      </trkpt>
      <trkpt lat="42.28597" lon="1.79101">
        <ele>1347.499</ele>
        <time>2019-04-19T10:02:18Z</time>
      </trkpt>
      <trkpt lat="42.28587" lon="1.79104">
        <ele>1344.165</ele>
        <time>2019-04-19T10:02:27Z</time>
      </trkpt>
      <trkpt lat="42.2857" lon="1.7909">
        <ele>1341.168</ele>
        <time>2019-04-19T10:02:35Z</time>
      </trkpt>
      <trkpt lat="42.28563" lon="1.79092">
        <ele>1338.251</ele>
        <time>2019-04-19T10:02:42Z</time>
      </trkpt>
      <trkpt lat="42.28564" lon="1.79093">
        <ele>1337.474</ele>
        <time>2019-04-19T10:02:43Z</time>
      </trkpt>
      <trkpt lat="42.28556" lon="1.79096">
        <ele>1333.432</ele>
        <time>2019-04-19T10:02:53Z</time>
      </trkpt>
      <trkpt lat="42.28554" lon="1.79096">
        <ele>1333.492</ele>
        <time>2019-04-19T10:02:54Z</time>
      </trkpt>
      <trkpt lat="42.28546" lon="1.79102">
        <ele>1329.711</ele>
        <time>2019-04-19T10:03:05Z</time>
      </trkpt>
      <trkpt lat="42.2854" lon="1.79108">
        <ele>1326.808</ele>
        <time>2019-04-19T10:03:15Z</time>
      </trkpt>
      <trkpt lat="42.2853" lon="1.79121">
        <ele>1323.356</ele>
        <time>2019-04-19T10:03:23Z</time>
      </trkpt>
      <trkpt lat="42.2852" lon="1.79126">
        <ele>1320.168</ele>
        <time>2019-04-19T10:03:33Z</time>
      </trkpt>
      <trkpt lat="42.28517" lon="1.79133">
        <ele>1316.777</ele>
        <time>2019-04-19T10:03:45Z</time>
      </trkpt>
      <trkpt lat="42.28508" lon="1.79125">
        <ele>1313.495</ele>
        <time>2019-04-19T10:03:55Z</time>
      </trkpt>
      <trkpt lat="42.28492" lon="1.79109">
        <ele>1309.911</ele>
        <time>2019-04-19T10:04:06Z</time>
      </trkpt>
      <trkpt lat="42.28483" lon="1.791">
        <ele>1307.184</ele>
        <time>2019-04-19T10:04:17Z</time>
      </trkpt>
      <trkpt lat="42.28478" lon="1.7909">
        <ele>1304.287</ele>
        <time>2019-04-19T10:04:33Z</time>
      </trkpt>
      <trkpt lat="42.28477" lon="1.79084">
        <ele>1304.75</ele>
        <time>2019-04-19T10:04:52Z</time>
      </trkpt>
      <trkpt lat="42.28471" lon="1.79075">
        <ele>1303.661</ele>
        <time>2019-04-19T10:05:17Z</time>
      </trkpt>
      <trkpt lat="42.28463" lon="1.79082">
        <ele>1300.321</ele>
        <time>2019-04-19T10:05:28Z</time>
      </trkpt>
      <trkpt lat="42.28459" lon="1.79088">
        <ele>1298.813</ele>
        <time>2019-04-19T10:05:42Z</time>
      </trkpt>
      <trkpt lat="42.28457" lon="1.79094">
        <ele>1297.008</ele>
        <time>2019-04-19T10:05:56Z</time>
      </trkpt>
      <trkpt lat="42.28448" lon="1.79098">
        <ele>1295.669</ele>
        <time>2019-04-19T10:06:09Z</time>
      </trkpt>
      <trkpt lat="42.28439" lon="1.79113">
        <ele>1293.211</ele>
        <time>2019-04-19T10:06:22Z</time>
      </trkpt>
      <trkpt lat="42.28436" lon="1.79105">
        <ele>1289.77</ele>
        <time>2019-04-19T10:06:34Z</time>
      </trkpt>
      <trkpt lat="42.28432" lon="1.79104">
        <ele>1287.988</ele>
        <time>2019-04-19T10:06:45Z</time>
      </trkpt>
      <trkpt lat="42.2843" lon="1.79105">
        <ele>1286.344</ele>
        <time>2019-04-19T10:06:49Z</time>
      </trkpt>
      <trkpt lat="42.28421" lon="1.79106">
        <ele>1285.517</ele>
        <time>2019-04-19T10:07:02Z</time>
      </trkpt>
      <trkpt lat="42.28416" lon="1.79109">
        <ele>1285.54</ele>
        <time>2019-04-19T10:07:08Z</time>
      </trkpt>
      <trkpt lat="42.28409" lon="1.7912">
        <ele>1283.633</ele>
        <time>2019-04-19T10:07:21Z</time>
      </trkpt>
      <trkpt lat="42.28403" lon="1.79124">
        <ele>1281.574</ele>
        <time>2019-04-19T10:07:28Z</time>
      </trkpt>
      <trkpt lat="42.28389" lon="1.79119">
        <ele>1277.756</ele>
        <time>2019-04-19T10:07:38Z</time>
      </trkpt>
      <trkpt lat="42.28377" lon="1.79111">
        <ele>1274.821</ele>
        <time>2019-04-19T10:07:46Z</time>
      </trkpt>
      <trkpt lat="42.28368" lon="1.79108">
        <ele>1271.508</ele>
        <time>2019-04-19T10:07:56Z</time>
      </trkpt>
      <trkpt lat="42.2836" lon="1.79103">
        <ele>1269.18</ele>
        <time>2019-04-19T10:08:05Z</time>
      </trkpt>
      <trkpt lat="42.28356" lon="1.79105">
        <ele>1265.792</ele>
        <time>2019-04-19T10:08:14Z</time>
      </trkpt>
      <trkpt lat="42.28345" lon="1.79108">
        <ele>1265.841</ele>
        <time>2019-04-19T10:08:26Z</time>
      </trkpt>
      <trkpt lat="42.28343" lon="1.79108">
        <ele>1267.229</ele>
        <time>2019-04-19T10:08:28Z</time>
      </trkpt>
      <trkpt lat="42.2834" lon="1.79108">
        <ele>1267.785</ele>
        <time>2019-04-19T10:08:30Z</time>
      </trkpt>
      <trkpt lat="42.28337" lon="1.79114">
        <ele>1266.768</ele>
        <time>2019-04-19T10:08:37Z</time>
      </trkpt>
      <trkpt lat="42.28329" lon="1.7912">
        <ele>1264.861</ele>
        <time>2019-04-19T10:08:49Z</time>
      </trkpt>
      <trkpt lat="42.28328" lon="1.79131">
        <ele>1263.884</ele>
        <time>2019-04-19T10:08:55Z</time>
      </trkpt>
      <trkpt lat="42.28327" lon="1.79138">
        <ele>1263.779</ele>
        <time>2019-04-19T10:08:58Z</time>
      </trkpt>
      <trkpt lat="42.28329" lon="1.79144">
        <ele>1263.305</ele>
        <time>2019-04-19T10:09:01Z</time>
      </trkpt>
      <trkpt lat="42.28319" lon="1.79148">
        <ele>1261.025</ele>
        <time>2019-04-19T10:09:12Z</time>
      </trkpt>
      <trkpt lat="42.28312" lon="1.79153">
        <ele>1258.008</ele>
        <time>2019-04-19T10:09:22Z</time>
      </trkpt>
      <trkpt lat="42.28302" lon="1.79142">
        <ele>1255.17</ele>
        <time>2019-04-19T10:09:31Z</time>
      </trkpt>
      <trkpt lat="42.28291" lon="1.79128">
        <ele>1253.312</ele>
        <time>2019-04-19T10:09:40Z</time>
      </trkpt>
      <trkpt lat="42.28291" lon="1.79118">
        <ele>1251.321</ele>
        <time>2019-04-19T10:09:53Z</time>
      </trkpt>
      <trkpt lat="42.28292" lon="1.79108">
        <ele>1249.449</ele>
        <time>2019-04-19T10:10:03Z</time>
      </trkpt>
      <trkpt lat="42.28298" lon="1.79096">
        <ele>1248.875</ele>
        <time>2019-04-19T10:10:13Z</time>
      </trkpt>
      <trkpt lat="42.28294" lon="1.79093">
        <ele>1246.018</ele>
        <time>2019-04-19T10:10:22Z</time>
      </trkpt>
      <trkpt lat="42.28278" lon="1.79086">
        <ele>1244.581</ele>
        <time>2019-04-19T10:10:34Z</time>
      </trkpt>
      <trkpt lat="42.28265" lon="1.7908">
        <ele>1243.724</ele>
        <time>2019-04-19T10:10:47Z</time>
      </trkpt>
      <trkpt lat="42.28244" lon="1.79074">
        <ele>1244.561</ele>
        <time>2019-04-19T10:11:01Z</time>
      </trkpt>
      <trkpt lat="42.28225" lon="1.79086">
        <ele>1244.021</ele>
        <time>2019-04-19T10:11:15Z</time>
      </trkpt>
      <trkpt lat="42.28218" lon="1.79081">
        <ele>1241.313</ele>
        <time>2019-04-19T10:11:26Z</time>
      </trkpt>
      <trkpt lat="42.28208" lon="1.79076">
        <ele>1238.408</ele>
        <time>2019-04-19T10:11:36Z</time>
      </trkpt>
      <trkpt lat="42.28198" lon="1.79072">
        <ele>1234.939</ele>
        <time>2019-04-19T10:11:47Z</time>
      </trkpt>
      <trkpt lat="42.28187" lon="1.79066">
        <ele>1232.191</ele>
        <time>2019-04-19T10:11:58Z</time>
      </trkpt>
      <trkpt lat="42.2818" lon="1.79049">
        <ele>1228.88</ele>
        <time>2019-04-19T10:12:09Z</time>
      </trkpt>
      <trkpt lat="42.28174" lon="1.79036">
        <ele>1225.388</ele>
        <time>2019-04-19T10:12:18Z</time>
      </trkpt>
      <trkpt lat="42.28165" lon="1.79025">
        <ele>1224.944</ele>
        <time>2019-04-19T10:12:35Z</time>
      </trkpt>
      <trkpt lat="42.28159" lon="1.79017">
        <ele>1224.027</ele>
        <time>2019-04-19T10:12:58Z</time>
      </trkpt>
      <trkpt lat="42.28154" lon="1.79011">
        <ele>1221.55</ele>
        <time>2019-04-19T10:13:09Z</time>
      </trkpt>
      <trkpt lat="42.28149" lon="1.79016">
        <ele>1221.043</ele>
        <time>2019-04-19T10:13:32Z</time>
      </trkpt>
      <trkpt lat="42.28143" lon="1.79023">
        <ele>1220.516</ele>
        <time>2019-04-19T10:13:57Z</time>
      </trkpt>
      <trkpt lat="42.28142" lon="1.79022">
        <ele>1218.176</ele>
        <time>2019-04-19T10:14:08Z</time>
      </trkpt>
      <trkpt lat="42.28136" lon="1.79021">
        <ele>1214.813</ele>
        <time>2019-04-19T10:14:18Z</time>
      </trkpt>
      <trkpt lat="42.2813" lon="1.79014">
        <ele>1211.408</ele>
        <time>2019-04-19T10:14:29Z</time>
      </trkpt>
      <trkpt lat="42.28129" lon="1.79014">
        <ele>1210.524</ele>
        <time>2019-04-19T10:14:31Z</time>
      </trkpt>
      <trkpt lat="42.28125" lon="1.79015">
        <ele>1207.646</ele>
        <time>2019-04-19T10:14:38Z</time>
      </trkpt>
      <trkpt lat="42.28118" lon="1.79006">
        <ele>1204.235</ele>
        <time>2019-04-19T10:14:48Z</time>
      </trkpt>
      <trkpt lat="42.28115" lon="1.79006">
        <ele>1202.773</ele>
        <time>2019-04-19T10:14:53Z</time>
      </trkpt>
      <trkpt lat="42.28109" lon="1.78999">
        <ele>1199.369</ele>
        <time>2019-04-19T10:15:01Z</time>
      </trkpt>
      <trkpt lat="42.28102" lon="1.78993">
        <ele>1196.692</ele>
        <time>2019-04-19T10:15:11Z</time>
      </trkpt>
      <trkpt lat="42.28095" lon="1.7899">
        <ele>1193.645</ele>
        <time>2019-04-19T10:15:20Z</time>
      </trkpt>
      <trkpt lat="42.28085" lon="1.78984">
        <ele>1189.868</ele>
        <time>2019-04-19T10:15:31Z</time>
      </trkpt>
      <trkpt lat="42.28081" lon="1.78981">
        <ele>1187.328</ele>
        <time>2019-04-19T10:15:41Z</time>
      </trkpt>
      <trkpt lat="42.28079" lon="1.7898">
        <ele>1184.989</ele>
        <time>2019-04-19T10:15:46Z</time>
      </trkpt>
      <trkpt lat="42.28074" lon="1.78977">
        <ele>1182.017</ele>
        <time>2019-04-19T10:15:57Z</time>
      </trkpt>
      <trkpt lat="42.28067" lon="1.78971">
        <ele>1178.708</ele>
        <time>2019-04-19T10:16:07Z</time>
      </trkpt>
      <trkpt lat="42.28057" lon="1.78959">
        <ele>1175.345</ele>
        <time>2019-04-19T10:16:17Z</time>
      </trkpt>
      <trkpt lat="42.28056" lon="1.7895">
        <ele>1174.927</ele>
        <time>2019-04-19T10:16:27Z</time>
      </trkpt>
      <trkpt lat="42.28055" lon="1.78941">
        <ele>1172.936</ele>
        <time>2019-04-19T10:16:43Z</time>
      </trkpt>
      <trkpt lat="42.28041" lon="1.78954">
        <ele>1170.674</ele>
        <time>2019-04-19T10:16:54Z</time>
      </trkpt>
      <trkpt lat="42.28033" lon="1.78953">
        <ele>1169.28</ele>
        <time>2019-04-19T10:16:59Z</time>
      </trkpt>
      <trkpt lat="42.2801" lon="1.78944">
        <ele>1168.243</ele>
        <time>2019-04-19T10:17:12Z</time>
      </trkpt>
      <trkpt lat="42.28" lon="1.78936">
        <ele>1169.676</ele>
        <time>2019-04-19T10:17:21Z</time>
      </trkpt>
      <trkpt lat="42.27999" lon="1.7894">
        <ele>1168.269</ele>
        <time>2019-04-19T10:17:27Z</time>
      </trkpt>
      <trkpt lat="42.27994" lon="1.78944">
        <ele>1166.286</ele>
        <time>2019-04-19T10:17:38Z</time>
      </trkpt>
      <trkpt lat="42.27993" lon="1.78946">
        <ele>1163.36</ele>
        <time>2019-04-19T10:17:46Z</time>
      </trkpt>
      <trkpt lat="42.27981" lon="1.78942">
        <ele>1159.926</ele>
        <time>2019-04-19T10:17:58Z</time>
      </trkpt>
      <trkpt lat="42.27977" lon="1.78939">
        <ele>1159.408</ele>
        <time>2019-04-19T10:18:03Z</time>
      </trkpt>
      <trkpt lat="42.27964" lon="1.78934">
        <ele>1156.171</ele>
        <time>2019-04-19T10:18:14Z</time>
      </trkpt>
      <trkpt lat="42.27961" lon="1.78942">
        <ele>1152.843</ele>
        <time>2019-04-19T10:18:26Z</time>
      </trkpt>
      <trkpt lat="42.27961" lon="1.78946">
        <ele>1149.962</ele>
        <time>2019-04-19T10:18:42Z</time>
      </trkpt>
      <trkpt lat="42.27955" lon="1.78954">
        <ele>1147.48</ele>
        <time>2019-04-19T10:18:53Z</time>
      </trkpt>
      <trkpt lat="42.27955" lon="1.78961">
        <ele>1146.116</ele>
        <time>2019-04-19T10:19:06Z</time>
      </trkpt>
      <trkpt lat="42.27955" lon="1.7895">
        <ele>1145.589</ele>
        <time>2019-04-19T10:19:30Z</time>
      </trkpt>
      <trkpt lat="42.27959" lon="1.78949">
        <ele>1145.122</ele>
        <time>2019-04-19T10:20:05Z</time>
      </trkpt>
      <trkpt lat="42.27954" lon="1.78948">
        <ele>1145.155</ele>
        <time>2019-04-19T10:20:30Z</time>
      </trkpt>
      <trkpt lat="42.27948" lon="1.7895">
        <ele>1144.578</ele>
        <time>2019-04-19T10:21:01Z</time>
      </trkpt>
      <trkpt lat="42.27933" lon="1.78953">
        <ele>1144.133</ele>
        <time>2019-04-19T10:21:13Z</time>
      </trkpt>
      <trkpt lat="42.27923" lon="1.78955">
        <ele>1142.226</ele>
        <time>2019-04-19T10:21:25Z</time>
      </trkpt>
      <trkpt lat="42.27914" lon="1.78954">
        <ele>1139.808</ele>
        <time>2019-04-19T10:21:37Z</time>
      </trkpt>
      <trkpt lat="42.27905" lon="1.78954">
        <ele>1136.92</ele>
        <time>2019-04-19T10:21:48Z</time>
      </trkpt>
      <trkpt lat="42.2789" lon="1.78952">
        <ele>1135.042</ele>
        <time>2019-04-19T10:21:58Z</time>
      </trkpt>
      <trkpt lat="42.27877" lon="1.78955">
        <ele>1134.011</ele>
        <time>2019-04-19T10:22:08Z</time>
      </trkpt>
      <trkpt lat="42.27871" lon="1.78959">
        <ele>1132.079</ele>
        <time>2019-04-19T10:22:14Z</time>
      </trkpt>
      <trkpt lat="42.27858" lon="1.78963">
        <ele>1128.815</ele>
        <time>2019-04-19T10:22:23Z</time>
      </trkpt>
      <trkpt lat="42.27852" lon="1.78963">
        <ele>1125.418</ele>
        <time>2019-04-19T10:22:31Z</time>
      </trkpt>
      <trkpt lat="42.27844" lon="1.78951">
        <ele>1124.021</ele>
        <time>2019-04-19T10:22:42Z</time>
      </trkpt>
      <trkpt lat="42.2783" lon="1.78939">
        <ele>1120.684</ele>
        <time>2019-04-19T10:22:55Z</time>
      </trkpt>
      <trkpt lat="42.27813" lon="1.78981">
        <ele>1118.155</ele>
        <time>2019-04-19T10:23:11Z</time>
      </trkpt>
      <trkpt lat="42.27808" lon="1.78978">
        <ele>1118.107</ele>
        <time>2019-04-19T10:23:16Z</time>
      </trkpt>
      <trkpt lat="42.27799" lon="1.7898">
        <ele>1117.617</ele>
        <time>2019-04-19T10:23:31Z</time>
      </trkpt>
      <trkpt lat="42.27794" lon="1.78973">
        <ele>1119.108</ele>
        <time>2019-04-19T10:23:35Z</time>
      </trkpt>
      <trkpt lat="42.27787" lon="1.78981">
        <ele>1119.588</ele>
        <time>2019-04-19T10:23:46Z</time>
      </trkpt>
      <trkpt lat="42.27759" lon="1.78939">
        <ele>1120.12</ele>
        <time>2019-04-19T10:23:59Z</time>
      </trkpt>
      <trkpt lat="42.27756" lon="1.78938">
        <ele>1120.049</ele>
        <time>2019-04-19T10:24:06Z</time>
      </trkpt>
      <trkpt lat="42.27747" lon="1.78935">
        <ele>1120.027</ele>
        <time>2019-04-19T10:24:15Z</time>
      </trkpt>
      <trkpt lat="42.27728" lon="1.78917">
        <ele>1123.023</ele>
        <time>2019-04-19T10:24:29Z</time>
      </trkpt>
      <trkpt lat="42.27722" lon="1.78919">
        <ele>1121.666</ele>
        <time>2019-04-19T10:24:35Z</time>
      </trkpt>
      <trkpt lat="42.27718" lon="1.78921">
        <ele>1118.739</ele>
        <time>2019-04-19T10:24:43Z</time>
      </trkpt>
      <trkpt lat="42.27713" lon="1.78923">
        <ele>1115.392</ele>
        <time>2019-04-19T10:24:52Z</time>
      </trkpt>
      <trkpt lat="42.27705" lon="1.78922">
        <ele>1113.358</ele>
        <time>2019-04-19T10:25:07Z</time>
      </trkpt>
      <trkpt lat="42.27704" lon="1.78923">
        <ele>1111.952</ele>
        <time>2019-04-19T10:25:09Z</time>
      </trkpt>
      <trkpt lat="42.27696" lon="1.78931">
        <ele>1108.017</ele>
        <time>2019-04-19T10:25:19Z</time>
      </trkpt>
      <trkpt lat="42.27692" lon="1.7893">
        <ele>1105.208</ele>
        <time>2019-04-19T10:25:27Z</time>
      </trkpt>
      <trkpt lat="42.27684" lon="1.78937">
        <ele>1102.338</ele>
        <time>2019-04-19T10:25:38Z</time>
      </trkpt>
      <trkpt lat="42.27672" lon="1.78951">
        <ele>1099.57</ele>
        <time>2019-04-19T10:25:54Z</time>
      </trkpt>
      <trkpt lat="42.27665" lon="1.78957">
        <ele>1097.519</ele>
        <time>2019-04-19T10:25:59Z</time>
      </trkpt>
      <trkpt lat="42.27659" lon="1.78958">
        <ele>1097.017</ele>
        <time>2019-04-19T10:26:10Z</time>
      </trkpt>
      <trkpt lat="42.27655" lon="1.78958">
        <ele>1097.993</ele>
        <time>2019-04-19T10:26:16Z</time>
      </trkpt>
      <trkpt lat="42.27653" lon="1.78961">
        <ele>1098.446</ele>
        <time>2019-04-19T10:26:19Z</time>
      </trkpt>
      <trkpt lat="42.27642" lon="1.7896">
        <ele>1096.569</ele>
        <time>2019-04-19T10:26:32Z</time>
      </trkpt>
      <trkpt lat="42.27634" lon="1.78962">
        <ele>1094.252</ele>
        <time>2019-04-19T10:26:42Z</time>
      </trkpt>
      <trkpt lat="42.27623" lon="1.78963">
        <ele>1093.143</ele>
        <time>2019-04-19T10:26:54Z</time>
      </trkpt>
      <trkpt lat="42.27614" lon="1.78961">
        <ele>1090.764</ele>
        <time>2019-04-19T10:27:04Z</time>
      </trkpt>
      <trkpt lat="42.27598" lon="1.78949">
        <ele>1087.31</ele>
        <time>2019-04-19T10:27:15Z</time>
      </trkpt>
      <trkpt lat="42.27581" lon="1.78933">
        <ele>1088.808</ele>
        <time>2019-04-19T10:27:27Z</time>
      </trkpt>
      <trkpt lat="42.27581" lon="1.78933">
        <ele>1088.867</ele>
        <time>2019-04-19T10:27:28Z</time>
      </trkpt>
      <trkpt lat="42.27571" lon="1.78943">
        <ele>1088.889</ele>
        <time>2019-04-19T10:27:46Z</time>
      </trkpt>
      <trkpt lat="42.27565" lon="1.78945">
        <ele>1088.928</ele>
        <time>2019-04-19T10:27:52Z</time>
      </trkpt>
      <trkpt lat="42.27564" lon="1.78951">
        <ele>1088.966</ele>
        <time>2019-04-19T10:27:56Z</time>
      </trkpt>
      <trkpt lat="42.2756" lon="1.7895">
        <ele>1087.322</ele>
        <time>2019-04-19T10:28:00Z</time>
      </trkpt>
      <trkpt lat="42.27541" lon="1.78946">
        <ele>1084.915</ele>
        <time>2019-04-19T10:28:12Z</time>
      </trkpt>
      <trkpt lat="42.27531" lon="1.7896">
        <ele>1083.678</ele>
        <time>2019-04-19T10:28:25Z</time>
      </trkpt>
      <trkpt lat="42.2753" lon="1.78961">
        <ele>1083.091</ele>
        <time>2019-04-19T10:28:26Z</time>
      </trkpt>
      <trkpt lat="42.27508" lon="1.78936">
        <ele>1081.121</ele>
        <time>2019-04-19T10:28:37Z</time>
      </trkpt>
      <trkpt lat="42.27492" lon="1.78937">
        <ele>1079.241</ele>
        <time>2019-04-19T10:28:49Z</time>
      </trkpt>
      <trkpt lat="42.27482" lon="1.78936">
        <ele>1078.705</ele>
        <time>2019-04-19T10:28:56Z</time>
      </trkpt>
      <trkpt lat="42.27465" lon="1.78943">
        <ele>1075.908</ele>
        <time>2019-04-19T10:29:09Z</time>
      </trkpt>
      <trkpt lat="42.2745" lon="1.78949">
        <ele>1072.465</ele>
        <time>2019-04-19T10:29:21Z</time>
      </trkpt>
      <trkpt lat="42.2744" lon="1.78958">
        <ele>1071.537</ele>
        <time>2019-04-19T10:29:32Z</time>
      </trkpt>
      <trkpt lat="42.27431" lon="1.78973">
        <ele>1069.216</ele>
        <time>2019-04-19T10:29:44Z</time>
      </trkpt>
      <trkpt lat="42.27428" lon="1.78973">
        <ele>1068.284</ele>
        <time>2019-04-19T10:29:48Z</time>
      </trkpt>
      <trkpt lat="42.27424" lon="1.78965">
        <ele>1067.66</ele>
        <time>2019-04-19T10:29:51Z</time>
      </trkpt>
      <trkpt lat="42.27423" lon="1.78963">
        <ele>1067.653</ele>
        <time>2019-04-19T10:29:52Z</time>
      </trkpt>
      <trkpt lat="42.27412" lon="1.78942">
        <ele>1065.346</ele>
        <time>2019-04-19T10:30:05Z</time>
      </trkpt>
      <trkpt lat="42.274" lon="1.78934">
        <ele>1065.349</ele>
        <time>2019-04-19T10:30:28Z</time>
      </trkpt>
      <trkpt lat="42.27395" lon="1.7894">
        <ele>1063.884</ele>
        <time>2019-04-19T10:30:38Z</time>
      </trkpt>
      <trkpt lat="42.27376" lon="1.78943">
        <ele>1061.407</ele>
        <time>2019-04-19T10:30:52Z</time>
      </trkpt>
      <trkpt lat="42.27373" lon="1.78941">
        <ele>1061.017</ele>
        <time>2019-04-19T10:30:54Z</time>
      </trkpt>
      <trkpt lat="42.27365" lon="1.78943">
        <ele>1057.608</ele>
        <time>2019-04-19T10:31:03Z</time>
      </trkpt>
      <trkpt lat="42.27348" lon="1.7894">
        <ele>1054.251</ele>
        <time>2019-04-19T10:31:15Z</time>
      </trkpt>
      <trkpt lat="42.27335" lon="1.78938">
        <ele>1050.873</ele>
        <time>2019-04-19T10:31:27Z</time>
      </trkpt>
      <trkpt lat="42.2732" lon="1.78927">
        <ele>1048.512</ele>
        <time>2019-04-19T10:31:40Z</time>
      </trkpt>
      <trkpt lat="42.27308" lon="1.78925">
        <ele>1047.06</ele>
        <time>2019-04-19T10:31:51Z</time>
      </trkpt>
      <trkpt lat="42.273" lon="1.78923">
        <ele>1046.156</ele>
        <time>2019-04-19T10:32:05Z</time>
      </trkpt>
      <trkpt lat="42.27295" lon="1.78922">
        <ele>1044.289</ele>
        <time>2019-04-19T10:32:21Z</time>
      </trkpt>
      <trkpt lat="42.27283" lon="1.78908">
        <ele>1040.772</ele>
        <time>2019-04-19T10:32:35Z</time>
      </trkpt>
      <trkpt lat="42.27285" lon="1.78898">
        <ele>1037.975</ele>
        <time>2019-04-19T10:32:43Z</time>
      </trkpt>
      <trkpt lat="42.27282" lon="1.78874">
        <ele>1035.074</ele>
        <time>2019-04-19T10:32:55Z</time>
      </trkpt>
      <trkpt lat="42.27276" lon="1.78868">
        <ele>1031.156</ele>
        <time>2019-04-19T10:33:06Z</time>
      </trkpt>
      <trkpt lat="42.27263" lon="1.78866">
        <ele>1028.321</ele>
        <time>2019-04-19T10:33:18Z</time>
      </trkpt>
      <trkpt lat="42.27251" lon="1.78854">
        <ele>1024.408</ele>
        <time>2019-04-19T10:33:28Z</time>
      </trkpt>
      <trkpt lat="42.27235" lon="1.78844">
        <ele>1021.54</ele>
        <time>2019-04-19T10:33:39Z</time>
      </trkpt>
      <trkpt lat="42.2723" lon="1.78841">
        <ele>1019.682</ele>
        <time>2019-04-19T10:33:46Z</time>
      </trkpt>
      <trkpt lat="42.27218" lon="1.78827">
        <ele>1016.341</ele>
        <time>2019-04-19T10:33:53Z</time>
      </trkpt>
      <trkpt lat="42.27213" lon="1.78827">
        <ele>1013.979</ele>
        <time>2019-04-19T10:34:05Z</time>
      </trkpt>
      <trkpt lat="42.2721" lon="1.78817">
        <ele>1014.885</ele>
        <time>2019-04-19T10:34:18Z</time>
      </trkpt>
      <trkpt lat="42.27214" lon="1.78814">
        <ele>1015.378</ele>
        <time>2019-04-19T10:34:30Z</time>
      </trkpt>
      <trkpt lat="42.27211" lon="1.78804">
        <ele>1014.991</ele>
        <time>2019-04-19T10:34:45Z</time>
      </trkpt>
      <trkpt lat="42.27205" lon="1.78797">
        <ele>1011.464</ele>
        <time>2019-04-19T10:34:55Z</time>
      </trkpt>
      <trkpt lat="42.27197" lon="1.78795">
        <ele>1008.529</ele>
        <time>2019-04-19T10:35:03Z</time>
      </trkpt>
      <trkpt lat="42.27189" lon="1.78794">
        <ele>1008.5</ele>
        <time>2019-04-19T10:35:14Z</time>
      </trkpt>
      <trkpt lat="42.27175" lon="1.78788">
        <ele>1010.12</ele>
        <time>2019-04-19T10:35:26Z</time>
      </trkpt>
      <trkpt lat="42.2716" lon="1.7878">
        <ele>1008.508</ele>
        <time>2019-04-19T10:35:37Z</time>
      </trkpt>
      <trkpt lat="42.27149" lon="1.78771">
        <ele>1006.255</ele>
        <time>2019-04-19T10:35:51Z</time>
      </trkpt>
      <trkpt lat="42.27141" lon="1.78768">
        <ele>1002.367</ele>
        <time>2019-04-19T10:36:00Z</time>
      </trkpt>
      <trkpt lat="42.27126" lon="1.78764">
        <ele>1000.936</ele>
        <time>2019-04-19T10:36:13Z</time>
      </trkpt>
      <trkpt lat="42.27131" lon="1.78764">
        <ele>1000.914</ele>
        <time>2019-04-19T10:36:33Z</time>
      </trkpt>
      <trkpt lat="42.27134" lon="1.78758">
        <ele>1000.81</ele>
        <time>2019-04-19T10:36:57Z</time>
      </trkpt>
      <trkpt lat="42.27135" lon="1.78756">
        <ele>1000.933</ele>
        <time>2019-04-19T10:37:12Z</time>
      </trkpt>
      <trkpt lat="42.27126" lon="1.78761">
        <ele>1000.956</ele>
        <time>2019-04-19T10:37:30Z</time>
      </trkpt>
      <trkpt lat="42.27131" lon="1.78766">
        <ele>1000.999</ele>
        <time>2019-04-19T10:37:57Z</time>
      </trkpt>
      <trkpt lat="42.27132" lon="1.78765">
        <ele>1000.888</ele>
        <time>2019-04-19T10:38:16Z</time>
      </trkpt>
      <trkpt lat="42.27133" lon="1.78769">
        <ele>999.924</ele>
        <time>2019-04-19T10:38:29Z</time>
      </trkpt>
      <trkpt lat="42.27137" lon="1.78772">
        <ele>999.026</ele>
        <time>2019-04-19T10:38:34Z</time>
      </trkpt>
      <trkpt lat="42.27137" lon="1.78775">
        <ele>998.508</ele>
        <time>2019-04-19T10:38:36Z</time>
      </trkpt>
      <trkpt lat="42.27128" lon="1.78793">
        <ele>997.921</ele>
        <time>2019-04-19T10:38:47Z</time>
      </trkpt>
      <trkpt lat="42.27121" lon="1.78798">
        <ele>998.063</ele>
        <time>2019-04-19T10:38:54Z</time>
      </trkpt>
      <trkpt lat="42.27117" lon="1.78799">
        <ele>998.022</ele>
        <time>2019-04-19T10:39:05Z</time>
      </trkpt>
      <trkpt lat="42.27122" lon="1.78796">
        <ele>997.97</ele>
        <time>2019-04-19T10:39:25Z</time>
      </trkpt>
      <trkpt lat="42.27118" lon="1.78798">
        <ele>998.036</ele>
        <time>2019-04-19T10:39:49Z</time>
      </trkpt>
      <trkpt lat="42.27116" lon="1.78801">
        <ele>998.969</ele>
        <time>2019-04-19T10:40:12Z</time>
      </trkpt>
      <trkpt lat="42.27113" lon="1.78806">
        <ele>999.082</ele>
        <time>2019-04-19T10:40:44Z</time>
      </trkpt>
      <trkpt lat="42.2711" lon="1.78806">
        <ele>998.935</ele>
        <time>2019-04-19T10:41:02Z</time>
      </trkpt>
      <trkpt lat="42.27107" lon="1.78799">
        <ele>999.432</ele>
        <time>2019-04-19T10:41:21Z</time>
      </trkpt>
      <trkpt lat="42.27102" lon="1.78798">
        <ele>999.992</ele>
        <time>2019-04-19T10:41:39Z</time>
      </trkpt>
      <trkpt lat="42.271" lon="1.78808">
        <ele>1001.411</ele>
        <time>2019-04-19T10:41:52Z</time>
      </trkpt>
      <trkpt lat="42.27093" lon="1.78818">
        <ele>1001.908</ele>
        <time>2019-04-19T10:42:04Z</time>
      </trkpt>
      <trkpt lat="42.27092" lon="1.7882">
        <ele>1001.926</ele>
        <time>2019-04-19T10:42:05Z</time>
      </trkpt>
      <trkpt lat="42.27085" lon="1.78833">
        <ele>1001.838</ele>
        <time>2019-04-19T10:42:15Z</time>
      </trkpt>
      <trkpt lat="42.27086" lon="1.78835">
        <ele>1001.817</ele>
        <time>2019-04-19T10:42:16Z</time>
      </trkpt>
      <trkpt lat="42.27087" lon="1.78855">
        <ele>1000.415</ele>
        <time>2019-04-19T10:42:28Z</time>
      </trkpt>
      <trkpt lat="42.27087" lon="1.78865">
        <ele>999.511</ele>
        <time>2019-04-19T10:42:34Z</time>
      </trkpt>
      <trkpt lat="42.27086" lon="1.78869">
        <ele>998.944</ele>
        <time>2019-04-19T10:42:36Z</time>
      </trkpt>
      <trkpt lat="42.27086" lon="1.78871">
        <ele>998.977</ele>
        <time>2019-04-19T10:42:37Z</time>
      </trkpt>
      <trkpt lat="42.27083" lon="1.78894">
        <ele>997.53</ele>
        <time>2019-04-19T10:42:48Z</time>
      </trkpt>
      <trkpt lat="42.27085" lon="1.78912">
        <ele>996.577</ele>
        <time>2019-04-19T10:42:56Z</time>
      </trkpt>
      <trkpt lat="42.27085" lon="1.78915">
        <ele>996.561</ele>
        <time>2019-04-19T10:42:57Z</time>
      </trkpt>
      <trkpt lat="42.27092" lon="1.78932">
        <ele>995.627</ele>
        <time>2019-04-19T10:43:10Z</time>
      </trkpt>
      <trkpt lat="42.27094" lon="1.78959">
        <ele>995.608</ele>
        <time>2019-04-19T10:43:22Z</time>
      </trkpt>
      <trkpt lat="42.2709" lon="1.78985">
        <ele>994.74</ele>
        <time>2019-04-19T10:43:31Z</time>
      </trkpt>
      <trkpt lat="42.27091" lon="1.78994">
        <ele>994.772</ele>
        <time>2019-04-19T10:43:38Z</time>
      </trkpt>
      <trkpt lat="42.27088" lon="1.79014">
        <ele>994.141</ele>
        <time>2019-04-19T10:43:53Z</time>
      </trkpt>
      <trkpt lat="42.2709" lon="1.79014">
        <ele>994.139</ele>
        <time>2019-04-19T10:44:11Z</time>
      </trkpt>
      <trkpt lat="42.27092" lon="1.79022">
        <ele>994.215</ele>
        <time>2019-04-19T10:44:33Z</time>
      </trkpt>
      <trkpt lat="42.27089" lon="1.79028">
        <ele>993.618</ele>
        <time>2019-04-19T10:44:56Z</time>
      </trkpt>
      <trkpt lat="42.27086" lon="1.79037">
        <ele>993.771</ele>
        <time>2019-04-19T10:45:07Z</time>
      </trkpt>
      <trkpt lat="42.27078" lon="1.79055">
        <ele>993.684</ele>
        <time>2019-04-19T10:45:20Z</time>
      </trkpt>
      <trkpt lat="42.2707" lon="1.79081">
        <ele>992.718</ele>
        <time>2019-04-19T10:45:33Z</time>
      </trkpt>
      <trkpt lat="42.27063" lon="1.79106">
        <ele>990.398</ele>
        <time>2019-04-19T10:45:45Z</time>
      </trkpt>
      <trkpt lat="42.27067" lon="1.79126">
        <ele>990.417</ele>
        <time>2019-04-19T10:45:56Z</time>
      </trkpt>
      <trkpt lat="42.27066" lon="1.79149">
        <ele>992.308</ele>
        <time>2019-04-19T10:46:08Z</time>
      </trkpt>
      <trkpt lat="42.27062" lon="1.79169">
        <ele>993.644</ele>
        <time>2019-04-19T10:46:19Z</time>
      </trkpt>
      <trkpt lat="42.2706" lon="1.79187">
        <ele>994.646</ele>
        <time>2019-04-19T10:46:33Z</time>
      </trkpt>
      <trkpt lat="42.27054" lon="1.79221">
        <ele>994.725</ele>
        <time>2019-04-19T10:46:48Z</time>
      </trkpt>
      <trkpt lat="42.27053" lon="1.79247">
        <ele>995.133</ele>
        <time>2019-04-19T10:47:04Z</time>
      </trkpt>
      <trkpt lat="42.27049" lon="1.7927">
        <ele>994.649</ele>
        <time>2019-04-19T10:47:16Z</time>
      </trkpt>
      <trkpt lat="42.27048" lon="1.79271">
        <ele>994.612</ele>
        <time>2019-04-19T10:47:17Z</time>
      </trkpt>
      <trkpt lat="42.27044" lon="1.79303">
        <ele>992.345</ele>
        <time>2019-04-19T10:47:32Z</time>
      </trkpt>
      <trkpt lat="42.27038" lon="1.79327">
        <ele>989.978</ele>
        <time>2019-04-19T10:47:47Z</time>
      </trkpt>
      <trkpt lat="42.27035" lon="1.79337">
        <ele>989.334</ele>
        <time>2019-04-19T10:47:52Z</time>
      </trkpt>
      <trkpt lat="42.27034" lon="1.79338">
        <ele>989.355</ele>
        <time>2019-04-19T10:47:53Z</time>
      </trkpt>
      <trkpt lat="42.27027" lon="1.79352">
        <ele>987.41</ele>
        <time>2019-04-19T10:48:07Z</time>
      </trkpt>
      <trkpt lat="42.27028" lon="1.79355">
        <ele>987.008</ele>
        <time>2019-04-19T10:48:24Z</time>
      </trkpt>
      <trkpt lat="42.27026" lon="1.79354">
        <ele>986.926</ele>
        <time>2019-04-19T10:48:57Z</time>
      </trkpt>
      <trkpt lat="42.27027" lon="1.79351">
        <ele>987.058</ele>
        <time>2019-04-19T10:49:12Z</time>
      </trkpt>
      <trkpt lat="42.27028" lon="1.79355">
        <ele>987.037</ele>
        <time>2019-04-19T10:49:32Z</time>
      </trkpt>
      <trkpt lat="42.27029" lon="1.79357">
        <ele>986.525</ele>
        <time>2019-04-19T10:49:49Z</time>
      </trkpt>
      <trkpt lat="42.2703" lon="1.79355">
        <ele>986.511</ele>
        <time>2019-04-19T10:50:07Z</time>
      </trkpt>
      <trkpt lat="42.27035" lon="1.79351">
        <ele>986.414</ele>
        <time>2019-04-19T10:50:30Z</time>
      </trkpt>
      <trkpt lat="42.27036" lon="1.7935">
        <ele>986.457</ele>
        <time>2019-04-19T10:50:53Z</time>
      </trkpt>
      <trkpt lat="42.27037" lon="1.7935">
        <ele>986.58</ele>
        <time>2019-04-19T10:51:23Z</time>
      </trkpt>
      <trkpt lat="42.27036" lon="1.79353">
        <ele>986.491</ele>
        <time>2019-04-19T10:51:50Z</time>
      </trkpt>
      <trkpt lat="42.27031" lon="1.79362">
        <ele>986.481</ele>
        <time>2019-04-19T10:52:13Z</time>
      </trkpt>
      <trkpt lat="42.2703" lon="1.79359">
        <ele>986.419</ele>
        <time>2019-04-19T10:52:30Z</time>
      </trkpt>
      <trkpt lat="42.27028" lon="1.79355">
        <ele>986.408</ele>
        <time>2019-04-19T10:52:48Z</time>
      </trkpt>
      <trkpt lat="42.27029" lon="1.79344">
        <ele>985.972</ele>
        <time>2019-04-19T10:53:06Z</time>
      </trkpt>
      <trkpt lat="42.27028" lon="1.79341">
        <ele>985.094</ele>
        <time>2019-04-19T10:53:08Z</time>
      </trkpt>
      <trkpt lat="42.2702" lon="1.79335">
        <ele>983.663</ele>
        <time>2019-04-19T10:53:14Z</time>
      </trkpt>
      <trkpt lat="42.27019" lon="1.79333">
        <ele>983.511</ele>
        <time>2019-04-19T10:53:15Z</time>
      </trkpt>
      <trkpt lat="42.27018" lon="1.79331">
        <ele>983.647</ele>
        <time>2019-04-19T10:53:16Z</time>
      </trkpt>
      <trkpt lat="42.27017" lon="1.79329">
        <ele>982.63</ele>
        <time>2019-04-19T10:53:17Z</time>
      </trkpt>
      <trkpt lat="42.27016" lon="1.79327">
        <ele>982.763</ele>
        <time>2019-04-19T10:53:18Z</time>
      </trkpt>
      <trkpt lat="42.27015" lon="1.79324">
        <ele>982.146</ele>
        <time>2019-04-19T10:53:19Z</time>
      </trkpt>
      <trkpt lat="42.27008" lon="1.79317">
        <ele>981.623</ele>
        <time>2019-04-19T10:53:24Z</time>
      </trkpt>
      <trkpt lat="42.27014" lon="1.7929">
        <ele>980.283</ele>
        <time>2019-04-19T10:53:36Z</time>
      </trkpt>
      <trkpt lat="42.27014" lon="1.79286">
        <ele>979.711</ele>
        <time>2019-04-19T10:53:39Z</time>
      </trkpt>
      <trkpt lat="42.27013" lon="1.79284">
        <ele>979.708</ele>
        <time>2019-04-19T10:53:41Z</time>
      </trkpt>
      <trkpt lat="42.27004" lon="1.7926">
        <ele>977.355</ele>
        <time>2019-04-19T10:53:53Z</time>
      </trkpt>
      <trkpt lat="42.27002" lon="1.79253">
        <ele>976.417</ele>
        <time>2019-04-19T10:53:57Z</time>
      </trkpt>
      <trkpt lat="42.26999" lon="1.79238">
        <ele>972.696</ele>
        <time>2019-04-19T10:54:08Z</time>
      </trkpt>
      <trkpt lat="42.27001" lon="1.79229">
        <ele>970.244</ele>
        <time>2019-04-19T10:54:15Z</time>
      </trkpt>
      <trkpt lat="42.26999" lon="1.79224">
        <ele>969.18</ele>
        <time>2019-04-19T10:54:18Z</time>
      </trkpt>
      <trkpt lat="42.26997" lon="1.79217">
        <ele>968.783</ele>
        <time>2019-04-19T10:54:22Z</time>
      </trkpt>
      <trkpt lat="42.26996" lon="1.79212">
        <ele>967.896</ele>
        <time>2019-04-19T10:54:25Z</time>
      </trkpt>
      <trkpt lat="42.26987" lon="1.79191">
        <ele>965.729</ele>
        <time>2019-04-19T10:54:36Z</time>
      </trkpt>
      <trkpt lat="42.26992" lon="1.7917">
        <ele>967.271</ele>
        <time>2019-04-19T10:54:49Z</time>
      </trkpt>
      <trkpt lat="42.26991" lon="1.79177">
        <ele>969.641</ele>
        <time>2019-04-19T10:55:03Z</time>
      </trkpt>
      <trkpt lat="42.26987" lon="1.79182">
        <ele>972.115</ele>
        <time>2019-04-19T10:55:13Z</time>
      </trkpt>
      <trkpt lat="42.26986" lon="1.79183">
        <ele>974.008</ele>
        <time>2019-04-19T10:55:25Z</time>
      </trkpt>
      <trkpt lat="42.26989" lon="1.79176">
        <ele>975.91</ele>
        <time>2019-04-19T10:55:39Z</time>
      </trkpt>
      <trkpt lat="42.26985" lon="1.79163">
        <ele>978.352</ele>
        <time>2019-04-19T10:55:54Z</time>
      </trkpt>
      <trkpt lat="42.26979" lon="1.79154">
        <ele>979.831</ele>
        <time>2019-04-19T10:56:04Z</time>
      </trkpt>
      <trkpt lat="42.2697" lon="1.79143">
        <ele>980.399</ele>
        <time>2019-04-19T10:56:15Z</time>
      </trkpt>
      <trkpt lat="42.26969" lon="1.79142">
        <ele>980.345</ele>
        <time>2019-04-19T10:56:16Z</time>
      </trkpt>
      <trkpt lat="42.26965" lon="1.79136">
        <ele>980.228</ele>
        <time>2019-04-19T10:56:21Z</time>
      </trkpt>
      <trkpt lat="42.26962" lon="1.79135">
        <ele>980.271</ele>
        <time>2019-04-19T10:56:23Z</time>
      </trkpt>
      <trkpt lat="42.26953" lon="1.79127">
        <ele>978.834</ele>
        <time>2019-04-19T10:56:33Z</time>
      </trkpt>
      <trkpt lat="42.26951" lon="1.79126">
        <ele>978.265</ele>
        <time>2019-04-19T10:56:34Z</time>
      </trkpt>
      <trkpt lat="42.26949" lon="1.79126">
        <ele>978.268</ele>
        <time>2019-04-19T10:56:35Z</time>
      </trkpt>
      <trkpt lat="42.26938" lon="1.7912">
        <ele>977.914</ele>
        <time>2019-04-19T10:56:47Z</time>
      </trkpt>
      <trkpt lat="42.26938" lon="1.79118">
        <ele>977.908</ele>
        <time>2019-04-19T10:56:53Z</time>
      </trkpt>
      <trkpt lat="42.26938" lon="1.79112">
        <ele>978.849</ele>
        <time>2019-04-19T10:57:00Z</time>
      </trkpt>
      <trkpt lat="42.26938" lon="1.79107">
        <ele>980.371</ele>
        <time>2019-04-19T10:57:06Z</time>
      </trkpt>
      <trkpt lat="42.26935" lon="1.79099">
        <ele>982.61</ele>
        <time>2019-04-19T10:57:17Z</time>
      </trkpt>
      <trkpt lat="42.26948" lon="1.79084">
        <ele>984.688</ele>
        <time>2019-04-19T10:57:27Z</time>
      </trkpt>
      <trkpt lat="42.26947" lon="1.79083">
        <ele>984.524</ele>
        <time>2019-04-19T10:57:28Z</time>
      </trkpt>
      <trkpt lat="42.26945" lon="1.79075">
        <ele>983.537</ele>
        <time>2019-04-19T10:57:38Z</time>
      </trkpt>
      <trkpt lat="42.26931" lon="1.79062">
        <ele>985.12</ele>
        <time>2019-04-19T10:57:50Z</time>
      </trkpt>
      <trkpt lat="42.26926" lon="1.79052">
        <ele>985.023</ele>
        <time>2019-04-19T10:58:04Z</time>
      </trkpt>
      <trkpt lat="42.26926" lon="1.79049">
        <ele>986.458</ele>
        <time>2019-04-19T10:58:17Z</time>
      </trkpt>
      <trkpt lat="42.2693" lon="1.79049">
        <ele>986.952</ele>
        <time>2019-04-19T10:58:30Z</time>
      </trkpt>
      <trkpt lat="42.26938" lon="1.79066">
        <ele>987.017</ele>
        <time>2019-04-19T10:58:50Z</time>
      </trkpt>
      <trkpt lat="42.26936" lon="1.7907">
        <ele>987.008</ele>
        <time>2019-04-19T10:59:07Z</time>
      </trkpt>
      <trkpt lat="42.26934" lon="1.7907">
        <ele>986.988</ele>
        <time>2019-04-19T10:59:23Z</time>
      </trkpt>
      <trkpt lat="42.26944" lon="1.79058">
        <ele>987.41</ele>
        <time>2019-04-19T10:59:45Z</time>
      </trkpt>
      <trkpt lat="42.26945" lon="1.79061">
        <ele>985.999</ele>
        <time>2019-04-19T10:59:49Z</time>
      </trkpt>
      <trkpt lat="42.26947" lon="1.79065">
        <ele>984.197</ele>
        <time>2019-04-19T11:00:06Z</time>
      </trkpt>
      <trkpt lat="42.26949" lon="1.79074">
        <ele>985.073</ele>
        <time>2019-04-19T11:00:20Z</time>
      </trkpt>
      <trkpt lat="42.26942" lon="1.79087">
        <ele>981.666</ele>
        <time>2019-04-19T11:00:32Z</time>
      </trkpt>
      <trkpt lat="42.26938" lon="1.79092">
        <ele>978.879</ele>
        <time>2019-04-19T11:00:41Z</time>
      </trkpt>
      <trkpt lat="42.26932" lon="1.79096">
        <ele>977.312</ele>
        <time>2019-04-19T11:00:52Z</time>
      </trkpt>
      <trkpt lat="42.26926" lon="1.79104">
        <ele>979.213</ele>
        <time>2019-04-19T11:01:03Z</time>
      </trkpt>
      <trkpt lat="42.26932" lon="1.7912">
        <ele>981.643</ele>
        <time>2019-04-19T11:01:16Z</time>
      </trkpt>
      <trkpt lat="42.26928" lon="1.79142">
        <ele>984.007</ele>
        <time>2019-04-19T11:01:29Z</time>
      </trkpt>
      <trkpt lat="42.26929" lon="1.7915">
        <ele>986.508</ele>
        <time>2019-04-19T11:01:41Z</time>
      </trkpt>
      <trkpt lat="42.26929" lon="1.79163">
        <ele>989.384</ele>
        <time>2019-04-19T11:01:55Z</time>
      </trkpt>
      <trkpt lat="42.26931" lon="1.79173">
        <ele>992.326</ele>
        <time>2019-04-19T11:02:09Z</time>
      </trkpt>
      <trkpt lat="42.26929" lon="1.79186">
        <ele>994.615</ele>
        <time>2019-04-19T11:02:22Z</time>
      </trkpt>
      <trkpt lat="42.26932" lon="1.79198">
        <ele>997.063</ele>
        <time>2019-04-19T11:02:33Z</time>
      </trkpt>
      <trkpt lat="42.26929" lon="1.79206">
        <ele>999.589</ele>
        <time>2019-04-19T11:02:46Z</time>
      </trkpt>
      <trkpt lat="42.26929" lon="1.79202">
        <ele>1001.322</ele>
        <time>2019-04-19T11:02:58Z</time>
      </trkpt>
      <trkpt lat="42.26925" lon="1.79196">
        <ele>1004.395</ele>
        <time>2019-04-19T11:03:11Z</time>
      </trkpt>
      <trkpt lat="42.26923" lon="1.79192">
        <ele>1006.298</ele>
        <time>2019-04-19T11:03:21Z</time>
      </trkpt>
      <trkpt lat="42.26921" lon="1.79186">
        <ele>1008.015</ele>
        <time>2019-04-19T11:03:35Z</time>
      </trkpt>
      <trkpt lat="42.26919" lon="1.79177">
        <ele>1010.965</ele>
        <time>2019-04-19T11:03:48Z</time>
      </trkpt>
      <trkpt lat="42.26918" lon="1.7917">
        <ele>1013.411</ele>
        <time>2019-04-19T11:04:02Z</time>
      </trkpt>
      <trkpt lat="42.26918" lon="1.79163">
        <ele>1015.208</ele>
        <time>2019-04-19T11:04:14Z</time>
      </trkpt>
      <trkpt lat="42.26918" lon="1.79157">
        <ele>1016.324</ele>
        <time>2019-04-19T11:04:25Z</time>
      </trkpt>
      <trkpt lat="42.26917" lon="1.79155">
        <ele>1015.756</ele>
        <time>2019-04-19T11:04:46Z</time>
      </trkpt>
      <trkpt lat="42.26918" lon="1.79147">
        <ele>1015.765</ele>
        <time>2019-04-19T11:05:09Z</time>
      </trkpt>
      <trkpt lat="42.26917" lon="1.79145">
        <ele>1015.783</ele>
        <time>2019-04-19T11:05:32Z</time>
      </trkpt>
      <trkpt lat="42.26908" lon="1.79142">
        <ele>1016.399</ele>
        <time>2019-04-19T11:05:42Z</time>
      </trkpt>
      <trkpt lat="42.26908" lon="1.79141">
        <ele>1016.342</ele>
        <time>2019-04-19T11:05:43Z</time>
      </trkpt>
      <trkpt lat="42.26892" lon="1.79136">
        <ele>1018.245</ele>
        <time>2019-04-19T11:05:57Z</time>
      </trkpt>
      <trkpt lat="42.26884" lon="1.79132">
        <ele>1019.248</ele>
        <time>2019-04-19T11:06:09Z</time>
      </trkpt>
      <trkpt lat="42.26883" lon="1.79119">
        <ele>1020.593</ele>
        <time>2019-04-19T11:06:21Z</time>
      </trkpt>
      <trkpt lat="42.26886" lon="1.79104">
        <ele>1021.065</ele>
        <time>2019-04-19T11:06:31Z</time>
      </trkpt>
      <trkpt lat="42.26884" lon="1.79086">
        <ele>1022.121</ele>
        <time>2019-04-19T11:06:41Z</time>
      </trkpt>
      <trkpt lat="42.26886" lon="1.79078">
        <ele>1022.908</ele>
        <time>2019-04-19T11:06:47Z</time>
      </trkpt>
      <trkpt lat="42.26896" lon="1.79062">
        <ele>1024.532</ele>
        <time>2019-04-19T11:06:58Z</time>
      </trkpt>
      <trkpt lat="42.26906" lon="1.79048">
        <ele>1026.964</ele>
        <time>2019-04-19T11:07:12Z</time>
      </trkpt>
      <trkpt lat="42.26903" lon="1.79037">
        <ele>1028.873</ele>
        <time>2019-04-19T11:07:23Z</time>
      </trkpt>
      <trkpt lat="42.26897" lon="1.79027">
        <ele>1029.721</ele>
        <time>2019-04-19T11:07:36Z</time>
      </trkpt>
      <trkpt lat="42.26887" lon="1.79012">
        <ele>1027.467</ele>
        <time>2019-04-19T11:07:48Z</time>
      </trkpt>
      <trkpt lat="42.2688" lon="1.79005">
        <ele>1027.44</ele>
        <time>2019-04-19T11:07:55Z</time>
      </trkpt>
      <trkpt lat="42.26871" lon="1.78997">
        <ele>1027.413</ele>
        <time>2019-04-19T11:08:05Z</time>
      </trkpt>
      <trkpt lat="42.26861" lon="1.78987">
        <ele>1026.966</ele>
        <time>2019-04-19T11:08:15Z</time>
      </trkpt>
      <trkpt lat="42.26855" lon="1.78982">
        <ele>1026.313</ele>
        <time>2019-04-19T11:08:24Z</time>
      </trkpt>
      <trkpt lat="42.26846" lon="1.78967">
        <ele>1025.843</ele>
        <time>2019-04-19T11:08:32Z</time>
      </trkpt>
      <trkpt lat="42.26841" lon="1.78951">
        <ele>1024.407</ele>
        <time>2019-04-19T11:08:45Z</time>
      </trkpt>
      <trkpt lat="42.26841" lon="1.78945">
        <ele>1027.308</ele>
        <time>2019-04-19T11:08:56Z</time>
      </trkpt>
      <trkpt lat="42.26837" lon="1.78934">
        <ele>1030.294</ele>
        <time>2019-04-19T11:09:10Z</time>
      </trkpt>
      <trkpt lat="42.26847" lon="1.78935">
        <ele>1032.626</ele>
        <time>2019-04-19T11:09:23Z</time>
      </trkpt>
      <trkpt lat="42.26859" lon="1.78927">
        <ele>1035.545</ele>
        <time>2019-04-19T11:09:36Z</time>
      </trkpt>
      <trkpt lat="42.26866" lon="1.7892">
        <ele>1037.913</ele>
        <time>2019-04-19T11:09:48Z</time>
      </trkpt>
      <trkpt lat="42.26867" lon="1.78911">
        <ele>1039.459</ele>
        <time>2019-04-19T11:10:00Z</time>
      </trkpt>
      <trkpt lat="42.2686" lon="1.78902">
        <ele>1041.872</ele>
        <time>2019-04-19T11:10:13Z</time>
      </trkpt>
      <trkpt lat="42.26852" lon="1.78905">
        <ele>1043.655</ele>
        <time>2019-04-19T11:10:25Z</time>
      </trkpt>
      <trkpt lat="42.26862" lon="1.78898">
        <ele>1046.658</ele>
        <time>2019-04-19T11:10:40Z</time>
      </trkpt>
      <trkpt lat="42.26861" lon="1.78893">
        <ele>1048.421</ele>
        <time>2019-04-19T11:10:52Z</time>
      </trkpt>
      <trkpt lat="42.26863" lon="1.78884">
        <ele>1051.341</ele>
        <time>2019-04-19T11:11:06Z</time>
      </trkpt>
      <trkpt lat="42.26864" lon="1.78876">
        <ele>1053.305</ele>
        <time>2019-04-19T11:11:17Z</time>
      </trkpt>
      <trkpt lat="42.26859" lon="1.78866">
        <ele>1056.208</ele>
        <time>2019-04-19T11:11:31Z</time>
      </trkpt>
      <trkpt lat="42.2685" lon="1.78855">
        <ele>1059.085</ele>
        <time>2019-04-19T11:11:45Z</time>
      </trkpt>
      <trkpt lat="42.26844" lon="1.7885">
        <ele>1061.997</ele>
        <time>2019-04-19T11:11:58Z</time>
      </trkpt>
      <trkpt lat="42.2684" lon="1.78843">
        <ele>1064.836</ele>
        <time>2019-04-19T11:12:12Z</time>
      </trkpt>
      <trkpt lat="42.26837" lon="1.78833">
        <ele>1067.734</ele>
        <time>2019-04-19T11:12:26Z</time>
      </trkpt>
      <trkpt lat="42.26828" lon="1.78821">
        <ele>1070.17</ele>
        <time>2019-04-19T11:12:42Z</time>
      </trkpt>
      <trkpt lat="42.26823" lon="1.78812">
        <ele>1072.913</ele>
        <time>2019-04-19T11:12:55Z</time>
      </trkpt>
      <trkpt lat="42.26819" lon="1.78805">
        <ele>1075.416</ele>
        <time>2019-04-19T11:13:06Z</time>
      </trkpt>
      <trkpt lat="42.26812" lon="1.788">
        <ele>1077.829</ele>
        <time>2019-04-19T11:13:21Z</time>
      </trkpt>
      <trkpt lat="42.26812" lon="1.78792">
        <ele>1079.725</ele>
        <time>2019-04-19T11:13:32Z</time>
      </trkpt>
      <trkpt lat="42.26813" lon="1.78783">
        <ele>1081.626</ele>
        <time>2019-04-19T11:13:43Z</time>
      </trkpt>
      <trkpt lat="42.26812" lon="1.78774">
        <ele>1084.008</ele>
        <time>2019-04-19T11:13:59Z</time>
      </trkpt>
      <trkpt lat="42.26809" lon="1.78758">
        <ele>1087.308</ele>
        <time>2019-04-19T11:14:14Z</time>
      </trkpt>
      <trkpt lat="42.26804" lon="1.78743">
        <ele>1088.975</ele>
        <time>2019-04-19T11:14:26Z</time>
      </trkpt>
      <trkpt lat="42.26802" lon="1.78734">
        <ele>1090.817</ele>
        <time>2019-04-19T11:14:37Z</time>
      </trkpt>
      <trkpt lat="42.268" lon="1.78726">
        <ele>1093.166</ele>
        <time>2019-04-19T11:14:47Z</time>
      </trkpt>
      <trkpt lat="42.26799" lon="1.78715">
        <ele>1095.024</ele>
        <time>2019-04-19T11:15:01Z</time>
      </trkpt>
      <trkpt lat="42.26798" lon="1.78704">
        <ele>1097.94</ele>
        <time>2019-04-19T11:15:13Z</time>
      </trkpt>
      <trkpt lat="42.26796" lon="1.78695">
        <ele>1100.423</ele>
        <time>2019-04-19T11:15:27Z</time>
      </trkpt>
      <trkpt lat="42.26797" lon="1.78687">
        <ele>1102.386</ele>
        <time>2019-04-19T11:15:38Z</time>
      </trkpt>
      <trkpt lat="42.26796" lon="1.78676">
        <ele>1105.719</ele>
        <time>2019-04-19T11:15:51Z</time>
      </trkpt>
      <trkpt lat="42.26795" lon="1.78668">
        <ele>1107.519</ele>
        <time>2019-04-19T11:16:03Z</time>
      </trkpt>
      <trkpt lat="42.26794" lon="1.78659">
        <ele>1109.909</ele>
        <time>2019-04-19T11:16:15Z</time>
      </trkpt>
      <trkpt lat="42.26793" lon="1.78649">
        <ele>1112.419</ele>
        <time>2019-04-19T11:16:29Z</time>
      </trkpt>
      <trkpt lat="42.2679" lon="1.7864">
        <ele>1115.308</ele>
        <time>2019-04-19T11:16:42Z</time>
      </trkpt>
      <trkpt lat="42.26792" lon="1.78624">
        <ele>1118.264</ele>
        <time>2019-04-19T11:16:54Z</time>
      </trkpt>
      <trkpt lat="42.26789" lon="1.78618">
        <ele>1120.186</ele>
        <time>2019-04-19T11:17:06Z</time>
      </trkpt>
      <trkpt lat="42.26787" lon="1.78616">
        <ele>1122.945</ele>
        <time>2019-04-19T11:17:18Z</time>
      </trkpt>
      <trkpt lat="42.2678" lon="1.78619">
        <ele>1126.483</ele>
        <time>2019-04-19T11:17:30Z</time>
      </trkpt>
      <trkpt lat="42.26775" lon="1.78614">
        <ele>1128.239</ele>
        <time>2019-04-19T11:17:45Z</time>
      </trkpt>
      <trkpt lat="42.2677" lon="1.786">
        <ele>1129.352</ele>
        <time>2019-04-19T11:17:57Z</time>
      </trkpt>
      <trkpt lat="42.2677" lon="1.78586">
        <ele>1130.615</ele>
        <time>2019-04-19T11:18:07Z</time>
      </trkpt>
      <trkpt lat="42.26768" lon="1.7857">
        <ele>1132.678</ele>
        <time>2019-04-19T11:18:19Z</time>
      </trkpt>
      <trkpt lat="42.26761" lon="1.78557">
        <ele>1134.986</ele>
        <time>2019-04-19T11:18:34Z</time>
      </trkpt>
      <trkpt lat="42.26758" lon="1.78549">
        <ele>1136.96</ele>
        <time>2019-04-19T11:18:44Z</time>
      </trkpt>
      <trkpt lat="42.26754" lon="1.78537">
        <ele>1138.826</ele>
        <time>2019-04-19T11:18:55Z</time>
      </trkpt>
      <trkpt lat="42.26752" lon="1.78522">
        <ele>1140.708</ele>
        <time>2019-04-19T11:19:07Z</time>
      </trkpt>
      <trkpt lat="42.26753" lon="1.78509">
        <ele>1141.881</ele>
        <time>2019-04-19T11:19:19Z</time>
      </trkpt>
      <trkpt lat="42.26749" lon="1.78497">
        <ele>1141.793</ele>
        <time>2019-04-19T11:19:31Z</time>
      </trkpt>
      <trkpt lat="42.26744" lon="1.78488">
        <ele>1141.852</ele>
        <time>2019-04-19T11:19:42Z</time>
      </trkpt>
      <trkpt lat="42.26736" lon="1.78475">
        <ele>1142.79</ele>
        <time>2019-04-19T11:19:54Z</time>
      </trkpt>
      <trkpt lat="42.26734" lon="1.7847">
        <ele>1142.776</ele>
        <time>2019-04-19T11:19:56Z</time>
      </trkpt>
      <trkpt lat="42.26725" lon="1.78457">
        <ele>1143.669</ele>
        <time>2019-04-19T11:20:06Z</time>
      </trkpt>
      <trkpt lat="42.26715" lon="1.78441">
        <ele>1146.152</ele>
        <time>2019-04-19T11:20:20Z</time>
      </trkpt>
      <trkpt lat="42.26707" lon="1.78429">
        <ele>1149.095</ele>
        <time>2019-04-19T11:20:34Z</time>
      </trkpt>
      <trkpt lat="42.267" lon="1.78416">
        <ele>1151.336</ele>
        <time>2019-04-19T11:20:47Z</time>
      </trkpt>
      <trkpt lat="42.26696" lon="1.78411">
        <ele>1153.217</ele>
        <time>2019-04-19T11:20:58Z</time>
      </trkpt>
      <trkpt lat="42.26695" lon="1.78409">
        <ele>1153.718</ele>
        <time>2019-04-19T11:21:00Z</time>
      </trkpt>
      <trkpt lat="42.26692" lon="1.78394">
        <ele>1155.108</ele>
        <time>2019-04-19T11:21:11Z</time>
      </trkpt>
      <trkpt lat="42.26686" lon="1.78383">
        <ele>1156.156</ele>
        <time>2019-04-19T11:21:22Z</time>
      </trkpt>
      <trkpt lat="42.26681" lon="1.78368">
        <ele>1156.648</ele>
        <time>2019-04-19T11:21:33Z</time>
      </trkpt>
      <trkpt lat="42.26682" lon="1.78348">
        <ele>1155.697</ele>
        <time>2019-04-19T11:21:45Z</time>
      </trkpt>
      <trkpt lat="42.26673" lon="1.78318">
        <ele>1153.315</ele>
        <time>2019-04-19T11:21:57Z</time>
      </trkpt>
      <trkpt lat="42.26679" lon="1.78295">
        <ele>1153.311</ele>
        <time>2019-04-19T11:22:09Z</time>
      </trkpt>
      <trkpt lat="42.26678" lon="1.78282">
        <ele>1155.144</ele>
        <time>2019-04-19T11:22:23Z</time>
      </trkpt>
      <trkpt lat="42.26674" lon="1.78269">
        <ele>1156.137</ele>
        <time>2019-04-19T11:22:36Z</time>
      </trkpt>
      <trkpt lat="42.2667" lon="1.7826">
        <ele>1156.16</ele>
        <time>2019-04-19T11:22:48Z</time>
      </trkpt>
      <trkpt lat="42.26662" lon="1.78258">
        <ele>1156.182</ele>
        <time>2019-04-19T11:22:59Z</time>
      </trkpt>
      <trkpt lat="42.26657" lon="1.78258">
        <ele>1157.543</ele>
        <time>2019-04-19T11:23:13Z</time>
      </trkpt>
      <trkpt lat="42.26644" lon="1.78257">
        <ele>1159.517</ele>
        <time>2019-04-19T11:23:25Z</time>
      </trkpt>
      <trkpt lat="42.26636" lon="1.78261">
        <ele>1161.008</ele>
        <time>2019-04-19T11:23:37Z</time>
      </trkpt>
      <trkpt lat="42.26622" lon="1.78268">
        <ele>1163.891</ele>
        <time>2019-04-19T11:23:49Z</time>
      </trkpt>
      <trkpt lat="42.26615" lon="1.78277">
        <ele>1165.833</ele>
        <time>2019-04-19T11:24:03Z</time>
      </trkpt>
      <trkpt lat="42.26605" lon="1.78278">
        <ele>1167.252</ele>
        <time>2019-04-19T11:24:15Z</time>
      </trkpt>
      <trkpt lat="42.2657" lon="1.78286">
        <ele>1165.74</ele>
        <time>2019-04-19T11:24:32Z</time>
      </trkpt>
      <trkpt lat="42.26564" lon="1.78288">
        <ele>1165.716</ele>
        <time>2019-04-19T11:24:38Z</time>
      </trkpt>
      <trkpt lat="42.26557" lon="1.78279">
        <ele>1167.159</ele>
        <time>2019-04-19T11:24:46Z</time>
      </trkpt>
      <trkpt lat="42.26557" lon="1.78283">
        <ele>1167.732</ele>
        <time>2019-04-19T11:24:59Z</time>
      </trkpt>
      <trkpt lat="42.26558" lon="1.78284">
        <ele>1166.235</ele>
        <time>2019-04-19T11:25:03Z</time>
      </trkpt>
      <trkpt lat="42.26557" lon="1.78295">
        <ele>1166.288</ele>
        <time>2019-04-19T11:25:15Z</time>
      </trkpt>
      <trkpt lat="42.26556" lon="1.78294">
        <ele>1166.224</ele>
        <time>2019-04-19T11:25:16Z</time>
      </trkpt>
      <trkpt lat="42.26559" lon="1.78301">
        <ele>1166.326</ele>
        <time>2019-04-19T11:25:44Z</time>
      </trkpt>
      <trkpt lat="42.26559" lon="1.78298">
        <ele>1166.308</ele>
        <time>2019-04-19T11:25:49Z</time>
      </trkpt>
      <trkpt lat="42.26559" lon="1.78283">
        <ele>1167.741</ele>
        <time>2019-04-19T11:26:01Z</time>
      </trkpt>
      <trkpt lat="42.26556" lon="1.78279">
        <ele>1167.663</ele>
        <time>2019-04-19T11:26:10Z</time>
      </trkpt>
      <trkpt lat="42.26551" lon="1.78263">
        <ele>1169.132</ele>
        <time>2019-04-19T11:26:23Z</time>
      </trkpt>
      <trkpt lat="42.26547" lon="1.78253">
        <ele>1170.55</ele>
        <time>2019-04-19T11:26:35Z</time>
      </trkpt>
      <trkpt lat="42.26537" lon="1.78244">
        <ele>1173.516</ele>
        <time>2019-04-19T11:26:49Z</time>
      </trkpt>
      <trkpt lat="42.26533" lon="1.78251">
        <ele>1173.989</ele>
        <time>2019-04-19T11:27:06Z</time>
      </trkpt>
      <trkpt lat="42.26534" lon="1.78257">
        <ele>1174.472</ele>
        <time>2019-04-19T11:27:28Z</time>
      </trkpt>
      <trkpt lat="42.26536" lon="1.78259">
        <ele>1174.465</ele>
        <time>2019-04-19T11:27:55Z</time>
      </trkpt>
      <trkpt lat="42.26537" lon="1.78256">
        <ele>1174.341</ele>
        <time>2019-04-19T11:28:26Z</time>
      </trkpt>
      <trkpt lat="42.2654" lon="1.78259">
        <ele>1174.381</ele>
        <time>2019-04-19T11:29:00Z</time>
      </trkpt>
      <trkpt lat="42.26542" lon="1.78257">
        <ele>1174.809</ele>
        <time>2019-04-19T11:29:32Z</time>
      </trkpt>
      <trkpt lat="42.26539" lon="1.78258">
        <ele>1174.808</ele>
        <time>2019-04-19T11:29:59Z</time>
      </trkpt>
      <trkpt lat="42.26536" lon="1.7826">
        <ele>1173.967</ele>
        <time>2019-04-19T11:30:30Z</time>
      </trkpt>
      <trkpt lat="42.26536" lon="1.78259">
        <ele>1174.399</ele>
        <time>2019-04-19T11:31:02Z</time>
      </trkpt>
      <trkpt lat="42.26535" lon="1.78256">
        <ele>1174.498</ele>
        <time>2019-04-19T11:31:37Z</time>
      </trkpt>
      <trkpt lat="42.26538" lon="1.78258">
        <ele>1174.496</ele>
        <time>2019-04-19T11:32:06Z</time>
      </trkpt>
      <trkpt lat="42.26538" lon="1.78259">
        <ele>1174.952</ele>
        <time>2019-04-19T11:32:47Z</time>
      </trkpt>
      <trkpt lat="42.26538" lon="1.78257">
        <ele>1174.935</ele>
        <time>2019-04-19T11:33:23Z</time>
      </trkpt>
      <trkpt lat="42.26538" lon="1.78257">
        <ele>1175.348</ele>
        <time>2019-04-19T11:33:58Z</time>
      </trkpt>
      <trkpt lat="42.2654" lon="1.78257">
        <ele>1175.441</ele>
        <time>2019-04-19T11:34:31Z</time>
      </trkpt>
      <trkpt lat="42.26539" lon="1.78256">
        <ele>1175.382</ele>
        <time>2019-04-19T11:34:53Z</time>
      </trkpt>
      <trkpt lat="42.26537" lon="1.7826">
        <ele>1175.843</ele>
        <time>2019-04-19T11:35:25Z</time>
      </trkpt>
      <trkpt lat="42.26536" lon="1.7826">
        <ele>1175.917</ele>
        <time>2019-04-19T11:35:58Z</time>
      </trkpt>
      <trkpt lat="42.26538" lon="1.78262">
        <ele>1176.408</ele>
        <time>2019-04-19T11:36:26Z</time>
      </trkpt>
      <trkpt lat="42.26534" lon="1.78262">
        <ele>1176.341</ele>
        <time>2019-04-19T11:36:53Z</time>
      </trkpt>
      <trkpt lat="42.26532" lon="1.78262">
        <ele>1176.843</ele>
        <time>2019-04-19T11:37:27Z</time>
      </trkpt>
      <trkpt lat="42.26535" lon="1.7826">
        <ele>1176.842</ele>
        <time>2019-04-19T11:37:54Z</time>
      </trkpt>
      <trkpt lat="42.26534" lon="1.78258">
        <ele>1177.26</ele>
        <time>2019-04-19T11:38:25Z</time>
      </trkpt>
      <trkpt lat="42.26534" lon="1.78258">
        <ele>1177.246</ele>
        <time>2019-04-19T11:39:01Z</time>
      </trkpt>
      <trkpt lat="42.26536" lon="1.78261">
        <ele>1177.869</ele>
        <time>2019-04-19T11:39:34Z</time>
      </trkpt>
      <trkpt lat="42.26533" lon="1.78261">
        <ele>1177.772</ele>
        <time>2019-04-19T11:40:01Z</time>
      </trkpt>
      <trkpt lat="42.26533" lon="1.78262">
        <ele>1178.785</ele>
        <time>2019-04-19T11:40:31Z</time>
      </trkpt>
      <trkpt lat="42.26534" lon="1.78259">
        <ele>1179.185</ele>
        <time>2019-04-19T11:41:03Z</time>
      </trkpt>
      <trkpt lat="42.26535" lon="1.7826">
        <ele>1179.189</ele>
        <time>2019-04-19T11:41:39Z</time>
      </trkpt>
      <trkpt lat="42.26534" lon="1.78259">
        <ele>1179.117</ele>
        <time>2019-04-19T11:42:01Z</time>
      </trkpt>
      <trkpt lat="42.26534" lon="1.78258">
        <ele>1179.208</ele>
        <time>2019-04-19T11:42:28Z</time>
      </trkpt>
      <trkpt lat="42.26534" lon="1.78255">
        <ele>1179.641</ele>
        <time>2019-04-19T11:42:49Z</time>
      </trkpt>
      <trkpt lat="42.26535" lon="1.7825">
        <ele>1180.283</ele>
        <time>2019-04-19T11:43:18Z</time>
      </trkpt>
      <trkpt lat="42.26539" lon="1.78253">
        <ele>1180.232</ele>
        <time>2019-04-19T11:43:45Z</time>
      </trkpt>
      <trkpt lat="42.26541" lon="1.7825">
        <ele>1178.84</ele>
        <time>2019-04-19T11:44:02Z</time>
      </trkpt>
      <trkpt lat="42.26538" lon="1.78248">
        <ele>1178.796</ele>
        <time>2019-04-19T11:44:20Z</time>
      </trkpt>
      <trkpt lat="42.26535" lon="1.78248">
        <ele>1178.879</ele>
        <time>2019-04-19T11:44:41Z</time>
      </trkpt>
      <trkpt lat="42.26542" lon="1.7825">
        <ele>1177.892</ele>
        <time>2019-04-19T11:44:55Z</time>
      </trkpt>
      <trkpt lat="42.26547" lon="1.78252">
        <ele>1176.495</ele>
        <time>2019-04-19T11:45:11Z</time>
      </trkpt>
      <trkpt lat="42.26552" lon="1.7826">
        <ele>1175.844</ele>
        <time>2019-04-19T11:45:42Z</time>
      </trkpt>
      <trkpt lat="42.26557" lon="1.78252">
        <ele>1173.905</ele>
        <time>2019-04-19T11:45:54Z</time>
      </trkpt>
      <trkpt lat="42.26558" lon="1.78249">
        <ele>1173.015</ele>
        <time>2019-04-19T11:45:59Z</time>
      </trkpt>
      <trkpt lat="42.26556" lon="1.78239">
        <ele>1172.908</ele>
        <time>2019-04-19T11:46:11Z</time>
      </trkpt>
      <trkpt lat="42.26555" lon="1.78227">
        <ele>1172.997</ele>
        <time>2019-04-19T11:46:22Z</time>
      </trkpt>
      <trkpt lat="42.26555" lon="1.78213">
        <ele>1174.879</ele>
        <time>2019-04-19T11:46:32Z</time>
      </trkpt>
      <trkpt lat="42.2655" lon="1.78193">
        <ele>1175.938</ele>
        <time>2019-04-19T11:46:44Z</time>
      </trkpt>
      <trkpt lat="42.26549" lon="1.78191">
        <ele>1175.876</ele>
        <time>2019-04-19T11:46:45Z</time>
      </trkpt>
      <trkpt lat="42.26546" lon="1.78173">
        <ele>1176.862</ele>
        <time>2019-04-19T11:46:58Z</time>
      </trkpt>
      <trkpt lat="42.26543" lon="1.78166">
        <ele>1176.795</ele>
        <time>2019-04-19T11:47:07Z</time>
      </trkpt>
      <trkpt lat="42.26534" lon="1.78149">
        <ele>1175.928</ele>
        <time>2019-04-19T11:47:20Z</time>
      </trkpt>
      <trkpt lat="42.26524" lon="1.78145">
        <ele>1175.431</ele>
        <time>2019-04-19T11:47:40Z</time>
      </trkpt>
      <trkpt lat="42.26523" lon="1.78139">
        <ele>1175.328</ele>
        <time>2019-04-19T11:47:58Z</time>
      </trkpt>
      <trkpt lat="42.26518" lon="1.78133">
        <ele>1177.289</ele>
        <time>2019-04-19T11:48:11Z</time>
      </trkpt>
      <trkpt lat="42.26516" lon="1.78126">
        <ele>1178.217</ele>
        <time>2019-04-19T11:48:19Z</time>
      </trkpt>
      <trkpt lat="42.26513" lon="1.78117">
        <ele>1180.208</ele>
        <time>2019-04-19T11:48:29Z</time>
      </trkpt>
      <trkpt lat="42.26504" lon="1.7811">
        <ele>1180.735</ele>
        <time>2019-04-19T11:48:40Z</time>
      </trkpt>
      <trkpt lat="42.26503" lon="1.78105">
        <ele>1181.297</ele>
        <time>2019-04-19T11:48:58Z</time>
      </trkpt>
      <trkpt lat="42.265" lon="1.78098">
        <ele>1181.226</ele>
        <time>2019-04-19T11:49:12Z</time>
      </trkpt>
      <trkpt lat="42.2649" lon="1.78085">
        <ele>1183.624</ele>
        <time>2019-04-19T11:49:24Z</time>
      </trkpt>
      <trkpt lat="42.26482" lon="1.78076">
        <ele>1186.93</ele>
        <time>2019-04-19T11:49:36Z</time>
      </trkpt>
      <trkpt lat="42.26471" lon="1.78067">
        <ele>1189.713</ele>
        <time>2019-04-19T11:49:51Z</time>
      </trkpt>
      <trkpt lat="42.26463" lon="1.78064">
        <ele>1191.346</ele>
        <time>2019-04-19T11:50:06Z</time>
      </trkpt>
      <trkpt lat="42.26457" lon="1.78053">
        <ele>1191.759</ele>
        <time>2019-04-19T11:50:19Z</time>
      </trkpt>
      <trkpt lat="42.26453" lon="1.78042">
        <ele>1192.169</ele>
        <time>2019-04-19T11:50:32Z</time>
      </trkpt>
      <trkpt lat="42.26452" lon="1.78041">
        <ele>1190.704</ele>
        <time>2019-04-19T11:50:34Z</time>
      </trkpt>
      <trkpt lat="42.26456" lon="1.78036">
        <ele>1192.124</ele>
        <time>2019-04-19T11:50:41Z</time>
      </trkpt>
      <trkpt lat="42.26442" lon="1.78026">
        <ele>1194.008</ele>
        <time>2019-04-19T11:50:57Z</time>
      </trkpt>
      <trkpt lat="42.26435" lon="1.78018">
        <ele>1196.949</ele>
        <time>2019-04-19T11:51:13Z</time>
      </trkpt>
      <trkpt lat="42.26423" lon="1.78007">
        <ele>1199.391</ele>
        <time>2019-04-19T11:51:26Z</time>
      </trkpt>
      <trkpt lat="42.26414" lon="1.78002">
        <ele>1201.43</ele>
        <time>2019-04-19T11:51:39Z</time>
      </trkpt>
      <trkpt lat="42.26405" lon="1.77993">
        <ele>1204.798</ele>
        <time>2019-04-19T11:51:50Z</time>
      </trkpt>
      <trkpt lat="42.26393" lon="1.77981">
        <ele>1207.124</ele>
        <time>2019-04-19T11:52:04Z</time>
      </trkpt>
      <trkpt lat="42.26389" lon="1.7798">
        <ele>1208.187</ele>
        <time>2019-04-19T11:52:08Z</time>
      </trkpt>
      <trkpt lat="42.26378" lon="1.7798">
        <ele>1209.91</ele>
        <time>2019-04-19T11:52:21Z</time>
      </trkpt>
      <trkpt lat="42.26366" lon="1.77981">
        <ele>1211.993</ele>
        <time>2019-04-19T11:52:34Z</time>
      </trkpt>
      <trkpt lat="42.26356" lon="1.77984">
        <ele>1214.251</ele>
        <time>2019-04-19T11:52:48Z</time>
      </trkpt>
      <trkpt lat="42.26344" lon="1.77981">
        <ele>1216.201</ele>
        <time>2019-04-19T11:53:02Z</time>
      </trkpt>
      <trkpt lat="42.26334" lon="1.77986">
        <ele>1218.211</ele>
        <time>2019-04-19T11:53:15Z</time>
      </trkpt>
      <trkpt lat="42.26326" lon="1.77992">
        <ele>1221.008</ele>
        <time>2019-04-19T11:53:28Z</time>
      </trkpt>
      <trkpt lat="42.26317" lon="1.78002">
        <ele>1224.048</ele>
        <time>2019-04-19T11:53:43Z</time>
      </trkpt>
      <trkpt lat="42.2631" lon="1.78008">
        <ele>1227.36</ele>
        <time>2019-04-19T11:53:59Z</time>
      </trkpt>
      <trkpt lat="42.26301" lon="1.78018">
        <ele>1229.729</ele>
        <time>2019-04-19T11:54:14Z</time>
      </trkpt>
      <trkpt lat="42.26292" lon="1.78026">
        <ele>1232.187</ele>
        <time>2019-04-19T11:54:28Z</time>
      </trkpt>
      <trkpt lat="42.26288" lon="1.78034">
        <ele>1235.553</ele>
        <time>2019-04-19T11:54:41Z</time>
      </trkpt>
      <trkpt lat="42.26281" lon="1.78043">
        <ele>1237.476</ele>
        <time>2019-04-19T11:54:53Z</time>
      </trkpt>
      <trkpt lat="42.26273" lon="1.78051">
        <ele>1240.379</ele>
        <time>2019-04-19T11:55:08Z</time>
      </trkpt>
      <trkpt lat="42.26265" lon="1.78065">
        <ele>1243.292</ele>
        <time>2019-04-19T11:55:24Z</time>
      </trkpt>
      <trkpt lat="42.26258" lon="1.78072">
        <ele>1244.553</ele>
        <time>2019-04-19T11:55:40Z</time>
      </trkpt>
      <trkpt lat="42.26251" lon="1.7808">
        <ele>1247.904</ele>
        <time>2019-04-19T11:55:55Z</time>
      </trkpt>
      <trkpt lat="42.26242" lon="1.78085">
        <ele>1249.814</ele>
        <time>2019-04-19T11:56:11Z</time>
      </trkpt>
      <trkpt lat="42.26234" lon="1.78092">
        <ele>1252.808</ele>
        <time>2019-04-19T11:56:26Z</time>
      </trkpt>
      <trkpt lat="42.26224" lon="1.78097">
        <ele>1255.678</ele>
        <time>2019-04-19T11:56:42Z</time>
      </trkpt>
      <trkpt lat="42.26212" lon="1.78103">
        <ele>1258.19</ele>
        <time>2019-04-19T11:56:57Z</time>
      </trkpt>
      <trkpt lat="42.26203" lon="1.78108">
        <ele>1260.579</ele>
        <time>2019-04-19T11:57:12Z</time>
      </trkpt>
      <trkpt lat="42.26199" lon="1.78107">
        <ele>1261.417</ele>
        <time>2019-04-19T11:57:29Z</time>
      </trkpt>
      <trkpt lat="42.26192" lon="1.78128">
        <ele>1264.363</ele>
        <time>2019-04-19T11:57:46Z</time>
      </trkpt>
      <trkpt lat="42.26184" lon="1.78144">
        <ele>1267.156</ele>
        <time>2019-04-19T11:58:02Z</time>
      </trkpt>
      <trkpt lat="42.26176" lon="1.78146">
        <ele>1270.029</ele>
        <time>2019-04-19T11:58:18Z</time>
      </trkpt>
      <trkpt lat="42.26174" lon="1.78149">
        <ele>1271.182</ele>
        <time>2019-04-19T11:58:24Z</time>
      </trkpt>
      <trkpt lat="42.26173" lon="1.78155">
        <ele>1271.014</ele>
        <time>2019-04-19T11:58:39Z</time>
      </trkpt>
      <trkpt lat="42.26171" lon="1.78171">
        <ele>1269.054</ele>
        <time>2019-04-19T11:58:58Z</time>
      </trkpt>
      <trkpt lat="42.26167" lon="1.78178">
        <ele>1267.609</ele>
        <time>2019-04-19T11:59:03Z</time>
      </trkpt>
      <trkpt lat="42.26154" lon="1.78193">
        <ele>1266.108</ele>
        <time>2019-04-19T11:59:16Z</time>
      </trkpt>
      <trkpt lat="42.26148" lon="1.78199">
        <ele>1265.854</ele>
        <time>2019-04-19T11:59:23Z</time>
      </trkpt>
      <trkpt lat="42.26137" lon="1.78213">
        <ele>1262.856</ele>
        <time>2019-04-19T11:59:35Z</time>
      </trkpt>
      <trkpt lat="42.26131" lon="1.78219">
        <ele>1261.365</ele>
        <time>2019-04-19T11:59:41Z</time>
      </trkpt>
      <trkpt lat="42.26127" lon="1.78226">
        <ele>1260.923</ele>
        <time>2019-04-19T11:59:45Z</time>
      </trkpt>
      <trkpt lat="42.26113" lon="1.78244">
        <ele>1259.569</ele>
        <time>2019-04-19T11:59:58Z</time>
      </trkpt>
      <trkpt lat="42.26104" lon="1.78257">
        <ele>1256.182</ele>
        <time>2019-04-19T12:00:10Z</time>
      </trkpt>
      <trkpt lat="42.26103" lon="1.78259">
        <ele>1256.185</ele>
        <time>2019-04-19T12:00:11Z</time>
      </trkpt>
      <trkpt lat="42.26099" lon="1.78261">
        <ele>1255.298</ele>
        <time>2019-04-19T12:00:14Z</time>
      </trkpt>
      <trkpt lat="42.2609" lon="1.78268">
        <ele>1253.284</ele>
        <time>2019-04-19T12:00:24Z</time>
      </trkpt>
      <trkpt lat="42.26087" lon="1.78275">
        <ele>1252.207</ele>
        <time>2019-04-19T12:00:28Z</time>
      </trkpt>
      <trkpt lat="42.26083" lon="1.78285">
        <ele>1251.217</ele>
        <time>2019-04-19T12:00:34Z</time>
      </trkpt>
      <trkpt lat="42.26076" lon="1.78306">
        <ele>1248.508</ele>
        <time>2019-04-19T12:00:47Z</time>
      </trkpt>
      <trkpt lat="42.26068" lon="1.78326">
        <ele>1247.051</ele>
        <time>2019-04-19T12:01:01Z</time>
      </trkpt>
      <trkpt lat="42.26056" lon="1.78349">
        <ele>1246.063</ele>
        <time>2019-04-19T12:01:16Z</time>
      </trkpt>
      <trkpt lat="42.26051" lon="1.78355">
        <ele>1246.022</ele>
        <time>2019-04-19T12:01:23Z</time>
      </trkpt>
      <trkpt lat="42.26049" lon="1.78368">
        <ele>1242.63</ele>
        <time>2019-04-19T12:01:34Z</time>
      </trkpt>
      <trkpt lat="42.26049" lon="1.78368">
        <ele>1241.686</ele>
        <time>2019-04-19T12:01:35Z</time>
      </trkpt>
      <trkpt lat="42.26052" lon="1.78377">
        <ele>1242.119</ele>
        <time>2019-04-19T12:01:44Z</time>
      </trkpt>
      <trkpt lat="42.26052" lon="1.78379">
        <ele>1242.272</ele>
        <time>2019-04-19T12:01:45Z</time>
      </trkpt>
      <trkpt lat="42.26055" lon="1.78392">
        <ele>1244.125</ele>
        <time>2019-04-19T12:01:59Z</time>
      </trkpt>
      <trkpt lat="42.26057" lon="1.78395">
        <ele>1243.188</ele>
        <time>2019-04-19T12:02:02Z</time>
      </trkpt>
      <trkpt lat="42.26072" lon="1.78403">
        <ele>1239.224</ele>
        <time>2019-04-19T12:02:16Z</time>
      </trkpt>
      <trkpt lat="42.26085" lon="1.78412">
        <ele>1236.326</ele>
        <time>2019-04-19T12:02:25Z</time>
      </trkpt>
      <trkpt lat="42.26093" lon="1.78424">
        <ele>1234.508</ele>
        <time>2019-04-19T12:02:34Z</time>
      </trkpt>
      <trkpt lat="42.26102" lon="1.78456">
        <ele>1232.511</ele>
        <time>2019-04-19T12:02:52Z</time>
      </trkpt>
      <trkpt lat="42.26119" lon="1.78486">
        <ele>1231.593</ele>
        <time>2019-04-19T12:03:11Z</time>
      </trkpt>
      <trkpt lat="42.2612" lon="1.7849">
        <ele>1230.232</ele>
        <time>2019-04-19T12:03:15Z</time>
      </trkpt>
      <trkpt lat="42.26126" lon="1.78503">
        <ele>1227.37</ele>
        <time>2019-04-19T12:03:24Z</time>
      </trkpt>
      <trkpt lat="42.26126" lon="1.78531">
        <ele>1224.486</ele>
        <time>2019-04-19T12:03:38Z</time>
      </trkpt>
      <trkpt lat="42.26129" lon="1.7854">
        <ele>1223.019</ele>
        <time>2019-04-19T12:03:42Z</time>
      </trkpt>
      <trkpt lat="42.26133" lon="1.78549">
        <ele>1222.092</ele>
        <time>2019-04-19T12:03:46Z</time>
      </trkpt>
      <trkpt lat="42.2614" lon="1.78574">
        <ele>1218.665</ele>
        <time>2019-04-19T12:03:57Z</time>
      </trkpt>
      <trkpt lat="42.26139" lon="1.78586">
        <ele>1217.151</ele>
        <time>2019-04-19T12:04:02Z</time>
      </trkpt>
      <trkpt lat="42.26137" lon="1.7859">
        <ele>1216.201</ele>
        <time>2019-04-19T12:04:04Z</time>
      </trkpt>
      <trkpt lat="42.26136" lon="1.78592">
        <ele>1214.311</ele>
        <time>2019-04-19T12:04:06Z</time>
      </trkpt>
      <trkpt lat="42.26135" lon="1.78597">
        <ele>1213.908</ele>
        <time>2019-04-19T12:04:08Z</time>
      </trkpt>
      <trkpt lat="42.2613" lon="1.7861">
        <ele>1211.938</ele>
        <time>2019-04-19T12:04:20Z</time>
      </trkpt>
      <trkpt lat="42.26127" lon="1.7862">
        <ele>1208.67</ele>
        <time>2019-04-19T12:04:27Z</time>
      </trkpt>
      <trkpt lat="42.26122" lon="1.78629">
        <ele>1206.619</ele>
        <time>2019-04-19T12:04:34Z</time>
      </trkpt>
      <trkpt lat="42.2611" lon="1.78641">
        <ele>1203.357</ele>
        <time>2019-04-19T12:04:45Z</time>
      </trkpt>
      <trkpt lat="42.26108" lon="1.78645">
        <ele>1203.283</ele>
        <time>2019-04-19T12:04:47Z</time>
      </trkpt>
      <trkpt lat="42.26106" lon="1.78648">
        <ele>1201.886</ele>
        <time>2019-04-19T12:04:49Z</time>
      </trkpt>
      <trkpt lat="42.26103" lon="1.78659">
        <ele>1201.319</ele>
        <time>2019-04-19T12:04:54Z</time>
      </trkpt>
      <trkpt lat="42.26101" lon="1.78673">
        <ele>1198.962</ele>
        <time>2019-04-19T12:05:01Z</time>
      </trkpt>
      <trkpt lat="42.26102" lon="1.78678">
        <ele>1197.979</ele>
        <time>2019-04-19T12:05:03Z</time>
      </trkpt>
      <trkpt lat="42.26104" lon="1.78686">
        <ele>1196.505</ele>
        <time>2019-04-19T12:05:07Z</time>
      </trkpt>
      <trkpt lat="42.26106" lon="1.78697">
        <ele>1195.025</ele>
        <time>2019-04-19T12:05:11Z</time>
      </trkpt>
      <trkpt lat="42.26108" lon="1.78734">
        <ele>1191.208</ele>
        <time>2019-04-19T12:05:23Z</time>
      </trkpt>
      <trkpt lat="42.26111" lon="1.78748">
        <ele>1190.89</ele>
        <time>2019-04-19T12:05:27Z</time>
      </trkpt>
      <trkpt lat="42.26115" lon="1.78758">
        <ele>1188.822</ele>
        <time>2019-04-19T12:05:32Z</time>
      </trkpt>
      <trkpt lat="42.26115" lon="1.78761">
        <ele>1188.871</ele>
        <time>2019-04-19T12:05:33Z</time>
      </trkpt>
      <trkpt lat="42.26115" lon="1.78763">
        <ele>1188.969</ele>
        <time>2019-04-19T12:05:34Z</time>
      </trkpt>
      <trkpt lat="42.26116" lon="1.78766">
        <ele>1188.845</ele>
        <time>2019-04-19T12:05:35Z</time>
      </trkpt>
      <trkpt lat="42.26116" lon="1.7877">
        <ele>1188.818</ele>
        <time>2019-04-19T12:05:36Z</time>
      </trkpt>
      <trkpt lat="42.26116" lon="1.78774">
        <ele>1188.991</ele>
        <time>2019-04-19T12:05:37Z</time>
      </trkpt>
      <trkpt lat="42.26116" lon="1.78778">
        <ele>1186.874</ele>
        <time>2019-04-19T12:05:38Z</time>
      </trkpt>
      <trkpt lat="42.26116" lon="1.7878">
        <ele>1187.399</ele>
        <time>2019-04-19T12:05:39Z</time>
      </trkpt>
      <trkpt lat="42.26113" lon="1.78787">
        <ele>1185.907</ele>
        <time>2019-04-19T12:05:42Z</time>
      </trkpt>
      <trkpt lat="42.26111" lon="1.78788">
        <ele>1185.927</ele>
        <time>2019-04-19T12:05:43Z</time>
      </trkpt>
      <trkpt lat="42.26109" lon="1.78791">
        <ele>1184.908</ele>
        <time>2019-04-19T12:05:45Z</time>
      </trkpt>
      <trkpt lat="42.26107" lon="1.78793">
        <ele>1185.092</ele>
        <time>2019-04-19T12:05:46Z</time>
      </trkpt>
      <trkpt lat="42.26106" lon="1.78794">
        <ele>1185.034</ele>
        <time>2019-04-19T12:05:47Z</time>
      </trkpt>
      <trkpt lat="42.26104" lon="1.78796">
        <ele>1184.013</ele>
        <time>2019-04-19T12:05:48Z</time>
      </trkpt>
      <trkpt lat="42.26103" lon="1.78797">
        <ele>1184.031</ele>
        <time>2019-04-19T12:05:49Z</time>
      </trkpt>
      <trkpt lat="42.2609" lon="1.78812">
        <ele>1181.177</ele>
        <time>2019-04-19T12:05:59Z</time>
      </trkpt>
      <trkpt lat="42.26086" lon="1.78814">
        <ele>1181.24</ele>
        <time>2019-04-19T12:06:01Z</time>
      </trkpt>
      <trkpt lat="42.26085" lon="1.78815">
        <ele>1181.253</ele>
        <time>2019-04-19T12:06:02Z</time>
      </trkpt>
      <trkpt lat="42.26084" lon="1.78817">
        <ele>1180.266</ele>
        <time>2019-04-19T12:06:03Z</time>
      </trkpt>
      <trkpt lat="42.26085" lon="1.78823">
        <ele>1178.776</ele>
        <time>2019-04-19T12:06:07Z</time>
      </trkpt>
      <trkpt lat="42.26088" lon="1.78826">
        <ele>1177.29</ele>
        <time>2019-04-19T12:06:12Z</time>
      </trkpt>
      <trkpt lat="42.2609" lon="1.78831">
        <ele>1174.319</ele>
        <time>2019-04-19T12:06:17Z</time>
      </trkpt>
      <trkpt lat="42.2609" lon="1.78833">
        <ele>1174.408</ele>
        <time>2019-04-19T12:06:18Z</time>
      </trkpt>
      <trkpt lat="42.26093" lon="1.78841">
        <ele>1171.95</ele>
        <time>2019-04-19T12:06:23Z</time>
      </trkpt>
      <trkpt lat="42.26095" lon="1.78848">
        <ele>1169.612</ele>
        <time>2019-04-19T12:06:28Z</time>
      </trkpt>
      <trkpt lat="42.26096" lon="1.78849">
        <ele>1168.681</ele>
        <time>2019-04-19T12:06:29Z</time>
      </trkpt>
      <trkpt lat="42.26094" lon="1.78859">
        <ele>1165.859</ele>
        <time>2019-04-19T12:06:39Z</time>
      </trkpt>
      <trkpt lat="42.26091" lon="1.78862">
        <ele>1164.365</ele>
        <time>2019-04-19T12:06:42Z</time>
      </trkpt>
      <trkpt lat="42.26085" lon="1.78873">
        <ele>1162.358</ele>
        <time>2019-04-19T12:06:52Z</time>
      </trkpt>
      <trkpt lat="42.26086" lon="1.78885">
        <ele>1160.921</ele>
        <time>2019-04-19T12:07:06Z</time>
      </trkpt>
      <trkpt lat="42.26089" lon="1.78891">
        <ele>1159.474</ele>
        <time>2019-04-19T12:07:09Z</time>
      </trkpt>
      <trkpt lat="42.26101" lon="1.7891">
        <ele>1160.466</ele>
        <time>2019-04-19T12:07:22Z</time>
      </trkpt>
      <trkpt lat="42.26111" lon="1.78926">
        <ele>1158.029</ele>
        <time>2019-04-19T12:07:34Z</time>
      </trkpt>
      <trkpt lat="42.26119" lon="1.78937">
        <ele>1155.721</ele>
        <time>2019-04-19T12:07:42Z</time>
      </trkpt>
      <trkpt lat="42.26122" lon="1.78942">
        <ele>1154.708</ele>
        <time>2019-04-19T12:07:45Z</time>
      </trkpt>
      <trkpt lat="42.26124" lon="1.78944">
        <ele>1153.829</ele>
        <time>2019-04-19T12:07:47Z</time>
      </trkpt>
      <trkpt lat="42.26132" lon="1.78947">
        <ele>1151.811</ele>
        <time>2019-04-19T12:07:52Z</time>
      </trkpt>
      <trkpt lat="42.26132" lon="1.78948">
        <ele>1151.94</ele>
        <time>2019-04-19T12:07:53Z</time>
      </trkpt>
      <trkpt lat="42.26144" lon="1.78952">
        <ele>1149.888</ele>
        <time>2019-04-19T12:07:59Z</time>
      </trkpt>
      <trkpt lat="42.26149" lon="1.78953">
        <ele>1149.044</ele>
        <time>2019-04-19T12:08:01Z</time>
      </trkpt>
      <trkpt lat="42.26162" lon="1.78959">
        <ele>1145.677</ele>
        <time>2019-04-19T12:08:09Z</time>
      </trkpt>
      <trkpt lat="42.26163" lon="1.78959">
        <ele>1144.12</ele>
        <time>2019-04-19T12:08:10Z</time>
      </trkpt>
      <trkpt lat="42.26173" lon="1.78963">
        <ele>1140.753</ele>
        <time>2019-04-19T12:08:16Z</time>
      </trkpt>
      <trkpt lat="42.26175" lon="1.78967">
        <ele>1139.792</ele>
        <time>2019-04-19T12:08:20Z</time>
      </trkpt>
      <trkpt lat="42.26207" lon="1.78981">
        <ele>1136.473</ele>
        <time>2019-04-19T12:08:32Z</time>
      </trkpt>
      <trkpt lat="42.26213" lon="1.78983">
        <ele>1135.02</ele>
        <time>2019-04-19T12:08:36Z</time>
      </trkpt>
      <trkpt lat="42.26214" lon="1.78985">
        <ele>1134.508</ele>
        <time>2019-04-19T12:08:37Z</time>
      </trkpt>
      <trkpt lat="42.2622" lon="1.7899">
        <ele>1133.522</ele>
        <time>2019-04-19T12:08:41Z</time>
      </trkpt>
      <trkpt lat="42.26225" lon="1.79001">
        <ele>1132.024</ele>
        <time>2019-04-19T12:08:53Z</time>
      </trkpt>
      <trkpt lat="42.26227" lon="1.79004">
        <ele>1132.193</ele>
        <time>2019-04-19T12:09:09Z</time>
      </trkpt>
      <trkpt lat="42.26231" lon="1.79017">
        <ele>1132.121</ele>
        <time>2019-04-19T12:09:19Z</time>
      </trkpt>
      <trkpt lat="42.26234" lon="1.79024">
        <ele>1132.017</ele>
        <time>2019-04-19T12:09:23Z</time>
      </trkpt>
      <trkpt lat="42.26235" lon="1.79028">
        <ele>1132.18</ele>
        <time>2019-04-19T12:09:25Z</time>
      </trkpt>
      <trkpt lat="42.26241" lon="1.79052">
        <ele>1133.553</ele>
        <time>2019-04-19T12:09:39Z</time>
      </trkpt>
      <trkpt lat="42.26251" lon="1.79069">
        <ele>1134.986</ele>
        <time>2019-04-19T12:09:52Z</time>
      </trkpt>
      <trkpt lat="42.26252" lon="1.79071">
        <ele>1134.996</ele>
        <time>2019-04-19T12:09:53Z</time>
      </trkpt>
      <trkpt lat="42.26252" lon="1.79072">
        <ele>1134.931</ele>
        <time>2019-04-19T12:09:54Z</time>
      </trkpt>
      <trkpt lat="42.26265" lon="1.79096">
        <ele>1135.424</ele>
        <time>2019-04-19T12:10:07Z</time>
      </trkpt>
      <trkpt lat="42.26269" lon="1.79111">
        <ele>1135.508</ele>
        <time>2019-04-19T12:10:15Z</time>
      </trkpt>
      <trkpt lat="42.2627" lon="1.79113">
        <ele>1135.542</ele>
        <time>2019-04-19T12:10:16Z</time>
      </trkpt>
      <trkpt lat="42.2627" lon="1.79117">
        <ele>1136.094</ele>
        <time>2019-04-19T12:10:18Z</time>
      </trkpt>
      <trkpt lat="42.2627" lon="1.7912">
        <ele>1135.913</ele>
        <time>2019-04-19T12:10:19Z</time>
      </trkpt>
      <trkpt lat="42.26267" lon="1.79147">
        <ele>1134.451</ele>
        <time>2019-04-19T12:10:30Z</time>
      </trkpt>
      <trkpt lat="42.26267" lon="1.7915">
        <ele>1134.427</ele>
        <time>2019-04-19T12:10:31Z</time>
      </trkpt>
      <trkpt lat="42.26263" lon="1.79186">
        <ele>1130.66</ele>
        <time>2019-04-19T12:10:41Z</time>
      </trkpt>
      <trkpt lat="42.26262" lon="1.79189">
        <ele>1130.673</ele>
        <time>2019-04-19T12:10:42Z</time>
      </trkpt>
      <trkpt lat="42.2626" lon="1.79214">
        <ele>1127.276</ele>
        <time>2019-04-19T12:10:51Z</time>
      </trkpt>
      <trkpt lat="42.26259" lon="1.79217">
        <ele>1127.258</ele>
        <time>2019-04-19T12:10:52Z</time>
      </trkpt>
      <trkpt lat="42.26259" lon="1.79234">
        <ele>1126.352</ele>
        <time>2019-04-19T12:10:57Z</time>
      </trkpt>
      <trkpt lat="42.26256" lon="1.79267">
        <ele>1124.517</ele>
        <time>2019-04-19T12:11:07Z</time>
      </trkpt>
      <trkpt lat="42.26253" lon="1.79278">
        <ele>1124.408</ele>
        <time>2019-04-19T12:11:10Z</time>
      </trkpt>
      <trkpt lat="42.26252" lon="1.79281">
        <ele>1125.998</ele>
        <time>2019-04-19T12:11:11Z</time>
      </trkpt>
      <trkpt lat="42.2625" lon="1.79284">
        <ele>1123.03</ele>
        <time>2019-04-19T12:11:12Z</time>
      </trkpt>
      <trkpt lat="42.26249" lon="1.79286">
        <ele>1124.539</ele>
        <time>2019-04-19T12:11:13Z</time>
      </trkpt>
      <trkpt lat="42.26244" lon="1.79295">
        <ele>1123.537</ele>
        <time>2019-04-19T12:11:17Z</time>
      </trkpt>
      <trkpt lat="42.26241" lon="1.79308">
        <ele>1123.493</ele>
        <time>2019-04-19T12:11:22Z</time>
      </trkpt>
      <trkpt lat="42.26244" lon="1.79315">
        <ele>1123.486</ele>
        <time>2019-04-19T12:11:25Z</time>
      </trkpt>
      <trkpt lat="42.2626" lon="1.79344">
        <ele>1124.089</ele>
        <time>2019-04-19T12:11:38Z</time>
      </trkpt>
      <trkpt lat="42.26261" lon="1.79346">
        <ele>1124.082</ele>
        <time>2019-04-19T12:11:39Z</time>
      </trkpt>
      <trkpt lat="42.26275" lon="1.79374">
        <ele>1121.042</ele>
        <time>2019-04-19T12:11:51Z</time>
      </trkpt>
      <trkpt lat="42.26277" lon="1.79376">
        <ele>1120.522</ele>
        <time>2019-04-19T12:11:52Z</time>
      </trkpt>
      <trkpt lat="42.26278" lon="1.79379">
        <ele>1119.614</ele>
        <time>2019-04-19T12:11:54Z</time>
      </trkpt>
      <trkpt lat="42.26281" lon="1.79383">
        <ele>1119.508</ele>
        <time>2019-04-19T12:11:55Z</time>
      </trkpt>
      <trkpt lat="42.26283" lon="1.79385">
        <ele>1119.697</ele>
        <time>2019-04-19T12:11:56Z</time>
      </trkpt>
      <trkpt lat="42.26285" lon="1.79387">
        <ele>1119.549</ele>
        <time>2019-04-19T12:11:57Z</time>
      </trkpt>
      <trkpt lat="42.26287" lon="1.79389">
        <ele>1119.658</ele>
        <time>2019-04-19T12:11:58Z</time>
      </trkpt>
      <trkpt lat="42.2629" lon="1.79391">
        <ele>1119.626</ele>
        <time>2019-04-19T12:11:59Z</time>
      </trkpt>
      <trkpt lat="42.26308" lon="1.79406">
        <ele>1116.232</ele>
        <time>2019-04-19T12:12:08Z</time>
      </trkpt>
      <trkpt lat="42.26313" lon="1.79409">
        <ele>1114.425</ele>
        <time>2019-04-19T12:12:11Z</time>
      </trkpt>
      <trkpt lat="42.26326" lon="1.79416">
        <ele>1113.428</ele>
        <time>2019-04-19T12:12:17Z</time>
      </trkpt>
      <trkpt lat="42.26343" lon="1.79428">
        <ele>1109.981</ele>
        <time>2019-04-19T12:12:24Z</time>
      </trkpt>
      <trkpt lat="42.26357" lon="1.79444">
        <ele>1109.592</ele>
        <time>2019-04-19T12:12:31Z</time>
      </trkpt>
      <trkpt lat="42.26376" lon="1.7947">
        <ele>1106.173</ele>
        <time>2019-04-19T12:12:41Z</time>
      </trkpt>
      <trkpt lat="42.26377" lon="1.79473">
        <ele>1106.22</ele>
        <time>2019-04-19T12:12:42Z</time>
      </trkpt>
      <trkpt lat="42.26382" lon="1.79493">
        <ele>1104.208</ele>
        <time>2019-04-19T12:12:49Z</time>
      </trkpt>
      <trkpt lat="42.26385" lon="1.79511">
        <ele>1100.852</ele>
        <time>2019-04-19T12:12:55Z</time>
      </trkpt>
      <trkpt lat="42.26386" lon="1.79515">
        <ele>1102.334</ele>
        <time>2019-04-19T12:12:56Z</time>
      </trkpt>
      <trkpt lat="42.26397" lon="1.79533">
        <ele>1099.953</ele>
        <time>2019-04-19T12:13:03Z</time>
      </trkpt>
      <trkpt lat="42.26417" lon="1.79546">
        <ele>1097.011</ele>
        <time>2019-04-19T12:13:13Z</time>
      </trkpt>
      <trkpt lat="42.26424" lon="1.79551">
        <ele>1096.157</ele>
        <time>2019-04-19T12:13:16Z</time>
      </trkpt>
      <trkpt lat="42.26424" lon="1.79553">
        <ele>1095.17</ele>
        <time>2019-04-19T12:13:17Z</time>
      </trkpt>
      <trkpt lat="42.26425" lon="1.79555">
        <ele>1095.023</ele>
        <time>2019-04-19T12:13:18Z</time>
      </trkpt>
      <trkpt lat="42.26423" lon="1.79568">
        <ele>1093.786</ele>
        <time>2019-04-19T12:13:22Z</time>
      </trkpt>
      <trkpt lat="42.26421" lon="1.79569">
        <ele>1092.652</ele>
        <time>2019-04-19T12:13:23Z</time>
      </trkpt>
      <trkpt lat="42.2642" lon="1.79571">
        <ele>1092.653</ele>
        <time>2019-04-19T12:13:24Z</time>
      </trkpt>
      <trkpt lat="42.26418" lon="1.79572">
        <ele>1092.708</ele>
        <time>2019-04-19T12:13:25Z</time>
      </trkpt>
      <trkpt lat="42.26416" lon="1.79573">
        <ele>1092.708</ele>
        <time>2019-04-19T12:13:26Z</time>
      </trkpt>
      <trkpt lat="42.26414" lon="1.79573">
        <ele>1092.618</ele>
        <time>2019-04-19T12:13:27Z</time>
      </trkpt>
      <trkpt lat="42.26389" lon="1.79562">
        <ele>1089.31</ele>
        <time>2019-04-19T12:13:39Z</time>
      </trkpt>
      <trkpt lat="42.26371" lon="1.79557">
        <ele>1086.599</ele>
        <time>2019-04-19T12:13:47Z</time>
      </trkpt>
      <trkpt lat="42.26366" lon="1.79555">
        <ele>1085.027</ele>
        <time>2019-04-19T12:13:49Z</time>
      </trkpt>
      <trkpt lat="42.26361" lon="1.79554">
        <ele>1086.553</ele>
        <time>2019-04-19T12:13:51Z</time>
      </trkpt>
      <trkpt lat="42.26331" lon="1.79562">
        <ele>1084.096</ele>
        <time>2019-04-19T12:14:02Z</time>
      </trkpt>
      <trkpt lat="42.26319" lon="1.79576">
        <ele>1084.699</ele>
        <time>2019-04-19T12:14:09Z</time>
      </trkpt>
      <trkpt lat="42.26318" lon="1.79582">
        <ele>1083.192</ele>
        <time>2019-04-19T12:14:11Z</time>
      </trkpt>
      <trkpt lat="42.26331" lon="1.79601">
        <ele>1079.249</ele>
        <time>2019-04-19T12:14:20Z</time>
      </trkpt>
      <trkpt lat="42.26333" lon="1.79603">
        <ele>1079.202</ele>
        <time>2019-04-19T12:14:21Z</time>
      </trkpt>
      <trkpt lat="42.26356" lon="1.7962">
        <ele>1076.922</ele>
        <time>2019-04-19T12:14:35Z</time>
      </trkpt>
      <trkpt lat="42.26356" lon="1.79617">
        <ele>1076.408</ele>
        <time>2019-04-19T12:15:02Z</time>
      </trkpt>
      <trkpt lat="42.26357" lon="1.79618">
        <ele>1076.487</ele>
        <time>2019-04-19T12:15:03Z</time>
      </trkpt>
      <trkpt lat="42.26359" lon="1.79619">
        <ele>1076.489</ele>
        <time>2019-04-19T12:15:04Z</time>
      </trkpt>
      <trkpt lat="42.26366" lon="1.79623">
        <ele>1075.478</ele>
        <time>2019-04-19T12:15:09Z</time>
      </trkpt>
      <trkpt lat="42.26368" lon="1.79625">
        <ele>1075.486</ele>
        <time>2019-04-19T12:15:10Z</time>
      </trkpt>
      <trkpt lat="42.2637" lon="1.79626">
        <ele>1073.912</ele>
        <time>2019-04-19T12:15:11Z</time>
      </trkpt>
      <trkpt lat="42.26372" lon="1.79628">
        <ele>1073.985</ele>
        <time>2019-04-19T12:15:12Z</time>
      </trkpt>
      <trkpt lat="42.26374" lon="1.79629">
        <ele>1073.578</ele>
        <time>2019-04-19T12:15:13Z</time>
      </trkpt>
      <trkpt lat="42.26388" lon="1.79642">
        <ele>1071.551</ele>
        <time>2019-04-19T12:15:20Z</time>
      </trkpt>
      <trkpt lat="42.264" lon="1.7967">
        <ele>1068.125</ele>
        <time>2019-04-19T12:15:30Z</time>
      </trkpt>
      <trkpt lat="42.26406" lon="1.79692">
        <ele>1066.226</ele>
        <time>2019-04-19T12:15:38Z</time>
      </trkpt>
      <trkpt lat="42.26404" lon="1.79716">
        <ele>1062.408</ele>
        <time>2019-04-19T12:15:45Z</time>
      </trkpt>
      <trkpt lat="42.26404" lon="1.79719">
        <ele>1063.808</ele>
        <time>2019-04-19T12:15:46Z</time>
      </trkpt>
      <trkpt lat="42.26403" lon="1.79722">
        <ele>1063.945</ele>
        <time>2019-04-19T12:15:47Z</time>
      </trkpt>
      <trkpt lat="42.26402" lon="1.79741">
        <ele>1061.447</ele>
        <time>2019-04-19T12:15:52Z</time>
      </trkpt>
      <trkpt lat="42.26401" lon="1.79792">
        <ele>1060.056</ele>
        <time>2019-04-19T12:16:06Z</time>
      </trkpt>
      <trkpt lat="42.26396" lon="1.79828">
        <ele>1056.674</ele>
        <time>2019-04-19T12:16:16Z</time>
      </trkpt>
      <trkpt lat="42.26394" lon="1.79852">
        <ele>1054.35</ele>
        <time>2019-04-19T12:16:24Z</time>
      </trkpt>
      <trkpt lat="42.26394" lon="1.79858">
        <ele>1054.293</ele>
        <time>2019-04-19T12:16:26Z</time>
      </trkpt>
      <trkpt lat="42.26393" lon="1.79861">
        <ele>1054.246</ele>
        <time>2019-04-19T12:16:27Z</time>
      </trkpt>
      <trkpt lat="42.26393" lon="1.79865">
        <ele>1053.319</ele>
        <time>2019-04-19T12:16:28Z</time>
      </trkpt>
      <trkpt lat="42.26392" lon="1.79869">
        <ele>1053.226</ele>
        <time>2019-04-19T12:16:29Z</time>
      </trkpt>
      <trkpt lat="42.26392" lon="1.79873">
        <ele>1053.247</ele>
        <time>2019-04-19T12:16:30Z</time>
      </trkpt>
      <trkpt lat="42.2639" lon="1.79879">
        <ele>1051.911</ele>
        <time>2019-04-19T12:16:32Z</time>
      </trkpt>
      <trkpt lat="42.26389" lon="1.79903">
        <ele>1049.908</ele>
        <time>2019-04-19T12:16:40Z</time>
      </trkpt>
      <trkpt lat="42.264" lon="1.79921">
        <ele>1048.025</ele>
        <time>2019-04-19T12:16:48Z</time>
      </trkpt>
      <trkpt lat="42.26407" lon="1.79949">
        <ele>1046.097</ele>
        <time>2019-04-19T12:16:59Z</time>
      </trkpt>
      <trkpt lat="42.26403" lon="1.7996">
        <ele>1043.796</ele>
        <time>2019-04-19T12:17:03Z</time>
      </trkpt>
      <trkpt lat="42.264" lon="1.79969">
        <ele>1040.764</ele>
        <time>2019-04-19T12:17:06Z</time>
      </trkpt>
      <trkpt lat="42.26399" lon="1.79972">
        <ele>1040.78</ele>
        <time>2019-04-19T12:17:07Z</time>
      </trkpt>
      <trkpt lat="42.26398" lon="1.79979">
        <ele>1042.713</ele>
        <time>2019-04-19T12:17:09Z</time>
      </trkpt>
      <trkpt lat="42.26398" lon="1.79984">
        <ele>1039.986</ele>
        <time>2019-04-19T12:17:11Z</time>
      </trkpt>
      <trkpt lat="42.26404" lon="1.80006">
        <ele>1037.479</ele>
        <time>2019-04-19T12:17:20Z</time>
      </trkpt>
      <trkpt lat="42.26407" lon="1.80028">
        <ele>1034.599</ele>
        <time>2019-04-19T12:17:28Z</time>
      </trkpt>
      <trkpt lat="42.26411" lon="1.80043">
        <ele>1032.107</ele>
        <time>2019-04-19T12:17:34Z</time>
      </trkpt>
      <trkpt lat="42.26412" lon="1.80046">
        <ele>1033.527</ele>
        <time>2019-04-19T12:17:35Z</time>
      </trkpt>
      <trkpt lat="42.26414" lon="1.80057">
        <ele>1030.708</ele>
        <time>2019-04-19T12:17:39Z</time>
      </trkpt>
      <trkpt lat="42.26415" lon="1.80066">
        <ele>1029.892</ele>
        <time>2019-04-19T12:17:42Z</time>
      </trkpt>
      <trkpt lat="42.26414" lon="1.8007">
        <ele>1029.374</ele>
        <time>2019-04-19T12:17:43Z</time>
      </trkpt>
      <trkpt lat="42.2641" lon="1.80074">
        <ele>1028.383</ele>
        <time>2019-04-19T12:17:45Z</time>
      </trkpt>
      <trkpt lat="42.26409" lon="1.80075">
        <ele>1028.371</ele>
        <time>2019-04-19T12:17:46Z</time>
      </trkpt>
      <trkpt lat="42.26407" lon="1.80075">
        <ele>1027.887</ele>
        <time>2019-04-19T12:17:47Z</time>
      </trkpt>
      <trkpt lat="42.26405" lon="1.80077">
        <ele>1027.84</ele>
        <time>2019-04-19T12:17:48Z</time>
      </trkpt>
      <trkpt lat="42.264" lon="1.80077">
        <ele>1026.913</ele>
        <time>2019-04-19T12:17:52Z</time>
      </trkpt>
      <trkpt lat="42.26399" lon="1.80075">
        <ele>1026.326</ele>
        <time>2019-04-19T12:17:53Z</time>
      </trkpt>
      <trkpt lat="42.26398" lon="1.80072">
        <ele>1025.347</ele>
        <time>2019-04-19T12:17:55Z</time>
      </trkpt>
      <trkpt lat="42.26396" lon="1.80064">
        <ele>1024.929</ele>
        <time>2019-04-19T12:17:59Z</time>
      </trkpt>
      <trkpt lat="42.26395" lon="1.80061">
        <ele>1025.021</ele>
        <time>2019-04-19T12:18:00Z</time>
      </trkpt>
      <trkpt lat="42.26393" lon="1.80054">
        <ele>1023.508</ele>
        <time>2019-04-19T12:18:02Z</time>
      </trkpt>
      <trkpt lat="42.26378" lon="1.80025">
        <ele>1020.667</ele>
        <time>2019-04-19T12:18:13Z</time>
      </trkpt>
      <trkpt lat="42.26374" lon="1.80021">
        <ele>1022.179</ele>
        <time>2019-04-19T12:18:15Z</time>
      </trkpt>
      <trkpt lat="42.26366" lon="1.80016">
        <ele>1021.118</ele>
        <time>2019-04-19T12:18:18Z</time>
      </trkpt>
      <trkpt lat="42.26364" lon="1.80015">
        <ele>1022.086</ele>
        <time>2019-04-19T12:18:19Z</time>
      </trkpt>
      <trkpt lat="42.26354" lon="1.80015">
        <ele>1020.232</ele>
        <time>2019-04-19T12:18:23Z</time>
      </trkpt>
      <trkpt lat="42.26352" lon="1.80017">
        <ele>1019.115</ele>
        <time>2019-04-19T12:18:24Z</time>
      </trkpt>
      <trkpt lat="42.2635" lon="1.80019">
        <ele>1019.168</ele>
        <time>2019-04-19T12:18:25Z</time>
      </trkpt>
      <trkpt lat="42.26349" lon="1.80021">
        <ele>1019.231</ele>
        <time>2019-04-19T12:18:26Z</time>
      </trkpt>
      <trkpt lat="42.26348" lon="1.80024">
        <ele>1019.184</ele>
        <time>2019-04-19T12:18:27Z</time>
      </trkpt>
      <trkpt lat="42.26348" lon="1.80027">
        <ele>1018.607</ele>
        <time>2019-04-19T12:18:28Z</time>
      </trkpt>
      <trkpt lat="42.26348" lon="1.8003">
        <ele>1018.617</ele>
        <time>2019-04-19T12:18:29Z</time>
      </trkpt>
      <trkpt lat="42.26348" lon="1.80033">
        <ele>1018.208</ele>
        <time>2019-04-19T12:18:30Z</time>
      </trkpt>
      <trkpt lat="42.26348" lon="1.80035">
        <ele>1018.121</ele>
        <time>2019-04-19T12:18:31Z</time>
      </trkpt>
      <trkpt lat="42.26348" lon="1.80039">
        <ele>1018.113</ele>
        <time>2019-04-19T12:18:32Z</time>
      </trkpt>
      <trkpt lat="42.26339" lon="1.80082">
        <ele>1015.282</ele>
        <time>2019-04-19T12:18:44Z</time>
      </trkpt>
      <trkpt lat="42.26334" lon="1.80114">
        <ele>1014.96</ele>
        <time>2019-04-19T12:18:54Z</time>
      </trkpt>
      <trkpt lat="42.26339" lon="1.80132">
        <ele>1012.866</ele>
        <time>2019-04-19T12:19:02Z</time>
      </trkpt>
      <trkpt lat="42.2634" lon="1.80134">
        <ele>1012.939</ele>
        <time>2019-04-19T12:19:03Z</time>
      </trkpt>
      <trkpt lat="42.26341" lon="1.80137">
        <ele>1012.582</ele>
        <time>2019-04-19T12:19:04Z</time>
      </trkpt>
      <trkpt lat="42.26341" lon="1.80139">
        <ele>1012.465</ele>
        <time>2019-04-19T12:19:05Z</time>
      </trkpt>
      <trkpt lat="42.26342" lon="1.80141">
        <ele>1010.976</ele>
        <time>2019-04-19T12:19:06Z</time>
      </trkpt>
      <trkpt lat="42.26342" lon="1.80143">
        <ele>1010.99</ele>
        <time>2019-04-19T12:19:07Z</time>
      </trkpt>
      <trkpt lat="42.26342" lon="1.80145">
        <ele>1010.919</ele>
        <time>2019-04-19T12:19:08Z</time>
      </trkpt>
      <trkpt lat="42.26342" lon="1.80147">
        <ele>1011.008</ele>
        <time>2019-04-19T12:19:09Z</time>
      </trkpt>
      <trkpt lat="42.26343" lon="1.80149">
        <ele>1010.56</ele>
        <time>2019-04-19T12:19:10Z</time>
      </trkpt>
      <trkpt lat="42.26344" lon="1.8015">
        <ele>1010.572</ele>
        <time>2019-04-19T12:19:11Z</time>
      </trkpt>
      <trkpt lat="42.26345" lon="1.80154">
        <ele>1010.021</ele>
        <time>2019-04-19T12:19:13Z</time>
      </trkpt>
      <trkpt lat="42.26347" lon="1.80161">
        <ele>1008.059</ele>
        <time>2019-04-19T12:19:17Z</time>
      </trkpt>
      <trkpt lat="42.26347" lon="1.80163">
        <ele>1008.025</ele>
        <time>2019-04-19T12:19:18Z</time>
      </trkpt>
      <trkpt lat="42.26348" lon="1.80166">
        <ele>1009.528</ele>
        <time>2019-04-19T12:19:19Z</time>
      </trkpt>
      <trkpt lat="42.26351" lon="1.8018">
        <ele>1008.111</ele>
        <time>2019-04-19T12:19:23Z</time>
      </trkpt>
      <trkpt lat="42.26362" lon="1.80213">
        <ele>1006.244</ele>
        <time>2019-04-19T12:19:32Z</time>
      </trkpt>
      <trkpt lat="42.26368" lon="1.80231">
        <ele>1004.772</ele>
        <time>2019-04-19T12:19:37Z</time>
      </trkpt>
      <trkpt lat="42.26369" lon="1.80235">
        <ele>1004.713</ele>
        <time>2019-04-19T12:19:38Z</time>
      </trkpt>
      <trkpt lat="42.26369" lon="1.80239">
        <ele>1004.314</ele>
        <time>2019-04-19T12:19:39Z</time>
      </trkpt>
      <trkpt lat="42.26371" lon="1.80244">
        <ele>1003.308</ele>
        <time>2019-04-19T12:19:41Z</time>
      </trkpt>
      <trkpt lat="42.26377" lon="1.80266">
        <ele>1000.35</ele>
        <time>2019-04-19T12:19:48Z</time>
      </trkpt>
      <trkpt lat="42.26389" lon="1.80284">
        <ele>998.442</ele>
        <time>2019-04-19T12:19:55Z</time>
      </trkpt>
      <trkpt lat="42.264" lon="1.8031">
        <ele>995.221</ele>
        <time>2019-04-19T12:20:05Z</time>
      </trkpt>
      <trkpt lat="42.26404" lon="1.80323">
        <ele>995.259</ele>
        <time>2019-04-19T12:20:09Z</time>
      </trkpt>
      <trkpt lat="42.26405" lon="1.80326">
        <ele>994.685</ele>
        <time>2019-04-19T12:20:10Z</time>
      </trkpt>
      <trkpt lat="42.26406" lon="1.80329">
        <ele>994.748</ele>
        <time>2019-04-19T12:20:11Z</time>
      </trkpt>
      <trkpt lat="42.26408" lon="1.80335">
        <ele>993.781</ele>
        <time>2019-04-19T12:20:13Z</time>
      </trkpt>
      <trkpt lat="42.26414" lon="1.80353">
        <ele>991.264</ele>
        <time>2019-04-19T12:20:18Z</time>
      </trkpt>
      <trkpt lat="42.26417" lon="1.80372">
        <ele>988.868</ele>
        <time>2019-04-19T12:20:23Z</time>
      </trkpt>
      <trkpt lat="42.26419" lon="1.80389">
        <ele>986.442</ele>
        <time>2019-04-19T12:20:28Z</time>
      </trkpt>
      <trkpt lat="42.26425" lon="1.80405">
        <ele>984.626</ele>
        <time>2019-04-19T12:20:33Z</time>
      </trkpt>
      <trkpt lat="42.26425" lon="1.80408">
        <ele>985.908</ele>
        <time>2019-04-19T12:20:34Z</time>
      </trkpt>
      <trkpt lat="42.26427" lon="1.80419">
        <ele>986.099</ele>
        <time>2019-04-19T12:20:37Z</time>
      </trkpt>
      <trkpt lat="42.26427" lon="1.80422">
        <ele>984.041</ele>
        <time>2019-04-19T12:20:38Z</time>
      </trkpt>
      <trkpt lat="42.26421" lon="1.80456">
        <ele>983.61</ele>
        <time>2019-04-19T12:20:49Z</time>
      </trkpt>
      <trkpt lat="42.26422" lon="1.8046">
        <ele>983.518</ele>
        <time>2019-04-19T12:20:50Z</time>
      </trkpt>
      <trkpt lat="42.26423" lon="1.80467">
        <ele>983.134</ele>
        <time>2019-04-19T12:20:52Z</time>
      </trkpt>
      <trkpt lat="42.26424" lon="1.8047">
        <ele>983.127</ele>
        <time>2019-04-19T12:20:53Z</time>
      </trkpt>
      <trkpt lat="42.26426" lon="1.80489">
        <ele>981.76</ele>
        <time>2019-04-19T12:21:00Z</time>
      </trkpt>
      <trkpt lat="42.26427" lon="1.80502">
        <ele>981.673</ele>
        <time>2019-04-19T12:21:04Z</time>
      </trkpt>
      <trkpt lat="42.26428" lon="1.80506">
        <ele>981.698</ele>
        <time>2019-04-19T12:21:05Z</time>
      </trkpt>
      <trkpt lat="42.26428" lon="1.8051">
        <ele>980.215</ele>
        <time>2019-04-19T12:21:06Z</time>
      </trkpt>
      <trkpt lat="42.2643" lon="1.80518">
        <ele>981.626</ele>
        <time>2019-04-19T12:21:08Z</time>
      </trkpt>
      <trkpt lat="42.2643" lon="1.80521">
        <ele>980.208</ele>
        <time>2019-04-19T12:21:09Z</time>
      </trkpt>
      <trkpt lat="42.26434" lon="1.80546">
        <ele>979.842</ele>
        <time>2019-04-19T12:21:16Z</time>
      </trkpt>
      <trkpt lat="42.26435" lon="1.80552">
        <ele>978.214</ele>
        <time>2019-04-19T12:21:18Z</time>
      </trkpt>
      <trkpt lat="42.2644" lon="1.80589">
        <ele>975.973</ele>
        <time>2019-04-19T12:21:30Z</time>
      </trkpt>
      <trkpt lat="42.26441" lon="1.80601">
        <ele>975.341</ele>
        <time>2019-04-19T12:21:34Z</time>
      </trkpt>
      <trkpt lat="42.26449" lon="1.80647">
        <ele>974.467</ele>
        <time>2019-04-19T12:21:47Z</time>
      </trkpt>
      <trkpt lat="42.26454" lon="1.80674">
        <ele>974.94</ele>
        <time>2019-04-19T12:21:56Z</time>
      </trkpt>
      <trkpt lat="42.26455" lon="1.80686">
        <ele>974.913</ele>
        <time>2019-04-19T12:22:00Z</time>
      </trkpt>
      <trkpt lat="42.26454" lon="1.80693">
        <ele>974.556</ele>
        <time>2019-04-19T12:22:05Z</time>
      </trkpt>
      <trkpt lat="42.26453" lon="1.80694">
        <ele>974.475</ele>
        <time>2019-04-19T12:22:06Z</time>
      </trkpt>
      <trkpt lat="42.26453" lon="1.80699">
        <ele>974.428</ele>
        <time>2019-04-19T12:22:08Z</time>
      </trkpt>
      <trkpt lat="42.26452" lon="1.80702">
        <ele>974.52</ele>
        <time>2019-04-19T12:22:10Z</time>
      </trkpt>
      <trkpt lat="42.26452" lon="1.80704">
        <ele>974.508</ele>
        <time>2019-04-19T12:22:11Z</time>
      </trkpt>
      <trkpt lat="42.26451" lon="1.80706">
        <ele>974.57</ele>
        <time>2019-04-19T12:22:12Z</time>
      </trkpt>
      <trkpt lat="42.26446" lon="1.80718">
        <ele>974.572</ele>
        <time>2019-04-19T12:22:18Z</time>
      </trkpt>
      <trkpt lat="42.2644" lon="1.80719">
        <ele>975.851</ele>
        <time>2019-04-19T12:22:33Z</time>
      </trkpt>
      <trkpt lat="42.26438" lon="1.80708">
        <ele>978.229</ele>
        <time>2019-04-19T12:22:49Z</time>
      </trkpt>
      <trkpt lat="42.26432" lon="1.80701">
        <ele>980.745</ele>
        <time>2019-04-19T12:23:03Z</time>
      </trkpt>
      <trkpt lat="42.26429" lon="1.80692">
        <ele>983.648</ele>
        <time>2019-04-19T12:23:16Z</time>
      </trkpt>
      <trkpt lat="42.26421" lon="1.80685">
        <ele>986.061</ele>
        <time>2019-04-19T12:23:32Z</time>
      </trkpt>
      <trkpt lat="42.26419" lon="1.8067">
        <ele>988.374</ele>
        <time>2019-04-19T12:23:46Z</time>
      </trkpt>
      <trkpt lat="42.26417" lon="1.80657">
        <ele>990.324</ele>
        <time>2019-04-19T12:24:00Z</time>
      </trkpt>
      <trkpt lat="42.26413" lon="1.80643">
        <ele>992.704</ele>
        <time>2019-04-19T12:24:15Z</time>
      </trkpt>
      <trkpt lat="42.26408" lon="1.80624">
        <ele>995.214</ele>
        <time>2019-04-19T12:24:33Z</time>
      </trkpt>
      <trkpt lat="42.26404" lon="1.80607">
        <ele>997.508</ele>
        <time>2019-04-19T12:24:50Z</time>
      </trkpt>
      <trkpt lat="42.264" lon="1.80593">
        <ele>999.935</ele>
        <time>2019-04-19T12:25:06Z</time>
      </trkpt>
      <trkpt lat="42.26395" lon="1.80576">
        <ele>1002.387</ele>
        <time>2019-04-19T12:25:23Z</time>
      </trkpt>
      <trkpt lat="42.26391" lon="1.80557">
        <ele>1004.366</ele>
        <time>2019-04-19T12:25:39Z</time>
      </trkpt>
      <trkpt lat="42.26384" lon="1.80543">
        <ele>1008.034</ele>
        <time>2019-04-19T12:25:53Z</time>
      </trkpt>
      <trkpt lat="42.26379" lon="1.80531">
        <ele>1009.59</ele>
        <time>2019-04-19T12:26:07Z</time>
      </trkpt>
      <trkpt lat="42.26374" lon="1.80516">
        <ele>1011.533</ele>
        <time>2019-04-19T12:26:22Z</time>
      </trkpt>
      <trkpt lat="42.26369" lon="1.805">
        <ele>1013.896</ele>
        <time>2019-04-19T12:26:36Z</time>
      </trkpt>
      <trkpt lat="42.26363" lon="1.80486">
        <ele>1015.749</ele>
        <time>2019-04-19T12:26:50Z</time>
      </trkpt>
      <trkpt lat="42.2636" lon="1.80469">
        <ele>1018.684</ele>
        <time>2019-04-19T12:27:06Z</time>
      </trkpt>
      <trkpt lat="42.26369" lon="1.80473">
        <ele>1018.607</ele>
        <time>2019-04-19T12:27:34Z</time>
      </trkpt>
      <trkpt lat="42.26365" lon="1.80459">
        <ele>1020.217</ele>
        <time>2019-04-19T12:27:47Z</time>
      </trkpt>
      <trkpt lat="42.26352" lon="1.80445">
        <ele>1022.508</ele>
        <time>2019-04-19T12:28:02Z</time>
      </trkpt>
      <trkpt lat="42.26342" lon="1.80433">
        <ele>1025.321</ele>
        <time>2019-04-19T12:28:18Z</time>
      </trkpt>
      <trkpt lat="42.26335" lon="1.80424">
        <ele>1027.843</ele>
        <time>2019-04-19T12:28:32Z</time>
      </trkpt>
      <trkpt lat="42.26328" lon="1.80421">
        <ele>1030.132</ele>
        <time>2019-04-19T12:28:47Z</time>
      </trkpt>
      <trkpt lat="42.26321" lon="1.80417">
        <ele>1032.65</ele>
        <time>2019-04-19T12:29:01Z</time>
      </trkpt>
      <trkpt lat="42.26312" lon="1.80412">
        <ele>1036.526</ele>
        <time>2019-04-19T12:29:16Z</time>
      </trkpt>
      <trkpt lat="42.26304" lon="1.80405">
        <ele>1039.319</ele>
        <time>2019-04-19T12:29:31Z</time>
      </trkpt>
      <trkpt lat="42.26304" lon="1.80394">
        <ele>1042.622</ele>
        <time>2019-04-19T12:29:46Z</time>
      </trkpt>
      <trkpt lat="42.263" lon="1.80387">
        <ele>1045.015</ele>
        <time>2019-04-19T12:29:59Z</time>
      </trkpt>
      <trkpt lat="42.26297" lon="1.80379">
        <ele>1047.999</ele>
        <time>2019-04-19T12:30:13Z</time>
      </trkpt>
      <trkpt lat="42.263" lon="1.80365">
        <ele>1050.807</ele>
        <time>2019-04-19T12:30:29Z</time>
      </trkpt>
      <trkpt lat="42.26296" lon="1.80352">
        <ele>1054.327</ele>
        <time>2019-04-19T12:30:43Z</time>
      </trkpt>
      <trkpt lat="42.26288" lon="1.80342">
        <ele>1057.108</ele>
        <time>2019-04-19T12:30:58Z</time>
      </trkpt>
      <trkpt lat="42.2628" lon="1.80333">
        <ele>1059.682</ele>
        <time>2019-04-19T12:31:12Z</time>
      </trkpt>
      <trkpt lat="42.26275" lon="1.80321">
        <ele>1062.484</ele>
        <time>2019-04-19T12:31:27Z</time>
      </trkpt>
      <trkpt lat="42.26267" lon="1.80311">
        <ele>1064.943</ele>
        <time>2019-04-19T12:31:42Z</time>
      </trkpt>
      <trkpt lat="42.2626" lon="1.80295">
        <ele>1067.231</ele>
        <time>2019-04-19T12:31:56Z</time>
      </trkpt>
      <trkpt lat="42.26258" lon="1.8028">
        <ele>1069.757</ele>
        <time>2019-04-19T12:32:11Z</time>
      </trkpt>
      <trkpt lat="42.26253" lon="1.8027">
        <ele>1072.02</ele>
        <time>2019-04-19T12:32:25Z</time>
      </trkpt>
      <trkpt lat="42.26247" lon="1.80256">
        <ele>1074.493</ele>
        <time>2019-04-19T12:32:39Z</time>
      </trkpt>
      <trkpt lat="42.26244" lon="1.80247">
        <ele>1077.236</ele>
        <time>2019-04-19T12:32:52Z</time>
      </trkpt>
      <trkpt lat="42.26242" lon="1.80234">
        <ele>1079.266</ele>
        <time>2019-04-19T12:33:05Z</time>
      </trkpt>
      <trkpt lat="42.26239" lon="1.80221">
        <ele>1082.529</ele>
        <time>2019-04-19T12:33:17Z</time>
      </trkpt>
      <trkpt lat="42.26228" lon="1.80213">
        <ele>1084.121</ele>
        <time>2019-04-19T12:33:31Z</time>
      </trkpt>
      <trkpt lat="42.26215" lon="1.80204">
        <ele>1086.008</ele>
        <time>2019-04-19T12:33:46Z</time>
      </trkpt>
      <trkpt lat="42.26199" lon="1.80195">
        <ele>1087.919</ele>
        <time>2019-04-19T12:34:00Z</time>
      </trkpt>
      <trkpt lat="42.26192" lon="1.8019">
        <ele>1088.961</ele>
        <time>2019-04-19T12:34:09Z</time>
      </trkpt>
      <trkpt lat="42.26185" lon="1.80186">
        <ele>1089.31</ele>
        <time>2019-04-19T12:34:15Z</time>
      </trkpt>
      <trkpt lat="42.26169" lon="1.80177">
        <ele>1089.828</ele>
        <time>2019-04-19T12:34:29Z</time>
      </trkpt>
      <trkpt lat="42.26154" lon="1.80164">
        <ele>1090.794</ele>
        <time>2019-04-19T12:34:43Z</time>
      </trkpt>
      <trkpt lat="42.26144" lon="1.80153">
        <ele>1091.227</ele>
        <time>2019-04-19T12:34:56Z</time>
      </trkpt>
      <trkpt lat="42.26138" lon="1.80141">
        <ele>1094.69</ele>
        <time>2019-04-19T12:35:13Z</time>
      </trkpt>
      <trkpt lat="42.26129" lon="1.80138">
        <ele>1097.513</ele>
        <time>2019-04-19T12:35:29Z</time>
      </trkpt>
      <trkpt lat="42.26122" lon="1.80131">
        <ele>1100.842</ele>
        <time>2019-04-19T12:35:43Z</time>
      </trkpt>
      <trkpt lat="42.26118" lon="1.80119">
        <ele>1103.722</ele>
        <time>2019-04-19T12:35:58Z</time>
      </trkpt>
      <trkpt lat="42.26106" lon="1.80121">
        <ele>1105.714</ele>
        <time>2019-04-19T12:36:15Z</time>
      </trkpt>
      <trkpt lat="42.26105" lon="1.80109">
        <ele>1109.108</ele>
        <time>2019-04-19T12:36:30Z</time>
      </trkpt>
      <trkpt lat="42.26102" lon="1.80101">
        <ele>1112.397</ele>
        <time>2019-04-19T12:36:44Z</time>
      </trkpt>
      <trkpt lat="42.26099" lon="1.80095">
        <ele>1115.219</ele>
        <time>2019-04-19T12:36:59Z</time>
      </trkpt>
      <trkpt lat="42.26093" lon="1.80092">
        <ele>1117.298</ele>
        <time>2019-04-19T12:37:15Z</time>
      </trkpt>
      <trkpt lat="42.26089" lon="1.80084">
        <ele>1121.126</ele>
        <time>2019-04-19T12:37:27Z</time>
      </trkpt>
      <trkpt lat="42.26087" lon="1.80075">
        <ele>1124.042</ele>
        <time>2019-04-19T12:37:40Z</time>
      </trkpt>
      <trkpt lat="42.26079" lon="1.80071">
        <ele>1127.215</ele>
        <time>2019-04-19T12:37:51Z</time>
      </trkpt>
      <trkpt lat="42.26072" lon="1.80064">
        <ele>1129.618</ele>
        <time>2019-04-19T12:38:05Z</time>
      </trkpt>
      <trkpt lat="42.26065" lon="1.80056">
        <ele>1132.641</ele>
        <time>2019-04-19T12:38:18Z</time>
      </trkpt>
      <trkpt lat="42.26056" lon="1.80052">
        <ele>1135.923</ele>
        <time>2019-04-19T12:38:30Z</time>
      </trkpt>
      <trkpt lat="42.26048" lon="1.80048">
        <ele>1139.383</ele>
        <time>2019-04-19T12:38:45Z</time>
      </trkpt>
      <trkpt lat="42.26041" lon="1.80049">
        <ele>1142.211</ele>
        <time>2019-04-19T12:38:59Z</time>
      </trkpt>
      <trkpt lat="42.26032" lon="1.80045">
        <ele>1146.108</ele>
        <time>2019-04-19T12:39:17Z</time>
      </trkpt>
      <trkpt lat="42.26024" lon="1.80039">
        <ele>1149.065</ele>
        <time>2019-04-19T12:39:33Z</time>
      </trkpt>
      <trkpt lat="42.26014" lon="1.80031">
        <ele>1151.397</ele>
        <time>2019-04-19T12:39:48Z</time>
      </trkpt>
      <trkpt lat="42.26004" lon="1.80022">
        <ele>1154.666</ele>
        <time>2019-04-19T12:40:03Z</time>
      </trkpt>
      <trkpt lat="42.26002" lon="1.80028">
        <ele>1158.024</ele>
        <time>2019-04-19T12:40:20Z</time>
      </trkpt>
      <trkpt lat="42.25995" lon="1.80032">
        <ele>1161.06</ele>
        <time>2019-04-19T12:40:37Z</time>
      </trkpt>
      <trkpt lat="42.25984" lon="1.80033">
        <ele>1164.333</ele>
        <time>2019-04-19T12:40:53Z</time>
      </trkpt>
      <trkpt lat="42.25969" lon="1.80029">
        <ele>1167.766</ele>
        <time>2019-04-19T12:41:11Z</time>
      </trkpt>
      <trkpt lat="42.25962" lon="1.80014">
        <ele>1170.119</ele>
        <time>2019-04-19T12:41:27Z</time>
      </trkpt>
      <trkpt lat="42.25958" lon="1.80002">
        <ele>1171.951</ele>
        <time>2019-04-19T12:41:41Z</time>
      </trkpt>
      <trkpt lat="42.25954" lon="1.79996">
        <ele>1172.401</ele>
        <time>2019-04-19T12:41:59Z</time>
      </trkpt>
      <trkpt lat="42.25951" lon="1.79993">
        <ele>1173.411</ele>
        <time>2019-04-19T12:42:04Z</time>
      </trkpt>
      <trkpt lat="42.25942" lon="1.79989">
        <ele>1175.808</ele>
        <time>2019-04-19T12:42:18Z</time>
      </trkpt>
      <trkpt lat="42.2594" lon="1.79991">
        <ele>1175.858</ele>
        <time>2019-04-19T12:42:41Z</time>
      </trkpt>
      <trkpt lat="42.2594" lon="1.79991">
        <ele>1176.47</ele>
        <time>2019-04-19T12:43:16Z</time>
      </trkpt>
      <trkpt lat="42.25924" lon="1.79985">
        <ele>1176.369</ele>
        <time>2019-04-19T12:43:32Z</time>
      </trkpt>
      <trkpt lat="42.2592" lon="1.79979">
        <ele>1177.327</ele>
        <time>2019-04-19T12:43:37Z</time>
      </trkpt>
      <trkpt lat="42.25916" lon="1.79958">
        <ele>1177.893</ele>
        <time>2019-04-19T12:43:51Z</time>
      </trkpt>
      <trkpt lat="42.25917" lon="1.79941">
        <ele>1181.216</ele>
        <time>2019-04-19T12:44:07Z</time>
      </trkpt>
      <trkpt lat="42.25917" lon="1.79939">
        <ele>1181.749</ele>
        <time>2019-04-19T12:44:08Z</time>
      </trkpt>
      <trkpt lat="42.25917" lon="1.79937">
        <ele>1181.682</ele>
        <time>2019-04-19T12:44:10Z</time>
      </trkpt>
      <trkpt lat="42.25907" lon="1.79921">
        <ele>1184.924</ele>
        <time>2019-04-19T12:44:27Z</time>
      </trkpt>
      <trkpt lat="42.25902" lon="1.79911">
        <ele>1188.304</ele>
        <time>2019-04-19T12:44:41Z</time>
      </trkpt>
      <trkpt lat="42.25902" lon="1.79909">
        <ele>1188.314</ele>
        <time>2019-04-19T12:44:43Z</time>
      </trkpt>
      <trkpt lat="42.25902" lon="1.79899">
        <ele>1190.308</ele>
        <time>2019-04-19T12:44:59Z</time>
      </trkpt>
      <trkpt lat="42.25893" lon="1.79899">
        <ele>1193.255</ele>
        <time>2019-04-19T12:45:15Z</time>
      </trkpt>
      <trkpt lat="42.25894" lon="1.79884">
        <ele>1196.127</ele>
        <time>2019-04-19T12:45:31Z</time>
      </trkpt>
      <trkpt lat="42.25886" lon="1.79881">
        <ele>1199.326</ele>
        <time>2019-04-19T12:45:44Z</time>
      </trkpt>
      <trkpt lat="42.25888" lon="1.79866">
        <ele>1202.244</ele>
        <time>2019-04-19T12:45:58Z</time>
      </trkpt>
      <trkpt lat="42.25887" lon="1.7985">
        <ele>1205.16</ele>
        <time>2019-04-19T12:46:13Z</time>
      </trkpt>
      <trkpt lat="42.25882" lon="1.7985">
        <ele>1208.143</ele>
        <time>2019-04-19T12:46:25Z</time>
      </trkpt>
      <trkpt lat="42.25874" lon="1.79861">
        <ele>1210.086</ele>
        <time>2019-04-19T12:46:39Z</time>
      </trkpt>
      <trkpt lat="42.25862" lon="1.79864">
        <ele>1211.869</ele>
        <time>2019-04-19T12:46:54Z</time>
      </trkpt>
      <trkpt lat="42.25856" lon="1.7986">
        <ele>1214.268</ele>
        <time>2019-04-19T12:47:09Z</time>
      </trkpt>
      <trkpt lat="42.25856" lon="1.7985">
        <ele>1216.642</ele>
        <time>2019-04-19T12:47:24Z</time>
      </trkpt>
      <trkpt lat="42.25852" lon="1.79844">
        <ele>1219.126</ele>
        <time>2019-04-19T12:47:38Z</time>
      </trkpt>
      <trkpt lat="42.25856" lon="1.79836">
        <ele>1222.008</ele>
        <time>2019-04-19T12:47:54Z</time>
      </trkpt>
      <trkpt lat="42.25844" lon="1.79834">
        <ele>1224.949</ele>
        <time>2019-04-19T12:48:09Z</time>
      </trkpt>
      <trkpt lat="42.25843" lon="1.79831">
        <ele>1227.731</ele>
        <time>2019-04-19T12:48:24Z</time>
      </trkpt>
      <trkpt lat="42.2584" lon="1.79826">
        <ele>1230.71</ele>
        <time>2019-04-19T12:48:41Z</time>
      </trkpt>
      <trkpt lat="42.2584" lon="1.79814">
        <ele>1233.688</ele>
        <time>2019-04-19T12:48:57Z</time>
      </trkpt>
      <trkpt lat="42.25834" lon="1.79813">
        <ele>1236.334</ele>
        <time>2019-04-19T12:49:12Z</time>
      </trkpt>
      <trkpt lat="42.25838" lon="1.79793">
        <ele>1239.337</ele>
        <time>2019-04-19T12:49:29Z</time>
      </trkpt>
      <trkpt lat="42.2583" lon="1.79799">
        <ele>1242.15</ele>
        <time>2019-04-19T12:49:45Z</time>
      </trkpt>
      <trkpt lat="42.25815" lon="1.79809">
        <ele>1245.583</ele>
        <time>2019-04-19T12:50:04Z</time>
      </trkpt>
      <trkpt lat="42.25804" lon="1.79809">
        <ele>1248.468</ele>
        <time>2019-04-19T12:50:19Z</time>
      </trkpt>
      <trkpt lat="42.2579" lon="1.79816">
        <ele>1250.842</ele>
        <time>2019-04-19T12:50:36Z</time>
      </trkpt>
      <trkpt lat="42.25777" lon="1.79819">
        <ele>1254.126</ele>
        <time>2019-04-19T12:50:52Z</time>
      </trkpt>
      <trkpt lat="42.25785" lon="1.79805">
        <ele>1256.608</ele>
        <time>2019-04-19T12:51:08Z</time>
      </trkpt>
      <trkpt lat="42.25791" lon="1.7979">
        <ele>1260.069</ele>
        <time>2019-04-19T12:51:28Z</time>
      </trkpt>
      <trkpt lat="42.25785" lon="1.79789">
        <ele>1262.451</ele>
        <time>2019-04-19T12:51:43Z</time>
      </trkpt>
      <trkpt lat="42.25768" lon="1.79791">
        <ele>1265.39</ele>
        <time>2019-04-19T12:52:02Z</time>
      </trkpt>
      <trkpt lat="42.25757" lon="1.79798">
        <ele>1268.668</ele>
        <time>2019-04-19T12:52:17Z</time>
      </trkpt>
      <trkpt lat="42.25748" lon="1.79809">
        <ele>1271.124</ele>
        <time>2019-04-19T12:52:32Z</time>
      </trkpt>
      <trkpt lat="42.25737" lon="1.7981">
        <ele>1274.497</ele>
        <time>2019-04-19T12:52:48Z</time>
      </trkpt>
      <trkpt lat="42.25728" lon="1.79808">
        <ele>1275.81</ele>
        <time>2019-04-19T12:53:04Z</time>
      </trkpt>
      <trkpt lat="42.25715" lon="1.79802">
        <ele>1278.633</ele>
        <time>2019-04-19T12:53:22Z</time>
      </trkpt>
      <trkpt lat="42.25724" lon="1.7979">
        <ele>1281.586</ele>
        <time>2019-04-19T12:53:39Z</time>
      </trkpt>
      <trkpt lat="42.25732" lon="1.79781">
        <ele>1284.96</ele>
        <time>2019-04-19T12:53:55Z</time>
      </trkpt>
      <trkpt lat="42.25733" lon="1.79775">
        <ele>1287.426</ele>
        <time>2019-04-19T12:54:11Z</time>
      </trkpt>
      <trkpt lat="42.25721" lon="1.79768">
        <ele>1290.308</ele>
        <time>2019-04-19T12:54:28Z</time>
      </trkpt>
      <trkpt lat="42.25732" lon="1.79761">
        <ele>1293.251</ele>
        <time>2019-04-19T12:54:44Z</time>
      </trkpt>
      <trkpt lat="42.25746" lon="1.79751">
        <ele>1295.943</ele>
        <time>2019-04-19T12:55:03Z</time>
      </trkpt>
      <trkpt lat="42.25745" lon="1.79742">
        <ele>1299.332</ele>
        <time>2019-04-19T12:55:18Z</time>
      </trkpt>
      <trkpt lat="42.25728" lon="1.79739">
        <ele>1302.37</ele>
        <time>2019-04-19T12:55:36Z</time>
      </trkpt>
      <trkpt lat="42.25712" lon="1.79738">
        <ele>1305.286</ele>
        <time>2019-04-19T12:55:53Z</time>
      </trkpt>
      <trkpt lat="42.25698" lon="1.79737">
        <ele>1307.519</ele>
        <time>2019-04-19T12:56:09Z</time>
      </trkpt>
      <trkpt lat="42.25683" lon="1.7975">
        <ele>1308.942</ele>
        <time>2019-04-19T12:56:27Z</time>
      </trkpt>
      <trkpt lat="42.2567" lon="1.79758">
        <ele>1311.415</ele>
        <time>2019-04-19T12:56:43Z</time>
      </trkpt>
      <trkpt lat="42.25665" lon="1.79755">
        <ele>1314.764</ele>
        <time>2019-04-19T12:56:55Z</time>
      </trkpt>
      <trkpt lat="42.25659" lon="1.79757">
        <ele>1315.206</ele>
        <time>2019-04-19T12:57:10Z</time>
      </trkpt>
      <trkpt lat="42.25643" lon="1.79757">
        <ele>1317.716</ele>
        <time>2019-04-19T12:57:25Z</time>
      </trkpt>
      <trkpt lat="42.25627" lon="1.79759">
        <ele>1320.008</ele>
        <time>2019-04-19T12:57:40Z</time>
      </trkpt>
      <trkpt lat="42.25612" lon="1.79759">
        <ele>1322.019</ele>
        <time>2019-04-19T12:57:56Z</time>
      </trkpt>
      <trkpt lat="42.25593" lon="1.79765">
        <ele>1322.581</ele>
        <time>2019-04-19T12:58:11Z</time>
      </trkpt>
      <trkpt lat="42.25582" lon="1.79775">
        <ele>1324.47</ele>
        <time>2019-04-19T12:58:25Z</time>
      </trkpt>
      <trkpt lat="42.25573" lon="1.79786">
        <ele>1326.398</ele>
        <time>2019-04-19T12:58:36Z</time>
      </trkpt>
      <trkpt lat="42.25563" lon="1.79799">
        <ele>1328.224</ele>
        <time>2019-04-19T12:58:51Z</time>
      </trkpt>
      <trkpt lat="42.25556" lon="1.79805">
        <ele>1329.217</ele>
        <time>2019-04-19T12:58:58Z</time>
      </trkpt>
      <trkpt lat="42.25549" lon="1.79809">
        <ele>1329.79</ele>
        <time>2019-04-19T12:59:04Z</time>
      </trkpt>
      <trkpt lat="42.25541" lon="1.7982">
        <ele>1329.623</ele>
        <time>2019-04-19T12:59:13Z</time>
      </trkpt>
      <trkpt lat="42.2554" lon="1.79823">
        <ele>1329.611</ele>
        <time>2019-04-19T12:59:15Z</time>
      </trkpt>
      <trkpt lat="42.25538" lon="1.79828">
        <ele>1329.621</ele>
        <time>2019-04-19T12:59:19Z</time>
      </trkpt>
      <trkpt lat="42.25528" lon="1.79851">
        <ele>1330.603</ele>
        <time>2019-04-19T12:59:34Z</time>
      </trkpt>
      <trkpt lat="42.25521" lon="1.7986">
        <ele>1331.008</ele>
        <time>2019-04-19T12:59:41Z</time>
      </trkpt>
      <trkpt lat="42.25504" lon="1.79883">
        <ele>1333.514</ele>
        <time>2019-04-19T12:59:59Z</time>
      </trkpt>
      <trkpt lat="42.25494" lon="1.79901">
        <ele>1336.316</ele>
        <time>2019-04-19T13:00:16Z</time>
      </trkpt>
      <trkpt lat="42.25487" lon="1.79913">
        <ele>1338.245</ele>
        <time>2019-04-19T13:00:29Z</time>
      </trkpt>
      <trkpt lat="42.25481" lon="1.79931">
        <ele>1339.823</ele>
        <time>2019-04-19T13:00:44Z</time>
      </trkpt>
      <trkpt lat="42.2548" lon="1.79946">
        <ele>1340.299</ele>
        <time>2019-04-19T13:00:53Z</time>
      </trkpt>
      <trkpt lat="42.25483" lon="1.79956">
        <ele>1338.842</ele>
        <time>2019-04-19T13:01:00Z</time>
      </trkpt>
      <trkpt lat="42.2548" lon="1.79964">
        <ele>1337.925</ele>
        <time>2019-04-19T13:01:06Z</time>
      </trkpt>
      <trkpt lat="42.25476" lon="1.79964">
        <ele>1337.398</ele>
        <time>2019-04-19T13:01:08Z</time>
      </trkpt>
      <trkpt lat="42.25461" lon="1.79947">
        <ele>1337.318</ele>
        <time>2019-04-19T13:01:24Z</time>
      </trkpt>
      <trkpt lat="42.2546" lon="1.79946">
        <ele>1337.398</ele>
        <time>2019-04-19T13:01:25Z</time>
      </trkpt>
      <trkpt lat="42.25454" lon="1.79939">
        <ele>1337.417</ele>
        <time>2019-04-19T13:01:31Z</time>
      </trkpt>
      <trkpt lat="42.25449" lon="1.79933">
        <ele>1336.908</ele>
        <time>2019-04-19T13:01:38Z</time>
      </trkpt>
      <trkpt lat="42.25437" lon="1.79926">
        <ele>1335.484</ele>
        <time>2019-04-19T13:01:48Z</time>
      </trkpt>
      <trkpt lat="42.25428" lon="1.79926">
        <ele>1335.986</ele>
        <time>2019-04-19T13:01:58Z</time>
      </trkpt>
      <trkpt lat="42.25422" lon="1.79926">
        <ele>1336.395</ele>
        <time>2019-04-19T13:02:03Z</time>
      </trkpt>
      <trkpt lat="42.25405" lon="1.79939">
        <ele>1336.953</ele>
        <time>2019-04-19T13:02:17Z</time>
      </trkpt>
      <trkpt lat="42.25402" lon="1.79955">
        <ele>1339.829</ele>
        <time>2019-04-19T13:02:31Z</time>
      </trkpt>
      <trkpt lat="42.25401" lon="1.79963">
        <ele>1341.192</ele>
        <time>2019-04-19T13:02:39Z</time>
      </trkpt>
      <trkpt lat="42.25397" lon="1.79978">
        <ele>1343.655</ele>
        <time>2019-04-19T13:02:52Z</time>
      </trkpt>
      <trkpt lat="42.25392" lon="1.79988">
        <ele>1345.698</ele>
        <time>2019-04-19T13:03:03Z</time>
      </trkpt>
      <trkpt lat="42.25387" lon="1.80002">
        <ele>1348.383</ele>
        <time>2019-04-19T13:03:18Z</time>
      </trkpt>
      <trkpt lat="42.25382" lon="1.80012">
        <ele>1351.725</ele>
        <time>2019-04-19T13:03:33Z</time>
      </trkpt>
      <trkpt lat="42.25377" lon="1.80023">
        <ele>1354.217</ele>
        <time>2019-04-19T13:03:48Z</time>
      </trkpt>
      <trkpt lat="42.25373" lon="1.80035">
        <ele>1357.108</ele>
        <time>2019-04-19T13:04:02Z</time>
      </trkpt>
      <trkpt lat="42.25371" lon="1.80044">
        <ele>1359.051</ele>
        <time>2019-04-19T13:04:13Z</time>
      </trkpt>
      <trkpt lat="42.2537" lon="1.80049">
        <ele>1360.013</ele>
        <time>2019-04-19T13:04:18Z</time>
      </trkpt>
      <trkpt lat="42.25368" lon="1.80053">
        <ele>1360.412</ele>
        <time>2019-04-19T13:04:21Z</time>
      </trkpt>
      <trkpt lat="42.25357" lon="1.80066">
        <ele>1360.51</ele>
        <time>2019-04-19T13:04:35Z</time>
      </trkpt>
      <trkpt lat="42.25355" lon="1.80082">
        <ele>1363.856</ele>
        <time>2019-04-19T13:04:53Z</time>
      </trkpt>
      <trkpt lat="42.25356" lon="1.80092">
        <ele>1367.259</ele>
        <time>2019-04-19T13:05:09Z</time>
      </trkpt>
      <trkpt lat="42.25357" lon="1.801">
        <ele>1370.182</ele>
        <time>2019-04-19T13:05:21Z</time>
      </trkpt>
      <trkpt lat="42.25359" lon="1.80111">
        <ele>1373.065</ele>
        <time>2019-04-19T13:05:37Z</time>
      </trkpt>
      <trkpt lat="42.25364" lon="1.80122">
        <ele>1373.839</ele>
        <time>2019-04-19T13:05:50Z</time>
      </trkpt>
      <trkpt lat="42.25363" lon="1.80134">
        <ele>1374.301</ele>
        <time>2019-04-19T13:06:02Z</time>
      </trkpt>
      <trkpt lat="42.25362" lon="1.80147">
        <ele>1375.821</ele>
        <time>2019-04-19T13:06:15Z</time>
      </trkpt>
      <trkpt lat="42.25361" lon="1.80159">
        <ele>1377.308</ele>
        <time>2019-04-19T13:06:32Z</time>
      </trkpt>
      <trkpt lat="42.2536" lon="1.80166">
        <ele>1378.126</ele>
        <time>2019-04-19T13:06:45Z</time>
      </trkpt>
      <trkpt lat="42.25359" lon="1.80167">
        <ele>1379.178</ele>
        <time>2019-04-19T13:07:13Z</time>
      </trkpt>
      <trkpt lat="42.25358" lon="1.80173">
        <ele>1377.787</ele>
        <time>2019-04-19T13:07:21Z</time>
      </trkpt>
      <trkpt lat="42.25358" lon="1.80185">
        <ele>1379.245</ele>
        <time>2019-04-19T13:07:33Z</time>
      </trkpt>
      <trkpt lat="42.25359" lon="1.80201">
        <ele>1380.251</ele>
        <time>2019-04-19T13:07:47Z</time>
      </trkpt>
      <trkpt lat="42.25359" lon="1.80205">
        <ele>1378.764</ele>
        <time>2019-04-19T13:07:52Z</time>
      </trkpt>
      <trkpt lat="42.25359" lon="1.8022">
        <ele>1378.717</ele>
        <time>2019-04-19T13:08:06Z</time>
      </trkpt>
      <trkpt lat="42.25355" lon="1.80242">
        <ele>1380.65</ele>
        <time>2019-04-19T13:08:25Z</time>
      </trkpt>
      <trkpt lat="42.25352" lon="1.80248">
        <ele>1379.136</ele>
        <time>2019-04-19T13:08:30Z</time>
      </trkpt>
      <trkpt lat="42.25355" lon="1.80251">
        <ele>1379.117</ele>
        <time>2019-04-19T13:08:53Z</time>
      </trkpt>
      <trkpt lat="42.25351" lon="1.80248">
        <ele>1379.218</ele>
        <time>2019-04-19T13:09:24Z</time>
      </trkpt>
      <trkpt lat="42.25353" lon="1.80252">
        <ele>1379.208</ele>
        <time>2019-04-19T13:09:52Z</time>
      </trkpt>
      <trkpt lat="42.2535" lon="1.80266">
        <ele>1382.636</ele>
        <time>2019-04-19T13:10:09Z</time>
      </trkpt>
      <trkpt lat="42.25345" lon="1.80285">
        <ele>1385.898</ele>
        <time>2019-04-19T13:10:28Z</time>
      </trkpt>
      <trkpt lat="42.25341" lon="1.80296">
        <ele>1387.417</ele>
        <time>2019-04-19T13:10:41Z</time>
      </trkpt>
      <trkpt lat="42.25344" lon="1.80314">
        <ele>1390.225</ele>
        <time>2019-04-19T13:10:57Z</time>
      </trkpt>
      <trkpt lat="42.25345" lon="1.80332">
        <ele>1388.231</ele>
        <time>2019-04-19T13:11:11Z</time>
      </trkpt>
      <trkpt lat="42.25342" lon="1.8035">
        <ele>1388.274</ele>
        <time>2019-04-19T13:11:25Z</time>
      </trkpt>
      <trkpt lat="42.25342" lon="1.80358">
        <ele>1388.227</ele>
        <time>2019-04-19T13:11:30Z</time>
      </trkpt>
      <trkpt lat="42.25344" lon="1.80371">
        <ele>1389.27</ele>
        <time>2019-04-19T13:11:40Z</time>
      </trkpt>
      <trkpt lat="42.25349" lon="1.80391">
        <ele>1391.186</ele>
        <time>2019-04-19T13:11:55Z</time>
      </trkpt>
      <trkpt lat="42.25349" lon="1.80416">
        <ele>1392.16</ele>
        <time>2019-04-19T13:12:11Z</time>
      </trkpt>
      <trkpt lat="42.25345" lon="1.80429">
        <ele>1392.126</ele>
        <time>2019-04-19T13:12:25Z</time>
      </trkpt>
      <trkpt lat="42.25349" lon="1.80448">
        <ele>1395.108</ele>
        <time>2019-04-19T13:12:40Z</time>
      </trkpt>
      <trkpt lat="42.25351" lon="1.80462">
        <ele>1397.941</ele>
        <time>2019-04-19T13:12:55Z</time>
      </trkpt>
      <trkpt lat="42.25353" lon="1.80472">
        <ele>1401.393</ele>
        <time>2019-04-19T13:13:10Z</time>
      </trkpt>
      <trkpt lat="42.25356" lon="1.80482">
        <ele>1404.132</ele>
        <time>2019-04-19T13:13:23Z</time>
      </trkpt>
      <trkpt lat="42.25356" lon="1.80493">
        <ele>1406.66</ele>
        <time>2019-04-19T13:13:36Z</time>
      </trkpt>
      <trkpt lat="42.25356" lon="1.80501">
        <ele>1409.956</ele>
        <time>2019-04-19T13:13:50Z</time>
      </trkpt>
      <trkpt lat="42.25356" lon="1.8051">
        <ele>1413.329</ele>
        <time>2019-04-19T13:14:03Z</time>
      </trkpt>
      <trkpt lat="42.25357" lon="1.80519">
        <ele>1416.722</ele>
        <time>2019-04-19T13:14:18Z</time>
      </trkpt>
      <trkpt lat="42.25356" lon="1.80531">
        <ele>1419.065</ele>
        <time>2019-04-19T13:14:34Z</time>
      </trkpt>
      <trkpt lat="42.25356" lon="1.80544">
        <ele>1422.494</ele>
        <time>2019-04-19T13:14:48Z</time>
      </trkpt>
      <trkpt lat="42.25353" lon="1.8056">
        <ele>1425.757</ele>
        <time>2019-04-19T13:15:07Z</time>
      </trkpt>
      <trkpt lat="42.2535" lon="1.80576">
        <ele>1428.622</ele>
        <time>2019-04-19T13:15:22Z</time>
      </trkpt>
      <trkpt lat="42.2535" lon="1.80587">
        <ele>1432.108</ele>
        <time>2019-04-19T13:15:38Z</time>
      </trkpt>
      <trkpt lat="42.25352" lon="1.80601">
        <ele>1434.432</ele>
        <time>2019-04-19T13:15:53Z</time>
      </trkpt>
      <trkpt lat="42.25354" lon="1.80615">
        <ele>1436.384</ele>
        <time>2019-04-19T13:16:09Z</time>
      </trkpt>
      <trkpt lat="42.25357" lon="1.80629">
        <ele>1438.353</ele>
        <time>2019-04-19T13:16:23Z</time>
      </trkpt>
      <trkpt lat="42.25358" lon="1.80643">
        <ele>1439.741</ele>
        <time>2019-04-19T13:16:34Z</time>
      </trkpt>
      <trkpt lat="42.25358" lon="1.80659">
        <ele>1441.757</ele>
        <time>2019-04-19T13:16:48Z</time>
      </trkpt>
      <trkpt lat="42.25358" lon="1.80679">
        <ele>1442.62</ele>
        <time>2019-04-19T13:17:03Z</time>
      </trkpt>
      <trkpt lat="42.25358" lon="1.80683">
        <ele>1442.653</ele>
        <time>2019-04-19T13:17:05Z</time>
      </trkpt>
      <trkpt lat="42.25357" lon="1.80686">
        <ele>1442.716</ele>
        <time>2019-04-19T13:17:06Z</time>
      </trkpt>
      <trkpt lat="42.2536" lon="1.80703">
        <ele>1443.567</ele>
        <time>2019-04-19T13:17:18Z</time>
      </trkpt>
      <trkpt lat="42.25364" lon="1.80719">
        <ele>1445.081</ele>
        <time>2019-04-19T13:17:30Z</time>
      </trkpt>
      <trkpt lat="42.25364" lon="1.80725">
        <ele>1445.419</ele>
        <time>2019-04-19T13:17:35Z</time>
      </trkpt>
      <trkpt lat="42.25367" lon="1.80743">
        <ele>1446.508</ele>
        <time>2019-04-19T13:17:48Z</time>
      </trkpt>
      <trkpt lat="42.25376" lon="1.80781">
        <ele>1446.949</ele>
        <time>2019-04-19T13:18:00Z</time>
      </trkpt>
      <trkpt lat="42.2538" lon="1.80782">
        <ele>1447.591</ele>
        <time>2019-04-19T13:18:04Z</time>
      </trkpt>
      <trkpt lat="42.25377" lon="1.80804">
        <ele>1448.33</ele>
        <time>2019-04-19T13:18:20Z</time>
      </trkpt>
      <trkpt lat="42.25378" lon="1.80819">
        <ele>1448.968</ele>
        <time>2019-04-19T13:18:31Z</time>
      </trkpt>
      <trkpt lat="42.25377" lon="1.80837">
        <ele>1451.334</ele>
        <time>2019-04-19T13:18:47Z</time>
      </trkpt>
      <trkpt lat="42.25379" lon="1.80857">
        <ele>1453.757</ele>
        <time>2019-04-19T13:19:02Z</time>
      </trkpt>
      <trkpt lat="42.25375" lon="1.80875">
        <ele>1456.66</ele>
        <time>2019-04-19T13:19:18Z</time>
      </trkpt>
      <trkpt lat="42.2538" lon="1.80886">
        <ele>1459.923</ele>
        <time>2019-04-19T13:19:34Z</time>
      </trkpt>
      <trkpt lat="42.25383" lon="1.80899">
        <ele>1462.319</ele>
        <time>2019-04-19T13:19:48Z</time>
      </trkpt>
      <trkpt lat="42.25387" lon="1.80914">
        <ele>1464.209</ele>
        <time>2019-04-19T13:19:59Z</time>
      </trkpt>
      <trkpt lat="42.25387" lon="1.80915">
        <ele>1464.219</ele>
        <time>2019-04-19T13:20:00Z</time>
      </trkpt>
      <trkpt lat="42.25389" lon="1.80925">
        <ele>1466.608</ele>
        <time>2019-04-19T13:20:13Z</time>
      </trkpt>
      <trkpt lat="42.25383" lon="1.80937">
        <ele>1469.124</ele>
        <time>2019-04-19T13:20:28Z</time>
      </trkpt>
      <trkpt lat="42.25379" lon="1.80953">
        <ele>1470.926</ele>
        <time>2019-04-19T13:20:44Z</time>
      </trkpt>
      <trkpt lat="42.25381" lon="1.80958">
        <ele>1471.915</ele>
        <time>2019-04-19T13:20:49Z</time>
      </trkpt>
      <trkpt lat="42.25384" lon="1.80976">
        <ele>1474.473</ele>
        <time>2019-04-19T13:21:04Z</time>
      </trkpt>
      <trkpt lat="42.25384" lon="1.8099">
        <ele>1475.729</ele>
        <time>2019-04-19T13:21:16Z</time>
      </trkpt>
      <trkpt lat="42.2538" lon="1.81009">
        <ele>1477.322</ele>
        <time>2019-04-19T13:21:30Z</time>
      </trkpt>
      <trkpt lat="42.2538" lon="1.81014">
        <ele>1477.635</ele>
        <time>2019-04-19T13:21:34Z</time>
      </trkpt>
      <trkpt lat="42.25384" lon="1.81031">
        <ele>1478.798</ele>
        <time>2019-04-19T13:21:47Z</time>
      </trkpt>
      <trkpt lat="42.25383" lon="1.81041">
        <ele>1480.589</ele>
        <time>2019-04-19T13:21:56Z</time>
      </trkpt>
      <trkpt lat="42.25383" lon="1.81056">
        <ele>1481.006</ele>
        <time>2019-04-19T13:22:08Z</time>
      </trkpt>
      <trkpt lat="42.25385" lon="1.81066">
        <ele>1482.126</ele>
        <time>2019-04-19T13:22:16Z</time>
      </trkpt>
      <trkpt lat="42.25391" lon="1.81087">
        <ele>1484.008</ele>
        <time>2019-04-19T13:22:32Z</time>
      </trkpt>
      <trkpt lat="42.25389" lon="1.81106">
        <ele>1486.381</ele>
        <time>2019-04-19T13:22:45Z</time>
      </trkpt>
      <trkpt lat="42.2539" lon="1.81117">
        <ele>1486.933</ele>
        <time>2019-04-19T13:22:53Z</time>
      </trkpt>
      <trkpt lat="42.25393" lon="1.81123">
        <ele>1487.322</ele>
        <time>2019-04-19T13:22:58Z</time>
      </trkpt>
      <trkpt lat="42.25395" lon="1.81137">
        <ele>1488.71</ele>
        <time>2019-04-19T13:23:11Z</time>
      </trkpt>
      <trkpt lat="42.25392" lon="1.81157">
        <ele>1490.116</ele>
        <time>2019-04-19T13:23:24Z</time>
      </trkpt>
      <trkpt lat="42.25392" lon="1.81171">
        <ele>1491.699</ele>
        <time>2019-04-19T13:23:34Z</time>
      </trkpt>
      <trkpt lat="42.25392" lon="1.81181">
        <ele>1491.742</ele>
        <time>2019-04-19T13:23:41Z</time>
      </trkpt>
      <trkpt lat="42.25394" lon="1.81185">
        <ele>1491.695</ele>
        <time>2019-04-19T13:23:44Z</time>
      </trkpt>
      <trkpt lat="42.25391" lon="1.81198">
        <ele>1493.591</ele>
        <time>2019-04-19T13:23:56Z</time>
      </trkpt>
      <trkpt lat="42.2539" lon="1.812">
        <ele>1494.081</ele>
        <time>2019-04-19T13:23:59Z</time>
      </trkpt>
      <trkpt lat="42.25386" lon="1.81227">
        <ele>1495.519</ele>
        <time>2019-04-19T13:24:11Z</time>
      </trkpt>
      <trkpt lat="42.2538" lon="1.81233">
        <ele>1498.408</ele>
        <time>2019-04-19T13:24:23Z</time>
      </trkpt>
      <trkpt lat="42.25376" lon="1.81245">
        <ele>1500.872</ele>
        <time>2019-04-19T13:24:36Z</time>
      </trkpt>
      <trkpt lat="42.25371" lon="1.81255">
        <ele>1503.634</ele>
        <time>2019-04-19T13:24:49Z</time>
      </trkpt>
      <trkpt lat="42.25368" lon="1.81263">
        <ele>1504.743</ele>
        <time>2019-04-19T13:25:03Z</time>
      </trkpt>
      <trkpt lat="42.25361" lon="1.8127">
        <ele>1507.171</ele>
        <time>2019-04-19T13:25:17Z</time>
      </trkpt>
      <trkpt lat="42.25353" lon="1.81278">
        <ele>1509.957</ele>
        <time>2019-04-19T13:25:33Z</time>
      </trkpt>
      <trkpt lat="42.25347" lon="1.81289">
        <ele>1513.35</ele>
        <time>2019-04-19T13:25:47Z</time>
      </trkpt>
      <trkpt lat="42.25343" lon="1.81297">
        <ele>1514.643</ele>
        <time>2019-04-19T13:25:57Z</time>
      </trkpt>
      <trkpt lat="42.2534" lon="1.81313">
        <ele>1516.616</ele>
        <time>2019-04-19T13:26:10Z</time>
      </trkpt>
      <trkpt lat="42.25334" lon="1.81326">
        <ele>1519.045</ele>
        <time>2019-04-19T13:26:23Z</time>
      </trkpt>
      <trkpt lat="42.25328" lon="1.81337">
        <ele>1520.447</ele>
        <time>2019-04-19T13:26:35Z</time>
      </trkpt>
      <trkpt lat="42.25327" lon="1.81354">
        <ele>1521.911</ele>
        <time>2019-04-19T13:26:48Z</time>
      </trkpt>
      <trkpt lat="42.25326" lon="1.81375">
        <ele>1521.908</ele>
        <time>2019-04-19T13:27:00Z</time>
      </trkpt>
      <trkpt lat="42.25328" lon="1.81382">
        <ele>1521.967</ele>
        <time>2019-04-19T13:27:04Z</time>
      </trkpt>
      <trkpt lat="42.2533" lon="1.81388">
        <ele>1520.579</ele>
        <time>2019-04-19T13:27:08Z</time>
      </trkpt>
      <trkpt lat="42.25333" lon="1.81394">
        <ele>1519.988</ele>
        <time>2019-04-19T13:27:13Z</time>
      </trkpt>
      <trkpt lat="42.25333" lon="1.81404">
        <ele>1518.516</ele>
        <time>2019-04-19T13:27:19Z</time>
      </trkpt>
      <trkpt lat="42.25333" lon="1.81426">
        <ele>1515.612</ele>
        <time>2019-04-19T13:27:32Z</time>
      </trkpt>
      <trkpt lat="42.25333" lon="1.81429">
        <ele>1514.675</ele>
        <time>2019-04-19T13:27:36Z</time>
      </trkpt>
      <trkpt lat="42.25334" lon="1.81439">
        <ele>1513.728</ele>
        <time>2019-04-19T13:27:42Z</time>
      </trkpt>
      <trkpt lat="42.25333" lon="1.81442">
        <ele>1513.311</ele>
        <time>2019-04-19T13:27:44Z</time>
      </trkpt>
      <trkpt lat="42.25334" lon="1.81457">
        <ele>1511.326</ele>
        <time>2019-04-19T13:27:53Z</time>
      </trkpt>
      <trkpt lat="42.25333" lon="1.81482">
        <ele>1507.947</ele>
        <time>2019-04-19T13:28:06Z</time>
      </trkpt>
      <trkpt lat="42.25337" lon="1.81498">
        <ele>1506.511</ele>
        <time>2019-04-19T13:28:18Z</time>
      </trkpt>
      <trkpt lat="42.25337" lon="1.81521">
        <ele>1504.708</ele>
        <time>2019-04-19T13:28:30Z</time>
      </trkpt>
      <trkpt lat="42.25336" lon="1.81544">
        <ele>1503.615</ele>
        <time>2019-04-19T13:28:44Z</time>
      </trkpt>
      <trkpt lat="42.25336" lon="1.8155">
        <ele>1503.797</ele>
        <time>2019-04-19T13:28:48Z</time>
      </trkpt>
      <trkpt lat="42.25336" lon="1.81564">
        <ele>1502.726</ele>
        <time>2019-04-19T13:28:58Z</time>
      </trkpt>
      <trkpt lat="42.25337" lon="1.81583">
        <ele>1501.764</ele>
        <time>2019-04-19T13:29:06Z</time>
      </trkpt>
      <trkpt lat="42.25338" lon="1.81598">
        <ele>1499.81</ele>
        <time>2019-04-19T13:29:14Z</time>
      </trkpt>
      <trkpt lat="42.25339" lon="1.81608">
        <ele>1498.393</ele>
        <time>2019-04-19T13:29:19Z</time>
      </trkpt>
      <trkpt lat="42.25339" lon="1.81625">
        <ele>1495.536</ele>
        <time>2019-04-19T13:29:28Z</time>
      </trkpt>
      <trkpt lat="42.2534" lon="1.81634">
        <ele>1493.569</ele>
        <time>2019-04-19T13:29:33Z</time>
      </trkpt>
      <trkpt lat="42.25341" lon="1.81643">
        <ele>1491.176</ele>
        <time>2019-04-19T13:29:39Z</time>
      </trkpt>
      <trkpt lat="42.2534" lon="1.81655">
        <ele>1487.39</ele>
        <time>2019-04-19T13:29:48Z</time>
      </trkpt>
      <trkpt lat="42.2534" lon="1.81657">
        <ele>1486.419</ele>
        <time>2019-04-19T13:29:50Z</time>
      </trkpt>
      <trkpt lat="42.2534" lon="1.81659">
        <ele>1485.808</ele>
        <time>2019-04-19T13:29:52Z</time>
      </trkpt>
      <trkpt lat="42.25341" lon="1.81661">
        <ele>1484.96</ele>
        <time>2019-04-19T13:29:53Z</time>
      </trkpt>
      <trkpt lat="42.25343" lon="1.8167">
        <ele>1482.592</ele>
        <time>2019-04-19T13:30:04Z</time>
      </trkpt>
      <trkpt lat="42.25344" lon="1.81675">
        <ele>1481.071</ele>
        <time>2019-04-19T13:30:08Z</time>
      </trkpt>
      <trkpt lat="42.25346" lon="1.81696">
        <ele>1477.759</ele>
        <time>2019-04-19T13:30:21Z</time>
      </trkpt>
      <trkpt lat="42.25347" lon="1.81711">
        <ele>1474.885</ele>
        <time>2019-04-19T13:30:34Z</time>
      </trkpt>
      <trkpt lat="42.2535" lon="1.81722">
        <ele>1472.028</ele>
        <time>2019-04-19T13:30:43Z</time>
      </trkpt>
      <trkpt lat="42.2535" lon="1.81732">
        <ele>1471.441</ele>
        <time>2019-04-19T13:30:47Z</time>
      </trkpt>
      <trkpt lat="42.2535" lon="1.81744">
        <ele>1471.014</ele>
        <time>2019-04-19T13:30:53Z</time>
      </trkpt>
      <trkpt lat="42.25349" lon="1.81771">
        <ele>1469.938</ele>
        <time>2019-04-19T13:31:05Z</time>
      </trkpt>
      <trkpt lat="42.25351" lon="1.81782">
        <ele>1470.97</ele>
        <time>2019-04-19T13:31:10Z</time>
      </trkpt>
      <trkpt lat="42.25354" lon="1.81791">
        <ele>1471.417</ele>
        <time>2019-04-19T13:31:17Z</time>
      </trkpt>
      <trkpt lat="42.25362" lon="1.81806">
        <ele>1470.508</ele>
        <time>2019-04-19T13:31:28Z</time>
      </trkpt>
      <trkpt lat="42.25362" lon="1.81807">
        <ele>1470.566</ele>
        <time>2019-04-19T13:31:29Z</time>
      </trkpt>
      <trkpt lat="42.25368" lon="1.8182">
        <ele>1470.558</ele>
        <time>2019-04-19T13:31:41Z</time>
      </trkpt>
      <trkpt lat="42.25369" lon="1.81823">
        <ele>1470.547</ele>
        <time>2019-04-19T13:31:43Z</time>
      </trkpt>
      <trkpt lat="42.25372" lon="1.81837">
        <ele>1470.585</ele>
        <time>2019-04-19T13:31:58Z</time>
      </trkpt>
      <trkpt lat="42.25375" lon="1.81841">
        <ele>1469.941</ele>
        <time>2019-04-19T13:32:21Z</time>
      </trkpt>
      <trkpt lat="42.25377" lon="1.81843">
        <ele>1470.094</ele>
        <time>2019-04-19T13:32:49Z</time>
      </trkpt>
      <trkpt lat="42.25379" lon="1.81842">
        <ele>1469.967</ele>
        <time>2019-04-19T13:33:15Z</time>
      </trkpt>
      <trkpt lat="42.25378" lon="1.81843">
        <ele>1470.58</ele>
        <time>2019-04-19T13:33:43Z</time>
      </trkpt>
      <trkpt lat="42.25378" lon="1.81843">
        <ele>1470.422</ele>
        <time>2019-04-19T13:34:12Z</time>
      </trkpt>
      <trkpt lat="42.25376" lon="1.81842">
        <ele>1470.462</ele>
        <time>2019-04-19T13:34:37Z</time>
      </trkpt>
      <trkpt lat="42.25376" lon="1.81839">
        <ele>1470.908</ele>
        <time>2019-04-19T13:35:07Z</time>
      </trkpt>
      <trkpt lat="42.25378" lon="1.81844">
        <ele>1471.008</ele>
        <time>2019-04-19T13:35:42Z</time>
      </trkpt>
      <trkpt lat="42.25376" lon="1.81847">
        <ele>1471.025</ele>
        <time>2019-04-19T13:36:14Z</time>
      </trkpt>
      <trkpt lat="42.25374" lon="1.8184">
        <ele>1471.027</ele>
        <time>2019-04-19T13:36:43Z</time>
      </trkpt>
      <trkpt lat="42.25377" lon="1.81843">
        <ele>1470.996</ele>
        <time>2019-04-19T13:37:07Z</time>
      </trkpt>
      <trkpt lat="42.25378" lon="1.81845">
        <ele>1471.434</ele>
        <time>2019-04-19T13:37:21Z</time>
      </trkpt>
      <trkpt lat="42.25378" lon="1.81842">
        <ele>1470.98</ele>
        <time>2019-04-19T13:37:44Z</time>
      </trkpt>
      <trkpt lat="42.25376" lon="1.81842">
        <ele>1471.033</ele>
        <time>2019-04-19T13:37:51Z</time>
      </trkpt>
      <trkpt lat="42.25377" lon="1.81844">
        <ele>1471.046</ele>
        <time>2019-04-19T13:38:09Z</time>
      </trkpt>
      <trkpt lat="42.25379" lon="1.81842">
        <ele>1472.439</ele>
        <time>2019-04-19T13:38:31Z</time>
      </trkpt>
      <trkpt lat="42.25379" lon="1.81842">
        <ele>1472.423</ele>
        <time>2019-04-19T13:38:55Z</time>
      </trkpt>
      <trkpt lat="42.25377" lon="1.81843">
        <ele>1472.483</ele>
        <time>2019-04-19T13:38:58Z</time>
      </trkpt>
      <trkpt lat="42.25373" lon="1.81844">
        <ele>1471.511</ele>
        <time>2019-04-19T13:39:01Z</time>
      </trkpt>
      <trkpt lat="42.25368" lon="1.8185">
        <ele>1468.508</ele>
        <time>2019-04-19T13:39:10Z</time>
      </trkpt>
      <trkpt lat="42.25367" lon="1.81855">
        <ele>1467.255</ele>
        <time>2019-04-19T13:39:14Z</time>
      </trkpt>
      <trkpt lat="42.25366" lon="1.81858">
        <ele>1466.117</ele>
        <time>2019-04-19T13:39:16Z</time>
      </trkpt>
      <trkpt lat="42.25355" lon="1.81879">
        <ele>1462.426</ele>
        <time>2019-04-19T13:39:30Z</time>
      </trkpt>
      <trkpt lat="42.25352" lon="1.81892">
        <ele>1460.464</ele>
        <time>2019-04-19T13:39:39Z</time>
      </trkpt>
      <trkpt lat="42.2534" lon="1.81916">
        <ele>1457.52</ele>
        <time>2019-04-19T13:39:52Z</time>
      </trkpt>
      <trkpt lat="42.25328" lon="1.81937">
        <ele>1457.153</ele>
        <time>2019-04-19T13:40:04Z</time>
      </trkpt>
      <trkpt lat="42.25312" lon="1.8196">
        <ele>1456.566</ele>
        <time>2019-04-19T13:40:20Z</time>
      </trkpt>
      <trkpt lat="42.25294" lon="1.8198">
        <ele>1454.769</ele>
        <time>2019-04-19T13:40:39Z</time>
      </trkpt>
      <trkpt lat="42.25275" lon="1.82003">
        <ele>1453.168</ele>
        <time>2019-04-19T13:40:55Z</time>
      </trkpt>
      <trkpt lat="42.25256" lon="1.82023">
        <ele>1454.142</ele>
        <time>2019-04-19T13:41:10Z</time>
      </trkpt>
      <trkpt lat="42.25238" lon="1.82031">
        <ele>1457.026</ele>
        <time>2019-04-19T13:41:25Z</time>
      </trkpt>
      <trkpt lat="42.25224" lon="1.82035">
        <ele>1458.908</ele>
        <time>2019-04-19T13:41:41Z</time>
      </trkpt>
      <trkpt lat="42.25208" lon="1.8204">
        <ele>1461.319</ele>
        <time>2019-04-19T13:41:57Z</time>
      </trkpt>
      <trkpt lat="42.25193" lon="1.82047">
        <ele>1462.341</ele>
        <time>2019-04-19T13:42:11Z</time>
      </trkpt>
      <trkpt lat="42.25179" lon="1.82057">
        <ele>1463.32</ele>
        <time>2019-04-19T13:42:25Z</time>
      </trkpt>
      <trkpt lat="42.25163" lon="1.82068">
        <ele>1465.198</ele>
        <time>2019-04-19T13:42:41Z</time>
      </trkpt>
      <trkpt lat="42.2515" lon="1.82084">
        <ele>1466.644</ele>
        <time>2019-04-19T13:42:57Z</time>
      </trkpt>
      <trkpt lat="42.25134" lon="1.82095">
        <ele>1468.177</ele>
        <time>2019-04-19T13:43:12Z</time>
      </trkpt>
      <trkpt lat="42.25118" lon="1.8211">
        <ele>1468.14</ele>
        <time>2019-04-19T13:43:28Z</time>
      </trkpt>
      <trkpt lat="42.25099" lon="1.82127">
        <ele>1468.513</ele>
        <time>2019-04-19T13:43:43Z</time>
      </trkpt>
      <trkpt lat="42.25091" lon="1.82146">
        <ele>1469.072</ele>
        <time>2019-04-19T13:43:58Z</time>
      </trkpt>
      <trkpt lat="42.2509" lon="1.82149">
        <ele>1469.013</ele>
        <time>2019-04-19T13:44:00Z</time>
      </trkpt>
      <trkpt lat="42.25084" lon="1.82172">
        <ele>1469.614</ele>
        <time>2019-04-19T13:44:13Z</time>
      </trkpt>
      <trkpt lat="42.25079" lon="1.82194">
        <ele>1469.608</ele>
        <time>2019-04-19T13:44:27Z</time>
      </trkpt>
      <trkpt lat="42.25073" lon="1.82214">
        <ele>1468.17</ele>
        <time>2019-04-19T13:44:39Z</time>
      </trkpt>
      <trkpt lat="42.25068" lon="1.82238">
        <ele>1468.142</ele>
        <time>2019-04-19T13:44:51Z</time>
      </trkpt>
      <trkpt lat="42.25062" lon="1.82263">
        <ele>1469.681</ele>
        <time>2019-04-19T13:45:06Z</time>
      </trkpt>
      <trkpt lat="42.25058" lon="1.82279">
        <ele>1470.059</ele>
        <time>2019-04-19T13:45:18Z</time>
      </trkpt>
      <trkpt lat="42.25055" lon="1.82303">
        <ele>1472.445</ele>
        <time>2019-04-19T13:45:34Z</time>
      </trkpt>
      <trkpt lat="42.25052" lon="1.82311">
        <ele>1472.488</ele>
        <time>2019-04-19T13:45:38Z</time>
      </trkpt>
      <trkpt lat="42.25045" lon="1.82327">
        <ele>1472.431</ele>
        <time>2019-04-19T13:45:50Z</time>
      </trkpt>
      <trkpt lat="42.25043" lon="1.82333">
        <ele>1472.574</ele>
        <time>2019-04-19T13:45:54Z</time>
      </trkpt>
      <trkpt lat="42.25038" lon="1.82358">
        <ele>1472.436</ele>
        <time>2019-04-19T13:46:09Z</time>
      </trkpt>
      <trkpt lat="42.25033" lon="1.82376">
        <ele>1473.317</ele>
        <time>2019-04-19T13:46:21Z</time>
      </trkpt>
      <trkpt lat="42.25027" lon="1.82394">
        <ele>1473.318</ele>
        <time>2019-04-19T13:46:29Z</time>
      </trkpt>
      <trkpt lat="42.25021" lon="1.82403">
        <ele>1473.908</ele>
        <time>2019-04-19T13:46:36Z</time>
      </trkpt>
      <trkpt lat="42.2501" lon="1.82424">
        <ele>1474.486</ele>
        <time>2019-04-19T13:46:47Z</time>
      </trkpt>
      <trkpt lat="42.24992" lon="1.82454">
        <ele>1474.318</ele>
        <time>2019-04-19T13:47:02Z</time>
      </trkpt>
      <trkpt lat="42.24982" lon="1.82474">
        <ele>1474.497</ele>
        <time>2019-04-19T13:47:15Z</time>
      </trkpt>
      <trkpt lat="42.24977" lon="1.82482">
        <ele>1472.855</ele>
        <time>2019-04-19T13:47:23Z</time>
      </trkpt>
      <trkpt lat="42.24966" lon="1.82498">
        <ele>1472.911</ele>
        <time>2019-04-19T13:47:36Z</time>
      </trkpt>
      <trkpt lat="42.2496" lon="1.82505">
        <ele>1472.994</ele>
        <time>2019-04-19T13:47:42Z</time>
      </trkpt>
      <trkpt lat="42.24949" lon="1.82513">
        <ele>1472.847</ele>
        <time>2019-04-19T13:47:48Z</time>
      </trkpt>
      <trkpt lat="42.24934" lon="1.82529">
        <ele>1472.83</ele>
        <time>2019-04-19T13:48:03Z</time>
      </trkpt>
      <trkpt lat="42.24916" lon="1.8254">
        <ele>1471.436</ele>
        <time>2019-04-19T13:48:18Z</time>
      </trkpt>
      <trkpt lat="42.24912" lon="1.82544">
        <ele>1471.417</ele>
        <time>2019-04-19T13:48:23Z</time>
      </trkpt>
      <trkpt lat="42.24908" lon="1.82562">
        <ele>1473.918</ele>
        <time>2019-04-19T13:48:40Z</time>
      </trkpt>
      <trkpt lat="42.24892" lon="1.82581">
        <ele>1476.308</ele>
        <time>2019-04-19T13:48:58Z</time>
      </trkpt>
      <trkpt lat="42.24867" lon="1.82592">
        <ele>1476.266</ele>
        <time>2019-04-19T13:49:14Z</time>
      </trkpt>
      <trkpt lat="42.24856" lon="1.82593">
        <ele>1474.968</ele>
        <time>2019-04-19T13:49:20Z</time>
      </trkpt>
      <trkpt lat="42.24848" lon="1.82593">
        <ele>1473.867</ele>
        <time>2019-04-19T13:49:24Z</time>
      </trkpt>
      <trkpt lat="42.24831" lon="1.82595">
        <ele>1472.565</ele>
        <time>2019-04-19T13:49:37Z</time>
      </trkpt>
      <trkpt lat="42.24814" lon="1.82595">
        <ele>1471.091</ele>
        <time>2019-04-19T13:49:53Z</time>
      </trkpt>
      <trkpt lat="42.24802" lon="1.82591">
        <ele>1467.274</ele>
        <time>2019-04-19T13:50:05Z</time>
      </trkpt>
      <trkpt lat="42.2479" lon="1.82594">
        <ele>1465.167</ele>
        <time>2019-04-19T13:50:17Z</time>
      </trkpt>
      <trkpt lat="42.24782" lon="1.82596">
        <ele>1464.73</ele>
        <time>2019-04-19T13:50:24Z</time>
      </trkpt>
      <trkpt lat="42.24767" lon="1.82599">
        <ele>1461.882</ele>
        <time>2019-04-19T13:50:34Z</time>
      </trkpt>
      <trkpt lat="42.24763" lon="1.826">
        <ele>1461.343</ele>
        <time>2019-04-19T13:50:36Z</time>
      </trkpt>
      <trkpt lat="42.24748" lon="1.826">
        <ele>1457.617</ele>
        <time>2019-04-19T13:50:47Z</time>
      </trkpt>
      <trkpt lat="42.24745" lon="1.82599">
        <ele>1457.108</ele>
        <time>2019-04-19T13:50:49Z</time>
      </trkpt>
      <trkpt lat="42.24742" lon="1.82596">
        <ele>1455.641</ele>
        <time>2019-04-19T13:50:52Z</time>
      </trkpt>
      <trkpt lat="42.24739" lon="1.82594">
        <ele>1454.733</ele>
        <time>2019-04-19T13:50:54Z</time>
      </trkpt>
      <trkpt lat="42.24736" lon="1.82592">
        <ele>1454.122</ele>
        <time>2019-04-19T13:50:56Z</time>
      </trkpt>
      <trkpt lat="42.24732" lon="1.82588">
        <ele>1453.26</ele>
        <time>2019-04-19T13:50:59Z</time>
      </trkpt>
      <trkpt lat="42.24724" lon="1.82585">
        <ele>1451.296</ele>
        <time>2019-04-19T13:51:05Z</time>
      </trkpt>
      <trkpt lat="42.24706" lon="1.82586">
        <ele>1447.959</ele>
        <time>2019-04-19T13:51:16Z</time>
      </trkpt>
      <trkpt lat="42.24683" lon="1.82585">
        <ele>1445.482</ele>
        <time>2019-04-19T13:51:30Z</time>
      </trkpt>
      <trkpt lat="42.24674" lon="1.82584">
        <ele>1444.545</ele>
        <time>2019-04-19T13:51:44Z</time>
      </trkpt>
      <trkpt lat="42.24669" lon="1.82584">
        <ele>1444.583</ele>
        <time>2019-04-19T13:52:06Z</time>
      </trkpt>
      <trkpt lat="42.24659" lon="1.82589">
        <ele>1442.625</ele>
        <time>2019-04-19T13:52:20Z</time>
      </trkpt>
      <trkpt lat="42.24652" lon="1.82571">
        <ele>1442.717</ele>
        <time>2019-04-19T13:52:35Z</time>
      </trkpt>
      <trkpt lat="42.24647" lon="1.82565">
        <ele>1442.708</ele>
        <time>2019-04-19T13:52:50Z</time>
      </trkpt>
      <trkpt lat="42.24649" lon="1.82555">
        <ele>1440.221</ele>
        <time>2019-04-19T13:53:01Z</time>
      </trkpt>
      <trkpt lat="42.24637" lon="1.82533">
        <ele>1439.393</ele>
        <time>2019-04-19T13:53:16Z</time>
      </trkpt>
      <trkpt lat="42.24627" lon="1.8251">
        <ele>1439.272</ele>
        <time>2019-04-19T13:53:30Z</time>
      </trkpt>
      <trkpt lat="42.2462" lon="1.82498">
        <ele>1438.75</ele>
        <time>2019-04-19T13:53:46Z</time>
      </trkpt>
      <trkpt lat="42.24618" lon="1.82483">
        <ele>1440.186</ele>
        <time>2019-04-19T13:53:59Z</time>
      </trkpt>
      <trkpt lat="42.24611" lon="1.82462">
        <ele>1441.629</ele>
        <time>2019-04-19T13:54:13Z</time>
      </trkpt>
      <trkpt lat="42.24604" lon="1.82435">
        <ele>1443.622</ele>
        <time>2019-04-19T13:54:29Z</time>
      </trkpt>
      <trkpt lat="42.246" lon="1.82412">
        <ele>1445.995</ele>
        <time>2019-04-19T13:54:45Z</time>
      </trkpt>
      <trkpt lat="42.24592" lon="1.82396">
        <ele>1448.369</ele>
        <time>2019-04-19T13:55:02Z</time>
      </trkpt>
      <trkpt lat="42.24587" lon="1.82375">
        <ele>1450.204</ele>
        <time>2019-04-19T13:55:17Z</time>
      </trkpt>
      <trkpt lat="42.24585" lon="1.82358">
        <ele>1451.824</ele>
        <time>2019-04-19T13:55:32Z</time>
      </trkpt>
      <trkpt lat="42.24575" lon="1.82339">
        <ele>1453.708</ele>
        <time>2019-04-19T13:55:47Z</time>
      </trkpt>
      <trkpt lat="42.24569" lon="1.82325">
        <ele>1456.129</ele>
        <time>2019-04-19T13:56:00Z</time>
      </trkpt>
      <trkpt lat="42.24558" lon="1.82312">
        <ele>1457.051</ele>
        <time>2019-04-19T13:56:14Z</time>
      </trkpt>
      <trkpt lat="42.24544" lon="1.82308">
        <ele>1458.54</ele>
        <time>2019-04-19T13:56:28Z</time>
      </trkpt>
      <trkpt lat="42.2453" lon="1.82315">
        <ele>1457.098</ele>
        <time>2019-04-19T13:56:45Z</time>
      </trkpt>
      <trkpt lat="42.24522" lon="1.82321">
        <ele>1456.624</ele>
        <time>2019-04-19T13:57:00Z</time>
      </trkpt>
      <trkpt lat="42.2451" lon="1.82329">
        <ele>1453.197</ele>
        <time>2019-04-19T13:57:14Z</time>
      </trkpt>
      <trkpt lat="42.24498" lon="1.82333">
        <ele>1449.89</ele>
        <time>2019-04-19T13:57:25Z</time>
      </trkpt>
      <trkpt lat="42.24487" lon="1.82331">
        <ele>1448.393</ele>
        <time>2019-04-19T13:57:35Z</time>
      </trkpt>
      <trkpt lat="42.24494" lon="1.82321">
        <ele>1444.588</ele>
        <time>2019-04-19T13:57:48Z</time>
      </trkpt>
      <trkpt lat="42.24497" lon="1.82308">
        <ele>1440.624</ele>
        <time>2019-04-19T13:57:59Z</time>
      </trkpt>
      <trkpt lat="42.24486" lon="1.82315">
        <ele>1437.426</ele>
        <time>2019-04-19T13:58:13Z</time>
      </trkpt>
      <trkpt lat="42.24485" lon="1.82316">
        <ele>1437.408</ele>
        <time>2019-04-19T13:58:14Z</time>
      </trkpt>
      <trkpt lat="42.24478" lon="1.82317">
        <ele>1436.331</ele>
        <time>2019-04-19T13:58:19Z</time>
      </trkpt>
      <trkpt lat="42.24473" lon="1.82321">
        <ele>1436.433</ele>
        <time>2019-04-19T13:58:23Z</time>
      </trkpt>
      <trkpt lat="42.24463" lon="1.82338">
        <ele>1433.562</ele>
        <time>2019-04-19T13:58:38Z</time>
      </trkpt>
      <trkpt lat="42.24456" lon="1.82355">
        <ele>1433.56</ele>
        <time>2019-04-19T13:58:51Z</time>
      </trkpt>
      <trkpt lat="42.2445" lon="1.82361">
        <ele>1431.546</ele>
        <time>2019-04-19T13:58:58Z</time>
      </trkpt>
      <trkpt lat="42.24436" lon="1.82367">
        <ele>1428.689</ele>
        <time>2019-04-19T13:59:09Z</time>
      </trkpt>
      <trkpt lat="42.24429" lon="1.82371">
        <ele>1427.362</ele>
        <time>2019-04-19T13:59:15Z</time>
      </trkpt>
      <trkpt lat="42.2442" lon="1.82378">
        <ele>1425.355</ele>
        <time>2019-04-19T13:59:21Z</time>
      </trkpt>
      <trkpt lat="42.244" lon="1.82395">
        <ele>1425.245</ele>
        <time>2019-04-19T13:59:34Z</time>
      </trkpt>
      <trkpt lat="42.24383" lon="1.82423">
        <ele>1425.247</ele>
        <time>2019-04-19T13:59:52Z</time>
      </trkpt>
      <trkpt lat="42.24374" lon="1.82447">
        <ele>1425.711</ele>
        <time>2019-04-19T14:00:06Z</time>
      </trkpt>
      <trkpt lat="42.24369" lon="1.82471">
        <ele>1425.808</ele>
        <time>2019-04-19T14:00:19Z</time>
      </trkpt>
      <trkpt lat="42.24363" lon="1.82498">
        <ele>1424.347</ele>
        <time>2019-04-19T14:00:34Z</time>
      </trkpt>
      <trkpt lat="42.24353" lon="1.82518">
        <ele>1421.099</ele>
        <time>2019-04-19T14:00:46Z</time>
      </trkpt>
      <trkpt lat="42.24345" lon="1.82545">
        <ele>1420.468</ele>
        <time>2019-04-19T14:01:01Z</time>
      </trkpt>
      <trkpt lat="42.24328" lon="1.82569">
        <ele>1420.486</ele>
        <time>2019-04-19T14:01:18Z</time>
      </trkpt>
      <trkpt lat="42.24318" lon="1.82592">
        <ele>1420.582</ele>
        <time>2019-04-19T14:01:32Z</time>
      </trkpt>
      <trkpt lat="42.24311" lon="1.82619">
        <ele>1421.495</ele>
        <time>2019-04-19T14:01:48Z</time>
      </trkpt>
      <trkpt lat="42.24296" lon="1.82648">
        <ele>1420.538</ele>
        <time>2019-04-19T14:02:05Z</time>
      </trkpt>
      <trkpt lat="42.24283" lon="1.82659">
        <ele>1420.051</ele>
        <time>2019-04-19T14:02:16Z</time>
      </trkpt>
      <trkpt lat="42.24274" lon="1.8267">
        <ele>1420.948</ele>
        <time>2019-04-19T14:02:29Z</time>
      </trkpt>
      <trkpt lat="42.24274" lon="1.82671">
        <ele>1421.461</ele>
        <time>2019-04-19T14:02:44Z</time>
      </trkpt>
      <trkpt lat="42.2427" lon="1.82674">
        <ele>1423.817</ele>
        <time>2019-04-19T14:03:00Z</time>
      </trkpt>
      <trkpt lat="42.24272" lon="1.82673">
        <ele>1422.808</ele>
        <time>2019-04-19T14:03:15Z</time>
      </trkpt>
      <trkpt lat="42.24273" lon="1.82668">
        <ele>1421.597</ele>
        <time>2019-04-19T14:03:29Z</time>
      </trkpt>
      <trkpt lat="42.24273" lon="1.82665">
        <ele>1421.449</ele>
        <time>2019-04-19T14:03:53Z</time>
      </trkpt>
      <trkpt lat="42.24274" lon="1.82672">
        <ele>1420.478</ele>
        <time>2019-04-19T14:04:13Z</time>
      </trkpt>
      <trkpt lat="42.24275" lon="1.82676">
        <ele>1420.596</ele>
        <time>2019-04-19T14:04:16Z</time>
      </trkpt>
      <trkpt lat="42.24275" lon="1.8268">
        <ele>1420.532</ele>
        <time>2019-04-19T14:04:28Z</time>
      </trkpt>
      <trkpt lat="42.24274" lon="1.8268">
        <ele>1421.545</ele>
        <time>2019-04-19T14:04:54Z</time>
      </trkpt>
      <trkpt lat="42.24275" lon="1.8268">
        <ele>1420.028</ele>
        <time>2019-04-19T14:04:59Z</time>
      </trkpt>
      <trkpt lat="42.2428" lon="1.82684">
        <ele>1419.131</ele>
        <time>2019-04-19T14:05:07Z</time>
      </trkpt>
      <trkpt lat="42.24281" lon="1.82685">
        <ele>1419.097</ele>
        <time>2019-04-19T14:05:08Z</time>
      </trkpt>
      <trkpt lat="42.24282" lon="1.82687">
        <ele>1418.023</ele>
        <time>2019-04-19T14:05:09Z</time>
      </trkpt>
      <trkpt lat="42.24294" lon="1.82699">
        <ele>1417.625</ele>
        <time>2019-04-19T14:05:22Z</time>
      </trkpt>
      <trkpt lat="42.24301" lon="1.82711">
        <ele>1416.708</ele>
        <time>2019-04-19T14:05:34Z</time>
      </trkpt>
      <trkpt lat="42.2431" lon="1.82727">
        <ele>1415.792</ele>
        <time>2019-04-19T14:05:44Z</time>
      </trkpt>
      <trkpt lat="42.2431" lon="1.82729">
        <ele>1415.674</ele>
        <time>2019-04-19T14:05:45Z</time>
      </trkpt>
      <trkpt lat="42.24311" lon="1.82732">
        <ele>1415.723</ele>
        <time>2019-04-19T14:05:46Z</time>
      </trkpt>
      <trkpt lat="42.2432" lon="1.82752">
        <ele>1412.811</ele>
        <time>2019-04-19T14:05:59Z</time>
      </trkpt>
      <trkpt lat="42.24328" lon="1.8277">
        <ele>1411.867</ele>
        <time>2019-04-19T14:06:11Z</time>
      </trkpt>
      <trkpt lat="42.24329" lon="1.82771">
        <ele>1411.98</ele>
        <time>2019-04-19T14:06:12Z</time>
      </trkpt>
      <trkpt lat="42.24335" lon="1.82781">
        <ele>1410.913</ele>
        <time>2019-04-19T14:06:18Z</time>
      </trkpt>
      <trkpt lat="42.24338" lon="1.82786">
        <ele>1410.886</ele>
        <time>2019-04-19T14:06:22Z</time>
      </trkpt>
      <trkpt lat="42.24339" lon="1.82787">
        <ele>1410.863</ele>
        <time>2019-04-19T14:06:23Z</time>
      </trkpt>
      <trkpt lat="42.24339" lon="1.82789">
        <ele>1410.844</ele>
        <time>2019-04-19T14:06:24Z</time>
      </trkpt>
      <trkpt lat="42.24344" lon="1.82801">
        <ele>1410.918</ele>
        <time>2019-04-19T14:06:37Z</time>
      </trkpt>
      <trkpt lat="42.24345" lon="1.82808">
        <ele>1410.408</ele>
        <time>2019-04-19T14:06:40Z</time>
      </trkpt>
      <trkpt lat="42.24342" lon="1.82831">
        <ele>1407.939</ele>
        <time>2019-04-19T14:06:55Z</time>
      </trkpt>
      <trkpt lat="42.2434" lon="1.82852">
        <ele>1406.191</ele>
        <time>2019-04-19T14:07:07Z</time>
      </trkpt>
      <trkpt lat="42.24342" lon="1.82871">
        <ele>1404.79</ele>
        <time>2019-04-19T14:07:20Z</time>
      </trkpt>
      <trkpt lat="42.24341" lon="1.82874">
        <ele>1404.268</ele>
        <time>2019-04-19T14:07:22Z</time>
      </trkpt>
      <trkpt lat="42.24341" lon="1.82876">
        <ele>1404.234</ele>
        <time>2019-04-19T14:07:23Z</time>
      </trkpt>
      <trkpt lat="42.24341" lon="1.82879">
        <ele>1404.257</ele>
        <time>2019-04-19T14:07:24Z</time>
      </trkpt>
      <trkpt lat="42.24336" lon="1.82896">
        <ele>1403.63</ele>
        <time>2019-04-19T14:07:34Z</time>
      </trkpt>
      <trkpt lat="42.24335" lon="1.82898">
        <ele>1403.243</ele>
        <time>2019-04-19T14:07:35Z</time>
      </trkpt>
      <trkpt lat="42.24334" lon="1.829">
        <ele>1403.122</ele>
        <time>2019-04-19T14:07:36Z</time>
      </trkpt>
      <trkpt lat="42.24333" lon="1.82901">
        <ele>1402.262</ele>
        <time>2019-04-19T14:07:37Z</time>
      </trkpt>
      <trkpt lat="42.24332" lon="1.82904">
        <ele>1401.808</ele>
        <time>2019-04-19T14:07:38Z</time>
      </trkpt>
      <trkpt lat="42.24331" lon="1.82906">
        <ele>1401.808</ele>
        <time>2019-04-19T14:07:39Z</time>
      </trkpt>
      <trkpt lat="42.24323" lon="1.82928">
        <ele>1398.915</ele>
        <time>2019-04-19T14:07:50Z</time>
      </trkpt>
      <trkpt lat="42.24321" lon="1.82945">
        <ele>1397.527</ele>
        <time>2019-04-19T14:07:59Z</time>
      </trkpt>
      <trkpt lat="42.24318" lon="1.82949">
        <ele>1396.546</ele>
        <time>2019-04-19T14:08:03Z</time>
      </trkpt>
      <trkpt lat="42.24315" lon="1.82953">
        <ele>1394.694</ele>
        <time>2019-04-19T14:08:06Z</time>
      </trkpt>
      <trkpt lat="42.24314" lon="1.82955">
        <ele>1394.05</ele>
        <time>2019-04-19T14:08:08Z</time>
      </trkpt>
      <trkpt lat="42.24312" lon="1.82971">
        <ele>1391.113</ele>
        <time>2019-04-19T14:08:17Z</time>
      </trkpt>
      <trkpt lat="42.2431" lon="1.8298">
        <ele>1389.226</ele>
        <time>2019-04-19T14:08:23Z</time>
      </trkpt>
      <trkpt lat="42.24307" lon="1.82987">
        <ele>1388.349</ele>
        <time>2019-04-19T14:08:28Z</time>
      </trkpt>
      <trkpt lat="42.24306" lon="1.82987">
        <ele>1387.385</ele>
        <time>2019-04-19T14:08:29Z</time>
      </trkpt>
      <trkpt lat="42.24301" lon="1.82994">
        <ele>1384.989</ele>
        <time>2019-04-19T14:08:39Z</time>
      </trkpt>
      <trkpt lat="42.24301" lon="1.83">
        <ele>1383.517</ele>
        <time>2019-04-19T14:08:44Z</time>
      </trkpt>
      <trkpt lat="42.24296" lon="1.83024">
        <ele>1380.508</ele>
        <time>2019-04-19T14:08:57Z</time>
      </trkpt>
      <trkpt lat="42.24296" lon="1.83025">
        <ele>1380.681</ele>
        <time>2019-04-19T14:08:58Z</time>
      </trkpt>
      <trkpt lat="42.24294" lon="1.83039">
        <ele>1377.893</ele>
        <time>2019-04-19T14:09:08Z</time>
      </trkpt>
      <trkpt lat="42.24294" lon="1.8304">
        <ele>1377.352</ele>
        <time>2019-04-19T14:09:09Z</time>
      </trkpt>
      <trkpt lat="42.24293" lon="1.83051">
        <ele>1375.41</ele>
        <time>2019-04-19T14:09:16Z</time>
      </trkpt>
      <trkpt lat="42.24289" lon="1.83072">
        <ele>1373.836</ele>
        <time>2019-04-19T14:09:28Z</time>
      </trkpt>
      <trkpt lat="42.24286" lon="1.83098">
        <ele>1373.039</ele>
        <time>2019-04-19T14:09:41Z</time>
      </trkpt>
      <trkpt lat="42.24286" lon="1.83104">
        <ele>1373.022</ele>
        <time>2019-04-19T14:09:45Z</time>
      </trkpt>
      <trkpt lat="42.24285" lon="1.83105">
        <ele>1373.055</ele>
        <time>2019-04-19T14:09:46Z</time>
      </trkpt>
      <trkpt lat="42.24284" lon="1.83108">
        <ele>1372.947</ele>
        <time>2019-04-19T14:09:47Z</time>
      </trkpt>
      <trkpt lat="42.24283" lon="1.8311">
        <ele>1371.429</ele>
        <time>2019-04-19T14:09:48Z</time>
      </trkpt>
      <trkpt lat="42.24282" lon="1.83113">
        <ele>1371.521</ele>
        <time>2019-04-19T14:09:49Z</time>
      </trkpt>
      <trkpt lat="42.24281" lon="1.83115">
        <ele>1371.408</ele>
        <time>2019-04-19T14:09:50Z</time>
      </trkpt>
      <trkpt lat="42.24278" lon="1.83125">
        <ele>1370.157</ele>
        <time>2019-04-19T14:09:55Z</time>
      </trkpt>
      <trkpt lat="42.24275" lon="1.83131">
        <ele>1369.099</ele>
        <time>2019-04-19T14:09:58Z</time>
      </trkpt>
      <trkpt lat="42.24271" lon="1.83148">
        <ele>1367.188</ele>
        <time>2019-04-19T14:10:06Z</time>
      </trkpt>
      <trkpt lat="42.2427" lon="1.83153">
        <ele>1366.286</ele>
        <time>2019-04-19T14:10:07Z</time>
      </trkpt>
      <trkpt lat="42.24269" lon="1.83156">
        <ele>1366.252</ele>
        <time>2019-04-19T14:10:08Z</time>
      </trkpt>
      <trkpt lat="42.24269" lon="1.8316">
        <ele>1366.285</ele>
        <time>2019-04-19T14:10:09Z</time>
      </trkpt>
      <trkpt lat="42.24267" lon="1.83165">
        <ele>1366.178</ele>
        <time>2019-04-19T14:10:11Z</time>
      </trkpt>
      <trkpt lat="42.24266" lon="1.83168">
        <ele>1366.121</ele>
        <time>2019-04-19T14:10:12Z</time>
      </trkpt>
      <trkpt lat="42.24263" lon="1.83172">
        <ele>1365.682</ele>
        <time>2019-04-19T14:10:14Z</time>
      </trkpt>
      <trkpt lat="42.24263" lon="1.83175">
        <ele>1364.243</ele>
        <time>2019-04-19T14:10:15Z</time>
      </trkpt>
      <trkpt lat="42.24262" lon="1.83178">
        <ele>1364.317</ele>
        <time>2019-04-19T14:10:16Z</time>
      </trkpt>
      <trkpt lat="42.24261" lon="1.83181">
        <ele>1364.208</ele>
        <time>2019-04-19T14:10:17Z</time>
      </trkpt>
      <trkpt lat="42.2426" lon="1.83183">
        <ele>1363.351</ele>
        <time>2019-04-19T14:10:18Z</time>
      </trkpt>
      <trkpt lat="42.24255" lon="1.83207">
        <ele>1362.473</ele>
        <time>2019-04-19T14:10:29Z</time>
      </trkpt>
      <trkpt lat="42.24253" lon="1.8321">
        <ele>1363.832</ele>
        <time>2019-04-19T14:10:32Z</time>
      </trkpt>
      <trkpt lat="42.24248" lon="1.83224">
        <ele>1364.25</ele>
        <time>2019-04-19T14:10:39Z</time>
      </trkpt>
      <trkpt lat="42.24247" lon="1.83233">
        <ele>1364.786</ele>
        <time>2019-04-19T14:10:44Z</time>
      </trkpt>
      <trkpt lat="42.24241" lon="1.83253">
        <ele>1365.219</ele>
        <time>2019-04-19T14:10:58Z</time>
      </trkpt>
      <trkpt lat="42.24233" lon="1.83266">
        <ele>1365.212</ele>
        <time>2019-04-19T14:11:06Z</time>
      </trkpt>
      <trkpt lat="42.24231" lon="1.83272">
        <ele>1365.315</ele>
        <time>2019-04-19T14:11:10Z</time>
      </trkpt>
      <trkpt lat="42.24227" lon="1.83276">
        <ele>1363.785</ele>
        <time>2019-04-19T14:11:13Z</time>
      </trkpt>
      <trkpt lat="42.24219" lon="1.8329">
        <ele>1362.889</ele>
        <time>2019-04-19T14:11:25Z</time>
      </trkpt>
      <trkpt lat="42.24217" lon="1.8329">
        <ele>1362.417</ele>
        <time>2019-04-19T14:11:26Z</time>
      </trkpt>
      <trkpt lat="42.24203" lon="1.833">
        <ele>1365.608</ele>
        <time>2019-04-19T14:11:43Z</time>
      </trkpt>
      <trkpt lat="42.24199" lon="1.83301">
        <ele>1365.711</ele>
        <time>2019-04-19T14:11:47Z</time>
      </trkpt>
      <trkpt lat="42.24197" lon="1.83302">
        <ele>1365.633</ele>
        <time>2019-04-19T14:11:48Z</time>
      </trkpt>
      <trkpt lat="42.24187" lon="1.8331">
        <ele>1367.212</ele>
        <time>2019-04-19T14:11:57Z</time>
      </trkpt>
      <trkpt lat="42.24169" lon="1.83318">
        <ele>1368.58</ele>
        <time>2019-04-19T14:12:12Z</time>
      </trkpt>
      <trkpt lat="42.24156" lon="1.83327">
        <ele>1371.526</ele>
        <time>2019-04-19T14:12:27Z</time>
      </trkpt>
      <trkpt lat="42.24147" lon="1.83337">
        <ele>1374.999</ele>
        <time>2019-04-19T14:12:41Z</time>
      </trkpt>
      <trkpt lat="42.24133" lon="1.83348">
        <ele>1377.842</ele>
        <time>2019-04-19T14:12:57Z</time>
      </trkpt>
      <trkpt lat="42.24128" lon="1.83358">
        <ele>1378.275</ele>
        <time>2019-04-19T14:13:06Z</time>
      </trkpt>
      <trkpt lat="42.2413" lon="1.8338">
        <ele>1379.698</ele>
        <time>2019-04-19T14:13:20Z</time>
      </trkpt>
      <trkpt lat="42.2413" lon="1.83395">
        <ele>1379.615</ele>
        <time>2019-04-19T14:13:29Z</time>
      </trkpt>
      <trkpt lat="42.24129" lon="1.83396">
        <ele>1378.126</ele>
        <time>2019-04-19T14:13:30Z</time>
      </trkpt>
      <trkpt lat="42.24129" lon="1.83398">
        <ele>1378.108</ele>
        <time>2019-04-19T14:13:31Z</time>
      </trkpt>
      <trkpt lat="42.24128" lon="1.83401">
        <ele>1378.242</ele>
        <time>2019-04-19T14:13:32Z</time>
      </trkpt>
      <trkpt lat="42.24128" lon="1.83403">
        <ele>1378.184</ele>
        <time>2019-04-19T14:13:33Z</time>
      </trkpt>
      <trkpt lat="42.24128" lon="1.83405">
        <ele>1378.143</ele>
        <time>2019-04-19T14:13:34Z</time>
      </trkpt>
      <trkpt lat="42.24128" lon="1.83407">
        <ele>1378.161</ele>
        <time>2019-04-19T14:13:35Z</time>
      </trkpt>
      <trkpt lat="42.24128" lon="1.83409">
        <ele>1377.797</ele>
        <time>2019-04-19T14:13:36Z</time>
      </trkpt>
      <trkpt lat="42.24127" lon="1.83418">
        <ele>1377.37</ele>
        <time>2019-04-19T14:13:41Z</time>
      </trkpt>
      <trkpt lat="42.24125" lon="1.83429">
        <ele>1377.343</ele>
        <time>2019-04-19T14:13:47Z</time>
      </trkpt>
      <trkpt lat="42.24124" lon="1.83431">
        <ele>1377.316</ele>
        <time>2019-04-19T14:13:48Z</time>
      </trkpt>
      <trkpt lat="42.24124" lon="1.83433">
        <ele>1377.244</ele>
        <time>2019-04-19T14:13:49Z</time>
      </trkpt>
      <trkpt lat="42.24124" lon="1.83435">
        <ele>1377.205</ele>
        <time>2019-04-19T14:13:50Z</time>
      </trkpt>
      <trkpt lat="42.24125" lon="1.83437">
        <ele>1377.215</ele>
        <time>2019-04-19T14:13:51Z</time>
      </trkpt>
      <trkpt lat="42.24124" lon="1.8344">
        <ele>1377.208</ele>
        <time>2019-04-19T14:13:52Z</time>
      </trkpt>
      <trkpt lat="42.24124" lon="1.83442">
        <ele>1377.217</ele>
        <time>2019-04-19T14:13:53Z</time>
      </trkpt>
      <trkpt lat="42.24121" lon="1.8345">
        <ele>1377.389</ele>
        <time>2019-04-19T14:13:59Z</time>
      </trkpt>
      <trkpt lat="42.24109" lon="1.83469">
        <ele>1376.788</ele>
        <time>2019-04-19T14:14:13Z</time>
      </trkpt>
      <trkpt lat="42.24101" lon="1.83479">
        <ele>1378.236</ele>
        <time>2019-04-19T14:14:20Z</time>
      </trkpt>
      <trkpt lat="42.241" lon="1.83481">
        <ele>1378.152</ele>
        <time>2019-04-19T14:14:21Z</time>
      </trkpt>
      <trkpt lat="42.2409" lon="1.83492">
        <ele>1378.685</ele>
        <time>2019-04-19T14:14:30Z</time>
      </trkpt>
      <trkpt lat="42.24088" lon="1.83493">
        <ele>1378.788</ele>
        <time>2019-04-19T14:14:31Z</time>
      </trkpt>
      <trkpt lat="42.24085" lon="1.83495">
        <ele>1377.861</ele>
        <time>2019-04-19T14:14:33Z</time>
      </trkpt>
      <trkpt lat="42.24068" lon="1.83508">
        <ele>1379.147</ele>
        <time>2019-04-19T14:14:48Z</time>
      </trkpt>
      <trkpt lat="42.24049" lon="1.83518">
        <ele>1382.029</ele>
        <time>2019-04-19T14:15:05Z</time>
      </trkpt>
      <trkpt lat="42.24026" lon="1.83531">
        <ele>1384.021</ele>
        <time>2019-04-19T14:15:23Z</time>
      </trkpt>
      <trkpt lat="42.24016" lon="1.83538">
        <ele>1385.508</ele>
        <time>2019-04-19T14:15:33Z</time>
      </trkpt>
      <trkpt lat="42.24013" lon="1.83539">
        <ele>1385.447</ele>
        <time>2019-04-19T14:15:35Z</time>
      </trkpt>
      <trkpt lat="42.24012" lon="1.83539">
        <ele>1385.489</ele>
        <time>2019-04-19T14:15:36Z</time>
      </trkpt>
      <trkpt lat="42.2401" lon="1.83539">
        <ele>1385.418</ele>
        <time>2019-04-19T14:15:37Z</time>
      </trkpt>
      <trkpt lat="42.24009" lon="1.8354">
        <ele>1385.516</ele>
        <time>2019-04-19T14:15:38Z</time>
      </trkpt>
      <trkpt lat="42.24007" lon="1.83541">
        <ele>1385.522</ele>
        <time>2019-04-19T14:15:39Z</time>
      </trkpt>
      <trkpt lat="42.23989" lon="1.83549">
        <ele>1386.495</ele>
        <time>2019-04-19T14:15:55Z</time>
      </trkpt>
      <trkpt lat="42.23986" lon="1.83551">
        <ele>1386.318</ele>
        <time>2019-04-19T14:15:57Z</time>
      </trkpt>
      <trkpt lat="42.23978" lon="1.83545">
        <ele>1386.921</ele>
        <time>2019-04-19T14:16:11Z</time>
      </trkpt>
      <trkpt lat="42.23969" lon="1.83553">
        <ele>1386.837</ele>
        <time>2019-04-19T14:16:26Z</time>
      </trkpt>
      <trkpt lat="42.23957" lon="1.83555">
        <ele>1383.449</ele>
        <time>2019-04-19T14:16:38Z</time>
      </trkpt>
      <trkpt lat="42.23949" lon="1.83572">
        <ele>1383.913</ele>
        <time>2019-04-19T14:16:49Z</time>
      </trkpt>
      <trkpt lat="42.23948" lon="1.836">
        <ele>1384.908</ele>
        <time>2019-04-19T14:17:05Z</time>
      </trkpt>
      <trkpt lat="42.23943" lon="1.83627">
        <ele>1383.516</ele>
        <time>2019-04-19T14:17:19Z</time>
      </trkpt>
      <trkpt lat="42.23941" lon="1.83647">
        <ele>1385.468</ele>
        <time>2019-04-19T14:17:34Z</time>
      </trkpt>
      <trkpt lat="42.23941" lon="1.83659">
        <ele>1385.447</ele>
        <time>2019-04-19T14:17:42Z</time>
      </trkpt>
      <trkpt lat="42.23933" lon="1.83684">
        <ele>1383.495</ele>
        <time>2019-04-19T14:17:56Z</time>
      </trkpt>
      <trkpt lat="42.23921" lon="1.83709">
        <ele>1380.641</ele>
        <time>2019-04-19T14:18:12Z</time>
      </trkpt>
      <trkpt lat="42.23916" lon="1.83719">
        <ele>1379.194</ele>
        <time>2019-04-19T14:18:18Z</time>
      </trkpt>
      <trkpt lat="42.23905" lon="1.83743">
        <ele>1379.127</ele>
        <time>2019-04-19T14:18:34Z</time>
      </trkpt>
      <trkpt lat="42.23888" lon="1.83765">
        <ele>1380.63</ele>
        <time>2019-04-19T14:18:50Z</time>
      </trkpt>
      <trkpt lat="42.23877" lon="1.83775">
        <ele>1381.568</ele>
        <time>2019-04-19T14:19:00Z</time>
      </trkpt>
      <trkpt lat="42.23866" lon="1.83781">
        <ele>1380.142</ele>
        <time>2019-04-19T14:19:10Z</time>
      </trkpt>
      <trkpt lat="42.2385" lon="1.83798">
        <ele>1380.126</ele>
        <time>2019-04-19T14:19:27Z</time>
      </trkpt>
      <trkpt lat="42.23852" lon="1.83812">
        <ele>1382.608</ele>
        <time>2019-04-19T14:19:38Z</time>
      </trkpt>
      <trkpt lat="42.23855" lon="1.83822">
        <ele>1383.019</ele>
        <time>2019-04-19T14:19:48Z</time>
      </trkpt>
      <trkpt lat="42.23866" lon="1.83843">
        <ele>1382.531</ele>
        <time>2019-04-19T14:20:02Z</time>
      </trkpt>
      <trkpt lat="42.23866" lon="1.83844">
        <ele>1382.69</ele>
        <time>2019-04-19T14:20:03Z</time>
      </trkpt>
      <trkpt lat="42.23868" lon="1.83849">
        <ele>1381.668</ele>
        <time>2019-04-19T14:20:06Z</time>
      </trkpt>
      <trkpt lat="42.23877" lon="1.83869">
        <ele>1380.664</ele>
        <time>2019-04-19T14:20:20Z</time>
      </trkpt>
      <trkpt lat="42.23882" lon="1.83882">
        <ele>1380.147</ele>
        <time>2019-04-19T14:20:27Z</time>
      </trkpt>
      <trkpt lat="42.23886" lon="1.8389">
        <ele>1379.64</ele>
        <time>2019-04-19T14:20:32Z</time>
      </trkpt>
      <trkpt lat="42.23888" lon="1.83904">
        <ele>1378.223</ele>
        <time>2019-04-19T14:20:39Z</time>
      </trkpt>
      <trkpt lat="42.23891" lon="1.83922">
        <ele>1376.216</ele>
        <time>2019-04-19T14:20:51Z</time>
      </trkpt>
      <trkpt lat="42.23891" lon="1.83924">
        <ele>1375.776</ele>
        <time>2019-04-19T14:20:52Z</time>
      </trkpt>
      <trkpt lat="42.23891" lon="1.83937">
        <ele>1374.313</ele>
        <time>2019-04-19T14:20:59Z</time>
      </trkpt>
      <trkpt lat="42.23888" lon="1.83946">
        <ele>1373.808</ele>
        <time>2019-04-19T14:21:03Z</time>
      </trkpt>
      <trkpt lat="42.23889" lon="1.83954">
        <ele>1372.934</ele>
        <time>2019-04-19T14:21:08Z</time>
      </trkpt>
      <trkpt lat="42.23892" lon="1.83977">
        <ele>1370.116</ele>
        <time>2019-04-19T14:21:22Z</time>
      </trkpt>
      <trkpt lat="42.23893" lon="1.83984">
        <ele>1369.015</ele>
        <time>2019-04-19T14:21:27Z</time>
      </trkpt>
      <trkpt lat="42.23895" lon="1.83994">
        <ele>1367.793</ele>
        <time>2019-04-19T14:21:33Z</time>
      </trkpt>
      <trkpt lat="42.23895" lon="1.84007">
        <ele>1365.379</ele>
        <time>2019-04-19T14:21:40Z</time>
      </trkpt>
      <trkpt lat="42.23895" lon="1.84015">
        <ele>1364.252</ele>
        <time>2019-04-19T14:21:46Z</time>
      </trkpt>
      <trkpt lat="42.23894" lon="1.84037">
        <ele>1359.955</ele>
        <time>2019-04-19T14:22:01Z</time>
      </trkpt>
      <trkpt lat="42.23892" lon="1.84042">
        <ele>1359.088</ele>
        <time>2019-04-19T14:22:04Z</time>
      </trkpt>
      <trkpt lat="42.23891" lon="1.84068">
        <ele>1356.048</ele>
        <time>2019-04-19T14:22:17Z</time>
      </trkpt>
      <trkpt lat="42.2389" lon="1.84078">
        <ele>1355.161</ele>
        <time>2019-04-19T14:22:22Z</time>
      </trkpt>
      <trkpt lat="42.23889" lon="1.84085">
        <ele>1354.717</ele>
        <time>2019-04-19T14:22:26Z</time>
      </trkpt>
      <trkpt lat="42.2389" lon="1.84091">
        <ele>1354.108</ele>
        <time>2019-04-19T14:22:29Z</time>
      </trkpt>
      <trkpt lat="42.2389" lon="1.84098">
        <ele>1352.827</ele>
        <time>2019-04-19T14:22:34Z</time>
      </trkpt>
      <trkpt lat="42.23888" lon="1.84108">
        <ele>1351.389</ele>
        <time>2019-04-19T14:22:41Z</time>
      </trkpt>
      <trkpt lat="42.23881" lon="1.84132">
        <ele>1347.978</ele>
        <time>2019-04-19T14:22:54Z</time>
      </trkpt>
      <trkpt lat="42.23878" lon="1.84146">
        <ele>1346.026</ele>
        <time>2019-04-19T14:23:01Z</time>
      </trkpt>
      <trkpt lat="42.23872" lon="1.84171">
        <ele>1343.152</ele>
        <time>2019-04-19T14:23:14Z</time>
      </trkpt>
      <trkpt lat="42.23867" lon="1.84189">
        <ele>1341.665</ele>
        <time>2019-04-19T14:23:25Z</time>
      </trkpt>
      <trkpt lat="42.23865" lon="1.84192">
        <ele>1341.248</ele>
        <time>2019-04-19T14:23:27Z</time>
      </trkpt>
      <trkpt lat="42.23864" lon="1.84197">
        <ele>1340.271</ele>
        <time>2019-04-19T14:23:30Z</time>
      </trkpt>
      <trkpt lat="42.23861" lon="1.84202">
        <ele>1339.236</ele>
        <time>2019-04-19T14:23:33Z</time>
      </trkpt>
      <trkpt lat="42.23856" lon="1.84211">
        <ele>1337.317</ele>
        <time>2019-04-19T14:23:39Z</time>
      </trkpt>
      <trkpt lat="42.23851" lon="1.8423">
        <ele>1336.418</ele>
        <time>2019-04-19T14:23:50Z</time>
      </trkpt>
      <trkpt lat="42.23842" lon="1.84246">
        <ele>1334.908</ele>
        <time>2019-04-19T14:24:02Z</time>
      </trkpt>
      <trkpt lat="42.2383" lon="1.84272">
        <ele>1336.896</ele>
        <time>2019-04-19T14:24:20Z</time>
      </trkpt>
      <trkpt lat="42.2382" lon="1.84289">
        <ele>1338.868</ele>
        <time>2019-04-19T14:24:34Z</time>
      </trkpt>
      <trkpt lat="42.23816" lon="1.84307">
        <ele>1340.737</ele>
        <time>2019-04-19T14:24:48Z</time>
      </trkpt>
      <trkpt lat="42.23813" lon="1.84321">
        <ele>1342.725</ele>
        <time>2019-04-19T14:25:01Z</time>
      </trkpt>
      <trkpt lat="42.23809" lon="1.84333">
        <ele>1343.681</ele>
        <time>2019-04-19T14:25:11Z</time>
      </trkpt>
      <trkpt lat="42.23805" lon="1.84343">
        <ele>1342.634</ele>
        <time>2019-04-19T14:25:19Z</time>
      </trkpt>
      <trkpt lat="42.23801" lon="1.84353">
        <ele>1341.217</ele>
        <time>2019-04-19T14:25:25Z</time>
      </trkpt>
      <trkpt lat="42.23796" lon="1.84363">
        <ele>1340.84</ele>
        <time>2019-04-19T14:25:32Z</time>
      </trkpt>
      <trkpt lat="42.23794" lon="1.84374">
        <ele>1339.748</ele>
        <time>2019-04-19T14:25:39Z</time>
      </trkpt>
      <trkpt lat="42.23788" lon="1.8439">
        <ele>1339.761</ele>
        <time>2019-04-19T14:25:49Z</time>
      </trkpt>
      <trkpt lat="42.23774" lon="1.84404">
        <ele>1340.217</ele>
        <time>2019-04-19T14:26:05Z</time>
      </trkpt>
      <trkpt lat="42.23763" lon="1.84422">
        <ele>1341.608</ele>
        <time>2019-04-19T14:26:20Z</time>
      </trkpt>
      <trkpt lat="42.23764" lon="1.84429">
        <ele>1341.617</ele>
        <time>2019-04-19T14:26:38Z</time>
      </trkpt>
      <trkpt lat="42.23762" lon="1.84431">
        <ele>1341.719</ele>
        <time>2019-04-19T14:27:05Z</time>
      </trkpt>
      <trkpt lat="42.23756" lon="1.84436">
        <ele>1342.228</ele>
        <time>2019-04-19T14:27:28Z</time>
      </trkpt>
      <trkpt lat="42.23746" lon="1.8445">
        <ele>1343.126</ele>
        <time>2019-04-19T14:27:42Z</time>
      </trkpt>
      <trkpt lat="42.23737" lon="1.84465">
        <ele>1343.292</ele>
        <time>2019-04-19T14:27:55Z</time>
      </trkpt>
      <trkpt lat="42.23732" lon="1.84485">
        <ele>1345.965</ele>
        <time>2019-04-19T14:28:10Z</time>
      </trkpt>
      <trkpt lat="42.23732" lon="1.84498">
        <ele>1347.498</ele>
        <time>2019-04-19T14:28:21Z</time>
      </trkpt>
      <trkpt lat="42.23729" lon="1.84516">
        <ele>1348.811</ele>
        <time>2019-04-19T14:28:35Z</time>
      </trkpt>
      <trkpt lat="42.23725" lon="1.84523">
        <ele>1345.912</ele>
        <time>2019-04-19T14:28:42Z</time>
      </trkpt>
      <trkpt lat="42.23721" lon="1.8453">
        <ele>1343.532</ele>
        <time>2019-04-19T14:28:48Z</time>
      </trkpt>
      <trkpt lat="42.23719" lon="1.84537">
        <ele>1342.705</ele>
        <time>2019-04-19T14:28:53Z</time>
      </trkpt>
      <trkpt lat="42.23715" lon="1.84552">
        <ele>1338.708</ele>
        <time>2019-04-19T14:29:05Z</time>
      </trkpt>
      <trkpt lat="42.23714" lon="1.84562">
        <ele>1337.334</ele>
        <time>2019-04-19T14:29:12Z</time>
      </trkpt>
      <trkpt lat="42.23713" lon="1.84568">
        <ele>1336.846</ele>
        <time>2019-04-19T14:29:15Z</time>
      </trkpt>
      <trkpt lat="42.2371" lon="1.84573">
        <ele>1336.935</ele>
        <time>2019-04-19T14:29:20Z</time>
      </trkpt>
      <trkpt lat="42.23712" lon="1.84582">
        <ele>1335.863</ele>
        <time>2019-04-19T14:29:24Z</time>
      </trkpt>
      <trkpt lat="42.23717" lon="1.84606">
        <ele>1334.459</ele>
        <time>2019-04-19T14:29:34Z</time>
      </trkpt>
      <trkpt lat="42.23718" lon="1.84619">
        <ele>1333.472</ele>
        <time>2019-04-19T14:29:40Z</time>
      </trkpt>
      <trkpt lat="42.23719" lon="1.84635">
        <ele>1330.755</ele>
        <time>2019-04-19T14:29:49Z</time>
      </trkpt>
      <trkpt lat="42.2372" lon="1.84647">
        <ele>1327.368</ele>
        <time>2019-04-19T14:29:58Z</time>
      </trkpt>
      <trkpt lat="42.23719" lon="1.84655">
        <ele>1323.886</ele>
        <time>2019-04-19T14:30:06Z</time>
      </trkpt>
      <trkpt lat="42.23715" lon="1.84665">
        <ele>1320.56</ele>
        <time>2019-04-19T14:30:15Z</time>
      </trkpt>
      <trkpt lat="42.23717" lon="1.84669">
        <ele>1320.026</ele>
        <time>2019-04-19T14:30:19Z</time>
      </trkpt>
      <trkpt lat="42.23719" lon="1.84677">
        <ele>1316.208</ele>
        <time>2019-04-19T14:30:31Z</time>
      </trkpt>
      <trkpt lat="42.23713" lon="1.84686">
        <ele>1312.351</ele>
        <time>2019-04-19T14:30:40Z</time>
      </trkpt>
      <trkpt lat="42.2371" lon="1.84691">
        <ele>1311.833</ele>
        <time>2019-04-19T14:30:43Z</time>
      </trkpt>
      <trkpt lat="42.23701" lon="1.84707">
        <ele>1307.572</ele>
        <time>2019-04-19T14:30:55Z</time>
      </trkpt>
      <trkpt lat="42.237" lon="1.8471">
        <ele>1306.68</ele>
        <time>2019-04-19T14:30:57Z</time>
      </trkpt>
      <trkpt lat="42.23691" lon="1.84724">
        <ele>1304.296</ele>
        <time>2019-04-19T14:31:06Z</time>
      </trkpt>
      <trkpt lat="42.23685" lon="1.84739">
        <ele>1301.339</ele>
        <time>2019-04-19T14:31:15Z</time>
      </trkpt>
      <trkpt lat="42.23678" lon="1.84754">
        <ele>1297.912</ele>
        <time>2019-04-19T14:31:26Z</time>
      </trkpt>
      <trkpt lat="42.23674" lon="1.84772">
        <ele>1295.195</ele>
        <time>2019-04-19T14:31:38Z</time>
      </trkpt>
      <trkpt lat="42.23675" lon="1.84788">
        <ele>1292.172</ele>
        <time>2019-04-19T14:31:49Z</time>
      </trkpt>
      <trkpt lat="42.23673" lon="1.84799">
        <ele>1288.713</ele>
        <time>2019-04-19T14:32:00Z</time>
      </trkpt>
      <trkpt lat="42.23681" lon="1.84821">
        <ele>1285.414</ele>
        <time>2019-04-19T14:32:10Z</time>
      </trkpt>
      <trkpt lat="42.23681" lon="1.84833">
        <ele>1281.608</ele>
        <time>2019-04-19T14:32:21Z</time>
      </trkpt>
      <trkpt lat="42.23683" lon="1.84848">
        <ele>1278.76</ele>
        <time>2019-04-19T14:32:30Z</time>
      </trkpt>
      <trkpt lat="42.23682" lon="1.8486">
        <ele>1275.472</ele>
        <time>2019-04-19T14:32:40Z</time>
      </trkpt>
      <trkpt lat="42.23683" lon="1.84863">
        <ele>1274.841</ele>
        <time>2019-04-19T14:32:41Z</time>
      </trkpt>
      <trkpt lat="42.2368" lon="1.84881">
        <ele>1271.469</ele>
        <time>2019-04-19T14:32:51Z</time>
      </trkpt>
      <trkpt lat="42.23683" lon="1.84893">
        <ele>1268.625</ele>
        <time>2019-04-19T14:32:59Z</time>
      </trkpt>
      <trkpt lat="42.23684" lon="1.84912">
        <ele>1265.268</ele>
        <time>2019-04-19T14:33:09Z</time>
      </trkpt>
      <trkpt lat="42.23683" lon="1.84938">
        <ele>1262.311</ele>
        <time>2019-04-19T14:33:23Z</time>
      </trkpt>
      <trkpt lat="42.23687" lon="1.84958">
        <ele>1259.554</ele>
        <time>2019-04-19T14:33:35Z</time>
      </trkpt>
      <trkpt lat="42.23693" lon="1.84977">
        <ele>1257.035</ele>
        <time>2019-04-19T14:33:45Z</time>
      </trkpt>
      <trkpt lat="42.23693" lon="1.84996">
        <ele>1254.186</ele>
        <time>2019-04-19T14:33:55Z</time>
      </trkpt>
      <trkpt lat="42.23695" lon="1.85005">
        <ele>1250.914</ele>
        <time>2019-04-19T14:34:05Z</time>
      </trkpt>
      <trkpt lat="42.23697" lon="1.85006">
        <ele>1247.908</ele>
        <time>2019-04-19T14:34:14Z</time>
      </trkpt>
      <trkpt lat="42.23699" lon="1.85015">
        <ele>1244.536</ele>
        <time>2019-04-19T14:34:20Z</time>
      </trkpt>
      <trkpt lat="42.237" lon="1.85018">
        <ele>1244.188</ele>
        <time>2019-04-19T14:34:22Z</time>
      </trkpt>
      <trkpt lat="42.23702" lon="1.85024">
        <ele>1239.767</ele>
        <time>2019-04-19T14:34:30Z</time>
      </trkpt>
      <trkpt lat="42.23703" lon="1.85027">
        <ele>1239.715</ele>
        <time>2019-04-19T14:34:31Z</time>
      </trkpt>
      <trkpt lat="42.23702" lon="1.85037">
        <ele>1236.491</ele>
        <time>2019-04-19T14:34:40Z</time>
      </trkpt>
      <trkpt lat="42.23701" lon="1.85049">
        <ele>1235.414</ele>
        <time>2019-04-19T14:34:48Z</time>
      </trkpt>
      <trkpt lat="42.23708" lon="1.85068">
        <ele>1232.097</ele>
        <time>2019-04-19T14:34:56Z</time>
      </trkpt>
      <trkpt lat="42.23728" lon="1.85118">
        <ele>1229.21</ele>
        <time>2019-04-19T14:35:06Z</time>
      </trkpt>
      <trkpt lat="42.23733" lon="1.85135">
        <ele>1225.361</ele>
        <time>2019-04-19T14:35:18Z</time>
      </trkpt>
      <trkpt lat="42.23735" lon="1.85135">
        <ele>1224.821</ele>
        <time>2019-04-19T14:35:20Z</time>
      </trkpt>
      <trkpt lat="42.23743" lon="1.85142">
        <ele>1222.013</ele>
        <time>2019-04-19T14:35:30Z</time>
      </trkpt>
      <trkpt lat="42.23748" lon="1.85155">
        <ele>1221.508</ele>
        <time>2019-04-19T14:35:37Z</time>
      </trkpt>
      <trkpt lat="42.23755" lon="1.85162">
        <ele>1220.019</ele>
        <time>2019-04-19T14:35:42Z</time>
      </trkpt>
      <trkpt lat="42.23763" lon="1.85177">
        <ele>1217.151</ele>
        <time>2019-04-19T14:35:54Z</time>
      </trkpt>
      <trkpt lat="42.23768" lon="1.85182">
        <ele>1213.92</ele>
        <time>2019-04-19T14:36:02Z</time>
      </trkpt>
      <trkpt lat="42.23773" lon="1.85188">
        <ele>1210.518</ele>
        <time>2019-04-19T14:36:09Z</time>
      </trkpt>
      <trkpt lat="42.23775" lon="1.85193">
        <ele>1210.014</ele>
        <time>2019-04-19T14:36:12Z</time>
      </trkpt>
      <trkpt lat="42.2378" lon="1.85213">
        <ele>1207.187</ele>
        <time>2019-04-19T14:36:23Z</time>
      </trkpt>
      <trkpt lat="42.23786" lon="1.8522">
        <ele>1204.11</ele>
        <time>2019-04-19T14:36:30Z</time>
      </trkpt>
      <trkpt lat="42.23793" lon="1.85231">
        <ele>1200.813</ele>
        <time>2019-04-19T14:36:39Z</time>
      </trkpt>
      <trkpt lat="42.238" lon="1.85239">
        <ele>1197.435</ele>
        <time>2019-04-19T14:36:48Z</time>
      </trkpt>
      <trkpt lat="42.23801" lon="1.85246">
        <ele>1196.086</ele>
        <time>2019-04-19T14:36:52Z</time>
      </trkpt>
      <trkpt lat="42.23807" lon="1.85251">
        <ele>1193.114</ele>
        <time>2019-04-19T14:37:00Z</time>
      </trkpt>
      <trkpt lat="42.23812" lon="1.85258">
        <ele>1189.708</ele>
        <time>2019-04-19T14:37:07Z</time>
      </trkpt>
      <trkpt lat="42.23815" lon="1.85263">
        <ele>1188.356</ele>
        <time>2019-04-19T14:37:11Z</time>
      </trkpt>
      <trkpt lat="42.23824" lon="1.85272">
        <ele>1184.998</ele>
        <time>2019-04-19T14:37:19Z</time>
      </trkpt>
      <trkpt lat="42.2383" lon="1.85284">
        <ele>1182.197</ele>
        <time>2019-04-19T14:37:28Z</time>
      </trkpt>
      <trkpt lat="42.23832" lon="1.85286">
        <ele>1181.275</ele>
        <time>2019-04-19T14:37:30Z</time>
      </trkpt>
      <trkpt lat="42.23838" lon="1.8529">
        <ele>1178.841</ele>
        <time>2019-04-19T14:37:35Z</time>
      </trkpt>
      <trkpt lat="42.23856" lon="1.85301">
        <ele>1176.474</ele>
        <time>2019-04-19T14:37:45Z</time>
      </trkpt>
      <trkpt lat="42.23864" lon="1.85307">
        <ele>1174.817</ele>
        <time>2019-04-19T14:37:50Z</time>
      </trkpt>
      <trkpt lat="42.23865" lon="1.85308">
        <ele>1174.98</ele>
        <time>2019-04-19T14:37:51Z</time>
      </trkpt>
      <trkpt lat="42.23867" lon="1.85309">
        <ele>1174.369</ele>
        <time>2019-04-19T14:37:52Z</time>
      </trkpt>
      <trkpt lat="42.23868" lon="1.85311">
        <ele>1174.304</ele>
        <time>2019-04-19T14:37:53Z</time>
      </trkpt>
      <trkpt lat="42.2387" lon="1.85312">
        <ele>1174.324</ele>
        <time>2019-04-19T14:37:54Z</time>
      </trkpt>
      <trkpt lat="42.23877" lon="1.85317">
        <ele>1173.008</ele>
        <time>2019-04-19T14:38:00Z</time>
      </trkpt>
      <trkpt lat="42.23892" lon="1.85329">
        <ele>1172.089</ele>
        <time>2019-04-19T14:38:13Z</time>
      </trkpt>
      <trkpt lat="42.23899" lon="1.85336">
        <ele>1171.931</ele>
        <time>2019-04-19T14:38:18Z</time>
      </trkpt>
      <trkpt lat="42.23901" lon="1.85336">
        <ele>1172.04</ele>
        <time>2019-04-19T14:38:19Z</time>
      </trkpt>
      <trkpt lat="42.23902" lon="1.85338">
        <ele>1171.998</ele>
        <time>2019-04-19T14:38:20Z</time>
      </trkpt>
      <trkpt lat="42.23903" lon="1.85339">
        <ele>1171.914</ele>
        <time>2019-04-19T14:38:21Z</time>
      </trkpt>
      <trkpt lat="42.23904" lon="1.8534">
        <ele>1171.647</ele>
        <time>2019-04-19T14:38:22Z</time>
      </trkpt>
      <trkpt lat="42.23918" lon="1.85356">
        <ele>1168.69</ele>
        <time>2019-04-19T14:38:35Z</time>
      </trkpt>
      <trkpt lat="42.23921" lon="1.85361">
        <ele>1168.783</ele>
        <time>2019-04-19T14:38:38Z</time>
      </trkpt>
      <trkpt lat="42.23921" lon="1.85362">
        <ele>1168.194</ele>
        <time>2019-04-19T14:38:39Z</time>
      </trkpt>
      <trkpt lat="42.23928" lon="1.85372">
        <ele>1166.257</ele>
        <time>2019-04-19T14:38:47Z</time>
      </trkpt>
      <trkpt lat="42.23929" lon="1.85374">
        <ele>1165.722</ele>
        <time>2019-04-19T14:38:48Z</time>
      </trkpt>
      <trkpt lat="42.23931" lon="1.85376">
        <ele>1164.808</ele>
        <time>2019-04-19T14:38:50Z</time>
      </trkpt>
      <trkpt lat="42.23932" lon="1.85378">
        <ele>1164.262</ele>
        <time>2019-04-19T14:38:51Z</time>
      </trkpt>
      <trkpt lat="42.23932" lon="1.85381">
        <ele>1163.314</ele>
        <time>2019-04-19T14:38:53Z</time>
      </trkpt>
      <trkpt lat="42.23935" lon="1.85388">
        <ele>1161.533</ele>
        <time>2019-04-19T14:38:59Z</time>
      </trkpt>
      <trkpt lat="42.23939" lon="1.85397">
        <ele>1159.011</ele>
        <time>2019-04-19T14:39:05Z</time>
      </trkpt>
      <trkpt lat="42.2394" lon="1.854">
        <ele>1158.037</ele>
        <time>2019-04-19T14:39:07Z</time>
      </trkpt>
      <trkpt lat="42.23941" lon="1.85404">
        <ele>1157.61</ele>
        <time>2019-04-19T14:39:10Z</time>
      </trkpt>
      <trkpt lat="42.23941" lon="1.85405">
        <ele>1157.693</ele>
        <time>2019-04-19T14:39:11Z</time>
      </trkpt>
      <trkpt lat="42.23942" lon="1.85411">
        <ele>1155.756</ele>
        <time>2019-04-19T14:39:14Z</time>
      </trkpt>
      <trkpt lat="42.23948" lon="1.85419">
        <ele>1153.798</ele>
        <time>2019-04-19T14:39:20Z</time>
      </trkpt>
      <trkpt lat="42.23954" lon="1.85431">
        <ele>1151.315</ele>
        <time>2019-04-19T14:39:28Z</time>
      </trkpt>
      <trkpt lat="42.23961" lon="1.8545">
        <ele>1149.326</ele>
        <time>2019-04-19T14:39:39Z</time>
      </trkpt>
      <trkpt lat="42.23962" lon="1.85452">
        <ele>1149.408</ele>
        <time>2019-04-19T14:39:40Z</time>
      </trkpt>
      <trkpt lat="42.23964" lon="1.85455">
        <ele>1148.962</ele>
        <time>2019-04-19T14:39:41Z</time>
      </trkpt>
      <trkpt lat="42.23972" lon="1.85477">
        <ele>1146.614</ele>
        <time>2019-04-19T14:39:53Z</time>
      </trkpt>
      <trkpt lat="42.23976" lon="1.85487">
        <ele>1145.173</ele>
        <time>2019-04-19T14:39:58Z</time>
      </trkpt>
      <trkpt lat="42.23977" lon="1.85489">
        <ele>1144.661</ele>
        <time>2019-04-19T14:39:59Z</time>
      </trkpt>
      <trkpt lat="42.23977" lon="1.85491">
        <ele>1144.537</ele>
        <time>2019-04-19T14:40:00Z</time>
      </trkpt>
      <trkpt lat="42.23978" lon="1.85494">
        <ele>1144.21</ele>
        <time>2019-04-19T14:40:01Z</time>
      </trkpt>
      <trkpt lat="42.23981" lon="1.85502">
        <ele>1142.193</ele>
        <time>2019-04-19T14:40:05Z</time>
      </trkpt>
      <trkpt lat="42.23981" lon="1.85504">
        <ele>1142.136</ele>
        <time>2019-04-19T14:40:06Z</time>
      </trkpt>
      <trkpt lat="42.23985" lon="1.85517">
        <ele>1138.873</ele>
        <time>2019-04-19T14:40:15Z</time>
      </trkpt>
      <trkpt lat="42.23985" lon="1.85521">
        <ele>1138.385</ele>
        <time>2019-04-19T14:40:17Z</time>
      </trkpt>
      <trkpt lat="42.23987" lon="1.8553">
        <ele>1137.013</ele>
        <time>2019-04-19T14:40:21Z</time>
      </trkpt>
      <trkpt lat="42.23988" lon="1.85532">
        <ele>1136.508</ele>
        <time>2019-04-19T14:40:22Z</time>
      </trkpt>
      <trkpt lat="42.23989" lon="1.85545">
        <ele>1133.66</ele>
        <time>2019-04-19T14:40:30Z</time>
      </trkpt>
      <trkpt lat="42.23991" lon="1.85556">
        <ele>1132.182</ele>
        <time>2019-04-19T14:40:35Z</time>
      </trkpt>
      <trkpt lat="42.23992" lon="1.85558">
        <ele>1131.761</ele>
        <time>2019-04-19T14:40:36Z</time>
      </trkpt>
      <trkpt lat="42.23996" lon="1.85574">
        <ele>1128.349</ele>
        <time>2019-04-19T14:40:45Z</time>
      </trkpt>
      <trkpt lat="42.23997" lon="1.85576">
        <ele>1127.385</ele>
        <time>2019-04-19T14:40:46Z</time>
      </trkpt>
      <trkpt lat="42.23998" lon="1.85577">
        <ele>1127.398</ele>
        <time>2019-04-19T14:40:47Z</time>
      </trkpt>
      <trkpt lat="42.24001" lon="1.8558">
        <ele>1125.961</ele>
        <time>2019-04-19T14:40:50Z</time>
      </trkpt>
      <trkpt lat="42.24006" lon="1.85584">
        <ele>1123.044</ele>
        <time>2019-04-19T14:40:56Z</time>
      </trkpt>
      <trkpt lat="42.24008" lon="1.85596">
        <ele>1121.036</ele>
        <time>2019-04-19T14:41:04Z</time>
      </trkpt>
      <trkpt lat="42.24007" lon="1.85604">
        <ele>1119.517</ele>
        <time>2019-04-19T14:41:08Z</time>
      </trkpt>
      <trkpt lat="42.24009" lon="1.85612">
        <ele>1118.218</ele>
        <time>2019-04-19T14:41:12Z</time>
      </trkpt>
      <trkpt lat="42.24012" lon="1.85615">
        <ele>1117.608</ele>
        <time>2019-04-19T14:41:15Z</time>
      </trkpt>
      <trkpt lat="42.24019" lon="1.85621">
        <ele>1115.366</ele>
        <time>2019-04-19T14:41:23Z</time>
      </trkpt>
      <trkpt lat="42.24022" lon="1.85622">
        <ele>1113.348</ele>
        <time>2019-04-19T14:41:26Z</time>
      </trkpt>
      <trkpt lat="42.24028" lon="1.8563">
        <ele>1111.587</ele>
        <time>2019-04-19T14:41:31Z</time>
      </trkpt>
      <trkpt lat="42.24034" lon="1.85638">
        <ele>1109.115</ele>
        <time>2019-04-19T14:41:37Z</time>
      </trkpt>
      <trkpt lat="42.24036" lon="1.85646">
        <ele>1107.211</ele>
        <time>2019-04-19T14:41:42Z</time>
      </trkpt>
      <trkpt lat="42.24039" lon="1.85654">
        <ele>1104.374</ele>
        <time>2019-04-19T14:41:47Z</time>
      </trkpt>
      <trkpt lat="42.24045" lon="1.85662">
        <ele>1102.867</ele>
        <time>2019-04-19T14:41:52Z</time>
      </trkpt>
      <trkpt lat="42.2406" lon="1.8567">
        <ele>1100.42</ele>
        <time>2019-04-19T14:42:03Z</time>
      </trkpt>
      <trkpt lat="42.24062" lon="1.85676">
        <ele>1099.826</ele>
        <time>2019-04-19T14:42:08Z</time>
      </trkpt>
      <trkpt lat="42.24061" lon="1.85678">
        <ele>1099.847</ele>
        <time>2019-04-19T14:42:09Z</time>
      </trkpt>
      <trkpt lat="42.2406" lon="1.85685">
        <ele>1099.011</ele>
        <time>2019-04-19T14:42:15Z</time>
      </trkpt>
      <trkpt lat="42.24059" lon="1.85687">
        <ele>1099.008</ele>
        <time>2019-04-19T14:42:16Z</time>
      </trkpt>
      <trkpt lat="42.24058" lon="1.85688">
        <ele>1098.465</ele>
        <time>2019-04-19T14:42:30Z</time>
      </trkpt>
      <trkpt lat="42.24057" lon="1.85694">
        <ele>1098.087</ele>
        <time>2019-04-19T14:42:54Z</time>
      </trkpt>
      <trkpt lat="42.24053" lon="1.85718">
        <ele>1095.656</ele>
        <time>2019-04-19T14:43:06Z</time>
      </trkpt>
      <trkpt lat="42.24052" lon="1.85724">
        <ele>1095.024</ele>
        <time>2019-04-19T14:43:10Z</time>
      </trkpt>
      <trkpt lat="42.24051" lon="1.85727">
        <ele>1094.28</ele>
        <time>2019-04-19T14:43:12Z</time>
      </trkpt>
      <trkpt lat="42.24051" lon="1.85729">
        <ele>1094.213</ele>
        <time>2019-04-19T14:43:13Z</time>
      </trkpt>
      <trkpt lat="42.2405" lon="1.85731">
        <ele>1094.246</ele>
        <time>2019-04-19T14:43:14Z</time>
      </trkpt>
      <trkpt lat="42.24048" lon="1.85746">
        <ele>1092.219</ele>
        <time>2019-04-19T14:43:22Z</time>
      </trkpt>
      <trkpt lat="42.24048" lon="1.85748">
        <ele>1091.772</ele>
        <time>2019-04-19T14:43:23Z</time>
      </trkpt>
      <trkpt lat="42.24048" lon="1.8575">
        <ele>1091.713</ele>
        <time>2019-04-19T14:43:24Z</time>
      </trkpt>
      <trkpt lat="42.24047" lon="1.85753">
        <ele>1091.214</ele>
        <time>2019-04-19T14:43:25Z</time>
      </trkpt>
      <trkpt lat="42.24047" lon="1.85755">
        <ele>1091.308</ele>
        <time>2019-04-19T14:43:26Z</time>
      </trkpt>
      <trkpt lat="42.24046" lon="1.85758">
        <ele>1091.34</ele>
        <time>2019-04-19T14:43:27Z</time>
      </trkpt>
      <trkpt lat="42.24042" lon="1.8578">
        <ele>1089.812</ele>
        <time>2019-04-19T14:43:40Z</time>
      </trkpt>
      <trkpt lat="42.2404" lon="1.85783">
        <ele>1089.371</ele>
        <time>2019-04-19T14:43:42Z</time>
      </trkpt>
      <trkpt lat="42.2404" lon="1.85785">
        <ele>1089.369</ele>
        <time>2019-04-19T14:43:43Z</time>
      </trkpt>
      <trkpt lat="42.24039" lon="1.85787">
        <ele>1088.825</ele>
        <time>2019-04-19T14:43:44Z</time>
      </trkpt>
      <trkpt lat="42.24038" lon="1.85788">
        <ele>1088.828</ele>
        <time>2019-04-19T14:43:45Z</time>
      </trkpt>
      <trkpt lat="42.24038" lon="1.8579">
        <ele>1088.481</ele>
        <time>2019-04-19T14:43:46Z</time>
      </trkpt>
      <trkpt lat="42.24035" lon="1.85817">
        <ele>1087.454</ele>
        <time>2019-04-19T14:43:59Z</time>
      </trkpt>
      <trkpt lat="42.24037" lon="1.85842">
        <ele>1084.577</ele>
        <time>2019-04-19T14:44:13Z</time>
      </trkpt>
      <trkpt lat="42.24041" lon="1.85869">
        <ele>1081.161</ele>
        <time>2019-04-19T14:44:26Z</time>
      </trkpt>
      <trkpt lat="42.24045" lon="1.85898">
        <ele>1079.227</ele>
        <time>2019-04-19T14:44:39Z</time>
      </trkpt>
      <trkpt lat="42.24045" lon="1.85901">
        <ele>1079.208</ele>
        <time>2019-04-19T14:44:40Z</time>
      </trkpt>
      <trkpt lat="42.24046" lon="1.85903">
        <ele>1079.25</ele>
        <time>2019-04-19T14:44:41Z</time>
      </trkpt>
      <trkpt lat="42.24055" lon="1.85932">
        <ele>1077.292</ele>
        <time>2019-04-19T14:44:55Z</time>
      </trkpt>
      <trkpt lat="42.24062" lon="1.85952">
        <ele>1075.891</ele>
        <time>2019-04-19T14:45:05Z</time>
      </trkpt>
      <trkpt lat="42.24075" lon="1.85974">
        <ele>1073.049</ele>
        <time>2019-04-19T14:45:20Z</time>
      </trkpt>
      <trkpt lat="42.24079" lon="1.85996">
        <ele>1071.125</ele>
        <time>2019-04-19T14:45:33Z</time>
      </trkpt>
      <trkpt lat="42.24078" lon="1.85997">
        <ele>1070.618</ele>
        <time>2019-04-19T14:45:34Z</time>
      </trkpt>
      <trkpt lat="42.24076" lon="1.85999">
        <ele>1070.161</ele>
        <time>2019-04-19T14:45:36Z</time>
      </trkpt>
      <trkpt lat="42.24075" lon="1.85999">
        <ele>1070.014</ele>
        <time>2019-04-19T14:45:37Z</time>
      </trkpt>
      <trkpt lat="42.24073" lon="1.86">
        <ele>1070.037</ele>
        <time>2019-04-19T14:45:38Z</time>
      </trkpt>
      <trkpt lat="42.24072" lon="1.86001">
        <ele>1070.049</ele>
        <time>2019-04-19T14:45:39Z</time>
      </trkpt>
      <trkpt lat="42.24071" lon="1.86001">
        <ele>1070.113</ele>
        <time>2019-04-19T14:45:40Z</time>
      </trkpt>
      <trkpt lat="42.24069" lon="1.86002">
        <ele>1070.008</ele>
        <time>2019-04-19T14:45:41Z</time>
      </trkpt>
      <trkpt lat="42.24068" lon="1.86003">
        <ele>1069.726</ele>
        <time>2019-04-19T14:45:42Z</time>
      </trkpt>
      <trkpt lat="42.24064" lon="1.86006">
        <ele>1069.218</ele>
        <time>2019-04-19T14:45:54Z</time>
      </trkpt>
      <trkpt lat="42.24058" lon="1.86012">
        <ele>1068.747</ele>
        <time>2019-04-19T14:46:07Z</time>
      </trkpt>
      <trkpt lat="42.24042" lon="1.86008">
        <ele>1067.345</ele>
        <time>2019-04-19T14:46:20Z</time>
      </trkpt>
      <trkpt lat="42.2404" lon="1.86005">
        <ele>1067.231</ele>
        <time>2019-04-19T14:46:23Z</time>
      </trkpt>
      <trkpt lat="42.24028" lon="1.85984">
        <ele>1064.324</ele>
        <time>2019-04-19T14:46:38Z</time>
      </trkpt>
      <trkpt lat="42.2402" lon="1.85956">
        <ele>1061.437</ele>
        <time>2019-04-19T14:46:54Z</time>
      </trkpt>
      <trkpt lat="42.24018" lon="1.85945">
        <ele>1060.56</ele>
        <time>2019-04-19T14:47:00Z</time>
      </trkpt>
      <trkpt lat="42.24016" lon="1.85934">
        <ele>1059.564</ele>
        <time>2019-04-19T14:47:05Z</time>
      </trkpt>
      <trkpt lat="42.24015" lon="1.85932">
        <ele>1059.506</ele>
        <time>2019-04-19T14:47:06Z</time>
      </trkpt>
      <trkpt lat="42.24014" lon="1.85929">
        <ele>1059.516</ele>
        <time>2019-04-19T14:47:07Z</time>
      </trkpt>
      <trkpt lat="42.24005" lon="1.85908">
        <ele>1057.508</ele>
        <time>2019-04-19T14:47:21Z</time>
      </trkpt>
      <trkpt lat="42.24002" lon="1.85904">
        <ele>1057.179</ele>
        <time>2019-04-19T14:47:24Z</time>
      </trkpt>
      <trkpt lat="42.23991" lon="1.85887">
        <ele>1055.691</ele>
        <time>2019-04-19T14:47:35Z</time>
      </trkpt>
      <trkpt lat="42.23976" lon="1.85866">
        <ele>1053.32</ele>
        <time>2019-04-19T14:47:50Z</time>
      </trkpt>
      <trkpt lat="42.23967" lon="1.8584">
        <ele>1051.378</ele>
        <time>2019-04-19T14:48:05Z</time>
      </trkpt>
      <trkpt lat="42.23966" lon="1.85834">
        <ele>1050.864</ele>
        <time>2019-04-19T14:48:08Z</time>
      </trkpt>
      <trkpt lat="42.23966" lon="1.8583">
        <ele>1050.997</ele>
        <time>2019-04-19T14:48:10Z</time>
      </trkpt>
      <trkpt lat="42.23967" lon="1.85811">
        <ele>1047.92</ele>
        <time>2019-04-19T14:48:24Z</time>
      </trkpt>
      <trkpt lat="42.23965" lon="1.85791">
        <ele>1046.053</ele>
        <time>2019-04-19T14:48:34Z</time>
      </trkpt>
      <trkpt lat="42.23964" lon="1.8578">
        <ele>1045.056</ele>
        <time>2019-04-19T14:48:39Z</time>
      </trkpt>
      <trkpt lat="42.23963" lon="1.85778">
        <ele>1045.059</ele>
        <time>2019-04-19T14:48:40Z</time>
      </trkpt>
      <trkpt lat="42.23957" lon="1.85768">
        <ele>1044.214</ele>
        <time>2019-04-19T14:48:46Z</time>
      </trkpt>
      <trkpt lat="42.23946" lon="1.85758">
        <ele>1041.708</ele>
        <time>2019-04-19T14:48:54Z</time>
      </trkpt>
      <trkpt lat="42.23924" lon="1.8575">
        <ele>1041.768</ele>
        <time>2019-04-19T14:49:08Z</time>
      </trkpt>
      <trkpt lat="42.23916" lon="1.85749">
        <ele>1040.27</ele>
        <time>2019-04-19T14:49:13Z</time>
      </trkpt>
      <trkpt lat="42.23906" lon="1.85745">
        <ele>1039.929</ele>
        <time>2019-04-19T14:49:20Z</time>
      </trkpt>
      <trkpt lat="42.23905" lon="1.85744">
        <ele>1039.827</ele>
        <time>2019-04-19T14:49:21Z</time>
      </trkpt>
      <trkpt lat="42.23903" lon="1.85743">
        <ele>1039.983</ele>
        <time>2019-04-19T14:49:22Z</time>
      </trkpt>
      <trkpt lat="42.23902" lon="1.85743">
        <ele>1039.936</ele>
        <time>2019-04-19T14:49:23Z</time>
      </trkpt>
      <trkpt lat="42.239" lon="1.85742">
        <ele>1039.899</ele>
        <time>2019-04-19T14:49:24Z</time>
      </trkpt>
      <trkpt lat="42.23893" lon="1.85737">
        <ele>1038.842</ele>
        <time>2019-04-19T14:49:31Z</time>
      </trkpt>
      <trkpt lat="42.23878" lon="1.85721">
        <ele>1037.863</ele>
        <time>2019-04-19T14:49:42Z</time>
      </trkpt>
      <trkpt lat="42.23868" lon="1.85716">
        <ele>1037.444</ele>
        <time>2019-04-19T14:49:50Z</time>
      </trkpt>
      <trkpt lat="42.23867" lon="1.85717">
        <ele>1037.018</ele>
        <time>2019-04-19T14:49:51Z</time>
      </trkpt>
      <trkpt lat="42.23867" lon="1.85718">
        <ele>1036.508</ele>
        <time>2019-04-19T14:49:52Z</time>
      </trkpt>
      <trkpt lat="42.23868" lon="1.85721">
        <ele>1036.069</ele>
        <time>2019-04-19T14:49:53Z</time>
      </trkpt>
      <trkpt lat="42.23869" lon="1.85726">
        <ele>1034.551</ele>
        <time>2019-04-19T14:49:57Z</time>
      </trkpt>
      <trkpt lat="42.23869" lon="1.85728">
        <ele>1034.19</ele>
        <time>2019-04-19T14:49:58Z</time>
      </trkpt>
      <trkpt lat="42.2387" lon="1.85732">
        <ele>1033.028</ele>
        <time>2019-04-19T14:50:00Z</time>
      </trkpt>
      <trkpt lat="42.23872" lon="1.85743">
        <ele>1031.134</ele>
        <time>2019-04-19T14:50:06Z</time>
      </trkpt>
      <trkpt lat="42.23872" lon="1.85756">
        <ele>1029.247</ele>
        <time>2019-04-19T14:50:13Z</time>
      </trkpt>
      <trkpt lat="42.23871" lon="1.85758">
        <ele>1028.86</ele>
        <time>2019-04-19T14:50:14Z</time>
      </trkpt>
      <trkpt lat="42.23869" lon="1.85759">
        <ele>1027.753</ele>
        <time>2019-04-19T14:50:16Z</time>
      </trkpt>
      <trkpt lat="42.23868" lon="1.8576">
        <ele>1027.395</ele>
        <time>2019-04-19T14:50:17Z</time>
      </trkpt>
      <trkpt lat="42.23867" lon="1.85762">
        <ele>1026.849</ele>
        <time>2019-04-19T14:50:19Z</time>
      </trkpt>
      <trkpt lat="42.23866" lon="1.85767">
        <ele>1025.423</ele>
        <time>2019-04-19T14:50:22Z</time>
      </trkpt>
      <trkpt lat="42.23874" lon="1.85781">
        <ele>1022.608</ele>
        <time>2019-04-19T14:50:36Z</time>
      </trkpt>
      <trkpt lat="42.23878" lon="1.8579">
        <ele>1022.182</ele>
        <time>2019-04-19T14:50:41Z</time>
      </trkpt>
      <trkpt lat="42.23886" lon="1.85801">
        <ele>1018.734</ele>
        <time>2019-04-19T14:50:52Z</time>
      </trkpt>
      <trkpt lat="42.23879" lon="1.85798">
        <ele>1015.883</ele>
        <time>2019-04-19T14:51:02Z</time>
      </trkpt>
      <trkpt lat="42.23875" lon="1.85801">
        <ele>1013.831</ele>
        <time>2019-04-19T14:51:08Z</time>
      </trkpt>
      <trkpt lat="42.23872" lon="1.85805">
        <ele>1012.457</ele>
        <time>2019-04-19T14:51:11Z</time>
      </trkpt>
      <trkpt lat="42.23873" lon="1.85825">
        <ele>1008.02</ele>
        <time>2019-04-19T14:51:22Z</time>
      </trkpt>
      <trkpt lat="42.23872" lon="1.85828">
        <ele>1008.643</ele>
        <time>2019-04-19T14:51:23Z</time>
      </trkpt>
      <trkpt lat="42.2387" lon="1.85832">
        <ele>1006.626</ele>
        <time>2019-04-19T14:51:26Z</time>
      </trkpt>
      <trkpt lat="42.23871" lon="1.85835">
        <ele>1006.625</ele>
        <time>2019-04-19T14:51:29Z</time>
      </trkpt>
      <trkpt lat="42.23872" lon="1.85843">
        <ele>1003.726</ele>
        <time>2019-04-19T14:51:36Z</time>
      </trkpt>
      <trkpt lat="42.23873" lon="1.85855">
        <ele>999.908</ele>
        <time>2019-04-19T14:51:47Z</time>
      </trkpt>
      <trkpt lat="42.23874" lon="1.85863">
        <ele>998.408</ele>
        <time>2019-04-19T14:51:53Z</time>
      </trkpt>
      <trkpt lat="42.23871" lon="1.85885">
        <ele>997.115</ele>
        <time>2019-04-19T14:52:03Z</time>
      </trkpt>
      <trkpt lat="42.23872" lon="1.85897">
        <ele>995.627</ele>
        <time>2019-04-19T14:52:10Z</time>
      </trkpt>
      <trkpt lat="42.23872" lon="1.85898">
        <ele>994.646</ele>
        <time>2019-04-19T14:52:11Z</time>
      </trkpt>
      <trkpt lat="42.23872" lon="1.85903">
        <ele>994.644</ele>
        <time>2019-04-19T14:52:13Z</time>
      </trkpt>
      <trkpt lat="42.23872" lon="1.85912">
        <ele>993.63</ele>
        <time>2019-04-19T14:52:19Z</time>
      </trkpt>
      <trkpt lat="42.23871" lon="1.85918">
        <ele>992.783</ele>
        <time>2019-04-19T14:52:21Z</time>
      </trkpt>
      <trkpt lat="42.2387" lon="1.85922">
        <ele>992.376</ele>
        <time>2019-04-19T14:52:23Z</time>
      </trkpt>
      <trkpt lat="42.2387" lon="1.85923">
        <ele>991.269</ele>
        <time>2019-04-19T14:52:24Z</time>
      </trkpt>
      <trkpt lat="42.2387" lon="1.85943">
        <ele>989.343</ele>
        <time>2019-04-19T14:52:35Z</time>
      </trkpt>
      <trkpt lat="42.2387" lon="1.85965">
        <ele>987.464</ele>
        <time>2019-04-19T14:52:44Z</time>
      </trkpt>
      <trkpt lat="42.23872" lon="1.85977">
        <ele>985.51</ele>
        <time>2019-04-19T14:52:50Z</time>
      </trkpt>
      <trkpt lat="42.23872" lon="1.85981">
        <ele>986.008</ele>
        <time>2019-04-19T14:52:52Z</time>
      </trkpt>
      <trkpt lat="42.23873" lon="1.85983">
        <ele>985.027</ele>
        <time>2019-04-19T14:52:53Z</time>
      </trkpt>
      <trkpt lat="42.23873" lon="1.85985">
        <ele>985.179</ele>
        <time>2019-04-19T14:52:54Z</time>
      </trkpt>
      <trkpt lat="42.23871" lon="1.86004">
        <ele>983.098</ele>
        <time>2019-04-19T14:53:03Z</time>
      </trkpt>
      <trkpt lat="42.23871" lon="1.86006">
        <ele>982.696</ele>
        <time>2019-04-19T14:53:04Z</time>
      </trkpt>
      <trkpt lat="42.23871" lon="1.86008">
        <ele>982.772</ele>
        <time>2019-04-19T14:53:05Z</time>
      </trkpt>
      <trkpt lat="42.23867" lon="1.86024">
        <ele>980.395</ele>
        <time>2019-04-19T14:53:16Z</time>
      </trkpt>
      <trkpt lat="42.23866" lon="1.86025">
        <ele>979.878</ele>
        <time>2019-04-19T14:53:17Z</time>
      </trkpt>
      <trkpt lat="42.23863" lon="1.86036">
        <ele>978.381</ele>
        <time>2019-04-19T14:53:23Z</time>
      </trkpt>
      <trkpt lat="42.23863" lon="1.86042">
        <ele>977.887</ele>
        <time>2019-04-19T14:53:26Z</time>
      </trkpt>
      <trkpt lat="42.2386" lon="1.86051">
        <ele>976.342</ele>
        <time>2019-04-19T14:53:32Z</time>
      </trkpt>
      <trkpt lat="42.23855" lon="1.86064">
        <ele>974.526</ele>
        <time>2019-04-19T14:53:38Z</time>
      </trkpt>
      <trkpt lat="42.23849" lon="1.86073">
        <ele>973.508</ele>
        <time>2019-04-19T14:53:45Z</time>
      </trkpt>
      <trkpt lat="42.23842" lon="1.86093">
        <ele>970.271</ele>
        <time>2019-04-19T14:53:56Z</time>
      </trkpt>
      <trkpt lat="42.23837" lon="1.86113">
        <ele>966.873</ele>
        <time>2019-04-19T14:54:08Z</time>
      </trkpt>
      <trkpt lat="42.23835" lon="1.86118">
        <ele>966.222</ele>
        <time>2019-04-19T14:54:11Z</time>
      </trkpt>
      <trkpt lat="42.23835" lon="1.8612">
        <ele>965.48</ele>
        <time>2019-04-19T14:54:12Z</time>
      </trkpt>
      <trkpt lat="42.23834" lon="1.86122">
        <ele>965.376</ele>
        <time>2019-04-19T14:54:13Z</time>
      </trkpt>
      <trkpt lat="42.23833" lon="1.86124">
        <ele>965.439</ele>
        <time>2019-04-19T14:54:14Z</time>
      </trkpt>
      <trkpt lat="42.23832" lon="1.86126">
        <ele>964.952</ele>
        <time>2019-04-19T14:54:15Z</time>
      </trkpt>
      <trkpt lat="42.23828" lon="1.86143">
        <ele>962.025</ele>
        <time>2019-04-19T14:54:26Z</time>
      </trkpt>
      <trkpt lat="42.23826" lon="1.86157">
        <ele>959.089</ele>
        <time>2019-04-19T14:54:36Z</time>
      </trkpt>
      <trkpt lat="42.23825" lon="1.86173">
        <ele>955.606</ele>
        <time>2019-04-19T14:54:49Z</time>
      </trkpt>
      <trkpt lat="42.23827" lon="1.86185">
        <ele>952.426</ele>
        <time>2019-04-19T14:54:59Z</time>
      </trkpt>
      <trkpt lat="42.23833" lon="1.862">
        <ele>949.908</ele>
        <time>2019-04-19T14:55:11Z</time>
      </trkpt>
      <trkpt lat="42.23834" lon="1.86215">
        <ele>946.681</ele>
        <time>2019-04-19T14:55:21Z</time>
      </trkpt>
      <trkpt lat="42.23841" lon="1.86234">
        <ele>943.173</ele>
        <time>2019-04-19T14:55:32Z</time>
      </trkpt>
      <trkpt lat="42.23843" lon="1.86249">
        <ele>941.822</ele>
        <time>2019-04-19T14:55:40Z</time>
      </trkpt>
      <trkpt lat="42.23844" lon="1.86261">
        <ele>940.46</ele>
        <time>2019-04-19T14:55:46Z</time>
      </trkpt>
      <trkpt lat="42.23845" lon="1.86274">
        <ele>938.896</ele>
        <time>2019-04-19T14:55:52Z</time>
      </trkpt>
      <trkpt lat="42.23846" lon="1.86295">
        <ele>936.549</ele>
        <time>2019-04-19T14:56:01Z</time>
      </trkpt>
      <trkpt lat="42.23846" lon="1.86301">
        <ele>935.942</ele>
        <time>2019-04-19T14:56:04Z</time>
      </trkpt>
      <trkpt lat="42.23846" lon="1.86303">
        <ele>936.015</ele>
        <time>2019-04-19T14:56:05Z</time>
      </trkpt>
      <trkpt lat="42.23847" lon="1.86314">
        <ele>934.078</ele>
        <time>2019-04-19T14:56:12Z</time>
      </trkpt>
      <trkpt lat="42.23846" lon="1.86334">
        <ele>931.633</ele>
        <time>2019-04-19T14:56:24Z</time>
      </trkpt>
      <trkpt lat="42.23847" lon="1.86338">
        <ele>931.626</ele>
        <time>2019-04-19T14:56:26Z</time>
      </trkpt>
      <trkpt lat="42.23849" lon="1.86364">
        <ele>928.708</ele>
        <time>2019-04-19T14:56:39Z</time>
      </trkpt>
      <trkpt lat="42.23849" lon="1.86391">
        <ele>927.48</ele>
        <time>2019-04-19T14:56:52Z</time>
      </trkpt>
      <trkpt lat="42.2385" lon="1.86404">
        <ele>926.812</ele>
        <time>2019-04-19T14:56:59Z</time>
      </trkpt>
      <trkpt lat="42.23852" lon="1.86417">
        <ele>925.541</ele>
        <time>2019-04-19T14:57:08Z</time>
      </trkpt>
      <trkpt lat="42.23852" lon="1.86423">
        <ele>925.079</ele>
        <time>2019-04-19T14:57:11Z</time>
      </trkpt>
      <trkpt lat="42.23852" lon="1.86444">
        <ele>922.155</ele>
        <time>2019-04-19T14:57:22Z</time>
      </trkpt>
      <trkpt lat="42.23851" lon="1.86447">
        <ele>920.618</ele>
        <time>2019-04-19T14:57:25Z</time>
      </trkpt>
      <trkpt lat="42.23849" lon="1.86456">
        <ele>917.721</ele>
        <time>2019-04-19T14:57:33Z</time>
      </trkpt>
      <trkpt lat="42.23844" lon="1.86464">
        <ele>914.364</ele>
        <time>2019-04-19T14:57:41Z</time>
      </trkpt>
      <trkpt lat="42.23843" lon="1.86474">
        <ele>910.978</ele>
        <time>2019-04-19T14:57:50Z</time>
      </trkpt>
      <trkpt lat="42.23846" lon="1.86479">
        <ele>909.533</ele>
        <time>2019-04-19T14:57:54Z</time>
      </trkpt>
      <trkpt lat="42.23856" lon="1.86488">
        <ele>907.126</ele>
        <time>2019-04-19T14:58:05Z</time>
      </trkpt>
      <trkpt lat="42.23867" lon="1.86501">
        <ele>904.308</ele>
        <time>2019-04-19T14:58:17Z</time>
      </trkpt>
      <trkpt lat="42.23881" lon="1.86519">
        <ele>902.99</ele>
        <time>2019-04-19T14:58:31Z</time>
      </trkpt>
      <trkpt lat="42.23884" lon="1.86544">
        <ele>899.592</ele>
        <time>2019-04-19T14:58:44Z</time>
      </trkpt>
      <trkpt lat="42.23884" lon="1.86564">
        <ele>898.051</ele>
        <time>2019-04-19T14:58:54Z</time>
      </trkpt>
      <trkpt lat="42.23882" lon="1.86585">
        <ele>895.659</ele>
        <time>2019-04-19T14:59:04Z</time>
      </trkpt>
      <trkpt lat="42.23882" lon="1.86587">
        <ele>895.165</ele>
        <time>2019-04-19T14:59:05Z</time>
      </trkpt>
      <trkpt lat="42.23882" lon="1.86589">
        <ele>895.188</ele>
        <time>2019-04-19T14:59:06Z</time>
      </trkpt>
      <trkpt lat="42.23882" lon="1.86592">
        <ele>894.691</ele>
        <time>2019-04-19T14:59:07Z</time>
      </trkpt>
      <trkpt lat="42.23877" lon="1.86601">
        <ele>891.244</ele>
        <time>2019-04-19T14:59:15Z</time>
      </trkpt>
      <trkpt lat="42.23871" lon="1.86603">
        <ele>888.868</ele>
        <time>2019-04-19T14:59:23Z</time>
      </trkpt>
      <trkpt lat="42.2387" lon="1.86604">
        <ele>887.942</ele>
        <time>2019-04-19T14:59:24Z</time>
      </trkpt>
      <trkpt lat="42.23869" lon="1.86606">
        <ele>887.926</ele>
        <time>2019-04-19T14:59:25Z</time>
      </trkpt>
      <trkpt lat="42.23869" lon="1.86608">
        <ele>887.408</ele>
        <time>2019-04-19T14:59:26Z</time>
      </trkpt>
      <trkpt lat="42.23863" lon="1.86622">
        <ele>886.489</ele>
        <time>2019-04-19T14:59:35Z</time>
      </trkpt>
      <trkpt lat="42.23863" lon="1.86624">
        <ele>886.451</ele>
        <time>2019-04-19T14:59:36Z</time>
      </trkpt>
      <trkpt lat="42.23864" lon="1.86646">
        <ele>883.25</ele>
        <time>2019-04-19T14:59:47Z</time>
      </trkpt>
      <trkpt lat="42.23866" lon="1.86675">
        <ele>880.768</ele>
        <time>2019-04-19T15:00:02Z</time>
      </trkpt>
      <trkpt lat="42.23867" lon="1.86684">
        <ele>879.734</ele>
        <time>2019-04-19T15:00:08Z</time>
      </trkpt>
      <trkpt lat="42.23868" lon="1.86686">
        <ele>879.377</ele>
        <time>2019-04-19T15:00:09Z</time>
      </trkpt>
      <trkpt lat="42.23868" lon="1.86688">
        <ele>879.22</ele>
        <time>2019-04-19T15:00:10Z</time>
      </trkpt>
      <trkpt lat="42.2387" lon="1.86699">
        <ele>878.313</ele>
        <time>2019-04-19T15:00:16Z</time>
      </trkpt>
      <trkpt lat="42.2387" lon="1.86701">
        <ele>878.396</ele>
        <time>2019-04-19T15:00:17Z</time>
      </trkpt>
      <trkpt lat="42.23869" lon="1.8672">
        <ele>876.331</ele>
        <time>2019-04-19T15:00:30Z</time>
      </trkpt>
      <trkpt lat="42.23864" lon="1.86732">
        <ele>873.524</ele>
        <time>2019-04-19T15:00:41Z</time>
      </trkpt>
      <trkpt lat="42.23863" lon="1.86735">
        <ele>873.108</ele>
        <time>2019-04-19T15:00:43Z</time>
      </trkpt>
      <trkpt lat="42.23863" lon="1.86754">
        <ele>869.622</ele>
        <time>2019-04-19T15:00:56Z</time>
      </trkpt>
      <trkpt lat="42.23862" lon="1.86764">
        <ele>866.314</ele>
        <time>2019-04-19T15:01:08Z</time>
      </trkpt>
      <trkpt lat="42.23861" lon="1.86767">
        <ele>865.923</ele>
        <time>2019-04-19T15:01:11Z</time>
      </trkpt>
      <trkpt lat="42.23861" lon="1.86769">
        <ele>865.441</ele>
        <time>2019-04-19T15:01:12Z</time>
      </trkpt>
      <trkpt lat="42.23853" lon="1.86788">
        <ele>863.927</ele>
        <time>2019-04-19T15:01:23Z</time>
      </trkpt>
      <trkpt lat="42.23852" lon="1.86789">
        <ele>863.59</ele>
        <time>2019-04-19T15:01:24Z</time>
      </trkpt>
      <trkpt lat="42.23851" lon="1.8679">
        <ele>863.453</ele>
        <time>2019-04-19T15:01:25Z</time>
      </trkpt>
      <trkpt lat="42.23849" lon="1.86792">
        <ele>862.466</ele>
        <time>2019-04-19T15:01:26Z</time>
      </trkpt>
      <trkpt lat="42.23848" lon="1.86794">
        <ele>862.449</ele>
        <time>2019-04-19T15:01:27Z</time>
      </trkpt>
      <trkpt lat="42.23847" lon="1.86797">
        <ele>861.002</ele>
        <time>2019-04-19T15:01:30Z</time>
      </trkpt>
      <trkpt lat="42.23848" lon="1.86813">
        <ele>858.622</ele>
        <time>2019-04-19T15:01:40Z</time>
      </trkpt>
      <trkpt lat="42.23847" lon="1.86819">
        <ele>857.708</ele>
        <time>2019-04-19T15:01:44Z</time>
      </trkpt>
      <trkpt lat="42.23842" lon="1.86827">
        <ele>856.217</ele>
        <time>2019-04-19T15:01:49Z</time>
      </trkpt>
      <trkpt lat="42.23841" lon="1.86829">
        <ele>856.149</ele>
        <time>2019-04-19T15:01:50Z</time>
      </trkpt>
      <trkpt lat="42.2384" lon="1.86832">
        <ele>855.748</ele>
        <time>2019-04-19T15:01:51Z</time>
      </trkpt>
      <trkpt lat="42.23839" lon="1.86833">
        <ele>855.866</ele>
        <time>2019-04-19T15:01:52Z</time>
      </trkpt>
      <trkpt lat="42.23838" lon="1.86834">
        <ele>855.712</ele>
        <time>2019-04-19T15:01:53Z</time>
      </trkpt>
      <trkpt lat="42.23835" lon="1.86846">
        <ele>852.385</ele>
        <time>2019-04-19T15:02:02Z</time>
      </trkpt>
      <trkpt lat="42.23832" lon="1.86854">
        <ele>851.098</ele>
        <time>2019-04-19T15:02:09Z</time>
      </trkpt>
      <trkpt lat="42.23826" lon="1.86866">
        <ele>847.581</ele>
        <time>2019-04-19T15:02:21Z</time>
      </trkpt>
      <trkpt lat="42.23825" lon="1.86868">
        <ele>847.525</ele>
        <time>2019-04-19T15:02:22Z</time>
      </trkpt>
      <trkpt lat="42.23825" lon="1.86869">
        <ele>847.026</ele>
        <time>2019-04-19T15:02:23Z</time>
      </trkpt>
      <trkpt lat="42.23824" lon="1.86871">
        <ele>846.508</ele>
        <time>2019-04-19T15:02:24Z</time>
      </trkpt>
      <trkpt lat="42.23824" lon="1.86875">
        <ele>846.608</ele>
        <time>2019-04-19T15:02:26Z</time>
      </trkpt>
      <trkpt lat="42.23816" lon="1.86883">
        <ele>843.685</ele>
        <time>2019-04-19T15:02:37Z</time>
      </trkpt>
      <trkpt lat="42.23807" lon="1.86888">
        <ele>841.217</ele>
        <time>2019-04-19T15:02:47Z</time>
      </trkpt>
      <trkpt lat="42.23797" lon="1.86885">
        <ele>838.086</ele>
        <time>2019-04-19T15:02:56Z</time>
      </trkpt>
      <trkpt lat="42.23791" lon="1.8688">
        <ele>837.414</ele>
        <time>2019-04-19T15:03:00Z</time>
      </trkpt>
      <trkpt lat="42.23784" lon="1.86874">
        <ele>835.08</ele>
        <time>2019-04-19T15:03:05Z</time>
      </trkpt>
      <trkpt lat="42.23775" lon="1.86864">
        <ele>831.733</ele>
        <time>2019-04-19T15:03:15Z</time>
      </trkpt>
      <trkpt lat="42.23775" lon="1.86863">
        <ele>831.736</ele>
        <time>2019-04-19T15:03:16Z</time>
      </trkpt>
      <trkpt lat="42.23768" lon="1.86873">
        <ele>828.489</ele>
        <time>2019-04-19T15:03:26Z</time>
      </trkpt>
      <trkpt lat="42.23768" lon="1.86881">
        <ele>825.421</ele>
        <time>2019-04-19T15:03:34Z</time>
      </trkpt>
      <trkpt lat="42.23767" lon="1.86883">
        <ele>825.441</ele>
        <time>2019-04-19T15:03:35Z</time>
      </trkpt>
      <trkpt lat="42.23768" lon="1.86901">
        <ele>822.105</ele>
        <time>2019-04-19T15:03:45Z</time>
      </trkpt>
      <trkpt lat="42.23767" lon="1.86912">
        <ele>819.608</ele>
        <time>2019-04-19T15:03:54Z</time>
      </trkpt>
      <trkpt lat="42.23766" lon="1.86913">
        <ele>819.245</ele>
        <time>2019-04-19T15:03:55Z</time>
      </trkpt>
      <trkpt lat="42.23759" lon="1.86931">
        <ele>815.967</ele>
        <time>2019-04-19T15:04:06Z</time>
      </trkpt>
      <trkpt lat="42.23756" lon="1.86937">
        <ele>814.926</ele>
        <time>2019-04-19T15:04:11Z</time>
      </trkpt>
      <trkpt lat="42.23755" lon="1.8694">
        <ele>814.374</ele>
        <time>2019-04-19T15:04:12Z</time>
      </trkpt>
      <trkpt lat="42.23755" lon="1.86941">
        <ele>813.81</ele>
        <time>2019-04-19T15:04:13Z</time>
      </trkpt>
      <trkpt lat="42.23752" lon="1.86956">
        <ele>810.523</ele>
        <time>2019-04-19T15:04:25Z</time>
      </trkpt>
      <trkpt lat="42.23745" lon="1.86966">
        <ele>808.626</ele>
        <time>2019-04-19T15:04:34Z</time>
      </trkpt>
      <trkpt lat="42.23746" lon="1.86983">
        <ele>806.719</ele>
        <time>2019-04-19T15:04:46Z</time>
      </trkpt>
      <trkpt lat="42.2375" lon="1.86997">
        <ele>803.372</ele>
        <time>2019-04-19T15:04:59Z</time>
      </trkpt>
      <trkpt lat="42.23747" lon="1.87005">
        <ele>800.413</ele>
        <time>2019-04-19T15:05:06Z</time>
      </trkpt>
      <trkpt lat="42.23746" lon="1.87007">
        <ele>800.514</ele>
        <time>2019-04-19T15:05:08Z</time>
      </trkpt>
      <trkpt lat="42.23745" lon="1.87008">
        <ele>800.008</ele>
        <time>2019-04-19T15:05:09Z</time>
      </trkpt>
      <trkpt lat="42.23743" lon="1.87034">
        <ele>800.03</ele>
        <time>2019-04-19T15:05:23Z</time>
      </trkpt>
      <trkpt lat="42.23747" lon="1.87056">
        <ele>798.192</ele>
        <time>2019-04-19T15:05:36Z</time>
      </trkpt>
      <trkpt lat="42.23753" lon="1.87082">
        <ele>797.631</ele>
        <time>2019-04-19T15:05:51Z</time>
      </trkpt>
      <trkpt lat="42.23758" lon="1.87107">
        <ele>797.039</ele>
        <time>2019-04-19T15:06:05Z</time>
      </trkpt>
      <trkpt lat="42.2376" lon="1.8713">
        <ele>797.115</ele>
        <time>2019-04-19T15:06:18Z</time>
      </trkpt>
      <trkpt lat="42.2376" lon="1.87134">
        <ele>797.138</ele>
        <time>2019-04-19T15:06:20Z</time>
      </trkpt>
      <trkpt lat="42.2376" lon="1.87136">
        <ele>796.681</ele>
        <time>2019-04-19T15:06:21Z</time>
      </trkpt>
      <trkpt lat="42.2376" lon="1.87139">
        <ele>796.534</ele>
        <time>2019-04-19T15:06:22Z</time>
      </trkpt>
      <trkpt lat="42.2376" lon="1.87141">
        <ele>796.514</ele>
        <time>2019-04-19T15:06:23Z</time>
      </trkpt>
      <trkpt lat="42.23762" lon="1.87164">
        <ele>794.154</ele>
        <time>2019-04-19T15:06:35Z</time>
      </trkpt>
      <trkpt lat="42.23762" lon="1.87166">
        <ele>794.209</ele>
        <time>2019-04-19T15:06:36Z</time>
      </trkpt>
      <trkpt lat="42.23762" lon="1.87168">
        <ele>794.108</ele>
        <time>2019-04-19T15:06:37Z</time>
      </trkpt>
      <trkpt lat="42.23764" lon="1.87191">
        <ele>794.194</ele>
        <time>2019-04-19T15:06:50Z</time>
      </trkpt>
      <trkpt lat="42.23755" lon="1.87209">
        <ele>793.356</ele>
        <time>2019-04-19T15:07:03Z</time>
      </trkpt>
      <trkpt lat="42.23742" lon="1.87221">
        <ele>791.425</ele>
        <time>2019-04-19T15:07:14Z</time>
      </trkpt>
      <trkpt lat="42.23735" lon="1.8723">
        <ele>792.313</ele>
        <time>2019-04-19T15:07:22Z</time>
      </trkpt>
      <trkpt lat="42.23721" lon="1.87246">
        <ele>793.269</ele>
        <time>2019-04-19T15:07:38Z</time>
      </trkpt>
      <trkpt lat="42.23713" lon="1.87252">
        <ele>793.262</ele>
        <time>2019-04-19T15:07:45Z</time>
      </trkpt>
      <trkpt lat="42.23712" lon="1.87253">
        <ele>793.275</ele>
        <time>2019-04-19T15:07:46Z</time>
      </trkpt>
      <trkpt lat="42.23711" lon="1.87254">
        <ele>793.298</ele>
        <time>2019-04-19T15:07:47Z</time>
      </trkpt>
      <trkpt lat="42.2371" lon="1.87255">
        <ele>793.265</ele>
        <time>2019-04-19T15:07:48Z</time>
      </trkpt>
      <trkpt lat="42.23709" lon="1.87256">
        <ele>793.268</ele>
        <time>2019-04-19T15:07:49Z</time>
      </trkpt>
      <trkpt lat="42.23707" lon="1.87257">
        <ele>793.314</ele>
        <time>2019-04-19T15:07:50Z</time>
      </trkpt>
      <trkpt lat="42.23706" lon="1.87258">
        <ele>793.708</ele>
        <time>2019-04-19T15:07:51Z</time>
      </trkpt>
      <trkpt lat="42.23705" lon="1.87259">
        <ele>793.739</ele>
        <time>2019-04-19T15:07:52Z</time>
      </trkpt>
      <trkpt lat="42.23704" lon="1.8726">
        <ele>793.841</ele>
        <time>2019-04-19T15:07:53Z</time>
      </trkpt>
      <trkpt lat="42.23686" lon="1.87279">
        <ele>793.82</ele>
        <time>2019-04-19T15:08:10Z</time>
      </trkpt>
      <trkpt lat="42.23678" lon="1.87295">
        <ele>792.398</ele>
        <time>2019-04-19T15:08:21Z</time>
      </trkpt>
      <trkpt lat="42.23676" lon="1.87318">
        <ele>791.884</ele>
        <time>2019-04-19T15:08:34Z</time>
      </trkpt>
      <trkpt lat="42.2367" lon="1.87345">
        <ele>791.827</ele>
        <time>2019-04-19T15:08:48Z</time>
      </trkpt>
      <trkpt lat="42.23662" lon="1.87373">
        <ele>789.97</ele>
        <time>2019-04-19T15:09:02Z</time>
      </trkpt>
      <trkpt lat="42.2365" lon="1.87392">
        <ele>787.933</ele>
        <time>2019-04-19T15:09:16Z</time>
      </trkpt>
      <trkpt lat="42.23646" lon="1.87396">
        <ele>786.573</ele>
        <time>2019-04-19T15:09:19Z</time>
      </trkpt>
      <trkpt lat="42.23643" lon="1.87401">
        <ele>786.585</ele>
        <time>2019-04-19T15:09:23Z</time>
      </trkpt>
      <trkpt lat="42.23628" lon="1.87417">
        <ele>783.213</ele>
        <time>2019-04-19T15:09:35Z</time>
      </trkpt>
      <trkpt lat="42.23617" lon="1.87439">
        <ele>781.208</ele>
        <time>2019-04-19T15:09:49Z</time>
      </trkpt>
      <trkpt lat="42.23603" lon="1.87457">
        <ele>779.27</ele>
        <time>2019-04-19T15:10:03Z</time>
      </trkpt>
      <trkpt lat="42.23587" lon="1.87469">
        <ele>776.062</ele>
        <time>2019-04-19T15:10:16Z</time>
      </trkpt>
      <trkpt lat="42.23569" lon="1.87484">
        <ele>775.541</ele>
        <time>2019-04-19T15:10:30Z</time>
      </trkpt>
      <trkpt lat="42.23562" lon="1.87487">
        <ele>775.489</ele>
        <time>2019-04-19T15:10:36Z</time>
      </trkpt>
      <trkpt lat="42.23561" lon="1.87488">
        <ele>775.415</ele>
        <time>2019-04-19T15:10:37Z</time>
      </trkpt>
      <trkpt lat="42.23559" lon="1.8749">
        <ele>775.558</ele>
        <time>2019-04-19T15:10:38Z</time>
      </trkpt>
      <trkpt lat="42.23558" lon="1.87491">
        <ele>775.571</ele>
        <time>2019-04-19T15:10:39Z</time>
      </trkpt>
      <trkpt lat="42.23558" lon="1.87493">
        <ele>775.474</ele>
        <time>2019-04-19T15:10:40Z</time>
      </trkpt>
      <trkpt lat="42.23548" lon="1.87513">
        <ele>775.412</ele>
        <time>2019-04-19T15:10:53Z</time>
      </trkpt>
      <trkpt lat="42.23543" lon="1.87526">
        <ele>774.032</ele>
        <time>2019-04-19T15:11:05Z</time>
      </trkpt>
      <trkpt lat="42.23546" lon="1.87525">
        <ele>770.605</ele>
        <time>2019-04-19T15:11:12Z</time>
      </trkpt>
      <trkpt lat="42.23551" lon="1.87522">
        <ele>768.208</ele>
        <time>2019-04-19T15:11:18Z</time>
      </trkpt>
      <trkpt lat="42.23553" lon="1.8752">
        <ele>767.374</ele>
        <time>2019-04-19T15:11:19Z</time>
      </trkpt>
      <trkpt lat="42.23566" lon="1.87509">
        <ele>764.056</ele>
        <time>2019-04-19T15:11:31Z</time>
      </trkpt>
      <trkpt lat="42.23572" lon="1.8751">
        <ele>761.165</ele>
        <time>2019-04-19T15:11:42Z</time>
      </trkpt>
      <trkpt lat="42.2358" lon="1.87511">
        <ele>758.133</ele>
        <time>2019-04-19T15:11:54Z</time>
      </trkpt>
      <trkpt lat="42.23585" lon="1.87515">
        <ele>756.339</ele>
        <time>2019-04-19T15:11:59Z</time>
      </trkpt>
      <trkpt lat="42.23587" lon="1.87517">
        <ele>756.272</ele>
        <time>2019-04-19T15:12:00Z</time>
      </trkpt>
      <trkpt lat="42.23595" lon="1.87527">
        <ele>753.375</ele>
        <time>2019-04-19T15:12:10Z</time>
      </trkpt>
      <trkpt lat="42.23601" lon="1.87527">
        <ele>750.928</ele>
        <time>2019-04-19T15:12:18Z</time>
      </trkpt>
      <trkpt lat="42.23603" lon="1.87526">
        <ele>750.498</ele>
        <time>2019-04-19T15:12:19Z</time>
      </trkpt>
      <trkpt lat="42.23606" lon="1.87518">
        <ele>749.015</ele>
        <time>2019-04-19T15:12:24Z</time>
      </trkpt>
      <trkpt lat="42.23607" lon="1.87515">
        <ele>748.526</ele>
        <time>2019-04-19T15:12:26Z</time>
      </trkpt>
      <trkpt lat="42.23608" lon="1.87512">
        <ele>748.508</ele>
        <time>2019-04-19T15:12:27Z</time>
      </trkpt>
      <trkpt lat="42.23613" lon="1.87507">
        <ele>747.082</ele>
        <time>2019-04-19T15:12:32Z</time>
      </trkpt>
      <trkpt lat="42.23614" lon="1.87506">
        <ele>746.794</ele>
        <time>2019-04-19T15:12:33Z</time>
      </trkpt>
      <trkpt lat="42.23622" lon="1.87496">
        <ele>744.263</ele>
        <time>2019-04-19T15:12:44Z</time>
      </trkpt>
      <trkpt lat="42.23635" lon="1.87487">
        <ele>741.821</ele>
        <time>2019-04-19T15:12:55Z</time>
      </trkpt>
      <trkpt lat="42.23636" lon="1.87489">
        <ele>741.897</ele>
        <time>2019-04-19T15:12:57Z</time>
      </trkpt>
      <trkpt lat="42.23634" lon="1.87491">
        <ele>741.49</ele>
        <time>2019-04-19T15:12:58Z</time>
      </trkpt>
      <trkpt lat="42.23633" lon="1.87492">
        <ele>740.933</ele>
        <time>2019-04-19T15:12:59Z</time>
      </trkpt>
      <trkpt lat="42.23633" lon="1.87494">
        <ele>741.316</ele>
        <time>2019-04-19T15:13:00Z</time>
      </trkpt>
      <trkpt lat="42.23632" lon="1.87495">
        <ele>740.852</ele>
        <time>2019-04-19T15:13:01Z</time>
      </trkpt>
      <trkpt lat="42.23631" lon="1.87497">
        <ele>740.853</ele>
        <time>2019-04-19T15:13:02Z</time>
      </trkpt>
      <trkpt lat="42.23632" lon="1.87499">
        <ele>740.908</ele>
        <time>2019-04-19T15:13:12Z</time>
      </trkpt>
      <trkpt lat="42.23629" lon="1.87501">
        <ele>740.808</ele>
        <time>2019-04-19T15:13:28Z</time>
      </trkpt>
      <trkpt lat="42.23626" lon="1.87512">
        <ele>739.348</ele>
        <time>2019-04-19T15:13:37Z</time>
      </trkpt>
      <trkpt lat="42.23618" lon="1.87538">
        <ele>736.54</ele>
        <time>2019-04-19T15:13:53Z</time>
      </trkpt>
      <trkpt lat="42.23615" lon="1.87554">
        <ele>736.199</ele>
        <time>2019-04-19T15:14:02Z</time>
      </trkpt>
      <trkpt lat="42.23597" lon="1.87572">
        <ele>736.077</ele>
        <time>2019-04-19T15:14:18Z</time>
      </trkpt>
      <trkpt lat="42.23576" lon="1.87589">
        <ele>736.143</ele>
        <time>2019-04-19T15:14:36Z</time>
      </trkpt>
      <trkpt lat="42.2357" lon="1.87594">
        <ele>736.076</ele>
        <time>2019-04-19T15:14:42Z</time>
      </trkpt>
      <trkpt lat="42.23567" lon="1.87596">
        <ele>736.089</ele>
        <time>2019-04-19T15:14:44Z</time>
      </trkpt>
      <trkpt lat="42.23567" lon="1.87597">
        <ele>736.012</ele>
        <time>2019-04-19T15:14:45Z</time>
      </trkpt>
      <trkpt lat="42.23561" lon="1.87601">
        <ele>736.062</ele>
        <time>2019-04-19T15:14:49Z</time>
      </trkpt>
      <trkpt lat="42.23549" lon="1.87611">
        <ele>736.083</ele>
        <time>2019-04-19T15:14:59Z</time>
      </trkpt>
      <trkpt lat="42.23546" lon="1.87615">
        <ele>736.011</ele>
        <time>2019-04-19T15:15:04Z</time>
      </trkpt>
      <trkpt lat="42.23545" lon="1.87616">
        <ele>736.108</ele>
        <time>2019-04-19T15:15:05Z</time>
      </trkpt>
      <trkpt lat="42.23544" lon="1.87617">
        <ele>736.199</ele>
        <time>2019-04-19T15:15:06Z</time>
      </trkpt>
      <trkpt lat="42.2353" lon="1.87627">
        <ele>736.111</ele>
        <time>2019-04-19T15:15:17Z</time>
      </trkpt>
      <trkpt lat="42.23521" lon="1.87634">
        <ele>736.01</ele>
        <time>2019-04-19T15:15:24Z</time>
      </trkpt>
      <trkpt lat="42.23521" lon="1.87635">
        <ele>736.128</ele>
        <time>2019-04-19T15:15:25Z</time>
      </trkpt>
      <trkpt lat="42.23514" lon="1.87642">
        <ele>736.154</ele>
        <time>2019-04-19T15:15:31Z</time>
      </trkpt>
      <trkpt lat="42.23499" lon="1.87648">
        <ele>736.147</ele>
        <time>2019-04-19T15:15:42Z</time>
      </trkpt>
      <trkpt lat="42.23481" lon="1.87662">
        <ele>735.54</ele>
        <time>2019-04-19T15:15:58Z</time>
      </trkpt>
      <trkpt lat="42.2347" lon="1.87678">
        <ele>735.053</ele>
        <time>2019-04-19T15:16:13Z</time>
      </trkpt>
      <trkpt lat="42.23462" lon="1.87689">
        <ele>734.195</ele>
        <time>2019-04-19T15:16:27Z</time>
      </trkpt>
      <trkpt lat="42.23445" lon="1.87699">
        <ele>733.649</ele>
        <time>2019-04-19T15:16:39Z</time>
      </trkpt>
      <trkpt lat="42.23438" lon="1.87713">
        <ele>732.723</ele>
        <time>2019-04-19T15:16:48Z</time>
      </trkpt>
      <trkpt lat="42.2343" lon="1.87729">
        <ele>732.108</ele>
        <time>2019-04-19T15:16:59Z</time>
      </trkpt>
      <trkpt lat="42.2342" lon="1.87755">
        <ele>731.212</ele>
        <time>2019-04-19T15:17:13Z</time>
      </trkpt>
      <trkpt lat="42.23421" lon="1.87758">
        <ele>731.284</ele>
        <time>2019-04-19T15:17:14Z</time>
      </trkpt>
      <trkpt lat="42.23424" lon="1.87776">
        <ele>731.343</ele>
        <time>2019-04-19T15:17:25Z</time>
      </trkpt>
      <trkpt lat="42.23412" lon="1.87791">
        <ele>731.321</ele>
        <time>2019-04-19T15:17:33Z</time>
      </trkpt>
      <trkpt lat="42.2341" lon="1.87793">
        <ele>731.237</ele>
        <time>2019-04-19T15:17:34Z</time>
      </trkpt>
      <trkpt lat="42.23405" lon="1.87811">
        <ele>731.39</ele>
        <time>2019-04-19T15:17:44Z</time>
      </trkpt>
      <trkpt lat="42.234" lon="1.87821">
        <ele>730.753</ele>
        <time>2019-04-19T15:17:56Z</time>
      </trkpt>
      <trkpt lat="42.234" lon="1.87823">
        <ele>730.726</ele>
        <time>2019-04-19T15:17:57Z</time>
      </trkpt>
      <trkpt lat="42.23399" lon="1.87827">
        <ele>730.297</ele>
        <time>2019-04-19T15:18:00Z</time>
      </trkpt>
      <trkpt lat="42.23398" lon="1.87829">
        <ele>730.223</ele>
        <time>2019-04-19T15:18:01Z</time>
      </trkpt>
      <trkpt lat="42.23398" lon="1.8783">
        <ele>730.325</ele>
        <time>2019-04-19T15:18:02Z</time>
      </trkpt>
      <trkpt lat="42.23396" lon="1.87845">
        <ele>729.808</ele>
        <time>2019-04-19T15:18:18Z</time>
      </trkpt>
      <trkpt lat="42.23399" lon="1.87847">
        <ele>729.352</ele>
        <time>2019-04-19T15:18:42Z</time>
      </trkpt>
      <trkpt lat="42.23402" lon="1.87851">
        <ele>729.354</ele>
        <time>2019-04-19T15:19:07Z</time>
      </trkpt>
      <trkpt lat="42.23396" lon="1.87847">
        <ele>729.333</ele>
        <time>2019-04-19T15:19:28Z</time>
      </trkpt>
      <trkpt lat="42.23397" lon="1.87854">
        <ele>728.811</ele>
        <time>2019-04-19T15:20:03Z</time>
      </trkpt>
      <trkpt lat="42.23395" lon="1.87864">
        <ele>730.217</ele>
        <time>2019-04-19T15:20:26Z</time>
      </trkpt>
      <trkpt lat="42.23388" lon="1.87887">
        <ele>729.74</ele>
        <time>2019-04-19T15:20:42Z</time>
      </trkpt>
      <trkpt lat="42.23379" lon="1.87907">
        <ele>729.753</ele>
        <time>2019-04-19T15:20:59Z</time>
      </trkpt>
      <trkpt lat="42.23369" lon="1.87911">
        <ele>728.846</ele>
        <time>2019-04-19T15:21:13Z</time>
      </trkpt>
      <trkpt lat="42.23365" lon="1.87913">
        <ele>728.872</ele>
        <time>2019-04-19T15:21:39Z</time>
      </trkpt>
      <trkpt lat="42.23364" lon="1.87913">
        <ele>728.813</ele>
        <time>2019-04-19T15:21:40Z</time>
      </trkpt>
      <trkpt lat="42.23357" lon="1.87916">
        <ele>728.914</ele>
        <time>2019-04-19T15:21:47Z</time>
      </trkpt>
      <trkpt lat="42.23356" lon="1.87917">
        <ele>728.908</ele>
        <time>2019-04-19T15:22:02Z</time>
      </trkpt>
    </trkseg>
  </trk>
</gpx>